<?xml version="1.0" encoding="UTF-8" standalone="no" ?>
<gpx xmlns="http://www.topografix.com/GPX/1/1" xmlns:xsi="http://www.w3.org/2001/XMLSchema-instance" xsi:schemaLocation="http://www.topografix.com/GPX/1/1 http://www.topografix.com/GPX/1/1/gpx.xsd" version="1.1" creator="VisuGPX - https://www.visugpx.com">
  <metadata>
    <name>Grambois banon les mées st paul d. Grambois</name>
  </metadata>
  <trk>
    <name><![CDATA[Grambois banon les mées st paul d. Grambois]]></name>
    <trkseg>
      <trkpt lat="43.77314" lon="5.55448">
        <ele>390.181</ele>
        <time>2020-09-02T08:06:48Z</time>
      </trkpt>
      <trkpt lat="43.77309" lon="5.55451">
        <ele>390.161</ele>
        <time>2020-09-02T08:07:44Z</time>
      </trkpt>
      <trkpt lat="43.77304" lon="5.55456">
        <ele>390.117</ele>
        <time>2020-09-02T08:07:46Z</time>
      </trkpt>
      <trkpt lat="43.77298" lon="5.55463">
        <ele>390.108</ele>
        <time>2020-09-02T08:07:48Z</time>
      </trkpt>
      <trkpt lat="43.77293" lon="5.55467">
        <ele>390.196</ele>
        <time>2020-09-02T08:07:50Z</time>
      </trkpt>
      <trkpt lat="43.77286" lon="5.55467">
        <ele>390.175</ele>
        <time>2020-09-02T08:07:52Z</time>
      </trkpt>
      <trkpt lat="43.77281" lon="5.55466">
        <ele>390.125</ele>
        <time>2020-09-02T08:07:53Z</time>
      </trkpt>
      <trkpt lat="43.77272" lon="5.55464">
        <ele>390.162</ele>
        <time>2020-09-02T08:07:55Z</time>
      </trkpt>
      <trkpt lat="43.77267" lon="5.55463">
        <ele>390.133</ele>
        <time>2020-09-02T08:07:56Z</time>
      </trkpt>
      <trkpt lat="43.77261" lon="5.55461">
        <ele>390.171</ele>
        <time>2020-09-02T08:07:57Z</time>
      </trkpt>
      <trkpt lat="43.77256" lon="5.55461">
        <ele>390.187</ele>
        <time>2020-09-02T08:07:58Z</time>
      </trkpt>
      <trkpt lat="43.77251" lon="5.5546">
        <ele>389.62</ele>
        <time>2020-09-02T08:07:59Z</time>
      </trkpt>
      <trkpt lat="43.77245" lon="5.55459">
        <ele>389.266</ele>
        <time>2020-09-02T08:08:00Z</time>
      </trkpt>
      <trkpt lat="43.77239" lon="5.55458">
        <ele>388.729</ele>
        <time>2020-09-02T08:08:01Z</time>
      </trkpt>
      <trkpt lat="43.77233" lon="5.55457">
        <ele>388.521</ele>
        <time>2020-09-02T08:08:02Z</time>
      </trkpt>
      <trkpt lat="43.77226" lon="5.55457">
        <ele>388.208</ele>
        <time>2020-09-02T08:08:03Z</time>
      </trkpt>
      <trkpt lat="43.77219" lon="5.55456">
        <ele>387.784</ele>
        <time>2020-09-02T08:08:04Z</time>
      </trkpt>
      <trkpt lat="43.77212" lon="5.55455">
        <ele>387.483</ele>
        <time>2020-09-02T08:08:05Z</time>
      </trkpt>
      <trkpt lat="43.77204" lon="5.55454">
        <ele>387.453</ele>
        <time>2020-09-02T08:08:06Z</time>
      </trkpt>
      <trkpt lat="43.77198" lon="5.55453">
        <ele>387.47</ele>
        <time>2020-09-02T08:08:07Z</time>
      </trkpt>
      <trkpt lat="43.77192" lon="5.55452">
        <ele>387.391</ele>
        <time>2020-09-02T08:08:08Z</time>
      </trkpt>
      <trkpt lat="43.77187" lon="5.55452">
        <ele>387.049</ele>
        <time>2020-09-02T08:08:09Z</time>
      </trkpt>
      <trkpt lat="43.77182" lon="5.55452">
        <ele>387.025</ele>
        <time>2020-09-02T08:08:10Z</time>
      </trkpt>
      <trkpt lat="43.77174" lon="5.55451">
        <ele>387.258</ele>
        <time>2020-09-02T08:08:12Z</time>
      </trkpt>
      <trkpt lat="43.77169" lon="5.55446">
        <ele>386.511</ele>
        <time>2020-09-02T08:08:14Z</time>
      </trkpt>
      <trkpt lat="43.77173" lon="5.55437">
        <ele>385.921</ele>
        <time>2020-09-02T08:08:16Z</time>
      </trkpt>
      <trkpt lat="43.77178" lon="5.55431">
        <ele>386.403</ele>
        <time>2020-09-02T08:08:17Z</time>
      </trkpt>
      <trkpt lat="43.77182" lon="5.55423">
        <ele>386.508</ele>
        <time>2020-09-02T08:08:18Z</time>
      </trkpt>
      <trkpt lat="43.77188" lon="5.55416">
        <ele>386.049</ele>
        <time>2020-09-02T08:08:19Z</time>
      </trkpt>
      <trkpt lat="43.77194" lon="5.55408">
        <ele>385.658</ele>
        <time>2020-09-02T08:08:20Z</time>
      </trkpt>
      <trkpt lat="43.772" lon="5.55401">
        <ele>385.088</ele>
        <time>2020-09-02T08:08:21Z</time>
      </trkpt>
      <trkpt lat="43.77206" lon="5.55392">
        <ele>384.845</ele>
        <time>2020-09-02T08:08:22Z</time>
      </trkpt>
      <trkpt lat="43.77213" lon="5.55383">
        <ele>384.486</ele>
        <time>2020-09-02T08:08:23Z</time>
      </trkpt>
      <trkpt lat="43.77219" lon="5.55374">
        <ele>384.334</ele>
        <time>2020-09-02T08:08:24Z</time>
      </trkpt>
      <trkpt lat="43.77227" lon="5.55364">
        <ele>384.26</ele>
        <time>2020-09-02T08:08:25Z</time>
      </trkpt>
      <trkpt lat="43.77234" lon="5.55353">
        <ele>383.353</ele>
        <time>2020-09-02T08:08:26Z</time>
      </trkpt>
      <trkpt lat="43.77242" lon="5.55342">
        <ele>383.074</ele>
        <time>2020-09-02T08:08:27Z</time>
      </trkpt>
      <trkpt lat="43.7725" lon="5.5533">
        <ele>383.156</ele>
        <time>2020-09-02T08:08:28Z</time>
      </trkpt>
      <trkpt lat="43.77258" lon="5.55319">
        <ele>382.821</ele>
        <time>2020-09-02T08:08:29Z</time>
      </trkpt>
      <trkpt lat="43.77267" lon="5.55306">
        <ele>382.308</ele>
        <time>2020-09-02T08:08:30Z</time>
      </trkpt>
      <trkpt lat="43.77276" lon="5.55294">
        <ele>381.745</ele>
        <time>2020-09-02T08:08:31Z</time>
      </trkpt>
      <trkpt lat="43.77284" lon="5.55281">
        <ele>381.334</ele>
        <time>2020-09-02T08:08:32Z</time>
      </trkpt>
      <trkpt lat="43.77293" lon="5.55268">
        <ele>381.014</ele>
        <time>2020-09-02T08:08:33Z</time>
      </trkpt>
      <trkpt lat="43.77302" lon="5.55255">
        <ele>381.081</ele>
        <time>2020-09-02T08:08:34Z</time>
      </trkpt>
      <trkpt lat="43.77311" lon="5.55241">
        <ele>381.382</ele>
        <time>2020-09-02T08:08:35Z</time>
      </trkpt>
      <trkpt lat="43.77321" lon="5.55227">
        <ele>381.06</ele>
        <time>2020-09-02T08:08:36Z</time>
      </trkpt>
      <trkpt lat="43.77331" lon="5.55212">
        <ele>381.016</ele>
        <time>2020-09-02T08:08:37Z</time>
      </trkpt>
      <trkpt lat="43.77341" lon="5.55197">
        <ele>381.389</ele>
        <time>2020-09-02T08:08:38Z</time>
      </trkpt>
      <trkpt lat="43.77352" lon="5.55182">
        <ele>380.882</ele>
        <time>2020-09-02T08:08:39Z</time>
      </trkpt>
      <trkpt lat="43.77362" lon="5.55167">
        <ele>380.643</ele>
        <time>2020-09-02T08:08:40Z</time>
      </trkpt>
      <trkpt lat="43.77371" lon="5.55153">
        <ele>380.317</ele>
        <time>2020-09-02T08:08:41Z</time>
      </trkpt>
      <trkpt lat="43.77378" lon="5.55138">
        <ele>380.208</ele>
        <time>2020-09-02T08:08:42Z</time>
      </trkpt>
      <trkpt lat="43.77385" lon="5.55122">
        <ele>380.156</ele>
        <time>2020-09-02T08:08:43Z</time>
      </trkpt>
      <trkpt lat="43.77391" lon="5.55103">
        <ele>380.075</ele>
        <time>2020-09-02T08:08:44Z</time>
      </trkpt>
      <trkpt lat="43.77395" lon="5.55083">
        <ele>379.545</ele>
        <time>2020-09-02T08:08:45Z</time>
      </trkpt>
      <trkpt lat="43.77397" lon="5.55063">
        <ele>378.992</ele>
        <time>2020-09-02T08:08:46Z</time>
      </trkpt>
      <trkpt lat="43.774" lon="5.55043">
        <ele>378.673</ele>
        <time>2020-09-02T08:08:47Z</time>
      </trkpt>
      <trkpt lat="43.77402" lon="5.55024">
        <ele>378.861</ele>
        <time>2020-09-02T08:08:48Z</time>
      </trkpt>
      <trkpt lat="43.77404" lon="5.55006">
        <ele>379.187</ele>
        <time>2020-09-02T08:08:49Z</time>
      </trkpt>
      <trkpt lat="43.77406" lon="5.5499">
        <ele>379.56</ele>
        <time>2020-09-02T08:08:50Z</time>
      </trkpt>
      <trkpt lat="43.77408" lon="5.54975">
        <ele>380.034</ele>
        <time>2020-09-02T08:08:51Z</time>
      </trkpt>
      <trkpt lat="43.77409" lon="5.54962">
        <ele>380.555</ele>
        <time>2020-09-02T08:08:52Z</time>
      </trkpt>
      <trkpt lat="43.7741" lon="5.54951">
        <ele>381.21</ele>
        <time>2020-09-02T08:08:53Z</time>
      </trkpt>
      <trkpt lat="43.77413" lon="5.54941">
        <ele>381.608</ele>
        <time>2020-09-02T08:08:54Z</time>
      </trkpt>
      <trkpt lat="43.77419" lon="5.54934">
        <ele>381.841</ele>
        <time>2020-09-02T08:08:55Z</time>
      </trkpt>
      <trkpt lat="43.77426" lon="5.54931">
        <ele>382.22</ele>
        <time>2020-09-02T08:08:56Z</time>
      </trkpt>
      <trkpt lat="43.77434" lon="5.54931">
        <ele>382.28</ele>
        <time>2020-09-02T08:08:57Z</time>
      </trkpt>
      <trkpt lat="43.77442" lon="5.54933">
        <ele>382.127</ele>
        <time>2020-09-02T08:08:58Z</time>
      </trkpt>
      <trkpt lat="43.77451" lon="5.54934">
        <ele>382.198</ele>
        <time>2020-09-02T08:08:59Z</time>
      </trkpt>
      <trkpt lat="43.77461" lon="5.54935">
        <ele>382.186</ele>
        <time>2020-09-02T08:09:00Z</time>
      </trkpt>
      <trkpt lat="43.77472" lon="5.54936">
        <ele>382.132</ele>
        <time>2020-09-02T08:09:01Z</time>
      </trkpt>
      <trkpt lat="43.77483" lon="5.54938">
        <ele>382.465</ele>
        <time>2020-09-02T08:09:02Z</time>
      </trkpt>
      <trkpt lat="43.77494" lon="5.54939">
        <ele>382.736</ele>
        <time>2020-09-02T08:09:03Z</time>
      </trkpt>
      <trkpt lat="43.77505" lon="5.5494">
        <ele>383.317</ele>
        <time>2020-09-02T08:09:04Z</time>
      </trkpt>
      <trkpt lat="43.77517" lon="5.54942">
        <ele>383.518</ele>
        <time>2020-09-02T08:09:05Z</time>
      </trkpt>
      <trkpt lat="43.77527" lon="5.54943">
        <ele>383.908</ele>
        <time>2020-09-02T08:09:06Z</time>
      </trkpt>
      <trkpt lat="43.77538" lon="5.54943">
        <ele>384.151</ele>
        <time>2020-09-02T08:09:07Z</time>
      </trkpt>
      <trkpt lat="43.77549" lon="5.54941">
        <ele>384.61</ele>
        <time>2020-09-02T08:09:08Z</time>
      </trkpt>
      <trkpt lat="43.7756" lon="5.54937">
        <ele>384.95</ele>
        <time>2020-09-02T08:09:09Z</time>
      </trkpt>
      <trkpt lat="43.77571" lon="5.54931">
        <ele>385.237</ele>
        <time>2020-09-02T08:09:10Z</time>
      </trkpt>
      <trkpt lat="43.7758" lon="5.54925">
        <ele>385.388</ele>
        <time>2020-09-02T08:09:11Z</time>
      </trkpt>
      <trkpt lat="43.7759" lon="5.54917">
        <ele>385.746</ele>
        <time>2020-09-02T08:09:12Z</time>
      </trkpt>
      <trkpt lat="43.77599" lon="5.5491">
        <ele>386.022</ele>
        <time>2020-09-02T08:09:13Z</time>
      </trkpt>
      <trkpt lat="43.77608" lon="5.54902">
        <ele>385.985</ele>
        <time>2020-09-02T08:09:14Z</time>
      </trkpt>
      <trkpt lat="43.77617" lon="5.54895">
        <ele>385.921</ele>
        <time>2020-09-02T08:09:15Z</time>
      </trkpt>
      <trkpt lat="43.77626" lon="5.5489">
        <ele>386.741</ele>
        <time>2020-09-02T08:09:16Z</time>
      </trkpt>
      <trkpt lat="43.77635" lon="5.54885">
        <ele>387.105</ele>
        <time>2020-09-02T08:09:17Z</time>
      </trkpt>
      <trkpt lat="43.77643" lon="5.54882">
        <ele>387.608</ele>
        <time>2020-09-02T08:09:18Z</time>
      </trkpt>
      <trkpt lat="43.77653" lon="5.54879">
        <ele>387.96</ele>
        <time>2020-09-02T08:09:19Z</time>
      </trkpt>
      <trkpt lat="43.77663" lon="5.54878">
        <ele>388.429</ele>
        <time>2020-09-02T08:09:20Z</time>
      </trkpt>
      <trkpt lat="43.77674" lon="5.54876">
        <ele>388.919</ele>
        <time>2020-09-02T08:09:21Z</time>
      </trkpt>
      <trkpt lat="43.77685" lon="5.54874">
        <ele>389.526</ele>
        <time>2020-09-02T08:09:22Z</time>
      </trkpt>
      <trkpt lat="43.77697" lon="5.54872">
        <ele>389.917</ele>
        <time>2020-09-02T08:09:23Z</time>
      </trkpt>
      <trkpt lat="43.77709" lon="5.5487">
        <ele>390.115</ele>
        <time>2020-09-02T08:09:24Z</time>
      </trkpt>
      <trkpt lat="43.77721" lon="5.54867">
        <ele>390.791</ele>
        <time>2020-09-02T08:09:25Z</time>
      </trkpt>
      <trkpt lat="43.77733" lon="5.54864">
        <ele>391.434</ele>
        <time>2020-09-02T08:09:26Z</time>
      </trkpt>
      <trkpt lat="43.77745" lon="5.54862">
        <ele>391.582</ele>
        <time>2020-09-02T08:09:27Z</time>
      </trkpt>
      <trkpt lat="43.77757" lon="5.5486">
        <ele>391.643</ele>
        <time>2020-09-02T08:09:28Z</time>
      </trkpt>
      <trkpt lat="43.77768" lon="5.54859">
        <ele>392.317</ele>
        <time>2020-09-02T08:09:29Z</time>
      </trkpt>
      <trkpt lat="43.77778" lon="5.54858">
        <ele>392.908</ele>
        <time>2020-09-02T08:09:30Z</time>
      </trkpt>
      <trkpt lat="43.77786" lon="5.54856">
        <ele>393.316</ele>
        <time>2020-09-02T08:09:31Z</time>
      </trkpt>
      <trkpt lat="43.7779" lon="5.54854">
        <ele>393.265</ele>
        <time>2020-09-02T08:09:32Z</time>
      </trkpt>
      <trkpt lat="43.77795" lon="5.54849">
        <ele>393.645</ele>
        <time>2020-09-02T08:09:34Z</time>
      </trkpt>
      <trkpt lat="43.77797" lon="5.54842">
        <ele>393.882</ele>
        <time>2020-09-02T08:09:36Z</time>
      </trkpt>
      <trkpt lat="43.77797" lon="5.54828">
        <ele>393.253</ele>
        <time>2020-09-02T08:09:38Z</time>
      </trkpt>
      <trkpt lat="43.77794" lon="5.54818">
        <ele>393.511</ele>
        <time>2020-09-02T08:09:39Z</time>
      </trkpt>
      <trkpt lat="43.77792" lon="5.54807">
        <ele>393.887</ele>
        <time>2020-09-02T08:09:40Z</time>
      </trkpt>
      <trkpt lat="43.77788" lon="5.54793">
        <ele>393.24</ele>
        <time>2020-09-02T08:09:41Z</time>
      </trkpt>
      <trkpt lat="43.77785" lon="5.54779">
        <ele>392.776</ele>
        <time>2020-09-02T08:09:42Z</time>
      </trkpt>
      <trkpt lat="43.77781" lon="5.54762">
        <ele>392.19</ele>
        <time>2020-09-02T08:09:43Z</time>
      </trkpt>
      <trkpt lat="43.77777" lon="5.54744">
        <ele>391.919</ele>
        <time>2020-09-02T08:09:44Z</time>
      </trkpt>
      <trkpt lat="43.77774" lon="5.54727">
        <ele>391.408</ele>
        <time>2020-09-02T08:09:45Z</time>
      </trkpt>
      <trkpt lat="43.77771" lon="5.54709">
        <ele>391.085</ele>
        <time>2020-09-02T08:09:46Z</time>
      </trkpt>
      <trkpt lat="43.77769" lon="5.54694">
        <ele>390.634</ele>
        <time>2020-09-02T08:09:47Z</time>
      </trkpt>
      <trkpt lat="43.77767" lon="5.54681">
        <ele>391.274</ele>
        <time>2020-09-02T08:09:48Z</time>
      </trkpt>
      <trkpt lat="43.77765" lon="5.5467">
        <ele>391.461</ele>
        <time>2020-09-02T08:09:49Z</time>
      </trkpt>
      <trkpt lat="43.77763" lon="5.5466">
        <ele>391.422</ele>
        <time>2020-09-02T08:09:50Z</time>
      </trkpt>
      <trkpt lat="43.77762" lon="5.54651">
        <ele>391.32</ele>
        <time>2020-09-02T08:09:51Z</time>
      </trkpt>
      <trkpt lat="43.77764" lon="5.54644">
        <ele>391.016</ele>
        <time>2020-09-02T08:09:52Z</time>
      </trkpt>
      <trkpt lat="43.77768" lon="5.54639">
        <ele>391.329</ele>
        <time>2020-09-02T08:09:53Z</time>
      </trkpt>
      <trkpt lat="43.77773" lon="5.54633">
        <ele>391.888</ele>
        <time>2020-09-02T08:09:54Z</time>
      </trkpt>
      <trkpt lat="43.7778" lon="5.54628">
        <ele>392.124</ele>
        <time>2020-09-02T08:09:55Z</time>
      </trkpt>
      <trkpt lat="43.77788" lon="5.54624">
        <ele>392.226</ele>
        <time>2020-09-02T08:09:56Z</time>
      </trkpt>
      <trkpt lat="43.77796" lon="5.54618">
        <ele>392.908</ele>
        <time>2020-09-02T08:09:57Z</time>
      </trkpt>
      <trkpt lat="43.77806" lon="5.54612">
        <ele>393.346</ele>
        <time>2020-09-02T08:09:58Z</time>
      </trkpt>
      <trkpt lat="43.77816" lon="5.54606">
        <ele>393.265</ele>
        <time>2020-09-02T08:09:59Z</time>
      </trkpt>
      <trkpt lat="43.77826" lon="5.546">
        <ele>393.975</ele>
        <time>2020-09-02T08:10:00Z</time>
      </trkpt>
      <trkpt lat="43.77836" lon="5.54593">
        <ele>394.632</ele>
        <time>2020-09-02T08:10:01Z</time>
      </trkpt>
      <trkpt lat="43.77847" lon="5.54587">
        <ele>395.453</ele>
        <time>2020-09-02T08:10:02Z</time>
      </trkpt>
      <trkpt lat="43.77858" lon="5.54581">
        <ele>396.261</ele>
        <time>2020-09-02T08:10:03Z</time>
      </trkpt>
      <trkpt lat="43.77871" lon="5.54576">
        <ele>396.317</ele>
        <time>2020-09-02T08:10:04Z</time>
      </trkpt>
      <trkpt lat="43.77882" lon="5.54571">
        <ele>396.96</ele>
        <time>2020-09-02T08:10:05Z</time>
      </trkpt>
      <trkpt lat="43.77894" lon="5.54565">
        <ele>397.497</ele>
        <time>2020-09-02T08:10:06Z</time>
      </trkpt>
      <trkpt lat="43.77905" lon="5.54559">
        <ele>397.823</ele>
        <time>2020-09-02T08:10:07Z</time>
      </trkpt>
      <trkpt lat="43.77916" lon="5.54554">
        <ele>398.025</ele>
        <time>2020-09-02T08:10:08Z</time>
      </trkpt>
      <trkpt lat="43.77927" lon="5.5455">
        <ele>399.008</ele>
        <time>2020-09-02T08:10:09Z</time>
      </trkpt>
      <trkpt lat="43.77939" lon="5.54547">
        <ele>399.797</ele>
        <time>2020-09-02T08:10:10Z</time>
      </trkpt>
      <trkpt lat="43.7795" lon="5.54543">
        <ele>399.986</ele>
        <time>2020-09-02T08:10:11Z</time>
      </trkpt>
      <trkpt lat="43.77961" lon="5.54539">
        <ele>401.026</ele>
        <time>2020-09-02T08:10:12Z</time>
      </trkpt>
      <trkpt lat="43.77974" lon="5.54534">
        <ele>401.873</ele>
        <time>2020-09-02T08:10:13Z</time>
      </trkpt>
      <trkpt lat="43.77986" lon="5.5453">
        <ele>402.634</ele>
        <time>2020-09-02T08:10:14Z</time>
      </trkpt>
      <trkpt lat="43.77998" lon="5.54526">
        <ele>403.142</ele>
        <time>2020-09-02T08:10:15Z</time>
      </trkpt>
      <trkpt lat="43.78011" lon="5.54521">
        <ele>404.048</ele>
        <time>2020-09-02T08:10:16Z</time>
      </trkpt>
      <trkpt lat="43.78023" lon="5.54516">
        <ele>404.681</ele>
        <time>2020-09-02T08:10:17Z</time>
      </trkpt>
      <trkpt lat="43.78036" lon="5.54511">
        <ele>404.975</ele>
        <time>2020-09-02T08:10:18Z</time>
      </trkpt>
      <trkpt lat="43.78048" lon="5.54506">
        <ele>405.428</ele>
        <time>2020-09-02T08:10:19Z</time>
      </trkpt>
      <trkpt lat="43.78061" lon="5.545">
        <ele>405.52</ele>
        <time>2020-09-02T08:10:20Z</time>
      </trkpt>
      <trkpt lat="43.78072" lon="5.54495">
        <ele>406.308</ele>
        <time>2020-09-02T08:10:21Z</time>
      </trkpt>
      <trkpt lat="43.78084" lon="5.54488">
        <ele>406.725</ele>
        <time>2020-09-02T08:10:22Z</time>
      </trkpt>
      <trkpt lat="43.78096" lon="5.54481">
        <ele>407.374</ele>
        <time>2020-09-02T08:10:23Z</time>
      </trkpt>
      <trkpt lat="43.78108" lon="5.54474">
        <ele>407.654</ele>
        <time>2020-09-02T08:10:24Z</time>
      </trkpt>
      <trkpt lat="43.78121" lon="5.54468">
        <ele>408.241</ele>
        <time>2020-09-02T08:10:25Z</time>
      </trkpt>
      <trkpt lat="43.78133" lon="5.54459">
        <ele>409.222</ele>
        <time>2020-09-02T08:10:26Z</time>
      </trkpt>
      <trkpt lat="43.78145" lon="5.54452">
        <ele>409.64</ele>
        <time>2020-09-02T08:10:27Z</time>
      </trkpt>
      <trkpt lat="43.78159" lon="5.54443">
        <ele>410.386</ele>
        <time>2020-09-02T08:10:28Z</time>
      </trkpt>
      <trkpt lat="43.78171" lon="5.54436">
        <ele>411.159</ele>
        <time>2020-09-02T08:10:29Z</time>
      </trkpt>
      <trkpt lat="43.78185" lon="5.54428">
        <ele>411.779</ele>
        <time>2020-09-02T08:10:30Z</time>
      </trkpt>
      <trkpt lat="43.78196" lon="5.54421">
        <ele>413.005</ele>
        <time>2020-09-02T08:10:31Z</time>
      </trkpt>
      <trkpt lat="43.78206" lon="5.54415">
        <ele>413.925</ele>
        <time>2020-09-02T08:10:32Z</time>
      </trkpt>
      <trkpt lat="43.78216" lon="5.5441">
        <ele>414.308</ele>
        <time>2020-09-02T08:10:33Z</time>
      </trkpt>
      <trkpt lat="43.78225" lon="5.54405">
        <ele>414.485</ele>
        <time>2020-09-02T08:10:34Z</time>
      </trkpt>
      <trkpt lat="43.78235" lon="5.54401">
        <ele>414.684</ele>
        <time>2020-09-02T08:10:35Z</time>
      </trkpt>
      <trkpt lat="43.78246" lon="5.54397">
        <ele>414.864</ele>
        <time>2020-09-02T08:10:36Z</time>
      </trkpt>
      <trkpt lat="43.78257" lon="5.54394">
        <ele>414.561</ele>
        <time>2020-09-02T08:10:37Z</time>
      </trkpt>
      <trkpt lat="43.7827" lon="5.54392">
        <ele>414.282</ele>
        <time>2020-09-02T08:10:38Z</time>
      </trkpt>
      <trkpt lat="43.78283" lon="5.54393">
        <ele>413.52</ele>
        <time>2020-09-02T08:10:39Z</time>
      </trkpt>
      <trkpt lat="43.78296" lon="5.54393">
        <ele>413.856</ele>
        <time>2020-09-02T08:10:40Z</time>
      </trkpt>
      <trkpt lat="43.78308" lon="5.54393">
        <ele>412.899</ele>
        <time>2020-09-02T08:10:41Z</time>
      </trkpt>
      <trkpt lat="43.7832" lon="5.54393">
        <ele>412.312</ele>
        <time>2020-09-02T08:10:42Z</time>
      </trkpt>
      <trkpt lat="43.78333" lon="5.54392">
        <ele>412.032</ele>
        <time>2020-09-02T08:10:43Z</time>
      </trkpt>
      <trkpt lat="43.78346" lon="5.54387">
        <ele>411.705</ele>
        <time>2020-09-02T08:10:44Z</time>
      </trkpt>
      <trkpt lat="43.78359" lon="5.5438">
        <ele>411.308</ele>
        <time>2020-09-02T08:10:45Z</time>
      </trkpt>
      <trkpt lat="43.78372" lon="5.54374">
        <ele>410.659</ele>
        <time>2020-09-02T08:10:46Z</time>
      </trkpt>
      <trkpt lat="43.78386" lon="5.54367">
        <ele>410.528</ele>
        <time>2020-09-02T08:10:47Z</time>
      </trkpt>
      <trkpt lat="43.78398" lon="5.54361">
        <ele>410.448</ele>
        <time>2020-09-02T08:10:48Z</time>
      </trkpt>
      <trkpt lat="43.78411" lon="5.54354">
        <ele>410.255</ele>
        <time>2020-09-02T08:10:49Z</time>
      </trkpt>
      <trkpt lat="43.78423" lon="5.54347">
        <ele>410.686</ele>
        <time>2020-09-02T08:10:50Z</time>
      </trkpt>
      <trkpt lat="43.78433" lon="5.54339">
        <ele>411.394</ele>
        <time>2020-09-02T08:10:51Z</time>
      </trkpt>
      <trkpt lat="43.78443" lon="5.54331">
        <ele>411.68</ele>
        <time>2020-09-02T08:10:52Z</time>
      </trkpt>
      <trkpt lat="43.78454" lon="5.54323">
        <ele>411.883</ele>
        <time>2020-09-02T08:10:53Z</time>
      </trkpt>
      <trkpt lat="43.78465" lon="5.54315">
        <ele>411.451</ele>
        <time>2020-09-02T08:10:54Z</time>
      </trkpt>
      <trkpt lat="43.78475" lon="5.54308">
        <ele>410.301</ele>
        <time>2020-09-02T08:10:55Z</time>
      </trkpt>
      <trkpt lat="43.78487" lon="5.54304">
        <ele>409.811</ele>
        <time>2020-09-02T08:10:56Z</time>
      </trkpt>
      <trkpt lat="43.78499" lon="5.54299">
        <ele>409.408</ele>
        <time>2020-09-02T08:10:57Z</time>
      </trkpt>
      <trkpt lat="43.78513" lon="5.54295">
        <ele>408.883</ele>
        <time>2020-09-02T08:10:58Z</time>
      </trkpt>
      <trkpt lat="43.78526" lon="5.54291">
        <ele>408.612</ele>
        <time>2020-09-02T08:10:59Z</time>
      </trkpt>
      <trkpt lat="43.78537" lon="5.54287">
        <ele>408.142</ele>
        <time>2020-09-02T08:11:00Z</time>
      </trkpt>
      <trkpt lat="43.78547" lon="5.54285">
        <ele>408.129</ele>
        <time>2020-09-02T08:11:01Z</time>
      </trkpt>
      <trkpt lat="43.78556" lon="5.54283">
        <ele>408.35</ele>
        <time>2020-09-02T08:11:02Z</time>
      </trkpt>
      <trkpt lat="43.78565" lon="5.5428">
        <ele>408.628</ele>
        <time>2020-09-02T08:11:03Z</time>
      </trkpt>
      <trkpt lat="43.78571" lon="5.54279">
        <ele>409.274</ele>
        <time>2020-09-02T08:11:04Z</time>
      </trkpt>
      <trkpt lat="43.78576" lon="5.54284">
        <ele>408.647</ele>
        <time>2020-09-02T08:11:05Z</time>
      </trkpt>
      <trkpt lat="43.7858" lon="5.54294">
        <ele>408.736</ele>
        <time>2020-09-02T08:11:07Z</time>
      </trkpt>
      <trkpt lat="43.78577" lon="5.54301">
        <ele>408.617</ele>
        <time>2020-09-02T08:11:08Z</time>
      </trkpt>
      <trkpt lat="43.78577" lon="5.54314">
        <ele>409.518</ele>
        <time>2020-09-02T08:11:09Z</time>
      </trkpt>
      <trkpt lat="43.78578" lon="5.54327">
        <ele>409.808</ele>
        <time>2020-09-02T08:11:10Z</time>
      </trkpt>
      <trkpt lat="43.78582" lon="5.54341">
        <ele>410.421</ele>
        <time>2020-09-02T08:11:11Z</time>
      </trkpt>
      <trkpt lat="43.78587" lon="5.54356">
        <ele>411.47</ele>
        <time>2020-09-02T08:11:12Z</time>
      </trkpt>
      <trkpt lat="43.78592" lon="5.54368">
        <ele>411.77</ele>
        <time>2020-09-02T08:11:13Z</time>
      </trkpt>
      <trkpt lat="43.78601" lon="5.54377">
        <ele>412.287</ele>
        <time>2020-09-02T08:11:14Z</time>
      </trkpt>
      <trkpt lat="43.78615" lon="5.54369">
        <ele>413.548</ele>
        <time>2020-09-02T08:11:15Z</time>
      </trkpt>
      <trkpt lat="43.78627" lon="5.54369">
        <ele>414.176</ele>
        <time>2020-09-02T08:11:16Z</time>
      </trkpt>
      <trkpt lat="43.78639" lon="5.54365">
        <ele>414.922</ele>
        <time>2020-09-02T08:11:17Z</time>
      </trkpt>
      <trkpt lat="43.78652" lon="5.54359">
        <ele>415.935</ele>
        <time>2020-09-02T08:11:18Z</time>
      </trkpt>
      <trkpt lat="43.78665" lon="5.54355">
        <ele>416.454</ele>
        <time>2020-09-02T08:11:19Z</time>
      </trkpt>
      <trkpt lat="43.78676" lon="5.54349">
        <ele>417.156</ele>
        <time>2020-09-02T08:11:20Z</time>
      </trkpt>
      <trkpt lat="43.78685" lon="5.54344">
        <ele>417.911</ele>
        <time>2020-09-02T08:11:21Z</time>
      </trkpt>
      <trkpt lat="43.78693" lon="5.54341">
        <ele>418.208</ele>
        <time>2020-09-02T08:11:22Z</time>
      </trkpt>
      <trkpt lat="43.78699" lon="5.54339">
        <ele>418.653</ele>
        <time>2020-09-02T08:11:23Z</time>
      </trkpt>
      <trkpt lat="43.78704" lon="5.5434">
        <ele>419.052</ele>
        <time>2020-09-02T08:11:24Z</time>
      </trkpt>
      <trkpt lat="43.78712" lon="5.54346">
        <ele>420.132</ele>
        <time>2020-09-02T08:11:26Z</time>
      </trkpt>
      <trkpt lat="43.78717" lon="5.54346">
        <ele>421.399</ele>
        <time>2020-09-02T08:11:28Z</time>
      </trkpt>
      <trkpt lat="43.78722" lon="5.54347">
        <ele>423.27</ele>
        <time>2020-09-02T08:11:39Z</time>
      </trkpt>
      <trkpt lat="43.78729" lon="5.54344">
        <ele>423.338</ele>
        <time>2020-09-02T08:11:40Z</time>
      </trkpt>
      <trkpt lat="43.78735" lon="5.54343">
        <ele>423.894</ele>
        <time>2020-09-02T08:11:41Z</time>
      </trkpt>
      <trkpt lat="43.7874" lon="5.54339">
        <ele>425.127</ele>
        <time>2020-09-02T08:11:42Z</time>
      </trkpt>
      <trkpt lat="43.78747" lon="5.54336">
        <ele>425.462</ele>
        <time>2020-09-02T08:11:43Z</time>
      </trkpt>
      <trkpt lat="43.78755" lon="5.54333">
        <ele>425.883</ele>
        <time>2020-09-02T08:11:44Z</time>
      </trkpt>
      <trkpt lat="43.78764" lon="5.54332">
        <ele>426.711</ele>
        <time>2020-09-02T08:11:45Z</time>
      </trkpt>
      <trkpt lat="43.78773" lon="5.54331">
        <ele>427.208</ele>
        <time>2020-09-02T08:11:46Z</time>
      </trkpt>
      <trkpt lat="43.78782" lon="5.5433">
        <ele>428.074</ele>
        <time>2020-09-02T08:11:47Z</time>
      </trkpt>
      <trkpt lat="43.7879" lon="5.54329">
        <ele>428.433</ele>
        <time>2020-09-02T08:11:48Z</time>
      </trkpt>
      <trkpt lat="43.78797" lon="5.54331">
        <ele>428.713</ele>
        <time>2020-09-02T08:11:49Z</time>
      </trkpt>
      <trkpt lat="43.78804" lon="5.54336">
        <ele>429.27</ele>
        <time>2020-09-02T08:11:50Z</time>
      </trkpt>
      <trkpt lat="43.78807" lon="5.54342">
        <ele>430.291</ele>
        <time>2020-09-02T08:11:51Z</time>
      </trkpt>
      <trkpt lat="43.78804" lon="5.54351">
        <ele>431.189</ele>
        <time>2020-09-02T08:11:52Z</time>
      </trkpt>
      <trkpt lat="43.78801" lon="5.54358">
        <ele>432.455</ele>
        <time>2020-09-02T08:11:53Z</time>
      </trkpt>
      <trkpt lat="43.78797" lon="5.54364">
        <ele>433.068</ele>
        <time>2020-09-02T08:11:54Z</time>
      </trkpt>
      <trkpt lat="43.78792" lon="5.54373">
        <ele>433.894</ele>
        <time>2020-09-02T08:11:55Z</time>
      </trkpt>
      <trkpt lat="43.78787" lon="5.54383">
        <ele>434.757</ele>
        <time>2020-09-02T08:11:56Z</time>
      </trkpt>
      <trkpt lat="43.78783" lon="5.54394">
        <ele>435.322</ele>
        <time>2020-09-02T08:11:57Z</time>
      </trkpt>
      <trkpt lat="43.78779" lon="5.54405">
        <ele>436.208</ele>
        <time>2020-09-02T08:11:58Z</time>
      </trkpt>
      <trkpt lat="43.78778" lon="5.54416">
        <ele>437.687</ele>
        <time>2020-09-02T08:11:59Z</time>
      </trkpt>
      <trkpt lat="43.78775" lon="5.54429">
        <ele>439.436</ele>
        <time>2020-09-02T08:12:00Z</time>
      </trkpt>
      <trkpt lat="43.78776" lon="5.54441">
        <ele>440.836</ele>
        <time>2020-09-02T08:12:01Z</time>
      </trkpt>
      <trkpt lat="43.78777" lon="5.54455">
        <ele>441.873</ele>
        <time>2020-09-02T08:12:02Z</time>
      </trkpt>
      <trkpt lat="43.78778" lon="5.54467">
        <ele>443.584</ele>
        <time>2020-09-02T08:12:03Z</time>
      </trkpt>
      <trkpt lat="43.78777" lon="5.54481">
        <ele>444.412</ele>
        <time>2020-09-02T08:12:04Z</time>
      </trkpt>
      <trkpt lat="43.78775" lon="5.54494">
        <ele>445.548</ele>
        <time>2020-09-02T08:12:05Z</time>
      </trkpt>
      <trkpt lat="43.78775" lon="5.54503">
        <ele>447.931</ele>
        <time>2020-09-02T08:12:06Z</time>
      </trkpt>
      <trkpt lat="43.78774" lon="5.54516">
        <ele>449.522</ele>
        <time>2020-09-02T08:12:07Z</time>
      </trkpt>
      <trkpt lat="43.78774" lon="5.54529">
        <ele>451.162</ele>
        <time>2020-09-02T08:12:08Z</time>
      </trkpt>
      <trkpt lat="43.78774" lon="5.5454">
        <ele>452.708</ele>
        <time>2020-09-02T08:12:09Z</time>
      </trkpt>
      <trkpt lat="43.78774" lon="5.54552">
        <ele>453.608</ele>
        <time>2020-09-02T08:12:10Z</time>
      </trkpt>
      <trkpt lat="43.78774" lon="5.54565">
        <ele>454.78</ele>
        <time>2020-09-02T08:12:11Z</time>
      </trkpt>
      <trkpt lat="43.78775" lon="5.54578">
        <ele>455.859</ele>
        <time>2020-09-02T08:12:12Z</time>
      </trkpt>
      <trkpt lat="43.78778" lon="5.5459">
        <ele>456.559</ele>
        <time>2020-09-02T08:12:13Z</time>
      </trkpt>
      <trkpt lat="43.78783" lon="5.546">
        <ele>457.496</ele>
        <time>2020-09-02T08:12:14Z</time>
      </trkpt>
      <trkpt lat="43.78788" lon="5.54611">
        <ele>457.757</ele>
        <time>2020-09-02T08:12:15Z</time>
      </trkpt>
      <trkpt lat="43.78794" lon="5.54612">
        <ele>456.745</ele>
        <time>2020-09-02T08:12:16Z</time>
      </trkpt>
      <trkpt lat="43.78801" lon="5.54615">
        <ele>456.411</ele>
        <time>2020-09-02T08:12:17Z</time>
      </trkpt>
      <trkpt lat="43.78809" lon="5.54612">
        <ele>456.554</ele>
        <time>2020-09-02T08:12:18Z</time>
      </trkpt>
      <trkpt lat="43.78817" lon="5.54608">
        <ele>456.631</ele>
        <time>2020-09-02T08:12:19Z</time>
      </trkpt>
      <trkpt lat="43.78825" lon="5.54602">
        <ele>456.861</ele>
        <time>2020-09-02T08:12:20Z</time>
      </trkpt>
      <trkpt lat="43.78835" lon="5.54595">
        <ele>456.507</ele>
        <time>2020-09-02T08:12:21Z</time>
      </trkpt>
      <trkpt lat="43.78845" lon="5.54587">
        <ele>456.008</ele>
        <time>2020-09-02T08:12:22Z</time>
      </trkpt>
      <trkpt lat="43.78854" lon="5.54578">
        <ele>456.331</ele>
        <time>2020-09-02T08:12:23Z</time>
      </trkpt>
      <trkpt lat="43.78863" lon="5.5457">
        <ele>456.29</ele>
        <time>2020-09-02T08:12:24Z</time>
      </trkpt>
      <trkpt lat="43.78873" lon="5.54562">
        <ele>456.48</ele>
        <time>2020-09-02T08:12:25Z</time>
      </trkpt>
      <trkpt lat="43.78882" lon="5.54555">
        <ele>456.857</ele>
        <time>2020-09-02T08:12:26Z</time>
      </trkpt>
      <trkpt lat="43.78893" lon="5.54549">
        <ele>456.738</ele>
        <time>2020-09-02T08:12:27Z</time>
      </trkpt>
      <trkpt lat="43.78904" lon="5.54544">
        <ele>456.086</ele>
        <time>2020-09-02T08:12:28Z</time>
      </trkpt>
      <trkpt lat="43.78915" lon="5.54538">
        <ele>455.482</ele>
        <time>2020-09-02T08:12:29Z</time>
      </trkpt>
      <trkpt lat="43.78924" lon="5.54531">
        <ele>455.125</ele>
        <time>2020-09-02T08:12:30Z</time>
      </trkpt>
      <trkpt lat="43.78935" lon="5.54524">
        <ele>454.959</ele>
        <time>2020-09-02T08:12:31Z</time>
      </trkpt>
      <trkpt lat="43.78944" lon="5.54516">
        <ele>455.103</ele>
        <time>2020-09-02T08:12:32Z</time>
      </trkpt>
      <trkpt lat="43.78953" lon="5.54509">
        <ele>456.023</ele>
        <time>2020-09-02T08:12:33Z</time>
      </trkpt>
      <trkpt lat="43.78963" lon="5.54502">
        <ele>456.808</ele>
        <time>2020-09-02T08:12:34Z</time>
      </trkpt>
      <trkpt lat="43.78972" lon="5.54496">
        <ele>457.543</ele>
        <time>2020-09-02T08:12:35Z</time>
      </trkpt>
      <trkpt lat="43.7898" lon="5.54492">
        <ele>458.532</ele>
        <time>2020-09-02T08:12:36Z</time>
      </trkpt>
      <trkpt lat="43.78989" lon="5.54488">
        <ele>459.262</ele>
        <time>2020-09-02T08:12:37Z</time>
      </trkpt>
      <trkpt lat="43.79" lon="5.54485">
        <ele>460.239</ele>
        <time>2020-09-02T08:12:38Z</time>
      </trkpt>
      <trkpt lat="43.7901" lon="5.54482">
        <ele>460.63</ele>
        <time>2020-09-02T08:12:39Z</time>
      </trkpt>
      <trkpt lat="43.7902" lon="5.54478">
        <ele>460.868</ele>
        <time>2020-09-02T08:12:40Z</time>
      </trkpt>
      <trkpt lat="43.79031" lon="5.54474">
        <ele>461.014</ele>
        <time>2020-09-02T08:12:41Z</time>
      </trkpt>
      <trkpt lat="43.79043" lon="5.5447">
        <ele>461.577</ele>
        <time>2020-09-02T08:12:42Z</time>
      </trkpt>
      <trkpt lat="43.79055" lon="5.54468">
        <ele>462.358</ele>
        <time>2020-09-02T08:12:43Z</time>
      </trkpt>
      <trkpt lat="43.79068" lon="5.54465">
        <ele>462.952</ele>
        <time>2020-09-02T08:12:44Z</time>
      </trkpt>
      <trkpt lat="43.7908" lon="5.54462">
        <ele>463.917</ele>
        <time>2020-09-02T08:12:45Z</time>
      </trkpt>
      <trkpt lat="43.79092" lon="5.54459">
        <ele>465.008</ele>
        <time>2020-09-02T08:12:46Z</time>
      </trkpt>
      <trkpt lat="43.79105" lon="5.54456">
        <ele>465.833</ele>
        <time>2020-09-02T08:12:47Z</time>
      </trkpt>
      <trkpt lat="43.79118" lon="5.54454">
        <ele>467.372</ele>
        <time>2020-09-02T08:12:48Z</time>
      </trkpt>
      <trkpt lat="43.79131" lon="5.5445">
        <ele>468.682</ele>
        <time>2020-09-02T08:12:49Z</time>
      </trkpt>
      <trkpt lat="43.79143" lon="5.54448">
        <ele>469.019</ele>
        <time>2020-09-02T08:12:50Z</time>
      </trkpt>
      <trkpt lat="43.79155" lon="5.54444">
        <ele>470.47</ele>
        <time>2020-09-02T08:12:51Z</time>
      </trkpt>
      <trkpt lat="43.79168" lon="5.54441">
        <ele>471.518</ele>
        <time>2020-09-02T08:12:52Z</time>
      </trkpt>
      <trkpt lat="43.79181" lon="5.54438">
        <ele>471.974</ele>
        <time>2020-09-02T08:12:53Z</time>
      </trkpt>
      <trkpt lat="43.79192" lon="5.54436">
        <ele>472.937</ele>
        <time>2020-09-02T08:12:54Z</time>
      </trkpt>
      <trkpt lat="43.79203" lon="5.54433">
        <ele>474.347</ele>
        <time>2020-09-02T08:12:55Z</time>
      </trkpt>
      <trkpt lat="43.79216" lon="5.54429">
        <ele>475.629</ele>
        <time>2020-09-02T08:12:56Z</time>
      </trkpt>
      <trkpt lat="43.79228" lon="5.54424">
        <ele>477.421</ele>
        <time>2020-09-02T08:12:57Z</time>
      </trkpt>
      <trkpt lat="43.79241" lon="5.54419">
        <ele>479.608</ele>
        <time>2020-09-02T08:12:58Z</time>
      </trkpt>
      <trkpt lat="43.79254" lon="5.54413">
        <ele>480.972</ele>
        <time>2020-09-02T08:12:59Z</time>
      </trkpt>
      <trkpt lat="43.79265" lon="5.54408">
        <ele>482.861</ele>
        <time>2020-09-02T08:13:00Z</time>
      </trkpt>
      <trkpt lat="43.79278" lon="5.54401">
        <ele>484.071</ele>
        <time>2020-09-02T08:13:01Z</time>
      </trkpt>
      <trkpt lat="43.79291" lon="5.54394">
        <ele>485.418</ele>
        <time>2020-09-02T08:13:02Z</time>
      </trkpt>
      <trkpt lat="43.79305" lon="5.54389">
        <ele>486.649</ele>
        <time>2020-09-02T08:13:03Z</time>
      </trkpt>
      <trkpt lat="43.79317" lon="5.54383">
        <ele>487.887</ele>
        <time>2020-09-02T08:13:04Z</time>
      </trkpt>
      <trkpt lat="43.79329" lon="5.54378">
        <ele>489.383</ele>
        <time>2020-09-02T08:13:05Z</time>
      </trkpt>
      <trkpt lat="43.79341" lon="5.54373">
        <ele>490.776</ele>
        <time>2020-09-02T08:13:06Z</time>
      </trkpt>
      <trkpt lat="43.79353" lon="5.54368">
        <ele>491.769</ele>
        <time>2020-09-02T08:13:07Z</time>
      </trkpt>
      <trkpt lat="43.79367" lon="5.54366">
        <ele>492.604</ele>
        <time>2020-09-02T08:13:08Z</time>
      </trkpt>
      <trkpt lat="43.79381" lon="5.54365">
        <ele>492.824</ele>
        <time>2020-09-02T08:13:09Z</time>
      </trkpt>
      <trkpt lat="43.79394" lon="5.54368">
        <ele>493.308</ele>
        <time>2020-09-02T08:13:10Z</time>
      </trkpt>
      <trkpt lat="43.79407" lon="5.54372">
        <ele>493.614</ele>
        <time>2020-09-02T08:13:11Z</time>
      </trkpt>
      <trkpt lat="43.79422" lon="5.54377">
        <ele>493.173</ele>
        <time>2020-09-02T08:13:12Z</time>
      </trkpt>
      <trkpt lat="43.79436" lon="5.5438">
        <ele>493.453</ele>
        <time>2020-09-02T08:13:13Z</time>
      </trkpt>
      <trkpt lat="43.7945" lon="5.54385">
        <ele>493.46</ele>
        <time>2020-09-02T08:13:14Z</time>
      </trkpt>
      <trkpt lat="43.79463" lon="5.54391">
        <ele>494.311</ele>
        <time>2020-09-02T08:13:15Z</time>
      </trkpt>
      <trkpt lat="43.79477" lon="5.54398">
        <ele>494.799</ele>
        <time>2020-09-02T08:13:16Z</time>
      </trkpt>
      <trkpt lat="43.79491" lon="5.54409">
        <ele>495.535</ele>
        <time>2020-09-02T08:13:17Z</time>
      </trkpt>
      <trkpt lat="43.79505" lon="5.54419">
        <ele>496.578</ele>
        <time>2020-09-02T08:13:18Z</time>
      </trkpt>
      <trkpt lat="43.79518" lon="5.54427">
        <ele>497.662</ele>
        <time>2020-09-02T08:13:19Z</time>
      </trkpt>
      <trkpt lat="43.79531" lon="5.54434">
        <ele>499.183</ele>
        <time>2020-09-02T08:13:20Z</time>
      </trkpt>
      <trkpt lat="43.79543" lon="5.54441">
        <ele>500.411</ele>
        <time>2020-09-02T08:13:21Z</time>
      </trkpt>
      <trkpt lat="43.79555" lon="5.54448">
        <ele>501.508</ele>
        <time>2020-09-02T08:13:22Z</time>
      </trkpt>
      <trkpt lat="43.79569" lon="5.54451">
        <ele>503.024</ele>
        <time>2020-09-02T08:13:23Z</time>
      </trkpt>
      <trkpt lat="43.79582" lon="5.54455">
        <ele>503.663</ele>
        <time>2020-09-02T08:13:24Z</time>
      </trkpt>
      <trkpt lat="43.79595" lon="5.5446">
        <ele>504.793</ele>
        <time>2020-09-02T08:13:25Z</time>
      </trkpt>
      <trkpt lat="43.7961" lon="5.5447">
        <ele>505.29</ele>
        <time>2020-09-02T08:13:26Z</time>
      </trkpt>
      <trkpt lat="43.79622" lon="5.54479">
        <ele>506.241</ele>
        <time>2020-09-02T08:13:27Z</time>
      </trkpt>
      <trkpt lat="43.79633" lon="5.54488">
        <ele>506.699</ele>
        <time>2020-09-02T08:13:28Z</time>
      </trkpt>
      <trkpt lat="43.79644" lon="5.54497">
        <ele>506.465</ele>
        <time>2020-09-02T08:13:29Z</time>
      </trkpt>
      <trkpt lat="43.79653" lon="5.54508">
        <ele>506.088</ele>
        <time>2020-09-02T08:13:30Z</time>
      </trkpt>
      <trkpt lat="43.79661" lon="5.54518">
        <ele>506.235</ele>
        <time>2020-09-02T08:13:31Z</time>
      </trkpt>
      <trkpt lat="43.79669" lon="5.54527">
        <ele>505.986</ele>
        <time>2020-09-02T08:13:32Z</time>
      </trkpt>
      <trkpt lat="43.79679" lon="5.54536">
        <ele>505.814</ele>
        <time>2020-09-02T08:13:33Z</time>
      </trkpt>
      <trkpt lat="43.79689" lon="5.54544">
        <ele>505.708</ele>
        <time>2020-09-02T08:13:34Z</time>
      </trkpt>
      <trkpt lat="43.79698" lon="5.54553">
        <ele>505.371</ele>
        <time>2020-09-02T08:13:35Z</time>
      </trkpt>
      <trkpt lat="43.79708" lon="5.54562">
        <ele>505.42</ele>
        <time>2020-09-02T08:13:36Z</time>
      </trkpt>
      <trkpt lat="43.79718" lon="5.54569">
        <ele>505.83</ele>
        <time>2020-09-02T08:13:37Z</time>
      </trkpt>
      <trkpt lat="43.79726" lon="5.54575">
        <ele>506.067</ele>
        <time>2020-09-02T08:13:38Z</time>
      </trkpt>
      <trkpt lat="43.79735" lon="5.54582">
        <ele>505.698</ele>
        <time>2020-09-02T08:13:39Z</time>
      </trkpt>
      <trkpt lat="43.79744" lon="5.54589">
        <ele>506.346</ele>
        <time>2020-09-02T08:13:40Z</time>
      </trkpt>
      <trkpt lat="43.79752" lon="5.54597">
        <ele>506.412</ele>
        <time>2020-09-02T08:13:41Z</time>
      </trkpt>
      <trkpt lat="43.79761" lon="5.54605">
        <ele>506.145</ele>
        <time>2020-09-02T08:13:42Z</time>
      </trkpt>
      <trkpt lat="43.79771" lon="5.54614">
        <ele>506.383</ele>
        <time>2020-09-02T08:13:43Z</time>
      </trkpt>
      <trkpt lat="43.79782" lon="5.54621">
        <ele>507.325</ele>
        <time>2020-09-02T08:13:44Z</time>
      </trkpt>
      <trkpt lat="43.79793" lon="5.54629">
        <ele>507.617</ele>
        <time>2020-09-02T08:13:45Z</time>
      </trkpt>
      <trkpt lat="43.79805" lon="5.54635">
        <ele>507.908</ele>
        <time>2020-09-02T08:13:46Z</time>
      </trkpt>
      <trkpt lat="43.79817" lon="5.54639">
        <ele>508.246</ele>
        <time>2020-09-02T08:13:47Z</time>
      </trkpt>
      <trkpt lat="43.79829" lon="5.54642">
        <ele>508.685</ele>
        <time>2020-09-02T08:13:48Z</time>
      </trkpt>
      <trkpt lat="43.79838" lon="5.54647">
        <ele>510.845</ele>
        <time>2020-09-02T08:13:49Z</time>
      </trkpt>
      <trkpt lat="43.79847" lon="5.54652">
        <ele>511.892</ele>
        <time>2020-09-02T08:13:50Z</time>
      </trkpt>
      <trkpt lat="43.79856" lon="5.5466">
        <ele>512.843</ele>
        <time>2020-09-02T08:13:51Z</time>
      </trkpt>
      <trkpt lat="43.79863" lon="5.54669">
        <ele>513.871</ele>
        <time>2020-09-02T08:13:52Z</time>
      </trkpt>
      <trkpt lat="43.7987" lon="5.5468">
        <ele>514.967</ele>
        <time>2020-09-02T08:13:53Z</time>
      </trkpt>
      <trkpt lat="43.79878" lon="5.54691">
        <ele>515.93</ele>
        <time>2020-09-02T08:13:54Z</time>
      </trkpt>
      <trkpt lat="43.79886" lon="5.54703">
        <ele>517.487</ele>
        <time>2020-09-02T08:13:55Z</time>
      </trkpt>
      <trkpt lat="43.79891" lon="5.54716">
        <ele>518.942</ele>
        <time>2020-09-02T08:13:56Z</time>
      </trkpt>
      <trkpt lat="43.79896" lon="5.54729">
        <ele>520.126</ele>
        <time>2020-09-02T08:13:57Z</time>
      </trkpt>
      <trkpt lat="43.79902" lon="5.54742">
        <ele>520.908</ele>
        <time>2020-09-02T08:13:58Z</time>
      </trkpt>
      <trkpt lat="43.79908" lon="5.54758">
        <ele>521.736</ele>
        <time>2020-09-02T08:13:59Z</time>
      </trkpt>
      <trkpt lat="43.79911" lon="5.54771">
        <ele>522.825</ele>
        <time>2020-09-02T08:14:00Z</time>
      </trkpt>
      <trkpt lat="43.79916" lon="5.54783">
        <ele>523.885</ele>
        <time>2020-09-02T08:14:01Z</time>
      </trkpt>
      <trkpt lat="43.79922" lon="5.54795">
        <ele>524.552</ele>
        <time>2020-09-02T08:14:02Z</time>
      </trkpt>
      <trkpt lat="43.79927" lon="5.54803">
        <ele>525.653</ele>
        <time>2020-09-02T08:14:03Z</time>
      </trkpt>
      <trkpt lat="43.79934" lon="5.54809">
        <ele>526.491</ele>
        <time>2020-09-02T08:14:04Z</time>
      </trkpt>
      <trkpt lat="43.7994" lon="5.54812">
        <ele>527.257</ele>
        <time>2020-09-02T08:14:05Z</time>
      </trkpt>
      <trkpt lat="43.79948" lon="5.54812">
        <ele>528.12</ele>
        <time>2020-09-02T08:14:06Z</time>
      </trkpt>
      <trkpt lat="43.79956" lon="5.54811">
        <ele>529.428</ele>
        <time>2020-09-02T08:14:07Z</time>
      </trkpt>
      <trkpt lat="43.79964" lon="5.54808">
        <ele>531.489</ele>
        <time>2020-09-02T08:14:08Z</time>
      </trkpt>
      <trkpt lat="43.79973" lon="5.54804">
        <ele>532.117</ele>
        <time>2020-09-02T08:14:09Z</time>
      </trkpt>
      <trkpt lat="43.7998" lon="5.54798">
        <ele>533.808</ele>
        <time>2020-09-02T08:14:10Z</time>
      </trkpt>
      <trkpt lat="43.79986" lon="5.54791">
        <ele>535.41</ele>
        <time>2020-09-02T08:14:11Z</time>
      </trkpt>
      <trkpt lat="43.79993" lon="5.54785">
        <ele>537.279</ele>
        <time>2020-09-02T08:14:12Z</time>
      </trkpt>
      <trkpt lat="43.80001" lon="5.54778">
        <ele>538.789</ele>
        <time>2020-09-02T08:14:13Z</time>
      </trkpt>
      <trkpt lat="43.80012" lon="5.54773">
        <ele>539.926</ele>
        <time>2020-09-02T08:14:14Z</time>
      </trkpt>
      <trkpt lat="43.80021" lon="5.54768">
        <ele>540.617</ele>
        <time>2020-09-02T08:14:15Z</time>
      </trkpt>
      <trkpt lat="43.8003" lon="5.54764">
        <ele>542.185</ele>
        <time>2020-09-02T08:14:16Z</time>
      </trkpt>
      <trkpt lat="43.80038" lon="5.54764">
        <ele>543.241</ele>
        <time>2020-09-02T08:14:17Z</time>
      </trkpt>
      <trkpt lat="43.80047" lon="5.54767">
        <ele>543.674</ele>
        <time>2020-09-02T08:14:18Z</time>
      </trkpt>
      <trkpt lat="43.80054" lon="5.54773">
        <ele>545.063</ele>
        <time>2020-09-02T08:14:19Z</time>
      </trkpt>
      <trkpt lat="43.8006" lon="5.54782">
        <ele>546.044</ele>
        <time>2020-09-02T08:14:20Z</time>
      </trkpt>
      <trkpt lat="43.80067" lon="5.5479">
        <ele>546.918</ele>
        <time>2020-09-02T08:14:21Z</time>
      </trkpt>
      <trkpt lat="43.80075" lon="5.54798">
        <ele>547.908</ele>
        <time>2020-09-02T08:14:22Z</time>
      </trkpt>
      <trkpt lat="43.80084" lon="5.54804">
        <ele>548.854</ele>
        <time>2020-09-02T08:14:23Z</time>
      </trkpt>
      <trkpt lat="43.80092" lon="5.54809">
        <ele>549.723</ele>
        <time>2020-09-02T08:14:24Z</time>
      </trkpt>
      <trkpt lat="43.80102" lon="5.54814">
        <ele>550.793</ele>
        <time>2020-09-02T08:14:25Z</time>
      </trkpt>
      <trkpt lat="43.80111" lon="5.5482">
        <ele>551.75</ele>
        <time>2020-09-02T08:14:26Z</time>
      </trkpt>
      <trkpt lat="43.80119" lon="5.54825">
        <ele>552.421</ele>
        <time>2020-09-02T08:14:27Z</time>
      </trkpt>
      <trkpt lat="43.80125" lon="5.5483">
        <ele>552.939</ele>
        <time>2020-09-02T08:14:28Z</time>
      </trkpt>
      <trkpt lat="43.80132" lon="5.54836">
        <ele>553.385</ele>
        <time>2020-09-02T08:14:29Z</time>
      </trkpt>
      <trkpt lat="43.80138" lon="5.54844">
        <ele>553.998</ele>
        <time>2020-09-02T08:14:30Z</time>
      </trkpt>
      <trkpt lat="43.80142" lon="5.54853">
        <ele>554.989</ele>
        <time>2020-09-02T08:14:31Z</time>
      </trkpt>
      <trkpt lat="43.80146" lon="5.54863">
        <ele>555.406</ele>
        <time>2020-09-02T08:14:32Z</time>
      </trkpt>
      <trkpt lat="43.80148" lon="5.54874">
        <ele>555.826</ele>
        <time>2020-09-02T08:14:33Z</time>
      </trkpt>
      <trkpt lat="43.80148" lon="5.54884">
        <ele>555.808</ele>
        <time>2020-09-02T08:14:34Z</time>
      </trkpt>
      <trkpt lat="43.80147" lon="5.54893">
        <ele>555.876</ele>
        <time>2020-09-02T08:14:35Z</time>
      </trkpt>
      <trkpt lat="43.80146" lon="5.54903">
        <ele>556.245</ele>
        <time>2020-09-02T08:14:36Z</time>
      </trkpt>
      <trkpt lat="43.80135" lon="5.54908">
        <ele>558.375</ele>
        <time>2020-09-02T08:14:37Z</time>
      </trkpt>
      <trkpt lat="43.80129" lon="5.54917">
        <ele>559.422</ele>
        <time>2020-09-02T08:14:38Z</time>
      </trkpt>
      <trkpt lat="43.80124" lon="5.54926">
        <ele>560.043</ele>
        <time>2020-09-02T08:14:39Z</time>
      </trkpt>
      <trkpt lat="43.80119" lon="5.54933">
        <ele>560.361</ele>
        <time>2020-09-02T08:14:40Z</time>
      </trkpt>
      <trkpt lat="43.8012" lon="5.54945">
        <ele>560.387</ele>
        <time>2020-09-02T08:14:41Z</time>
      </trkpt>
      <trkpt lat="43.8012" lon="5.54954">
        <ele>561.46</ele>
        <time>2020-09-02T08:14:42Z</time>
      </trkpt>
      <trkpt lat="43.80122" lon="5.54961">
        <ele>562.329</ele>
        <time>2020-09-02T08:14:43Z</time>
      </trkpt>
      <trkpt lat="43.80131" lon="5.54971">
        <ele>563.2</ele>
        <time>2020-09-02T08:14:45Z</time>
      </trkpt>
      <trkpt lat="43.80137" lon="5.54976">
        <ele>564.22</ele>
        <time>2020-09-02T08:14:46Z</time>
      </trkpt>
      <trkpt lat="43.80146" lon="5.54979">
        <ele>565.208</ele>
        <time>2020-09-02T08:14:47Z</time>
      </trkpt>
      <trkpt lat="43.80155" lon="5.54979">
        <ele>567.09</ele>
        <time>2020-09-02T08:14:48Z</time>
      </trkpt>
      <trkpt lat="43.80166" lon="5.54981">
        <ele>568.159</ele>
        <time>2020-09-02T08:14:49Z</time>
      </trkpt>
      <trkpt lat="43.80178" lon="5.54983">
        <ele>568.739</ele>
        <time>2020-09-02T08:14:50Z</time>
      </trkpt>
      <trkpt lat="43.80189" lon="5.54985">
        <ele>571.476</ele>
        <time>2020-09-02T08:14:51Z</time>
      </trkpt>
      <trkpt lat="43.802" lon="5.5499">
        <ele>574.337</ele>
        <time>2020-09-02T08:14:52Z</time>
      </trkpt>
      <trkpt lat="43.80213" lon="5.54993">
        <ele>575.385</ele>
        <time>2020-09-02T08:14:53Z</time>
      </trkpt>
      <trkpt lat="43.80224" lon="5.54996">
        <ele>576.841</ele>
        <time>2020-09-02T08:14:54Z</time>
      </trkpt>
      <trkpt lat="43.80233" lon="5.55001">
        <ele>577.824</ele>
        <time>2020-09-02T08:14:55Z</time>
      </trkpt>
      <trkpt lat="43.80243" lon="5.55004">
        <ele>579.647</ele>
        <time>2020-09-02T08:14:56Z</time>
      </trkpt>
      <trkpt lat="43.80254" lon="5.55007">
        <ele>581.129</ele>
        <time>2020-09-02T08:14:57Z</time>
      </trkpt>
      <trkpt lat="43.80265" lon="5.55011">
        <ele>582.321</ele>
        <time>2020-09-02T08:14:58Z</time>
      </trkpt>
      <trkpt lat="43.80276" lon="5.55014">
        <ele>583.808</ele>
        <time>2020-09-02T08:14:59Z</time>
      </trkpt>
      <trkpt lat="43.80287" lon="5.55015">
        <ele>585.682</ele>
        <time>2020-09-02T08:15:00Z</time>
      </trkpt>
      <trkpt lat="43.80298" lon="5.55017">
        <ele>587.391</ele>
        <time>2020-09-02T08:15:01Z</time>
      </trkpt>
      <trkpt lat="43.80309" lon="5.55019">
        <ele>589.071</ele>
        <time>2020-09-02T08:15:02Z</time>
      </trkpt>
      <trkpt lat="43.8032" lon="5.5502">
        <ele>591.098</ele>
        <time>2020-09-02T08:15:03Z</time>
      </trkpt>
      <trkpt lat="43.80331" lon="5.55021">
        <ele>592.239</ele>
        <time>2020-09-02T08:15:04Z</time>
      </trkpt>
      <trkpt lat="43.80342" lon="5.55024">
        <ele>594.087</ele>
        <time>2020-09-02T08:15:05Z</time>
      </trkpt>
      <trkpt lat="43.80355" lon="5.55026">
        <ele>595.613</ele>
        <time>2020-09-02T08:15:06Z</time>
      </trkpt>
      <trkpt lat="43.80365" lon="5.55029">
        <ele>597.286</ele>
        <time>2020-09-02T08:15:07Z</time>
      </trkpt>
      <trkpt lat="43.80376" lon="5.55031">
        <ele>598.913</ele>
        <time>2020-09-02T08:15:08Z</time>
      </trkpt>
      <trkpt lat="43.80386" lon="5.55037">
        <ele>600.143</ele>
        <time>2020-09-02T08:15:09Z</time>
      </trkpt>
      <trkpt lat="43.80398" lon="5.55041">
        <ele>601.407</ele>
        <time>2020-09-02T08:15:10Z</time>
      </trkpt>
      <trkpt lat="43.80409" lon="5.55047">
        <ele>602.308</ele>
        <time>2020-09-02T08:15:11Z</time>
      </trkpt>
      <trkpt lat="43.80419" lon="5.55049">
        <ele>603.829</ele>
        <time>2020-09-02T08:15:12Z</time>
      </trkpt>
      <trkpt lat="43.80431" lon="5.55049">
        <ele>605.458</ele>
        <time>2020-09-02T08:15:13Z</time>
      </trkpt>
      <trkpt lat="43.80442" lon="5.55049">
        <ele>607.418</ele>
        <time>2020-09-02T08:15:14Z</time>
      </trkpt>
      <trkpt lat="43.80454" lon="5.55048">
        <ele>609.555</ele>
        <time>2020-09-02T08:15:15Z</time>
      </trkpt>
      <trkpt lat="43.80467" lon="5.55048">
        <ele>611.056</ele>
        <time>2020-09-02T08:15:16Z</time>
      </trkpt>
      <trkpt lat="43.8048" lon="5.55048">
        <ele>612.594</ele>
        <time>2020-09-02T08:15:17Z</time>
      </trkpt>
      <trkpt lat="43.80493" lon="5.55046">
        <ele>614.16</ele>
        <time>2020-09-02T08:15:18Z</time>
      </trkpt>
      <trkpt lat="43.80506" lon="5.55043">
        <ele>615.573</ele>
        <time>2020-09-02T08:15:19Z</time>
      </trkpt>
      <trkpt lat="43.80519" lon="5.55041">
        <ele>617.824</ele>
        <time>2020-09-02T08:15:20Z</time>
      </trkpt>
      <trkpt lat="43.80531" lon="5.55037">
        <ele>619.604</ele>
        <time>2020-09-02T08:15:21Z</time>
      </trkpt>
      <trkpt lat="43.80544" lon="5.55034">
        <ele>621.514</ele>
        <time>2020-09-02T08:15:22Z</time>
      </trkpt>
      <trkpt lat="43.80557" lon="5.55031">
        <ele>622.608</ele>
        <time>2020-09-02T08:15:23Z</time>
      </trkpt>
      <trkpt lat="43.80571" lon="5.55029">
        <ele>624.51</ele>
        <time>2020-09-02T08:15:24Z</time>
      </trkpt>
      <trkpt lat="43.80583" lon="5.55028">
        <ele>626.399</ele>
        <time>2020-09-02T08:15:25Z</time>
      </trkpt>
      <trkpt lat="43.80596" lon="5.55025">
        <ele>628.079</ele>
        <time>2020-09-02T08:15:26Z</time>
      </trkpt>
      <trkpt lat="43.80609" lon="5.55025">
        <ele>629.496</ele>
        <time>2020-09-02T08:15:27Z</time>
      </trkpt>
      <trkpt lat="43.80622" lon="5.55024">
        <ele>631.417</ele>
        <time>2020-09-02T08:15:28Z</time>
      </trkpt>
      <trkpt lat="43.80636" lon="5.55023">
        <ele>633.485</ele>
        <time>2020-09-02T08:15:29Z</time>
      </trkpt>
      <trkpt lat="43.80649" lon="5.55024">
        <ele>635.171</ele>
        <time>2020-09-02T08:15:30Z</time>
      </trkpt>
      <trkpt lat="43.80661" lon="5.55022">
        <ele>637.024</ele>
        <time>2020-09-02T08:15:31Z</time>
      </trkpt>
      <trkpt lat="43.80673" lon="5.55022">
        <ele>638.645</ele>
        <time>2020-09-02T08:15:32Z</time>
      </trkpt>
      <trkpt lat="43.80686" lon="5.55021">
        <ele>640.647</ele>
        <time>2020-09-02T08:15:33Z</time>
      </trkpt>
      <trkpt lat="43.80698" lon="5.5502">
        <ele>642.911</ele>
        <time>2020-09-02T08:15:34Z</time>
      </trkpt>
      <trkpt lat="43.80711" lon="5.55021">
        <ele>645.108</ele>
        <time>2020-09-02T08:15:35Z</time>
      </trkpt>
      <trkpt lat="43.80723" lon="5.55022">
        <ele>646.912</ele>
        <time>2020-09-02T08:15:36Z</time>
      </trkpt>
      <trkpt lat="43.80736" lon="5.55023">
        <ele>649.121</ele>
        <time>2020-09-02T08:15:37Z</time>
      </trkpt>
      <trkpt lat="43.80749" lon="5.55023">
        <ele>651.491</ele>
        <time>2020-09-02T08:15:38Z</time>
      </trkpt>
      <trkpt lat="43.80763" lon="5.55025">
        <ele>653.148</ele>
        <time>2020-09-02T08:15:39Z</time>
      </trkpt>
      <trkpt lat="43.80774" lon="5.55026">
        <ele>655.269</ele>
        <time>2020-09-02T08:15:40Z</time>
      </trkpt>
      <trkpt lat="43.80783" lon="5.55026">
        <ele>656.017</ele>
        <time>2020-09-02T08:15:41Z</time>
      </trkpt>
      <trkpt lat="43.80789" lon="5.55025">
        <ele>658.833</ele>
        <time>2020-09-02T08:15:42Z</time>
      </trkpt>
      <trkpt lat="43.80794" lon="5.55021">
        <ele>660.886</ele>
        <time>2020-09-02T08:15:43Z</time>
      </trkpt>
      <trkpt lat="43.80798" lon="5.55014">
        <ele>662.384</ele>
        <time>2020-09-02T08:15:44Z</time>
      </trkpt>
      <trkpt lat="43.80802" lon="5.55006">
        <ele>663.607</ele>
        <time>2020-09-02T08:15:45Z</time>
      </trkpt>
      <trkpt lat="43.80806" lon="5.54995">
        <ele>664.717</ele>
        <time>2020-09-02T08:15:46Z</time>
      </trkpt>
      <trkpt lat="43.80811" lon="5.54983">
        <ele>665.608</ele>
        <time>2020-09-02T08:15:47Z</time>
      </trkpt>
      <trkpt lat="43.80815" lon="5.54972">
        <ele>666.326</ele>
        <time>2020-09-02T08:15:48Z</time>
      </trkpt>
      <trkpt lat="43.80819" lon="5.54963">
        <ele>666.965</ele>
        <time>2020-09-02T08:15:49Z</time>
      </trkpt>
      <trkpt lat="43.80824" lon="5.54956">
        <ele>667.285</ele>
        <time>2020-09-02T08:15:50Z</time>
      </trkpt>
      <trkpt lat="43.80828" lon="5.54951">
        <ele>668.192</ele>
        <time>2020-09-02T08:15:51Z</time>
      </trkpt>
      <trkpt lat="43.80834" lon="5.54949">
        <ele>668.313</ele>
        <time>2020-09-02T08:15:52Z</time>
      </trkpt>
      <trkpt lat="43.80839" lon="5.5495">
        <ele>668.871</ele>
        <time>2020-09-02T08:15:53Z</time>
      </trkpt>
      <trkpt lat="43.80846" lon="5.54952">
        <ele>669.857</ele>
        <time>2020-09-02T08:15:54Z</time>
      </trkpt>
      <trkpt lat="43.80854" lon="5.54955">
        <ele>670.71</ele>
        <time>2020-09-02T08:15:55Z</time>
      </trkpt>
      <trkpt lat="43.80861" lon="5.54957">
        <ele>671.422</ele>
        <time>2020-09-02T08:15:56Z</time>
      </trkpt>
      <trkpt lat="43.80868" lon="5.54958">
        <ele>672.362</ele>
        <time>2020-09-02T08:15:57Z</time>
      </trkpt>
      <trkpt lat="43.80876" lon="5.54959">
        <ele>674.108</ele>
        <time>2020-09-02T08:15:58Z</time>
      </trkpt>
      <trkpt lat="43.80883" lon="5.54963">
        <ele>675.808</ele>
        <time>2020-09-02T08:15:59Z</time>
      </trkpt>
      <trkpt lat="43.80892" lon="5.54966">
        <ele>677.42</ele>
        <time>2020-09-02T08:16:00Z</time>
      </trkpt>
      <trkpt lat="43.80899" lon="5.54969">
        <ele>679.469</ele>
        <time>2020-09-02T08:16:01Z</time>
      </trkpt>
      <trkpt lat="43.80906" lon="5.54972">
        <ele>679.779</ele>
        <time>2020-09-02T08:16:02Z</time>
      </trkpt>
      <trkpt lat="43.80914" lon="5.54973">
        <ele>681.336</ele>
        <time>2020-09-02T08:16:03Z</time>
      </trkpt>
      <trkpt lat="43.80922" lon="5.54973">
        <ele>682.337</ele>
        <time>2020-09-02T08:16:04Z</time>
      </trkpt>
      <trkpt lat="43.80931" lon="5.54972">
        <ele>684.395</ele>
        <time>2020-09-02T08:16:05Z</time>
      </trkpt>
      <trkpt lat="43.80941" lon="5.54972">
        <ele>686.531</ele>
        <time>2020-09-02T08:16:06Z</time>
      </trkpt>
      <trkpt lat="43.80951" lon="5.5497">
        <ele>687.214</ele>
        <time>2020-09-02T08:16:07Z</time>
      </trkpt>
      <trkpt lat="43.8096" lon="5.54969">
        <ele>688.298</ele>
        <time>2020-09-02T08:16:08Z</time>
      </trkpt>
      <trkpt lat="43.80969" lon="5.54967">
        <ele>688.915</ele>
        <time>2020-09-02T08:16:09Z</time>
      </trkpt>
      <trkpt lat="43.80979" lon="5.54965">
        <ele>692.326</ele>
        <time>2020-09-02T08:16:10Z</time>
      </trkpt>
      <trkpt lat="43.80988" lon="5.54961">
        <ele>693.808</ele>
        <time>2020-09-02T08:16:11Z</time>
      </trkpt>
      <trkpt lat="43.80997" lon="5.54955">
        <ele>695.527</ele>
        <time>2020-09-02T08:16:12Z</time>
      </trkpt>
      <trkpt lat="43.81005" lon="5.54949">
        <ele>698.846</ele>
        <time>2020-09-02T08:16:13Z</time>
      </trkpt>
      <trkpt lat="43.81014" lon="5.54944">
        <ele>700.666</ele>
        <time>2020-09-02T08:16:14Z</time>
      </trkpt>
      <trkpt lat="43.81024" lon="5.54938">
        <ele>702.753</ele>
        <time>2020-09-02T08:16:15Z</time>
      </trkpt>
      <trkpt lat="43.81035" lon="5.5493">
        <ele>704.214</ele>
        <time>2020-09-02T08:16:16Z</time>
      </trkpt>
      <trkpt lat="43.81034" lon="5.54916">
        <ele>705.742</ele>
        <time>2020-09-02T08:16:17Z</time>
      </trkpt>
      <trkpt lat="43.81038" lon="5.54905">
        <ele>706.888</ele>
        <time>2020-09-02T08:16:18Z</time>
      </trkpt>
      <trkpt lat="43.8104" lon="5.54891">
        <ele>707.581</ele>
        <time>2020-09-02T08:16:19Z</time>
      </trkpt>
      <trkpt lat="43.81043" lon="5.54878">
        <ele>707.557</ele>
        <time>2020-09-02T08:16:20Z</time>
      </trkpt>
      <trkpt lat="43.81046" lon="5.54868">
        <ele>708.3</ele>
        <time>2020-09-02T08:16:21Z</time>
      </trkpt>
      <trkpt lat="43.81051" lon="5.54857">
        <ele>710.22</ele>
        <time>2020-09-02T08:16:22Z</time>
      </trkpt>
      <trkpt lat="43.81057" lon="5.54848">
        <ele>712.308</ele>
        <time>2020-09-02T08:16:23Z</time>
      </trkpt>
      <trkpt lat="43.81063" lon="5.54841">
        <ele>713.593</ele>
        <time>2020-09-02T08:16:24Z</time>
      </trkpt>
      <trkpt lat="43.81068" lon="5.54838">
        <ele>714.662</ele>
        <time>2020-09-02T08:16:25Z</time>
      </trkpt>
      <trkpt lat="43.81072" lon="5.54835">
        <ele>715.782</ele>
        <time>2020-09-02T08:16:26Z</time>
      </trkpt>
      <trkpt lat="43.81077" lon="5.54834">
        <ele>716.719</ele>
        <time>2020-09-02T08:16:27Z</time>
      </trkpt>
      <trkpt lat="43.81082" lon="5.54836">
        <ele>718.44</ele>
        <time>2020-09-02T08:16:28Z</time>
      </trkpt>
      <trkpt lat="43.81087" lon="5.54842">
        <ele>720.158</ele>
        <time>2020-09-02T08:16:29Z</time>
      </trkpt>
      <trkpt lat="43.81091" lon="5.54848">
        <ele>721.434</ele>
        <time>2020-09-02T08:16:30Z</time>
      </trkpt>
      <trkpt lat="43.81095" lon="5.54856">
        <ele>723.457</ele>
        <time>2020-09-02T08:16:31Z</time>
      </trkpt>
      <trkpt lat="43.81099" lon="5.54867">
        <ele>724.479</ele>
        <time>2020-09-02T08:16:32Z</time>
      </trkpt>
      <trkpt lat="43.81103" lon="5.54878">
        <ele>726.405</ele>
        <time>2020-09-02T08:16:33Z</time>
      </trkpt>
      <trkpt lat="43.81109" lon="5.54889">
        <ele>728.225</ele>
        <time>2020-09-02T08:16:34Z</time>
      </trkpt>
      <trkpt lat="43.81113" lon="5.54902">
        <ele>729.708</ele>
        <time>2020-09-02T08:16:35Z</time>
      </trkpt>
      <trkpt lat="43.81117" lon="5.54913">
        <ele>731.445</ele>
        <time>2020-09-02T08:16:36Z</time>
      </trkpt>
      <trkpt lat="43.81121" lon="5.54923">
        <ele>732.034</ele>
        <time>2020-09-02T08:16:37Z</time>
      </trkpt>
      <trkpt lat="43.81126" lon="5.54932">
        <ele>736.134</ele>
        <time>2020-09-02T08:16:38Z</time>
      </trkpt>
      <trkpt lat="43.81131" lon="5.54939">
        <ele>737.721</ele>
        <time>2020-09-02T08:16:39Z</time>
      </trkpt>
      <trkpt lat="43.81135" lon="5.54945">
        <ele>738.692</ele>
        <time>2020-09-02T08:16:40Z</time>
      </trkpt>
      <trkpt lat="43.81137" lon="5.54951">
        <ele>739.19</ele>
        <time>2020-09-02T08:16:41Z</time>
      </trkpt>
      <trkpt lat="43.81131" lon="5.54964">
        <ele>740.126</ele>
        <time>2020-09-02T08:16:43Z</time>
      </trkpt>
      <trkpt lat="43.81125" lon="5.54971">
        <ele>740.149</ele>
        <time>2020-09-02T08:16:44Z</time>
      </trkpt>
      <trkpt lat="43.81119" lon="5.54979">
        <ele>740.683</ele>
        <time>2020-09-02T08:16:45Z</time>
      </trkpt>
      <trkpt lat="43.81114" lon="5.54987">
        <ele>740.925</ele>
        <time>2020-09-02T08:16:46Z</time>
      </trkpt>
      <trkpt lat="43.8111" lon="5.54998">
        <ele>741.917</ele>
        <time>2020-09-02T08:16:47Z</time>
      </trkpt>
      <trkpt lat="43.81106" lon="5.5501">
        <ele>742.408</ele>
        <time>2020-09-02T08:16:48Z</time>
      </trkpt>
      <trkpt lat="43.81103" lon="5.55022">
        <ele>743.286</ele>
        <time>2020-09-02T08:16:49Z</time>
      </trkpt>
      <trkpt lat="43.81101" lon="5.55035">
        <ele>744.595</ele>
        <time>2020-09-02T08:16:50Z</time>
      </trkpt>
      <trkpt lat="43.811" lon="5.55048">
        <ele>745.775</ele>
        <time>2020-09-02T08:16:51Z</time>
      </trkpt>
      <trkpt lat="43.81101" lon="5.55061">
        <ele>747.112</ele>
        <time>2020-09-02T08:16:52Z</time>
      </trkpt>
      <trkpt lat="43.81102" lon="5.55074">
        <ele>748.033</ele>
        <time>2020-09-02T08:16:53Z</time>
      </trkpt>
      <trkpt lat="43.81102" lon="5.55087">
        <ele>749.321</ele>
        <time>2020-09-02T08:16:54Z</time>
      </trkpt>
      <trkpt lat="43.81101" lon="5.55101">
        <ele>750.937</ele>
        <time>2020-09-02T08:16:55Z</time>
      </trkpt>
      <trkpt lat="43.811" lon="5.55115">
        <ele>752.96</ele>
        <time>2020-09-02T08:16:56Z</time>
      </trkpt>
      <trkpt lat="43.81098" lon="5.55129">
        <ele>755.132</ele>
        <time>2020-09-02T08:16:57Z</time>
      </trkpt>
      <trkpt lat="43.81097" lon="5.55143">
        <ele>755.892</ele>
        <time>2020-09-02T08:16:58Z</time>
      </trkpt>
      <trkpt lat="43.81097" lon="5.55159">
        <ele>756.911</ele>
        <time>2020-09-02T08:16:59Z</time>
      </trkpt>
      <trkpt lat="43.81097" lon="5.55175">
        <ele>759.108</ele>
        <time>2020-09-02T08:17:00Z</time>
      </trkpt>
      <trkpt lat="43.81096" lon="5.5519">
        <ele>760.551</ele>
        <time>2020-09-02T08:17:01Z</time>
      </trkpt>
      <trkpt lat="43.81095" lon="5.55206">
        <ele>762.23</ele>
        <time>2020-09-02T08:17:02Z</time>
      </trkpt>
      <trkpt lat="43.81095" lon="5.55219">
        <ele>762.96</ele>
        <time>2020-09-02T08:17:03Z</time>
      </trkpt>
      <trkpt lat="43.81095" lon="5.55231">
        <ele>763.647</ele>
        <time>2020-09-02T08:17:04Z</time>
      </trkpt>
      <trkpt lat="43.81096" lon="5.55243">
        <ele>764.068</ele>
        <time>2020-09-02T08:17:05Z</time>
      </trkpt>
      <trkpt lat="43.81097" lon="5.55252">
        <ele>764.666</ele>
        <time>2020-09-02T08:17:06Z</time>
      </trkpt>
      <trkpt lat="43.81099" lon="5.5526">
        <ele>766.782</ele>
        <time>2020-09-02T08:17:07Z</time>
      </trkpt>
      <trkpt lat="43.81102" lon="5.55266">
        <ele>768.935</ele>
        <time>2020-09-02T08:17:10Z</time>
      </trkpt>
      <trkpt lat="43.81106" lon="5.55264">
        <ele>769.245</ele>
        <time>2020-09-02T08:17:16Z</time>
      </trkpt>
      <trkpt lat="43.81113" lon="5.55257">
        <ele>771.447</ele>
        <time>2020-09-02T08:17:18Z</time>
      </trkpt>
      <trkpt lat="43.81117" lon="5.55245">
        <ele>773.711</ele>
        <time>2020-09-02T08:17:20Z</time>
      </trkpt>
      <trkpt lat="43.81119" lon="5.55236">
        <ele>775.108</ele>
        <time>2020-09-02T08:17:21Z</time>
      </trkpt>
      <trkpt lat="43.81122" lon="5.55227">
        <ele>775.952</ele>
        <time>2020-09-02T08:17:22Z</time>
      </trkpt>
      <trkpt lat="43.81126" lon="5.55216">
        <ele>776.391</ele>
        <time>2020-09-02T08:17:23Z</time>
      </trkpt>
      <trkpt lat="43.81132" lon="5.55205">
        <ele>777.221</ele>
        <time>2020-09-02T08:17:24Z</time>
      </trkpt>
      <trkpt lat="43.81138" lon="5.55194">
        <ele>777.588</ele>
        <time>2020-09-02T08:17:25Z</time>
      </trkpt>
      <trkpt lat="43.81145" lon="5.55182">
        <ele>778.859</ele>
        <time>2020-09-02T08:17:26Z</time>
      </trkpt>
      <trkpt lat="43.81151" lon="5.5517">
        <ele>779.537</ele>
        <time>2020-09-02T08:17:27Z</time>
      </trkpt>
      <trkpt lat="43.81158" lon="5.55158">
        <ele>781.523</ele>
        <time>2020-09-02T08:17:28Z</time>
      </trkpt>
      <trkpt lat="43.81163" lon="5.55147">
        <ele>783.936</ele>
        <time>2020-09-02T08:17:29Z</time>
      </trkpt>
      <trkpt lat="43.81168" lon="5.55136">
        <ele>785.919</ele>
        <time>2020-09-02T08:17:30Z</time>
      </trkpt>
      <trkpt lat="43.81171" lon="5.55128">
        <ele>787.209</ele>
        <time>2020-09-02T08:17:31Z</time>
      </trkpt>
      <trkpt lat="43.81176" lon="5.55126">
        <ele>787.319</ele>
        <time>2020-09-02T08:17:32Z</time>
      </trkpt>
      <trkpt lat="43.81181" lon="5.55133">
        <ele>788.808</ele>
        <time>2020-09-02T08:17:34Z</time>
      </trkpt>
      <trkpt lat="43.81182" lon="5.55141">
        <ele>790.479</ele>
        <time>2020-09-02T08:17:35Z</time>
      </trkpt>
      <trkpt lat="43.81182" lon="5.55152">
        <ele>791.268</ele>
        <time>2020-09-02T08:17:36Z</time>
      </trkpt>
      <trkpt lat="43.8118" lon="5.55161">
        <ele>793.388</ele>
        <time>2020-09-02T08:17:37Z</time>
      </trkpt>
      <trkpt lat="43.81181" lon="5.55169">
        <ele>793.725</ele>
        <time>2020-09-02T08:17:38Z</time>
      </trkpt>
      <trkpt lat="43.81183" lon="5.55181">
        <ele>795.366</ele>
        <time>2020-09-02T08:17:40Z</time>
      </trkpt>
      <trkpt lat="43.81188" lon="5.55183">
        <ele>796.224</ele>
        <time>2020-09-02T08:17:41Z</time>
      </trkpt>
      <trkpt lat="43.81194" lon="5.55175">
        <ele>798.35</ele>
        <time>2020-09-02T08:17:43Z</time>
      </trkpt>
      <trkpt lat="43.81199" lon="5.55169">
        <ele>798.763</ele>
        <time>2020-09-02T08:17:44Z</time>
      </trkpt>
      <trkpt lat="43.81204" lon="5.55163">
        <ele>799.778</ele>
        <time>2020-09-02T08:17:45Z</time>
      </trkpt>
      <trkpt lat="43.8121" lon="5.55157">
        <ele>800.833</ele>
        <time>2020-09-02T08:17:46Z</time>
      </trkpt>
      <trkpt lat="43.81218" lon="5.55154">
        <ele>802.426</ele>
        <time>2020-09-02T08:17:47Z</time>
      </trkpt>
      <trkpt lat="43.81226" lon="5.55149">
        <ele>804.608</ele>
        <time>2020-09-02T08:17:48Z</time>
      </trkpt>
      <trkpt lat="43.81235" lon="5.55143">
        <ele>806.775</ele>
        <time>2020-09-02T08:17:49Z</time>
      </trkpt>
      <trkpt lat="43.81242" lon="5.55138">
        <ele>808.084</ele>
        <time>2020-09-02T08:17:50Z</time>
      </trkpt>
      <trkpt lat="43.81251" lon="5.55133">
        <ele>811.264</ele>
        <time>2020-09-02T08:17:51Z</time>
      </trkpt>
      <trkpt lat="43.8126" lon="5.55126">
        <ele>812.311</ele>
        <time>2020-09-02T08:17:52Z</time>
      </trkpt>
      <trkpt lat="43.81267" lon="5.55117">
        <ele>813.582</ele>
        <time>2020-09-02T08:17:53Z</time>
      </trkpt>
      <trkpt lat="43.81275" lon="5.55108">
        <ele>815.13</ele>
        <time>2020-09-02T08:17:54Z</time>
      </trkpt>
      <trkpt lat="43.81283" lon="5.55095">
        <ele>816.436</ele>
        <time>2020-09-02T08:17:55Z</time>
      </trkpt>
      <trkpt lat="43.81293" lon="5.55082">
        <ele>817.419</ele>
        <time>2020-09-02T08:17:56Z</time>
      </trkpt>
      <trkpt lat="43.81302" lon="5.5507">
        <ele>815.218</ele>
        <time>2020-09-02T08:17:57Z</time>
      </trkpt>
      <trkpt lat="43.8131" lon="5.55057">
        <ele>814.698</ele>
        <time>2020-09-02T08:17:58Z</time>
      </trkpt>
      <trkpt lat="43.81317" lon="5.55044">
        <ele>815.117</ele>
        <time>2020-09-02T08:17:59Z</time>
      </trkpt>
      <trkpt lat="43.81324" lon="5.55032">
        <ele>814.908</ele>
        <time>2020-09-02T08:18:00Z</time>
      </trkpt>
      <trkpt lat="43.81329" lon="5.55017">
        <ele>815.949</ele>
        <time>2020-09-02T08:18:01Z</time>
      </trkpt>
      <trkpt lat="43.81335" lon="5.55003">
        <ele>816.388</ele>
        <time>2020-09-02T08:18:02Z</time>
      </trkpt>
      <trkpt lat="43.81338" lon="5.54987">
        <ele>816.738</ele>
        <time>2020-09-02T08:18:03Z</time>
      </trkpt>
      <trkpt lat="43.81341" lon="5.54971">
        <ele>817.295</ele>
        <time>2020-09-02T08:18:04Z</time>
      </trkpt>
      <trkpt lat="43.81343" lon="5.54958">
        <ele>817.126</ele>
        <time>2020-09-02T08:18:05Z</time>
      </trkpt>
      <trkpt lat="43.81343" lon="5.54944">
        <ele>819.644</ele>
        <time>2020-09-02T08:18:06Z</time>
      </trkpt>
      <trkpt lat="43.81343" lon="5.54934">
        <ele>821.16</ele>
        <time>2020-09-02T08:18:07Z</time>
      </trkpt>
      <trkpt lat="43.81346" lon="5.54926">
        <ele>822.733</ele>
        <time>2020-09-02T08:18:08Z</time>
      </trkpt>
      <trkpt lat="43.81349" lon="5.54918">
        <ele>823.669</ele>
        <time>2020-09-02T08:18:09Z</time>
      </trkpt>
      <trkpt lat="43.81354" lon="5.54912">
        <ele>827.204</ele>
        <time>2020-09-02T08:18:10Z</time>
      </trkpt>
      <trkpt lat="43.81358" lon="5.54904">
        <ele>828.624</ele>
        <time>2020-09-02T08:18:11Z</time>
      </trkpt>
      <trkpt lat="43.81361" lon="5.54895">
        <ele>829.908</ele>
        <time>2020-09-02T08:18:12Z</time>
      </trkpt>
      <trkpt lat="43.81363" lon="5.54887">
        <ele>830.694</ele>
        <time>2020-09-02T08:18:13Z</time>
      </trkpt>
      <trkpt lat="43.81366" lon="5.5488">
        <ele>831.993</ele>
        <time>2020-09-02T08:18:14Z</time>
      </trkpt>
      <trkpt lat="43.81369" lon="5.54873">
        <ele>834.853</ele>
        <time>2020-09-02T08:18:15Z</time>
      </trkpt>
      <trkpt lat="43.81373" lon="5.54869">
        <ele>838.62</ele>
        <time>2020-09-02T08:18:16Z</time>
      </trkpt>
      <trkpt lat="43.81381" lon="5.54867">
        <ele>840.831</ele>
        <time>2020-09-02T08:18:17Z</time>
      </trkpt>
      <trkpt lat="43.81388" lon="5.54865">
        <ele>842.459</ele>
        <time>2020-09-02T08:18:18Z</time>
      </trkpt>
      <trkpt lat="43.81395" lon="5.54862">
        <ele>843.725</ele>
        <time>2020-09-02T08:18:19Z</time>
      </trkpt>
      <trkpt lat="43.81399" lon="5.54857">
        <ele>844.258</ele>
        <time>2020-09-02T08:18:20Z</time>
      </trkpt>
      <trkpt lat="43.814" lon="5.54849">
        <ele>845.184</ele>
        <time>2020-09-02T08:18:21Z</time>
      </trkpt>
      <trkpt lat="43.81398" lon="5.54842">
        <ele>846.407</ele>
        <time>2020-09-02T08:18:22Z</time>
      </trkpt>
      <trkpt lat="43.81396" lon="5.54834">
        <ele>846.417</ele>
        <time>2020-09-02T08:18:23Z</time>
      </trkpt>
      <trkpt lat="43.81395" lon="5.54826">
        <ele>846.708</ele>
        <time>2020-09-02T08:18:24Z</time>
      </trkpt>
      <trkpt lat="43.81399" lon="5.54816">
        <ele>855.566</ele>
        <time>2020-09-02T08:18:25Z</time>
      </trkpt>
      <trkpt lat="43.81403" lon="5.54807">
        <ele>855.575</ele>
        <time>2020-09-02T08:18:26Z</time>
      </trkpt>
      <trkpt lat="43.81409" lon="5.54796">
        <ele>857.785</ele>
        <time>2020-09-02T08:18:27Z</time>
      </trkpt>
      <trkpt lat="43.81415" lon="5.54785">
        <ele>860.462</ele>
        <time>2020-09-02T08:18:28Z</time>
      </trkpt>
      <trkpt lat="43.81421" lon="5.54774">
        <ele>862.153</ele>
        <time>2020-09-02T08:18:29Z</time>
      </trkpt>
      <trkpt lat="43.81427" lon="5.54764">
        <ele>863.761</ele>
        <time>2020-09-02T08:18:30Z</time>
      </trkpt>
      <trkpt lat="43.81433" lon="5.54753">
        <ele>865.887</ele>
        <time>2020-09-02T08:18:31Z</time>
      </trkpt>
      <trkpt lat="43.81439" lon="5.54745">
        <ele>866.66</ele>
        <time>2020-09-02T08:18:32Z</time>
      </trkpt>
      <trkpt lat="43.81444" lon="5.54737">
        <ele>864.054</ele>
        <time>2020-09-02T08:18:33Z</time>
      </trkpt>
      <trkpt lat="43.81448" lon="5.54728">
        <ele>862.756</ele>
        <time>2020-09-02T08:18:34Z</time>
      </trkpt>
      <trkpt lat="43.81452" lon="5.54719">
        <ele>863.411</ele>
        <time>2020-09-02T08:18:35Z</time>
      </trkpt>
      <trkpt lat="43.81455" lon="5.54708">
        <ele>863.608</ele>
        <time>2020-09-02T08:18:36Z</time>
      </trkpt>
      <trkpt lat="43.81457" lon="5.54697">
        <ele>864.823</ele>
        <time>2020-09-02T08:18:37Z</time>
      </trkpt>
      <trkpt lat="43.8146" lon="5.54685">
        <ele>866.532</ele>
        <time>2020-09-02T08:18:38Z</time>
      </trkpt>
      <trkpt lat="43.81464" lon="5.54671">
        <ele>867.792</ele>
        <time>2020-09-02T08:18:39Z</time>
      </trkpt>
      <trkpt lat="43.81468" lon="5.54658">
        <ele>869.519</ele>
        <time>2020-09-02T08:18:40Z</time>
      </trkpt>
      <trkpt lat="43.81474" lon="5.54645">
        <ele>872.08</ele>
        <time>2020-09-02T08:18:41Z</time>
      </trkpt>
      <trkpt lat="43.81478" lon="5.54632">
        <ele>873.278</ele>
        <time>2020-09-02T08:18:42Z</time>
      </trkpt>
      <trkpt lat="43.81485" lon="5.54619">
        <ele>875.524</ele>
        <time>2020-09-02T08:18:43Z</time>
      </trkpt>
      <trkpt lat="43.81492" lon="5.54606">
        <ele>876.437</ele>
        <time>2020-09-02T08:18:44Z</time>
      </trkpt>
      <trkpt lat="43.81498" lon="5.54595">
        <ele>878.623</ele>
        <time>2020-09-02T08:18:45Z</time>
      </trkpt>
      <trkpt lat="43.81503" lon="5.54582">
        <ele>882.183</ele>
        <time>2020-09-02T08:18:46Z</time>
      </trkpt>
      <trkpt lat="43.81508" lon="5.54569">
        <ele>886.011</ele>
        <time>2020-09-02T08:18:47Z</time>
      </trkpt>
      <trkpt lat="43.81514" lon="5.54557">
        <ele>888.108</ele>
        <time>2020-09-02T08:18:48Z</time>
      </trkpt>
      <trkpt lat="43.8152" lon="5.54544">
        <ele>890.33</ele>
        <time>2020-09-02T08:18:49Z</time>
      </trkpt>
      <trkpt lat="43.81528" lon="5.54531">
        <ele>891.119</ele>
        <time>2020-09-02T08:18:50Z</time>
      </trkpt>
      <trkpt lat="43.81534" lon="5.54518">
        <ele>893.529</ele>
        <time>2020-09-02T08:18:51Z</time>
      </trkpt>
      <trkpt lat="43.81541" lon="5.54506">
        <ele>894.866</ele>
        <time>2020-09-02T08:18:52Z</time>
      </trkpt>
      <trkpt lat="43.81545" lon="5.54493">
        <ele>898.957</ele>
        <time>2020-09-02T08:18:53Z</time>
      </trkpt>
      <trkpt lat="43.81551" lon="5.54483">
        <ele>901.485</ele>
        <time>2020-09-02T08:18:54Z</time>
      </trkpt>
      <trkpt lat="43.81556" lon="5.54474">
        <ele>904.671</ele>
        <time>2020-09-02T08:18:55Z</time>
      </trkpt>
      <trkpt lat="43.8156" lon="5.54467">
        <ele>906.774</ele>
        <time>2020-09-02T08:18:56Z</time>
      </trkpt>
      <trkpt lat="43.81565" lon="5.54462">
        <ele>916.716</ele>
        <time>2020-09-02T08:18:57Z</time>
      </trkpt>
      <trkpt lat="43.8157" lon="5.54459">
        <ele>917.276</ele>
        <time>2020-09-02T08:18:58Z</time>
      </trkpt>
      <trkpt lat="43.81579" lon="5.54458">
        <ele>918.813</ele>
        <time>2020-09-02T08:18:59Z</time>
      </trkpt>
      <trkpt lat="43.81588" lon="5.5446">
        <ele>920.708</ele>
        <time>2020-09-02T08:19:00Z</time>
      </trkpt>
      <trkpt lat="43.81597" lon="5.54461">
        <ele>924.219</ele>
        <time>2020-09-02T08:19:01Z</time>
      </trkpt>
      <trkpt lat="43.81605" lon="5.54461">
        <ele>925.998</ele>
        <time>2020-09-02T08:19:02Z</time>
      </trkpt>
      <trkpt lat="43.81613" lon="5.54462">
        <ele>927.848</ele>
        <time>2020-09-02T08:19:03Z</time>
      </trkpt>
      <trkpt lat="43.81621" lon="5.54461">
        <ele>929.115</ele>
        <time>2020-09-02T08:19:04Z</time>
      </trkpt>
      <trkpt lat="43.81627" lon="5.54461">
        <ele>930.526</ele>
        <time>2020-09-02T08:19:05Z</time>
      </trkpt>
      <trkpt lat="43.81632" lon="5.54461">
        <ele>931.794</ele>
        <time>2020-09-02T08:19:06Z</time>
      </trkpt>
      <trkpt lat="43.81639" lon="5.54459">
        <ele>932.14</ele>
        <time>2020-09-02T08:19:07Z</time>
      </trkpt>
      <trkpt lat="43.81645" lon="5.5446">
        <ele>933.333</ele>
        <time>2020-09-02T08:19:08Z</time>
      </trkpt>
      <trkpt lat="43.81651" lon="5.54459">
        <ele>933.752</ele>
        <time>2020-09-02T08:19:09Z</time>
      </trkpt>
      <trkpt lat="43.81657" lon="5.5446">
        <ele>934.353</ele>
        <time>2020-09-02T08:19:10Z</time>
      </trkpt>
      <trkpt lat="43.81662" lon="5.54462">
        <ele>934.808</ele>
        <time>2020-09-02T08:19:11Z</time>
      </trkpt>
      <trkpt lat="43.8167" lon="5.54464">
        <ele>934.908</ele>
        <time>2020-09-02T08:19:12Z</time>
      </trkpt>
      <trkpt lat="43.81678" lon="5.54466">
        <ele>934.253</ele>
        <time>2020-09-02T08:19:13Z</time>
      </trkpt>
      <trkpt lat="43.81686" lon="5.54469">
        <ele>934.792</ele>
        <time>2020-09-02T08:19:14Z</time>
      </trkpt>
      <trkpt lat="43.81697" lon="5.54473">
        <ele>933.922</ele>
        <time>2020-09-02T08:19:15Z</time>
      </trkpt>
      <trkpt lat="43.81703" lon="5.54475">
        <ele>935.269</ele>
        <time>2020-09-02T08:19:16Z</time>
      </trkpt>
      <trkpt lat="43.81711" lon="5.54477">
        <ele>935.33</ele>
        <time>2020-09-02T08:19:17Z</time>
      </trkpt>
      <trkpt lat="43.81718" lon="5.54479">
        <ele>936.188</ele>
        <time>2020-09-02T08:19:18Z</time>
      </trkpt>
      <trkpt lat="43.81727" lon="5.54478">
        <ele>936.134</ele>
        <time>2020-09-02T08:19:19Z</time>
      </trkpt>
      <trkpt lat="43.81734" lon="5.54478">
        <ele>936.217</ele>
        <time>2020-09-02T08:19:20Z</time>
      </trkpt>
      <trkpt lat="43.81742" lon="5.54479">
        <ele>935.716</ele>
        <time>2020-09-02T08:19:21Z</time>
      </trkpt>
      <trkpt lat="43.81747" lon="5.54478">
        <ele>935.676</ele>
        <time>2020-09-02T08:19:22Z</time>
      </trkpt>
      <trkpt lat="43.81752" lon="5.5448">
        <ele>934.413</ele>
        <time>2020-09-02T08:19:23Z</time>
      </trkpt>
      <trkpt lat="43.8176" lon="5.54479">
        <ele>935.308</ele>
        <time>2020-09-02T08:19:25Z</time>
      </trkpt>
      <trkpt lat="43.81762" lon="5.54487">
        <ele>934.479</ele>
        <time>2020-09-02T08:19:27Z</time>
      </trkpt>
      <trkpt lat="43.81756" lon="5.54493">
        <ele>935.298</ele>
        <time>2020-09-02T08:20:49Z</time>
      </trkpt>
      <trkpt lat="43.81752" lon="5.54496">
        <ele>935.038</ele>
        <time>2020-09-02T08:20:50Z</time>
      </trkpt>
      <trkpt lat="43.81745" lon="5.54498">
        <ele>935.085</ele>
        <time>2020-09-02T08:20:51Z</time>
      </trkpt>
      <trkpt lat="43.81737" lon="5.54499">
        <ele>935.776</ele>
        <time>2020-09-02T08:20:52Z</time>
      </trkpt>
      <trkpt lat="43.81729" lon="5.54499">
        <ele>936.114</ele>
        <time>2020-09-02T08:20:53Z</time>
      </trkpt>
      <trkpt lat="43.8172" lon="5.545">
        <ele>936.84</ele>
        <time>2020-09-02T08:20:54Z</time>
      </trkpt>
      <trkpt lat="43.81709" lon="5.54503">
        <ele>938.263</ele>
        <time>2020-09-02T08:20:55Z</time>
      </trkpt>
      <trkpt lat="43.81698" lon="5.54506">
        <ele>939.259</ele>
        <time>2020-09-02T08:20:56Z</time>
      </trkpt>
      <trkpt lat="43.81688" lon="5.54508">
        <ele>939.203</ele>
        <time>2020-09-02T08:20:57Z</time>
      </trkpt>
      <trkpt lat="43.81676" lon="5.5451">
        <ele>939.623</ele>
        <time>2020-09-02T08:20:58Z</time>
      </trkpt>
      <trkpt lat="43.81664" lon="5.54512">
        <ele>941.308</ele>
        <time>2020-09-02T08:20:59Z</time>
      </trkpt>
      <trkpt lat="43.81653" lon="5.54516">
        <ele>942.483</ele>
        <time>2020-09-02T08:21:00Z</time>
      </trkpt>
      <trkpt lat="43.81643" lon="5.54519">
        <ele>942.862</ele>
        <time>2020-09-02T08:21:01Z</time>
      </trkpt>
      <trkpt lat="43.81633" lon="5.54525">
        <ele>943.932</ele>
        <time>2020-09-02T08:21:02Z</time>
      </trkpt>
      <trkpt lat="43.81623" lon="5.54534">
        <ele>943.969</ele>
        <time>2020-09-02T08:21:03Z</time>
      </trkpt>
      <trkpt lat="43.81614" lon="5.54543">
        <ele>944.87</ele>
        <time>2020-09-02T08:21:04Z</time>
      </trkpt>
      <trkpt lat="43.81606" lon="5.54554">
        <ele>945.838</ele>
        <time>2020-09-02T08:21:05Z</time>
      </trkpt>
      <trkpt lat="43.81599" lon="5.54566">
        <ele>944.924</ele>
        <time>2020-09-02T08:21:06Z</time>
      </trkpt>
      <trkpt lat="43.81593" lon="5.5458">
        <ele>945.377</ele>
        <time>2020-09-02T08:21:07Z</time>
      </trkpt>
      <trkpt lat="43.81589" lon="5.54594">
        <ele>946.169</ele>
        <time>2020-09-02T08:21:08Z</time>
      </trkpt>
      <trkpt lat="43.81585" lon="5.54608">
        <ele>946.904</ele>
        <time>2020-09-02T08:21:09Z</time>
      </trkpt>
      <trkpt lat="43.81583" lon="5.54621">
        <ele>947.524</ele>
        <time>2020-09-02T08:21:10Z</time>
      </trkpt>
      <trkpt lat="43.81583" lon="5.54634">
        <ele>947.808</ele>
        <time>2020-09-02T08:21:11Z</time>
      </trkpt>
      <trkpt lat="43.81584" lon="5.54646">
        <ele>948.364</ele>
        <time>2020-09-02T08:21:12Z</time>
      </trkpt>
      <trkpt lat="43.81584" lon="5.54658">
        <ele>949.793</ele>
        <time>2020-09-02T08:21:13Z</time>
      </trkpt>
      <trkpt lat="43.81586" lon="5.54669">
        <ele>949.653</ele>
        <time>2020-09-02T08:21:14Z</time>
      </trkpt>
      <trkpt lat="43.81588" lon="5.54679">
        <ele>949.43</ele>
        <time>2020-09-02T08:21:15Z</time>
      </trkpt>
      <trkpt lat="43.8159" lon="5.5469">
        <ele>949.141</ele>
        <time>2020-09-02T08:21:16Z</time>
      </trkpt>
      <trkpt lat="43.81594" lon="5.54703">
        <ele>947.189</ele>
        <time>2020-09-02T08:21:17Z</time>
      </trkpt>
      <trkpt lat="43.81595" lon="5.54715">
        <ele>947.565</ele>
        <time>2020-09-02T08:21:18Z</time>
      </trkpt>
      <trkpt lat="43.81595" lon="5.54728">
        <ele>948.068</ele>
        <time>2020-09-02T08:21:19Z</time>
      </trkpt>
      <trkpt lat="43.81595" lon="5.54741">
        <ele>948.179</ele>
        <time>2020-09-02T08:21:20Z</time>
      </trkpt>
      <trkpt lat="43.81592" lon="5.54754">
        <ele>948.805</ele>
        <time>2020-09-02T08:21:21Z</time>
      </trkpt>
      <trkpt lat="43.81589" lon="5.54767">
        <ele>949.025</ele>
        <time>2020-09-02T08:21:22Z</time>
      </trkpt>
      <trkpt lat="43.81585" lon="5.54778">
        <ele>949.508</ele>
        <time>2020-09-02T08:21:23Z</time>
      </trkpt>
      <trkpt lat="43.81581" lon="5.54789">
        <ele>949.815</ele>
        <time>2020-09-02T08:21:24Z</time>
      </trkpt>
      <trkpt lat="43.81578" lon="5.548">
        <ele>950.454</ele>
        <time>2020-09-02T08:21:25Z</time>
      </trkpt>
      <trkpt lat="43.81574" lon="5.54811">
        <ele>950.724</ele>
        <time>2020-09-02T08:21:26Z</time>
      </trkpt>
      <trkpt lat="43.81572" lon="5.54822">
        <ele>951.091</ele>
        <time>2020-09-02T08:21:27Z</time>
      </trkpt>
      <trkpt lat="43.8157" lon="5.54839">
        <ele>950.792</ele>
        <time>2020-09-02T08:21:28Z</time>
      </trkpt>
      <trkpt lat="43.81568" lon="5.54855">
        <ele>950.26</ele>
        <time>2020-09-02T08:21:29Z</time>
      </trkpt>
      <trkpt lat="43.81567" lon="5.5487">
        <ele>949.016</ele>
        <time>2020-09-02T08:21:30Z</time>
      </trkpt>
      <trkpt lat="43.81565" lon="5.54887">
        <ele>948.759</ele>
        <time>2020-09-02T08:21:31Z</time>
      </trkpt>
      <trkpt lat="43.81562" lon="5.54904">
        <ele>948.655</ele>
        <time>2020-09-02T08:21:32Z</time>
      </trkpt>
      <trkpt lat="43.81559" lon="5.54922">
        <ele>949.307</ele>
        <time>2020-09-02T08:21:33Z</time>
      </trkpt>
      <trkpt lat="43.81557" lon="5.54938">
        <ele>949.517</ele>
        <time>2020-09-02T08:21:34Z</time>
      </trkpt>
      <trkpt lat="43.81553" lon="5.54955">
        <ele>949.608</ele>
        <time>2020-09-02T08:21:35Z</time>
      </trkpt>
      <trkpt lat="43.81549" lon="5.54971">
        <ele>949.943</ele>
        <time>2020-09-02T08:21:36Z</time>
      </trkpt>
      <trkpt lat="43.81544" lon="5.54987">
        <ele>949.652</ele>
        <time>2020-09-02T08:21:37Z</time>
      </trkpt>
      <trkpt lat="43.81539" lon="5.55002">
        <ele>950.142</ele>
        <time>2020-09-02T08:21:38Z</time>
      </trkpt>
      <trkpt lat="43.81533" lon="5.55017">
        <ele>950.769</ele>
        <time>2020-09-02T08:21:39Z</time>
      </trkpt>
      <trkpt lat="43.81527" lon="5.55032">
        <ele>951.32</ele>
        <time>2020-09-02T08:21:40Z</time>
      </trkpt>
      <trkpt lat="43.81522" lon="5.55047">
        <ele>951.858</ele>
        <time>2020-09-02T08:21:41Z</time>
      </trkpt>
      <trkpt lat="43.81516" lon="5.55061">
        <ele>951.854</ele>
        <time>2020-09-02T08:21:42Z</time>
      </trkpt>
      <trkpt lat="43.81509" lon="5.55075">
        <ele>951.947</ele>
        <time>2020-09-02T08:21:43Z</time>
      </trkpt>
      <trkpt lat="43.81503" lon="5.55088">
        <ele>951.141</ele>
        <time>2020-09-02T08:21:44Z</time>
      </trkpt>
      <trkpt lat="43.815" lon="5.55104">
        <ele>950.481</ele>
        <time>2020-09-02T08:21:45Z</time>
      </trkpt>
      <trkpt lat="43.81496" lon="5.5512">
        <ele>950.209</ele>
        <time>2020-09-02T08:21:46Z</time>
      </trkpt>
      <trkpt lat="43.81494" lon="5.55134">
        <ele>950.508</ele>
        <time>2020-09-02T08:21:47Z</time>
      </trkpt>
      <trkpt lat="43.81493" lon="5.55151">
        <ele>949.872</ele>
        <time>2020-09-02T08:21:48Z</time>
      </trkpt>
      <trkpt lat="43.81493" lon="5.5517">
        <ele>949.951</ele>
        <time>2020-09-02T08:21:49Z</time>
      </trkpt>
      <trkpt lat="43.81495" lon="5.55187">
        <ele>949.941</ele>
        <time>2020-09-02T08:21:50Z</time>
      </trkpt>
      <trkpt lat="43.81497" lon="5.55207">
        <ele>950.618</ele>
        <time>2020-09-02T08:21:51Z</time>
      </trkpt>
      <trkpt lat="43.81498" lon="5.55225">
        <ele>950.949</ele>
        <time>2020-09-02T08:21:52Z</time>
      </trkpt>
      <trkpt lat="43.81498" lon="5.55243">
        <ele>949.657</ele>
        <time>2020-09-02T08:21:53Z</time>
      </trkpt>
      <trkpt lat="43.81495" lon="5.55258">
        <ele>949.783</ele>
        <time>2020-09-02T08:21:54Z</time>
      </trkpt>
      <trkpt lat="43.81492" lon="5.55271">
        <ele>949.626</ele>
        <time>2020-09-02T08:21:55Z</time>
      </trkpt>
      <trkpt lat="43.81488" lon="5.55282">
        <ele>949.182</ele>
        <time>2020-09-02T08:21:56Z</time>
      </trkpt>
      <trkpt lat="43.8148" lon="5.55293">
        <ele>948.643</ele>
        <time>2020-09-02T08:21:57Z</time>
      </trkpt>
      <trkpt lat="43.81472" lon="5.55304">
        <ele>948.317</ele>
        <time>2020-09-02T08:21:58Z</time>
      </trkpt>
      <trkpt lat="43.81462" lon="5.55314">
        <ele>947.408</ele>
        <time>2020-09-02T08:21:59Z</time>
      </trkpt>
      <trkpt lat="43.81451" lon="5.55324">
        <ele>946.966</ele>
        <time>2020-09-02T08:22:00Z</time>
      </trkpt>
      <trkpt lat="43.81442" lon="5.55334">
        <ele>946.245</ele>
        <time>2020-09-02T08:22:01Z</time>
      </trkpt>
      <trkpt lat="43.81432" lon="5.55343">
        <ele>946.075</ele>
        <time>2020-09-02T08:22:02Z</time>
      </trkpt>
      <trkpt lat="43.81422" lon="5.55353">
        <ele>945.892</ele>
        <time>2020-09-02T08:22:03Z</time>
      </trkpt>
      <trkpt lat="43.81413" lon="5.55364">
        <ele>944.133</ele>
        <time>2020-09-02T08:22:04Z</time>
      </trkpt>
      <trkpt lat="43.81404" lon="5.55376">
        <ele>943.411</ele>
        <time>2020-09-02T08:22:05Z</time>
      </trkpt>
      <trkpt lat="43.81396" lon="5.5539">
        <ele>943.257</ele>
        <time>2020-09-02T08:22:06Z</time>
      </trkpt>
      <trkpt lat="43.81389" lon="5.55404">
        <ele>942.23</ele>
        <time>2020-09-02T08:22:07Z</time>
      </trkpt>
      <trkpt lat="43.81383" lon="5.55416">
        <ele>941.517</ele>
        <time>2020-09-02T08:22:08Z</time>
      </trkpt>
      <trkpt lat="43.81379" lon="5.55428">
        <ele>940.487</ele>
        <time>2020-09-02T08:22:09Z</time>
      </trkpt>
      <trkpt lat="43.81375" lon="5.5544">
        <ele>940.715</ele>
        <time>2020-09-02T08:22:10Z</time>
      </trkpt>
      <trkpt lat="43.81373" lon="5.55453">
        <ele>939.908</ele>
        <time>2020-09-02T08:22:11Z</time>
      </trkpt>
      <trkpt lat="43.81372" lon="5.55469">
        <ele>939.389</ele>
        <time>2020-09-02T08:22:12Z</time>
      </trkpt>
      <trkpt lat="43.81372" lon="5.55485">
        <ele>938.168</ele>
        <time>2020-09-02T08:22:13Z</time>
      </trkpt>
      <trkpt lat="43.81372" lon="5.555">
        <ele>937.168</ele>
        <time>2020-09-02T08:22:14Z</time>
      </trkpt>
      <trkpt lat="43.81372" lon="5.55515">
        <ele>936.545</ele>
        <time>2020-09-02T08:22:15Z</time>
      </trkpt>
      <trkpt lat="43.81373" lon="5.55529">
        <ele>935.796</ele>
        <time>2020-09-02T08:22:16Z</time>
      </trkpt>
      <trkpt lat="43.81375" lon="5.55541">
        <ele>934.754</ele>
        <time>2020-09-02T08:22:17Z</time>
      </trkpt>
      <trkpt lat="43.81377" lon="5.55553">
        <ele>934.05</ele>
        <time>2020-09-02T08:22:18Z</time>
      </trkpt>
      <trkpt lat="43.81381" lon="5.55563">
        <ele>934.113</ele>
        <time>2020-09-02T08:22:19Z</time>
      </trkpt>
      <trkpt lat="43.81387" lon="5.55573">
        <ele>933.547</ele>
        <time>2020-09-02T08:22:20Z</time>
      </trkpt>
      <trkpt lat="43.81395" lon="5.55582">
        <ele>933.029</ele>
        <time>2020-09-02T08:22:21Z</time>
      </trkpt>
      <trkpt lat="43.81405" lon="5.55594">
        <ele>931.821</ele>
        <time>2020-09-02T08:22:22Z</time>
      </trkpt>
      <trkpt lat="43.81413" lon="5.55601">
        <ele>931.108</ele>
        <time>2020-09-02T08:22:23Z</time>
      </trkpt>
      <trkpt lat="43.81421" lon="5.55609">
        <ele>930.642</ele>
        <time>2020-09-02T08:22:24Z</time>
      </trkpt>
      <trkpt lat="43.81434" lon="5.55613">
        <ele>928.931</ele>
        <time>2020-09-02T08:22:25Z</time>
      </trkpt>
      <trkpt lat="43.81445" lon="5.55617">
        <ele>928.651</ele>
        <time>2020-09-02T08:22:26Z</time>
      </trkpt>
      <trkpt lat="43.81457" lon="5.5562">
        <ele>927.918</ele>
        <time>2020-09-02T08:22:27Z</time>
      </trkpt>
      <trkpt lat="43.81469" lon="5.55623">
        <ele>927.919</ele>
        <time>2020-09-02T08:22:28Z</time>
      </trkpt>
      <trkpt lat="43.81482" lon="5.55625">
        <ele>927.497</ele>
        <time>2020-09-02T08:22:29Z</time>
      </trkpt>
      <trkpt lat="43.81491" lon="5.55626">
        <ele>926.933</ele>
        <time>2020-09-02T08:22:30Z</time>
      </trkpt>
      <trkpt lat="43.81502" lon="5.55627">
        <ele>925.276</ele>
        <time>2020-09-02T08:22:31Z</time>
      </trkpt>
      <trkpt lat="43.81514" lon="5.55628">
        <ele>924.751</ele>
        <time>2020-09-02T08:22:32Z</time>
      </trkpt>
      <trkpt lat="43.81527" lon="5.55628">
        <ele>923.101</ele>
        <time>2020-09-02T08:22:33Z</time>
      </trkpt>
      <trkpt lat="43.81537" lon="5.55626">
        <ele>922.711</ele>
        <time>2020-09-02T08:22:34Z</time>
      </trkpt>
      <trkpt lat="43.81547" lon="5.55623">
        <ele>921.408</ele>
        <time>2020-09-02T08:22:35Z</time>
      </trkpt>
      <trkpt lat="43.81558" lon="5.55621">
        <ele>919.563</ele>
        <time>2020-09-02T08:22:36Z</time>
      </trkpt>
      <trkpt lat="43.81568" lon="5.55619">
        <ele>919.112</ele>
        <time>2020-09-02T08:22:37Z</time>
      </trkpt>
      <trkpt lat="43.81577" lon="5.55617">
        <ele>918.082</ele>
        <time>2020-09-02T08:22:38Z</time>
      </trkpt>
      <trkpt lat="43.81585" lon="5.55616">
        <ele>916.499</ele>
        <time>2020-09-02T08:22:39Z</time>
      </trkpt>
      <trkpt lat="43.81592" lon="5.55609">
        <ele>914.95</ele>
        <time>2020-09-02T08:22:40Z</time>
      </trkpt>
      <trkpt lat="43.81598" lon="5.55605">
        <ele>913.938</ele>
        <time>2020-09-02T08:22:41Z</time>
      </trkpt>
      <trkpt lat="43.81605" lon="5.556">
        <ele>912.684</ele>
        <time>2020-09-02T08:22:42Z</time>
      </trkpt>
      <trkpt lat="43.81612" lon="5.55596">
        <ele>911.467</ele>
        <time>2020-09-02T08:22:43Z</time>
      </trkpt>
      <trkpt lat="43.81619" lon="5.5559">
        <ele>910.743</ele>
        <time>2020-09-02T08:22:44Z</time>
      </trkpt>
      <trkpt lat="43.81627" lon="5.55582">
        <ele>910.064</ele>
        <time>2020-09-02T08:22:45Z</time>
      </trkpt>
      <trkpt lat="43.81634" lon="5.55574">
        <ele>909.41</ele>
        <time>2020-09-02T08:22:46Z</time>
      </trkpt>
      <trkpt lat="43.81641" lon="5.55563">
        <ele>908.208</ele>
        <time>2020-09-02T08:22:47Z</time>
      </trkpt>
      <trkpt lat="43.81649" lon="5.55553">
        <ele>907.132</ele>
        <time>2020-09-02T08:22:48Z</time>
      </trkpt>
      <trkpt lat="43.81658" lon="5.55541">
        <ele>906.951</ele>
        <time>2020-09-02T08:22:49Z</time>
      </trkpt>
      <trkpt lat="43.81664" lon="5.5553">
        <ele>906.161</ele>
        <time>2020-09-02T08:22:50Z</time>
      </trkpt>
      <trkpt lat="43.81673" lon="5.55517">
        <ele>905.358</ele>
        <time>2020-09-02T08:22:51Z</time>
      </trkpt>
      <trkpt lat="43.8168" lon="5.55504">
        <ele>904.489</ele>
        <time>2020-09-02T08:22:52Z</time>
      </trkpt>
      <trkpt lat="43.81687" lon="5.55491">
        <ele>903.267</ele>
        <time>2020-09-02T08:22:53Z</time>
      </trkpt>
      <trkpt lat="43.81697" lon="5.55481">
        <ele>901.773</ele>
        <time>2020-09-02T08:22:54Z</time>
      </trkpt>
      <trkpt lat="43.81704" lon="5.55471">
        <ele>901.196</ele>
        <time>2020-09-02T08:22:55Z</time>
      </trkpt>
      <trkpt lat="43.81712" lon="5.55462">
        <ele>900.418</ele>
        <time>2020-09-02T08:22:56Z</time>
      </trkpt>
      <trkpt lat="43.81721" lon="5.55462">
        <ele>900.198</ele>
        <time>2020-09-02T08:22:57Z</time>
      </trkpt>
      <trkpt lat="43.81728" lon="5.55462">
        <ele>898.617</ele>
        <time>2020-09-02T08:22:58Z</time>
      </trkpt>
      <trkpt lat="43.81736" lon="5.55465">
        <ele>897.708</ele>
        <time>2020-09-02T08:22:59Z</time>
      </trkpt>
      <trkpt lat="43.81744" lon="5.55471">
        <ele>898.079</ele>
        <time>2020-09-02T08:23:00Z</time>
      </trkpt>
      <trkpt lat="43.8175" lon="5.55482">
        <ele>897.858</ele>
        <time>2020-09-02T08:23:01Z</time>
      </trkpt>
      <trkpt lat="43.81756" lon="5.55496">
        <ele>897.298</ele>
        <time>2020-09-02T08:23:02Z</time>
      </trkpt>
      <trkpt lat="43.81763" lon="5.55511">
        <ele>895.235</ele>
        <time>2020-09-02T08:23:03Z</time>
      </trkpt>
      <trkpt lat="43.81768" lon="5.55526">
        <ele>893.476</ele>
        <time>2020-09-02T08:23:04Z</time>
      </trkpt>
      <trkpt lat="43.81774" lon="5.55544">
        <ele>892.414</ele>
        <time>2020-09-02T08:23:05Z</time>
      </trkpt>
      <trkpt lat="43.81777" lon="5.55562">
        <ele>890.46</ele>
        <time>2020-09-02T08:23:06Z</time>
      </trkpt>
      <trkpt lat="43.81782" lon="5.55581">
        <ele>889.313</ele>
        <time>2020-09-02T08:23:07Z</time>
      </trkpt>
      <trkpt lat="43.81785" lon="5.556">
        <ele>887.964</ele>
        <time>2020-09-02T08:23:08Z</time>
      </trkpt>
      <trkpt lat="43.81788" lon="5.55619">
        <ele>887.206</ele>
        <time>2020-09-02T08:23:09Z</time>
      </trkpt>
      <trkpt lat="43.81793" lon="5.55638">
        <ele>886.716</ele>
        <time>2020-09-02T08:23:10Z</time>
      </trkpt>
      <trkpt lat="43.81798" lon="5.55658">
        <ele>885.008</ele>
        <time>2020-09-02T08:23:11Z</time>
      </trkpt>
      <trkpt lat="43.81802" lon="5.55677">
        <ele>883.014</ele>
        <time>2020-09-02T08:23:12Z</time>
      </trkpt>
      <trkpt lat="43.81807" lon="5.55695">
        <ele>882.053</ele>
        <time>2020-09-02T08:23:13Z</time>
      </trkpt>
      <trkpt lat="43.81811" lon="5.55712">
        <ele>880.813</ele>
        <time>2020-09-02T08:23:14Z</time>
      </trkpt>
      <trkpt lat="43.81814" lon="5.55728">
        <ele>880.34</ele>
        <time>2020-09-02T08:23:15Z</time>
      </trkpt>
      <trkpt lat="43.81818" lon="5.55743">
        <ele>879.221</ele>
        <time>2020-09-02T08:23:16Z</time>
      </trkpt>
      <trkpt lat="43.81822" lon="5.55756">
        <ele>878.329</ele>
        <time>2020-09-02T08:23:17Z</time>
      </trkpt>
      <trkpt lat="43.81827" lon="5.55764">
        <ele>876.955</ele>
        <time>2020-09-02T08:23:18Z</time>
      </trkpt>
      <trkpt lat="43.81835" lon="5.5577">
        <ele>876.678</ele>
        <time>2020-09-02T08:23:19Z</time>
      </trkpt>
      <trkpt lat="43.81844" lon="5.55772">
        <ele>876.165</ele>
        <time>2020-09-02T08:23:20Z</time>
      </trkpt>
      <trkpt lat="43.81854" lon="5.55772">
        <ele>875.368</ele>
        <time>2020-09-02T08:23:21Z</time>
      </trkpt>
      <trkpt lat="43.81866" lon="5.55772">
        <ele>874.814</ele>
        <time>2020-09-02T08:23:22Z</time>
      </trkpt>
      <trkpt lat="43.81877" lon="5.55772">
        <ele>873.808</ele>
        <time>2020-09-02T08:23:23Z</time>
      </trkpt>
      <trkpt lat="43.81889" lon="5.55774">
        <ele>871.894</ele>
        <time>2020-09-02T08:23:24Z</time>
      </trkpt>
      <trkpt lat="43.819" lon="5.55777">
        <ele>869.773</ele>
        <time>2020-09-02T08:23:25Z</time>
      </trkpt>
      <trkpt lat="43.81912" lon="5.55779">
        <ele>868.923</ele>
        <time>2020-09-02T08:23:26Z</time>
      </trkpt>
      <trkpt lat="43.81924" lon="5.55782">
        <ele>867.43</ele>
        <time>2020-09-02T08:23:27Z</time>
      </trkpt>
      <trkpt lat="43.81936" lon="5.55785">
        <ele>865.811</ele>
        <time>2020-09-02T08:23:28Z</time>
      </trkpt>
      <trkpt lat="43.81948" lon="5.55789">
        <ele>865.089</ele>
        <time>2020-09-02T08:23:29Z</time>
      </trkpt>
      <trkpt lat="43.81962" lon="5.55791">
        <ele>863.535</ele>
        <time>2020-09-02T08:23:30Z</time>
      </trkpt>
      <trkpt lat="43.81972" lon="5.55793">
        <ele>862.438</ele>
        <time>2020-09-02T08:23:31Z</time>
      </trkpt>
      <trkpt lat="43.81984" lon="5.55794">
        <ele>861.924</ele>
        <time>2020-09-02T08:23:32Z</time>
      </trkpt>
      <trkpt lat="43.81995" lon="5.55797">
        <ele>860.804</ele>
        <time>2020-09-02T08:23:33Z</time>
      </trkpt>
      <trkpt lat="43.82007" lon="5.55798">
        <ele>859.714</ele>
        <time>2020-09-02T08:23:34Z</time>
      </trkpt>
      <trkpt lat="43.82018" lon="5.55803">
        <ele>858.908</ele>
        <time>2020-09-02T08:23:35Z</time>
      </trkpt>
      <trkpt lat="43.82029" lon="5.55808">
        <ele>858.33</ele>
        <time>2020-09-02T08:23:36Z</time>
      </trkpt>
      <trkpt lat="43.82038" lon="5.55813">
        <ele>857.069</ele>
        <time>2020-09-02T08:23:37Z</time>
      </trkpt>
      <trkpt lat="43.82048" lon="5.55821">
        <ele>856.229</ele>
        <time>2020-09-02T08:23:38Z</time>
      </trkpt>
      <trkpt lat="43.82058" lon="5.55831">
        <ele>855.236</ele>
        <time>2020-09-02T08:23:39Z</time>
      </trkpt>
      <trkpt lat="43.82068" lon="5.55843">
        <ele>853.937</ele>
        <time>2020-09-02T08:23:40Z</time>
      </trkpt>
      <trkpt lat="43.82078" lon="5.55854">
        <ele>852.795</ele>
        <time>2020-09-02T08:23:41Z</time>
      </trkpt>
      <trkpt lat="43.82089" lon="5.55866">
        <ele>851.861</ele>
        <time>2020-09-02T08:23:42Z</time>
      </trkpt>
      <trkpt lat="43.821" lon="5.55877">
        <ele>850.524</ele>
        <time>2020-09-02T08:23:43Z</time>
      </trkpt>
      <trkpt lat="43.8211" lon="5.55888">
        <ele>849.745</ele>
        <time>2020-09-02T08:23:45Z</time>
      </trkpt>
      <trkpt lat="43.8212" lon="5.55898">
        <ele>848.947</ele>
        <time>2020-09-02T08:23:46Z</time>
      </trkpt>
      <trkpt lat="43.82129" lon="5.5591">
        <ele>848.611</ele>
        <time>2020-09-02T08:23:47Z</time>
      </trkpt>
      <trkpt lat="43.82138" lon="5.55926">
        <ele>846.208</ele>
        <time>2020-09-02T08:23:48Z</time>
      </trkpt>
      <trkpt lat="43.82145" lon="5.55938">
        <ele>845.632</ele>
        <time>2020-09-02T08:23:49Z</time>
      </trkpt>
      <trkpt lat="43.8215" lon="5.55952">
        <ele>844.561</ele>
        <time>2020-09-02T08:23:50Z</time>
      </trkpt>
      <trkpt lat="43.82154" lon="5.55967">
        <ele>843.861</ele>
        <time>2020-09-02T08:23:51Z</time>
      </trkpt>
      <trkpt lat="43.82155" lon="5.5598">
        <ele>842.868</ele>
        <time>2020-09-02T08:23:52Z</time>
      </trkpt>
      <trkpt lat="43.82154" lon="5.55993">
        <ele>842.159</ele>
        <time>2020-09-02T08:23:53Z</time>
      </trkpt>
      <trkpt lat="43.82151" lon="5.56008">
        <ele>841.617</ele>
        <time>2020-09-02T08:23:54Z</time>
      </trkpt>
      <trkpt lat="43.82147" lon="5.56023">
        <ele>840.433</ele>
        <time>2020-09-02T08:23:55Z</time>
      </trkpt>
      <trkpt lat="43.82142" lon="5.56039">
        <ele>839.866</ele>
        <time>2020-09-02T08:23:56Z</time>
      </trkpt>
      <trkpt lat="43.82136" lon="5.56056">
        <ele>839.271</ele>
        <time>2020-09-02T08:23:57Z</time>
      </trkpt>
      <trkpt lat="43.8213" lon="5.56073">
        <ele>838.641</ele>
        <time>2020-09-02T08:23:58Z</time>
      </trkpt>
      <trkpt lat="43.82123" lon="5.5609">
        <ele>838.315</ele>
        <time>2020-09-02T08:23:59Z</time>
      </trkpt>
      <trkpt lat="43.82115" lon="5.56106">
        <ele>837.908</ele>
        <time>2020-09-02T08:24:00Z</time>
      </trkpt>
      <trkpt lat="43.82106" lon="5.56123">
        <ele>837.475</ele>
        <time>2020-09-02T08:24:01Z</time>
      </trkpt>
      <trkpt lat="43.82097" lon="5.56138">
        <ele>836.934</ele>
        <time>2020-09-02T08:24:02Z</time>
      </trkpt>
      <trkpt lat="43.8209" lon="5.56153">
        <ele>836.864</ele>
        <time>2020-09-02T08:24:03Z</time>
      </trkpt>
      <trkpt lat="43.82082" lon="5.56169">
        <ele>836.771</ele>
        <time>2020-09-02T08:24:04Z</time>
      </trkpt>
      <trkpt lat="43.82075" lon="5.56185">
        <ele>836.792</ele>
        <time>2020-09-02T08:24:05Z</time>
      </trkpt>
      <trkpt lat="43.8207" lon="5.56202">
        <ele>834.34</ele>
        <time>2020-09-02T08:24:06Z</time>
      </trkpt>
      <trkpt lat="43.82062" lon="5.56218">
        <ele>834.736</ele>
        <time>2020-09-02T08:24:07Z</time>
      </trkpt>
      <trkpt lat="43.82055" lon="5.56234">
        <ele>834.629</ele>
        <time>2020-09-02T08:24:08Z</time>
      </trkpt>
      <trkpt lat="43.82046" lon="5.56249">
        <ele>834.814</ele>
        <time>2020-09-02T08:24:09Z</time>
      </trkpt>
      <trkpt lat="43.82038" lon="5.56265">
        <ele>834.854</ele>
        <time>2020-09-02T08:24:10Z</time>
      </trkpt>
      <trkpt lat="43.8203" lon="5.56281">
        <ele>834.209</ele>
        <time>2020-09-02T08:24:11Z</time>
      </trkpt>
      <trkpt lat="43.82022" lon="5.56297">
        <ele>833.408</ele>
        <time>2020-09-02T08:24:12Z</time>
      </trkpt>
      <trkpt lat="43.82015" lon="5.56315">
        <ele>832.689</ele>
        <time>2020-09-02T08:24:13Z</time>
      </trkpt>
      <trkpt lat="43.82008" lon="5.56333">
        <ele>832.678</ele>
        <time>2020-09-02T08:24:14Z</time>
      </trkpt>
      <trkpt lat="43.82001" lon="5.56349">
        <ele>832.588</ele>
        <time>2020-09-02T08:24:15Z</time>
      </trkpt>
      <trkpt lat="43.81994" lon="5.56366">
        <ele>832.715</ele>
        <time>2020-09-02T08:24:16Z</time>
      </trkpt>
      <trkpt lat="43.81988" lon="5.56382">
        <ele>833.136</ele>
        <time>2020-09-02T08:24:17Z</time>
      </trkpt>
      <trkpt lat="43.8198" lon="5.56398">
        <ele>833.154</ele>
        <time>2020-09-02T08:24:18Z</time>
      </trkpt>
      <trkpt lat="43.81977" lon="5.56415">
        <ele>831.71</ele>
        <time>2020-09-02T08:24:19Z</time>
      </trkpt>
      <trkpt lat="43.81973" lon="5.56431">
        <ele>831.643</ele>
        <time>2020-09-02T08:24:20Z</time>
      </trkpt>
      <trkpt lat="43.81968" lon="5.56448">
        <ele>831.628</ele>
        <time>2020-09-02T08:24:21Z</time>
      </trkpt>
      <trkpt lat="43.81965" lon="5.56466">
        <ele>831.389</ele>
        <time>2020-09-02T08:24:22Z</time>
      </trkpt>
      <trkpt lat="43.81964" lon="5.56482">
        <ele>830.817</ele>
        <time>2020-09-02T08:24:23Z</time>
      </trkpt>
      <trkpt lat="43.81967" lon="5.56498">
        <ele>829.308</ele>
        <time>2020-09-02T08:24:24Z</time>
      </trkpt>
      <trkpt lat="43.81969" lon="5.56513">
        <ele>829.15</ele>
        <time>2020-09-02T08:24:25Z</time>
      </trkpt>
      <trkpt lat="43.81969" lon="5.56531">
        <ele>829.299</ele>
        <time>2020-09-02T08:24:26Z</time>
      </trkpt>
      <trkpt lat="43.81969" lon="5.5655">
        <ele>828.759</ele>
        <time>2020-09-02T08:24:27Z</time>
      </trkpt>
      <trkpt lat="43.81969" lon="5.56569">
        <ele>828.266</ele>
        <time>2020-09-02T08:24:28Z</time>
      </trkpt>
      <trkpt lat="43.81968" lon="5.56588">
        <ele>826.927</ele>
        <time>2020-09-02T08:24:29Z</time>
      </trkpt>
      <trkpt lat="43.81968" lon="5.56606">
        <ele>826.445</ele>
        <time>2020-09-02T08:24:30Z</time>
      </trkpt>
      <trkpt lat="43.81968" lon="5.56625">
        <ele>826.561</ele>
        <time>2020-09-02T08:24:31Z</time>
      </trkpt>
      <trkpt lat="43.81969" lon="5.56643">
        <ele>825.324</ele>
        <time>2020-09-02T08:24:32Z</time>
      </trkpt>
      <trkpt lat="43.81969" lon="5.56659">
        <ele>825.181</ele>
        <time>2020-09-02T08:24:33Z</time>
      </trkpt>
      <trkpt lat="43.81973" lon="5.56671">
        <ele>825.261</ele>
        <time>2020-09-02T08:24:34Z</time>
      </trkpt>
      <trkpt lat="43.8198" lon="5.56681">
        <ele>824.617</ele>
        <time>2020-09-02T08:24:35Z</time>
      </trkpt>
      <trkpt lat="43.81987" lon="5.56688">
        <ele>824.508</ele>
        <time>2020-09-02T08:24:36Z</time>
      </trkpt>
      <trkpt lat="43.81995" lon="5.56691">
        <ele>824.166</ele>
        <time>2020-09-02T08:24:37Z</time>
      </trkpt>
      <trkpt lat="43.82005" lon="5.56693">
        <ele>824.175</ele>
        <time>2020-09-02T08:24:38Z</time>
      </trkpt>
      <trkpt lat="43.82016" lon="5.56694">
        <ele>823.815</ele>
        <time>2020-09-02T08:24:39Z</time>
      </trkpt>
      <trkpt lat="43.82027" lon="5.56694">
        <ele>823.132</ele>
        <time>2020-09-02T08:24:40Z</time>
      </trkpt>
      <trkpt lat="43.82038" lon="5.56696">
        <ele>822.593</ele>
        <time>2020-09-02T08:24:41Z</time>
      </trkpt>
      <trkpt lat="43.82048" lon="5.56697">
        <ele>822.311</ele>
        <time>2020-09-02T08:24:42Z</time>
      </trkpt>
      <trkpt lat="43.82057" lon="5.56699">
        <ele>821.657</ele>
        <time>2020-09-02T08:24:43Z</time>
      </trkpt>
      <trkpt lat="43.82066" lon="5.56702">
        <ele>821.32</ele>
        <time>2020-09-02T08:24:44Z</time>
      </trkpt>
      <trkpt lat="43.82074" lon="5.56706">
        <ele>820.615</ele>
        <time>2020-09-02T08:24:45Z</time>
      </trkpt>
      <trkpt lat="43.82081" lon="5.56711">
        <ele>820.365</ele>
        <time>2020-09-02T08:24:46Z</time>
      </trkpt>
      <trkpt lat="43.8209" lon="5.56716">
        <ele>819.911</ele>
        <time>2020-09-02T08:24:47Z</time>
      </trkpt>
      <trkpt lat="43.82098" lon="5.56721">
        <ele>819.408</ele>
        <time>2020-09-02T08:24:48Z</time>
      </trkpt>
      <trkpt lat="43.82106" lon="5.56726">
        <ele>818.729</ele>
        <time>2020-09-02T08:24:49Z</time>
      </trkpt>
      <trkpt lat="43.82113" lon="5.56731">
        <ele>818.018</ele>
        <time>2020-09-02T08:24:50Z</time>
      </trkpt>
      <trkpt lat="43.8212" lon="5.56737">
        <ele>816.848</ele>
        <time>2020-09-02T08:24:51Z</time>
      </trkpt>
      <trkpt lat="43.82128" lon="5.56743">
        <ele>815.575</ele>
        <time>2020-09-02T08:24:52Z</time>
      </trkpt>
      <trkpt lat="43.82136" lon="5.56749">
        <ele>814.886</ele>
        <time>2020-09-02T08:24:53Z</time>
      </trkpt>
      <trkpt lat="43.82145" lon="5.56758">
        <ele>813.014</ele>
        <time>2020-09-02T08:24:54Z</time>
      </trkpt>
      <trkpt lat="43.82152" lon="5.56765">
        <ele>812.29</ele>
        <time>2020-09-02T08:24:55Z</time>
      </trkpt>
      <trkpt lat="43.82158" lon="5.56772">
        <ele>811.323</ele>
        <time>2020-09-02T08:24:56Z</time>
      </trkpt>
      <trkpt lat="43.82166" lon="5.56779">
        <ele>810.553</ele>
        <time>2020-09-02T08:24:57Z</time>
      </trkpt>
      <trkpt lat="43.8217" lon="5.56787">
        <ele>808.604</ele>
        <time>2020-09-02T08:24:58Z</time>
      </trkpt>
      <trkpt lat="43.82175" lon="5.56795">
        <ele>808.414</ele>
        <time>2020-09-02T08:24:59Z</time>
      </trkpt>
      <trkpt lat="43.8218" lon="5.56804">
        <ele>807.308</ele>
        <time>2020-09-02T08:25:00Z</time>
      </trkpt>
      <trkpt lat="43.82184" lon="5.56814">
        <ele>807.083</ele>
        <time>2020-09-02T08:25:01Z</time>
      </trkpt>
      <trkpt lat="43.82188" lon="5.56824">
        <ele>806.362</ele>
        <time>2020-09-02T08:25:02Z</time>
      </trkpt>
      <trkpt lat="43.82191" lon="5.56834">
        <ele>806.232</ele>
        <time>2020-09-02T08:25:03Z</time>
      </trkpt>
      <trkpt lat="43.82196" lon="5.56845">
        <ele>805.999</ele>
        <time>2020-09-02T08:25:04Z</time>
      </trkpt>
      <trkpt lat="43.822" lon="5.56855">
        <ele>805.65</ele>
        <time>2020-09-02T08:25:05Z</time>
      </trkpt>
      <trkpt lat="43.82204" lon="5.56865">
        <ele>805.448</ele>
        <time>2020-09-02T08:25:06Z</time>
      </trkpt>
      <trkpt lat="43.82208" lon="5.56875">
        <ele>804.824</ele>
        <time>2020-09-02T08:25:07Z</time>
      </trkpt>
      <trkpt lat="43.82212" lon="5.56885">
        <ele>803.947</ele>
        <time>2020-09-02T08:25:08Z</time>
      </trkpt>
      <trkpt lat="43.82216" lon="5.56894">
        <ele>803.177</ele>
        <time>2020-09-02T08:25:09Z</time>
      </trkpt>
      <trkpt lat="43.8222" lon="5.56904">
        <ele>802.861</ele>
        <time>2020-09-02T08:25:10Z</time>
      </trkpt>
      <trkpt lat="43.82223" lon="5.56912">
        <ele>803.027</ele>
        <time>2020-09-02T08:25:11Z</time>
      </trkpt>
      <trkpt lat="43.82229" lon="5.56919">
        <ele>802.608</ele>
        <time>2020-09-02T08:25:12Z</time>
      </trkpt>
      <trkpt lat="43.82234" lon="5.56924">
        <ele>801.695</ele>
        <time>2020-09-02T08:25:13Z</time>
      </trkpt>
      <trkpt lat="43.82241" lon="5.56925">
        <ele>800.294</ele>
        <time>2020-09-02T08:25:14Z</time>
      </trkpt>
      <trkpt lat="43.82248" lon="5.5692">
        <ele>799.564</ele>
        <time>2020-09-02T08:25:15Z</time>
      </trkpt>
      <trkpt lat="43.82256" lon="5.56912">
        <ele>799.051</ele>
        <time>2020-09-02T08:25:16Z</time>
      </trkpt>
      <trkpt lat="43.82264" lon="5.56902">
        <ele>798.172</ele>
        <time>2020-09-02T08:25:17Z</time>
      </trkpt>
      <trkpt lat="43.82274" lon="5.56891">
        <ele>796.41</ele>
        <time>2020-09-02T08:25:18Z</time>
      </trkpt>
      <trkpt lat="43.82283" lon="5.56878">
        <ele>794.436</ele>
        <time>2020-09-02T08:25:19Z</time>
      </trkpt>
      <trkpt lat="43.82293" lon="5.56866">
        <ele>793.219</ele>
        <time>2020-09-02T08:25:20Z</time>
      </trkpt>
      <trkpt lat="43.82301" lon="5.56853">
        <ele>791.681</ele>
        <time>2020-09-02T08:25:21Z</time>
      </trkpt>
      <trkpt lat="43.8231" lon="5.56841">
        <ele>790.561</ele>
        <time>2020-09-02T08:25:22Z</time>
      </trkpt>
      <trkpt lat="43.82319" lon="5.56829">
        <ele>789.017</ele>
        <time>2020-09-02T08:25:23Z</time>
      </trkpt>
      <trkpt lat="43.82328" lon="5.56818">
        <ele>788.008</ele>
        <time>2020-09-02T08:25:24Z</time>
      </trkpt>
      <trkpt lat="43.82335" lon="5.56805">
        <ele>787.226</ele>
        <time>2020-09-02T08:25:25Z</time>
      </trkpt>
      <trkpt lat="43.82343" lon="5.56795">
        <ele>786.275</ele>
        <time>2020-09-02T08:25:26Z</time>
      </trkpt>
      <trkpt lat="43.82351" lon="5.56787">
        <ele>785.535</ele>
        <time>2020-09-02T08:25:27Z</time>
      </trkpt>
      <trkpt lat="43.82358" lon="5.56783">
        <ele>785.222</ele>
        <time>2020-09-02T08:25:28Z</time>
      </trkpt>
      <trkpt lat="43.82367" lon="5.5678">
        <ele>784.043</ele>
        <time>2020-09-02T08:25:29Z</time>
      </trkpt>
      <trkpt lat="43.82375" lon="5.5678">
        <ele>783.461</ele>
        <time>2020-09-02T08:25:30Z</time>
      </trkpt>
      <trkpt lat="43.82383" lon="5.56782">
        <ele>782.527</ele>
        <time>2020-09-02T08:25:31Z</time>
      </trkpt>
      <trkpt lat="43.82393" lon="5.56787">
        <ele>781.38</ele>
        <time>2020-09-02T08:25:32Z</time>
      </trkpt>
      <trkpt lat="43.82403" lon="5.56793">
        <ele>779.399</ele>
        <time>2020-09-02T08:25:33Z</time>
      </trkpt>
      <trkpt lat="43.82411" lon="5.56797">
        <ele>777.307</ele>
        <time>2020-09-02T08:25:34Z</time>
      </trkpt>
      <trkpt lat="43.82422" lon="5.56801">
        <ele>776.227</ele>
        <time>2020-09-02T08:25:35Z</time>
      </trkpt>
      <trkpt lat="43.82433" lon="5.56803">
        <ele>775.008</ele>
        <time>2020-09-02T08:25:36Z</time>
      </trkpt>
      <trkpt lat="43.82445" lon="5.56805">
        <ele>774.527</ele>
        <time>2020-09-02T08:25:37Z</time>
      </trkpt>
      <trkpt lat="43.82458" lon="5.56804">
        <ele>773.566</ele>
        <time>2020-09-02T08:25:38Z</time>
      </trkpt>
      <trkpt lat="43.82468" lon="5.56804">
        <ele>772.886</ele>
        <time>2020-09-02T08:25:39Z</time>
      </trkpt>
      <trkpt lat="43.8248" lon="5.56802">
        <ele>771.973</ele>
        <time>2020-09-02T08:25:40Z</time>
      </trkpt>
      <trkpt lat="43.82491" lon="5.568">
        <ele>771.474</ele>
        <time>2020-09-02T08:25:41Z</time>
      </trkpt>
      <trkpt lat="43.82502" lon="5.56801">
        <ele>770.172</ele>
        <time>2020-09-02T08:25:42Z</time>
      </trkpt>
      <trkpt lat="43.82514" lon="5.56802">
        <ele>768.518</ele>
        <time>2020-09-02T08:25:43Z</time>
      </trkpt>
      <trkpt lat="43.82524" lon="5.56801">
        <ele>767.681</ele>
        <time>2020-09-02T08:25:44Z</time>
      </trkpt>
      <trkpt lat="43.82535" lon="5.568">
        <ele>766.887</ele>
        <time>2020-09-02T08:25:45Z</time>
      </trkpt>
      <trkpt lat="43.82546" lon="5.568">
        <ele>766.142</ele>
        <time>2020-09-02T08:25:46Z</time>
      </trkpt>
      <trkpt lat="43.82558" lon="5.568">
        <ele>765.226</ele>
        <time>2020-09-02T08:25:47Z</time>
      </trkpt>
      <trkpt lat="43.8257" lon="5.568">
        <ele>765.308</ele>
        <time>2020-09-02T08:25:48Z</time>
      </trkpt>
      <trkpt lat="43.82581" lon="5.56801">
        <ele>765.456</ele>
        <time>2020-09-02T08:25:49Z</time>
      </trkpt>
      <trkpt lat="43.82591" lon="5.56802">
        <ele>765.395</ele>
        <time>2020-09-02T08:25:50Z</time>
      </trkpt>
      <trkpt lat="43.82603" lon="5.56805">
        <ele>764.325</ele>
        <time>2020-09-02T08:25:51Z</time>
      </trkpt>
      <trkpt lat="43.82616" lon="5.56806">
        <ele>763.332</ele>
        <time>2020-09-02T08:25:52Z</time>
      </trkpt>
      <trkpt lat="43.82629" lon="5.56806">
        <ele>762.913</ele>
        <time>2020-09-02T08:25:53Z</time>
      </trkpt>
      <trkpt lat="43.82641" lon="5.56805">
        <ele>761.761</ele>
        <time>2020-09-02T08:25:54Z</time>
      </trkpt>
      <trkpt lat="43.82653" lon="5.56802">
        <ele>760.717</ele>
        <time>2020-09-02T08:25:55Z</time>
      </trkpt>
      <trkpt lat="43.82665" lon="5.56799">
        <ele>760.57</ele>
        <time>2020-09-02T08:25:56Z</time>
      </trkpt>
      <trkpt lat="43.82677" lon="5.56798">
        <ele>759.618</ele>
        <time>2020-09-02T08:25:57Z</time>
      </trkpt>
      <trkpt lat="43.82688" lon="5.56797">
        <ele>759.098</ele>
        <time>2020-09-02T08:25:58Z</time>
      </trkpt>
      <trkpt lat="43.82699" lon="5.56798">
        <ele>758.217</ele>
        <time>2020-09-02T08:25:59Z</time>
      </trkpt>
      <trkpt lat="43.82709" lon="5.568">
        <ele>757.708</ele>
        <time>2020-09-02T08:26:00Z</time>
      </trkpt>
      <trkpt lat="43.8272" lon="5.56805">
        <ele>756.919</ele>
        <time>2020-09-02T08:26:01Z</time>
      </trkpt>
      <trkpt lat="43.8273" lon="5.56812">
        <ele>755.828</ele>
        <time>2020-09-02T08:26:02Z</time>
      </trkpt>
      <trkpt lat="43.8274" lon="5.5682">
        <ele>754.058</ele>
        <time>2020-09-02T08:26:03Z</time>
      </trkpt>
      <trkpt lat="43.82749" lon="5.56829">
        <ele>753.315</ele>
        <time>2020-09-02T08:26:04Z</time>
      </trkpt>
      <trkpt lat="43.82759" lon="5.56839">
        <ele>752.496</ele>
        <time>2020-09-02T08:26:05Z</time>
      </trkpt>
      <trkpt lat="43.82767" lon="5.5685">
        <ele>751.454</ele>
        <time>2020-09-02T08:26:06Z</time>
      </trkpt>
      <trkpt lat="43.82775" lon="5.56862">
        <ele>750.67</ele>
        <time>2020-09-02T08:26:07Z</time>
      </trkpt>
      <trkpt lat="43.82781" lon="5.56875">
        <ele>749.313</ele>
        <time>2020-09-02T08:26:08Z</time>
      </trkpt>
      <trkpt lat="43.82786" lon="5.56891">
        <ele>747.253</ele>
        <time>2020-09-02T08:26:09Z</time>
      </trkpt>
      <trkpt lat="43.82792" lon="5.56906">
        <ele>746.304</ele>
        <time>2020-09-02T08:26:10Z</time>
      </trkpt>
      <trkpt lat="43.82797" lon="5.56921">
        <ele>745.214</ele>
        <time>2020-09-02T08:26:11Z</time>
      </trkpt>
      <trkpt lat="43.82804" lon="5.56936">
        <ele>742.508</ele>
        <time>2020-09-02T08:26:12Z</time>
      </trkpt>
      <trkpt lat="43.82811" lon="5.56951">
        <ele>741.023</ele>
        <time>2020-09-02T08:26:13Z</time>
      </trkpt>
      <trkpt lat="43.8282" lon="5.56965">
        <ele>740.572</ele>
        <time>2020-09-02T08:26:14Z</time>
      </trkpt>
      <trkpt lat="43.82829" lon="5.56979">
        <ele>740.292</ele>
        <time>2020-09-02T08:26:15Z</time>
      </trkpt>
      <trkpt lat="43.82838" lon="5.56991">
        <ele>739.339</ele>
        <time>2020-09-02T08:26:16Z</time>
      </trkpt>
      <trkpt lat="43.82849" lon="5.57005">
        <ele>737.67</ele>
        <time>2020-09-02T08:26:17Z</time>
      </trkpt>
      <trkpt lat="43.82859" lon="5.57019">
        <ele>736.318</ele>
        <time>2020-09-02T08:26:18Z</time>
      </trkpt>
      <trkpt lat="43.82867" lon="5.57033">
        <ele>734.964</ele>
        <time>2020-09-02T08:26:19Z</time>
      </trkpt>
      <trkpt lat="43.82874" lon="5.57048">
        <ele>734.017</ele>
        <time>2020-09-02T08:26:20Z</time>
      </trkpt>
      <trkpt lat="43.82882" lon="5.57063">
        <ele>733.047</ele>
        <time>2020-09-02T08:26:21Z</time>
      </trkpt>
      <trkpt lat="43.8289" lon="5.5708">
        <ele>731.629</ele>
        <time>2020-09-02T08:26:22Z</time>
      </trkpt>
      <trkpt lat="43.82896" lon="5.57098">
        <ele>730.721</ele>
        <time>2020-09-02T08:26:23Z</time>
      </trkpt>
      <trkpt lat="43.82902" lon="5.57116">
        <ele>730.408</ele>
        <time>2020-09-02T08:26:24Z</time>
      </trkpt>
      <trkpt lat="43.82909" lon="5.57134">
        <ele>729.652</ele>
        <time>2020-09-02T08:26:25Z</time>
      </trkpt>
      <trkpt lat="43.82916" lon="5.57152">
        <ele>728.631</ele>
        <time>2020-09-02T08:26:26Z</time>
      </trkpt>
      <trkpt lat="43.82923" lon="5.57169">
        <ele>727.431</ele>
        <time>2020-09-02T08:26:27Z</time>
      </trkpt>
      <trkpt lat="43.8293" lon="5.57185">
        <ele>726.368</ele>
        <time>2020-09-02T08:26:28Z</time>
      </trkpt>
      <trkpt lat="43.82937" lon="5.572">
        <ele>725.419</ele>
        <time>2020-09-02T08:26:29Z</time>
      </trkpt>
      <trkpt lat="43.82944" lon="5.57214">
        <ele>724.817</ele>
        <time>2020-09-02T08:26:30Z</time>
      </trkpt>
      <trkpt lat="43.82951" lon="5.57227">
        <ele>724.033</ele>
        <time>2020-09-02T08:26:31Z</time>
      </trkpt>
      <trkpt lat="43.82956" lon="5.5724">
        <ele>722.696</ele>
        <time>2020-09-02T08:26:32Z</time>
      </trkpt>
      <trkpt lat="43.82962" lon="5.57253">
        <ele>721.412</ele>
        <time>2020-09-02T08:26:33Z</time>
      </trkpt>
      <trkpt lat="43.82965" lon="5.57268">
        <ele>720.632</ele>
        <time>2020-09-02T08:26:34Z</time>
      </trkpt>
      <trkpt lat="43.82966" lon="5.57285">
        <ele>718.905</ele>
        <time>2020-09-02T08:26:35Z</time>
      </trkpt>
      <trkpt lat="43.82969" lon="5.57302">
        <ele>717.608</ele>
        <time>2020-09-02T08:26:36Z</time>
      </trkpt>
      <trkpt lat="43.82971" lon="5.57319">
        <ele>716.549</ele>
        <time>2020-09-02T08:26:37Z</time>
      </trkpt>
      <trkpt lat="43.82974" lon="5.57335">
        <ele>715.878</ele>
        <time>2020-09-02T08:26:38Z</time>
      </trkpt>
      <trkpt lat="43.82978" lon="5.57352">
        <ele>715.358</ele>
        <time>2020-09-02T08:26:39Z</time>
      </trkpt>
      <trkpt lat="43.82982" lon="5.57367">
        <ele>714.035</ele>
        <time>2020-09-02T08:26:40Z</time>
      </trkpt>
      <trkpt lat="43.82987" lon="5.57383">
        <ele>713.446</ele>
        <time>2020-09-02T08:26:41Z</time>
      </trkpt>
      <trkpt lat="43.82994" lon="5.57397">
        <ele>713.034</ele>
        <time>2020-09-02T08:26:42Z</time>
      </trkpt>
      <trkpt lat="43.82999" lon="5.57409">
        <ele>712.58</ele>
        <time>2020-09-02T08:26:43Z</time>
      </trkpt>
      <trkpt lat="43.83003" lon="5.5742">
        <ele>711.813</ele>
        <time>2020-09-02T08:26:44Z</time>
      </trkpt>
      <trkpt lat="43.83005" lon="5.57435">
        <ele>710.652</ele>
        <time>2020-09-02T08:26:45Z</time>
      </trkpt>
      <trkpt lat="43.83006" lon="5.57446">
        <ele>709.553</ele>
        <time>2020-09-02T08:26:46Z</time>
      </trkpt>
      <trkpt lat="43.83006" lon="5.5746">
        <ele>709.008</ele>
        <time>2020-09-02T08:26:47Z</time>
      </trkpt>
      <trkpt lat="43.83004" lon="5.57474">
        <ele>708.008</ele>
        <time>2020-09-02T08:26:48Z</time>
      </trkpt>
      <trkpt lat="43.83" lon="5.57488">
        <ele>706.993</ele>
        <time>2020-09-02T08:26:49Z</time>
      </trkpt>
      <trkpt lat="43.82995" lon="5.57503">
        <ele>706.532</ele>
        <time>2020-09-02T08:26:50Z</time>
      </trkpt>
      <trkpt lat="43.8299" lon="5.57519">
        <ele>705.942</ele>
        <time>2020-09-02T08:26:51Z</time>
      </trkpt>
      <trkpt lat="43.82985" lon="5.57535">
        <ele>705.139</ele>
        <time>2020-09-02T08:26:52Z</time>
      </trkpt>
      <trkpt lat="43.82981" lon="5.57552">
        <ele>704.85</ele>
        <time>2020-09-02T08:26:53Z</time>
      </trkpt>
      <trkpt lat="43.82976" lon="5.57569">
        <ele>704.018</ele>
        <time>2020-09-02T08:26:54Z</time>
      </trkpt>
      <trkpt lat="43.82971" lon="5.57588">
        <ele>703.034</ele>
        <time>2020-09-02T08:26:55Z</time>
      </trkpt>
      <trkpt lat="43.82966" lon="5.57604">
        <ele>702.527</ele>
        <time>2020-09-02T08:26:56Z</time>
      </trkpt>
      <trkpt lat="43.82961" lon="5.57621">
        <ele>702.311</ele>
        <time>2020-09-02T08:26:57Z</time>
      </trkpt>
      <trkpt lat="43.82955" lon="5.57633">
        <ele>702.021</ele>
        <time>2020-09-02T08:26:58Z</time>
      </trkpt>
      <trkpt lat="43.8295" lon="5.57648">
        <ele>701.703</ele>
        <time>2020-09-02T08:26:59Z</time>
      </trkpt>
      <trkpt lat="43.82947" lon="5.57662">
        <ele>700.908</ele>
        <time>2020-09-02T08:27:00Z</time>
      </trkpt>
      <trkpt lat="43.82943" lon="5.57676">
        <ele>700.019</ele>
        <time>2020-09-02T08:27:01Z</time>
      </trkpt>
      <trkpt lat="43.82939" lon="5.57691">
        <ele>699.718</ele>
        <time>2020-09-02T08:27:02Z</time>
      </trkpt>
      <trkpt lat="43.82935" lon="5.57704">
        <ele>699.528</ele>
        <time>2020-09-02T08:27:03Z</time>
      </trkpt>
      <trkpt lat="43.82933" lon="5.57717">
        <ele>698.615</ele>
        <time>2020-09-02T08:27:04Z</time>
      </trkpt>
      <trkpt lat="43.82933" lon="5.57731">
        <ele>698.096</ele>
        <time>2020-09-02T08:27:05Z</time>
      </trkpt>
      <trkpt lat="43.82936" lon="5.57745">
        <ele>696.994</ele>
        <time>2020-09-02T08:27:06Z</time>
      </trkpt>
      <trkpt lat="43.82938" lon="5.5776">
        <ele>696.68</ele>
        <time>2020-09-02T08:27:07Z</time>
      </trkpt>
      <trkpt lat="43.82939" lon="5.57772">
        <ele>695.613</ele>
        <time>2020-09-02T08:27:08Z</time>
      </trkpt>
      <trkpt lat="43.8294" lon="5.57785">
        <ele>696.096</ele>
        <time>2020-09-02T08:27:09Z</time>
      </trkpt>
      <trkpt lat="43.82941" lon="5.57797">
        <ele>695.831</ele>
        <time>2020-09-02T08:27:10Z</time>
      </trkpt>
      <trkpt lat="43.82943" lon="5.57808">
        <ele>694.924</ele>
        <time>2020-09-02T08:27:11Z</time>
      </trkpt>
      <trkpt lat="43.82944" lon="5.57817">
        <ele>694.908</ele>
        <time>2020-09-02T08:27:12Z</time>
      </trkpt>
      <trkpt lat="43.82943" lon="5.57827">
        <ele>694.627</ele>
        <time>2020-09-02T08:27:13Z</time>
      </trkpt>
      <trkpt lat="43.82941" lon="5.57836">
        <ele>694.486</ele>
        <time>2020-09-02T08:27:14Z</time>
      </trkpt>
      <trkpt lat="43.82938" lon="5.57842">
        <ele>694.236</ele>
        <time>2020-09-02T08:27:15Z</time>
      </trkpt>
      <trkpt lat="43.82935" lon="5.57847">
        <ele>693.523</ele>
        <time>2020-09-02T08:27:16Z</time>
      </trkpt>
      <trkpt lat="43.82932" lon="5.57852">
        <ele>693.164</ele>
        <time>2020-09-02T08:27:17Z</time>
      </trkpt>
      <trkpt lat="43.82931" lon="5.57859">
        <ele>691.942</ele>
        <time>2020-09-02T08:27:18Z</time>
      </trkpt>
      <trkpt lat="43.8293" lon="5.57867">
        <ele>691.748</ele>
        <time>2020-09-02T08:27:19Z</time>
      </trkpt>
      <trkpt lat="43.82931" lon="5.57875">
        <ele>691.611</ele>
        <time>2020-09-02T08:27:20Z</time>
      </trkpt>
      <trkpt lat="43.8293" lon="5.57881">
        <ele>692.014</ele>
        <time>2020-09-02T08:27:21Z</time>
      </trkpt>
      <trkpt lat="43.82929" lon="5.57888">
        <ele>692.454</ele>
        <time>2020-09-02T08:27:22Z</time>
      </trkpt>
      <trkpt lat="43.82928" lon="5.57896">
        <ele>692.809</ele>
        <time>2020-09-02T08:27:23Z</time>
      </trkpt>
      <trkpt lat="43.82927" lon="5.57904">
        <ele>693.008</ele>
        <time>2020-09-02T08:27:24Z</time>
      </trkpt>
      <trkpt lat="43.82925" lon="5.57911">
        <ele>693.869</ele>
        <time>2020-09-02T08:27:25Z</time>
      </trkpt>
      <trkpt lat="43.82924" lon="5.5792">
        <ele>693.658</ele>
        <time>2020-09-02T08:27:26Z</time>
      </trkpt>
      <trkpt lat="43.82923" lon="5.57927">
        <ele>693.838</ele>
        <time>2020-09-02T08:27:27Z</time>
      </trkpt>
      <trkpt lat="43.82921" lon="5.57935">
        <ele>693.915</ele>
        <time>2020-09-02T08:27:28Z</time>
      </trkpt>
      <trkpt lat="43.82919" lon="5.57942">
        <ele>694.466</ele>
        <time>2020-09-02T08:27:29Z</time>
      </trkpt>
      <trkpt lat="43.82918" lon="5.57949">
        <ele>694.384</ele>
        <time>2020-09-02T08:27:30Z</time>
      </trkpt>
      <trkpt lat="43.82917" lon="5.57958">
        <ele>694.74</ele>
        <time>2020-09-02T08:27:31Z</time>
      </trkpt>
      <trkpt lat="43.82915" lon="5.57966">
        <ele>695.383</ele>
        <time>2020-09-02T08:27:32Z</time>
      </trkpt>
      <trkpt lat="43.82914" lon="5.57975">
        <ele>696.486</ele>
        <time>2020-09-02T08:27:33Z</time>
      </trkpt>
      <trkpt lat="43.82911" lon="5.57984">
        <ele>697.26</ele>
        <time>2020-09-02T08:27:34Z</time>
      </trkpt>
      <trkpt lat="43.8291" lon="5.57995">
        <ele>697.626</ele>
        <time>2020-09-02T08:27:35Z</time>
      </trkpt>
      <trkpt lat="43.82909" lon="5.58006">
        <ele>697.508</ele>
        <time>2020-09-02T08:27:36Z</time>
      </trkpt>
      <trkpt lat="43.82909" lon="5.58018">
        <ele>698.586</ele>
        <time>2020-09-02T08:27:37Z</time>
      </trkpt>
      <trkpt lat="43.8291" lon="5.58029">
        <ele>698.235</ele>
        <time>2020-09-02T08:27:38Z</time>
      </trkpt>
      <trkpt lat="43.82911" lon="5.58042">
        <ele>699.285</ele>
        <time>2020-09-02T08:27:39Z</time>
      </trkpt>
      <trkpt lat="43.82913" lon="5.58056">
        <ele>698.652</ele>
        <time>2020-09-02T08:27:40Z</time>
      </trkpt>
      <trkpt lat="43.82915" lon="5.5807">
        <ele>698.393</ele>
        <time>2020-09-02T08:27:41Z</time>
      </trkpt>
      <trkpt lat="43.82917" lon="5.58085">
        <ele>698.141</ele>
        <time>2020-09-02T08:27:42Z</time>
      </trkpt>
      <trkpt lat="43.82919" lon="5.58101">
        <ele>697.857</ele>
        <time>2020-09-02T08:27:43Z</time>
      </trkpt>
      <trkpt lat="43.82922" lon="5.58118">
        <ele>697.33</ele>
        <time>2020-09-02T08:27:44Z</time>
      </trkpt>
      <trkpt lat="43.82924" lon="5.58138">
        <ele>695.514</ele>
        <time>2020-09-02T08:27:45Z</time>
      </trkpt>
      <trkpt lat="43.82925" lon="5.58155">
        <ele>695.854</ele>
        <time>2020-09-02T08:27:46Z</time>
      </trkpt>
      <trkpt lat="43.82927" lon="5.58171">
        <ele>694.409</ele>
        <time>2020-09-02T08:27:47Z</time>
      </trkpt>
      <trkpt lat="43.82926" lon="5.58186">
        <ele>693.508</ele>
        <time>2020-09-02T08:27:48Z</time>
      </trkpt>
      <trkpt lat="43.82924" lon="5.582">
        <ele>692.629</ele>
        <time>2020-09-02T08:27:49Z</time>
      </trkpt>
      <trkpt lat="43.8292" lon="5.58212">
        <ele>692.418</ele>
        <time>2020-09-02T08:27:50Z</time>
      </trkpt>
      <trkpt lat="43.82917" lon="5.58224">
        <ele>691.878</ele>
        <time>2020-09-02T08:27:51Z</time>
      </trkpt>
      <trkpt lat="43.82913" lon="5.58234">
        <ele>691.625</ele>
        <time>2020-09-02T08:27:52Z</time>
      </trkpt>
      <trkpt lat="43.82909" lon="5.58246">
        <ele>691.416</ele>
        <time>2020-09-02T08:27:53Z</time>
      </trkpt>
      <trkpt lat="43.82905" lon="5.58256">
        <ele>690.324</ele>
        <time>2020-09-02T08:27:54Z</time>
      </trkpt>
      <trkpt lat="43.82901" lon="5.58267">
        <ele>690.05</ele>
        <time>2020-09-02T08:27:55Z</time>
      </trkpt>
      <trkpt lat="43.82899" lon="5.58278">
        <ele>689.763</ele>
        <time>2020-09-02T08:27:56Z</time>
      </trkpt>
      <trkpt lat="43.82894" lon="5.58288">
        <ele>689.284</ele>
        <time>2020-09-02T08:27:57Z</time>
      </trkpt>
      <trkpt lat="43.82891" lon="5.583">
        <ele>688.907</ele>
        <time>2020-09-02T08:27:58Z</time>
      </trkpt>
      <trkpt lat="43.82888" lon="5.58313">
        <ele>688.917</ele>
        <time>2020-09-02T08:27:59Z</time>
      </trkpt>
      <trkpt lat="43.82885" lon="5.58328">
        <ele>688.408</ele>
        <time>2020-09-02T08:28:00Z</time>
      </trkpt>
      <trkpt lat="43.82882" lon="5.58343">
        <ele>688.146</ele>
        <time>2020-09-02T08:28:01Z</time>
      </trkpt>
      <trkpt lat="43.8288" lon="5.5836">
        <ele>688.385</ele>
        <time>2020-09-02T08:28:02Z</time>
      </trkpt>
      <trkpt lat="43.82884" lon="5.58379">
        <ele>688.275</ele>
        <time>2020-09-02T08:28:03Z</time>
      </trkpt>
      <trkpt lat="43.82887" lon="5.58398">
        <ele>687.122</ele>
        <time>2020-09-02T08:28:04Z</time>
      </trkpt>
      <trkpt lat="43.82889" lon="5.58415">
        <ele>686.043</ele>
        <time>2020-09-02T08:28:05Z</time>
      </trkpt>
      <trkpt lat="43.8289" lon="5.58432">
        <ele>684.781</ele>
        <time>2020-09-02T08:28:06Z</time>
      </trkpt>
      <trkpt lat="43.82892" lon="5.58452">
        <ele>684.087</ele>
        <time>2020-09-02T08:28:07Z</time>
      </trkpt>
      <trkpt lat="43.82892" lon="5.58473">
        <ele>683.44</ele>
        <time>2020-09-02T08:28:08Z</time>
      </trkpt>
      <trkpt lat="43.82892" lon="5.58493">
        <ele>682.475</ele>
        <time>2020-09-02T08:28:09Z</time>
      </trkpt>
      <trkpt lat="43.82891" lon="5.58514">
        <ele>681.028</ele>
        <time>2020-09-02T08:28:10Z</time>
      </trkpt>
      <trkpt lat="43.82891" lon="5.58536">
        <ele>679.82</ele>
        <time>2020-09-02T08:28:11Z</time>
      </trkpt>
      <trkpt lat="43.8289" lon="5.58557">
        <ele>678.808</ele>
        <time>2020-09-02T08:28:12Z</time>
      </trkpt>
      <trkpt lat="43.82889" lon="5.58578">
        <ele>677.685</ele>
        <time>2020-09-02T08:28:13Z</time>
      </trkpt>
      <trkpt lat="43.8289" lon="5.58596">
        <ele>677.144</ele>
        <time>2020-09-02T08:28:14Z</time>
      </trkpt>
      <trkpt lat="43.8289" lon="5.58612">
        <ele>676.534</ele>
        <time>2020-09-02T08:28:15Z</time>
      </trkpt>
      <trkpt lat="43.82892" lon="5.58626">
        <ele>676.041</ele>
        <time>2020-09-02T08:28:16Z</time>
      </trkpt>
      <trkpt lat="43.82897" lon="5.58632">
        <ele>675.852</ele>
        <time>2020-09-02T08:28:17Z</time>
      </trkpt>
      <trkpt lat="43.82902" lon="5.58638">
        <ele>675.09</ele>
        <time>2020-09-02T08:28:18Z</time>
      </trkpt>
      <trkpt lat="43.82908" lon="5.58639">
        <ele>674.966</ele>
        <time>2020-09-02T08:28:19Z</time>
      </trkpt>
      <trkpt lat="43.82919" lon="5.58628">
        <ele>674.249</ele>
        <time>2020-09-02T08:28:20Z</time>
      </trkpt>
      <trkpt lat="43.82928" lon="5.58622">
        <ele>673.815</ele>
        <time>2020-09-02T08:28:21Z</time>
      </trkpt>
      <trkpt lat="43.82939" lon="5.58613">
        <ele>672.665</ele>
        <time>2020-09-02T08:28:22Z</time>
      </trkpt>
      <trkpt lat="43.82952" lon="5.58602">
        <ele>671.111</ele>
        <time>2020-09-02T08:28:23Z</time>
      </trkpt>
      <trkpt lat="43.82964" lon="5.58592">
        <ele>670.008</ele>
        <time>2020-09-02T08:28:24Z</time>
      </trkpt>
      <trkpt lat="43.82976" lon="5.5858">
        <ele>669.039</ele>
        <time>2020-09-02T08:28:25Z</time>
      </trkpt>
      <trkpt lat="43.8299" lon="5.58572">
        <ele>668.588</ele>
        <time>2020-09-02T08:28:26Z</time>
      </trkpt>
      <trkpt lat="43.83005" lon="5.58564">
        <ele>667.688</ele>
        <time>2020-09-02T08:28:27Z</time>
      </trkpt>
      <trkpt lat="43.83019" lon="5.58556">
        <ele>667.385</ele>
        <time>2020-09-02T08:28:28Z</time>
      </trkpt>
      <trkpt lat="43.83034" lon="5.58547">
        <ele>666.586</ele>
        <time>2020-09-02T08:28:29Z</time>
      </trkpt>
      <trkpt lat="43.83049" lon="5.5854">
        <ele>664.594</ele>
        <time>2020-09-02T08:28:30Z</time>
      </trkpt>
      <trkpt lat="43.83064" lon="5.58532">
        <ele>664.04</ele>
        <time>2020-09-02T08:28:31Z</time>
      </trkpt>
      <trkpt lat="43.83077" lon="5.58526">
        <ele>663.063</ele>
        <time>2020-09-02T08:28:32Z</time>
      </trkpt>
      <trkpt lat="43.83088" lon="5.58521">
        <ele>662.215</ele>
        <time>2020-09-02T08:28:33Z</time>
      </trkpt>
      <trkpt lat="43.83097" lon="5.58518">
        <ele>661.365</ele>
        <time>2020-09-02T08:28:34Z</time>
      </trkpt>
      <trkpt lat="43.83105" lon="5.58518">
        <ele>660.711</ele>
        <time>2020-09-02T08:28:35Z</time>
      </trkpt>
      <trkpt lat="43.83113" lon="5.58524">
        <ele>659.908</ele>
        <time>2020-09-02T08:28:36Z</time>
      </trkpt>
      <trkpt lat="43.83119" lon="5.58532">
        <ele>659.269</ele>
        <time>2020-09-02T08:28:37Z</time>
      </trkpt>
      <trkpt lat="43.83124" lon="5.58543">
        <ele>658.618</ele>
        <time>2020-09-02T08:28:38Z</time>
      </trkpt>
      <trkpt lat="43.83129" lon="5.58556">
        <ele>658.418</ele>
        <time>2020-09-02T08:28:39Z</time>
      </trkpt>
      <trkpt lat="43.83134" lon="5.58572">
        <ele>657.735</ele>
        <time>2020-09-02T08:28:40Z</time>
      </trkpt>
      <trkpt lat="43.83139" lon="5.58589">
        <ele>657.466</ele>
        <time>2020-09-02T08:28:41Z</time>
      </trkpt>
      <trkpt lat="43.83145" lon="5.58605">
        <ele>656.744</ele>
        <time>2020-09-02T08:28:42Z</time>
      </trkpt>
      <trkpt lat="43.83149" lon="5.58621">
        <ele>656.24</ele>
        <time>2020-09-02T08:28:43Z</time>
      </trkpt>
      <trkpt lat="43.83154" lon="5.58638">
        <ele>655.893</ele>
        <time>2020-09-02T08:28:44Z</time>
      </trkpt>
      <trkpt lat="43.83156" lon="5.58656">
        <ele>655.148</ele>
        <time>2020-09-02T08:28:45Z</time>
      </trkpt>
      <trkpt lat="43.83157" lon="5.58674">
        <ele>654.561</ele>
        <time>2020-09-02T08:28:46Z</time>
      </trkpt>
      <trkpt lat="43.83159" lon="5.58692">
        <ele>654.217</ele>
        <time>2020-09-02T08:28:47Z</time>
      </trkpt>
      <trkpt lat="43.83158" lon="5.5871">
        <ele>653.708</ele>
        <time>2020-09-02T08:28:48Z</time>
      </trkpt>
      <trkpt lat="43.83158" lon="5.58728">
        <ele>653.372</ele>
        <time>2020-09-02T08:28:49Z</time>
      </trkpt>
      <trkpt lat="43.83157" lon="5.58745">
        <ele>652.771</ele>
        <time>2020-09-02T08:28:50Z</time>
      </trkpt>
      <trkpt lat="43.83156" lon="5.58761">
        <ele>652.831</ele>
        <time>2020-09-02T08:28:51Z</time>
      </trkpt>
      <trkpt lat="43.83153" lon="5.58775">
        <ele>651.948</ele>
        <time>2020-09-02T08:28:52Z</time>
      </trkpt>
      <trkpt lat="43.83148" lon="5.58789">
        <ele>650.799</ele>
        <time>2020-09-02T08:28:53Z</time>
      </trkpt>
      <trkpt lat="43.83143" lon="5.58802">
        <ele>650.457</ele>
        <time>2020-09-02T08:28:54Z</time>
      </trkpt>
      <trkpt lat="43.83137" lon="5.58813">
        <ele>650.063</ele>
        <time>2020-09-02T08:28:55Z</time>
      </trkpt>
      <trkpt lat="43.83132" lon="5.58822">
        <ele>648.736</ele>
        <time>2020-09-02T08:28:56Z</time>
      </trkpt>
      <trkpt lat="43.8313" lon="5.58833">
        <ele>648.469</ele>
        <time>2020-09-02T08:28:57Z</time>
      </trkpt>
      <trkpt lat="43.83128" lon="5.58846">
        <ele>647.804</ele>
        <time>2020-09-02T08:28:58Z</time>
      </trkpt>
      <trkpt lat="43.83129" lon="5.58861">
        <ele>648.524</ele>
        <time>2020-09-02T08:28:59Z</time>
      </trkpt>
      <trkpt lat="43.83136" lon="5.58878">
        <ele>647.008</ele>
        <time>2020-09-02T08:29:00Z</time>
      </trkpt>
      <trkpt lat="43.8314" lon="5.58893">
        <ele>646.764</ele>
        <time>2020-09-02T08:29:01Z</time>
      </trkpt>
      <trkpt lat="43.83143" lon="5.58908">
        <ele>645.693</ele>
        <time>2020-09-02T08:29:02Z</time>
      </trkpt>
      <trkpt lat="43.83143" lon="5.58924">
        <ele>645.093</ele>
        <time>2020-09-02T08:29:03Z</time>
      </trkpt>
      <trkpt lat="43.83141" lon="5.58939">
        <ele>644.08</ele>
        <time>2020-09-02T08:29:04Z</time>
      </trkpt>
      <trkpt lat="43.83135" lon="5.5895">
        <ele>642.591</ele>
        <time>2020-09-02T08:29:05Z</time>
      </trkpt>
      <trkpt lat="43.83127" lon="5.58962">
        <ele>642.579</ele>
        <time>2020-09-02T08:29:06Z</time>
      </trkpt>
      <trkpt lat="43.83118" lon="5.58975">
        <ele>642.535</ele>
        <time>2020-09-02T08:29:07Z</time>
      </trkpt>
      <trkpt lat="43.83109" lon="5.58989">
        <ele>642.648</ele>
        <time>2020-09-02T08:29:08Z</time>
      </trkpt>
      <trkpt lat="43.831" lon="5.59002">
        <ele>641.334</ele>
        <time>2020-09-02T08:29:09Z</time>
      </trkpt>
      <trkpt lat="43.83093" lon="5.59015">
        <ele>640.455</ele>
        <time>2020-09-02T08:29:10Z</time>
      </trkpt>
      <trkpt lat="43.83086" lon="5.59026">
        <ele>640.21</ele>
        <time>2020-09-02T08:29:11Z</time>
      </trkpt>
      <trkpt lat="43.83076" lon="5.59036">
        <ele>639.908</ele>
        <time>2020-09-02T08:29:12Z</time>
      </trkpt>
      <trkpt lat="43.83068" lon="5.59046">
        <ele>639.781</ele>
        <time>2020-09-02T08:29:13Z</time>
      </trkpt>
      <trkpt lat="43.8306" lon="5.59054">
        <ele>640.29</ele>
        <time>2020-09-02T08:29:14Z</time>
      </trkpt>
      <trkpt lat="43.83053" lon="5.59062">
        <ele>640.51</ele>
        <time>2020-09-02T08:29:15Z</time>
      </trkpt>
      <trkpt lat="43.83046" lon="5.5907">
        <ele>640.747</ele>
        <time>2020-09-02T08:29:16Z</time>
      </trkpt>
      <trkpt lat="43.83049" lon="5.59079">
        <ele>640.728</ele>
        <time>2020-09-02T08:29:17Z</time>
      </trkpt>
      <trkpt lat="43.83061" lon="5.59087">
        <ele>640.066</ele>
        <time>2020-09-02T08:29:19Z</time>
      </trkpt>
      <trkpt lat="43.83072" lon="5.59091">
        <ele>640.552</ele>
        <time>2020-09-02T08:29:20Z</time>
      </trkpt>
      <trkpt lat="43.83083" lon="5.59093">
        <ele>638.825</ele>
        <time>2020-09-02T08:29:21Z</time>
      </trkpt>
      <trkpt lat="43.83096" lon="5.59093">
        <ele>637.849</ele>
        <time>2020-09-02T08:29:22Z</time>
      </trkpt>
      <trkpt lat="43.83108" lon="5.59091">
        <ele>637.102</ele>
        <time>2020-09-02T08:29:23Z</time>
      </trkpt>
      <trkpt lat="43.83122" lon="5.59089">
        <ele>636.022</ele>
        <time>2020-09-02T08:29:24Z</time>
      </trkpt>
      <trkpt lat="43.83134" lon="5.59087">
        <ele>635.008</ele>
        <time>2020-09-02T08:29:25Z</time>
      </trkpt>
      <trkpt lat="43.83146" lon="5.59086">
        <ele>634.212</ele>
        <time>2020-09-02T08:29:26Z</time>
      </trkpt>
      <trkpt lat="43.83155" lon="5.59086">
        <ele>631.951</ele>
        <time>2020-09-02T08:29:27Z</time>
      </trkpt>
      <trkpt lat="43.83166" lon="5.59088">
        <ele>630.831</ele>
        <time>2020-09-02T08:29:28Z</time>
      </trkpt>
      <trkpt lat="43.83176" lon="5.5909">
        <ele>630.658</ele>
        <time>2020-09-02T08:29:29Z</time>
      </trkpt>
      <trkpt lat="43.83187" lon="5.59093">
        <ele>630.089</ele>
        <time>2020-09-02T08:29:30Z</time>
      </trkpt>
      <trkpt lat="43.83197" lon="5.59097">
        <ele>629.827</ele>
        <time>2020-09-02T08:29:31Z</time>
      </trkpt>
      <trkpt lat="43.83206" lon="5.59101">
        <ele>628.483</ele>
        <time>2020-09-02T08:29:32Z</time>
      </trkpt>
      <trkpt lat="43.83212" lon="5.59107">
        <ele>628.396</ele>
        <time>2020-09-02T08:29:33Z</time>
      </trkpt>
      <trkpt lat="43.83216" lon="5.59116">
        <ele>627.931</ele>
        <time>2020-09-02T08:29:34Z</time>
      </trkpt>
      <trkpt lat="43.83218" lon="5.5913">
        <ele>628.061</ele>
        <time>2020-09-02T08:29:35Z</time>
      </trkpt>
      <trkpt lat="43.83221" lon="5.59145">
        <ele>627.707</ele>
        <time>2020-09-02T08:29:36Z</time>
      </trkpt>
      <trkpt lat="43.83224" lon="5.59163">
        <ele>627.008</ele>
        <time>2020-09-02T08:29:37Z</time>
      </trkpt>
      <trkpt lat="43.83229" lon="5.59178">
        <ele>627.141</ele>
        <time>2020-09-02T08:29:38Z</time>
      </trkpt>
      <trkpt lat="43.83235" lon="5.59192">
        <ele>626.98</ele>
        <time>2020-09-02T08:29:39Z</time>
      </trkpt>
      <trkpt lat="43.83241" lon="5.59204">
        <ele>626.68</ele>
        <time>2020-09-02T08:29:40Z</time>
      </trkpt>
      <trkpt lat="43.83248" lon="5.59214">
        <ele>626.217</ele>
        <time>2020-09-02T08:29:41Z</time>
      </trkpt>
      <trkpt lat="43.83255" lon="5.59223">
        <ele>625.928</ele>
        <time>2020-09-02T08:29:42Z</time>
      </trkpt>
      <trkpt lat="43.83261" lon="5.59233">
        <ele>625.716</ele>
        <time>2020-09-02T08:29:43Z</time>
      </trkpt>
      <trkpt lat="43.83266" lon="5.59241">
        <ele>625.422</ele>
        <time>2020-09-02T08:29:44Z</time>
      </trkpt>
      <trkpt lat="43.83273" lon="5.59254">
        <ele>622.795</ele>
        <time>2020-09-02T08:29:45Z</time>
      </trkpt>
      <trkpt lat="43.83278" lon="5.59252">
        <ele>620.959</ele>
        <time>2020-09-02T08:29:49Z</time>
      </trkpt>
      <trkpt lat="43.83284" lon="5.59252">
        <ele>619.403</ele>
        <time>2020-09-02T08:29:51Z</time>
      </trkpt>
      <trkpt lat="43.83288" lon="5.59257">
        <ele>618.623</ele>
        <time>2020-09-02T08:29:53Z</time>
      </trkpt>
      <trkpt lat="43.83289" lon="5.59264">
        <ele>618.008</ele>
        <time>2020-09-02T08:29:54Z</time>
      </trkpt>
      <trkpt lat="43.83293" lon="5.59271">
        <ele>617.213</ele>
        <time>2020-09-02T08:29:56Z</time>
      </trkpt>
      <trkpt lat="43.833" lon="5.59276">
        <ele>616.332</ele>
        <time>2020-09-02T08:29:58Z</time>
      </trkpt>
      <trkpt lat="43.83308" lon="5.5928">
        <ele>614.852</ele>
        <time>2020-09-02T08:30:00Z</time>
      </trkpt>
      <trkpt lat="43.83316" lon="5.59281">
        <ele>613.069</ele>
        <time>2020-09-02T08:30:01Z</time>
      </trkpt>
      <trkpt lat="43.83323" lon="5.59288">
        <ele>610.91</ele>
        <time>2020-09-02T08:30:03Z</time>
      </trkpt>
      <trkpt lat="43.83326" lon="5.59292">
        <ele>610.058</ele>
        <time>2020-09-02T08:30:04Z</time>
      </trkpt>
      <trkpt lat="43.83333" lon="5.59302">
        <ele>607.294</ele>
        <time>2020-09-02T08:30:06Z</time>
      </trkpt>
      <trkpt lat="43.83337" lon="5.59309">
        <ele>606.237</ele>
        <time>2020-09-02T08:30:07Z</time>
      </trkpt>
      <trkpt lat="43.83345" lon="5.59316">
        <ele>604.243</ele>
        <time>2020-09-02T08:30:09Z</time>
      </trkpt>
      <trkpt lat="43.83351" lon="5.59318">
        <ele>602.464</ele>
        <time>2020-09-02T08:30:11Z</time>
      </trkpt>
      <trkpt lat="43.83356" lon="5.59316">
        <ele>600.71</ele>
        <time>2020-09-02T08:30:12Z</time>
      </trkpt>
      <trkpt lat="43.83361" lon="5.59312">
        <ele>599.508</ele>
        <time>2020-09-02T08:30:13Z</time>
      </trkpt>
      <trkpt lat="43.83366" lon="5.59308">
        <ele>598.962</ele>
        <time>2020-09-02T08:30:14Z</time>
      </trkpt>
      <trkpt lat="43.83373" lon="5.59299">
        <ele>596.431</ele>
        <time>2020-09-02T08:30:16Z</time>
      </trkpt>
      <trkpt lat="43.83376" lon="5.59294">
        <ele>595.461</ele>
        <time>2020-09-02T08:30:17Z</time>
      </trkpt>
      <trkpt lat="43.83381" lon="5.59289">
        <ele>595.158</ele>
        <time>2020-09-02T08:30:18Z</time>
      </trkpt>
      <trkpt lat="43.83386" lon="5.59285">
        <ele>593.489</ele>
        <time>2020-09-02T08:30:19Z</time>
      </trkpt>
      <trkpt lat="43.83391" lon="5.5928">
        <ele>593.427</ele>
        <time>2020-09-02T08:30:20Z</time>
      </trkpt>
      <trkpt lat="43.83398" lon="5.59276">
        <ele>591.553</ele>
        <time>2020-09-02T08:30:21Z</time>
      </trkpt>
      <trkpt lat="43.83403" lon="5.59272">
        <ele>590.656</ele>
        <time>2020-09-02T08:30:22Z</time>
      </trkpt>
      <trkpt lat="43.83408" lon="5.59267">
        <ele>590.191</ele>
        <time>2020-09-02T08:30:23Z</time>
      </trkpt>
      <trkpt lat="43.83413" lon="5.5926">
        <ele>589.681</ele>
        <time>2020-09-02T08:30:24Z</time>
      </trkpt>
      <trkpt lat="43.83419" lon="5.59255">
        <ele>588.619</ele>
        <time>2020-09-02T08:30:25Z</time>
      </trkpt>
      <trkpt lat="43.83423" lon="5.5925">
        <ele>588.308</ele>
        <time>2020-09-02T08:30:26Z</time>
      </trkpt>
      <trkpt lat="43.83426" lon="5.59243">
        <ele>587.197</ele>
        <time>2020-09-02T08:30:27Z</time>
      </trkpt>
      <trkpt lat="43.83432" lon="5.59239">
        <ele>585.596</ele>
        <time>2020-09-02T08:30:28Z</time>
      </trkpt>
      <trkpt lat="43.83437" lon="5.59234">
        <ele>584.826</ele>
        <time>2020-09-02T08:30:29Z</time>
      </trkpt>
      <trkpt lat="43.83441" lon="5.59227">
        <ele>583.953</ele>
        <time>2020-09-02T08:30:30Z</time>
      </trkpt>
      <trkpt lat="43.83446" lon="5.59222">
        <ele>582.944</ele>
        <time>2020-09-02T08:30:31Z</time>
      </trkpt>
      <trkpt lat="43.83452" lon="5.59217">
        <ele>582.572</ele>
        <time>2020-09-02T08:30:32Z</time>
      </trkpt>
      <trkpt lat="43.83456" lon="5.59213">
        <ele>581.688</ele>
        <time>2020-09-02T08:30:33Z</time>
      </trkpt>
      <trkpt lat="43.83461" lon="5.59209">
        <ele>581.061</ele>
        <time>2020-09-02T08:30:34Z</time>
      </trkpt>
      <trkpt lat="43.83466" lon="5.59205">
        <ele>580.833</ele>
        <time>2020-09-02T08:30:35Z</time>
      </trkpt>
      <trkpt lat="43.83471" lon="5.59206">
        <ele>580.123</ele>
        <time>2020-09-02T08:30:36Z</time>
      </trkpt>
      <trkpt lat="43.83477" lon="5.59205">
        <ele>579.115</ele>
        <time>2020-09-02T08:30:37Z</time>
      </trkpt>
      <trkpt lat="43.83484" lon="5.59205">
        <ele>578.208</ele>
        <time>2020-09-02T08:30:38Z</time>
      </trkpt>
      <trkpt lat="43.8349" lon="5.59206">
        <ele>577.851</ele>
        <time>2020-09-02T08:30:39Z</time>
      </trkpt>
      <trkpt lat="43.83495" lon="5.59207">
        <ele>577.85</ele>
        <time>2020-09-02T08:30:40Z</time>
      </trkpt>
      <trkpt lat="43.83502" lon="5.59208">
        <ele>577.18</ele>
        <time>2020-09-02T08:30:41Z</time>
      </trkpt>
      <trkpt lat="43.83509" lon="5.59207">
        <ele>576.357</ele>
        <time>2020-09-02T08:30:42Z</time>
      </trkpt>
      <trkpt lat="43.83517" lon="5.59207">
        <ele>574.528</ele>
        <time>2020-09-02T08:30:43Z</time>
      </trkpt>
      <trkpt lat="43.83525" lon="5.59205">
        <ele>573.196</ele>
        <time>2020-09-02T08:30:44Z</time>
      </trkpt>
      <trkpt lat="43.83532" lon="5.59202">
        <ele>570.962</ele>
        <time>2020-09-02T08:30:45Z</time>
      </trkpt>
      <trkpt lat="43.83538" lon="5.59198">
        <ele>570.695</ele>
        <time>2020-09-02T08:30:46Z</time>
      </trkpt>
      <trkpt lat="43.83543" lon="5.59194">
        <ele>569.156</ele>
        <time>2020-09-02T08:30:47Z</time>
      </trkpt>
      <trkpt lat="43.83549" lon="5.59192">
        <ele>568.359</ele>
        <time>2020-09-02T08:30:48Z</time>
      </trkpt>
      <trkpt lat="43.83553" lon="5.59188">
        <ele>568.214</ele>
        <time>2020-09-02T08:30:49Z</time>
      </trkpt>
      <trkpt lat="43.83557" lon="5.59184">
        <ele>568.008</ele>
        <time>2020-09-02T08:30:50Z</time>
      </trkpt>
      <trkpt lat="43.83561" lon="5.59177">
        <ele>566.283</ele>
        <time>2020-09-02T08:30:52Z</time>
      </trkpt>
      <trkpt lat="43.83568" lon="5.59167">
        <ele>564.882</ele>
        <time>2020-09-02T08:30:54Z</time>
      </trkpt>
      <trkpt lat="43.83572" lon="5.59163">
        <ele>565.292</ele>
        <time>2020-09-02T08:30:55Z</time>
      </trkpt>
      <trkpt lat="43.83576" lon="5.5916">
        <ele>565.259</ele>
        <time>2020-09-02T08:30:56Z</time>
      </trkpt>
      <trkpt lat="43.83581" lon="5.59158">
        <ele>564.79</ele>
        <time>2020-09-02T08:30:57Z</time>
      </trkpt>
      <trkpt lat="43.83586" lon="5.59157">
        <ele>564.168</ele>
        <time>2020-09-02T08:30:58Z</time>
      </trkpt>
      <trkpt lat="43.83591" lon="5.5916">
        <ele>562.384</ele>
        <time>2020-09-02T08:30:59Z</time>
      </trkpt>
      <trkpt lat="43.83596" lon="5.59159">
        <ele>562.597</ele>
        <time>2020-09-02T08:31:00Z</time>
      </trkpt>
      <trkpt lat="43.83602" lon="5.59158">
        <ele>562.038</ele>
        <time>2020-09-02T08:31:01Z</time>
      </trkpt>
      <trkpt lat="43.83606" lon="5.59162">
        <ele>560.37</ele>
        <time>2020-09-02T08:31:02Z</time>
      </trkpt>
      <trkpt lat="43.8361" lon="5.59164">
        <ele>559.417</ele>
        <time>2020-09-02T08:31:03Z</time>
      </trkpt>
      <trkpt lat="43.83613" lon="5.5917">
        <ele>558.408</ele>
        <time>2020-09-02T08:31:04Z</time>
      </trkpt>
      <trkpt lat="43.83615" lon="5.59177">
        <ele>558.011</ele>
        <time>2020-09-02T08:31:05Z</time>
      </trkpt>
      <trkpt lat="43.83618" lon="5.59182">
        <ele>558.25</ele>
        <time>2020-09-02T08:31:06Z</time>
      </trkpt>
      <trkpt lat="43.83621" lon="5.59187">
        <ele>558.16</ele>
        <time>2020-09-02T08:31:07Z</time>
      </trkpt>
      <trkpt lat="43.83623" lon="5.59195">
        <ele>557.437</ele>
        <time>2020-09-02T08:31:08Z</time>
      </trkpt>
      <trkpt lat="43.83624" lon="5.59204">
        <ele>556.348</ele>
        <time>2020-09-02T08:31:09Z</time>
      </trkpt>
      <trkpt lat="43.83628" lon="5.59208">
        <ele>556.336</ele>
        <time>2020-09-02T08:31:10Z</time>
      </trkpt>
      <trkpt lat="43.83631" lon="5.59214">
        <ele>555.972</ele>
        <time>2020-09-02T08:31:11Z</time>
      </trkpt>
      <trkpt lat="43.83636" lon="5.5922">
        <ele>554.775</ele>
        <time>2020-09-02T08:31:12Z</time>
      </trkpt>
      <trkpt lat="43.83638" lon="5.59229">
        <ele>553.987</ele>
        <time>2020-09-02T08:31:13Z</time>
      </trkpt>
      <trkpt lat="43.83637" lon="5.59236">
        <ele>553.342</ele>
        <time>2020-09-02T08:31:14Z</time>
      </trkpt>
      <trkpt lat="43.8364" lon="5.59248">
        <ele>552.626</ele>
        <time>2020-09-02T08:31:16Z</time>
      </trkpt>
      <trkpt lat="43.83645" lon="5.59254">
        <ele>551.408</ele>
        <time>2020-09-02T08:31:17Z</time>
      </trkpt>
      <trkpt lat="43.83648" lon="5.59262">
        <ele>550.676</ele>
        <time>2020-09-02T08:31:18Z</time>
      </trkpt>
      <trkpt lat="43.83649" lon="5.59274">
        <ele>547.775</ele>
        <time>2020-09-02T08:31:20Z</time>
      </trkpt>
      <trkpt lat="43.83651" lon="5.59282">
        <ele>546.895</ele>
        <time>2020-09-02T08:31:21Z</time>
      </trkpt>
      <trkpt lat="43.83653" lon="5.59289">
        <ele>545.982</ele>
        <time>2020-09-02T08:31:22Z</time>
      </trkpt>
      <trkpt lat="43.83656" lon="5.59296">
        <ele>545.033</ele>
        <time>2020-09-02T08:31:23Z</time>
      </trkpt>
      <trkpt lat="43.83658" lon="5.59308">
        <ele>543.751</ele>
        <time>2020-09-02T08:31:25Z</time>
      </trkpt>
      <trkpt lat="43.83659" lon="5.59315">
        <ele>543.717</ele>
        <time>2020-09-02T08:31:26Z</time>
      </trkpt>
      <trkpt lat="43.83661" lon="5.59322">
        <ele>542.35</ele>
        <time>2020-09-02T08:31:27Z</time>
      </trkpt>
      <trkpt lat="43.83657" lon="5.59331">
        <ele>541.414</ele>
        <time>2020-09-02T08:31:29Z</time>
      </trkpt>
      <trkpt lat="43.83652" lon="5.59337">
        <ele>540.854</ele>
        <time>2020-09-02T08:31:31Z</time>
      </trkpt>
      <trkpt lat="43.83652" lon="5.59345">
        <ele>541.009</ele>
        <time>2020-09-02T08:31:33Z</time>
      </trkpt>
      <trkpt lat="43.83655" lon="5.59352">
        <ele>533.708</ele>
        <time>2020-09-02T08:31:50Z</time>
      </trkpt>
      <trkpt lat="43.83661" lon="5.59354">
        <ele>533.969</ele>
        <time>2020-09-02T08:31:52Z</time>
      </trkpt>
      <trkpt lat="43.83669" lon="5.59356">
        <ele>533.428</ele>
        <time>2020-09-02T08:31:54Z</time>
      </trkpt>
      <trkpt lat="43.83674" lon="5.59356">
        <ele>532.858</ele>
        <time>2020-09-02T08:31:55Z</time>
      </trkpt>
      <trkpt lat="43.83678" lon="5.59354">
        <ele>531.825</ele>
        <time>2020-09-02T08:31:56Z</time>
      </trkpt>
      <trkpt lat="43.83682" lon="5.59351">
        <ele>531.456</ele>
        <time>2020-09-02T08:31:57Z</time>
      </trkpt>
      <trkpt lat="43.83689" lon="5.59342">
        <ele>531.264</ele>
        <time>2020-09-02T08:31:59Z</time>
      </trkpt>
      <trkpt lat="43.83692" lon="5.59337">
        <ele>530.98</ele>
        <time>2020-09-02T08:32:00Z</time>
      </trkpt>
      <trkpt lat="43.83696" lon="5.59331">
        <ele>530.323</ele>
        <time>2020-09-02T08:32:01Z</time>
      </trkpt>
      <trkpt lat="43.83699" lon="5.59327">
        <ele>530.226</ele>
        <time>2020-09-02T08:32:02Z</time>
      </trkpt>
      <trkpt lat="43.83707" lon="5.59318">
        <ele>527.747</ele>
        <time>2020-09-02T08:32:04Z</time>
      </trkpt>
      <trkpt lat="43.83711" lon="5.59314">
        <ele>526.311</ele>
        <time>2020-09-02T08:32:05Z</time>
      </trkpt>
      <trkpt lat="43.83711" lon="5.59307">
        <ele>525.708</ele>
        <time>2020-09-02T08:32:06Z</time>
      </trkpt>
      <trkpt lat="43.83716" lon="5.59293">
        <ele>525.03</ele>
        <time>2020-09-02T08:32:08Z</time>
      </trkpt>
      <trkpt lat="43.83719" lon="5.59285">
        <ele>524.189</ele>
        <time>2020-09-02T08:32:09Z</time>
      </trkpt>
      <trkpt lat="43.83722" lon="5.59278">
        <ele>523.689</ele>
        <time>2020-09-02T08:32:10Z</time>
      </trkpt>
      <trkpt lat="43.83724" lon="5.59271">
        <ele>522.886</ele>
        <time>2020-09-02T08:32:11Z</time>
      </trkpt>
      <trkpt lat="43.83725" lon="5.59264">
        <ele>520.947</ele>
        <time>2020-09-02T08:32:12Z</time>
      </trkpt>
      <trkpt lat="43.83726" lon="5.59257">
        <ele>520.235</ele>
        <time>2020-09-02T08:32:13Z</time>
      </trkpt>
      <trkpt lat="43.83729" lon="5.59249">
        <ele>520.021</ele>
        <time>2020-09-02T08:32:14Z</time>
      </trkpt>
      <trkpt lat="43.83731" lon="5.59243">
        <ele>518.624</ele>
        <time>2020-09-02T08:32:15Z</time>
      </trkpt>
      <trkpt lat="43.83733" lon="5.59235">
        <ele>518.032</ele>
        <time>2020-09-02T08:32:16Z</time>
      </trkpt>
      <trkpt lat="43.83734" lon="5.59228">
        <ele>517.692</ele>
        <time>2020-09-02T08:32:17Z</time>
      </trkpt>
      <trkpt lat="43.83736" lon="5.5922">
        <ele>516.611</ele>
        <time>2020-09-02T08:32:18Z</time>
      </trkpt>
      <trkpt lat="43.83737" lon="5.59213">
        <ele>516.208</ele>
        <time>2020-09-02T08:32:19Z</time>
      </trkpt>
      <trkpt lat="43.83738" lon="5.59205">
        <ele>515.881</ele>
        <time>2020-09-02T08:32:20Z</time>
      </trkpt>
      <trkpt lat="43.83739" lon="5.59198">
        <ele>515.38</ele>
        <time>2020-09-02T08:32:21Z</time>
      </trkpt>
      <trkpt lat="43.8374" lon="5.59191">
        <ele>515.02</ele>
        <time>2020-09-02T08:32:22Z</time>
      </trkpt>
      <trkpt lat="43.83743" lon="5.59184">
        <ele>514.837</ele>
        <time>2020-09-02T08:32:23Z</time>
      </trkpt>
      <trkpt lat="43.83745" lon="5.59175">
        <ele>514.278</ele>
        <time>2020-09-02T08:32:24Z</time>
      </trkpt>
      <trkpt lat="43.83748" lon="5.59169">
        <ele>513.556</ele>
        <time>2020-09-02T08:32:25Z</time>
      </trkpt>
      <trkpt lat="43.83752" lon="5.59166">
        <ele>511.382</ele>
        <time>2020-09-02T08:32:26Z</time>
      </trkpt>
      <trkpt lat="43.83756" lon="5.59161">
        <ele>511.355</ele>
        <time>2020-09-02T08:32:27Z</time>
      </trkpt>
      <trkpt lat="43.83761" lon="5.59158">
        <ele>509.249</ele>
        <time>2020-09-02T08:32:28Z</time>
      </trkpt>
      <trkpt lat="43.83767" lon="5.59159">
        <ele>508.202</ele>
        <time>2020-09-02T08:32:29Z</time>
      </trkpt>
      <trkpt lat="43.83773" lon="5.59159">
        <ele>507.722</ele>
        <time>2020-09-02T08:32:30Z</time>
      </trkpt>
      <trkpt lat="43.83779" lon="5.5916">
        <ele>507.808</ele>
        <time>2020-09-02T08:32:31Z</time>
      </trkpt>
      <trkpt lat="43.83786" lon="5.5916">
        <ele>506.852</ele>
        <time>2020-09-02T08:32:32Z</time>
      </trkpt>
      <trkpt lat="43.83793" lon="5.59161">
        <ele>506.121</ele>
        <time>2020-09-02T08:32:33Z</time>
      </trkpt>
      <trkpt lat="43.838" lon="5.59161">
        <ele>505.461</ele>
        <time>2020-09-02T08:32:34Z</time>
      </trkpt>
      <trkpt lat="43.83807" lon="5.59161">
        <ele>504.028</ele>
        <time>2020-09-02T08:32:35Z</time>
      </trkpt>
      <trkpt lat="43.83814" lon="5.59161">
        <ele>503.499</ele>
        <time>2020-09-02T08:32:36Z</time>
      </trkpt>
      <trkpt lat="43.8382" lon="5.59163">
        <ele>503.227</ele>
        <time>2020-09-02T08:32:37Z</time>
      </trkpt>
      <trkpt lat="43.83827" lon="5.59164">
        <ele>501.993</ele>
        <time>2020-09-02T08:32:38Z</time>
      </trkpt>
      <trkpt lat="43.83833" lon="5.59163">
        <ele>501.236</ele>
        <time>2020-09-02T08:32:39Z</time>
      </trkpt>
      <trkpt lat="43.83839" lon="5.59163">
        <ele>500.389</ele>
        <time>2020-09-02T08:32:40Z</time>
      </trkpt>
      <trkpt lat="43.83848" lon="5.5916">
        <ele>501.006</ele>
        <time>2020-09-02T08:32:42Z</time>
      </trkpt>
      <trkpt lat="43.83854" lon="5.59161">
        <ele>501.226</ele>
        <time>2020-09-02T08:32:43Z</time>
      </trkpt>
      <trkpt lat="43.83861" lon="5.59161">
        <ele>501.608</ele>
        <time>2020-09-02T08:32:44Z</time>
      </trkpt>
      <trkpt lat="43.83866" lon="5.59164">
        <ele>502.236</ele>
        <time>2020-09-02T08:32:45Z</time>
      </trkpt>
      <trkpt lat="43.8387" lon="5.59167">
        <ele>501.875</ele>
        <time>2020-09-02T08:32:46Z</time>
      </trkpt>
      <trkpt lat="43.83875" lon="5.59173">
        <ele>501.445</ele>
        <time>2020-09-02T08:32:47Z</time>
      </trkpt>
      <trkpt lat="43.83879" lon="5.5918">
        <ele>501.122</ele>
        <time>2020-09-02T08:32:48Z</time>
      </trkpt>
      <trkpt lat="43.83884" lon="5.59187">
        <ele>501.073</ele>
        <time>2020-09-02T08:32:49Z</time>
      </trkpt>
      <trkpt lat="43.83889" lon="5.59194">
        <ele>500.211</ele>
        <time>2020-09-02T08:32:50Z</time>
      </trkpt>
      <trkpt lat="43.83894" lon="5.59201">
        <ele>499.727</ele>
        <time>2020-09-02T08:32:51Z</time>
      </trkpt>
      <trkpt lat="43.83899" lon="5.59206">
        <ele>497.61</ele>
        <time>2020-09-02T08:32:52Z</time>
      </trkpt>
      <trkpt lat="43.83903" lon="5.59212">
        <ele>497.351</ele>
        <time>2020-09-02T08:32:53Z</time>
      </trkpt>
      <trkpt lat="43.83906" lon="5.59218">
        <ele>496.301</ele>
        <time>2020-09-02T08:32:54Z</time>
      </trkpt>
      <trkpt lat="43.8391" lon="5.59223">
        <ele>496.511</ele>
        <time>2020-09-02T08:32:55Z</time>
      </trkpt>
      <trkpt lat="43.83914" lon="5.59228">
        <ele>496.208</ele>
        <time>2020-09-02T08:32:56Z</time>
      </trkpt>
      <trkpt lat="43.83921" lon="5.59234">
        <ele>495.373</ele>
        <time>2020-09-02T08:32:57Z</time>
      </trkpt>
      <trkpt lat="43.83925" lon="5.5924">
        <ele>495.042</ele>
        <time>2020-09-02T08:32:58Z</time>
      </trkpt>
      <trkpt lat="43.83929" lon="5.59247">
        <ele>494.592</ele>
        <time>2020-09-02T08:32:59Z</time>
      </trkpt>
      <trkpt lat="43.83931" lon="5.59253">
        <ele>493.699</ele>
        <time>2020-09-02T08:33:00Z</time>
      </trkpt>
      <trkpt lat="43.83934" lon="5.59261">
        <ele>493.39</ele>
        <time>2020-09-02T08:33:01Z</time>
      </trkpt>
      <trkpt lat="43.83942" lon="5.59269">
        <ele>492.088</ele>
        <time>2020-09-02T08:33:03Z</time>
      </trkpt>
      <trkpt lat="43.8395" lon="5.59278">
        <ele>490.994</ele>
        <time>2020-09-02T08:33:05Z</time>
      </trkpt>
      <trkpt lat="43.83956" lon="5.59282">
        <ele>489.647</ele>
        <time>2020-09-02T08:33:06Z</time>
      </trkpt>
      <trkpt lat="43.83963" lon="5.59288">
        <ele>488.859</ele>
        <time>2020-09-02T08:33:07Z</time>
      </trkpt>
      <trkpt lat="43.83968" lon="5.59295">
        <ele>488.203</ele>
        <time>2020-09-02T08:33:08Z</time>
      </trkpt>
      <trkpt lat="43.83973" lon="5.59301">
        <ele>487.123</ele>
        <time>2020-09-02T08:33:09Z</time>
      </trkpt>
      <trkpt lat="43.83979" lon="5.59305">
        <ele>486.408</ele>
        <time>2020-09-02T08:33:10Z</time>
      </trkpt>
      <trkpt lat="43.83985" lon="5.59308">
        <ele>485.813</ele>
        <time>2020-09-02T08:33:11Z</time>
      </trkpt>
      <trkpt lat="43.83991" lon="5.59312">
        <ele>485.272</ele>
        <time>2020-09-02T08:33:12Z</time>
      </trkpt>
      <trkpt lat="43.83996" lon="5.59315">
        <ele>484.152</ele>
        <time>2020-09-02T08:33:13Z</time>
      </trkpt>
      <trkpt lat="43.84002" lon="5.59321">
        <ele>483.069</ele>
        <time>2020-09-02T08:33:14Z</time>
      </trkpt>
      <trkpt lat="43.84008" lon="5.59326">
        <ele>482.82</ele>
        <time>2020-09-02T08:33:15Z</time>
      </trkpt>
      <trkpt lat="43.84016" lon="5.59331">
        <ele>481.798</ele>
        <time>2020-09-02T08:33:16Z</time>
      </trkpt>
      <trkpt lat="43.84022" lon="5.59336">
        <ele>480.574</ele>
        <time>2020-09-02T08:33:17Z</time>
      </trkpt>
      <trkpt lat="43.84029" lon="5.59339">
        <ele>479.247</ele>
        <time>2020-09-02T08:33:18Z</time>
      </trkpt>
      <trkpt lat="43.84034" lon="5.59342">
        <ele>478.938</ele>
        <time>2020-09-02T08:33:19Z</time>
      </trkpt>
      <trkpt lat="43.84041" lon="5.59348">
        <ele>478.67</ele>
        <time>2020-09-02T08:33:20Z</time>
      </trkpt>
      <trkpt lat="43.84048" lon="5.59354">
        <ele>477.217</ele>
        <time>2020-09-02T08:33:21Z</time>
      </trkpt>
      <trkpt lat="43.84056" lon="5.59359">
        <ele>476.308</ele>
        <time>2020-09-02T08:33:22Z</time>
      </trkpt>
      <trkpt lat="43.84062" lon="5.59364">
        <ele>475.881</ele>
        <time>2020-09-02T08:33:23Z</time>
      </trkpt>
      <trkpt lat="43.84068" lon="5.59368">
        <ele>475.73</ele>
        <time>2020-09-02T08:33:24Z</time>
      </trkpt>
      <trkpt lat="43.84073" lon="5.59373">
        <ele>475.23</ele>
        <time>2020-09-02T08:33:25Z</time>
      </trkpt>
      <trkpt lat="43.84078" lon="5.59378">
        <ele>474.627</ele>
        <time>2020-09-02T08:33:26Z</time>
      </trkpt>
      <trkpt lat="43.84083" lon="5.59383">
        <ele>474.468</ele>
        <time>2020-09-02T08:33:27Z</time>
      </trkpt>
      <trkpt lat="43.84089" lon="5.59389">
        <ele>474.586</ele>
        <time>2020-09-02T08:33:28Z</time>
      </trkpt>
      <trkpt lat="43.84094" lon="5.59395">
        <ele>474.322</ele>
        <time>2020-09-02T08:33:29Z</time>
      </trkpt>
      <trkpt lat="43.84098" lon="5.59402">
        <ele>473.295</ele>
        <time>2020-09-02T08:33:30Z</time>
      </trkpt>
      <trkpt lat="43.84102" lon="5.59407">
        <ele>473.387</ele>
        <time>2020-09-02T08:33:31Z</time>
      </trkpt>
      <trkpt lat="43.84108" lon="5.59418">
        <ele>472.842</ele>
        <time>2020-09-02T08:33:33Z</time>
      </trkpt>
      <trkpt lat="43.84116" lon="5.59422">
        <ele>471.426</ele>
        <time>2020-09-02T08:33:35Z</time>
      </trkpt>
      <trkpt lat="43.84122" lon="5.59422">
        <ele>470.708</ele>
        <time>2020-09-02T08:33:37Z</time>
      </trkpt>
      <trkpt lat="43.84126" lon="5.59417">
        <ele>470.156</ele>
        <time>2020-09-02T08:33:39Z</time>
      </trkpt>
      <trkpt lat="43.84128" lon="5.5941">
        <ele>469.965</ele>
        <time>2020-09-02T08:33:41Z</time>
      </trkpt>
      <trkpt lat="43.8413" lon="5.59401">
        <ele>469.545</ele>
        <time>2020-09-02T08:33:43Z</time>
      </trkpt>
      <trkpt lat="43.84131" lon="5.59395">
        <ele>469.382</ele>
        <time>2020-09-02T08:33:44Z</time>
      </trkpt>
      <trkpt lat="43.84135" lon="5.59384">
        <ele>468.173</ele>
        <time>2020-09-02T08:33:46Z</time>
      </trkpt>
      <trkpt lat="43.84136" lon="5.59377">
        <ele>467.361</ele>
        <time>2020-09-02T08:33:47Z</time>
      </trkpt>
      <trkpt lat="43.84137" lon="5.59371">
        <ele>466.447</ele>
        <time>2020-09-02T08:33:48Z</time>
      </trkpt>
      <trkpt lat="43.84139" lon="5.59365">
        <ele>465.27</ele>
        <time>2020-09-02T08:33:49Z</time>
      </trkpt>
      <trkpt lat="43.84139" lon="5.59357">
        <ele>465.225</ele>
        <time>2020-09-02T08:33:50Z</time>
      </trkpt>
      <trkpt lat="43.84141" lon="5.59348">
        <ele>464.926</ele>
        <time>2020-09-02T08:33:51Z</time>
      </trkpt>
      <trkpt lat="43.84144" lon="5.59341">
        <ele>464.808</ele>
        <time>2020-09-02T08:33:52Z</time>
      </trkpt>
      <trkpt lat="43.84146" lon="5.59334">
        <ele>464.008</ele>
        <time>2020-09-02T08:33:53Z</time>
      </trkpt>
      <trkpt lat="43.84147" lon="5.59328">
        <ele>462.79</ele>
        <time>2020-09-02T08:33:54Z</time>
      </trkpt>
      <trkpt lat="43.84149" lon="5.59321">
        <ele>462.369</ele>
        <time>2020-09-02T08:33:55Z</time>
      </trkpt>
      <trkpt lat="43.84151" lon="5.59315">
        <ele>461.749</ele>
        <time>2020-09-02T08:33:56Z</time>
      </trkpt>
      <trkpt lat="43.84157" lon="5.59309">
        <ele>460.496</ele>
        <time>2020-09-02T08:33:58Z</time>
      </trkpt>
      <trkpt lat="43.84162" lon="5.59315">
        <ele>459.647</ele>
        <time>2020-09-02T08:34:00Z</time>
      </trkpt>
      <trkpt lat="43.84163" lon="5.59322">
        <ele>459.675</ele>
        <time>2020-09-02T08:34:01Z</time>
      </trkpt>
      <trkpt lat="43.84165" lon="5.5933">
        <ele>459.251</ele>
        <time>2020-09-02T08:34:02Z</time>
      </trkpt>
      <trkpt lat="43.84167" lon="5.59338">
        <ele>458.374</ele>
        <time>2020-09-02T08:34:03Z</time>
      </trkpt>
      <trkpt lat="43.84168" lon="5.59346">
        <ele>457.481</ele>
        <time>2020-09-02T08:34:04Z</time>
      </trkpt>
      <trkpt lat="43.84169" lon="5.59356">
        <ele>457.161</ele>
        <time>2020-09-02T08:34:05Z</time>
      </trkpt>
      <trkpt lat="43.84171" lon="5.59363">
        <ele>456.817</ele>
        <time>2020-09-02T08:34:06Z</time>
      </trkpt>
      <trkpt lat="43.84173" lon="5.59373">
        <ele>455.808</ele>
        <time>2020-09-02T08:34:07Z</time>
      </trkpt>
      <trkpt lat="43.84175" lon="5.59382">
        <ele>455.736</ele>
        <time>2020-09-02T08:34:08Z</time>
      </trkpt>
      <trkpt lat="43.84177" lon="5.5939">
        <ele>454.625</ele>
        <time>2020-09-02T08:34:09Z</time>
      </trkpt>
      <trkpt lat="43.84178" lon="5.59397">
        <ele>454.425</ele>
        <time>2020-09-02T08:34:10Z</time>
      </trkpt>
      <trkpt lat="43.84182" lon="5.59406">
        <ele>454.252</ele>
        <time>2020-09-02T08:34:11Z</time>
      </trkpt>
      <trkpt lat="43.84183" lon="5.59414">
        <ele>453.393</ele>
        <time>2020-09-02T08:34:12Z</time>
      </trkpt>
      <trkpt lat="43.84184" lon="5.59421">
        <ele>452.031</ele>
        <time>2020-09-02T08:34:13Z</time>
      </trkpt>
      <trkpt lat="43.84186" lon="5.59429">
        <ele>451.447</ele>
        <time>2020-09-02T08:34:14Z</time>
      </trkpt>
      <trkpt lat="43.84188" lon="5.59436">
        <ele>450.82</ele>
        <time>2020-09-02T08:34:15Z</time>
      </trkpt>
      <trkpt lat="43.8419" lon="5.59444">
        <ele>450.575</ele>
        <time>2020-09-02T08:34:16Z</time>
      </trkpt>
      <trkpt lat="43.84192" lon="5.59451">
        <ele>449.728</ele>
        <time>2020-09-02T08:34:17Z</time>
      </trkpt>
      <trkpt lat="43.84194" lon="5.59459">
        <ele>448.52</ele>
        <time>2020-09-02T08:34:18Z</time>
      </trkpt>
      <trkpt lat="43.84195" lon="5.59468">
        <ele>448.408</ele>
        <time>2020-09-02T08:34:19Z</time>
      </trkpt>
      <trkpt lat="43.84197" lon="5.59475">
        <ele>446.725</ele>
        <time>2020-09-02T08:34:20Z</time>
      </trkpt>
      <trkpt lat="43.84199" lon="5.59482">
        <ele>445.564</ele>
        <time>2020-09-02T08:34:21Z</time>
      </trkpt>
      <trkpt lat="43.842" lon="5.5949">
        <ele>444.594</ele>
        <time>2020-09-02T08:34:22Z</time>
      </trkpt>
      <trkpt lat="43.84199" lon="5.59498">
        <ele>443.681</ele>
        <time>2020-09-02T08:34:23Z</time>
      </trkpt>
      <trkpt lat="43.84201" lon="5.59506">
        <ele>443.222</ele>
        <time>2020-09-02T08:34:24Z</time>
      </trkpt>
      <trkpt lat="43.84202" lon="5.59514">
        <ele>443.08</ele>
        <time>2020-09-02T08:34:25Z</time>
      </trkpt>
      <trkpt lat="43.84204" lon="5.59524">
        <ele>442.666</ele>
        <time>2020-09-02T08:34:26Z</time>
      </trkpt>
      <trkpt lat="43.84206" lon="5.59532">
        <ele>442.499</ele>
        <time>2020-09-02T08:34:27Z</time>
      </trkpt>
      <trkpt lat="43.84207" lon="5.5954">
        <ele>441.349</ele>
        <time>2020-09-02T08:34:28Z</time>
      </trkpt>
      <trkpt lat="43.8421" lon="5.59548">
        <ele>439.602</ele>
        <time>2020-09-02T08:34:30Z</time>
      </trkpt>
      <trkpt lat="43.84216" lon="5.59545">
        <ele>437.622</ele>
        <time>2020-09-02T08:34:32Z</time>
      </trkpt>
      <trkpt lat="43.84221" lon="5.59537">
        <ele>436.308</ele>
        <time>2020-09-02T08:34:34Z</time>
      </trkpt>
      <trkpt lat="43.84225" lon="5.59533">
        <ele>435.452</ele>
        <time>2020-09-02T08:34:35Z</time>
      </trkpt>
      <trkpt lat="43.84229" lon="5.5953">
        <ele>434.881</ele>
        <time>2020-09-02T08:34:36Z</time>
      </trkpt>
      <trkpt lat="43.84236" lon="5.59523">
        <ele>434.191</ele>
        <time>2020-09-02T08:34:38Z</time>
      </trkpt>
      <trkpt lat="43.84244" lon="5.59514">
        <ele>432.428</ele>
        <time>2020-09-02T08:34:40Z</time>
      </trkpt>
      <trkpt lat="43.84247" lon="5.59509">
        <ele>432.649</ele>
        <time>2020-09-02T08:34:41Z</time>
      </trkpt>
      <trkpt lat="43.84251" lon="5.59503">
        <ele>431.857</ele>
        <time>2020-09-02T08:34:42Z</time>
      </trkpt>
      <trkpt lat="43.84257" lon="5.59495">
        <ele>431.713</ele>
        <time>2020-09-02T08:34:43Z</time>
      </trkpt>
      <trkpt lat="43.84265" lon="5.59488">
        <ele>430.696</ele>
        <time>2020-09-02T08:34:44Z</time>
      </trkpt>
      <trkpt lat="43.84269" lon="5.59482">
        <ele>428.519</ele>
        <time>2020-09-02T08:34:45Z</time>
      </trkpt>
      <trkpt lat="43.84274" lon="5.59477">
        <ele>428.209</ele>
        <time>2020-09-02T08:34:46Z</time>
      </trkpt>
      <trkpt lat="43.84279" lon="5.5947">
        <ele>428.219</ele>
        <time>2020-09-02T08:34:47Z</time>
      </trkpt>
      <trkpt lat="43.84283" lon="5.59465">
        <ele>426.308</ele>
        <time>2020-09-02T08:34:48Z</time>
      </trkpt>
      <trkpt lat="43.84287" lon="5.5946">
        <ele>426.269</ele>
        <time>2020-09-02T08:34:49Z</time>
      </trkpt>
      <trkpt lat="43.84291" lon="5.59457">
        <ele>424.718</ele>
        <time>2020-09-02T08:34:50Z</time>
      </trkpt>
      <trkpt lat="43.84296" lon="5.59452">
        <ele>424.318</ele>
        <time>2020-09-02T08:34:51Z</time>
      </trkpt>
      <trkpt lat="43.84302" lon="5.59449">
        <ele>423.465</ele>
        <time>2020-09-02T08:34:52Z</time>
      </trkpt>
      <trkpt lat="43.84308" lon="5.59445">
        <ele>423.736</ele>
        <time>2020-09-02T08:34:53Z</time>
      </trkpt>
      <trkpt lat="43.84313" lon="5.59442">
        <ele>423.964</ele>
        <time>2020-09-02T08:34:54Z</time>
      </trkpt>
      <trkpt lat="43.84319" lon="5.5944">
        <ele>423.32</ele>
        <time>2020-09-02T08:34:55Z</time>
      </trkpt>
      <trkpt lat="43.84324" lon="5.59438">
        <ele>423.133</ele>
        <time>2020-09-02T08:34:56Z</time>
      </trkpt>
      <trkpt lat="43.8433" lon="5.59435">
        <ele>423.517</ele>
        <time>2020-09-02T08:35:14Z</time>
      </trkpt>
      <trkpt lat="43.84338" lon="5.59435">
        <ele>423.187</ele>
        <time>2020-09-02T08:35:16Z</time>
      </trkpt>
      <trkpt lat="43.84345" lon="5.59435">
        <ele>422.515</ele>
        <time>2020-09-02T08:35:17Z</time>
      </trkpt>
      <trkpt lat="43.84352" lon="5.59436">
        <ele>422.208</ele>
        <time>2020-09-02T08:35:18Z</time>
      </trkpt>
      <trkpt lat="43.8436" lon="5.59436">
        <ele>421.189</ele>
        <time>2020-09-02T08:35:19Z</time>
      </trkpt>
      <trkpt lat="43.84369" lon="5.59437">
        <ele>420.398</ele>
        <time>2020-09-02T08:35:20Z</time>
      </trkpt>
      <trkpt lat="43.84377" lon="5.59437">
        <ele>419.768</ele>
        <time>2020-09-02T08:35:21Z</time>
      </trkpt>
      <trkpt lat="43.84385" lon="5.59438">
        <ele>418.485</ele>
        <time>2020-09-02T08:35:22Z</time>
      </trkpt>
      <trkpt lat="43.84393" lon="5.59439">
        <ele>417.696</ele>
        <time>2020-09-02T08:35:23Z</time>
      </trkpt>
      <trkpt lat="43.84401" lon="5.59441">
        <ele>416.964</ele>
        <time>2020-09-02T08:35:24Z</time>
      </trkpt>
      <trkpt lat="43.84409" lon="5.59444">
        <ele>416.09</ele>
        <time>2020-09-02T08:35:25Z</time>
      </trkpt>
      <trkpt lat="43.84416" lon="5.5945">
        <ele>415.553</ele>
        <time>2020-09-02T08:35:26Z</time>
      </trkpt>
      <trkpt lat="43.84423" lon="5.59458">
        <ele>415.355</ele>
        <time>2020-09-02T08:35:27Z</time>
      </trkpt>
      <trkpt lat="43.84429" lon="5.59468">
        <ele>414.607</ele>
        <time>2020-09-02T08:35:28Z</time>
      </trkpt>
      <trkpt lat="43.84435" lon="5.59477">
        <ele>414.317</ele>
        <time>2020-09-02T08:35:29Z</time>
      </trkpt>
      <trkpt lat="43.84441" lon="5.59488">
        <ele>413.808</ele>
        <time>2020-09-02T08:35:30Z</time>
      </trkpt>
      <trkpt lat="43.84448" lon="5.59497">
        <ele>413.463</ele>
        <time>2020-09-02T08:35:31Z</time>
      </trkpt>
      <trkpt lat="43.84453" lon="5.59506">
        <ele>413.352</ele>
        <time>2020-09-02T08:35:32Z</time>
      </trkpt>
      <trkpt lat="43.84452" lon="5.59512">
        <ele>412.522</ele>
        <time>2020-09-02T08:35:33Z</time>
      </trkpt>
      <trkpt lat="43.84455" lon="5.59521">
        <ele>412.239</ele>
        <time>2020-09-02T08:35:35Z</time>
      </trkpt>
      <trkpt lat="43.84463" lon="5.59526">
        <ele>410.98</ele>
        <time>2020-09-02T08:35:37Z</time>
      </trkpt>
      <trkpt lat="43.84469" lon="5.59528">
        <ele>410.938</ele>
        <time>2020-09-02T08:35:38Z</time>
      </trkpt>
      <trkpt lat="43.84476" lon="5.59532">
        <ele>410.834</ele>
        <time>2020-09-02T08:35:39Z</time>
      </trkpt>
      <trkpt lat="43.84485" lon="5.59536">
        <ele>410.757</ele>
        <time>2020-09-02T08:35:40Z</time>
      </trkpt>
      <trkpt lat="43.84494" lon="5.5954">
        <ele>410.239</ele>
        <time>2020-09-02T08:35:41Z</time>
      </trkpt>
      <trkpt lat="43.84504" lon="5.59545">
        <ele>410.001</ele>
        <time>2020-09-02T08:35:42Z</time>
      </trkpt>
      <trkpt lat="43.84514" lon="5.59549">
        <ele>409.821</ele>
        <time>2020-09-02T08:35:43Z</time>
      </trkpt>
      <trkpt lat="43.84523" lon="5.59553">
        <ele>409.408</ele>
        <time>2020-09-02T08:35:44Z</time>
      </trkpt>
      <trkpt lat="43.84532" lon="5.59559">
        <ele>409.451</ele>
        <time>2020-09-02T08:35:45Z</time>
      </trkpt>
      <trkpt lat="43.84541" lon="5.59565">
        <ele>409.33</ele>
        <time>2020-09-02T08:35:46Z</time>
      </trkpt>
      <trkpt lat="43.8455" lon="5.59571">
        <ele>409.57</ele>
        <time>2020-09-02T08:35:47Z</time>
      </trkpt>
      <trkpt lat="43.84558" lon="5.59577">
        <ele>409.657</ele>
        <time>2020-09-02T08:35:48Z</time>
      </trkpt>
      <trkpt lat="43.84567" lon="5.59584">
        <ele>410.278</ele>
        <time>2020-09-02T08:35:49Z</time>
      </trkpt>
      <trkpt lat="43.84575" lon="5.59591">
        <ele>410.466</ele>
        <time>2020-09-02T08:35:50Z</time>
      </trkpt>
      <trkpt lat="43.84583" lon="5.59595">
        <ele>410.772</ele>
        <time>2020-09-02T08:35:51Z</time>
      </trkpt>
      <trkpt lat="43.84589" lon="5.59597">
        <ele>410.875</ele>
        <time>2020-09-02T08:35:52Z</time>
      </trkpt>
      <trkpt lat="43.84598" lon="5.59595">
        <ele>410.653</ele>
        <time>2020-09-02T08:35:54Z</time>
      </trkpt>
      <trkpt lat="43.84603" lon="5.59592">
        <ele>410.604</ele>
        <time>2020-09-02T08:35:55Z</time>
      </trkpt>
      <trkpt lat="43.8461" lon="5.5959">
        <ele>410.714</ele>
        <time>2020-09-02T08:35:56Z</time>
      </trkpt>
      <trkpt lat="43.84616" lon="5.59588">
        <ele>410.408</ele>
        <time>2020-09-02T08:35:57Z</time>
      </trkpt>
      <trkpt lat="43.84622" lon="5.59586">
        <ele>410.363</ele>
        <time>2020-09-02T08:35:58Z</time>
      </trkpt>
      <trkpt lat="43.84628" lon="5.59583">
        <ele>410.272</ele>
        <time>2020-09-02T08:35:59Z</time>
      </trkpt>
      <trkpt lat="43.84635" lon="5.59582">
        <ele>410.032</ele>
        <time>2020-09-02T08:36:00Z</time>
      </trkpt>
      <trkpt lat="43.84641" lon="5.59583">
        <ele>409.549</ele>
        <time>2020-09-02T08:36:01Z</time>
      </trkpt>
      <trkpt lat="43.84645" lon="5.59589">
        <ele>410.45</ele>
        <time>2020-09-02T08:36:02Z</time>
      </trkpt>
      <trkpt lat="43.84649" lon="5.59603">
        <ele>411.058</ele>
        <time>2020-09-02T08:36:04Z</time>
      </trkpt>
      <trkpt lat="43.8465" lon="5.59612">
        <ele>411.054</ele>
        <time>2020-09-02T08:36:05Z</time>
      </trkpt>
      <trkpt lat="43.84655" lon="5.59621">
        <ele>410.127</ele>
        <time>2020-09-02T08:36:06Z</time>
      </trkpt>
      <trkpt lat="43.8466" lon="5.59629">
        <ele>410.194</ele>
        <time>2020-09-02T08:36:07Z</time>
      </trkpt>
      <trkpt lat="43.84664" lon="5.59634">
        <ele>410.557</ele>
        <time>2020-09-02T08:36:08Z</time>
      </trkpt>
      <trkpt lat="43.84668" lon="5.59638">
        <ele>410.122</ele>
        <time>2020-09-02T08:36:09Z</time>
      </trkpt>
      <trkpt lat="43.84674" lon="5.5964">
        <ele>410.508</ele>
        <time>2020-09-02T08:36:10Z</time>
      </trkpt>
      <trkpt lat="43.8468" lon="5.5964">
        <ele>410.937</ele>
        <time>2020-09-02T08:36:11Z</time>
      </trkpt>
      <trkpt lat="43.84685" lon="5.59639">
        <ele>411.766</ele>
        <time>2020-09-02T08:36:12Z</time>
      </trkpt>
      <trkpt lat="43.84692" lon="5.5964">
        <ele>412.526</ele>
        <time>2020-09-02T08:36:14Z</time>
      </trkpt>
      <trkpt lat="43.84699" lon="5.5964">
        <ele>412.773</ele>
        <time>2020-09-02T08:36:17Z</time>
      </trkpt>
      <trkpt lat="43.84704" lon="5.59632">
        <ele>413.714</ele>
        <time>2020-09-02T08:36:19Z</time>
      </trkpt>
      <trkpt lat="43.84706" lon="5.59621">
        <ele>415.142</ele>
        <time>2020-09-02T08:36:21Z</time>
      </trkpt>
      <trkpt lat="43.84707" lon="5.59611">
        <ele>416.928</ele>
        <time>2020-09-02T08:36:23Z</time>
      </trkpt>
      <trkpt lat="43.84711" lon="5.59602">
        <ele>418.451</ele>
        <time>2020-09-02T08:36:25Z</time>
      </trkpt>
      <trkpt lat="43.84717" lon="5.59598">
        <ele>419.763</ele>
        <time>2020-09-02T08:36:27Z</time>
      </trkpt>
      <trkpt lat="43.84724" lon="5.59598">
        <ele>421.244</ele>
        <time>2020-09-02T08:36:29Z</time>
      </trkpt>
      <trkpt lat="43.84731" lon="5.59601">
        <ele>421.718</ele>
        <time>2020-09-02T08:36:31Z</time>
      </trkpt>
      <trkpt lat="43.84737" lon="5.59604">
        <ele>421.508</ele>
        <time>2020-09-02T08:36:33Z</time>
      </trkpt>
      <trkpt lat="43.84733" lon="5.59598">
        <ele>419.284</ele>
        <time>2020-09-02T08:36:37Z</time>
      </trkpt>
      <trkpt lat="43.84725" lon="5.59598">
        <ele>418.413</ele>
        <time>2020-09-02T08:36:39Z</time>
      </trkpt>
      <trkpt lat="43.84719" lon="5.596">
        <ele>418.063</ele>
        <time>2020-09-02T08:36:41Z</time>
      </trkpt>
      <trkpt lat="43.84715" lon="5.59603">
        <ele>417.75</ele>
        <time>2020-09-02T08:36:56Z</time>
      </trkpt>
      <trkpt lat="43.84709" lon="5.59606">
        <ele>417.071</ele>
        <time>2020-09-02T08:36:58Z</time>
      </trkpt>
      <trkpt lat="43.84705" lon="5.59614">
        <ele>414.729</ele>
        <time>2020-09-02T08:37:00Z</time>
      </trkpt>
      <trkpt lat="43.84703" lon="5.59625">
        <ele>413.455</ele>
        <time>2020-09-02T08:37:02Z</time>
      </trkpt>
      <trkpt lat="43.84702" lon="5.59636">
        <ele>412.418</ele>
        <time>2020-09-02T08:37:04Z</time>
      </trkpt>
      <trkpt lat="43.84696" lon="5.59643">
        <ele>411.879</ele>
        <time>2020-09-02T08:37:06Z</time>
      </trkpt>
      <trkpt lat="43.84688" lon="5.59643">
        <ele>411.505</ele>
        <time>2020-09-02T08:37:08Z</time>
      </trkpt>
      <trkpt lat="43.84683" lon="5.59642">
        <ele>411.625</ele>
        <time>2020-09-02T08:37:09Z</time>
      </trkpt>
      <trkpt lat="43.84675" lon="5.5964">
        <ele>410.508</ele>
        <time>2020-09-02T08:37:11Z</time>
      </trkpt>
      <trkpt lat="43.8467" lon="5.59639">
        <ele>410.415</ele>
        <time>2020-09-02T08:37:13Z</time>
      </trkpt>
      <trkpt lat="43.84671" lon="5.59647">
        <ele>408.174</ele>
        <time>2020-09-02T08:37:17Z</time>
      </trkpt>
      <trkpt lat="43.8468" lon="5.5965">
        <ele>408.314</ele>
        <time>2020-09-02T08:37:18Z</time>
      </trkpt>
      <trkpt lat="43.84686" lon="5.59652">
        <ele>408.591</ele>
        <time>2020-09-02T08:37:19Z</time>
      </trkpt>
      <trkpt lat="43.84692" lon="5.59653">
        <ele>408.542</ele>
        <time>2020-09-02T08:37:20Z</time>
      </trkpt>
      <trkpt lat="43.84698" lon="5.59654">
        <ele>408.75</ele>
        <time>2020-09-02T08:37:21Z</time>
      </trkpt>
      <trkpt lat="43.84704" lon="5.59654">
        <ele>409.526</ele>
        <time>2020-09-02T08:37:22Z</time>
      </trkpt>
      <trkpt lat="43.8471" lon="5.59654">
        <ele>409.129</ele>
        <time>2020-09-02T08:37:23Z</time>
      </trkpt>
      <trkpt lat="43.84716" lon="5.5966">
        <ele>409.493</ele>
        <time>2020-09-02T08:37:25Z</time>
      </trkpt>
      <trkpt lat="43.84715" lon="5.59672">
        <ele>409.565</ele>
        <time>2020-09-02T08:37:27Z</time>
      </trkpt>
      <trkpt lat="43.84714" lon="5.59679">
        <ele>409.421</ele>
        <time>2020-09-02T08:37:28Z</time>
      </trkpt>
      <trkpt lat="43.84715" lon="5.59685">
        <ele>408.608</ele>
        <time>2020-09-02T08:37:29Z</time>
      </trkpt>
      <trkpt lat="43.84717" lon="5.59693">
        <ele>407.617</ele>
        <time>2020-09-02T08:37:30Z</time>
      </trkpt>
      <trkpt lat="43.8472" lon="5.59701">
        <ele>407.276</ele>
        <time>2020-09-02T08:37:31Z</time>
      </trkpt>
      <trkpt lat="43.84721" lon="5.5971">
        <ele>407.066</ele>
        <time>2020-09-02T08:37:32Z</time>
      </trkpt>
      <trkpt lat="43.84722" lon="5.59719">
        <ele>406.933</ele>
        <time>2020-09-02T08:37:33Z</time>
      </trkpt>
      <trkpt lat="43.84726" lon="5.5973">
        <ele>405.694</ele>
        <time>2020-09-02T08:37:34Z</time>
      </trkpt>
      <trkpt lat="43.84731" lon="5.59739">
        <ele>404.952</ele>
        <time>2020-09-02T08:37:35Z</time>
      </trkpt>
      <trkpt lat="43.84733" lon="5.59747">
        <ele>404.348</ele>
        <time>2020-09-02T08:37:36Z</time>
      </trkpt>
      <trkpt lat="43.84735" lon="5.59757">
        <ele>404.881</ele>
        <time>2020-09-02T08:37:37Z</time>
      </trkpt>
      <trkpt lat="43.84737" lon="5.59767">
        <ele>404.832</ele>
        <time>2020-09-02T08:37:38Z</time>
      </trkpt>
      <trkpt lat="43.84739" lon="5.59777">
        <ele>403.992</ele>
        <time>2020-09-02T08:37:39Z</time>
      </trkpt>
      <trkpt lat="43.8474" lon="5.59787">
        <ele>403.611</ele>
        <time>2020-09-02T08:37:40Z</time>
      </trkpt>
      <trkpt lat="43.84742" lon="5.59798">
        <ele>403.408</ele>
        <time>2020-09-02T08:37:41Z</time>
      </trkpt>
      <trkpt lat="43.84744" lon="5.59809">
        <ele>400.631</ele>
        <time>2020-09-02T08:37:42Z</time>
      </trkpt>
      <trkpt lat="43.84747" lon="5.59819">
        <ele>400.22</ele>
        <time>2020-09-02T08:37:43Z</time>
      </trkpt>
      <trkpt lat="43.84748" lon="5.59829">
        <ele>400.34</ele>
        <time>2020-09-02T08:37:44Z</time>
      </trkpt>
      <trkpt lat="43.8475" lon="5.59839">
        <ele>399.577</ele>
        <time>2020-09-02T08:37:45Z</time>
      </trkpt>
      <trkpt lat="43.84752" lon="5.59849">
        <ele>399.948</ele>
        <time>2020-09-02T08:37:46Z</time>
      </trkpt>
      <trkpt lat="43.84753" lon="5.59858">
        <ele>399.146</ele>
        <time>2020-09-02T08:37:47Z</time>
      </trkpt>
      <trkpt lat="43.84755" lon="5.59867">
        <ele>399.392</ele>
        <time>2020-09-02T08:37:48Z</time>
      </trkpt>
      <trkpt lat="43.84755" lon="5.59874">
        <ele>399.295</ele>
        <time>2020-09-02T08:37:49Z</time>
      </trkpt>
      <trkpt lat="43.84755" lon="5.59883">
        <ele>398.898</ele>
        <time>2020-09-02T08:37:50Z</time>
      </trkpt>
      <trkpt lat="43.84754" lon="5.59892">
        <ele>398.515</ele>
        <time>2020-09-02T08:37:51Z</time>
      </trkpt>
      <trkpt lat="43.84755" lon="5.599">
        <ele>398.026</ele>
        <time>2020-09-02T08:37:52Z</time>
      </trkpt>
      <trkpt lat="43.84757" lon="5.5991">
        <ele>397.408</ele>
        <time>2020-09-02T08:37:53Z</time>
      </trkpt>
      <trkpt lat="43.84758" lon="5.59917">
        <ele>397.287</ele>
        <time>2020-09-02T08:37:54Z</time>
      </trkpt>
      <trkpt lat="43.8476" lon="5.59924">
        <ele>397.016</ele>
        <time>2020-09-02T08:37:55Z</time>
      </trkpt>
      <trkpt lat="43.84764" lon="5.59929">
        <ele>397.016</ele>
        <time>2020-09-02T08:37:56Z</time>
      </trkpt>
      <trkpt lat="43.84769" lon="5.5993">
        <ele>397.623</ele>
        <time>2020-09-02T08:37:57Z</time>
      </trkpt>
      <trkpt lat="43.84776" lon="5.59932">
        <ele>396.554</ele>
        <time>2020-09-02T08:37:58Z</time>
      </trkpt>
      <trkpt lat="43.84782" lon="5.59932">
        <ele>396.142</ele>
        <time>2020-09-02T08:37:59Z</time>
      </trkpt>
      <trkpt lat="43.84789" lon="5.59933">
        <ele>395.718</ele>
        <time>2020-09-02T08:38:00Z</time>
      </trkpt>
      <trkpt lat="43.84795" lon="5.59935">
        <ele>395.081</ele>
        <time>2020-09-02T08:38:01Z</time>
      </trkpt>
      <trkpt lat="43.84801" lon="5.5994">
        <ele>394.589</ele>
        <time>2020-09-02T08:38:02Z</time>
      </trkpt>
      <trkpt lat="43.84806" lon="5.59947">
        <ele>393.806</ele>
        <time>2020-09-02T08:38:03Z</time>
      </trkpt>
      <trkpt lat="43.84813" lon="5.59955">
        <ele>392.926</ele>
        <time>2020-09-02T08:38:04Z</time>
      </trkpt>
      <trkpt lat="43.8482" lon="5.59964">
        <ele>392.208</ele>
        <time>2020-09-02T08:38:05Z</time>
      </trkpt>
      <trkpt lat="43.84827" lon="5.59971">
        <ele>391.516</ele>
        <time>2020-09-02T08:38:06Z</time>
      </trkpt>
      <trkpt lat="43.84834" lon="5.59978">
        <ele>389.825</ele>
        <time>2020-09-02T08:38:07Z</time>
      </trkpt>
      <trkpt lat="43.84841" lon="5.59985">
        <ele>388.645</ele>
        <time>2020-09-02T08:38:08Z</time>
      </trkpt>
      <trkpt lat="43.84846" lon="5.59991">
        <ele>388.252</ele>
        <time>2020-09-02T08:38:09Z</time>
      </trkpt>
      <trkpt lat="43.8485" lon="5.59999">
        <ele>387.183</ele>
        <time>2020-09-02T08:38:10Z</time>
      </trkpt>
      <trkpt lat="43.84853" lon="5.60006">
        <ele>386.281</ele>
        <time>2020-09-02T08:38:11Z</time>
      </trkpt>
      <trkpt lat="43.84857" lon="5.60014">
        <ele>385.247</ele>
        <time>2020-09-02T08:38:12Z</time>
      </trkpt>
      <trkpt lat="43.8486" lon="5.60023">
        <ele>384.18</ele>
        <time>2020-09-02T08:38:13Z</time>
      </trkpt>
      <trkpt lat="43.84864" lon="5.60031">
        <ele>383.097</ele>
        <time>2020-09-02T08:38:14Z</time>
      </trkpt>
      <trkpt lat="43.84868" lon="5.60038">
        <ele>382.123</ele>
        <time>2020-09-02T08:38:15Z</time>
      </trkpt>
      <trkpt lat="43.84873" lon="5.60042">
        <ele>381.225</ele>
        <time>2020-09-02T08:38:16Z</time>
      </trkpt>
      <trkpt lat="43.84879" lon="5.60045">
        <ele>380.808</ele>
        <time>2020-09-02T08:38:17Z</time>
      </trkpt>
      <trkpt lat="43.84884" lon="5.60048">
        <ele>380.547</ele>
        <time>2020-09-02T08:38:18Z</time>
      </trkpt>
      <trkpt lat="43.84888" lon="5.60052">
        <ele>380.346</ele>
        <time>2020-09-02T08:38:19Z</time>
      </trkpt>
      <trkpt lat="43.84894" lon="5.60053">
        <ele>380.086</ele>
        <time>2020-09-02T08:38:21Z</time>
      </trkpt>
      <trkpt lat="43.849" lon="5.60049">
        <ele>378.893</ele>
        <time>2020-09-02T08:38:24Z</time>
      </trkpt>
      <trkpt lat="43.84904" lon="5.60045">
        <ele>379.474</ele>
        <time>2020-09-02T08:38:25Z</time>
      </trkpt>
      <trkpt lat="43.8491" lon="5.60042">
        <ele>379.072</ele>
        <time>2020-09-02T08:38:26Z</time>
      </trkpt>
      <trkpt lat="43.84916" lon="5.6004">
        <ele>378.878</ele>
        <time>2020-09-02T08:38:27Z</time>
      </trkpt>
      <trkpt lat="43.84924" lon="5.60038">
        <ele>379.081</ele>
        <time>2020-09-02T08:38:28Z</time>
      </trkpt>
      <trkpt lat="43.84932" lon="5.60035">
        <ele>378.972</ele>
        <time>2020-09-02T08:38:29Z</time>
      </trkpt>
      <trkpt lat="43.8494" lon="5.60032">
        <ele>378.713</ele>
        <time>2020-09-02T08:38:30Z</time>
      </trkpt>
      <trkpt lat="43.84949" lon="5.60029">
        <ele>378.714</ele>
        <time>2020-09-02T08:38:31Z</time>
      </trkpt>
      <trkpt lat="43.84958" lon="5.60026">
        <ele>378.408</ele>
        <time>2020-09-02T08:38:32Z</time>
      </trkpt>
      <trkpt lat="43.84966" lon="5.60023">
        <ele>378.695</ele>
        <time>2020-09-02T08:38:33Z</time>
      </trkpt>
      <trkpt lat="43.84975" lon="5.60021">
        <ele>378.574</ele>
        <time>2020-09-02T08:38:34Z</time>
      </trkpt>
      <trkpt lat="43.84983" lon="5.60018">
        <ele>378.564</ele>
        <time>2020-09-02T08:38:35Z</time>
      </trkpt>
      <trkpt lat="43.84992" lon="5.60014">
        <ele>378.771</ele>
        <time>2020-09-02T08:38:36Z</time>
      </trkpt>
      <trkpt lat="43.85" lon="5.6001">
        <ele>379.032</ele>
        <time>2020-09-02T08:38:37Z</time>
      </trkpt>
      <trkpt lat="43.85009" lon="5.60006">
        <ele>379.17</ele>
        <time>2020-09-02T08:38:38Z</time>
      </trkpt>
      <trkpt lat="43.85018" lon="5.60002">
        <ele>379.866</ele>
        <time>2020-09-02T08:38:39Z</time>
      </trkpt>
      <trkpt lat="43.85027" lon="5.59999">
        <ele>380.349</ele>
        <time>2020-09-02T08:38:40Z</time>
      </trkpt>
      <trkpt lat="43.85035" lon="5.59996">
        <ele>380.543</ele>
        <time>2020-09-02T08:38:41Z</time>
      </trkpt>
      <trkpt lat="43.85042" lon="5.59995">
        <ele>380.564</ele>
        <time>2020-09-02T08:38:42Z</time>
      </trkpt>
      <trkpt lat="43.85049" lon="5.59994">
        <ele>380.71</ele>
        <time>2020-09-02T08:38:43Z</time>
      </trkpt>
      <trkpt lat="43.85057" lon="5.59995">
        <ele>380.608</ele>
        <time>2020-09-02T08:38:44Z</time>
      </trkpt>
      <trkpt lat="43.85064" lon="5.59995">
        <ele>380.932</ele>
        <time>2020-09-02T08:38:45Z</time>
      </trkpt>
      <trkpt lat="43.85071" lon="5.59995">
        <ele>380.731</ele>
        <time>2020-09-02T08:38:46Z</time>
      </trkpt>
      <trkpt lat="43.85078" lon="5.59995">
        <ele>380.551</ele>
        <time>2020-09-02T08:38:47Z</time>
      </trkpt>
      <trkpt lat="43.85086" lon="5.59994">
        <ele>380.498</ele>
        <time>2020-09-02T08:38:48Z</time>
      </trkpt>
      <trkpt lat="43.85094" lon="5.59993">
        <ele>379.839</ele>
        <time>2020-09-02T08:38:49Z</time>
      </trkpt>
      <trkpt lat="43.85104" lon="5.59991">
        <ele>379.567</ele>
        <time>2020-09-02T08:38:50Z</time>
      </trkpt>
      <trkpt lat="43.85114" lon="5.5999">
        <ele>379.543</ele>
        <time>2020-09-02T08:38:51Z</time>
      </trkpt>
      <trkpt lat="43.85124" lon="5.59989">
        <ele>379.676</ele>
        <time>2020-09-02T08:38:52Z</time>
      </trkpt>
      <trkpt lat="43.85134" lon="5.59988">
        <ele>380.061</ele>
        <time>2020-09-02T08:38:53Z</time>
      </trkpt>
      <trkpt lat="43.85145" lon="5.59985">
        <ele>380.121</ele>
        <time>2020-09-02T08:38:54Z</time>
      </trkpt>
      <trkpt lat="43.85155" lon="5.59982">
        <ele>380.313</ele>
        <time>2020-09-02T08:38:55Z</time>
      </trkpt>
      <trkpt lat="43.85166" lon="5.59979">
        <ele>380.408</ele>
        <time>2020-09-02T08:38:56Z</time>
      </trkpt>
      <trkpt lat="43.85176" lon="5.59975">
        <ele>381.074</ele>
        <time>2020-09-02T08:38:57Z</time>
      </trkpt>
      <trkpt lat="43.85187" lon="5.59972">
        <ele>381.493</ele>
        <time>2020-09-02T08:38:58Z</time>
      </trkpt>
      <trkpt lat="43.85198" lon="5.59969">
        <ele>381.373</ele>
        <time>2020-09-02T08:38:59Z</time>
      </trkpt>
      <trkpt lat="43.8521" lon="5.5997">
        <ele>381.67</ele>
        <time>2020-09-02T08:39:00Z</time>
      </trkpt>
      <trkpt lat="43.85222" lon="5.59971">
        <ele>382.271</ele>
        <time>2020-09-02T08:39:01Z</time>
      </trkpt>
      <trkpt lat="43.85233" lon="5.59972">
        <ele>382.729</ele>
        <time>2020-09-02T08:39:02Z</time>
      </trkpt>
      <trkpt lat="43.85244" lon="5.5997">
        <ele>382.885</ele>
        <time>2020-09-02T08:39:03Z</time>
      </trkpt>
      <trkpt lat="43.85254" lon="5.59965">
        <ele>383.038</ele>
        <time>2020-09-02T08:39:04Z</time>
      </trkpt>
      <trkpt lat="43.85263" lon="5.59957">
        <ele>383.179</ele>
        <time>2020-09-02T08:39:05Z</time>
      </trkpt>
      <trkpt lat="43.85271" lon="5.59948">
        <ele>382.605</ele>
        <time>2020-09-02T08:39:06Z</time>
      </trkpt>
      <trkpt lat="43.85279" lon="5.59937">
        <ele>382.825</ele>
        <time>2020-09-02T08:39:07Z</time>
      </trkpt>
      <trkpt lat="43.85285" lon="5.59927">
        <ele>382.408</ele>
        <time>2020-09-02T08:39:08Z</time>
      </trkpt>
      <trkpt lat="43.85289" lon="5.5992">
        <ele>382.935</ele>
        <time>2020-09-02T08:39:09Z</time>
      </trkpt>
      <trkpt lat="43.85293" lon="5.59914">
        <ele>383.254</ele>
        <time>2020-09-02T08:39:10Z</time>
      </trkpt>
      <trkpt lat="43.85298" lon="5.59909">
        <ele>382.674</ele>
        <time>2020-09-02T08:39:11Z</time>
      </trkpt>
      <trkpt lat="43.85302" lon="5.59904">
        <ele>382.951</ele>
        <time>2020-09-02T08:39:12Z</time>
      </trkpt>
      <trkpt lat="43.85306" lon="5.59899">
        <ele>382.012</ele>
        <time>2020-09-02T08:39:13Z</time>
      </trkpt>
      <trkpt lat="43.85313" lon="5.59893">
        <ele>380.97</ele>
        <time>2020-09-02T08:39:15Z</time>
      </trkpt>
      <trkpt lat="43.85317" lon="5.59897">
        <ele>379.956</ele>
        <time>2020-09-02T08:39:17Z</time>
      </trkpt>
      <trkpt lat="43.85318" lon="5.59912">
        <ele>378.979</ele>
        <time>2020-09-02T08:39:19Z</time>
      </trkpt>
      <trkpt lat="43.85318" lon="5.59923">
        <ele>378.246</ele>
        <time>2020-09-02T08:39:20Z</time>
      </trkpt>
      <trkpt lat="43.85316" lon="5.59934">
        <ele>376.688</ele>
        <time>2020-09-02T08:39:21Z</time>
      </trkpt>
      <trkpt lat="43.85314" lon="5.59945">
        <ele>376.116</ele>
        <time>2020-09-02T08:39:22Z</time>
      </trkpt>
      <trkpt lat="43.85315" lon="5.59957">
        <ele>375.208</ele>
        <time>2020-09-02T08:39:23Z</time>
      </trkpt>
      <trkpt lat="43.85315" lon="5.59968">
        <ele>374.772</ele>
        <time>2020-09-02T08:39:24Z</time>
      </trkpt>
      <trkpt lat="43.85314" lon="5.59979">
        <ele>374.451</ele>
        <time>2020-09-02T08:39:25Z</time>
      </trkpt>
      <trkpt lat="43.85311" lon="5.5999">
        <ele>373.851</ele>
        <time>2020-09-02T08:39:26Z</time>
      </trkpt>
      <trkpt lat="43.85309" lon="5.60001">
        <ele>373.378</ele>
        <time>2020-09-02T08:39:27Z</time>
      </trkpt>
      <trkpt lat="43.85305" lon="5.60011">
        <ele>373.659</ele>
        <time>2020-09-02T08:39:28Z</time>
      </trkpt>
      <trkpt lat="43.85301" lon="5.6002">
        <ele>373.217</ele>
        <time>2020-09-02T08:39:29Z</time>
      </trkpt>
      <trkpt lat="43.853" lon="5.60028">
        <ele>373.523</ele>
        <time>2020-09-02T08:39:30Z</time>
      </trkpt>
      <trkpt lat="43.853" lon="5.60035">
        <ele>374.266</ele>
        <time>2020-09-02T08:39:31Z</time>
      </trkpt>
      <trkpt lat="43.85305" lon="5.60037">
        <ele>374.332</ele>
        <time>2020-09-02T08:39:33Z</time>
      </trkpt>
      <trkpt lat="43.8531" lon="5.60034">
        <ele>374.492</ele>
        <time>2020-09-02T08:39:34Z</time>
      </trkpt>
      <trkpt lat="43.85314" lon="5.60028">
        <ele>373.411</ele>
        <time>2020-09-02T08:39:35Z</time>
      </trkpt>
      <trkpt lat="43.85321" lon="5.60018">
        <ele>373.208</ele>
        <time>2020-09-02T08:39:36Z</time>
      </trkpt>
      <trkpt lat="43.85327" lon="5.60008">
        <ele>372.981</ele>
        <time>2020-09-02T08:39:37Z</time>
      </trkpt>
      <trkpt lat="43.85333" lon="5.59998">
        <ele>373.11</ele>
        <time>2020-09-02T08:39:38Z</time>
      </trkpt>
      <trkpt lat="43.85339" lon="5.59988">
        <ele>373.49</ele>
        <time>2020-09-02T08:39:39Z</time>
      </trkpt>
      <trkpt lat="43.85343" lon="5.59978">
        <ele>373.667</ele>
        <time>2020-09-02T08:39:40Z</time>
      </trkpt>
      <trkpt lat="43.85349" lon="5.5997">
        <ele>373.358</ele>
        <time>2020-09-02T08:39:41Z</time>
      </trkpt>
      <trkpt lat="43.85354" lon="5.59965">
        <ele>373.326</ele>
        <time>2020-09-02T08:39:42Z</time>
      </trkpt>
      <trkpt lat="43.8536" lon="5.59963">
        <ele>373.262</ele>
        <time>2020-09-02T08:39:43Z</time>
      </trkpt>
      <trkpt lat="43.85364" lon="5.59966">
        <ele>373.435</ele>
        <time>2020-09-02T08:39:44Z</time>
      </trkpt>
      <trkpt lat="43.85368" lon="5.59972">
        <ele>373.339</ele>
        <time>2020-09-02T08:39:45Z</time>
      </trkpt>
      <trkpt lat="43.85373" lon="5.59979">
        <ele>373.301</ele>
        <time>2020-09-02T08:39:46Z</time>
      </trkpt>
      <trkpt lat="43.85379" lon="5.59992">
        <ele>372.921</ele>
        <time>2020-09-02T08:39:47Z</time>
      </trkpt>
      <trkpt lat="43.85385" lon="5.60005">
        <ele>373.208</ele>
        <time>2020-09-02T08:39:48Z</time>
      </trkpt>
      <trkpt lat="43.85392" lon="5.60017">
        <ele>373.251</ele>
        <time>2020-09-02T08:39:49Z</time>
      </trkpt>
      <trkpt lat="43.85399" lon="5.60028">
        <ele>373.17</ele>
        <time>2020-09-02T08:39:50Z</time>
      </trkpt>
      <trkpt lat="43.85407" lon="5.60041">
        <ele>373.41</ele>
        <time>2020-09-02T08:39:51Z</time>
      </trkpt>
      <trkpt lat="43.85414" lon="5.60054">
        <ele>374.337</ele>
        <time>2020-09-02T08:39:52Z</time>
      </trkpt>
      <trkpt lat="43.85421" lon="5.60066">
        <ele>374.748</ele>
        <time>2020-09-02T08:39:53Z</time>
      </trkpt>
      <trkpt lat="43.85429" lon="5.60076">
        <ele>375.656</ele>
        <time>2020-09-02T08:39:54Z</time>
      </trkpt>
      <trkpt lat="43.85436" lon="5.60086">
        <ele>376.342</ele>
        <time>2020-09-02T08:39:55Z</time>
      </trkpt>
      <trkpt lat="43.85443" lon="5.60094">
        <ele>377.665</ele>
        <time>2020-09-02T08:39:56Z</time>
      </trkpt>
      <trkpt lat="43.85451" lon="5.601">
        <ele>378.256</ele>
        <time>2020-09-02T08:39:57Z</time>
      </trkpt>
      <trkpt lat="43.85458" lon="5.60108">
        <ele>379.159</ele>
        <time>2020-09-02T08:39:58Z</time>
      </trkpt>
      <trkpt lat="43.85465" lon="5.60115">
        <ele>380.214</ele>
        <time>2020-09-02T08:39:59Z</time>
      </trkpt>
      <trkpt lat="43.85473" lon="5.60122">
        <ele>380.608</ele>
        <time>2020-09-02T08:40:00Z</time>
      </trkpt>
      <trkpt lat="43.85481" lon="5.6013">
        <ele>381.483</ele>
        <time>2020-09-02T08:40:01Z</time>
      </trkpt>
      <trkpt lat="43.8549" lon="5.60138">
        <ele>382.632</ele>
        <time>2020-09-02T08:40:02Z</time>
      </trkpt>
      <trkpt lat="43.85499" lon="5.60145">
        <ele>383.732</ele>
        <time>2020-09-02T08:40:03Z</time>
      </trkpt>
      <trkpt lat="43.85507" lon="5.60152">
        <ele>384.249</ele>
        <time>2020-09-02T08:40:04Z</time>
      </trkpt>
      <trkpt lat="43.85515" lon="5.60159">
        <ele>384.34</ele>
        <time>2020-09-02T08:40:05Z</time>
      </trkpt>
      <trkpt lat="43.85524" lon="5.60166">
        <ele>384.358</ele>
        <time>2020-09-02T08:40:06Z</time>
      </trkpt>
      <trkpt lat="43.85531" lon="5.60173">
        <ele>384.054</ele>
        <time>2020-09-02T08:40:07Z</time>
      </trkpt>
      <trkpt lat="43.85539" lon="5.6018">
        <ele>383.687</ele>
        <time>2020-09-02T08:40:08Z</time>
      </trkpt>
      <trkpt lat="43.85545" lon="5.60186">
        <ele>383.449</ele>
        <time>2020-09-02T08:40:09Z</time>
      </trkpt>
      <trkpt lat="43.85552" lon="5.60192">
        <ele>382.802</ele>
        <time>2020-09-02T08:40:10Z</time>
      </trkpt>
      <trkpt lat="43.85558" lon="5.60197">
        <ele>382.622</ele>
        <time>2020-09-02T08:40:11Z</time>
      </trkpt>
      <trkpt lat="43.85565" lon="5.60205">
        <ele>381.608</ele>
        <time>2020-09-02T08:40:12Z</time>
      </trkpt>
      <trkpt lat="43.85572" lon="5.60213">
        <ele>381.422</ele>
        <time>2020-09-02T08:40:13Z</time>
      </trkpt>
      <trkpt lat="43.8558" lon="5.60222">
        <ele>380.551</ele>
        <time>2020-09-02T08:40:14Z</time>
      </trkpt>
      <trkpt lat="43.85587" lon="5.60228">
        <ele>380.221</ele>
        <time>2020-09-02T08:40:15Z</time>
      </trkpt>
      <trkpt lat="43.85594" lon="5.60233">
        <ele>379.898</ele>
        <time>2020-09-02T08:40:16Z</time>
      </trkpt>
      <trkpt lat="43.85601" lon="5.60239">
        <ele>379.379</ele>
        <time>2020-09-02T08:40:17Z</time>
      </trkpt>
      <trkpt lat="43.85607" lon="5.60244">
        <ele>378.537</ele>
        <time>2020-09-02T08:40:18Z</time>
      </trkpt>
      <trkpt lat="43.85614" lon="5.6025">
        <ele>377.973</ele>
        <time>2020-09-02T08:40:19Z</time>
      </trkpt>
      <trkpt lat="43.85623" lon="5.60257">
        <ele>377.286</ele>
        <time>2020-09-02T08:40:20Z</time>
      </trkpt>
      <trkpt lat="43.85631" lon="5.60264">
        <ele>376.739</ele>
        <time>2020-09-02T08:40:21Z</time>
      </trkpt>
      <trkpt lat="43.8564" lon="5.6027">
        <ele>376.401</ele>
        <time>2020-09-02T08:40:22Z</time>
      </trkpt>
      <trkpt lat="43.85648" lon="5.60276">
        <ele>376.021</ele>
        <time>2020-09-02T08:40:23Z</time>
      </trkpt>
      <trkpt lat="43.85657" lon="5.60281">
        <ele>375.208</ele>
        <time>2020-09-02T08:40:24Z</time>
      </trkpt>
      <trkpt lat="43.85665" lon="5.60286">
        <ele>375.091</ele>
        <time>2020-09-02T08:40:25Z</time>
      </trkpt>
      <trkpt lat="43.85673" lon="5.60291">
        <ele>374.59</ele>
        <time>2020-09-02T08:40:26Z</time>
      </trkpt>
      <trkpt lat="43.8568" lon="5.60296">
        <ele>374.29</ele>
        <time>2020-09-02T08:40:27Z</time>
      </trkpt>
      <trkpt lat="43.85687" lon="5.603">
        <ele>373.717</ele>
        <time>2020-09-02T08:40:28Z</time>
      </trkpt>
      <trkpt lat="43.85693" lon="5.60304">
        <ele>373.378</ele>
        <time>2020-09-02T08:40:29Z</time>
      </trkpt>
      <trkpt lat="43.85698" lon="5.60307">
        <ele>373.246</ele>
        <time>2020-09-02T08:40:30Z</time>
      </trkpt>
      <trkpt lat="43.85706" lon="5.60311">
        <ele>372.792</ele>
        <time>2020-09-02T08:40:32Z</time>
      </trkpt>
      <trkpt lat="43.85711" lon="5.60312">
        <ele>372.435</ele>
        <time>2020-09-02T08:40:35Z</time>
      </trkpt>
      <trkpt lat="43.85717" lon="5.60307">
        <ele>371.932</ele>
        <time>2020-09-02T08:40:41Z</time>
      </trkpt>
      <trkpt lat="43.85727" lon="5.60305">
        <ele>371.292</ele>
        <time>2020-09-02T08:40:43Z</time>
      </trkpt>
      <trkpt lat="43.85735" lon="5.60306">
        <ele>370.911</ele>
        <time>2020-09-02T08:40:44Z</time>
      </trkpt>
      <trkpt lat="43.85743" lon="5.60307">
        <ele>370.408</ele>
        <time>2020-09-02T08:40:45Z</time>
      </trkpt>
      <trkpt lat="43.85752" lon="5.60307">
        <ele>370.361</ele>
        <time>2020-09-02T08:40:46Z</time>
      </trkpt>
      <trkpt lat="43.85761" lon="5.60308">
        <ele>369.63</ele>
        <time>2020-09-02T08:40:47Z</time>
      </trkpt>
      <trkpt lat="43.85772" lon="5.60308">
        <ele>368.84</ele>
        <time>2020-09-02T08:40:48Z</time>
      </trkpt>
      <trkpt lat="43.85782" lon="5.60309">
        <ele>368.477</ele>
        <time>2020-09-02T08:40:49Z</time>
      </trkpt>
      <trkpt lat="43.85791" lon="5.6031">
        <ele>368.428</ele>
        <time>2020-09-02T08:40:50Z</time>
      </trkpt>
      <trkpt lat="43.85801" lon="5.60311">
        <ele>368.836</ele>
        <time>2020-09-02T08:40:51Z</time>
      </trkpt>
      <trkpt lat="43.85812" lon="5.60313">
        <ele>369.122</ele>
        <time>2020-09-02T08:40:52Z</time>
      </trkpt>
      <trkpt lat="43.85824" lon="5.60314">
        <ele>369.075</ele>
        <time>2020-09-02T08:40:53Z</time>
      </trkpt>
      <trkpt lat="43.85835" lon="5.60314">
        <ele>369.633</ele>
        <time>2020-09-02T08:40:54Z</time>
      </trkpt>
      <trkpt lat="43.85845" lon="5.60315">
        <ele>369.823</ele>
        <time>2020-09-02T08:40:55Z</time>
      </trkpt>
      <trkpt lat="43.85855" lon="5.60315">
        <ele>370.215</ele>
        <time>2020-09-02T08:40:56Z</time>
      </trkpt>
      <trkpt lat="43.85863" lon="5.60316">
        <ele>370.208</ele>
        <time>2020-09-02T08:40:57Z</time>
      </trkpt>
      <trkpt lat="43.85871" lon="5.60317">
        <ele>370.011</ele>
        <time>2020-09-02T08:40:58Z</time>
      </trkpt>
      <trkpt lat="43.85879" lon="5.60318">
        <ele>369.73</ele>
        <time>2020-09-02T08:40:59Z</time>
      </trkpt>
      <trkpt lat="43.85886" lon="5.60318">
        <ele>370.24</ele>
        <time>2020-09-02T08:41:00Z</time>
      </trkpt>
      <trkpt lat="43.85891" lon="5.60318">
        <ele>370.517</ele>
        <time>2020-09-02T08:41:01Z</time>
      </trkpt>
      <trkpt lat="43.859" lon="5.60324">
        <ele>369.438</ele>
        <time>2020-09-02T08:41:03Z</time>
      </trkpt>
      <trkpt lat="43.85904" lon="5.6033">
        <ele>369.556</ele>
        <time>2020-09-02T08:41:04Z</time>
      </trkpt>
      <trkpt lat="43.85907" lon="5.60339">
        <ele>369.532</ele>
        <time>2020-09-02T08:41:05Z</time>
      </trkpt>
      <trkpt lat="43.85911" lon="5.6035">
        <ele>369.725</ele>
        <time>2020-09-02T08:41:06Z</time>
      </trkpt>
      <trkpt lat="43.85915" lon="5.60362">
        <ele>369.789</ele>
        <time>2020-09-02T08:41:07Z</time>
      </trkpt>
      <trkpt lat="43.8592" lon="5.60374">
        <ele>369.606</ele>
        <time>2020-09-02T08:41:08Z</time>
      </trkpt>
      <trkpt lat="43.85925" lon="5.60386">
        <ele>369.826</ele>
        <time>2020-09-02T08:41:09Z</time>
      </trkpt>
      <trkpt lat="43.85932" lon="5.60397">
        <ele>370.408</ele>
        <time>2020-09-02T08:41:10Z</time>
      </trkpt>
      <trkpt lat="43.85939" lon="5.60406">
        <ele>370.516</ele>
        <time>2020-09-02T08:41:11Z</time>
      </trkpt>
      <trkpt lat="43.85946" lon="5.60414">
        <ele>370.545</ele>
        <time>2020-09-02T08:41:12Z</time>
      </trkpt>
      <trkpt lat="43.85954" lon="5.60421">
        <ele>371.695</ele>
        <time>2020-09-02T08:41:13Z</time>
      </trkpt>
      <trkpt lat="43.85964" lon="5.60427">
        <ele>372.452</ele>
        <time>2020-09-02T08:41:14Z</time>
      </trkpt>
      <trkpt lat="43.85973" lon="5.60431">
        <ele>372.973</ele>
        <time>2020-09-02T08:41:15Z</time>
      </trkpt>
      <trkpt lat="43.85981" lon="5.60432">
        <ele>372.851</ele>
        <time>2020-09-02T08:41:16Z</time>
      </trkpt>
      <trkpt lat="43.85988" lon="5.60432">
        <ele>372.527</ele>
        <time>2020-09-02T08:41:17Z</time>
      </trkpt>
      <trkpt lat="43.85994" lon="5.60433">
        <ele>372.23</ele>
        <time>2020-09-02T08:41:18Z</time>
      </trkpt>
      <trkpt lat="43.86001" lon="5.60433">
        <ele>372.138</ele>
        <time>2020-09-02T08:41:19Z</time>
      </trkpt>
      <trkpt lat="43.86009" lon="5.60434">
        <ele>372.47</ele>
        <time>2020-09-02T08:41:20Z</time>
      </trkpt>
      <trkpt lat="43.86018" lon="5.60434">
        <ele>372.517</ele>
        <time>2020-09-02T08:41:21Z</time>
      </trkpt>
      <trkpt lat="43.86028" lon="5.60434">
        <ele>373.008</ele>
        <time>2020-09-02T08:41:22Z</time>
      </trkpt>
      <trkpt lat="43.86039" lon="5.60435">
        <ele>373.371</ele>
        <time>2020-09-02T08:41:23Z</time>
      </trkpt>
      <trkpt lat="43.86049" lon="5.60439">
        <ele>373.89</ele>
        <time>2020-09-02T08:41:24Z</time>
      </trkpt>
      <trkpt lat="43.8606" lon="5.60446">
        <ele>374.33</ele>
        <time>2020-09-02T08:41:25Z</time>
      </trkpt>
      <trkpt lat="43.86071" lon="5.60452">
        <ele>375.117</ele>
        <time>2020-09-02T08:41:26Z</time>
      </trkpt>
      <trkpt lat="43.86083" lon="5.60455">
        <ele>375.678</ele>
        <time>2020-09-02T08:41:27Z</time>
      </trkpt>
      <trkpt lat="43.86094" lon="5.60456">
        <ele>376.536</ele>
        <time>2020-09-02T08:41:28Z</time>
      </trkpt>
      <trkpt lat="43.86106" lon="5.60456">
        <ele>376.812</ele>
        <time>2020-09-02T08:41:29Z</time>
      </trkpt>
      <trkpt lat="43.86119" lon="5.60457">
        <ele>377.625</ele>
        <time>2020-09-02T08:41:30Z</time>
      </trkpt>
      <trkpt lat="43.8613" lon="5.6046">
        <ele>378.477</ele>
        <time>2020-09-02T08:41:31Z</time>
      </trkpt>
      <trkpt lat="43.86143" lon="5.60464">
        <ele>379.061</ele>
        <time>2020-09-02T08:41:32Z</time>
      </trkpt>
      <trkpt lat="43.86154" lon="5.60467">
        <ele>380.327</ele>
        <time>2020-09-02T08:41:33Z</time>
      </trkpt>
      <trkpt lat="43.86167" lon="5.60471">
        <ele>381.508</ele>
        <time>2020-09-02T08:41:34Z</time>
      </trkpt>
      <trkpt lat="43.86179" lon="5.60474">
        <ele>382.015</ele>
        <time>2020-09-02T08:41:35Z</time>
      </trkpt>
      <trkpt lat="43.86193" lon="5.60478">
        <ele>383.014</ele>
        <time>2020-09-02T08:41:36Z</time>
      </trkpt>
      <trkpt lat="43.86207" lon="5.60481">
        <ele>383.764</ele>
        <time>2020-09-02T08:41:37Z</time>
      </trkpt>
      <trkpt lat="43.8622" lon="5.60486">
        <ele>384.411</ele>
        <time>2020-09-02T08:41:38Z</time>
      </trkpt>
      <trkpt lat="43.86233" lon="5.60491">
        <ele>385.282</ele>
        <time>2020-09-02T08:41:39Z</time>
      </trkpt>
      <trkpt lat="43.86245" lon="5.60495">
        <ele>385.66</ele>
        <time>2020-09-02T08:41:40Z</time>
      </trkpt>
      <trkpt lat="43.86256" lon="5.60497">
        <ele>386.576</ele>
        <time>2020-09-02T08:41:41Z</time>
      </trkpt>
      <trkpt lat="43.86267" lon="5.60496">
        <ele>387.169</ele>
        <time>2020-09-02T08:41:42Z</time>
      </trkpt>
      <trkpt lat="43.86278" lon="5.60497">
        <ele>387.524</ele>
        <time>2020-09-02T08:41:43Z</time>
      </trkpt>
      <trkpt lat="43.86289" lon="5.60498">
        <ele>387.804</ele>
        <time>2020-09-02T08:41:44Z</time>
      </trkpt>
      <trkpt lat="43.86299" lon="5.60502">
        <ele>388.314</ele>
        <time>2020-09-02T08:41:45Z</time>
      </trkpt>
      <trkpt lat="43.86309" lon="5.60507">
        <ele>388.708</ele>
        <time>2020-09-02T08:41:46Z</time>
      </trkpt>
      <trkpt lat="43.86319" lon="5.60518">
        <ele>390.89</ele>
        <time>2020-09-02T08:41:47Z</time>
      </trkpt>
      <trkpt lat="43.86331" lon="5.60526">
        <ele>391.179</ele>
        <time>2020-09-02T08:41:48Z</time>
      </trkpt>
      <trkpt lat="43.86342" lon="5.60533">
        <ele>392.089</ele>
        <time>2020-09-02T08:41:49Z</time>
      </trkpt>
      <trkpt lat="43.86353" lon="5.60536">
        <ele>393.126</ele>
        <time>2020-09-02T08:41:50Z</time>
      </trkpt>
      <trkpt lat="43.86361" lon="5.60539">
        <ele>393.337</ele>
        <time>2020-09-02T08:41:51Z</time>
      </trkpt>
      <trkpt lat="43.86367" lon="5.60542">
        <ele>393.055</ele>
        <time>2020-09-02T08:41:52Z</time>
      </trkpt>
      <trkpt lat="43.86373" lon="5.60547">
        <ele>393.331</ele>
        <time>2020-09-02T08:41:53Z</time>
      </trkpt>
      <trkpt lat="43.86378" lon="5.60551">
        <ele>394.024</ele>
        <time>2020-09-02T08:41:54Z</time>
      </trkpt>
      <trkpt lat="43.86384" lon="5.60556">
        <ele>394.715</ele>
        <time>2020-09-02T08:41:55Z</time>
      </trkpt>
      <trkpt lat="43.8639" lon="5.60559">
        <ele>395.065</ele>
        <time>2020-09-02T08:41:56Z</time>
      </trkpt>
      <trkpt lat="43.86396" lon="5.60563">
        <ele>395.611</ele>
        <time>2020-09-02T08:41:57Z</time>
      </trkpt>
      <trkpt lat="43.86404" lon="5.60568">
        <ele>396.008</ele>
        <time>2020-09-02T08:41:58Z</time>
      </trkpt>
      <trkpt lat="43.86411" lon="5.60572">
        <ele>396.619</ele>
        <time>2020-09-02T08:41:59Z</time>
      </trkpt>
      <trkpt lat="43.86418" lon="5.60576">
        <ele>396.938</ele>
        <time>2020-09-02T08:42:00Z</time>
      </trkpt>
      <trkpt lat="43.86424" lon="5.6058">
        <ele>397.428</ele>
        <time>2020-09-02T08:42:01Z</time>
      </trkpt>
      <trkpt lat="43.86429" lon="5.60584">
        <ele>397.445</ele>
        <time>2020-09-02T08:42:02Z</time>
      </trkpt>
      <trkpt lat="43.86436" lon="5.60591">
        <ele>397.516</ele>
        <time>2020-09-02T08:42:04Z</time>
      </trkpt>
      <trkpt lat="43.86438" lon="5.60599">
        <ele>397.224</ele>
        <time>2020-09-02T08:42:05Z</time>
      </trkpt>
      <trkpt lat="43.86441" lon="5.60607">
        <ele>398.03</ele>
        <time>2020-09-02T08:42:06Z</time>
      </trkpt>
      <trkpt lat="43.86445" lon="5.60614">
        <ele>398.683</ele>
        <time>2020-09-02T08:42:07Z</time>
      </trkpt>
      <trkpt lat="43.86449" lon="5.60621">
        <ele>398.841</ele>
        <time>2020-09-02T08:42:08Z</time>
      </trkpt>
      <trkpt lat="43.86454" lon="5.60627">
        <ele>398.981</ele>
        <time>2020-09-02T08:42:09Z</time>
      </trkpt>
      <trkpt lat="43.86458" lon="5.60633">
        <ele>399.209</ele>
        <time>2020-09-02T08:42:10Z</time>
      </trkpt>
      <trkpt lat="43.86462" lon="5.60637">
        <ele>399.608</ele>
        <time>2020-09-02T08:42:11Z</time>
      </trkpt>
      <trkpt lat="43.86467" lon="5.60641">
        <ele>399.932</ele>
        <time>2020-09-02T08:42:12Z</time>
      </trkpt>
      <trkpt lat="43.86474" lon="5.60645">
        <ele>400.441</ele>
        <time>2020-09-02T08:42:13Z</time>
      </trkpt>
      <trkpt lat="43.86479" lon="5.60648">
        <ele>400.611</ele>
        <time>2020-09-02T08:42:14Z</time>
      </trkpt>
      <trkpt lat="43.86484" lon="5.60652">
        <ele>401.438</ele>
        <time>2020-09-02T08:42:15Z</time>
      </trkpt>
      <trkpt lat="43.8649" lon="5.60658">
        <ele>402.069</ele>
        <time>2020-09-02T08:42:17Z</time>
      </trkpt>
      <trkpt lat="43.86494" lon="5.60661">
        <ele>402.157</ele>
        <time>2020-09-02T08:42:18Z</time>
      </trkpt>
      <trkpt lat="43.86501" lon="5.60666">
        <ele>402.913</ele>
        <time>2020-09-02T08:42:19Z</time>
      </trkpt>
      <trkpt lat="43.86506" lon="5.60672">
        <ele>403.996</ele>
        <time>2020-09-02T08:42:20Z</time>
      </trkpt>
      <trkpt lat="43.86512" lon="5.60676">
        <ele>403.516</ele>
        <time>2020-09-02T08:42:21Z</time>
      </trkpt>
      <trkpt lat="43.86518" lon="5.60678">
        <ele>404.676</ele>
        <time>2020-09-02T08:42:22Z</time>
      </trkpt>
      <trkpt lat="43.86523" lon="5.60682">
        <ele>404.813</ele>
        <time>2020-09-02T08:42:23Z</time>
      </trkpt>
      <trkpt lat="43.86529" lon="5.60687">
        <ele>405.008</ele>
        <time>2020-09-02T08:42:24Z</time>
      </trkpt>
      <trkpt lat="43.86532" lon="5.60691">
        <ele>405.479</ele>
        <time>2020-09-02T08:42:25Z</time>
      </trkpt>
      <trkpt lat="43.86537" lon="5.60695">
        <ele>406.018</ele>
        <time>2020-09-02T08:42:26Z</time>
      </trkpt>
      <trkpt lat="43.86543" lon="5.607">
        <ele>406.448</ele>
        <time>2020-09-02T08:42:27Z</time>
      </trkpt>
      <trkpt lat="43.86547" lon="5.60703">
        <ele>406.975</ele>
        <time>2020-09-02T08:42:28Z</time>
      </trkpt>
      <trkpt lat="43.86552" lon="5.60708">
        <ele>406.846</ele>
        <time>2020-09-02T08:42:29Z</time>
      </trkpt>
      <trkpt lat="43.86557" lon="5.60712">
        <ele>407.344</ele>
        <time>2020-09-02T08:42:30Z</time>
      </trkpt>
      <trkpt lat="43.86562" lon="5.60714">
        <ele>407.19</ele>
        <time>2020-09-02T08:42:31Z</time>
      </trkpt>
      <trkpt lat="43.86567" lon="5.60716">
        <ele>408.453</ele>
        <time>2020-09-02T08:42:32Z</time>
      </trkpt>
      <trkpt lat="43.86571" lon="5.6072">
        <ele>409.374</ele>
        <time>2020-09-02T08:42:33Z</time>
      </trkpt>
      <trkpt lat="43.86576" lon="5.60724">
        <ele>410.256</ele>
        <time>2020-09-02T08:42:34Z</time>
      </trkpt>
      <trkpt lat="43.86582" lon="5.60729">
        <ele>410.121</ele>
        <time>2020-09-02T08:42:35Z</time>
      </trkpt>
      <trkpt lat="43.86587" lon="5.60735">
        <ele>410.808</ele>
        <time>2020-09-02T08:42:36Z</time>
      </trkpt>
      <trkpt lat="43.86591" lon="5.60738">
        <ele>411.465</ele>
        <time>2020-09-02T08:42:37Z</time>
      </trkpt>
      <trkpt lat="43.86595" lon="5.60742">
        <ele>412.274</ele>
        <time>2020-09-02T08:42:38Z</time>
      </trkpt>
      <trkpt lat="43.866" lon="5.60745">
        <ele>412.664</ele>
        <time>2020-09-02T08:42:39Z</time>
      </trkpt>
      <trkpt lat="43.86605" lon="5.60748">
        <ele>413.821</ele>
        <time>2020-09-02T08:42:40Z</time>
      </trkpt>
      <trkpt lat="43.8661" lon="5.6075">
        <ele>413.512</ele>
        <time>2020-09-02T08:42:41Z</time>
      </trkpt>
      <trkpt lat="43.86615" lon="5.60751">
        <ele>414.36</ele>
        <time>2020-09-02T08:42:42Z</time>
      </trkpt>
      <trkpt lat="43.86621" lon="5.60752">
        <ele>415.016</ele>
        <time>2020-09-02T08:42:43Z</time>
      </trkpt>
      <trkpt lat="43.86626" lon="5.60751">
        <ele>415.319</ele>
        <time>2020-09-02T08:42:44Z</time>
      </trkpt>
      <trkpt lat="43.8663" lon="5.60749">
        <ele>416.121</ele>
        <time>2020-09-02T08:42:45Z</time>
      </trkpt>
      <trkpt lat="43.86635" lon="5.60749">
        <ele>416.041</ele>
        <time>2020-09-02T08:42:46Z</time>
      </trkpt>
      <trkpt lat="43.8664" lon="5.60748">
        <ele>416.805</ele>
        <time>2020-09-02T08:42:47Z</time>
      </trkpt>
      <trkpt lat="43.86644" lon="5.60747">
        <ele>416.508</ele>
        <time>2020-09-02T08:42:48Z</time>
      </trkpt>
      <trkpt lat="43.86653" lon="5.60745">
        <ele>417.58</ele>
        <time>2020-09-02T08:42:50Z</time>
      </trkpt>
      <trkpt lat="43.86659" lon="5.60746">
        <ele>418.099</ele>
        <time>2020-09-02T08:42:51Z</time>
      </trkpt>
      <trkpt lat="43.86665" lon="5.60746">
        <ele>418.669</ele>
        <time>2020-09-02T08:42:52Z</time>
      </trkpt>
      <trkpt lat="43.86671" lon="5.60745">
        <ele>419.026</ele>
        <time>2020-09-02T08:42:53Z</time>
      </trkpt>
      <trkpt lat="43.86678" lon="5.60743">
        <ele>419.257</ele>
        <time>2020-09-02T08:42:54Z</time>
      </trkpt>
      <trkpt lat="43.86686" lon="5.60742">
        <ele>419.345</ele>
        <time>2020-09-02T08:42:55Z</time>
      </trkpt>
      <trkpt lat="43.86695" lon="5.6074">
        <ele>419.441</ele>
        <time>2020-09-02T08:42:56Z</time>
      </trkpt>
      <trkpt lat="43.86704" lon="5.60739">
        <ele>419.624</ele>
        <time>2020-09-02T08:42:57Z</time>
      </trkpt>
      <trkpt lat="43.86713" lon="5.60737">
        <ele>420.224</ele>
        <time>2020-09-02T08:42:58Z</time>
      </trkpt>
      <trkpt lat="43.8672" lon="5.60735">
        <ele>420.304</ele>
        <time>2020-09-02T08:42:59Z</time>
      </trkpt>
      <trkpt lat="43.86728" lon="5.60734">
        <ele>420.114</ele>
        <time>2020-09-02T08:43:00Z</time>
      </trkpt>
      <trkpt lat="43.86735" lon="5.60733">
        <ele>420.208</ele>
        <time>2020-09-02T08:43:01Z</time>
      </trkpt>
      <trkpt lat="43.86742" lon="5.60731">
        <ele>420.22</ele>
        <time>2020-09-02T08:43:02Z</time>
      </trkpt>
      <trkpt lat="43.8675" lon="5.60728">
        <ele>421.149</ele>
        <time>2020-09-02T08:43:03Z</time>
      </trkpt>
      <trkpt lat="43.86757" lon="5.60725">
        <ele>421.369</ele>
        <time>2020-09-02T08:43:04Z</time>
      </trkpt>
      <trkpt lat="43.86764" lon="5.6072">
        <ele>421.736</ele>
        <time>2020-09-02T08:43:05Z</time>
      </trkpt>
      <trkpt lat="43.86773" lon="5.60716">
        <ele>421.947</ele>
        <time>2020-09-02T08:43:06Z</time>
      </trkpt>
      <trkpt lat="43.86781" lon="5.60712">
        <ele>422.785</ele>
        <time>2020-09-02T08:43:07Z</time>
      </trkpt>
      <trkpt lat="43.86788" lon="5.60709">
        <ele>423.171</ele>
        <time>2020-09-02T08:43:08Z</time>
      </trkpt>
      <trkpt lat="43.86794" lon="5.60705">
        <ele>423.164</ele>
        <time>2020-09-02T08:43:09Z</time>
      </trkpt>
      <trkpt lat="43.868" lon="5.60702">
        <ele>423.364</ele>
        <time>2020-09-02T08:43:10Z</time>
      </trkpt>
      <trkpt lat="43.86806" lon="5.60696">
        <ele>423.506</ele>
        <time>2020-09-02T08:43:12Z</time>
      </trkpt>
      <trkpt lat="43.86813" lon="5.60696">
        <ele>423.516</ele>
        <time>2020-09-02T08:43:14Z</time>
      </trkpt>
      <trkpt lat="43.8682" lon="5.60701">
        <ele>423.708</ele>
        <time>2020-09-02T08:43:16Z</time>
      </trkpt>
      <trkpt lat="43.86826" lon="5.60702">
        <ele>423.954</ele>
        <time>2020-09-02T08:43:17Z</time>
      </trkpt>
      <trkpt lat="43.86834" lon="5.60703">
        <ele>424.223</ele>
        <time>2020-09-02T08:43:18Z</time>
      </trkpt>
      <trkpt lat="43.86843" lon="5.60703">
        <ele>424.663</ele>
        <time>2020-09-02T08:43:19Z</time>
      </trkpt>
      <trkpt lat="43.86852" lon="5.60703">
        <ele>425.13</ele>
        <time>2020-09-02T08:43:20Z</time>
      </trkpt>
      <trkpt lat="43.86862" lon="5.60701">
        <ele>426.361</ele>
        <time>2020-09-02T08:43:21Z</time>
      </trkpt>
      <trkpt lat="43.86872" lon="5.60701">
        <ele>427.139</ele>
        <time>2020-09-02T08:43:22Z</time>
      </trkpt>
      <trkpt lat="43.86883" lon="5.607">
        <ele>428.045</ele>
        <time>2020-09-02T08:43:23Z</time>
      </trkpt>
      <trkpt lat="43.86891" lon="5.607">
        <ele>428.948</ele>
        <time>2020-09-02T08:43:24Z</time>
      </trkpt>
      <trkpt lat="43.869" lon="5.607">
        <ele>429.459</ele>
        <time>2020-09-02T08:43:25Z</time>
      </trkpt>
      <trkpt lat="43.86909" lon="5.60702">
        <ele>429.703</ele>
        <time>2020-09-02T08:43:26Z</time>
      </trkpt>
      <trkpt lat="43.86917" lon="5.60708">
        <ele>431.423</ele>
        <time>2020-09-02T08:43:27Z</time>
      </trkpt>
      <trkpt lat="43.86924" lon="5.60712">
        <ele>431.708</ele>
        <time>2020-09-02T08:43:28Z</time>
      </trkpt>
      <trkpt lat="43.86932" lon="5.60715">
        <ele>433.353</ele>
        <time>2020-09-02T08:43:29Z</time>
      </trkpt>
      <trkpt lat="43.86939" lon="5.6072">
        <ele>433.922</ele>
        <time>2020-09-02T08:43:30Z</time>
      </trkpt>
      <trkpt lat="43.86945" lon="5.60722">
        <ele>434.362</ele>
        <time>2020-09-02T08:43:31Z</time>
      </trkpt>
      <trkpt lat="43.8695" lon="5.60725">
        <ele>435.269</ele>
        <time>2020-09-02T08:43:32Z</time>
      </trkpt>
      <trkpt lat="43.86957" lon="5.60727">
        <ele>436.06</ele>
        <time>2020-09-02T08:43:33Z</time>
      </trkpt>
      <trkpt lat="43.86965" lon="5.6073">
        <ele>436.738</ele>
        <time>2020-09-02T08:43:34Z</time>
      </trkpt>
      <trkpt lat="43.86973" lon="5.60731">
        <ele>437.584</ele>
        <time>2020-09-02T08:43:35Z</time>
      </trkpt>
      <trkpt lat="43.86983" lon="5.60732">
        <ele>438.537</ele>
        <time>2020-09-02T08:43:36Z</time>
      </trkpt>
      <trkpt lat="43.86992" lon="5.60732">
        <ele>439.682</ele>
        <time>2020-09-02T08:43:37Z</time>
      </trkpt>
      <trkpt lat="43.87003" lon="5.60732">
        <ele>440.843</ele>
        <time>2020-09-02T08:43:38Z</time>
      </trkpt>
      <trkpt lat="43.87013" lon="5.60733">
        <ele>442.117</ele>
        <time>2020-09-02T08:43:39Z</time>
      </trkpt>
      <trkpt lat="43.87022" lon="5.60736">
        <ele>443.108</ele>
        <time>2020-09-02T08:43:40Z</time>
      </trkpt>
      <trkpt lat="43.87031" lon="5.6074">
        <ele>444.326</ele>
        <time>2020-09-02T08:43:41Z</time>
      </trkpt>
      <trkpt lat="43.87038" lon="5.60747">
        <ele>445.445</ele>
        <time>2020-09-02T08:43:42Z</time>
      </trkpt>
      <trkpt lat="43.87044" lon="5.60756">
        <ele>446.545</ele>
        <time>2020-09-02T08:43:43Z</time>
      </trkpt>
      <trkpt lat="43.8705" lon="5.60767">
        <ele>447.662</ele>
        <time>2020-09-02T08:43:44Z</time>
      </trkpt>
      <trkpt lat="43.87056" lon="5.6078">
        <ele>448.793</ele>
        <time>2020-09-02T08:43:45Z</time>
      </trkpt>
      <trkpt lat="43.87062" lon="5.60794">
        <ele>449.621</ele>
        <time>2020-09-02T08:43:46Z</time>
      </trkpt>
      <trkpt lat="43.87066" lon="5.60808">
        <ele>450.247</ele>
        <time>2020-09-02T08:43:47Z</time>
      </trkpt>
      <trkpt lat="43.8707" lon="5.60824">
        <ele>451.34</ele>
        <time>2020-09-02T08:43:48Z</time>
      </trkpt>
      <trkpt lat="43.87072" lon="5.60837">
        <ele>452.359</ele>
        <time>2020-09-02T08:43:49Z</time>
      </trkpt>
      <trkpt lat="43.87073" lon="5.60849">
        <ele>453.103</ele>
        <time>2020-09-02T08:43:50Z</time>
      </trkpt>
      <trkpt lat="43.87073" lon="5.60862">
        <ele>452.923</ele>
        <time>2020-09-02T08:43:51Z</time>
      </trkpt>
      <trkpt lat="43.87074" lon="5.60874">
        <ele>453.308</ele>
        <time>2020-09-02T08:43:52Z</time>
      </trkpt>
      <trkpt lat="43.87075" lon="5.60882">
        <ele>453.583</ele>
        <time>2020-09-02T08:43:53Z</time>
      </trkpt>
      <trkpt lat="43.87076" lon="5.60888">
        <ele>454.562</ele>
        <time>2020-09-02T08:43:55Z</time>
      </trkpt>
      <trkpt lat="43.87081" lon="5.60893">
        <ele>455.742</ele>
        <time>2020-09-02T08:43:57Z</time>
      </trkpt>
      <trkpt lat="43.87085" lon="5.60896">
        <ele>457.069</ele>
        <time>2020-09-02T08:43:58Z</time>
      </trkpt>
      <trkpt lat="43.8709" lon="5.60899">
        <ele>457.33</ele>
        <time>2020-09-02T08:43:59Z</time>
      </trkpt>
      <trkpt lat="43.87095" lon="5.60904">
        <ele>457.938</ele>
        <time>2020-09-02T08:44:00Z</time>
      </trkpt>
      <trkpt lat="43.87101" lon="5.6091">
        <ele>459.264</ele>
        <time>2020-09-02T08:44:01Z</time>
      </trkpt>
      <trkpt lat="43.87107" lon="5.60916">
        <ele>460.237</ele>
        <time>2020-09-02T08:44:02Z</time>
      </trkpt>
      <trkpt lat="43.87112" lon="5.60921">
        <ele>460.931</ele>
        <time>2020-09-02T08:44:03Z</time>
      </trkpt>
      <trkpt lat="43.87117" lon="5.60924">
        <ele>462.061</ele>
        <time>2020-09-02T08:44:04Z</time>
      </trkpt>
      <trkpt lat="43.87122" lon="5.60926">
        <ele>462.707</ele>
        <time>2020-09-02T08:44:05Z</time>
      </trkpt>
      <trkpt lat="43.87128" lon="5.60929">
        <ele>463.408</ele>
        <time>2020-09-02T08:44:06Z</time>
      </trkpt>
      <trkpt lat="43.87133" lon="5.60933">
        <ele>464.211</ele>
        <time>2020-09-02T08:44:07Z</time>
      </trkpt>
      <trkpt lat="43.87139" lon="5.60937">
        <ele>464.87</ele>
        <time>2020-09-02T08:44:08Z</time>
      </trkpt>
      <trkpt lat="43.87144" lon="5.60941">
        <ele>465.28</ele>
        <time>2020-09-02T08:44:09Z</time>
      </trkpt>
      <trkpt lat="43.8715" lon="5.60945">
        <ele>466.247</ele>
        <time>2020-09-02T08:44:10Z</time>
      </trkpt>
      <trkpt lat="43.87154" lon="5.60949">
        <ele>466.968</ele>
        <time>2020-09-02T08:44:11Z</time>
      </trkpt>
      <trkpt lat="43.87158" lon="5.60953">
        <ele>467.426</ele>
        <time>2020-09-02T08:44:12Z</time>
      </trkpt>
      <trkpt lat="43.87163" lon="5.60957">
        <ele>467.892</ele>
        <time>2020-09-02T08:44:13Z</time>
      </trkpt>
      <trkpt lat="43.87168" lon="5.60961">
        <ele>468.525</ele>
        <time>2020-09-02T08:44:14Z</time>
      </trkpt>
      <trkpt lat="43.87174" lon="5.60965">
        <ele>468.913</ele>
        <time>2020-09-02T08:44:15Z</time>
      </trkpt>
      <trkpt lat="43.87178" lon="5.60969">
        <ele>470.543</ele>
        <time>2020-09-02T08:44:16Z</time>
      </trkpt>
      <trkpt lat="43.87183" lon="5.60975">
        <ele>471.107</ele>
        <time>2020-09-02T08:44:17Z</time>
      </trkpt>
      <trkpt lat="43.87188" lon="5.6098">
        <ele>471.808</ele>
        <time>2020-09-02T08:44:18Z</time>
      </trkpt>
      <trkpt lat="43.87193" lon="5.60985">
        <ele>472.339</ele>
        <time>2020-09-02T08:44:19Z</time>
      </trkpt>
      <trkpt lat="43.87197" lon="5.60989">
        <ele>473.258</ele>
        <time>2020-09-02T08:44:20Z</time>
      </trkpt>
      <trkpt lat="43.87203" lon="5.60994">
        <ele>474.428</ele>
        <time>2020-09-02T08:44:22Z</time>
      </trkpt>
      <trkpt lat="43.87207" lon="5.60998">
        <ele>475.795</ele>
        <time>2020-09-02T08:44:24Z</time>
      </trkpt>
      <trkpt lat="43.87211" lon="5.61002">
        <ele>476.916</ele>
        <time>2020-09-02T08:44:27Z</time>
      </trkpt>
      <trkpt lat="43.87215" lon="5.61007">
        <ele>477.664</ele>
        <time>2020-09-02T08:44:29Z</time>
      </trkpt>
      <trkpt lat="43.87221" lon="5.6101">
        <ele>478.56</ele>
        <time>2020-09-02T08:44:31Z</time>
      </trkpt>
      <trkpt lat="43.87227" lon="5.61015">
        <ele>479.833</ele>
        <time>2020-09-02T08:44:33Z</time>
      </trkpt>
      <trkpt lat="43.87232" lon="5.61019">
        <ele>481.425</ele>
        <time>2020-09-02T08:44:35Z</time>
      </trkpt>
      <trkpt lat="43.8724" lon="5.61029">
        <ele>483.226</ele>
        <time>2020-09-02T08:44:37Z</time>
      </trkpt>
      <trkpt lat="43.87243" lon="5.61034">
        <ele>484.108</ele>
        <time>2020-09-02T08:44:38Z</time>
      </trkpt>
      <trkpt lat="43.87248" lon="5.6104">
        <ele>484.708</ele>
        <time>2020-09-02T08:44:39Z</time>
      </trkpt>
      <trkpt lat="43.87254" lon="5.61047">
        <ele>485.03</ele>
        <time>2020-09-02T08:44:40Z</time>
      </trkpt>
      <trkpt lat="43.87258" lon="5.61056">
        <ele>485.959</ele>
        <time>2020-09-02T08:44:41Z</time>
      </trkpt>
      <trkpt lat="43.87263" lon="5.61067">
        <ele>486.789</ele>
        <time>2020-09-02T08:44:42Z</time>
      </trkpt>
      <trkpt lat="43.87267" lon="5.61076">
        <ele>487.056</ele>
        <time>2020-09-02T08:44:43Z</time>
      </trkpt>
      <trkpt lat="43.87273" lon="5.61089">
        <ele>487.477</ele>
        <time>2020-09-02T08:44:44Z</time>
      </trkpt>
      <trkpt lat="43.87278" lon="5.61102">
        <ele>488.675</ele>
        <time>2020-09-02T08:44:45Z</time>
      </trkpt>
      <trkpt lat="43.87283" lon="5.61114">
        <ele>489.781</ele>
        <time>2020-09-02T08:44:46Z</time>
      </trkpt>
      <trkpt lat="43.87289" lon="5.61126">
        <ele>490.244</ele>
        <time>2020-09-02T08:44:47Z</time>
      </trkpt>
      <trkpt lat="43.87294" lon="5.61138">
        <ele>490.841</ele>
        <time>2020-09-02T08:44:48Z</time>
      </trkpt>
      <trkpt lat="43.873" lon="5.61152">
        <ele>491.681</ele>
        <time>2020-09-02T08:44:49Z</time>
      </trkpt>
      <trkpt lat="43.87307" lon="5.61166">
        <ele>492.309</ele>
        <time>2020-09-02T08:44:50Z</time>
      </trkpt>
      <trkpt lat="43.87313" lon="5.6118">
        <ele>492.808</ele>
        <time>2020-09-02T08:44:51Z</time>
      </trkpt>
      <trkpt lat="43.8732" lon="5.61193">
        <ele>493.062</ele>
        <time>2020-09-02T08:44:52Z</time>
      </trkpt>
      <trkpt lat="43.87328" lon="5.61208">
        <ele>494.591</ele>
        <time>2020-09-02T08:44:53Z</time>
      </trkpt>
      <trkpt lat="43.87336" lon="5.61221">
        <ele>495.681</ele>
        <time>2020-09-02T08:44:54Z</time>
      </trkpt>
      <trkpt lat="43.87345" lon="5.61236">
        <ele>497.658</ele>
        <time>2020-09-02T08:44:55Z</time>
      </trkpt>
      <trkpt lat="43.87352" lon="5.61251">
        <ele>498.029</ele>
        <time>2020-09-02T08:44:56Z</time>
      </trkpt>
      <trkpt lat="43.8736" lon="5.61265">
        <ele>498.587</ele>
        <time>2020-09-02T08:44:57Z</time>
      </trkpt>
      <trkpt lat="43.87366" lon="5.61277">
        <ele>499.683</ele>
        <time>2020-09-02T08:44:58Z</time>
      </trkpt>
      <trkpt lat="43.87373" lon="5.61288">
        <ele>500.516</ele>
        <time>2020-09-02T08:44:59Z</time>
      </trkpt>
      <trkpt lat="43.8738" lon="5.61295">
        <ele>501.219</ele>
        <time>2020-09-02T08:45:00Z</time>
      </trkpt>
      <trkpt lat="43.8739" lon="5.61299">
        <ele>502.009</ele>
        <time>2020-09-02T08:45:01Z</time>
      </trkpt>
      <trkpt lat="43.874" lon="5.61303">
        <ele>503.119</ele>
        <time>2020-09-02T08:45:02Z</time>
      </trkpt>
      <trkpt lat="43.8741" lon="5.61307">
        <ele>503.708</ele>
        <time>2020-09-02T08:45:03Z</time>
      </trkpt>
      <trkpt lat="43.87418" lon="5.6131">
        <ele>503.979</ele>
        <time>2020-09-02T08:45:04Z</time>
      </trkpt>
      <trkpt lat="43.87427" lon="5.61312">
        <ele>504.028</ele>
        <time>2020-09-02T08:45:05Z</time>
      </trkpt>
      <trkpt lat="43.87437" lon="5.6131">
        <ele>503.148</ele>
        <time>2020-09-02T08:45:06Z</time>
      </trkpt>
      <trkpt lat="43.87447" lon="5.6131">
        <ele>502.985</ele>
        <time>2020-09-02T08:45:07Z</time>
      </trkpt>
      <trkpt lat="43.8746" lon="5.61306">
        <ele>502.616</ele>
        <time>2020-09-02T08:45:08Z</time>
      </trkpt>
      <trkpt lat="43.87474" lon="5.61303">
        <ele>502.574</ele>
        <time>2020-09-02T08:45:09Z</time>
      </trkpt>
      <trkpt lat="43.87487" lon="5.61304">
        <ele>501.22</ele>
        <time>2020-09-02T08:45:10Z</time>
      </trkpt>
      <trkpt lat="43.875" lon="5.61305">
        <ele>500.783</ele>
        <time>2020-09-02T08:45:11Z</time>
      </trkpt>
      <trkpt lat="43.87513" lon="5.61306">
        <ele>500.016</ele>
        <time>2020-09-02T08:45:12Z</time>
      </trkpt>
      <trkpt lat="43.87526" lon="5.6131">
        <ele>498.876</ele>
        <time>2020-09-02T08:45:13Z</time>
      </trkpt>
      <trkpt lat="43.8754" lon="5.61314">
        <ele>497.413</ele>
        <time>2020-09-02T08:45:14Z</time>
      </trkpt>
      <trkpt lat="43.87554" lon="5.61318">
        <ele>497.008</ele>
        <time>2020-09-02T08:45:15Z</time>
      </trkpt>
      <trkpt lat="43.87567" lon="5.61323">
        <ele>496.859</ele>
        <time>2020-09-02T08:45:16Z</time>
      </trkpt>
      <trkpt lat="43.8758" lon="5.61327">
        <ele>495.868</ele>
        <time>2020-09-02T08:45:17Z</time>
      </trkpt>
      <trkpt lat="43.87592" lon="5.6133">
        <ele>494.918</ele>
        <time>2020-09-02T08:45:18Z</time>
      </trkpt>
      <trkpt lat="43.87605" lon="5.61334">
        <ele>494.895</ele>
        <time>2020-09-02T08:45:19Z</time>
      </trkpt>
      <trkpt lat="43.87617" lon="5.61336">
        <ele>494.616</ele>
        <time>2020-09-02T08:45:20Z</time>
      </trkpt>
      <trkpt lat="43.87629" lon="5.61338">
        <ele>494.594</ele>
        <time>2020-09-02T08:45:21Z</time>
      </trkpt>
      <trkpt lat="43.8764" lon="5.6134">
        <ele>493.98</ele>
        <time>2020-09-02T08:45:22Z</time>
      </trkpt>
      <trkpt lat="43.87651" lon="5.6134">
        <ele>493.393</ele>
        <time>2020-09-02T08:45:23Z</time>
      </trkpt>
      <trkpt lat="43.87661" lon="5.6134">
        <ele>492.883</ele>
        <time>2020-09-02T08:45:24Z</time>
      </trkpt>
      <trkpt lat="43.8767" lon="5.61338">
        <ele>493.125</ele>
        <time>2020-09-02T08:45:25Z</time>
      </trkpt>
      <trkpt lat="43.87678" lon="5.61334">
        <ele>493.417</ele>
        <time>2020-09-02T08:45:26Z</time>
      </trkpt>
      <trkpt lat="43.87685" lon="5.61329">
        <ele>493.408</ele>
        <time>2020-09-02T08:45:27Z</time>
      </trkpt>
      <trkpt lat="43.87692" lon="5.61324">
        <ele>493.356</ele>
        <time>2020-09-02T08:45:28Z</time>
      </trkpt>
      <trkpt lat="43.87697" lon="5.61321">
        <ele>493.325</ele>
        <time>2020-09-02T08:45:29Z</time>
      </trkpt>
      <trkpt lat="43.87705" lon="5.61321">
        <ele>493.025</ele>
        <time>2020-09-02T08:45:30Z</time>
      </trkpt>
      <trkpt lat="43.87714" lon="5.61327">
        <ele>492.922</ele>
        <time>2020-09-02T08:45:31Z</time>
      </trkpt>
      <trkpt lat="43.87724" lon="5.6133">
        <ele>492.053</ele>
        <time>2020-09-02T08:45:32Z</time>
      </trkpt>
      <trkpt lat="43.87735" lon="5.61326">
        <ele>492.581</ele>
        <time>2020-09-02T08:45:33Z</time>
      </trkpt>
      <trkpt lat="43.87746" lon="5.61324">
        <ele>492.417</ele>
        <time>2020-09-02T08:45:34Z</time>
      </trkpt>
      <trkpt lat="43.87759" lon="5.61321">
        <ele>492.54</ele>
        <time>2020-09-02T08:45:35Z</time>
      </trkpt>
      <trkpt lat="43.87772" lon="5.6132">
        <ele>492.643</ele>
        <time>2020-09-02T08:45:36Z</time>
      </trkpt>
      <trkpt lat="43.87785" lon="5.61321">
        <ele>492.664</ele>
        <time>2020-09-02T08:45:37Z</time>
      </trkpt>
      <trkpt lat="43.87797" lon="5.61322">
        <ele>492.61</ele>
        <time>2020-09-02T08:45:38Z</time>
      </trkpt>
      <trkpt lat="43.87809" lon="5.61325">
        <ele>493.508</ele>
        <time>2020-09-02T08:45:39Z</time>
      </trkpt>
      <trkpt lat="43.8782" lon="5.61328">
        <ele>493.052</ele>
        <time>2020-09-02T08:45:40Z</time>
      </trkpt>
      <trkpt lat="43.87833" lon="5.61329">
        <ele>492.811</ele>
        <time>2020-09-02T08:45:41Z</time>
      </trkpt>
      <trkpt lat="43.87846" lon="5.61327">
        <ele>492.431</ele>
        <time>2020-09-02T08:45:42Z</time>
      </trkpt>
      <trkpt lat="43.87859" lon="5.61325">
        <ele>491.948</ele>
        <time>2020-09-02T08:45:43Z</time>
      </trkpt>
      <trkpt lat="43.87872" lon="5.61323">
        <ele>492.279</ele>
        <time>2020-09-02T08:45:44Z</time>
      </trkpt>
      <trkpt lat="43.87884" lon="5.6132">
        <ele>492.757</ele>
        <time>2020-09-02T08:45:45Z</time>
      </trkpt>
      <trkpt lat="43.87896" lon="5.61318">
        <ele>493.233</ele>
        <time>2020-09-02T08:45:46Z</time>
      </trkpt>
      <trkpt lat="43.87906" lon="5.61316">
        <ele>494.446</ele>
        <time>2020-09-02T08:45:47Z</time>
      </trkpt>
      <trkpt lat="43.87918" lon="5.61315">
        <ele>494.524</ele>
        <time>2020-09-02T08:45:48Z</time>
      </trkpt>
      <trkpt lat="43.8793" lon="5.61313">
        <ele>494.704</ele>
        <time>2020-09-02T08:45:49Z</time>
      </trkpt>
      <trkpt lat="43.87942" lon="5.61313">
        <ele>495.114</ele>
        <time>2020-09-02T08:45:50Z</time>
      </trkpt>
      <trkpt lat="43.87954" lon="5.61311">
        <ele>495.508</ele>
        <time>2020-09-02T08:45:51Z</time>
      </trkpt>
      <trkpt lat="43.87969" lon="5.61309">
        <ele>495.54</ele>
        <time>2020-09-02T08:45:52Z</time>
      </trkpt>
      <trkpt lat="43.87983" lon="5.61308">
        <ele>495.569</ele>
        <time>2020-09-02T08:45:53Z</time>
      </trkpt>
      <trkpt lat="43.87994" lon="5.61309">
        <ele>495.419</ele>
        <time>2020-09-02T08:45:54Z</time>
      </trkpt>
      <trkpt lat="43.88004" lon="5.61311">
        <ele>495.716</ele>
        <time>2020-09-02T08:45:55Z</time>
      </trkpt>
      <trkpt lat="43.88013" lon="5.61315">
        <ele>496.527</ele>
        <time>2020-09-02T08:45:56Z</time>
      </trkpt>
      <trkpt lat="43.88023" lon="5.61318">
        <ele>496.885</ele>
        <time>2020-09-02T08:45:57Z</time>
      </trkpt>
      <trkpt lat="43.88034" lon="5.6132">
        <ele>497.321</ele>
        <time>2020-09-02T08:45:58Z</time>
      </trkpt>
      <trkpt lat="43.88046" lon="5.6132">
        <ele>498.154</ele>
        <time>2020-09-02T08:45:59Z</time>
      </trkpt>
      <trkpt lat="43.88058" lon="5.61321">
        <ele>498.252</ele>
        <time>2020-09-02T08:46:00Z</time>
      </trkpt>
      <trkpt lat="43.8807" lon="5.6132">
        <ele>499.453</ele>
        <time>2020-09-02T08:46:01Z</time>
      </trkpt>
      <trkpt lat="43.88083" lon="5.6132">
        <ele>499.408</ele>
        <time>2020-09-02T08:46:02Z</time>
      </trkpt>
      <trkpt lat="43.88096" lon="5.61319">
        <ele>500.108</ele>
        <time>2020-09-02T08:46:03Z</time>
      </trkpt>
      <trkpt lat="43.8811" lon="5.61318">
        <ele>500.393</ele>
        <time>2020-09-02T08:46:04Z</time>
      </trkpt>
      <trkpt lat="43.88123" lon="5.61317">
        <ele>500.572</ele>
        <time>2020-09-02T08:46:05Z</time>
      </trkpt>
      <trkpt lat="43.88136" lon="5.61315">
        <ele>501.262</ele>
        <time>2020-09-02T08:46:06Z</time>
      </trkpt>
      <trkpt lat="43.88149" lon="5.61312">
        <ele>501.619</ele>
        <time>2020-09-02T08:46:07Z</time>
      </trkpt>
      <trkpt lat="43.88161" lon="5.61309">
        <ele>502.06</ele>
        <time>2020-09-02T08:46:08Z</time>
      </trkpt>
      <trkpt lat="43.88172" lon="5.61306">
        <ele>502.448</ele>
        <time>2020-09-02T08:46:09Z</time>
      </trkpt>
      <trkpt lat="43.88184" lon="5.61302">
        <ele>502.874</ele>
        <time>2020-09-02T08:46:10Z</time>
      </trkpt>
      <trkpt lat="43.88195" lon="5.61297">
        <ele>502.347</ele>
        <time>2020-09-02T08:46:11Z</time>
      </trkpt>
      <trkpt lat="43.88205" lon="5.61292">
        <ele>502.572</ele>
        <time>2020-09-02T08:46:12Z</time>
      </trkpt>
      <trkpt lat="43.88215" lon="5.61285">
        <ele>502.813</ele>
        <time>2020-09-02T08:46:13Z</time>
      </trkpt>
      <trkpt lat="43.88222" lon="5.6128">
        <ele>502.514</ele>
        <time>2020-09-02T08:46:14Z</time>
      </trkpt>
      <trkpt lat="43.88229" lon="5.61274">
        <ele>502.508</ele>
        <time>2020-09-02T08:46:15Z</time>
      </trkpt>
      <trkpt lat="43.88235" lon="5.61269">
        <ele>502.555</ele>
        <time>2020-09-02T08:46:16Z</time>
      </trkpt>
      <trkpt lat="43.8824" lon="5.61265">
        <ele>502.374</ele>
        <time>2020-09-02T08:46:17Z</time>
      </trkpt>
      <trkpt lat="43.88245" lon="5.6126">
        <ele>502.214</ele>
        <time>2020-09-02T08:46:18Z</time>
      </trkpt>
      <trkpt lat="43.88251" lon="5.61256">
        <ele>501.761</ele>
        <time>2020-09-02T08:46:19Z</time>
      </trkpt>
      <trkpt lat="43.88258" lon="5.61252">
        <ele>501.362</ele>
        <time>2020-09-02T08:46:20Z</time>
      </trkpt>
      <trkpt lat="43.88265" lon="5.61249">
        <ele>500.76</ele>
        <time>2020-09-02T08:46:21Z</time>
      </trkpt>
      <trkpt lat="43.88273" lon="5.61246">
        <ele>499.956</ele>
        <time>2020-09-02T08:46:22Z</time>
      </trkpt>
      <trkpt lat="43.8828" lon="5.61243">
        <ele>499.319</ele>
        <time>2020-09-02T08:46:23Z</time>
      </trkpt>
      <trkpt lat="43.88287" lon="5.6124">
        <ele>498.238</ele>
        <time>2020-09-02T08:46:24Z</time>
      </trkpt>
      <trkpt lat="43.88294" lon="5.61237">
        <ele>497.17</ele>
        <time>2020-09-02T08:46:25Z</time>
      </trkpt>
      <trkpt lat="43.88301" lon="5.61233">
        <ele>496.217</ele>
        <time>2020-09-02T08:46:26Z</time>
      </trkpt>
      <trkpt lat="43.88308" lon="5.61232">
        <ele>495.308</ele>
        <time>2020-09-02T08:46:27Z</time>
      </trkpt>
      <trkpt lat="43.88315" lon="5.61233">
        <ele>494.381</ele>
        <time>2020-09-02T08:46:28Z</time>
      </trkpt>
      <trkpt lat="43.88323" lon="5.61236">
        <ele>493.05</ele>
        <time>2020-09-02T08:46:29Z</time>
      </trkpt>
      <trkpt lat="43.88331" lon="5.61241">
        <ele>491.82</ele>
        <time>2020-09-02T08:46:30Z</time>
      </trkpt>
      <trkpt lat="43.88338" lon="5.61247">
        <ele>491.447</ele>
        <time>2020-09-02T08:46:31Z</time>
      </trkpt>
      <trkpt lat="43.88344" lon="5.61253">
        <ele>490.488</ele>
        <time>2020-09-02T08:46:32Z</time>
      </trkpt>
      <trkpt lat="43.88352" lon="5.61261">
        <ele>487.716</ele>
        <time>2020-09-02T08:46:33Z</time>
      </trkpt>
      <trkpt lat="43.88359" lon="5.61266">
        <ele>486.262</ele>
        <time>2020-09-02T08:46:34Z</time>
      </trkpt>
      <trkpt lat="43.88364" lon="5.61268">
        <ele>485.455</ele>
        <time>2020-09-02T08:46:35Z</time>
      </trkpt>
      <trkpt lat="43.8837" lon="5.6127">
        <ele>484.825</ele>
        <time>2020-09-02T08:46:36Z</time>
      </trkpt>
      <trkpt lat="43.88371" lon="5.61264">
        <ele>483.926</ele>
        <time>2020-09-02T08:46:40Z</time>
      </trkpt>
      <trkpt lat="43.88371" lon="5.61252">
        <ele>482.908</ele>
        <time>2020-09-02T08:46:44Z</time>
      </trkpt>
      <trkpt lat="43.88371" lon="5.61243">
        <ele>481.608</ele>
        <time>2020-09-02T08:46:45Z</time>
      </trkpt>
      <trkpt lat="43.8837" lon="5.61236">
        <ele>481.27</ele>
        <time>2020-09-02T08:46:46Z</time>
      </trkpt>
      <trkpt lat="43.88372" lon="5.6123">
        <ele>480.789</ele>
        <time>2020-09-02T08:46:47Z</time>
      </trkpt>
      <trkpt lat="43.88376" lon="5.61227">
        <ele>479.759</ele>
        <time>2020-09-02T08:46:48Z</time>
      </trkpt>
      <trkpt lat="43.88384" lon="5.6123">
        <ele>477.996</ele>
        <time>2020-09-02T08:46:50Z</time>
      </trkpt>
      <trkpt lat="43.88389" lon="5.61235">
        <ele>477.267</ele>
        <time>2020-09-02T08:46:51Z</time>
      </trkpt>
      <trkpt lat="43.88394" lon="5.61239">
        <ele>476.795</ele>
        <time>2020-09-02T08:46:52Z</time>
      </trkpt>
      <trkpt lat="43.884" lon="5.6124">
        <ele>475.171</ele>
        <time>2020-09-02T08:46:53Z</time>
      </trkpt>
      <trkpt lat="43.88404" lon="5.61236">
        <ele>474.474</ele>
        <time>2020-09-02T08:46:54Z</time>
      </trkpt>
      <trkpt lat="43.88407" lon="5.61231">
        <ele>473.332</ele>
        <time>2020-09-02T08:46:55Z</time>
      </trkpt>
      <trkpt lat="43.88409" lon="5.61224">
        <ele>472.892</ele>
        <time>2020-09-02T08:46:56Z</time>
      </trkpt>
      <trkpt lat="43.88408" lon="5.61216">
        <ele>471.911</ele>
        <time>2020-09-02T08:46:57Z</time>
      </trkpt>
      <trkpt lat="43.88407" lon="5.61208">
        <ele>470.708</ele>
        <time>2020-09-02T08:46:58Z</time>
      </trkpt>
      <trkpt lat="43.88408" lon="5.612">
        <ele>470.471</ele>
        <time>2020-09-02T08:46:59Z</time>
      </trkpt>
      <trkpt lat="43.88412" lon="5.61194">
        <ele>469.78</ele>
        <time>2020-09-02T08:47:00Z</time>
      </trkpt>
      <trkpt lat="43.88416" lon="5.6119">
        <ele>469.25</ele>
        <time>2020-09-02T08:47:01Z</time>
      </trkpt>
      <trkpt lat="43.88421" lon="5.61188">
        <ele>468.317</ele>
        <time>2020-09-02T08:47:02Z</time>
      </trkpt>
      <trkpt lat="43.88427" lon="5.61186">
        <ele>467.628</ele>
        <time>2020-09-02T08:47:03Z</time>
      </trkpt>
      <trkpt lat="43.88433" lon="5.61184">
        <ele>466.696</ele>
        <time>2020-09-02T08:47:04Z</time>
      </trkpt>
      <trkpt lat="43.88438" lon="5.61181">
        <ele>466.012</ele>
        <time>2020-09-02T08:47:05Z</time>
      </trkpt>
      <trkpt lat="43.88445" lon="5.6118">
        <ele>465.565</ele>
        <time>2020-09-02T08:47:06Z</time>
      </trkpt>
      <trkpt lat="43.88451" lon="5.61181">
        <ele>464.983</ele>
        <time>2020-09-02T08:47:07Z</time>
      </trkpt>
      <trkpt lat="43.88458" lon="5.61183">
        <ele>464.125</ele>
        <time>2020-09-02T08:47:08Z</time>
      </trkpt>
      <trkpt lat="43.88465" lon="5.61186">
        <ele>463.317</ele>
        <time>2020-09-02T08:47:09Z</time>
      </trkpt>
      <trkpt lat="43.88472" lon="5.61188">
        <ele>462.508</ele>
        <time>2020-09-02T08:47:10Z</time>
      </trkpt>
      <trkpt lat="43.88479" lon="5.61189">
        <ele>462.086</ele>
        <time>2020-09-02T08:47:11Z</time>
      </trkpt>
      <trkpt lat="43.88486" lon="5.61191">
        <ele>460.845</ele>
        <time>2020-09-02T08:47:12Z</time>
      </trkpt>
      <trkpt lat="43.88492" lon="5.61193">
        <ele>460.135</ele>
        <time>2020-09-02T08:47:13Z</time>
      </trkpt>
      <trkpt lat="43.88499" lon="5.61195">
        <ele>459.442</ele>
        <time>2020-09-02T08:47:14Z</time>
      </trkpt>
      <trkpt lat="43.88505" lon="5.61197">
        <ele>458.783</ele>
        <time>2020-09-02T08:47:15Z</time>
      </trkpt>
      <trkpt lat="43.88511" lon="5.61197">
        <ele>457.421</ele>
        <time>2020-09-02T08:47:16Z</time>
      </trkpt>
      <trkpt lat="43.88517" lon="5.61197">
        <ele>456.267</ele>
        <time>2020-09-02T08:47:17Z</time>
      </trkpt>
      <trkpt lat="43.88524" lon="5.61195">
        <ele>455.83</ele>
        <time>2020-09-02T08:47:18Z</time>
      </trkpt>
      <trkpt lat="43.88531" lon="5.61192">
        <ele>455.225</ele>
        <time>2020-09-02T08:47:19Z</time>
      </trkpt>
      <trkpt lat="43.88537" lon="5.61191">
        <ele>454.326</ele>
        <time>2020-09-02T08:47:20Z</time>
      </trkpt>
      <trkpt lat="43.88546" lon="5.61188">
        <ele>452.408</ele>
        <time>2020-09-02T08:47:21Z</time>
      </trkpt>
      <trkpt lat="43.88552" lon="5.61186">
        <ele>449.308</ele>
        <time>2020-09-02T08:47:22Z</time>
      </trkpt>
      <trkpt lat="43.8856" lon="5.61184">
        <ele>447.95</ele>
        <time>2020-09-02T08:47:23Z</time>
      </trkpt>
      <trkpt lat="43.88566" lon="5.61182">
        <ele>446.549</ele>
        <time>2020-09-02T08:47:24Z</time>
      </trkpt>
      <trkpt lat="43.88574" lon="5.61181">
        <ele>445.399</ele>
        <time>2020-09-02T08:47:25Z</time>
      </trkpt>
      <trkpt lat="43.88581" lon="5.61182">
        <ele>444.316</ele>
        <time>2020-09-02T08:47:26Z</time>
      </trkpt>
      <trkpt lat="43.88588" lon="5.61184">
        <ele>443.327</ele>
        <time>2020-09-02T08:47:27Z</time>
      </trkpt>
      <trkpt lat="43.88595" lon="5.61187">
        <ele>442.555</ele>
        <time>2020-09-02T08:47:28Z</time>
      </trkpt>
      <trkpt lat="43.88602" lon="5.61187">
        <ele>442.271</ele>
        <time>2020-09-02T08:47:29Z</time>
      </trkpt>
      <trkpt lat="43.88609" lon="5.61186">
        <ele>441.384</ele>
        <time>2020-09-02T08:47:30Z</time>
      </trkpt>
      <trkpt lat="43.88617" lon="5.61181">
        <ele>439.623</ele>
        <time>2020-09-02T08:47:31Z</time>
      </trkpt>
      <trkpt lat="43.88627" lon="5.61177">
        <ele>437.783</ele>
        <time>2020-09-02T08:47:32Z</time>
      </trkpt>
      <trkpt lat="43.88635" lon="5.61172">
        <ele>436.711</ele>
        <time>2020-09-02T08:47:33Z</time>
      </trkpt>
      <trkpt lat="43.88644" lon="5.61169">
        <ele>435.908</ele>
        <time>2020-09-02T08:47:34Z</time>
      </trkpt>
      <trkpt lat="43.88653" lon="5.61165">
        <ele>436.46</ele>
        <time>2020-09-02T08:47:35Z</time>
      </trkpt>
      <trkpt lat="43.88661" lon="5.6116">
        <ele>436.679</ele>
        <time>2020-09-02T08:47:36Z</time>
      </trkpt>
      <trkpt lat="43.88671" lon="5.61157">
        <ele>434.949</ele>
        <time>2020-09-02T08:47:37Z</time>
      </trkpt>
      <trkpt lat="43.88681" lon="5.61153">
        <ele>434.016</ele>
        <time>2020-09-02T08:47:38Z</time>
      </trkpt>
      <trkpt lat="43.8869" lon="5.61148">
        <ele>433.737</ele>
        <time>2020-09-02T08:47:39Z</time>
      </trkpt>
      <trkpt lat="43.88699" lon="5.61144">
        <ele>432.815</ele>
        <time>2020-09-02T08:47:40Z</time>
      </trkpt>
      <trkpt lat="43.88708" lon="5.6114">
        <ele>431.831</ele>
        <time>2020-09-02T08:47:41Z</time>
      </trkpt>
      <trkpt lat="43.88716" lon="5.61135">
        <ele>431.314</ele>
        <time>2020-09-02T08:47:42Z</time>
      </trkpt>
      <trkpt lat="43.88722" lon="5.61129">
        <ele>430.944</ele>
        <time>2020-09-02T08:47:43Z</time>
      </trkpt>
      <trkpt lat="43.8873" lon="5.61126">
        <ele>429.205</ele>
        <time>2020-09-02T08:47:44Z</time>
      </trkpt>
      <trkpt lat="43.88738" lon="5.61121">
        <ele>428.415</ele>
        <time>2020-09-02T08:47:45Z</time>
      </trkpt>
      <trkpt lat="43.88745" lon="5.61116">
        <ele>427.808</ele>
        <time>2020-09-02T08:47:46Z</time>
      </trkpt>
      <trkpt lat="43.88752" lon="5.61113">
        <ele>427.412</ele>
        <time>2020-09-02T08:47:47Z</time>
      </trkpt>
      <trkpt lat="43.8876" lon="5.61109">
        <ele>426.091</ele>
        <time>2020-09-02T08:47:48Z</time>
      </trkpt>
      <trkpt lat="43.88767" lon="5.61104">
        <ele>425.291</ele>
        <time>2020-09-02T08:47:49Z</time>
      </trkpt>
      <trkpt lat="43.88773" lon="5.611">
        <ele>424.638</ele>
        <time>2020-09-02T08:47:50Z</time>
      </trkpt>
      <trkpt lat="43.8878" lon="5.61092">
        <ele>424.139</ele>
        <time>2020-09-02T08:47:51Z</time>
      </trkpt>
      <trkpt lat="43.88785" lon="5.61082">
        <ele>423.597</ele>
        <time>2020-09-02T08:47:52Z</time>
      </trkpt>
      <trkpt lat="43.88791" lon="5.61074">
        <ele>422.833</ele>
        <time>2020-09-02T08:47:53Z</time>
      </trkpt>
      <trkpt lat="43.88796" lon="5.61064">
        <ele>422.366</ele>
        <time>2020-09-02T08:47:54Z</time>
      </trkpt>
      <trkpt lat="43.88801" lon="5.61054">
        <ele>421.635</ele>
        <time>2020-09-02T08:47:55Z</time>
      </trkpt>
      <trkpt lat="43.88805" lon="5.61044">
        <ele>420.486</ele>
        <time>2020-09-02T08:47:56Z</time>
      </trkpt>
      <trkpt lat="43.88809" lon="5.61033">
        <ele>418.914</ele>
        <time>2020-09-02T08:47:57Z</time>
      </trkpt>
      <trkpt lat="43.88813" lon="5.61024">
        <ele>418.108</ele>
        <time>2020-09-02T08:47:58Z</time>
      </trkpt>
      <trkpt lat="43.88815" lon="5.61014">
        <ele>416.921</ele>
        <time>2020-09-02T08:47:59Z</time>
      </trkpt>
      <trkpt lat="43.88818" lon="5.61005">
        <ele>416.26</ele>
        <time>2020-09-02T08:48:00Z</time>
      </trkpt>
      <trkpt lat="43.88821" lon="5.60996">
        <ele>415.24</ele>
        <time>2020-09-02T08:48:01Z</time>
      </trkpt>
      <trkpt lat="43.8883" lon="5.60994">
        <ele>414.327</ele>
        <time>2020-09-02T08:48:02Z</time>
      </trkpt>
      <trkpt lat="43.88836" lon="5.60992">
        <ele>413.978</ele>
        <time>2020-09-02T08:48:03Z</time>
      </trkpt>
      <trkpt lat="43.88843" lon="5.60991">
        <ele>413.276</ele>
        <time>2020-09-02T08:48:04Z</time>
      </trkpt>
      <trkpt lat="43.8885" lon="5.60999">
        <ele>411.772</ele>
        <time>2020-09-02T08:48:05Z</time>
      </trkpt>
      <trkpt lat="43.88855" lon="5.61005">
        <ele>411.445</ele>
        <time>2020-09-02T08:48:06Z</time>
      </trkpt>
      <trkpt lat="43.8886" lon="5.61012">
        <ele>410.951</ele>
        <time>2020-09-02T08:48:07Z</time>
      </trkpt>
      <trkpt lat="43.88866" lon="5.6102">
        <ele>410.601</ele>
        <time>2020-09-02T08:48:08Z</time>
      </trkpt>
      <trkpt lat="43.88872" lon="5.61028">
        <ele>409.711</ele>
        <time>2020-09-02T08:48:09Z</time>
      </trkpt>
      <trkpt lat="43.88878" lon="5.61035">
        <ele>409.308</ele>
        <time>2020-09-02T08:48:10Z</time>
      </trkpt>
      <trkpt lat="43.88883" lon="5.61042">
        <ele>409.123</ele>
        <time>2020-09-02T08:48:11Z</time>
      </trkpt>
      <trkpt lat="43.88889" lon="5.61048">
        <ele>409.152</ele>
        <time>2020-09-02T08:48:12Z</time>
      </trkpt>
      <trkpt lat="43.88895" lon="5.61053">
        <ele>409.182</ele>
        <time>2020-09-02T08:48:13Z</time>
      </trkpt>
      <trkpt lat="43.88903" lon="5.61055">
        <ele>408.569</ele>
        <time>2020-09-02T08:48:14Z</time>
      </trkpt>
      <trkpt lat="43.88909" lon="5.61056">
        <ele>408.32</ele>
        <time>2020-09-02T08:48:15Z</time>
      </trkpt>
      <trkpt lat="43.88915" lon="5.61056">
        <ele>409.058</ele>
        <time>2020-09-02T08:48:16Z</time>
      </trkpt>
      <trkpt lat="43.88921" lon="5.61057">
        <ele>409.334</ele>
        <time>2020-09-02T08:48:18Z</time>
      </trkpt>
      <trkpt lat="43.88926" lon="5.61059">
        <ele>408.087</ele>
        <time>2020-09-02T08:49:23Z</time>
      </trkpt>
      <trkpt lat="43.88932" lon="5.6106">
        <ele>408.487</ele>
        <time>2020-09-02T08:49:24Z</time>
      </trkpt>
      <trkpt lat="43.88938" lon="5.61062">
        <ele>408.742</ele>
        <time>2020-09-02T08:49:25Z</time>
      </trkpt>
      <trkpt lat="43.88946" lon="5.61066">
        <ele>409.026</ele>
        <time>2020-09-02T08:49:26Z</time>
      </trkpt>
      <trkpt lat="43.88953" lon="5.61071">
        <ele>409.308</ele>
        <time>2020-09-02T08:49:27Z</time>
      </trkpt>
      <trkpt lat="43.88959" lon="5.61078">
        <ele>409.946</ele>
        <time>2020-09-02T08:49:28Z</time>
      </trkpt>
      <trkpt lat="43.88965" lon="5.61087">
        <ele>410.715</ele>
        <time>2020-09-02T08:49:29Z</time>
      </trkpt>
      <trkpt lat="43.8897" lon="5.61099">
        <ele>411.885</ele>
        <time>2020-09-02T08:49:30Z</time>
      </trkpt>
      <trkpt lat="43.88975" lon="5.61112">
        <ele>412.662</ele>
        <time>2020-09-02T08:49:31Z</time>
      </trkpt>
      <trkpt lat="43.8898" lon="5.61127">
        <ele>413.383</ele>
        <time>2020-09-02T08:49:32Z</time>
      </trkpt>
      <trkpt lat="43.88984" lon="5.61141">
        <ele>413.811</ele>
        <time>2020-09-02T08:49:33Z</time>
      </trkpt>
      <trkpt lat="43.8899" lon="5.61155">
        <ele>414.387</ele>
        <time>2020-09-02T08:49:34Z</time>
      </trkpt>
      <trkpt lat="43.88997" lon="5.61167">
        <ele>415.12</ele>
        <time>2020-09-02T08:49:35Z</time>
      </trkpt>
      <trkpt lat="43.89006" lon="5.61177">
        <ele>415.938</ele>
        <time>2020-09-02T08:49:36Z</time>
      </trkpt>
      <trkpt lat="43.89017" lon="5.61185">
        <ele>416.67</ele>
        <time>2020-09-02T08:49:37Z</time>
      </trkpt>
      <trkpt lat="43.89028" lon="5.61194">
        <ele>417.817</ele>
        <time>2020-09-02T08:49:38Z</time>
      </trkpt>
      <trkpt lat="43.89039" lon="5.61202">
        <ele>418.908</ele>
        <time>2020-09-02T08:49:39Z</time>
      </trkpt>
      <trkpt lat="43.89051" lon="5.61212">
        <ele>420.141</ele>
        <time>2020-09-02T08:49:40Z</time>
      </trkpt>
      <trkpt lat="43.89061" lon="5.61222">
        <ele>420.86</ele>
        <time>2020-09-02T08:49:41Z</time>
      </trkpt>
      <trkpt lat="43.89071" lon="5.61231">
        <ele>421.96</ele>
        <time>2020-09-02T08:49:42Z</time>
      </trkpt>
      <trkpt lat="43.89079" lon="5.61242">
        <ele>422.217</ele>
        <time>2020-09-02T08:49:43Z</time>
      </trkpt>
      <trkpt lat="43.89085" lon="5.61258">
        <ele>422.798</ele>
        <time>2020-09-02T08:49:44Z</time>
      </trkpt>
      <trkpt lat="43.8909" lon="5.61272">
        <ele>423.786</ele>
        <time>2020-09-02T08:49:45Z</time>
      </trkpt>
      <trkpt lat="43.89097" lon="5.61283">
        <ele>424.552</ele>
        <time>2020-09-02T08:49:46Z</time>
      </trkpt>
      <trkpt lat="43.89105" lon="5.61291">
        <ele>425.295</ele>
        <time>2020-09-02T08:49:47Z</time>
      </trkpt>
      <trkpt lat="43.89116" lon="5.61297">
        <ele>426.261</ele>
        <time>2020-09-02T08:49:48Z</time>
      </trkpt>
      <trkpt lat="43.89127" lon="5.61303">
        <ele>426.621</ele>
        <time>2020-09-02T08:49:49Z</time>
      </trkpt>
      <trkpt lat="43.89139" lon="5.61308">
        <ele>427.813</ele>
        <time>2020-09-02T08:49:50Z</time>
      </trkpt>
      <trkpt lat="43.89151" lon="5.61313">
        <ele>429.408</ele>
        <time>2020-09-02T08:49:51Z</time>
      </trkpt>
      <trkpt lat="43.89164" lon="5.61319">
        <ele>430.714</ele>
        <time>2020-09-02T08:49:52Z</time>
      </trkpt>
      <trkpt lat="43.89177" lon="5.61326">
        <ele>431.823</ele>
        <time>2020-09-02T08:49:53Z</time>
      </trkpt>
      <trkpt lat="43.8919" lon="5.61333">
        <ele>434.653</ele>
        <time>2020-09-02T08:49:54Z</time>
      </trkpt>
      <trkpt lat="43.89202" lon="5.61338">
        <ele>436.06</ele>
        <time>2020-09-02T08:49:55Z</time>
      </trkpt>
      <trkpt lat="43.89217" lon="5.61346">
        <ele>436.751</ele>
        <time>2020-09-02T08:49:56Z</time>
      </trkpt>
      <trkpt lat="43.89231" lon="5.61352">
        <ele>438.039</ele>
        <time>2020-09-02T08:49:57Z</time>
      </trkpt>
      <trkpt lat="43.89245" lon="5.61358">
        <ele>439.075</ele>
        <time>2020-09-02T08:49:58Z</time>
      </trkpt>
      <trkpt lat="43.89261" lon="5.61364">
        <ele>440.488</ele>
        <time>2020-09-02T08:49:59Z</time>
      </trkpt>
      <trkpt lat="43.89275" lon="5.61369">
        <ele>442.122</ele>
        <time>2020-09-02T08:50:00Z</time>
      </trkpt>
      <trkpt lat="43.89289" lon="5.61375">
        <ele>444.062</ele>
        <time>2020-09-02T08:50:01Z</time>
      </trkpt>
      <trkpt lat="43.89303" lon="5.6138">
        <ele>445.108</ele>
        <time>2020-09-02T08:50:02Z</time>
      </trkpt>
      <trkpt lat="43.89314" lon="5.61385">
        <ele>446.408</ele>
        <time>2020-09-02T08:50:03Z</time>
      </trkpt>
      <trkpt lat="43.89325" lon="5.6139">
        <ele>447.43</ele>
        <time>2020-09-02T08:50:04Z</time>
      </trkpt>
      <trkpt lat="43.89336" lon="5.61394">
        <ele>448.869</ele>
        <time>2020-09-02T08:50:05Z</time>
      </trkpt>
      <trkpt lat="43.89346" lon="5.61397">
        <ele>450.219</ele>
        <time>2020-09-02T08:50:06Z</time>
      </trkpt>
      <trkpt lat="43.89357" lon="5.61399">
        <ele>451.356</ele>
        <time>2020-09-02T08:50:07Z</time>
      </trkpt>
      <trkpt lat="43.89366" lon="5.61398">
        <ele>452.547</ele>
        <time>2020-09-02T08:50:08Z</time>
      </trkpt>
      <trkpt lat="43.89374" lon="5.61397">
        <ele>453.675</ele>
        <time>2020-09-02T08:50:09Z</time>
      </trkpt>
      <trkpt lat="43.89379" lon="5.61398">
        <ele>454.111</ele>
        <time>2020-09-02T08:50:10Z</time>
      </trkpt>
      <trkpt lat="43.89384" lon="5.61398">
        <ele>454.774</ele>
        <time>2020-09-02T08:50:12Z</time>
      </trkpt>
      <trkpt lat="43.89389" lon="5.614">
        <ele>455.182</ele>
        <time>2020-09-02T08:50:14Z</time>
      </trkpt>
      <trkpt lat="43.89394" lon="5.61404">
        <ele>455.143</ele>
        <time>2020-09-02T08:50:16Z</time>
      </trkpt>
      <trkpt lat="43.89402" lon="5.61409">
        <ele>456.217</ele>
        <time>2020-09-02T08:50:18Z</time>
      </trkpt>
      <trkpt lat="43.89409" lon="5.61418">
        <ele>456.408</ele>
        <time>2020-09-02T08:50:20Z</time>
      </trkpt>
      <trkpt lat="43.89412" lon="5.61426">
        <ele>456.656</ele>
        <time>2020-09-02T08:50:21Z</time>
      </trkpt>
      <trkpt lat="43.89415" lon="5.61434">
        <ele>457.035</ele>
        <time>2020-09-02T08:50:22Z</time>
      </trkpt>
      <trkpt lat="43.89414" lon="5.61444">
        <ele>457.595</ele>
        <time>2020-09-02T08:50:23Z</time>
      </trkpt>
      <trkpt lat="43.89412" lon="5.61455">
        <ele>457.592</ele>
        <time>2020-09-02T08:50:24Z</time>
      </trkpt>
      <trkpt lat="43.89411" lon="5.61465">
        <ele>457.553</ele>
        <time>2020-09-02T08:50:25Z</time>
      </trkpt>
      <trkpt lat="43.89411" lon="5.61471">
        <ele>457.771</ele>
        <time>2020-09-02T08:50:26Z</time>
      </trkpt>
      <trkpt lat="43.89411" lon="5.6148">
        <ele>458.447</ele>
        <time>2020-09-02T08:50:27Z</time>
      </trkpt>
      <trkpt lat="43.89411" lon="5.61489">
        <ele>459.69</ele>
        <time>2020-09-02T08:50:29Z</time>
      </trkpt>
      <trkpt lat="43.89409" lon="5.61495">
        <ele>460.054</ele>
        <time>2020-09-02T08:50:36Z</time>
      </trkpt>
      <trkpt lat="43.89407" lon="5.615">
        <ele>461.356</ele>
        <time>2020-09-02T08:50:51Z</time>
      </trkpt>
      <trkpt lat="43.89411" lon="5.61503">
        <ele>461.511</ele>
        <time>2020-09-02T08:51:02Z</time>
      </trkpt>
      <trkpt lat="43.89413" lon="5.61489">
        <ele>461.208</ele>
        <time>2020-09-02T08:51:04Z</time>
      </trkpt>
      <trkpt lat="43.89413" lon="5.6148">
        <ele>460.683</ele>
        <time>2020-09-02T08:51:05Z</time>
      </trkpt>
      <trkpt lat="43.89414" lon="5.61471">
        <ele>460.362</ele>
        <time>2020-09-02T08:51:06Z</time>
      </trkpt>
      <trkpt lat="43.89414" lon="5.6146">
        <ele>459.512</ele>
        <time>2020-09-02T08:51:07Z</time>
      </trkpt>
      <trkpt lat="43.89415" lon="5.61449">
        <ele>458.599</ele>
        <time>2020-09-02T08:51:08Z</time>
      </trkpt>
      <trkpt lat="43.89414" lon="5.61441">
        <ele>457.92</ele>
        <time>2020-09-02T08:51:09Z</time>
      </trkpt>
      <trkpt lat="43.89414" lon="5.61433">
        <ele>457.898</ele>
        <time>2020-09-02T08:51:10Z</time>
      </trkpt>
      <trkpt lat="43.89412" lon="5.61425">
        <ele>457.684</ele>
        <time>2020-09-02T08:51:11Z</time>
      </trkpt>
      <trkpt lat="43.89408" lon="5.61418">
        <ele>457.447</ele>
        <time>2020-09-02T08:51:12Z</time>
      </trkpt>
      <trkpt lat="43.89404" lon="5.61411">
        <ele>455.939</ele>
        <time>2020-09-02T08:51:13Z</time>
      </trkpt>
      <trkpt lat="43.89398" lon="5.61406">
        <ele>455.701</ele>
        <time>2020-09-02T08:51:14Z</time>
      </trkpt>
      <trkpt lat="43.89392" lon="5.61403">
        <ele>456.521</ele>
        <time>2020-09-02T08:51:15Z</time>
      </trkpt>
      <trkpt lat="43.89387" lon="5.614">
        <ele>456.408</ele>
        <time>2020-09-02T08:51:16Z</time>
      </trkpt>
      <trkpt lat="43.89383" lon="5.61394">
        <ele>455.541</ele>
        <time>2020-09-02T08:51:18Z</time>
      </trkpt>
      <trkpt lat="43.89387" lon="5.61389">
        <ele>456.66</ele>
        <time>2020-09-02T08:51:21Z</time>
      </trkpt>
      <trkpt lat="43.89396" lon="5.61391">
        <ele>456.94</ele>
        <time>2020-09-02T08:51:23Z</time>
      </trkpt>
      <trkpt lat="43.89402" lon="5.61392">
        <ele>457.377</ele>
        <time>2020-09-02T08:51:24Z</time>
      </trkpt>
      <trkpt lat="43.8941" lon="5.61392">
        <ele>458.018</ele>
        <time>2020-09-02T08:51:25Z</time>
      </trkpt>
      <trkpt lat="43.89418" lon="5.61393">
        <ele>458.586</ele>
        <time>2020-09-02T08:51:26Z</time>
      </trkpt>
      <trkpt lat="43.89427" lon="5.61394">
        <ele>460.282</ele>
        <time>2020-09-02T08:51:27Z</time>
      </trkpt>
      <trkpt lat="43.89435" lon="5.61396">
        <ele>461.595</ele>
        <time>2020-09-02T08:51:28Z</time>
      </trkpt>
      <trkpt lat="43.89444" lon="5.61399">
        <ele>462.633</ele>
        <time>2020-09-02T08:51:29Z</time>
      </trkpt>
      <trkpt lat="43.8945" lon="5.61398">
        <ele>464.423</ele>
        <time>2020-09-02T08:51:30Z</time>
      </trkpt>
      <trkpt lat="43.89456" lon="5.61399">
        <ele>465.315</ele>
        <time>2020-09-02T08:51:31Z</time>
      </trkpt>
      <trkpt lat="43.89463" lon="5.61397">
        <ele>467.308</ele>
        <time>2020-09-02T08:51:32Z</time>
      </trkpt>
      <trkpt lat="43.8947" lon="5.61395">
        <ele>467.971</ele>
        <time>2020-09-02T08:51:33Z</time>
      </trkpt>
      <trkpt lat="43.89479" lon="5.61395">
        <ele>469.47</ele>
        <time>2020-09-02T08:51:34Z</time>
      </trkpt>
      <trkpt lat="43.89486" lon="5.61395">
        <ele>470.77</ele>
        <time>2020-09-02T08:51:35Z</time>
      </trkpt>
      <trkpt lat="43.89492" lon="5.61395">
        <ele>471.737</ele>
        <time>2020-09-02T08:51:36Z</time>
      </trkpt>
      <trkpt lat="43.89498" lon="5.61402">
        <ele>473.498</ele>
        <time>2020-09-02T08:51:38Z</time>
      </trkpt>
      <trkpt lat="43.895" lon="5.61409">
        <ele>473.976</ele>
        <time>2020-09-02T08:51:39Z</time>
      </trkpt>
      <trkpt lat="43.89496" lon="5.61417">
        <ele>474.742</ele>
        <time>2020-09-02T08:51:40Z</time>
      </trkpt>
      <trkpt lat="43.89491" lon="5.61422">
        <ele>474.325</ele>
        <time>2020-09-02T08:51:41Z</time>
      </trkpt>
      <trkpt lat="43.89488" lon="5.61429">
        <ele>474.495</ele>
        <time>2020-09-02T08:51:42Z</time>
      </trkpt>
      <trkpt lat="43.89485" lon="5.61435">
        <ele>475.349</ele>
        <time>2020-09-02T08:51:43Z</time>
      </trkpt>
      <trkpt lat="43.89483" lon="5.61442">
        <ele>475.823</ele>
        <time>2020-09-02T08:51:44Z</time>
      </trkpt>
      <trkpt lat="43.89483" lon="5.6145">
        <ele>475.708</ele>
        <time>2020-09-02T08:51:45Z</time>
      </trkpt>
      <trkpt lat="43.89484" lon="5.61457">
        <ele>476.397</ele>
        <time>2020-09-02T08:51:46Z</time>
      </trkpt>
      <trkpt lat="43.89486" lon="5.61465">
        <ele>477.376</ele>
        <time>2020-09-02T08:51:47Z</time>
      </trkpt>
      <trkpt lat="43.89488" lon="5.61471">
        <ele>477.866</ele>
        <time>2020-09-02T08:51:48Z</time>
      </trkpt>
      <trkpt lat="43.89492" lon="5.61478">
        <ele>479.143</ele>
        <time>2020-09-02T08:51:49Z</time>
      </trkpt>
      <trkpt lat="43.89497" lon="5.61483">
        <ele>480.424</ele>
        <time>2020-09-02T08:51:50Z</time>
      </trkpt>
      <trkpt lat="43.89503" lon="5.61488">
        <ele>481.242</ele>
        <time>2020-09-02T08:51:51Z</time>
      </trkpt>
      <trkpt lat="43.8951" lon="5.61495">
        <ele>482.788</ele>
        <time>2020-09-02T08:51:52Z</time>
      </trkpt>
      <trkpt lat="43.89517" lon="5.61503">
        <ele>483.231</ele>
        <time>2020-09-02T08:51:53Z</time>
      </trkpt>
      <trkpt lat="43.89524" lon="5.61511">
        <ele>484.464</ele>
        <time>2020-09-02T08:51:54Z</time>
      </trkpt>
      <trkpt lat="43.8953" lon="5.61519">
        <ele>486.206</ele>
        <time>2020-09-02T08:51:55Z</time>
      </trkpt>
      <trkpt lat="43.89537" lon="5.61528">
        <ele>487.616</ele>
        <time>2020-09-02T08:51:56Z</time>
      </trkpt>
      <trkpt lat="43.89544" lon="5.61535">
        <ele>487.608</ele>
        <time>2020-09-02T08:51:57Z</time>
      </trkpt>
      <trkpt lat="43.89553" lon="5.61541">
        <ele>487.574</ele>
        <time>2020-09-02T08:51:58Z</time>
      </trkpt>
      <trkpt lat="43.8956" lon="5.61547">
        <ele>488.583</ele>
        <time>2020-09-02T08:51:59Z</time>
      </trkpt>
      <trkpt lat="43.89568" lon="5.61554">
        <ele>490.353</ele>
        <time>2020-09-02T08:52:00Z</time>
      </trkpt>
      <trkpt lat="43.89576" lon="5.61562">
        <ele>491.09</ele>
        <time>2020-09-02T08:52:01Z</time>
      </trkpt>
      <trkpt lat="43.89584" lon="5.61568">
        <ele>491.991</ele>
        <time>2020-09-02T08:52:02Z</time>
      </trkpt>
      <trkpt lat="43.89591" lon="5.61574">
        <ele>493.279</ele>
        <time>2020-09-02T08:52:03Z</time>
      </trkpt>
      <trkpt lat="43.89598" lon="5.61579">
        <ele>494.065</ele>
        <time>2020-09-02T08:52:04Z</time>
      </trkpt>
      <trkpt lat="43.89607" lon="5.61583">
        <ele>494.678</ele>
        <time>2020-09-02T08:52:05Z</time>
      </trkpt>
      <trkpt lat="43.89614" lon="5.61586">
        <ele>495.988</ele>
        <time>2020-09-02T08:52:06Z</time>
      </trkpt>
      <trkpt lat="43.89623" lon="5.61589">
        <ele>496.924</ele>
        <time>2020-09-02T08:52:07Z</time>
      </trkpt>
      <trkpt lat="43.89631" lon="5.61592">
        <ele>497.626</ele>
        <time>2020-09-02T08:52:08Z</time>
      </trkpt>
      <trkpt lat="43.89638" lon="5.61595">
        <ele>499.208</ele>
        <time>2020-09-02T08:52:09Z</time>
      </trkpt>
      <trkpt lat="43.89645" lon="5.61598">
        <ele>500.176</ele>
        <time>2020-09-02T08:52:10Z</time>
      </trkpt>
      <trkpt lat="43.89654" lon="5.61601">
        <ele>501.155</ele>
        <time>2020-09-02T08:52:11Z</time>
      </trkpt>
      <trkpt lat="43.89663" lon="5.61604">
        <ele>502.325</ele>
        <time>2020-09-02T08:52:12Z</time>
      </trkpt>
      <trkpt lat="43.89672" lon="5.61607">
        <ele>503.242</ele>
        <time>2020-09-02T08:52:13Z</time>
      </trkpt>
      <trkpt lat="43.89681" lon="5.61608">
        <ele>504.593</ele>
        <time>2020-09-02T08:52:14Z</time>
      </trkpt>
      <trkpt lat="43.89691" lon="5.61612">
        <ele>505.561</ele>
        <time>2020-09-02T08:52:15Z</time>
      </trkpt>
      <trkpt lat="43.89702" lon="5.61615">
        <ele>505.977</ele>
        <time>2020-09-02T08:52:16Z</time>
      </trkpt>
      <trkpt lat="43.89711" lon="5.61618">
        <ele>506.58</ele>
        <time>2020-09-02T08:52:17Z</time>
      </trkpt>
      <trkpt lat="43.89721" lon="5.61621">
        <ele>506.951</ele>
        <time>2020-09-02T08:52:18Z</time>
      </trkpt>
      <trkpt lat="43.89732" lon="5.61625">
        <ele>507.501</ele>
        <time>2020-09-02T08:52:19Z</time>
      </trkpt>
      <trkpt lat="43.89742" lon="5.6163">
        <ele>508.611</ele>
        <time>2020-09-02T08:52:20Z</time>
      </trkpt>
      <trkpt lat="43.89753" lon="5.61636">
        <ele>509.308</ele>
        <time>2020-09-02T08:52:21Z</time>
      </trkpt>
      <trkpt lat="43.89763" lon="5.61642">
        <ele>509.583</ele>
        <time>2020-09-02T08:52:22Z</time>
      </trkpt>
      <trkpt lat="43.89774" lon="5.6165">
        <ele>510.342</ele>
        <time>2020-09-02T08:52:23Z</time>
      </trkpt>
      <trkpt lat="43.89786" lon="5.61656">
        <ele>510.682</ele>
        <time>2020-09-02T08:52:24Z</time>
      </trkpt>
      <trkpt lat="43.89797" lon="5.61661">
        <ele>511.749</ele>
        <time>2020-09-02T08:52:25Z</time>
      </trkpt>
      <trkpt lat="43.89807" lon="5.61667">
        <ele>512.44</ele>
        <time>2020-09-02T08:52:26Z</time>
      </trkpt>
      <trkpt lat="43.89818" lon="5.61672">
        <ele>513.668</ele>
        <time>2020-09-02T08:52:27Z</time>
      </trkpt>
      <trkpt lat="43.89829" lon="5.61677">
        <ele>515.644</ele>
        <time>2020-09-02T08:52:28Z</time>
      </trkpt>
      <trkpt lat="43.8984" lon="5.61683">
        <ele>516.927</ele>
        <time>2020-09-02T08:52:29Z</time>
      </trkpt>
      <trkpt lat="43.8985" lon="5.61689">
        <ele>518.575</ele>
        <time>2020-09-02T08:52:30Z</time>
      </trkpt>
      <trkpt lat="43.89861" lon="5.61694">
        <ele>519.628</ele>
        <time>2020-09-02T08:52:31Z</time>
      </trkpt>
      <trkpt lat="43.89872" lon="5.61699">
        <ele>521.22</ele>
        <time>2020-09-02T08:52:32Z</time>
      </trkpt>
      <trkpt lat="43.89884" lon="5.61705">
        <ele>522.608</ele>
        <time>2020-09-02T08:52:33Z</time>
      </trkpt>
      <trkpt lat="43.89895" lon="5.61711">
        <ele>523.775</ele>
        <time>2020-09-02T08:52:34Z</time>
      </trkpt>
      <trkpt lat="43.89904" lon="5.61715">
        <ele>524.844</ele>
        <time>2020-09-02T08:52:35Z</time>
      </trkpt>
      <trkpt lat="43.89914" lon="5.61719">
        <ele>526.254</ele>
        <time>2020-09-02T08:52:36Z</time>
      </trkpt>
      <trkpt lat="43.89924" lon="5.61724">
        <ele>526.831</ele>
        <time>2020-09-02T08:52:37Z</time>
      </trkpt>
      <trkpt lat="43.89935" lon="5.61729">
        <ele>527.452</ele>
        <time>2020-09-02T08:52:38Z</time>
      </trkpt>
      <trkpt lat="43.89945" lon="5.61734">
        <ele>527.79</ele>
        <time>2020-09-02T08:52:39Z</time>
      </trkpt>
      <trkpt lat="43.89953" lon="5.61737">
        <ele>528.886</ele>
        <time>2020-09-02T08:52:40Z</time>
      </trkpt>
      <trkpt lat="43.89963" lon="5.61745">
        <ele>529.539</ele>
        <time>2020-09-02T08:52:41Z</time>
      </trkpt>
      <trkpt lat="43.89972" lon="5.6175">
        <ele>530.022</ele>
        <time>2020-09-02T08:52:42Z</time>
      </trkpt>
      <trkpt lat="43.89982" lon="5.61753">
        <ele>530.562</ele>
        <time>2020-09-02T08:52:43Z</time>
      </trkpt>
      <trkpt lat="43.89992" lon="5.61756">
        <ele>530.908</ele>
        <time>2020-09-02T08:52:44Z</time>
      </trkpt>
      <trkpt lat="43.90002" lon="5.61757">
        <ele>531.308</ele>
        <time>2020-09-02T08:52:45Z</time>
      </trkpt>
      <trkpt lat="43.90013" lon="5.61755">
        <ele>532.19</ele>
        <time>2020-09-02T08:52:46Z</time>
      </trkpt>
      <trkpt lat="43.90023" lon="5.61752">
        <ele>532.829</ele>
        <time>2020-09-02T08:52:47Z</time>
      </trkpt>
      <trkpt lat="43.90031" lon="5.61746">
        <ele>533.699</ele>
        <time>2020-09-02T08:52:48Z</time>
      </trkpt>
      <trkpt lat="43.9004" lon="5.61739">
        <ele>534.246</ele>
        <time>2020-09-02T08:52:49Z</time>
      </trkpt>
      <trkpt lat="43.90046" lon="5.6173">
        <ele>535.087</ele>
        <time>2020-09-02T08:52:50Z</time>
      </trkpt>
      <trkpt lat="43.90053" lon="5.61719">
        <ele>535.865</ele>
        <time>2020-09-02T08:52:51Z</time>
      </trkpt>
      <trkpt lat="43.9006" lon="5.61708">
        <ele>537.021</ele>
        <time>2020-09-02T08:52:52Z</time>
      </trkpt>
      <trkpt lat="43.90067" lon="5.61696">
        <ele>538.214</ele>
        <time>2020-09-02T08:52:53Z</time>
      </trkpt>
      <trkpt lat="43.90075" lon="5.61685">
        <ele>539.269</ele>
        <time>2020-09-02T08:52:54Z</time>
      </trkpt>
      <trkpt lat="43.90084" lon="5.61675">
        <ele>540.204</ele>
        <time>2020-09-02T08:52:55Z</time>
      </trkpt>
      <trkpt lat="43.90091" lon="5.61664">
        <ele>541.424</ele>
        <time>2020-09-02T08:52:56Z</time>
      </trkpt>
      <trkpt lat="43.90098" lon="5.61653">
        <ele>542.008</ele>
        <time>2020-09-02T08:52:57Z</time>
      </trkpt>
      <trkpt lat="43.90104" lon="5.61643">
        <ele>543.394</ele>
        <time>2020-09-02T08:52:58Z</time>
      </trkpt>
      <trkpt lat="43.9011" lon="5.61633">
        <ele>544.123</ele>
        <time>2020-09-02T08:52:59Z</time>
      </trkpt>
      <trkpt lat="43.90115" lon="5.61624">
        <ele>544.853</ele>
        <time>2020-09-02T08:53:00Z</time>
      </trkpt>
      <trkpt lat="43.90121" lon="5.61616">
        <ele>546.13</ele>
        <time>2020-09-02T08:53:01Z</time>
      </trkpt>
      <trkpt lat="43.90126" lon="5.61608">
        <ele>546.741</ele>
        <time>2020-09-02T08:53:02Z</time>
      </trkpt>
      <trkpt lat="43.90133" lon="5.61601">
        <ele>546.759</ele>
        <time>2020-09-02T08:53:03Z</time>
      </trkpt>
      <trkpt lat="43.9014" lon="5.61596">
        <ele>548.035</ele>
        <time>2020-09-02T08:53:04Z</time>
      </trkpt>
      <trkpt lat="43.90147" lon="5.61591">
        <ele>549.058</ele>
        <time>2020-09-02T08:53:05Z</time>
      </trkpt>
      <trkpt lat="43.90154" lon="5.61588">
        <ele>550.697</ele>
        <time>2020-09-02T08:53:06Z</time>
      </trkpt>
      <trkpt lat="43.90161" lon="5.61588">
        <ele>551.423</ele>
        <time>2020-09-02T08:53:07Z</time>
      </trkpt>
      <trkpt lat="43.90167" lon="5.61592">
        <ele>551.925</ele>
        <time>2020-09-02T08:53:08Z</time>
      </trkpt>
      <trkpt lat="43.90173" lon="5.61598">
        <ele>552.008</ele>
        <time>2020-09-02T08:53:09Z</time>
      </trkpt>
      <trkpt lat="43.90179" lon="5.61606">
        <ele>552.877</ele>
        <time>2020-09-02T08:53:10Z</time>
      </trkpt>
      <trkpt lat="43.90184" lon="5.61615">
        <ele>553.156</ele>
        <time>2020-09-02T08:53:11Z</time>
      </trkpt>
      <trkpt lat="43.90191" lon="5.61625">
        <ele>553.776</ele>
        <time>2020-09-02T08:53:12Z</time>
      </trkpt>
      <trkpt lat="43.90197" lon="5.61635">
        <ele>554.493</ele>
        <time>2020-09-02T08:53:13Z</time>
      </trkpt>
      <trkpt lat="43.90204" lon="5.61646">
        <ele>555.444</ele>
        <time>2020-09-02T08:53:14Z</time>
      </trkpt>
      <trkpt lat="43.90211" lon="5.61657">
        <ele>555.632</ele>
        <time>2020-09-02T08:53:15Z</time>
      </trkpt>
      <trkpt lat="43.90218" lon="5.61669">
        <ele>557.248</ele>
        <time>2020-09-02T08:53:16Z</time>
      </trkpt>
      <trkpt lat="43.90225" lon="5.6168">
        <ele>557.831</ele>
        <time>2020-09-02T08:53:17Z</time>
      </trkpt>
      <trkpt lat="43.90232" lon="5.61691">
        <ele>558.876</ele>
        <time>2020-09-02T08:53:18Z</time>
      </trkpt>
      <trkpt lat="43.90239" lon="5.61703">
        <ele>559.89</ele>
        <time>2020-09-02T08:53:19Z</time>
      </trkpt>
      <trkpt lat="43.90246" lon="5.61715">
        <ele>560.519</ele>
        <time>2020-09-02T08:53:20Z</time>
      </trkpt>
      <trkpt lat="43.90253" lon="5.61726">
        <ele>560.908</ele>
        <time>2020-09-02T08:53:21Z</time>
      </trkpt>
      <trkpt lat="43.90262" lon="5.61737">
        <ele>561.225</ele>
        <time>2020-09-02T08:53:22Z</time>
      </trkpt>
      <trkpt lat="43.9027" lon="5.61746">
        <ele>561.654</ele>
        <time>2020-09-02T08:53:23Z</time>
      </trkpt>
      <trkpt lat="43.90279" lon="5.61755">
        <ele>562.874</ele>
        <time>2020-09-02T08:53:24Z</time>
      </trkpt>
      <trkpt lat="43.90286" lon="5.61764">
        <ele>563.881</ele>
        <time>2020-09-02T08:53:25Z</time>
      </trkpt>
      <trkpt lat="43.90296" lon="5.61773">
        <ele>563.632</ele>
        <time>2020-09-02T08:53:26Z</time>
      </trkpt>
      <trkpt lat="43.90303" lon="5.61783">
        <ele>564.97</ele>
        <time>2020-09-02T08:53:27Z</time>
      </trkpt>
      <trkpt lat="43.90313" lon="5.61791">
        <ele>565.686</ele>
        <time>2020-09-02T08:53:28Z</time>
      </trkpt>
      <trkpt lat="43.90321" lon="5.61799">
        <ele>565.529</ele>
        <time>2020-09-02T08:53:29Z</time>
      </trkpt>
      <trkpt lat="43.90328" lon="5.61802">
        <ele>564.517</ele>
        <time>2020-09-02T08:53:30Z</time>
      </trkpt>
      <trkpt lat="43.90336" lon="5.61805">
        <ele>564.587</ele>
        <time>2020-09-02T08:53:31Z</time>
      </trkpt>
      <trkpt lat="43.90343" lon="5.61805">
        <ele>564.915</ele>
        <time>2020-09-02T08:53:32Z</time>
      </trkpt>
      <trkpt lat="43.90348" lon="5.61804">
        <ele>565.208</ele>
        <time>2020-09-02T08:53:33Z</time>
      </trkpt>
      <trkpt lat="43.90353" lon="5.61802">
        <ele>565.269</ele>
        <time>2020-09-02T08:53:34Z</time>
      </trkpt>
      <trkpt lat="43.90362" lon="5.61797">
        <ele>566.498</ele>
        <time>2020-09-02T08:53:36Z</time>
      </trkpt>
      <trkpt lat="43.90367" lon="5.61795">
        <ele>567.038</ele>
        <time>2020-09-02T08:53:37Z</time>
      </trkpt>
      <trkpt lat="43.90373" lon="5.61793">
        <ele>568.335</ele>
        <time>2020-09-02T08:53:38Z</time>
      </trkpt>
      <trkpt lat="43.90379" lon="5.6179">
        <ele>568.796</ele>
        <time>2020-09-02T08:53:39Z</time>
      </trkpt>
      <trkpt lat="43.90385" lon="5.61787">
        <ele>569.694</ele>
        <time>2020-09-02T08:53:40Z</time>
      </trkpt>
      <trkpt lat="43.90391" lon="5.61783">
        <ele>570.37</ele>
        <time>2020-09-02T08:53:41Z</time>
      </trkpt>
      <trkpt lat="43.90398" lon="5.6178">
        <ele>570.893</ele>
        <time>2020-09-02T08:53:42Z</time>
      </trkpt>
      <trkpt lat="43.90405" lon="5.61776">
        <ele>571.851</ele>
        <time>2020-09-02T08:53:43Z</time>
      </trkpt>
      <trkpt lat="43.90412" lon="5.61773">
        <ele>572.801</ele>
        <time>2020-09-02T08:53:44Z</time>
      </trkpt>
      <trkpt lat="43.90419" lon="5.6177">
        <ele>572.811</ele>
        <time>2020-09-02T08:53:45Z</time>
      </trkpt>
      <trkpt lat="43.90427" lon="5.61767">
        <ele>573.508</ele>
        <time>2020-09-02T08:53:46Z</time>
      </trkpt>
      <trkpt lat="43.90435" lon="5.61763">
        <ele>574.113</ele>
        <time>2020-09-02T08:53:47Z</time>
      </trkpt>
      <trkpt lat="43.90442" lon="5.61759">
        <ele>575.452</ele>
        <time>2020-09-02T08:53:48Z</time>
      </trkpt>
      <trkpt lat="43.9045" lon="5.61755">
        <ele>576.512</ele>
        <time>2020-09-02T08:53:49Z</time>
      </trkpt>
      <trkpt lat="43.90458" lon="5.61751">
        <ele>576.959</ele>
        <time>2020-09-02T08:53:50Z</time>
      </trkpt>
      <trkpt lat="43.90466" lon="5.61746">
        <ele>577.19</ele>
        <time>2020-09-02T08:53:51Z</time>
      </trkpt>
      <trkpt lat="43.90475" lon="5.61741">
        <ele>577.248</ele>
        <time>2020-09-02T08:53:52Z</time>
      </trkpt>
      <trkpt lat="43.90483" lon="5.61736">
        <ele>578.384</ele>
        <time>2020-09-02T08:53:53Z</time>
      </trkpt>
      <trkpt lat="43.90491" lon="5.6173">
        <ele>579.567</ele>
        <time>2020-09-02T08:53:54Z</time>
      </trkpt>
      <trkpt lat="43.905" lon="5.61721">
        <ele>580.591</ele>
        <time>2020-09-02T08:53:55Z</time>
      </trkpt>
      <trkpt lat="43.90508" lon="5.61713">
        <ele>582.081</ele>
        <time>2020-09-02T08:53:56Z</time>
      </trkpt>
      <trkpt lat="43.90515" lon="5.61706">
        <ele>583.219</ele>
        <time>2020-09-02T08:53:57Z</time>
      </trkpt>
      <trkpt lat="43.90523" lon="5.61698">
        <ele>584.908</ele>
        <time>2020-09-02T08:53:58Z</time>
      </trkpt>
      <trkpt lat="43.90529" lon="5.6169">
        <ele>586.147</ele>
        <time>2020-09-02T08:53:59Z</time>
      </trkpt>
      <trkpt lat="43.90535" lon="5.61685">
        <ele>587.596</ele>
        <time>2020-09-02T08:54:00Z</time>
      </trkpt>
      <trkpt lat="43.9054" lon="5.6168">
        <ele>588.856</ele>
        <time>2020-09-02T08:54:01Z</time>
      </trkpt>
      <trkpt lat="43.90546" lon="5.61676">
        <ele>589.153</ele>
        <time>2020-09-02T08:54:02Z</time>
      </trkpt>
      <trkpt lat="43.90555" lon="5.61673">
        <ele>589.644</ele>
        <time>2020-09-02T08:54:03Z</time>
      </trkpt>
      <trkpt lat="43.90563" lon="5.61669">
        <ele>590.432</ele>
        <time>2020-09-02T08:54:04Z</time>
      </trkpt>
      <trkpt lat="43.90573" lon="5.61665">
        <ele>591.398</ele>
        <time>2020-09-02T08:54:05Z</time>
      </trkpt>
      <trkpt lat="43.90583" lon="5.61661">
        <ele>592.361</ele>
        <time>2020-09-02T08:54:06Z</time>
      </trkpt>
      <trkpt lat="43.90594" lon="5.61657">
        <ele>593.068</ele>
        <time>2020-09-02T08:54:07Z</time>
      </trkpt>
      <trkpt lat="43.90605" lon="5.61653">
        <ele>593.642</ele>
        <time>2020-09-02T08:54:08Z</time>
      </trkpt>
      <trkpt lat="43.90616" lon="5.61649">
        <ele>595.126</ele>
        <time>2020-09-02T08:54:09Z</time>
      </trkpt>
      <trkpt lat="43.90627" lon="5.61645">
        <ele>595.508</ele>
        <time>2020-09-02T08:54:10Z</time>
      </trkpt>
      <trkpt lat="43.90639" lon="5.61641">
        <ele>596.824</ele>
        <time>2020-09-02T08:54:11Z</time>
      </trkpt>
      <trkpt lat="43.90651" lon="5.61637">
        <ele>597.953</ele>
        <time>2020-09-02T08:54:12Z</time>
      </trkpt>
      <trkpt lat="43.90661" lon="5.61633">
        <ele>599.263</ele>
        <time>2020-09-02T08:54:13Z</time>
      </trkpt>
      <trkpt lat="43.90673" lon="5.61629">
        <ele>600.94</ele>
        <time>2020-09-02T08:54:14Z</time>
      </trkpt>
      <trkpt lat="43.90684" lon="5.61626">
        <ele>602.071</ele>
        <time>2020-09-02T08:54:15Z</time>
      </trkpt>
      <trkpt lat="43.90695" lon="5.61621">
        <ele>604.379</ele>
        <time>2020-09-02T08:54:16Z</time>
      </trkpt>
      <trkpt lat="43.90705" lon="5.61617">
        <ele>605.725</ele>
        <time>2020-09-02T08:54:17Z</time>
      </trkpt>
      <trkpt lat="43.90716" lon="5.61613">
        <ele>607.338</ele>
        <time>2020-09-02T08:54:18Z</time>
      </trkpt>
      <trkpt lat="43.90726" lon="5.61608">
        <ele>608.737</ele>
        <time>2020-09-02T08:54:19Z</time>
      </trkpt>
      <trkpt lat="43.90737" lon="5.61605">
        <ele>609.249</ele>
        <time>2020-09-02T08:54:20Z</time>
      </trkpt>
      <trkpt lat="43.90747" lon="5.61602">
        <ele>610.313</ele>
        <time>2020-09-02T08:54:21Z</time>
      </trkpt>
      <trkpt lat="43.90756" lon="5.61599">
        <ele>611.208</ele>
        <time>2020-09-02T08:54:22Z</time>
      </trkpt>
      <trkpt lat="43.90763" lon="5.61597">
        <ele>613.451</ele>
        <time>2020-09-02T08:54:23Z</time>
      </trkpt>
      <trkpt lat="43.90771" lon="5.61594">
        <ele>614.67</ele>
        <time>2020-09-02T08:54:24Z</time>
      </trkpt>
      <trkpt lat="43.90778" lon="5.6159">
        <ele>615.45</ele>
        <time>2020-09-02T08:54:25Z</time>
      </trkpt>
      <trkpt lat="43.90784" lon="5.61586">
        <ele>616.487</ele>
        <time>2020-09-02T08:54:26Z</time>
      </trkpt>
      <trkpt lat="43.90791" lon="5.61584">
        <ele>617.548</ele>
        <time>2020-09-02T08:54:27Z</time>
      </trkpt>
      <trkpt lat="43.90799" lon="5.61584">
        <ele>618.146</ele>
        <time>2020-09-02T08:54:28Z</time>
      </trkpt>
      <trkpt lat="43.90808" lon="5.61583">
        <ele>619.432</ele>
        <time>2020-09-02T08:54:29Z</time>
      </trkpt>
      <trkpt lat="43.90816" lon="5.61583">
        <ele>620.215</ele>
        <time>2020-09-02T08:54:30Z</time>
      </trkpt>
      <trkpt lat="43.90827" lon="5.61583">
        <ele>619.998</ele>
        <time>2020-09-02T08:54:31Z</time>
      </trkpt>
      <trkpt lat="43.90837" lon="5.61584">
        <ele>619.915</ele>
        <time>2020-09-02T08:54:32Z</time>
      </trkpt>
      <trkpt lat="43.90846" lon="5.61585">
        <ele>619.926</ele>
        <time>2020-09-02T08:54:33Z</time>
      </trkpt>
      <trkpt lat="43.90854" lon="5.61587">
        <ele>619.508</ele>
        <time>2020-09-02T08:54:34Z</time>
      </trkpt>
      <trkpt lat="43.9086" lon="5.61593">
        <ele>619.247</ele>
        <time>2020-09-02T08:54:35Z</time>
      </trkpt>
      <trkpt lat="43.90865" lon="5.61599">
        <ele>618.316</ele>
        <time>2020-09-02T08:54:36Z</time>
      </trkpt>
      <trkpt lat="43.90866" lon="5.61608">
        <ele>618.756</ele>
        <time>2020-09-02T08:54:37Z</time>
      </trkpt>
      <trkpt lat="43.90865" lon="5.61617">
        <ele>618.573</ele>
        <time>2020-09-02T08:54:38Z</time>
      </trkpt>
      <trkpt lat="43.90863" lon="5.61627">
        <ele>618.364</ele>
        <time>2020-09-02T08:54:39Z</time>
      </trkpt>
      <trkpt lat="43.90858" lon="5.61634">
        <ele>617.712</ele>
        <time>2020-09-02T08:54:40Z</time>
      </trkpt>
      <trkpt lat="43.90856" lon="5.61643">
        <ele>617.048</ele>
        <time>2020-09-02T08:54:41Z</time>
      </trkpt>
      <trkpt lat="43.90855" lon="5.61652">
        <ele>616.631</ele>
        <time>2020-09-02T08:54:42Z</time>
      </trkpt>
      <trkpt lat="43.90856" lon="5.6166">
        <ele>616.395</ele>
        <time>2020-09-02T08:54:43Z</time>
      </trkpt>
      <trkpt lat="43.90857" lon="5.61671">
        <ele>616.549</ele>
        <time>2020-09-02T08:54:44Z</time>
      </trkpt>
      <trkpt lat="43.9086" lon="5.61682">
        <ele>616.823</ele>
        <time>2020-09-02T08:54:45Z</time>
      </trkpt>
      <trkpt lat="43.90861" lon="5.61692">
        <ele>617.408</ele>
        <time>2020-09-02T08:54:46Z</time>
      </trkpt>
      <trkpt lat="43.90862" lon="5.61704">
        <ele>617.927</ele>
        <time>2020-09-02T08:54:47Z</time>
      </trkpt>
      <trkpt lat="43.90862" lon="5.61715">
        <ele>617.796</ele>
        <time>2020-09-02T08:54:48Z</time>
      </trkpt>
      <trkpt lat="43.9086" lon="5.61727">
        <ele>619.276</ele>
        <time>2020-09-02T08:54:49Z</time>
      </trkpt>
      <trkpt lat="43.90859" lon="5.6174">
        <ele>619.523</ele>
        <time>2020-09-02T08:54:50Z</time>
      </trkpt>
      <trkpt lat="43.9086" lon="5.61753">
        <ele>620.664</ele>
        <time>2020-09-02T08:54:51Z</time>
      </trkpt>
      <trkpt lat="43.90859" lon="5.61767">
        <ele>621.222</ele>
        <time>2020-09-02T08:54:52Z</time>
      </trkpt>
      <trkpt lat="43.90857" lon="5.6178">
        <ele>622.468</ele>
        <time>2020-09-02T08:54:53Z</time>
      </trkpt>
      <trkpt lat="43.90858" lon="5.61795">
        <ele>623.591</ele>
        <time>2020-09-02T08:54:54Z</time>
      </trkpt>
      <trkpt lat="43.90856" lon="5.61809">
        <ele>624.911</ele>
        <time>2020-09-02T08:54:55Z</time>
      </trkpt>
      <trkpt lat="43.90854" lon="5.61824">
        <ele>625.821</ele>
        <time>2020-09-02T08:54:56Z</time>
      </trkpt>
      <trkpt lat="43.9085" lon="5.61837">
        <ele>627.103</ele>
        <time>2020-09-02T08:54:57Z</time>
      </trkpt>
      <trkpt lat="43.90847" lon="5.61851">
        <ele>627.508</ele>
        <time>2020-09-02T08:54:58Z</time>
      </trkpt>
      <trkpt lat="43.90843" lon="5.61866">
        <ele>628.799</ele>
        <time>2020-09-02T08:54:59Z</time>
      </trkpt>
      <trkpt lat="43.90837" lon="5.6188">
        <ele>629.698</ele>
        <time>2020-09-02T08:55:00Z</time>
      </trkpt>
      <trkpt lat="43.90831" lon="5.61894">
        <ele>631.058</ele>
        <time>2020-09-02T08:55:01Z</time>
      </trkpt>
      <trkpt lat="43.90826" lon="5.61908">
        <ele>632.585</ele>
        <time>2020-09-02T08:55:02Z</time>
      </trkpt>
      <trkpt lat="43.9082" lon="5.61922">
        <ele>632.696</ele>
        <time>2020-09-02T08:55:03Z</time>
      </trkpt>
      <trkpt lat="43.90815" lon="5.61935">
        <ele>633.334</ele>
        <time>2020-09-02T08:55:04Z</time>
      </trkpt>
      <trkpt lat="43.90811" lon="5.61948">
        <ele>633.55</ele>
        <time>2020-09-02T08:55:05Z</time>
      </trkpt>
      <trkpt lat="43.9081" lon="5.61961">
        <ele>633.413</ele>
        <time>2020-09-02T08:55:06Z</time>
      </trkpt>
      <trkpt lat="43.90813" lon="5.6197">
        <ele>634.519</ele>
        <time>2020-09-02T08:55:07Z</time>
      </trkpt>
      <trkpt lat="43.90819" lon="5.61977">
        <ele>635.609</ele>
        <time>2020-09-02T08:55:08Z</time>
      </trkpt>
      <trkpt lat="43.90828" lon="5.61978">
        <ele>636.919</ele>
        <time>2020-09-02T08:55:09Z</time>
      </trkpt>
      <trkpt lat="43.90837" lon="5.61977">
        <ele>637.308</ele>
        <time>2020-09-02T08:55:10Z</time>
      </trkpt>
      <trkpt lat="43.90847" lon="5.61974">
        <ele>639.569</ele>
        <time>2020-09-02T08:55:11Z</time>
      </trkpt>
      <trkpt lat="43.90857" lon="5.61972">
        <ele>640.688</ele>
        <time>2020-09-02T08:55:12Z</time>
      </trkpt>
      <trkpt lat="43.90869" lon="5.61968">
        <ele>642.318</ele>
        <time>2020-09-02T08:55:13Z</time>
      </trkpt>
      <trkpt lat="43.9088" lon="5.61966">
        <ele>644.065</ele>
        <time>2020-09-02T08:55:14Z</time>
      </trkpt>
      <trkpt lat="43.90891" lon="5.61964">
        <ele>645.646</ele>
        <time>2020-09-02T08:55:15Z</time>
      </trkpt>
      <trkpt lat="43.90902" lon="5.61961">
        <ele>646.614</ele>
        <time>2020-09-02T08:55:16Z</time>
      </trkpt>
      <trkpt lat="43.90914" lon="5.61958">
        <ele>647.76</ele>
        <time>2020-09-02T08:55:17Z</time>
      </trkpt>
      <trkpt lat="43.90926" lon="5.61955">
        <ele>649.453</ele>
        <time>2020-09-02T08:55:18Z</time>
      </trkpt>
      <trkpt lat="43.90939" lon="5.61952">
        <ele>650.952</ele>
        <time>2020-09-02T08:55:19Z</time>
      </trkpt>
      <trkpt lat="43.90953" lon="5.6195">
        <ele>652.053</ele>
        <time>2020-09-02T08:55:20Z</time>
      </trkpt>
      <trkpt lat="43.90966" lon="5.61948">
        <ele>653.608</ele>
        <time>2020-09-02T08:55:21Z</time>
      </trkpt>
      <trkpt lat="43.90977" lon="5.61945">
        <ele>655.208</ele>
        <time>2020-09-02T08:55:22Z</time>
      </trkpt>
      <trkpt lat="43.90988" lon="5.61946">
        <ele>656.233</ele>
        <time>2020-09-02T08:55:23Z</time>
      </trkpt>
      <trkpt lat="43.90998" lon="5.61948">
        <ele>658.072</ele>
        <time>2020-09-02T08:55:24Z</time>
      </trkpt>
      <trkpt lat="43.9101" lon="5.61953">
        <ele>659.862</ele>
        <time>2020-09-02T08:55:25Z</time>
      </trkpt>
      <trkpt lat="43.91021" lon="5.6196">
        <ele>660.999</ele>
        <time>2020-09-02T08:55:26Z</time>
      </trkpt>
      <trkpt lat="43.91032" lon="5.61968">
        <ele>661.81</ele>
        <time>2020-09-02T08:55:27Z</time>
      </trkpt>
      <trkpt lat="43.91044" lon="5.61975">
        <ele>662.448</ele>
        <time>2020-09-02T08:55:28Z</time>
      </trkpt>
      <trkpt lat="43.91056" lon="5.61983">
        <ele>663.694</ele>
        <time>2020-09-02T08:55:29Z</time>
      </trkpt>
      <trkpt lat="43.91068" lon="5.61991">
        <ele>665.877</ele>
        <time>2020-09-02T08:55:30Z</time>
      </trkpt>
      <trkpt lat="43.91081" lon="5.61998">
        <ele>667.677</ele>
        <time>2020-09-02T08:55:31Z</time>
      </trkpt>
      <trkpt lat="43.91094" lon="5.62004">
        <ele>669.061</ele>
        <time>2020-09-02T08:55:32Z</time>
      </trkpt>
      <trkpt lat="43.91107" lon="5.62007">
        <ele>670.027</ele>
        <time>2020-09-02T08:55:33Z</time>
      </trkpt>
      <trkpt lat="43.91121" lon="5.62011">
        <ele>671.508</ele>
        <time>2020-09-02T08:55:34Z</time>
      </trkpt>
      <trkpt lat="43.91135" lon="5.62016">
        <ele>673.755</ele>
        <time>2020-09-02T08:55:35Z</time>
      </trkpt>
      <trkpt lat="43.9115" lon="5.62019">
        <ele>675.634</ele>
        <time>2020-09-02T08:55:36Z</time>
      </trkpt>
      <trkpt lat="43.91165" lon="5.62024">
        <ele>676.944</ele>
        <time>2020-09-02T08:55:37Z</time>
      </trkpt>
      <trkpt lat="43.9118" lon="5.62029">
        <ele>678.111</ele>
        <time>2020-09-02T08:55:38Z</time>
      </trkpt>
      <trkpt lat="43.91195" lon="5.62036">
        <ele>679.912</ele>
        <time>2020-09-02T08:55:39Z</time>
      </trkpt>
      <trkpt lat="43.91208" lon="5.62045">
        <ele>680.64</ele>
        <time>2020-09-02T08:55:40Z</time>
      </trkpt>
      <trkpt lat="43.91216" lon="5.62056">
        <ele>681.826</ele>
        <time>2020-09-02T08:55:41Z</time>
      </trkpt>
      <trkpt lat="43.91223" lon="5.62072">
        <ele>683.539</ele>
        <time>2020-09-02T08:55:42Z</time>
      </trkpt>
      <trkpt lat="43.91228" lon="5.62089">
        <ele>684.491</ele>
        <time>2020-09-02T08:55:43Z</time>
      </trkpt>
      <trkpt lat="43.91233" lon="5.62107">
        <ele>685.081</ele>
        <time>2020-09-02T08:55:44Z</time>
      </trkpt>
      <trkpt lat="43.91239" lon="5.62126">
        <ele>686.019</ele>
        <time>2020-09-02T08:55:45Z</time>
      </trkpt>
      <trkpt lat="43.91246" lon="5.62147">
        <ele>687.108</ele>
        <time>2020-09-02T08:55:46Z</time>
      </trkpt>
      <trkpt lat="43.91251" lon="5.62167">
        <ele>688.277</ele>
        <time>2020-09-02T08:55:47Z</time>
      </trkpt>
      <trkpt lat="43.91257" lon="5.62184">
        <ele>689.246</ele>
        <time>2020-09-02T08:55:48Z</time>
      </trkpt>
      <trkpt lat="43.91263" lon="5.622">
        <ele>690.776</ele>
        <time>2020-09-02T08:55:49Z</time>
      </trkpt>
      <trkpt lat="43.91271" lon="5.62214">
        <ele>691.763</ele>
        <time>2020-09-02T08:55:50Z</time>
      </trkpt>
      <trkpt lat="43.91281" lon="5.62225">
        <ele>693.144</ele>
        <time>2020-09-02T08:55:51Z</time>
      </trkpt>
      <trkpt lat="43.91293" lon="5.62234">
        <ele>695.732</ele>
        <time>2020-09-02T08:55:52Z</time>
      </trkpt>
      <trkpt lat="43.91305" lon="5.62244">
        <ele>696.288</ele>
        <time>2020-09-02T08:55:53Z</time>
      </trkpt>
      <trkpt lat="43.91319" lon="5.62253">
        <ele>698.121</ele>
        <time>2020-09-02T08:55:54Z</time>
      </trkpt>
      <trkpt lat="43.91334" lon="5.62264">
        <ele>698.452</ele>
        <time>2020-09-02T08:55:55Z</time>
      </trkpt>
      <trkpt lat="43.91349" lon="5.62274">
        <ele>699.853</ele>
        <time>2020-09-02T08:55:56Z</time>
      </trkpt>
      <trkpt lat="43.91365" lon="5.62285">
        <ele>701.108</ele>
        <time>2020-09-02T08:55:57Z</time>
      </trkpt>
      <trkpt lat="43.9138" lon="5.62297">
        <ele>702.308</ele>
        <time>2020-09-02T08:55:58Z</time>
      </trkpt>
      <trkpt lat="43.91397" lon="5.62308">
        <ele>703.533</ele>
        <time>2020-09-02T08:55:59Z</time>
      </trkpt>
      <trkpt lat="43.91414" lon="5.6232">
        <ele>704.662</ele>
        <time>2020-09-02T08:56:00Z</time>
      </trkpt>
      <trkpt lat="43.91433" lon="5.62333">
        <ele>705.812</ele>
        <time>2020-09-02T08:56:01Z</time>
      </trkpt>
      <trkpt lat="43.9145" lon="5.62345">
        <ele>705.419</ele>
        <time>2020-09-02T08:56:02Z</time>
      </trkpt>
      <trkpt lat="43.91467" lon="5.62357">
        <ele>706.01</ele>
        <time>2020-09-02T08:56:03Z</time>
      </trkpt>
      <trkpt lat="43.91483" lon="5.6237">
        <ele>709.448</ele>
        <time>2020-09-02T08:56:04Z</time>
      </trkpt>
      <trkpt lat="43.91499" lon="5.62381">
        <ele>711.174</ele>
        <time>2020-09-02T08:56:05Z</time>
      </trkpt>
      <trkpt lat="43.91513" lon="5.62392">
        <ele>712.567</ele>
        <time>2020-09-02T08:56:06Z</time>
      </trkpt>
      <trkpt lat="43.91526" lon="5.62399">
        <ele>714.517</ele>
        <time>2020-09-02T08:56:07Z</time>
      </trkpt>
      <trkpt lat="43.91539" lon="5.62402">
        <ele>715.887</ele>
        <time>2020-09-02T08:56:08Z</time>
      </trkpt>
      <trkpt lat="43.9155" lon="5.62401">
        <ele>717.015</ele>
        <time>2020-09-02T08:56:09Z</time>
      </trkpt>
      <trkpt lat="43.91562" lon="5.62396">
        <ele>719.308</ele>
        <time>2020-09-02T08:56:10Z</time>
      </trkpt>
      <trkpt lat="43.91574" lon="5.62389">
        <ele>721.359</ele>
        <time>2020-09-02T08:56:11Z</time>
      </trkpt>
      <trkpt lat="43.91585" lon="5.62381">
        <ele>722.918</ele>
        <time>2020-09-02T08:56:12Z</time>
      </trkpt>
      <trkpt lat="43.91597" lon="5.62373">
        <ele>725.148</ele>
        <time>2020-09-02T08:56:13Z</time>
      </trkpt>
      <trkpt lat="43.91609" lon="5.62365">
        <ele>727.145</ele>
        <time>2020-09-02T08:56:14Z</time>
      </trkpt>
      <trkpt lat="43.91621" lon="5.62359">
        <ele>728.996</ele>
        <time>2020-09-02T08:56:15Z</time>
      </trkpt>
      <trkpt lat="43.91633" lon="5.62351">
        <ele>730.774</ele>
        <time>2020-09-02T08:56:16Z</time>
      </trkpt>
      <trkpt lat="43.91645" lon="5.62342">
        <ele>732.45</ele>
        <time>2020-09-02T08:56:17Z</time>
      </trkpt>
      <trkpt lat="43.91658" lon="5.62334">
        <ele>734.383</ele>
        <time>2020-09-02T08:56:18Z</time>
      </trkpt>
      <trkpt lat="43.91671" lon="5.62326">
        <ele>736.029</ele>
        <time>2020-09-02T08:56:19Z</time>
      </trkpt>
      <trkpt lat="43.91684" lon="5.6232">
        <ele>737.7</ele>
        <time>2020-09-02T08:56:20Z</time>
      </trkpt>
      <trkpt lat="43.91699" lon="5.62317">
        <ele>739.82</ele>
        <time>2020-09-02T08:56:21Z</time>
      </trkpt>
      <trkpt lat="43.91713" lon="5.62316">
        <ele>742.208</ele>
        <time>2020-09-02T08:56:22Z</time>
      </trkpt>
      <trkpt lat="43.91727" lon="5.62316">
        <ele>744.15</ele>
        <time>2020-09-02T08:56:23Z</time>
      </trkpt>
      <trkpt lat="43.91742" lon="5.62317">
        <ele>745.719</ele>
        <time>2020-09-02T08:56:24Z</time>
      </trkpt>
      <trkpt lat="43.91757" lon="5.6232">
        <ele>747.639</ele>
        <time>2020-09-02T08:56:25Z</time>
      </trkpt>
      <trkpt lat="43.91772" lon="5.62321">
        <ele>750.096</ele>
        <time>2020-09-02T08:56:26Z</time>
      </trkpt>
      <trkpt lat="43.91788" lon="5.62323">
        <ele>751.717</ele>
        <time>2020-09-02T08:56:27Z</time>
      </trkpt>
      <trkpt lat="43.91804" lon="5.62325">
        <ele>753.825</ele>
        <time>2020-09-02T08:56:28Z</time>
      </trkpt>
      <trkpt lat="43.9182" lon="5.62324">
        <ele>755.351</ele>
        <time>2020-09-02T08:56:29Z</time>
      </trkpt>
      <trkpt lat="43.91836" lon="5.62321">
        <ele>756.714</ele>
        <time>2020-09-02T08:56:30Z</time>
      </trkpt>
      <trkpt lat="43.91852" lon="5.62318">
        <ele>758.711</ele>
        <time>2020-09-02T08:56:31Z</time>
      </trkpt>
      <trkpt lat="43.91868" lon="5.62313">
        <ele>760.521</ele>
        <time>2020-09-02T08:56:32Z</time>
      </trkpt>
      <trkpt lat="43.91885" lon="5.62308">
        <ele>761.903</ele>
        <time>2020-09-02T08:56:33Z</time>
      </trkpt>
      <trkpt lat="43.91902" lon="5.62302">
        <ele>763.508</ele>
        <time>2020-09-02T08:56:34Z</time>
      </trkpt>
      <trkpt lat="43.91919" lon="5.62299">
        <ele>764.789</ele>
        <time>2020-09-02T08:56:35Z</time>
      </trkpt>
      <trkpt lat="43.91937" lon="5.62294">
        <ele>766.578</ele>
        <time>2020-09-02T08:56:36Z</time>
      </trkpt>
      <trkpt lat="43.91955" lon="5.62288">
        <ele>768.818</ele>
        <time>2020-09-02T08:56:37Z</time>
      </trkpt>
      <trkpt lat="43.91973" lon="5.62282">
        <ele>770.615</ele>
        <time>2020-09-02T08:56:38Z</time>
      </trkpt>
      <trkpt lat="43.91991" lon="5.62277">
        <ele>772.866</ele>
        <time>2020-09-02T08:56:39Z</time>
      </trkpt>
      <trkpt lat="43.92008" lon="5.62271">
        <ele>774.534</ele>
        <time>2020-09-02T08:56:40Z</time>
      </trkpt>
      <trkpt lat="43.92024" lon="5.62266">
        <ele>777.31</ele>
        <time>2020-09-02T08:56:41Z</time>
      </trkpt>
      <trkpt lat="43.92037" lon="5.62264">
        <ele>780.273</ele>
        <time>2020-09-02T08:56:42Z</time>
      </trkpt>
      <trkpt lat="43.92048" lon="5.62265">
        <ele>781.847</ele>
        <time>2020-09-02T08:56:43Z</time>
      </trkpt>
      <trkpt lat="43.92059" lon="5.62269">
        <ele>782.929</ele>
        <time>2020-09-02T08:56:44Z</time>
      </trkpt>
      <trkpt lat="43.92068" lon="5.62276">
        <ele>783.821</ele>
        <time>2020-09-02T08:56:45Z</time>
      </trkpt>
      <trkpt lat="43.92076" lon="5.62285">
        <ele>784.508</ele>
        <time>2020-09-02T08:56:46Z</time>
      </trkpt>
      <trkpt lat="43.92086" lon="5.62294">
        <ele>785.372</ele>
        <time>2020-09-02T08:56:47Z</time>
      </trkpt>
      <trkpt lat="43.92097" lon="5.62303">
        <ele>786.081</ele>
        <time>2020-09-02T08:56:48Z</time>
      </trkpt>
      <trkpt lat="43.92109" lon="5.62314">
        <ele>786.941</ele>
        <time>2020-09-02T08:56:49Z</time>
      </trkpt>
      <trkpt lat="43.92121" lon="5.62324">
        <ele>787.548</ele>
        <time>2020-09-02T08:56:50Z</time>
      </trkpt>
      <trkpt lat="43.92134" lon="5.62336">
        <ele>787.939</ele>
        <time>2020-09-02T08:56:51Z</time>
      </trkpt>
      <trkpt lat="43.92148" lon="5.62347">
        <ele>788.857</ele>
        <time>2020-09-02T08:56:52Z</time>
      </trkpt>
      <trkpt lat="43.92162" lon="5.62359">
        <ele>789.793</ele>
        <time>2020-09-02T08:56:53Z</time>
      </trkpt>
      <trkpt lat="43.92176" lon="5.62371">
        <ele>790.396</ele>
        <time>2020-09-02T08:56:54Z</time>
      </trkpt>
      <trkpt lat="43.92188" lon="5.62386">
        <ele>791.057</ele>
        <time>2020-09-02T08:56:55Z</time>
      </trkpt>
      <trkpt lat="43.922" lon="5.624">
        <ele>792.6</ele>
        <time>2020-09-02T08:56:56Z</time>
      </trkpt>
      <trkpt lat="43.92212" lon="5.62415">
        <ele>793.22</ele>
        <time>2020-09-02T08:56:57Z</time>
      </trkpt>
      <trkpt lat="43.92225" lon="5.6243">
        <ele>795.208</ele>
        <time>2020-09-02T08:56:58Z</time>
      </trkpt>
      <trkpt lat="43.92236" lon="5.62445">
        <ele>797.243</ele>
        <time>2020-09-02T08:56:59Z</time>
      </trkpt>
      <trkpt lat="43.92247" lon="5.62459">
        <ele>798.282</ele>
        <time>2020-09-02T08:57:00Z</time>
      </trkpt>
      <trkpt lat="43.92258" lon="5.62473">
        <ele>799.262</ele>
        <time>2020-09-02T08:57:01Z</time>
      </trkpt>
      <trkpt lat="43.92271" lon="5.62486">
        <ele>800.989</ele>
        <time>2020-09-02T08:57:02Z</time>
      </trkpt>
      <trkpt lat="43.92282" lon="5.62502">
        <ele>802.35</ele>
        <time>2020-09-02T08:57:03Z</time>
      </trkpt>
      <trkpt lat="43.92294" lon="5.62516">
        <ele>803.378</ele>
        <time>2020-09-02T08:57:04Z</time>
      </trkpt>
      <trkpt lat="43.92307" lon="5.62532">
        <ele>804.874</ele>
        <time>2020-09-02T08:57:05Z</time>
      </trkpt>
      <trkpt lat="43.92319" lon="5.62547">
        <ele>806.417</ele>
        <time>2020-09-02T08:57:06Z</time>
      </trkpt>
      <trkpt lat="43.92332" lon="5.62564">
        <ele>807.412</ele>
        <time>2020-09-02T08:57:07Z</time>
      </trkpt>
      <trkpt lat="43.92345" lon="5.62579">
        <ele>809.332</ele>
        <time>2020-09-02T08:57:08Z</time>
      </trkpt>
      <trkpt lat="43.92357" lon="5.62596">
        <ele>810.705</ele>
        <time>2020-09-02T08:57:09Z</time>
      </trkpt>
      <trkpt lat="43.9237" lon="5.62611">
        <ele>811.908</ele>
        <time>2020-09-02T08:57:10Z</time>
      </trkpt>
      <trkpt lat="43.92384" lon="5.62626">
        <ele>812.639</ele>
        <time>2020-09-02T08:57:11Z</time>
      </trkpt>
      <trkpt lat="43.92397" lon="5.62641">
        <ele>813.338</ele>
        <time>2020-09-02T08:57:12Z</time>
      </trkpt>
      <trkpt lat="43.9241" lon="5.62658">
        <ele>814.218</ele>
        <time>2020-09-02T08:57:13Z</time>
      </trkpt>
      <trkpt lat="43.9242" lon="5.62676">
        <ele>814.985</ele>
        <time>2020-09-02T08:57:14Z</time>
      </trkpt>
      <trkpt lat="43.92432" lon="5.62693">
        <ele>814.766</ele>
        <time>2020-09-02T08:57:15Z</time>
      </trkpt>
      <trkpt lat="43.92442" lon="5.6271">
        <ele>814.994</ele>
        <time>2020-09-02T08:57:16Z</time>
      </trkpt>
      <trkpt lat="43.92453" lon="5.62726">
        <ele>815.19</ele>
        <time>2020-09-02T08:57:17Z</time>
      </trkpt>
      <trkpt lat="43.92464" lon="5.62739">
        <ele>815.353</ele>
        <time>2020-09-02T08:57:18Z</time>
      </trkpt>
      <trkpt lat="43.92475" lon="5.6275">
        <ele>815.278</ele>
        <time>2020-09-02T08:57:19Z</time>
      </trkpt>
      <trkpt lat="43.92487" lon="5.62757">
        <ele>815.433</ele>
        <time>2020-09-02T08:57:20Z</time>
      </trkpt>
      <trkpt lat="43.925" lon="5.6276">
        <ele>815.226</ele>
        <time>2020-09-02T08:57:21Z</time>
      </trkpt>
      <trkpt lat="43.92513" lon="5.62761">
        <ele>815.808</ele>
        <time>2020-09-02T08:57:22Z</time>
      </trkpt>
      <trkpt lat="43.92527" lon="5.62762">
        <ele>816.465</ele>
        <time>2020-09-02T08:57:23Z</time>
      </trkpt>
      <trkpt lat="43.92542" lon="5.62763">
        <ele>817.164</ele>
        <time>2020-09-02T08:57:24Z</time>
      </trkpt>
      <trkpt lat="43.92557" lon="5.62763">
        <ele>817.274</ele>
        <time>2020-09-02T08:57:25Z</time>
      </trkpt>
      <trkpt lat="43.92572" lon="5.62764">
        <ele>818.071</ele>
        <time>2020-09-02T08:57:26Z</time>
      </trkpt>
      <trkpt lat="43.92588" lon="5.62766">
        <ele>818.322</ele>
        <time>2020-09-02T08:57:27Z</time>
      </trkpt>
      <trkpt lat="43.92607" lon="5.62768">
        <ele>818.04</ele>
        <time>2020-09-02T08:57:28Z</time>
      </trkpt>
      <trkpt lat="43.92624" lon="5.62771">
        <ele>818.976</ele>
        <time>2020-09-02T08:57:29Z</time>
      </trkpt>
      <trkpt lat="43.92641" lon="5.62772">
        <ele>820.189</ele>
        <time>2020-09-02T08:57:30Z</time>
      </trkpt>
      <trkpt lat="43.92658" lon="5.62774">
        <ele>821.356</ele>
        <time>2020-09-02T08:57:31Z</time>
      </trkpt>
      <trkpt lat="43.92677" lon="5.62776">
        <ele>822.859</ele>
        <time>2020-09-02T08:57:32Z</time>
      </trkpt>
      <trkpt lat="43.92694" lon="5.62777">
        <ele>823.414</ele>
        <time>2020-09-02T08:57:33Z</time>
      </trkpt>
      <trkpt lat="43.9271" lon="5.62779">
        <ele>824.008</ele>
        <time>2020-09-02T08:57:34Z</time>
      </trkpt>
      <trkpt lat="43.92727" lon="5.62779">
        <ele>825.273</ele>
        <time>2020-09-02T08:57:35Z</time>
      </trkpt>
      <trkpt lat="43.92741" lon="5.6278">
        <ele>826.862</ele>
        <time>2020-09-02T08:57:36Z</time>
      </trkpt>
      <trkpt lat="43.92756" lon="5.62781">
        <ele>828.562</ele>
        <time>2020-09-02T08:57:37Z</time>
      </trkpt>
      <trkpt lat="43.92772" lon="5.62781">
        <ele>828.599</ele>
        <time>2020-09-02T08:57:38Z</time>
      </trkpt>
      <trkpt lat="43.92787" lon="5.6278">
        <ele>828.84</ele>
        <time>2020-09-02T08:57:39Z</time>
      </trkpt>
      <trkpt lat="43.92802" lon="5.62777">
        <ele>829.698</ele>
        <time>2020-09-02T08:57:40Z</time>
      </trkpt>
      <trkpt lat="43.92816" lon="5.62773">
        <ele>830.754</ele>
        <time>2020-09-02T08:57:41Z</time>
      </trkpt>
      <trkpt lat="43.92829" lon="5.6277">
        <ele>831.587</ele>
        <time>2020-09-02T08:57:42Z</time>
      </trkpt>
      <trkpt lat="43.92842" lon="5.62768">
        <ele>832.615</ele>
        <time>2020-09-02T08:57:43Z</time>
      </trkpt>
      <trkpt lat="43.92853" lon="5.62771">
        <ele>833.065</ele>
        <time>2020-09-02T08:57:44Z</time>
      </trkpt>
      <trkpt lat="43.92864" lon="5.62774">
        <ele>833.311</ele>
        <time>2020-09-02T08:57:45Z</time>
      </trkpt>
      <trkpt lat="43.92876" lon="5.62777">
        <ele>835.508</ele>
        <time>2020-09-02T08:57:46Z</time>
      </trkpt>
      <trkpt lat="43.92885" lon="5.62782">
        <ele>835.929</ele>
        <time>2020-09-02T08:57:47Z</time>
      </trkpt>
      <trkpt lat="43.92894" lon="5.62786">
        <ele>835.928</ele>
        <time>2020-09-02T08:57:48Z</time>
      </trkpt>
      <trkpt lat="43.92898" lon="5.62792">
        <ele>835.468</ele>
        <time>2020-09-02T08:57:49Z</time>
      </trkpt>
      <trkpt lat="43.92902" lon="5.62797">
        <ele>835.665</ele>
        <time>2020-09-02T08:57:50Z</time>
      </trkpt>
      <trkpt lat="43.92907" lon="5.628">
        <ele>834.786</ele>
        <time>2020-09-02T08:57:52Z</time>
      </trkpt>
      <trkpt lat="43.92911" lon="5.62795">
        <ele>835.624</ele>
        <time>2020-09-02T08:57:54Z</time>
      </trkpt>
      <trkpt lat="43.92915" lon="5.6279">
        <ele>835.72</ele>
        <time>2020-09-02T08:57:55Z</time>
      </trkpt>
      <trkpt lat="43.92919" lon="5.62787">
        <ele>836.593</ele>
        <time>2020-09-02T08:57:56Z</time>
      </trkpt>
      <trkpt lat="43.92926" lon="5.62782">
        <ele>837.147</ele>
        <time>2020-09-02T08:57:57Z</time>
      </trkpt>
      <trkpt lat="43.92934" lon="5.62778">
        <ele>837.629</ele>
        <time>2020-09-02T08:57:58Z</time>
      </trkpt>
      <trkpt lat="43.92943" lon="5.62772">
        <ele>838.621</ele>
        <time>2020-09-02T08:57:59Z</time>
      </trkpt>
      <trkpt lat="43.92952" lon="5.62766">
        <ele>838.908</ele>
        <time>2020-09-02T08:58:00Z</time>
      </trkpt>
      <trkpt lat="43.92962" lon="5.62758">
        <ele>838.852</ele>
        <time>2020-09-02T08:58:01Z</time>
      </trkpt>
      <trkpt lat="43.92975" lon="5.62751">
        <ele>839.441</ele>
        <time>2020-09-02T08:58:02Z</time>
      </trkpt>
      <trkpt lat="43.92987" lon="5.62744">
        <ele>840.681</ele>
        <time>2020-09-02T08:58:03Z</time>
      </trkpt>
      <trkpt lat="43.92999" lon="5.62736">
        <ele>841.678</ele>
        <time>2020-09-02T08:58:04Z</time>
      </trkpt>
      <trkpt lat="43.9301" lon="5.62731">
        <ele>842.669</ele>
        <time>2020-09-02T08:58:05Z</time>
      </trkpt>
      <trkpt lat="43.93022" lon="5.62727">
        <ele>843.257</ele>
        <time>2020-09-02T08:58:06Z</time>
      </trkpt>
      <trkpt lat="43.93034" lon="5.62723">
        <ele>843.733</ele>
        <time>2020-09-02T08:58:07Z</time>
      </trkpt>
      <trkpt lat="43.93047" lon="5.62721">
        <ele>843.766</ele>
        <time>2020-09-02T08:58:08Z</time>
      </trkpt>
      <trkpt lat="43.9306" lon="5.62719">
        <ele>843.789</ele>
        <time>2020-09-02T08:58:09Z</time>
      </trkpt>
      <trkpt lat="43.9307" lon="5.62717">
        <ele>843.806</ele>
        <time>2020-09-02T08:58:10Z</time>
      </trkpt>
      <trkpt lat="43.93079" lon="5.62717">
        <ele>843.626</ele>
        <time>2020-09-02T08:58:11Z</time>
      </trkpt>
      <trkpt lat="43.93087" lon="5.62721">
        <ele>843.308</ele>
        <time>2020-09-02T08:58:12Z</time>
      </trkpt>
      <trkpt lat="43.93094" lon="5.62728">
        <ele>843.066</ele>
        <time>2020-09-02T08:58:13Z</time>
      </trkpt>
      <trkpt lat="43.93099" lon="5.62739">
        <ele>843.115</ele>
        <time>2020-09-02T08:58:14Z</time>
      </trkpt>
      <trkpt lat="43.93102" lon="5.62752">
        <ele>843.215</ele>
        <time>2020-09-02T08:58:15Z</time>
      </trkpt>
      <trkpt lat="43.93106" lon="5.62768">
        <ele>844.052</ele>
        <time>2020-09-02T08:58:16Z</time>
      </trkpt>
      <trkpt lat="43.93109" lon="5.62783">
        <ele>844.693</ele>
        <time>2020-09-02T08:58:17Z</time>
      </trkpt>
      <trkpt lat="43.93108" lon="5.62801">
        <ele>845.451</ele>
        <time>2020-09-02T08:58:18Z</time>
      </trkpt>
      <trkpt lat="43.93108" lon="5.62821">
        <ele>845.647</ele>
        <time>2020-09-02T08:58:19Z</time>
      </trkpt>
      <trkpt lat="43.93109" lon="5.62841">
        <ele>845.51</ele>
        <time>2020-09-02T08:58:20Z</time>
      </trkpt>
      <trkpt lat="43.93112" lon="5.6286">
        <ele>846.028</ele>
        <time>2020-09-02T08:58:21Z</time>
      </trkpt>
      <trkpt lat="43.93115" lon="5.62878">
        <ele>846.489</ele>
        <time>2020-09-02T08:58:22Z</time>
      </trkpt>
      <trkpt lat="43.93116" lon="5.62891">
        <ele>845.817</ele>
        <time>2020-09-02T08:58:23Z</time>
      </trkpt>
      <trkpt lat="43.9312" lon="5.629">
        <ele>846.608</ele>
        <time>2020-09-02T08:58:24Z</time>
      </trkpt>
      <trkpt lat="43.93124" lon="5.62905">
        <ele>846.63</ele>
        <time>2020-09-02T08:58:25Z</time>
      </trkpt>
      <trkpt lat="43.93128" lon="5.62907">
        <ele>847.139</ele>
        <time>2020-09-02T08:58:26Z</time>
      </trkpt>
      <trkpt lat="43.93139" lon="5.62905">
        <ele>847.959</ele>
        <time>2020-09-02T08:58:27Z</time>
      </trkpt>
      <trkpt lat="43.93148" lon="5.62905">
        <ele>848.566</ele>
        <time>2020-09-02T08:58:28Z</time>
      </trkpt>
      <trkpt lat="43.93157" lon="5.62907">
        <ele>849.317</ele>
        <time>2020-09-02T08:58:29Z</time>
      </trkpt>
      <trkpt lat="43.93168" lon="5.62909">
        <ele>849.765</ele>
        <time>2020-09-02T08:58:30Z</time>
      </trkpt>
      <trkpt lat="43.9318" lon="5.62913">
        <ele>850.271</ele>
        <time>2020-09-02T08:58:31Z</time>
      </trkpt>
      <trkpt lat="43.93194" lon="5.62916">
        <ele>851.114</ele>
        <time>2020-09-02T08:58:32Z</time>
      </trkpt>
      <trkpt lat="43.93208" lon="5.62918">
        <ele>852.067</ele>
        <time>2020-09-02T08:58:33Z</time>
      </trkpt>
      <trkpt lat="43.93223" lon="5.62922">
        <ele>853.181</ele>
        <time>2020-09-02T08:58:34Z</time>
      </trkpt>
      <trkpt lat="43.93236" lon="5.62924">
        <ele>854.319</ele>
        <time>2020-09-02T08:58:35Z</time>
      </trkpt>
      <trkpt lat="43.93251" lon="5.62928">
        <ele>854.708</ele>
        <time>2020-09-02T08:58:36Z</time>
      </trkpt>
      <trkpt lat="43.93264" lon="5.62932">
        <ele>855.244</ele>
        <time>2020-09-02T08:58:37Z</time>
      </trkpt>
      <trkpt lat="43.93278" lon="5.62938">
        <ele>856.293</ele>
        <time>2020-09-02T08:58:38Z</time>
      </trkpt>
      <trkpt lat="43.93293" lon="5.62944">
        <ele>857.163</ele>
        <time>2020-09-02T08:58:39Z</time>
      </trkpt>
      <trkpt lat="43.93308" lon="5.62954">
        <ele>857.78</ele>
        <time>2020-09-02T08:58:40Z</time>
      </trkpt>
      <trkpt lat="43.93323" lon="5.62962">
        <ele>858.861</ele>
        <time>2020-09-02T08:58:41Z</time>
      </trkpt>
      <trkpt lat="43.93338" lon="5.62971">
        <ele>860.239</ele>
        <time>2020-09-02T08:58:42Z</time>
      </trkpt>
      <trkpt lat="43.93353" lon="5.62981">
        <ele>861.675</ele>
        <time>2020-09-02T08:58:43Z</time>
      </trkpt>
      <trkpt lat="43.93367" lon="5.6299">
        <ele>862.098</ele>
        <time>2020-09-02T08:58:44Z</time>
      </trkpt>
      <trkpt lat="43.93379" lon="5.62998">
        <ele>862.544</ele>
        <time>2020-09-02T08:58:45Z</time>
      </trkpt>
      <trkpt lat="43.93392" lon="5.63003">
        <ele>863.105</ele>
        <time>2020-09-02T08:58:46Z</time>
      </trkpt>
      <trkpt lat="43.93406" lon="5.63007">
        <ele>864.015</ele>
        <time>2020-09-02T08:58:47Z</time>
      </trkpt>
      <trkpt lat="43.93419" lon="5.63009">
        <ele>864.208</ele>
        <time>2020-09-02T08:58:48Z</time>
      </trkpt>
      <trkpt lat="43.93433" lon="5.6301">
        <ele>864.682</ele>
        <time>2020-09-02T08:58:49Z</time>
      </trkpt>
      <trkpt lat="43.93448" lon="5.63012">
        <ele>865.091</ele>
        <time>2020-09-02T08:58:50Z</time>
      </trkpt>
      <trkpt lat="43.93462" lon="5.63016">
        <ele>865.321</ele>
        <time>2020-09-02T08:58:51Z</time>
      </trkpt>
      <trkpt lat="43.93476" lon="5.6302">
        <ele>865.728</ele>
        <time>2020-09-02T08:58:52Z</time>
      </trkpt>
      <trkpt lat="43.93489" lon="5.63025">
        <ele>866.189</ele>
        <time>2020-09-02T08:58:53Z</time>
      </trkpt>
      <trkpt lat="43.93501" lon="5.63031">
        <ele>866.147</ele>
        <time>2020-09-02T08:58:54Z</time>
      </trkpt>
      <trkpt lat="43.93513" lon="5.63036">
        <ele>866.453</ele>
        <time>2020-09-02T08:58:55Z</time>
      </trkpt>
      <trkpt lat="43.93524" lon="5.6304">
        <ele>866.766</ele>
        <time>2020-09-02T08:58:56Z</time>
      </trkpt>
      <trkpt lat="43.93535" lon="5.63044">
        <ele>866.979</ele>
        <time>2020-09-02T08:58:57Z</time>
      </trkpt>
      <trkpt lat="43.93547" lon="5.63048">
        <ele>866.405</ele>
        <time>2020-09-02T08:58:58Z</time>
      </trkpt>
      <trkpt lat="43.93558" lon="5.63052">
        <ele>866.125</ele>
        <time>2020-09-02T08:58:59Z</time>
      </trkpt>
      <trkpt lat="43.93569" lon="5.63057">
        <ele>866.008</ele>
        <time>2020-09-02T08:59:00Z</time>
      </trkpt>
      <trkpt lat="43.9358" lon="5.63063">
        <ele>865.955</ele>
        <time>2020-09-02T08:59:01Z</time>
      </trkpt>
      <trkpt lat="43.93594" lon="5.63071">
        <ele>866.024</ele>
        <time>2020-09-02T08:59:02Z</time>
      </trkpt>
      <trkpt lat="43.93606" lon="5.63079">
        <ele>865.264</ele>
        <time>2020-09-02T08:59:03Z</time>
      </trkpt>
      <trkpt lat="43.93619" lon="5.63086">
        <ele>865.131</ele>
        <time>2020-09-02T08:59:04Z</time>
      </trkpt>
      <trkpt lat="43.93632" lon="5.63093">
        <ele>865.332</ele>
        <time>2020-09-02T08:59:05Z</time>
      </trkpt>
      <trkpt lat="43.93643" lon="5.631">
        <ele>865.38</ele>
        <time>2020-09-02T08:59:06Z</time>
      </trkpt>
      <trkpt lat="43.93653" lon="5.63106">
        <ele>864.916</ele>
        <time>2020-09-02T08:59:07Z</time>
      </trkpt>
      <trkpt lat="43.93662" lon="5.63111">
        <ele>864.639</ele>
        <time>2020-09-02T08:59:08Z</time>
      </trkpt>
      <trkpt lat="43.93671" lon="5.63116">
        <ele>864.556</ele>
        <time>2020-09-02T08:59:09Z</time>
      </trkpt>
      <trkpt lat="43.9368" lon="5.63121">
        <ele>864.359</ele>
        <time>2020-09-02T08:59:10Z</time>
      </trkpt>
      <trkpt lat="43.93689" lon="5.63128">
        <ele>864.614</ele>
        <time>2020-09-02T08:59:11Z</time>
      </trkpt>
      <trkpt lat="43.93697" lon="5.63136">
        <ele>865.008</ele>
        <time>2020-09-02T08:59:12Z</time>
      </trkpt>
      <trkpt lat="43.93702" lon="5.63146">
        <ele>865.063</ele>
        <time>2020-09-02T08:59:13Z</time>
      </trkpt>
      <trkpt lat="43.93707" lon="5.63155">
        <ele>864.872</ele>
        <time>2020-09-02T08:59:14Z</time>
      </trkpt>
      <trkpt lat="43.93712" lon="5.63162">
        <ele>863.672</ele>
        <time>2020-09-02T08:59:15Z</time>
      </trkpt>
      <trkpt lat="43.93719" lon="5.63168">
        <ele>862.829</ele>
        <time>2020-09-02T08:59:16Z</time>
      </trkpt>
      <trkpt lat="43.93725" lon="5.63171">
        <ele>863.66</ele>
        <time>2020-09-02T08:59:17Z</time>
      </trkpt>
      <trkpt lat="43.93733" lon="5.63173">
        <ele>863.738</ele>
        <time>2020-09-02T08:59:18Z</time>
      </trkpt>
      <trkpt lat="43.93741" lon="5.63173">
        <ele>863.414</ele>
        <time>2020-09-02T08:59:19Z</time>
      </trkpt>
      <trkpt lat="43.93747" lon="5.63171">
        <ele>863.597</ele>
        <time>2020-09-02T08:59:20Z</time>
      </trkpt>
      <trkpt lat="43.93754" lon="5.6317">
        <ele>863.789</ele>
        <time>2020-09-02T08:59:21Z</time>
      </trkpt>
      <trkpt lat="43.93762" lon="5.6317">
        <ele>863.806</ele>
        <time>2020-09-02T08:59:22Z</time>
      </trkpt>
      <trkpt lat="43.93771" lon="5.6317">
        <ele>863.626</ele>
        <time>2020-09-02T08:59:23Z</time>
      </trkpt>
      <trkpt lat="43.9378" lon="5.63171">
        <ele>863.608</ele>
        <time>2020-09-02T08:59:24Z</time>
      </trkpt>
      <trkpt lat="43.9379" lon="5.63171">
        <ele>863.636</ele>
        <time>2020-09-02T08:59:25Z</time>
      </trkpt>
      <trkpt lat="43.93797" lon="5.63172">
        <ele>863.315</ele>
        <time>2020-09-02T08:59:26Z</time>
      </trkpt>
      <trkpt lat="43.93805" lon="5.63173">
        <ele>863.295</ele>
        <time>2020-09-02T08:59:27Z</time>
      </trkpt>
      <trkpt lat="43.93812" lon="5.63177">
        <ele>863.262</ele>
        <time>2020-09-02T08:59:28Z</time>
      </trkpt>
      <trkpt lat="43.93819" lon="5.63183">
        <ele>862.873</ele>
        <time>2020-09-02T08:59:29Z</time>
      </trkpt>
      <trkpt lat="43.93827" lon="5.63191">
        <ele>861.321</ele>
        <time>2020-09-02T08:59:30Z</time>
      </trkpt>
      <trkpt lat="43.93833" lon="5.63194">
        <ele>861.637</ele>
        <time>2020-09-02T08:59:31Z</time>
      </trkpt>
      <trkpt lat="43.9384" lon="5.63198">
        <ele>861.67</ele>
        <time>2020-09-02T08:59:32Z</time>
      </trkpt>
      <trkpt lat="43.93847" lon="5.63201">
        <ele>861.631</ele>
        <time>2020-09-02T08:59:33Z</time>
      </trkpt>
      <trkpt lat="43.93854" lon="5.63205">
        <ele>861.761</ele>
        <time>2020-09-02T08:59:34Z</time>
      </trkpt>
      <trkpt lat="43.93861" lon="5.63208">
        <ele>861.707</ele>
        <time>2020-09-02T08:59:35Z</time>
      </trkpt>
      <trkpt lat="43.93869" lon="5.6321">
        <ele>862.508</ele>
        <time>2020-09-02T08:59:36Z</time>
      </trkpt>
      <trkpt lat="43.93877" lon="5.63212">
        <ele>862.481</ele>
        <time>2020-09-02T08:59:37Z</time>
      </trkpt>
      <trkpt lat="43.93884" lon="5.63214">
        <ele>862.27</ele>
        <time>2020-09-02T08:59:38Z</time>
      </trkpt>
      <trkpt lat="43.93892" lon="5.63216">
        <ele>863.19</ele>
        <time>2020-09-02T08:59:39Z</time>
      </trkpt>
      <trkpt lat="43.93899" lon="5.63216">
        <ele>862.847</ele>
        <time>2020-09-02T08:59:40Z</time>
      </trkpt>
      <trkpt lat="43.93906" lon="5.63207">
        <ele>862.128</ele>
        <time>2020-09-02T08:59:42Z</time>
      </trkpt>
      <trkpt lat="43.93907" lon="5.63199">
        <ele>861.926</ele>
        <time>2020-09-02T08:59:43Z</time>
      </trkpt>
      <trkpt lat="43.93908" lon="5.63191">
        <ele>862.892</ele>
        <time>2020-09-02T08:59:44Z</time>
      </trkpt>
      <trkpt lat="43.9391" lon="5.63181">
        <ele>864.085</ele>
        <time>2020-09-02T08:59:46Z</time>
      </trkpt>
      <trkpt lat="43.93914" lon="5.63173">
        <ele>864.697</ele>
        <time>2020-09-02T08:59:48Z</time>
      </trkpt>
      <trkpt lat="43.93909" lon="5.63177">
        <ele>865.123</ele>
        <time>2020-09-02T08:59:53Z</time>
      </trkpt>
      <trkpt lat="43.93909" lon="5.63186">
        <ele>864.125</ele>
        <time>2020-09-02T08:59:55Z</time>
      </trkpt>
      <trkpt lat="43.93908" lon="5.63195">
        <ele>863.508</ele>
        <time>2020-09-02T08:59:57Z</time>
      </trkpt>
      <trkpt lat="43.93906" lon="5.63204">
        <ele>863.637</ele>
        <time>2020-09-02T09:00:00Z</time>
      </trkpt>
      <trkpt lat="43.93904" lon="5.63211">
        <ele>863.436</ele>
        <time>2020-09-02T09:00:02Z</time>
      </trkpt>
      <trkpt lat="43.93898" lon="5.63216">
        <ele>863.146</ele>
        <time>2020-09-02T09:00:05Z</time>
      </trkpt>
      <trkpt lat="43.93888" lon="5.63213">
        <ele>862.993</ele>
        <time>2020-09-02T09:00:07Z</time>
      </trkpt>
      <trkpt lat="43.93883" lon="5.63211">
        <ele>863.234</ele>
        <time>2020-09-02T09:00:08Z</time>
      </trkpt>
      <trkpt lat="43.93878" lon="5.63209">
        <ele>863.592</ele>
        <time>2020-09-02T09:00:09Z</time>
      </trkpt>
      <trkpt lat="43.93871" lon="5.6321">
        <ele>863.738</ele>
        <time>2020-09-02T09:00:11Z</time>
      </trkpt>
      <trkpt lat="43.93868" lon="5.63216">
        <ele>862.891</ele>
        <time>2020-09-02T09:00:13Z</time>
      </trkpt>
      <trkpt lat="43.9387" lon="5.63222">
        <ele>862.371</ele>
        <time>2020-09-02T09:00:15Z</time>
      </trkpt>
      <trkpt lat="43.93877" lon="5.63228">
        <ele>862.041</ele>
        <time>2020-09-02T09:00:17Z</time>
      </trkpt>
      <trkpt lat="43.93882" lon="5.63229">
        <ele>861.915</ele>
        <time>2020-09-02T09:00:18Z</time>
      </trkpt>
      <trkpt lat="43.93891" lon="5.63227">
        <ele>861.808</ele>
        <time>2020-09-02T09:00:20Z</time>
      </trkpt>
      <trkpt lat="43.93896" lon="5.6323">
        <ele>861.835</ele>
        <time>2020-09-02T09:00:22Z</time>
      </trkpt>
      <trkpt lat="43.93904" lon="5.63233">
        <ele>860.934</ele>
        <time>2020-09-02T09:00:24Z</time>
      </trkpt>
      <trkpt lat="43.93912" lon="5.63234">
        <ele>860.534</ele>
        <time>2020-09-02T09:00:26Z</time>
      </trkpt>
      <trkpt lat="43.9392" lon="5.6324">
        <ele>860.321</ele>
        <time>2020-09-02T09:00:28Z</time>
      </trkpt>
      <trkpt lat="43.9393" lon="5.6324">
        <ele>859.192</ele>
        <time>2020-09-02T09:00:30Z</time>
      </trkpt>
      <trkpt lat="43.93937" lon="5.63238">
        <ele>858.84</ele>
        <time>2020-09-02T09:00:32Z</time>
      </trkpt>
      <trkpt lat="43.93944" lon="5.63239">
        <ele>857.876</ele>
        <time>2020-09-02T09:00:34Z</time>
      </trkpt>
      <trkpt lat="43.9395" lon="5.63242">
        <ele>857.759</ele>
        <time>2020-09-02T09:00:35Z</time>
      </trkpt>
      <trkpt lat="43.93959" lon="5.63242">
        <ele>855.065</ele>
        <time>2020-09-02T09:00:37Z</time>
      </trkpt>
      <trkpt lat="43.93968" lon="5.63243">
        <ele>854.068</ele>
        <time>2020-09-02T09:00:39Z</time>
      </trkpt>
      <trkpt lat="43.93972" lon="5.63241">
        <ele>853.214</ele>
        <time>2020-09-02T09:00:40Z</time>
      </trkpt>
      <trkpt lat="43.93981" lon="5.63239">
        <ele>853.408</ele>
        <time>2020-09-02T09:00:42Z</time>
      </trkpt>
      <trkpt lat="43.9399" lon="5.63236">
        <ele>852.384</ele>
        <time>2020-09-02T09:00:44Z</time>
      </trkpt>
      <trkpt lat="43.93994" lon="5.63237">
        <ele>852.283</ele>
        <time>2020-09-02T09:00:45Z</time>
      </trkpt>
      <trkpt lat="43.93999" lon="5.63238">
        <ele>852.783</ele>
        <time>2020-09-02T09:00:46Z</time>
      </trkpt>
      <trkpt lat="43.94005" lon="5.63237">
        <ele>852.35</ele>
        <time>2020-09-02T09:00:47Z</time>
      </trkpt>
      <trkpt lat="43.9401" lon="5.63238">
        <ele>851.281</ele>
        <time>2020-09-02T09:00:48Z</time>
      </trkpt>
      <trkpt lat="43.94015" lon="5.63236">
        <ele>851.099</ele>
        <time>2020-09-02T09:00:49Z</time>
      </trkpt>
      <trkpt lat="43.9402" lon="5.63238">
        <ele>850.465</ele>
        <time>2020-09-02T09:00:50Z</time>
      </trkpt>
      <trkpt lat="43.94029" lon="5.63235">
        <ele>848.238</ele>
        <time>2020-09-02T09:00:52Z</time>
      </trkpt>
      <trkpt lat="43.94034" lon="5.63233">
        <ele>847.681</ele>
        <time>2020-09-02T09:00:53Z</time>
      </trkpt>
      <trkpt lat="43.94039" lon="5.6323">
        <ele>846.661</ele>
        <time>2020-09-02T09:00:54Z</time>
      </trkpt>
      <trkpt lat="43.94043" lon="5.63227">
        <ele>844.917</ele>
        <time>2020-09-02T09:00:55Z</time>
      </trkpt>
      <trkpt lat="43.94049" lon="5.63224">
        <ele>844.708</ele>
        <time>2020-09-02T09:00:56Z</time>
      </trkpt>
      <trkpt lat="43.94054" lon="5.63223">
        <ele>843.346</ele>
        <time>2020-09-02T09:00:57Z</time>
      </trkpt>
      <trkpt lat="43.94059" lon="5.6322">
        <ele>842.175</ele>
        <time>2020-09-02T09:00:58Z</time>
      </trkpt>
      <trkpt lat="43.94065" lon="5.63217">
        <ele>840.935</ele>
        <time>2020-09-02T09:00:59Z</time>
      </trkpt>
      <trkpt lat="43.94071" lon="5.63216">
        <ele>840.112</ele>
        <time>2020-09-02T09:01:00Z</time>
      </trkpt>
      <trkpt lat="43.94076" lon="5.63213">
        <ele>838.623</ele>
        <time>2020-09-02T09:01:01Z</time>
      </trkpt>
      <trkpt lat="43.94081" lon="5.63211">
        <ele>838.211</ele>
        <time>2020-09-02T09:01:02Z</time>
      </trkpt>
      <trkpt lat="43.94087" lon="5.63209">
        <ele>837.767</ele>
        <time>2020-09-02T09:01:03Z</time>
      </trkpt>
      <trkpt lat="43.94092" lon="5.63207">
        <ele>836.96</ele>
        <time>2020-09-02T09:01:04Z</time>
      </trkpt>
      <trkpt lat="43.94097" lon="5.63205">
        <ele>836.493</ele>
        <time>2020-09-02T09:01:05Z</time>
      </trkpt>
      <trkpt lat="43.94102" lon="5.63204">
        <ele>836.165</ele>
        <time>2020-09-02T09:01:06Z</time>
      </trkpt>
      <trkpt lat="43.94108" lon="5.63204">
        <ele>836.221</ele>
        <time>2020-09-02T09:01:07Z</time>
      </trkpt>
      <trkpt lat="43.94113" lon="5.63203">
        <ele>835.908</ele>
        <time>2020-09-02T09:01:08Z</time>
      </trkpt>
      <trkpt lat="43.94119" lon="5.63204">
        <ele>834.787</ele>
        <time>2020-09-02T09:01:09Z</time>
      </trkpt>
      <trkpt lat="43.9413" lon="5.63202">
        <ele>833.356</ele>
        <time>2020-09-02T09:01:11Z</time>
      </trkpt>
      <trkpt lat="43.94136" lon="5.632">
        <ele>832.786</ele>
        <time>2020-09-02T09:01:12Z</time>
      </trkpt>
      <trkpt lat="43.94145" lon="5.63197">
        <ele>831.693</ele>
        <time>2020-09-02T09:01:14Z</time>
      </trkpt>
      <trkpt lat="43.9415" lon="5.63195">
        <ele>830.764</ele>
        <time>2020-09-02T09:01:15Z</time>
      </trkpt>
      <trkpt lat="43.94155" lon="5.63194">
        <ele>830.392</ele>
        <time>2020-09-02T09:01:16Z</time>
      </trkpt>
      <trkpt lat="43.9416" lon="5.63194">
        <ele>829.798</ele>
        <time>2020-09-02T09:01:17Z</time>
      </trkpt>
      <trkpt lat="43.94165" lon="5.63194">
        <ele>829.081</ele>
        <time>2020-09-02T09:01:18Z</time>
      </trkpt>
      <trkpt lat="43.94172" lon="5.63194">
        <ele>828.813</ele>
        <time>2020-09-02T09:01:19Z</time>
      </trkpt>
      <trkpt lat="43.94179" lon="5.63195">
        <ele>827.443</ele>
        <time>2020-09-02T09:01:20Z</time>
      </trkpt>
      <trkpt lat="43.94185" lon="5.63195">
        <ele>826.807</ele>
        <time>2020-09-02T09:01:21Z</time>
      </trkpt>
      <trkpt lat="43.94191" lon="5.63195">
        <ele>825.808</ele>
        <time>2020-09-02T09:01:22Z</time>
      </trkpt>
      <trkpt lat="43.94197" lon="5.63195">
        <ele>825.459</ele>
        <time>2020-09-02T09:01:23Z</time>
      </trkpt>
      <trkpt lat="43.94202" lon="5.63195">
        <ele>824.688</ele>
        <time>2020-09-02T09:01:24Z</time>
      </trkpt>
      <trkpt lat="43.94208" lon="5.63195">
        <ele>824.418</ele>
        <time>2020-09-02T09:01:25Z</time>
      </trkpt>
      <trkpt lat="43.94214" lon="5.63194">
        <ele>823.885</ele>
        <time>2020-09-02T09:01:26Z</time>
      </trkpt>
      <trkpt lat="43.94218" lon="5.63192">
        <ele>823.266</ele>
        <time>2020-09-02T09:01:27Z</time>
      </trkpt>
      <trkpt lat="43.94223" lon="5.6319">
        <ele>822.654</ele>
        <time>2020-09-02T09:01:28Z</time>
      </trkpt>
      <trkpt lat="43.94228" lon="5.6319">
        <ele>821.78</ele>
        <time>2020-09-02T09:01:29Z</time>
      </trkpt>
      <trkpt lat="43.94233" lon="5.63192">
        <ele>821.113</ele>
        <time>2020-09-02T09:01:30Z</time>
      </trkpt>
      <trkpt lat="43.94238" lon="5.63196">
        <ele>819.143</ele>
        <time>2020-09-02T09:01:31Z</time>
      </trkpt>
      <trkpt lat="43.94242" lon="5.63201">
        <ele>817.864</ele>
        <time>2020-09-02T09:01:32Z</time>
      </trkpt>
      <trkpt lat="43.9425" lon="5.63203">
        <ele>816.61</ele>
        <time>2020-09-02T09:01:34Z</time>
      </trkpt>
      <trkpt lat="43.94256" lon="5.63208">
        <ele>814.108</ele>
        <time>2020-09-02T09:01:36Z</time>
      </trkpt>
      <trkpt lat="43.9426" lon="5.6321">
        <ele>813.282</ele>
        <time>2020-09-02T09:01:37Z</time>
      </trkpt>
      <trkpt lat="43.94267" lon="5.63216">
        <ele>811.191</ele>
        <time>2020-09-02T09:01:39Z</time>
      </trkpt>
      <trkpt lat="43.94272" lon="5.63219">
        <ele>810.431</ele>
        <time>2020-09-02T09:01:41Z</time>
      </trkpt>
      <trkpt lat="43.94274" lon="5.63224">
        <ele>809.518</ele>
        <time>2020-09-02T09:01:43Z</time>
      </trkpt>
      <trkpt lat="43.9428" lon="5.63231">
        <ele>808.639</ele>
        <time>2020-09-02T09:01:45Z</time>
      </trkpt>
      <trkpt lat="43.94287" lon="5.63236">
        <ele>807.147</ele>
        <time>2020-09-02T09:01:47Z</time>
      </trkpt>
      <trkpt lat="43.94293" lon="5.63238">
        <ele>805.933</ele>
        <time>2020-09-02T09:01:49Z</time>
      </trkpt>
      <trkpt lat="43.943" lon="5.63237">
        <ele>804.656</ele>
        <time>2020-09-02T09:01:51Z</time>
      </trkpt>
      <trkpt lat="43.94307" lon="5.63239">
        <ele>803.744</ele>
        <time>2020-09-02T09:01:53Z</time>
      </trkpt>
      <trkpt lat="43.94314" lon="5.63242">
        <ele>802.805</ele>
        <time>2020-09-02T09:01:55Z</time>
      </trkpt>
      <trkpt lat="43.94322" lon="5.63246">
        <ele>802.115</ele>
        <time>2020-09-02T09:01:57Z</time>
      </trkpt>
      <trkpt lat="43.94328" lon="5.63252">
        <ele>801.408</ele>
        <time>2020-09-02T09:01:58Z</time>
      </trkpt>
      <trkpt lat="43.94334" lon="5.63256">
        <ele>800.442</ele>
        <time>2020-09-02T09:01:59Z</time>
      </trkpt>
      <trkpt lat="43.9434" lon="5.63262">
        <ele>799.971</ele>
        <time>2020-09-02T09:02:00Z</time>
      </trkpt>
      <trkpt lat="43.94347" lon="5.63267">
        <ele>799.351</ele>
        <time>2020-09-02T09:02:01Z</time>
      </trkpt>
      <trkpt lat="43.94352" lon="5.63271">
        <ele>798.778</ele>
        <time>2020-09-02T09:02:02Z</time>
      </trkpt>
      <trkpt lat="43.94357" lon="5.63275">
        <ele>798.849</ele>
        <time>2020-09-02T09:02:03Z</time>
      </trkpt>
      <trkpt lat="43.94361" lon="5.63279">
        <ele>798.137</ele>
        <time>2020-09-02T09:02:04Z</time>
      </trkpt>
      <trkpt lat="43.94365" lon="5.63283">
        <ele>797.353</ele>
        <time>2020-09-02T09:02:05Z</time>
      </trkpt>
      <trkpt lat="43.94369" lon="5.63288">
        <ele>796.756</ele>
        <time>2020-09-02T09:02:06Z</time>
      </trkpt>
      <trkpt lat="43.94373" lon="5.63293">
        <ele>796.613</ele>
        <time>2020-09-02T09:02:07Z</time>
      </trkpt>
      <trkpt lat="43.94376" lon="5.63298">
        <ele>796.443</ele>
        <time>2020-09-02T09:02:08Z</time>
      </trkpt>
      <trkpt lat="43.9438" lon="5.63302">
        <ele>795.807</ele>
        <time>2020-09-02T09:02:09Z</time>
      </trkpt>
      <trkpt lat="43.94384" lon="5.63308">
        <ele>794.808</ele>
        <time>2020-09-02T09:02:11Z</time>
      </trkpt>
      <trkpt lat="43.94386" lon="5.63313">
        <ele>795.129</ele>
        <time>2020-09-02T09:04:15Z</time>
      </trkpt>
      <trkpt lat="43.94394" lon="5.63318">
        <ele>795.198</ele>
        <time>2020-09-02T09:04:17Z</time>
      </trkpt>
      <trkpt lat="43.944" lon="5.63324">
        <ele>794.838</ele>
        <time>2020-09-02T09:04:19Z</time>
      </trkpt>
      <trkpt lat="43.9441" lon="5.63328">
        <ele>794.975</ele>
        <time>2020-09-02T09:04:21Z</time>
      </trkpt>
      <trkpt lat="43.94417" lon="5.63329">
        <ele>794.676</ele>
        <time>2020-09-02T09:04:22Z</time>
      </trkpt>
      <trkpt lat="43.94426" lon="5.63332">
        <ele>794.384</ele>
        <time>2020-09-02T09:04:23Z</time>
      </trkpt>
      <trkpt lat="43.94434" lon="5.63336">
        <ele>793.11</ele>
        <time>2020-09-02T09:04:24Z</time>
      </trkpt>
      <trkpt lat="43.94442" lon="5.6334">
        <ele>792.683</ele>
        <time>2020-09-02T09:04:25Z</time>
      </trkpt>
      <trkpt lat="43.9445" lon="5.63343">
        <ele>792.355</ele>
        <time>2020-09-02T09:04:26Z</time>
      </trkpt>
      <trkpt lat="43.94458" lon="5.63345">
        <ele>791.907</ele>
        <time>2020-09-02T09:04:27Z</time>
      </trkpt>
      <trkpt lat="43.94466" lon="5.6334">
        <ele>790.917</ele>
        <time>2020-09-02T09:04:28Z</time>
      </trkpt>
      <trkpt lat="43.94475" lon="5.63337">
        <ele>790.308</ele>
        <time>2020-09-02T09:04:29Z</time>
      </trkpt>
      <trkpt lat="43.94485" lon="5.63333">
        <ele>789.223</ele>
        <time>2020-09-02T09:04:30Z</time>
      </trkpt>
      <trkpt lat="43.94496" lon="5.63328">
        <ele>788.462</ele>
        <time>2020-09-02T09:04:31Z</time>
      </trkpt>
      <trkpt lat="43.94507" lon="5.63323">
        <ele>787.792</ele>
        <time>2020-09-02T09:04:32Z</time>
      </trkpt>
      <trkpt lat="43.94517" lon="5.63319">
        <ele>786.889</ele>
        <time>2020-09-02T09:04:33Z</time>
      </trkpt>
      <trkpt lat="43.94528" lon="5.63316">
        <ele>785.41</ele>
        <time>2020-09-02T09:04:34Z</time>
      </trkpt>
      <trkpt lat="43.94537" lon="5.63313">
        <ele>783.948</ele>
        <time>2020-09-02T09:04:35Z</time>
      </trkpt>
      <trkpt lat="43.94547" lon="5.63308">
        <ele>782.224</ele>
        <time>2020-09-02T09:04:36Z</time>
      </trkpt>
      <trkpt lat="43.94557" lon="5.63304">
        <ele>781.217</ele>
        <time>2020-09-02T09:04:37Z</time>
      </trkpt>
      <trkpt lat="43.94569" lon="5.633">
        <ele>780.176</ele>
        <time>2020-09-02T09:04:38Z</time>
      </trkpt>
      <trkpt lat="43.94581" lon="5.63299">
        <ele>778.89</ele>
        <time>2020-09-02T09:04:39Z</time>
      </trkpt>
      <trkpt lat="43.94593" lon="5.633">
        <ele>777.719</ele>
        <time>2020-09-02T09:04:40Z</time>
      </trkpt>
      <trkpt lat="43.94605" lon="5.63301">
        <ele>776.508</ele>
        <time>2020-09-02T09:04:41Z</time>
      </trkpt>
      <trkpt lat="43.94617" lon="5.63306">
        <ele>775.685</ele>
        <time>2020-09-02T09:04:42Z</time>
      </trkpt>
      <trkpt lat="43.94629" lon="5.63309">
        <ele>774.554</ele>
        <time>2020-09-02T09:04:43Z</time>
      </trkpt>
      <trkpt lat="43.94642" lon="5.63309">
        <ele>774.384</ele>
        <time>2020-09-02T09:04:44Z</time>
      </trkpt>
      <trkpt lat="43.94656" lon="5.63309">
        <ele>773.071</ele>
        <time>2020-09-02T09:04:45Z</time>
      </trkpt>
      <trkpt lat="43.9467" lon="5.63309">
        <ele>771.832</ele>
        <time>2020-09-02T09:04:46Z</time>
      </trkpt>
      <trkpt lat="43.94682" lon="5.63306">
        <ele>769.98</ele>
        <time>2020-09-02T09:04:47Z</time>
      </trkpt>
      <trkpt lat="43.94694" lon="5.63305">
        <ele>768.446</ele>
        <time>2020-09-02T09:04:48Z</time>
      </trkpt>
      <trkpt lat="43.94706" lon="5.63301">
        <ele>767.559</ele>
        <time>2020-09-02T09:04:49Z</time>
      </trkpt>
      <trkpt lat="43.94718" lon="5.63296">
        <ele>766.851</ele>
        <time>2020-09-02T09:04:50Z</time>
      </trkpt>
      <trkpt lat="43.94729" lon="5.63288">
        <ele>766.201</ele>
        <time>2020-09-02T09:04:51Z</time>
      </trkpt>
      <trkpt lat="43.94739" lon="5.63282">
        <ele>764.811</ele>
        <time>2020-09-02T09:04:52Z</time>
      </trkpt>
      <trkpt lat="43.94748" lon="5.63274">
        <ele>763.608</ele>
        <time>2020-09-02T09:04:53Z</time>
      </trkpt>
      <trkpt lat="43.94751" lon="5.63269">
        <ele>762.853</ele>
        <time>2020-09-02T09:04:54Z</time>
      </trkpt>
      <trkpt lat="43.94757" lon="5.63262">
        <ele>760.452</ele>
        <time>2020-09-02T09:04:56Z</time>
      </trkpt>
      <trkpt lat="43.94764" lon="5.63257">
        <ele>758.162</ele>
        <time>2020-09-02T09:04:58Z</time>
      </trkpt>
      <trkpt lat="43.94768" lon="5.63255">
        <ele>757.959</ele>
        <time>2020-09-02T09:04:59Z</time>
      </trkpt>
      <trkpt lat="43.94773" lon="5.63253">
        <ele>757.03</ele>
        <time>2020-09-02T09:05:00Z</time>
      </trkpt>
      <trkpt lat="43.94782" lon="5.6325">
        <ele>756.478</ele>
        <time>2020-09-02T09:05:02Z</time>
      </trkpt>
      <trkpt lat="43.94788" lon="5.63249">
        <ele>755.734</ele>
        <time>2020-09-02T09:05:03Z</time>
      </trkpt>
      <trkpt lat="43.94794" lon="5.63248">
        <ele>755.167</ele>
        <time>2020-09-02T09:05:04Z</time>
      </trkpt>
      <trkpt lat="43.948" lon="5.6325">
        <ele>754.111</ele>
        <time>2020-09-02T09:05:05Z</time>
      </trkpt>
      <trkpt lat="43.94809" lon="5.63252">
        <ele>752.521</ele>
        <time>2020-09-02T09:05:06Z</time>
      </trkpt>
      <trkpt lat="43.94816" lon="5.63255">
        <ele>751.703</ele>
        <time>2020-09-02T09:05:07Z</time>
      </trkpt>
      <trkpt lat="43.94824" lon="5.63256">
        <ele>750.908</ele>
        <time>2020-09-02T09:05:08Z</time>
      </trkpt>
      <trkpt lat="43.94831" lon="5.63257">
        <ele>750.089</ele>
        <time>2020-09-02T09:05:09Z</time>
      </trkpt>
      <trkpt lat="43.94838" lon="5.63259">
        <ele>748.988</ele>
        <time>2020-09-02T09:05:10Z</time>
      </trkpt>
      <trkpt lat="43.94844" lon="5.63259">
        <ele>747.728</ele>
        <time>2020-09-02T09:05:11Z</time>
      </trkpt>
      <trkpt lat="43.94851" lon="5.6326">
        <ele>746.475</ele>
        <time>2020-09-02T09:05:12Z</time>
      </trkpt>
      <trkpt lat="43.94857" lon="5.63261">
        <ele>745.686</ele>
        <time>2020-09-02T09:05:13Z</time>
      </trkpt>
      <trkpt lat="43.94864" lon="5.63263">
        <ele>744.574</ele>
        <time>2020-09-02T09:05:14Z</time>
      </trkpt>
      <trkpt lat="43.9487" lon="5.63267">
        <ele>744.55</ele>
        <time>2020-09-02T09:05:15Z</time>
      </trkpt>
      <trkpt lat="43.94874" lon="5.6327">
        <ele>743.143</ele>
        <time>2020-09-02T09:05:16Z</time>
      </trkpt>
      <trkpt lat="43.94878" lon="5.63276">
        <ele>742.212</ele>
        <time>2020-09-02T09:05:17Z</time>
      </trkpt>
      <trkpt lat="43.94881" lon="5.63283">
        <ele>741.632</ele>
        <time>2020-09-02T09:05:18Z</time>
      </trkpt>
      <trkpt lat="43.94883" lon="5.63292">
        <ele>741.005</ele>
        <time>2020-09-02T09:05:19Z</time>
      </trkpt>
      <trkpt lat="43.94885" lon="5.63302">
        <ele>740.408</ele>
        <time>2020-09-02T09:05:20Z</time>
      </trkpt>
      <trkpt lat="43.94887" lon="5.63313">
        <ele>739.799</ele>
        <time>2020-09-02T09:05:21Z</time>
      </trkpt>
      <trkpt lat="43.94889" lon="5.63324">
        <ele>739.678</ele>
        <time>2020-09-02T09:05:22Z</time>
      </trkpt>
      <trkpt lat="43.9489" lon="5.63335">
        <ele>738.888</ele>
        <time>2020-09-02T09:05:23Z</time>
      </trkpt>
      <trkpt lat="43.94892" lon="5.63346">
        <ele>737.845</ele>
        <time>2020-09-02T09:05:24Z</time>
      </trkpt>
      <trkpt lat="43.94894" lon="5.63358">
        <ele>736.796</ele>
        <time>2020-09-02T09:05:25Z</time>
      </trkpt>
      <trkpt lat="43.94896" lon="5.63368">
        <ele>736.224</ele>
        <time>2020-09-02T09:05:26Z</time>
      </trkpt>
      <trkpt lat="43.94898" lon="5.63379">
        <ele>735.51</ele>
        <time>2020-09-02T09:05:27Z</time>
      </trkpt>
      <trkpt lat="43.949" lon="5.6339">
        <ele>734.813</ele>
        <time>2020-09-02T09:05:28Z</time>
      </trkpt>
      <trkpt lat="43.94902" lon="5.63401">
        <ele>734.146</ele>
        <time>2020-09-02T09:05:29Z</time>
      </trkpt>
      <trkpt lat="43.94904" lon="5.63411">
        <ele>733.888</ele>
        <time>2020-09-02T09:05:30Z</time>
      </trkpt>
      <trkpt lat="43.94906" lon="5.63419">
        <ele>733.116</ele>
        <time>2020-09-02T09:05:31Z</time>
      </trkpt>
      <trkpt lat="43.94912" lon="5.63428">
        <ele>732.308</ele>
        <time>2020-09-02T09:05:32Z</time>
      </trkpt>
      <trkpt lat="43.94916" lon="5.63435">
        <ele>730.712</ele>
        <time>2020-09-02T09:05:33Z</time>
      </trkpt>
      <trkpt lat="43.94921" lon="5.63443">
        <ele>730.071</ele>
        <time>2020-09-02T09:05:34Z</time>
      </trkpt>
      <trkpt lat="43.94925" lon="5.63451">
        <ele>729.891</ele>
        <time>2020-09-02T09:05:35Z</time>
      </trkpt>
      <trkpt lat="43.94929" lon="5.63459">
        <ele>729.988</ele>
        <time>2020-09-02T09:05:36Z</time>
      </trkpt>
      <trkpt lat="43.94934" lon="5.63466">
        <ele>729.759</ele>
        <time>2020-09-02T09:05:37Z</time>
      </trkpt>
      <trkpt lat="43.9494" lon="5.63472">
        <ele>729.477</ele>
        <time>2020-09-02T09:05:38Z</time>
      </trkpt>
      <trkpt lat="43.94946" lon="5.63478">
        <ele>729.163</ele>
        <time>2020-09-02T09:05:39Z</time>
      </trkpt>
      <trkpt lat="43.94953" lon="5.63476">
        <ele>729.056</ele>
        <time>2020-09-02T09:05:40Z</time>
      </trkpt>
      <trkpt lat="43.9496" lon="5.63476">
        <ele>728.825</ele>
        <time>2020-09-02T09:05:41Z</time>
      </trkpt>
      <trkpt lat="43.94967" lon="5.63475">
        <ele>728.326</ele>
        <time>2020-09-02T09:05:42Z</time>
      </trkpt>
      <trkpt lat="43.94973" lon="5.63474">
        <ele>728.008</ele>
        <time>2020-09-02T09:05:43Z</time>
      </trkpt>
      <trkpt lat="43.94979" lon="5.63473">
        <ele>727.708</ele>
        <time>2020-09-02T09:05:44Z</time>
      </trkpt>
      <trkpt lat="43.94984" lon="5.63473">
        <ele>727.64</ele>
        <time>2020-09-02T09:05:45Z</time>
      </trkpt>
      <trkpt lat="43.94993" lon="5.63469">
        <ele>728.659</ele>
        <time>2020-09-02T09:05:47Z</time>
      </trkpt>
      <trkpt lat="43.94998" lon="5.63469">
        <ele>728.739</ele>
        <time>2020-09-02T09:05:48Z</time>
      </trkpt>
      <trkpt lat="43.95007" lon="5.63464">
        <ele>729.336</ele>
        <time>2020-09-02T09:05:50Z</time>
      </trkpt>
      <trkpt lat="43.95013" lon="5.63459">
        <ele>729.067</ele>
        <time>2020-09-02T09:05:51Z</time>
      </trkpt>
      <trkpt lat="43.95017" lon="5.63453">
        <ele>729.235</ele>
        <time>2020-09-02T09:05:52Z</time>
      </trkpt>
      <trkpt lat="43.95021" lon="5.63447">
        <ele>729.131</ele>
        <time>2020-09-02T09:05:53Z</time>
      </trkpt>
      <trkpt lat="43.95024" lon="5.63442">
        <ele>728.954</ele>
        <time>2020-09-02T09:05:54Z</time>
      </trkpt>
      <trkpt lat="43.95027" lon="5.63435">
        <ele>728.885</ele>
        <time>2020-09-02T09:05:55Z</time>
      </trkpt>
      <trkpt lat="43.95031" lon="5.63427">
        <ele>728.489</ele>
        <time>2020-09-02T09:05:56Z</time>
      </trkpt>
      <trkpt lat="43.95035" lon="5.63419">
        <ele>727.917</ele>
        <time>2020-09-02T09:05:57Z</time>
      </trkpt>
      <trkpt lat="43.95039" lon="5.6341">
        <ele>727.108</ele>
        <time>2020-09-02T09:05:58Z</time>
      </trkpt>
      <trkpt lat="43.95044" lon="5.63401">
        <ele>725.716</ele>
        <time>2020-09-02T09:05:59Z</time>
      </trkpt>
      <trkpt lat="43.95048" lon="5.63393">
        <ele>725.165</ele>
        <time>2020-09-02T09:06:00Z</time>
      </trkpt>
      <trkpt lat="43.95053" lon="5.63386">
        <ele>725.215</ele>
        <time>2020-09-02T09:06:01Z</time>
      </trkpt>
      <trkpt lat="43.95058" lon="5.63379">
        <ele>724.622</ele>
        <time>2020-09-02T09:06:02Z</time>
      </trkpt>
      <trkpt lat="43.95063" lon="5.63372">
        <ele>724.393</ele>
        <time>2020-09-02T09:06:03Z</time>
      </trkpt>
      <trkpt lat="43.95069" lon="5.63364">
        <ele>723.891</ele>
        <time>2020-09-02T09:06:04Z</time>
      </trkpt>
      <trkpt lat="43.95075" lon="5.63356">
        <ele>723.317</ele>
        <time>2020-09-02T09:06:05Z</time>
      </trkpt>
      <trkpt lat="43.95081" lon="5.63349">
        <ele>722.88</ele>
        <time>2020-09-02T09:06:06Z</time>
      </trkpt>
      <trkpt lat="43.95089" lon="5.63343">
        <ele>722.743</ele>
        <time>2020-09-02T09:06:07Z</time>
      </trkpt>
      <trkpt lat="43.95096" lon="5.63336">
        <ele>722.664</ele>
        <time>2020-09-02T09:06:08Z</time>
      </trkpt>
      <trkpt lat="43.95103" lon="5.63329">
        <ele>722.51</ele>
        <time>2020-09-02T09:06:09Z</time>
      </trkpt>
      <trkpt lat="43.95111" lon="5.63323">
        <ele>722.008</ele>
        <time>2020-09-02T09:06:10Z</time>
      </trkpt>
      <trkpt lat="43.95118" lon="5.63316">
        <ele>721.952</ele>
        <time>2020-09-02T09:06:11Z</time>
      </trkpt>
      <trkpt lat="43.95124" lon="5.6331">
        <ele>721.271</ele>
        <time>2020-09-02T09:06:12Z</time>
      </trkpt>
      <trkpt lat="43.9513" lon="5.63306">
        <ele>720.951</ele>
        <time>2020-09-02T09:06:13Z</time>
      </trkpt>
      <trkpt lat="43.95137" lon="5.63303">
        <ele>720.578</ele>
        <time>2020-09-02T09:06:14Z</time>
      </trkpt>
      <trkpt lat="43.95144" lon="5.63301">
        <ele>720.029</ele>
        <time>2020-09-02T09:06:15Z</time>
      </trkpt>
      <trkpt lat="43.95149" lon="5.633">
        <ele>719.867</ele>
        <time>2020-09-02T09:06:16Z</time>
      </trkpt>
      <trkpt lat="43.95156" lon="5.63301">
        <ele>719.313</ele>
        <time>2020-09-02T09:06:17Z</time>
      </trkpt>
      <trkpt lat="43.95165" lon="5.633">
        <ele>719.256</ele>
        <time>2020-09-02T09:06:18Z</time>
      </trkpt>
      <trkpt lat="43.95173" lon="5.633">
        <ele>718.547</ele>
        <time>2020-09-02T09:06:19Z</time>
      </trkpt>
      <trkpt lat="43.95182" lon="5.63299">
        <ele>717.829</ele>
        <time>2020-09-02T09:06:20Z</time>
      </trkpt>
      <trkpt lat="43.9519" lon="5.63297">
        <ele>717.521</ele>
        <time>2020-09-02T09:06:21Z</time>
      </trkpt>
      <trkpt lat="43.95199" lon="5.63295">
        <ele>717.008</ele>
        <time>2020-09-02T09:06:22Z</time>
      </trkpt>
      <trkpt lat="43.95206" lon="5.63292">
        <ele>716.822</ele>
        <time>2020-09-02T09:06:23Z</time>
      </trkpt>
      <trkpt lat="43.95214" lon="5.63291">
        <ele>715.791</ele>
        <time>2020-09-02T09:06:24Z</time>
      </trkpt>
      <trkpt lat="43.9522" lon="5.63292">
        <ele>711.991</ele>
        <time>2020-09-02T09:06:25Z</time>
      </trkpt>
      <trkpt lat="43.95227" lon="5.63295">
        <ele>711.278</ele>
        <time>2020-09-02T09:06:26Z</time>
      </trkpt>
      <trkpt lat="43.95233" lon="5.63296">
        <ele>709.749</ele>
        <time>2020-09-02T09:06:27Z</time>
      </trkpt>
      <trkpt lat="43.95239" lon="5.63298">
        <ele>708.267</ele>
        <time>2020-09-02T09:06:28Z</time>
      </trkpt>
      <trkpt lat="43.95243" lon="5.63307">
        <ele>706.863</ele>
        <time>2020-09-02T09:06:29Z</time>
      </trkpt>
      <trkpt lat="43.95244" lon="5.63315">
        <ele>707.466</ele>
        <time>2020-09-02T09:06:30Z</time>
      </trkpt>
      <trkpt lat="43.95248" lon="5.63323">
        <ele>707.517</ele>
        <time>2020-09-02T09:06:31Z</time>
      </trkpt>
      <trkpt lat="43.95248" lon="5.63333">
        <ele>708.987</ele>
        <time>2020-09-02T09:06:32Z</time>
      </trkpt>
      <trkpt lat="43.95249" lon="5.63341">
        <ele>709.215</ele>
        <time>2020-09-02T09:06:33Z</time>
      </trkpt>
      <trkpt lat="43.95253" lon="5.63348">
        <ele>710.508</ele>
        <time>2020-09-02T09:06:34Z</time>
      </trkpt>
      <trkpt lat="43.95257" lon="5.63354">
        <ele>710.699</ele>
        <time>2020-09-02T09:06:35Z</time>
      </trkpt>
      <trkpt lat="43.95262" lon="5.6336">
        <ele>710.738</ele>
        <time>2020-09-02T09:06:36Z</time>
      </trkpt>
      <trkpt lat="43.95268" lon="5.63365">
        <ele>710.068</ele>
        <time>2020-09-02T09:06:37Z</time>
      </trkpt>
      <trkpt lat="43.95274" lon="5.63369">
        <ele>709.325</ele>
        <time>2020-09-02T09:06:38Z</time>
      </trkpt>
      <trkpt lat="43.95281" lon="5.63373">
        <ele>707.516</ele>
        <time>2020-09-02T09:06:39Z</time>
      </trkpt>
      <trkpt lat="43.95285" lon="5.63381">
        <ele>706.024</ele>
        <time>2020-09-02T09:06:40Z</time>
      </trkpt>
      <trkpt lat="43.9529" lon="5.63387">
        <ele>705.46</ele>
        <time>2020-09-02T09:06:41Z</time>
      </trkpt>
      <trkpt lat="43.95294" lon="5.63392">
        <ele>706.813</ele>
        <time>2020-09-02T09:06:42Z</time>
      </trkpt>
      <trkpt lat="43.95299" lon="5.63395">
        <ele>706.899</ele>
        <time>2020-09-02T09:06:43Z</time>
      </trkpt>
      <trkpt lat="43.95303" lon="5.6339">
        <ele>706.007</ele>
        <time>2020-09-02T09:06:44Z</time>
      </trkpt>
      <trkpt lat="43.95308" lon="5.63384">
        <ele>704.427</ele>
        <time>2020-09-02T09:06:45Z</time>
      </trkpt>
      <trkpt lat="43.9531" lon="5.63376">
        <ele>704.308</ele>
        <time>2020-09-02T09:06:46Z</time>
      </trkpt>
      <trkpt lat="43.95312" lon="5.63367">
        <ele>702.937</ele>
        <time>2020-09-02T09:06:47Z</time>
      </trkpt>
      <trkpt lat="43.95315" lon="5.63358">
        <ele>700.886</ele>
        <time>2020-09-02T09:06:48Z</time>
      </trkpt>
      <trkpt lat="43.95318" lon="5.63348">
        <ele>699.046</ele>
        <time>2020-09-02T09:06:49Z</time>
      </trkpt>
      <trkpt lat="43.95321" lon="5.63339">
        <ele>697.893</ele>
        <time>2020-09-02T09:06:50Z</time>
      </trkpt>
      <trkpt lat="43.95325" lon="5.63329">
        <ele>696.474</ele>
        <time>2020-09-02T09:06:51Z</time>
      </trkpt>
      <trkpt lat="43.95331" lon="5.6332">
        <ele>694.082</ele>
        <time>2020-09-02T09:06:52Z</time>
      </trkpt>
      <trkpt lat="43.95337" lon="5.63311">
        <ele>692.948</ele>
        <time>2020-09-02T09:06:53Z</time>
      </trkpt>
      <trkpt lat="43.95341" lon="5.63302">
        <ele>692.271</ele>
        <time>2020-09-02T09:06:54Z</time>
      </trkpt>
      <trkpt lat="43.95347" lon="5.63295">
        <ele>691.672</ele>
        <time>2020-09-02T09:06:55Z</time>
      </trkpt>
      <trkpt lat="43.95353" lon="5.63289">
        <ele>690.613</ele>
        <time>2020-09-02T09:06:56Z</time>
      </trkpt>
      <trkpt lat="43.9536" lon="5.63284">
        <ele>690.314</ele>
        <time>2020-09-02T09:06:57Z</time>
      </trkpt>
      <trkpt lat="43.95369" lon="5.6328">
        <ele>689.908</ele>
        <time>2020-09-02T09:06:58Z</time>
      </trkpt>
      <trkpt lat="43.95377" lon="5.63277">
        <ele>689.745</ele>
        <time>2020-09-02T09:06:59Z</time>
      </trkpt>
      <trkpt lat="43.95387" lon="5.63273">
        <ele>689.834</ele>
        <time>2020-09-02T09:07:00Z</time>
      </trkpt>
      <trkpt lat="43.95395" lon="5.63269">
        <ele>689.874</ele>
        <time>2020-09-02T09:07:01Z</time>
      </trkpt>
      <trkpt lat="43.95404" lon="5.63264">
        <ele>689.581</ele>
        <time>2020-09-02T09:07:02Z</time>
      </trkpt>
      <trkpt lat="43.95411" lon="5.63259">
        <ele>689.592</ele>
        <time>2020-09-02T09:07:03Z</time>
      </trkpt>
      <trkpt lat="43.95418" lon="5.63254">
        <ele>688.97</ele>
        <time>2020-09-02T09:07:04Z</time>
      </trkpt>
      <trkpt lat="43.95425" lon="5.6325">
        <ele>687.856</ele>
        <time>2020-09-02T09:07:05Z</time>
      </trkpt>
      <trkpt lat="43.95431" lon="5.63246">
        <ele>686.329</ele>
        <time>2020-09-02T09:07:06Z</time>
      </trkpt>
      <trkpt lat="43.95438" lon="5.63242">
        <ele>685.724</ele>
        <time>2020-09-02T09:07:07Z</time>
      </trkpt>
      <trkpt lat="43.95445" lon="5.63239">
        <ele>685.104</ele>
        <time>2020-09-02T09:07:08Z</time>
      </trkpt>
      <trkpt lat="43.95451" lon="5.63237">
        <ele>684.314</ele>
        <time>2020-09-02T09:07:09Z</time>
      </trkpt>
      <trkpt lat="43.95458" lon="5.63236">
        <ele>683.408</ele>
        <time>2020-09-02T09:07:10Z</time>
      </trkpt>
      <trkpt lat="43.95465" lon="5.63236">
        <ele>683.73</ele>
        <time>2020-09-02T09:07:11Z</time>
      </trkpt>
      <trkpt lat="43.95472" lon="5.63236">
        <ele>684.029</ele>
        <time>2020-09-02T09:07:12Z</time>
      </trkpt>
      <trkpt lat="43.95479" lon="5.63236">
        <ele>683.329</ele>
        <time>2020-09-02T09:07:13Z</time>
      </trkpt>
      <trkpt lat="43.95486" lon="5.63236">
        <ele>682.266</ele>
        <time>2020-09-02T09:07:14Z</time>
      </trkpt>
      <trkpt lat="43.95493" lon="5.63237">
        <ele>679.887</ele>
        <time>2020-09-02T09:07:15Z</time>
      </trkpt>
      <trkpt lat="43.95501" lon="5.6324">
        <ele>679.275</ele>
        <time>2020-09-02T09:07:16Z</time>
      </trkpt>
      <trkpt lat="43.95509" lon="5.63242">
        <ele>678.751</ele>
        <time>2020-09-02T09:07:17Z</time>
      </trkpt>
      <trkpt lat="43.95516" lon="5.63244">
        <ele>678.344</ele>
        <time>2020-09-02T09:07:18Z</time>
      </trkpt>
      <trkpt lat="43.95523" lon="5.63244">
        <ele>677.771</ele>
        <time>2020-09-02T09:07:19Z</time>
      </trkpt>
      <trkpt lat="43.95529" lon="5.63242">
        <ele>676.541</ele>
        <time>2020-09-02T09:07:20Z</time>
      </trkpt>
      <trkpt lat="43.95537" lon="5.63239">
        <ele>675.715</ele>
        <time>2020-09-02T09:07:21Z</time>
      </trkpt>
      <trkpt lat="43.95544" lon="5.63236">
        <ele>674.908</ele>
        <time>2020-09-02T09:07:22Z</time>
      </trkpt>
      <trkpt lat="43.95548" lon="5.63232">
        <ele>674.515</ele>
        <time>2020-09-02T09:07:23Z</time>
      </trkpt>
      <trkpt lat="43.95553" lon="5.63224">
        <ele>672.834</ele>
        <time>2020-09-02T09:07:24Z</time>
      </trkpt>
      <trkpt lat="43.95558" lon="5.63218">
        <ele>671.784</ele>
        <time>2020-09-02T09:07:25Z</time>
      </trkpt>
      <trkpt lat="43.95563" lon="5.63213">
        <ele>670.191</ele>
        <time>2020-09-02T09:07:26Z</time>
      </trkpt>
      <trkpt lat="43.9557" lon="5.6321">
        <ele>669.572</ele>
        <time>2020-09-02T09:07:27Z</time>
      </trkpt>
      <trkpt lat="43.95576" lon="5.6321">
        <ele>669.03</ele>
        <time>2020-09-02T09:07:28Z</time>
      </trkpt>
      <trkpt lat="43.95583" lon="5.63209">
        <ele>669.016</ele>
        <time>2020-09-02T09:07:29Z</time>
      </trkpt>
      <trkpt lat="43.9559" lon="5.63207">
        <ele>668.449</ele>
        <time>2020-09-02T09:07:30Z</time>
      </trkpt>
      <trkpt lat="43.95597" lon="5.63201">
        <ele>667.887</ele>
        <time>2020-09-02T09:07:31Z</time>
      </trkpt>
      <trkpt lat="43.95604" lon="5.63196">
        <ele>667.742</ele>
        <time>2020-09-02T09:07:32Z</time>
      </trkpt>
      <trkpt lat="43.95609" lon="5.63187">
        <ele>667.126</ele>
        <time>2020-09-02T09:07:33Z</time>
      </trkpt>
      <trkpt lat="43.95614" lon="5.63179">
        <ele>666.408</ele>
        <time>2020-09-02T09:07:34Z</time>
      </trkpt>
      <trkpt lat="43.9562" lon="5.63169">
        <ele>665.426</ele>
        <time>2020-09-02T09:07:35Z</time>
      </trkpt>
      <trkpt lat="43.95625" lon="5.6316">
        <ele>664.995</ele>
        <time>2020-09-02T09:07:36Z</time>
      </trkpt>
      <trkpt lat="43.95632" lon="5.63151">
        <ele>663.765</ele>
        <time>2020-09-02T09:07:37Z</time>
      </trkpt>
      <trkpt lat="43.95637" lon="5.63143">
        <ele>663.062</ele>
        <time>2020-09-02T09:07:38Z</time>
      </trkpt>
      <trkpt lat="43.95644" lon="5.63134">
        <ele>661.573</ele>
        <time>2020-09-02T09:07:39Z</time>
      </trkpt>
      <trkpt lat="43.95651" lon="5.63124">
        <ele>660.021</ele>
        <time>2020-09-02T09:07:40Z</time>
      </trkpt>
      <trkpt lat="43.95656" lon="5.63113">
        <ele>657.957</ele>
        <time>2020-09-02T09:07:41Z</time>
      </trkpt>
      <trkpt lat="43.95661" lon="5.63103">
        <ele>656.65</ele>
        <time>2020-09-02T09:07:42Z</time>
      </trkpt>
      <trkpt lat="43.95667" lon="5.63095">
        <ele>655.444</ele>
        <time>2020-09-02T09:07:43Z</time>
      </trkpt>
      <trkpt lat="43.95672" lon="5.63087">
        <ele>654.405</ele>
        <time>2020-09-02T09:07:44Z</time>
      </trkpt>
      <trkpt lat="43.95678" lon="5.63079">
        <ele>652.915</ele>
        <time>2020-09-02T09:07:45Z</time>
      </trkpt>
      <trkpt lat="43.95683" lon="5.63071">
        <ele>651.908</ele>
        <time>2020-09-02T09:07:46Z</time>
      </trkpt>
      <trkpt lat="43.95688" lon="5.63064">
        <ele>650.982</ele>
        <time>2020-09-02T09:07:47Z</time>
      </trkpt>
      <trkpt lat="43.95693" lon="5.63058">
        <ele>650.131</ele>
        <time>2020-09-02T09:07:48Z</time>
      </trkpt>
      <trkpt lat="43.95698" lon="5.63052">
        <ele>649.071</ele>
        <time>2020-09-02T09:07:49Z</time>
      </trkpt>
      <trkpt lat="43.95704" lon="5.63046">
        <ele>648.918</ele>
        <time>2020-09-02T09:07:50Z</time>
      </trkpt>
      <trkpt lat="43.95708" lon="5.63039">
        <ele>648.149</ele>
        <time>2020-09-02T09:07:51Z</time>
      </trkpt>
      <trkpt lat="43.95712" lon="5.63035">
        <ele>646.037</ele>
        <time>2020-09-02T09:07:52Z</time>
      </trkpt>
      <trkpt lat="43.95715" lon="5.63028">
        <ele>645.243</ele>
        <time>2020-09-02T09:07:53Z</time>
      </trkpt>
      <trkpt lat="43.95718" lon="5.63022">
        <ele>644.896</ele>
        <time>2020-09-02T09:07:54Z</time>
      </trkpt>
      <trkpt lat="43.95722" lon="5.63015">
        <ele>644.648</ele>
        <time>2020-09-02T09:07:55Z</time>
      </trkpt>
      <trkpt lat="43.95725" lon="5.63008">
        <ele>643.961</ele>
        <time>2020-09-02T09:07:56Z</time>
      </trkpt>
      <trkpt lat="43.95728" lon="5.63002">
        <ele>643.317</ele>
        <time>2020-09-02T09:07:57Z</time>
      </trkpt>
      <trkpt lat="43.95733" lon="5.62995">
        <ele>642.808</ele>
        <time>2020-09-02T09:07:58Z</time>
      </trkpt>
      <trkpt lat="43.95738" lon="5.62987">
        <ele>642.742</ele>
        <time>2020-09-02T09:07:59Z</time>
      </trkpt>
      <trkpt lat="43.95744" lon="5.62979">
        <ele>641.971</ele>
        <time>2020-09-02T09:08:00Z</time>
      </trkpt>
      <trkpt lat="43.95748" lon="5.6297">
        <ele>640.931</ele>
        <time>2020-09-02T09:08:01Z</time>
      </trkpt>
      <trkpt lat="43.95753" lon="5.62963">
        <ele>640.038</ele>
        <time>2020-09-02T09:08:02Z</time>
      </trkpt>
      <trkpt lat="43.95757" lon="5.62956">
        <ele>639.769</ele>
        <time>2020-09-02T09:08:03Z</time>
      </trkpt>
      <trkpt lat="43.95761" lon="5.62948">
        <ele>638.997</ele>
        <time>2020-09-02T09:08:04Z</time>
      </trkpt>
      <trkpt lat="43.95765" lon="5.6294">
        <ele>637.693</ele>
        <time>2020-09-02T09:08:05Z</time>
      </trkpt>
      <trkpt lat="43.95768" lon="5.6293">
        <ele>636.016</ele>
        <time>2020-09-02T09:08:06Z</time>
      </trkpt>
      <trkpt lat="43.95772" lon="5.62921">
        <ele>635.335</ele>
        <time>2020-09-02T09:08:07Z</time>
      </trkpt>
      <trkpt lat="43.95775" lon="5.62911">
        <ele>634.286</ele>
        <time>2020-09-02T09:08:08Z</time>
      </trkpt>
      <trkpt lat="43.95778" lon="5.629">
        <ele>633.114</ele>
        <time>2020-09-02T09:08:09Z</time>
      </trkpt>
      <trkpt lat="43.95782" lon="5.62889">
        <ele>632.108</ele>
        <time>2020-09-02T09:08:10Z</time>
      </trkpt>
      <trkpt lat="43.95786" lon="5.62878">
        <ele>631.651</ele>
        <time>2020-09-02T09:08:11Z</time>
      </trkpt>
      <trkpt lat="43.95788" lon="5.62865">
        <ele>631.09</ele>
        <time>2020-09-02T09:08:12Z</time>
      </trkpt>
      <trkpt lat="43.95792" lon="5.62853">
        <ele>629.83</ele>
        <time>2020-09-02T09:08:13Z</time>
      </trkpt>
      <trkpt lat="43.95795" lon="5.62841">
        <ele>628.257</ele>
        <time>2020-09-02T09:08:14Z</time>
      </trkpt>
      <trkpt lat="43.95799" lon="5.62829">
        <ele>627.238</ele>
        <time>2020-09-02T09:08:15Z</time>
      </trkpt>
      <trkpt lat="43.95804" lon="5.62817">
        <ele>626.446</ele>
        <time>2020-09-02T09:08:16Z</time>
      </trkpt>
      <trkpt lat="43.95807" lon="5.62805">
        <ele>625.482</ele>
        <time>2020-09-02T09:08:17Z</time>
      </trkpt>
      <trkpt lat="43.95811" lon="5.62797">
        <ele>624.195</ele>
        <time>2020-09-02T09:08:18Z</time>
      </trkpt>
      <trkpt lat="43.95814" lon="5.62785">
        <ele>622.783</ele>
        <time>2020-09-02T09:08:19Z</time>
      </trkpt>
      <trkpt lat="43.95818" lon="5.62773">
        <ele>621.225</ele>
        <time>2020-09-02T09:08:20Z</time>
      </trkpt>
      <trkpt lat="43.95822" lon="5.62762">
        <ele>620.117</ele>
        <time>2020-09-02T09:08:21Z</time>
      </trkpt>
      <trkpt lat="43.95826" lon="5.62751">
        <ele>619.408</ele>
        <time>2020-09-02T09:08:22Z</time>
      </trkpt>
      <trkpt lat="43.95829" lon="5.62741">
        <ele>618.586</ele>
        <time>2020-09-02T09:08:23Z</time>
      </trkpt>
      <trkpt lat="43.95832" lon="5.62731">
        <ele>618.365</ele>
        <time>2020-09-02T09:08:24Z</time>
      </trkpt>
      <trkpt lat="43.95835" lon="5.62719">
        <ele>617.615</ele>
        <time>2020-09-02T09:08:25Z</time>
      </trkpt>
      <trkpt lat="43.95839" lon="5.62712">
        <ele>616.222</ele>
        <time>2020-09-02T09:08:26Z</time>
      </trkpt>
      <trkpt lat="43.95841" lon="5.62703">
        <ele>615.073</ele>
        <time>2020-09-02T09:08:27Z</time>
      </trkpt>
      <trkpt lat="43.95842" lon="5.62693">
        <ele>614.471</ele>
        <time>2020-09-02T09:08:28Z</time>
      </trkpt>
      <trkpt lat="43.95845" lon="5.62683">
        <ele>614.377</ele>
        <time>2020-09-02T09:08:29Z</time>
      </trkpt>
      <trkpt lat="43.95847" lon="5.62672">
        <ele>614.23</ele>
        <time>2020-09-02T09:08:30Z</time>
      </trkpt>
      <trkpt lat="43.9585" lon="5.6266">
        <ele>613.728</ele>
        <time>2020-09-02T09:08:31Z</time>
      </trkpt>
      <trkpt lat="43.9585" lon="5.62649">
        <ele>613.389</ele>
        <time>2020-09-02T09:08:32Z</time>
      </trkpt>
      <trkpt lat="43.95849" lon="5.62637">
        <ele>613.017</ele>
        <time>2020-09-02T09:08:33Z</time>
      </trkpt>
      <trkpt lat="43.95849" lon="5.62625">
        <ele>612.808</ele>
        <time>2020-09-02T09:08:34Z</time>
      </trkpt>
      <trkpt lat="43.95848" lon="5.62613">
        <ele>612.23</ele>
        <time>2020-09-02T09:08:35Z</time>
      </trkpt>
      <trkpt lat="43.95848" lon="5.62603">
        <ele>611.569</ele>
        <time>2020-09-02T09:08:36Z</time>
      </trkpt>
      <trkpt lat="43.95847" lon="5.62592">
        <ele>610.289</ele>
        <time>2020-09-02T09:08:38Z</time>
      </trkpt>
      <trkpt lat="43.95846" lon="5.62586">
        <ele>610.556</ele>
        <time>2020-09-02T09:08:39Z</time>
      </trkpt>
      <trkpt lat="43.95845" lon="5.62578">
        <ele>610.047</ele>
        <time>2020-09-02T09:08:40Z</time>
      </trkpt>
      <trkpt lat="43.95844" lon="5.6257">
        <ele>609.625</ele>
        <time>2020-09-02T09:08:41Z</time>
      </trkpt>
      <trkpt lat="43.95841" lon="5.6256">
        <ele>608.751</ele>
        <time>2020-09-02T09:08:42Z</time>
      </trkpt>
      <trkpt lat="43.95839" lon="5.62549">
        <ele>608.044</ele>
        <time>2020-09-02T09:08:43Z</time>
      </trkpt>
      <trkpt lat="43.95837" lon="5.62537">
        <ele>607.656</ele>
        <time>2020-09-02T09:08:44Z</time>
      </trkpt>
      <trkpt lat="43.95835" lon="5.62525">
        <ele>607.559</ele>
        <time>2020-09-02T09:08:45Z</time>
      </trkpt>
      <trkpt lat="43.95832" lon="5.62511">
        <ele>607.014</ele>
        <time>2020-09-02T09:08:46Z</time>
      </trkpt>
      <trkpt lat="43.95831" lon="5.62497">
        <ele>606.708</ele>
        <time>2020-09-02T09:08:47Z</time>
      </trkpt>
      <trkpt lat="43.95829" lon="5.62483">
        <ele>606.383</ele>
        <time>2020-09-02T09:08:48Z</time>
      </trkpt>
      <trkpt lat="43.95827" lon="5.62468">
        <ele>606.152</ele>
        <time>2020-09-02T09:08:49Z</time>
      </trkpt>
      <trkpt lat="43.95826" lon="5.62455">
        <ele>606.182</ele>
        <time>2020-09-02T09:08:50Z</time>
      </trkpt>
      <trkpt lat="43.95824" lon="5.62439">
        <ele>606.359</ele>
        <time>2020-09-02T09:08:51Z</time>
      </trkpt>
      <trkpt lat="43.95821" lon="5.62424">
        <ele>605.94</ele>
        <time>2020-09-02T09:08:52Z</time>
      </trkpt>
      <trkpt lat="43.95819" lon="5.62409">
        <ele>605.388</ele>
        <time>2020-09-02T09:08:53Z</time>
      </trkpt>
      <trkpt lat="43.95817" lon="5.62394">
        <ele>605.254</ele>
        <time>2020-09-02T09:08:54Z</time>
      </trkpt>
      <trkpt lat="43.95816" lon="5.6238">
        <ele>603.937</ele>
        <time>2020-09-02T09:08:55Z</time>
      </trkpt>
      <trkpt lat="43.95814" lon="5.62366">
        <ele>603.379</ele>
        <time>2020-09-02T09:08:56Z</time>
      </trkpt>
      <trkpt lat="43.95812" lon="5.62353">
        <ele>603.005</ele>
        <time>2020-09-02T09:08:57Z</time>
      </trkpt>
      <trkpt lat="43.9581" lon="5.6234">
        <ele>602.725</ele>
        <time>2020-09-02T09:08:58Z</time>
      </trkpt>
      <trkpt lat="43.95808" lon="5.62329">
        <ele>602.508</ele>
        <time>2020-09-02T09:08:59Z</time>
      </trkpt>
      <trkpt lat="43.95806" lon="5.62321">
        <ele>603.065</ele>
        <time>2020-09-02T09:09:00Z</time>
      </trkpt>
      <trkpt lat="43.95805" lon="5.62312">
        <ele>601.614</ele>
        <time>2020-09-02T09:09:01Z</time>
      </trkpt>
      <trkpt lat="43.95805" lon="5.62304">
        <ele>599.834</ele>
        <time>2020-09-02T09:09:02Z</time>
      </trkpt>
      <trkpt lat="43.95803" lon="5.62295">
        <ele>599.521</ele>
        <time>2020-09-02T09:09:03Z</time>
      </trkpt>
      <trkpt lat="43.95801" lon="5.62287">
        <ele>599.192</ele>
        <time>2020-09-02T09:09:04Z</time>
      </trkpt>
      <trkpt lat="43.95799" lon="5.62274">
        <ele>598.55</ele>
        <time>2020-09-02T09:09:05Z</time>
      </trkpt>
      <trkpt lat="43.95796" lon="5.62263">
        <ele>597.566</ele>
        <time>2020-09-02T09:09:06Z</time>
      </trkpt>
      <trkpt lat="43.95794" lon="5.6225">
        <ele>597.179</ele>
        <time>2020-09-02T09:09:07Z</time>
      </trkpt>
      <trkpt lat="43.95792" lon="5.62238">
        <ele>596.854</ele>
        <time>2020-09-02T09:09:08Z</time>
      </trkpt>
      <trkpt lat="43.9579" lon="5.62225">
        <ele>596.756</ele>
        <time>2020-09-02T09:09:09Z</time>
      </trkpt>
      <trkpt lat="43.95789" lon="5.62213">
        <ele>596.111</ele>
        <time>2020-09-02T09:09:10Z</time>
      </trkpt>
      <trkpt lat="43.95788" lon="5.62202">
        <ele>596.208</ele>
        <time>2020-09-02T09:09:11Z</time>
      </trkpt>
      <trkpt lat="43.95787" lon="5.62191">
        <ele>596.113</ele>
        <time>2020-09-02T09:09:12Z</time>
      </trkpt>
      <trkpt lat="43.95785" lon="5.6218">
        <ele>596.652</ele>
        <time>2020-09-02T09:09:13Z</time>
      </trkpt>
      <trkpt lat="43.95783" lon="5.62169">
        <ele>596.432</ele>
        <time>2020-09-02T09:09:14Z</time>
      </trkpt>
      <trkpt lat="43.9578" lon="5.62156">
        <ele>596.439</ele>
        <time>2020-09-02T09:09:15Z</time>
      </trkpt>
      <trkpt lat="43.95777" lon="5.62144">
        <ele>596.69</ele>
        <time>2020-09-02T09:09:16Z</time>
      </trkpt>
      <trkpt lat="43.95775" lon="5.62133">
        <ele>596.758</ele>
        <time>2020-09-02T09:09:17Z</time>
      </trkpt>
      <trkpt lat="43.95772" lon="5.62119">
        <ele>597.394</ele>
        <time>2020-09-02T09:09:18Z</time>
      </trkpt>
      <trkpt lat="43.95769" lon="5.62105">
        <ele>597.217</ele>
        <time>2020-09-02T09:09:19Z</time>
      </trkpt>
      <trkpt lat="43.95767" lon="5.62092">
        <ele>596.646</ele>
        <time>2020-09-02T09:09:20Z</time>
      </trkpt>
      <trkpt lat="43.95764" lon="5.62077">
        <ele>596.388</ele>
        <time>2020-09-02T09:09:21Z</time>
      </trkpt>
      <trkpt lat="43.95762" lon="5.62062">
        <ele>596.216</ele>
        <time>2020-09-02T09:09:22Z</time>
      </trkpt>
      <trkpt lat="43.9576" lon="5.62047">
        <ele>595.608</ele>
        <time>2020-09-02T09:09:23Z</time>
      </trkpt>
      <trkpt lat="43.95758" lon="5.62033">
        <ele>595.392</ele>
        <time>2020-09-02T09:09:24Z</time>
      </trkpt>
      <trkpt lat="43.95756" lon="5.62019">
        <ele>594.791</ele>
        <time>2020-09-02T09:09:25Z</time>
      </trkpt>
      <trkpt lat="43.95755" lon="5.62005">
        <ele>593.481</ele>
        <time>2020-09-02T09:09:26Z</time>
      </trkpt>
      <trkpt lat="43.95754" lon="5.61993">
        <ele>593.098</ele>
        <time>2020-09-02T09:09:27Z</time>
      </trkpt>
      <trkpt lat="43.95753" lon="5.61984">
        <ele>592.919</ele>
        <time>2020-09-02T09:09:28Z</time>
      </trkpt>
      <trkpt lat="43.95754" lon="5.61974">
        <ele>593.587</ele>
        <time>2020-09-02T09:09:29Z</time>
      </trkpt>
      <trkpt lat="43.95756" lon="5.61962">
        <ele>594.033</ele>
        <time>2020-09-02T09:09:30Z</time>
      </trkpt>
      <trkpt lat="43.95759" lon="5.61948">
        <ele>594.066</ele>
        <time>2020-09-02T09:09:31Z</time>
      </trkpt>
      <trkpt lat="43.95762" lon="5.61935">
        <ele>593.857</ele>
        <time>2020-09-02T09:09:32Z</time>
      </trkpt>
      <trkpt lat="43.95764" lon="5.61924">
        <ele>592.9</ele>
        <time>2020-09-02T09:09:33Z</time>
      </trkpt>
      <trkpt lat="43.95766" lon="5.61914">
        <ele>592.92</ele>
        <time>2020-09-02T09:09:34Z</time>
      </trkpt>
      <trkpt lat="43.95767" lon="5.61904">
        <ele>592.908</ele>
        <time>2020-09-02T09:09:35Z</time>
      </trkpt>
      <trkpt lat="43.95768" lon="5.61894">
        <ele>593.193</ele>
        <time>2020-09-02T09:09:36Z</time>
      </trkpt>
      <trkpt lat="43.95769" lon="5.61885">
        <ele>593.482</ele>
        <time>2020-09-02T09:09:37Z</time>
      </trkpt>
      <trkpt lat="43.95771" lon="5.61874">
        <ele>591.852</ele>
        <time>2020-09-02T09:09:38Z</time>
      </trkpt>
      <trkpt lat="43.95775" lon="5.61865">
        <ele>591.869</ele>
        <time>2020-09-02T09:09:39Z</time>
      </trkpt>
      <trkpt lat="43.95778" lon="5.61856">
        <ele>592.47</ele>
        <time>2020-09-02T09:09:40Z</time>
      </trkpt>
      <trkpt lat="43.95781" lon="5.61847">
        <ele>591.868</ele>
        <time>2020-09-02T09:09:41Z</time>
      </trkpt>
      <trkpt lat="43.95782" lon="5.61835">
        <ele>591.654</ele>
        <time>2020-09-02T09:09:42Z</time>
      </trkpt>
      <trkpt lat="43.95785" lon="5.61824">
        <ele>590.187</ele>
        <time>2020-09-02T09:09:43Z</time>
      </trkpt>
      <trkpt lat="43.95787" lon="5.61812">
        <ele>589.393</ele>
        <time>2020-09-02T09:09:44Z</time>
      </trkpt>
      <trkpt lat="43.95789" lon="5.618">
        <ele>589.165</ele>
        <time>2020-09-02T09:09:45Z</time>
      </trkpt>
      <trkpt lat="43.95792" lon="5.61786">
        <ele>588.121</ele>
        <time>2020-09-02T09:09:46Z</time>
      </trkpt>
      <trkpt lat="43.95795" lon="5.61774">
        <ele>587.708</ele>
        <time>2020-09-02T09:09:47Z</time>
      </trkpt>
      <trkpt lat="43.95798" lon="5.61763">
        <ele>587.657</ele>
        <time>2020-09-02T09:09:48Z</time>
      </trkpt>
      <trkpt lat="43.95802" lon="5.61751">
        <ele>587.716</ele>
        <time>2020-09-02T09:09:49Z</time>
      </trkpt>
      <trkpt lat="43.95805" lon="5.61738">
        <ele>587.646</ele>
        <time>2020-09-02T09:09:50Z</time>
      </trkpt>
      <trkpt lat="43.9581" lon="5.61726">
        <ele>586.923</ele>
        <time>2020-09-02T09:09:51Z</time>
      </trkpt>
      <trkpt lat="43.95814" lon="5.61714">
        <ele>586.424</ele>
        <time>2020-09-02T09:09:52Z</time>
      </trkpt>
      <trkpt lat="43.9582" lon="5.61705">
        <ele>585.442</ele>
        <time>2020-09-02T09:09:53Z</time>
      </trkpt>
      <trkpt lat="43.95824" lon="5.61694">
        <ele>585.388</ele>
        <time>2020-09-02T09:09:54Z</time>
      </trkpt>
      <trkpt lat="43.95831" lon="5.61684">
        <ele>585.061</ele>
        <time>2020-09-02T09:09:55Z</time>
      </trkpt>
      <trkpt lat="43.95837" lon="5.61674">
        <ele>584.481</ele>
        <time>2020-09-02T09:09:56Z</time>
      </trkpt>
      <trkpt lat="43.95843" lon="5.61665">
        <ele>583.361</ele>
        <time>2020-09-02T09:09:57Z</time>
      </trkpt>
      <trkpt lat="43.95849" lon="5.61654">
        <ele>582.117</ele>
        <time>2020-09-02T09:09:58Z</time>
      </trkpt>
      <trkpt lat="43.95854" lon="5.61644">
        <ele>581.808</ele>
        <time>2020-09-02T09:09:59Z</time>
      </trkpt>
      <trkpt lat="43.95859" lon="5.61635">
        <ele>581.476</ele>
        <time>2020-09-02T09:10:00Z</time>
      </trkpt>
      <trkpt lat="43.95865" lon="5.61627">
        <ele>581.055</ele>
        <time>2020-09-02T09:10:01Z</time>
      </trkpt>
      <trkpt lat="43.9587" lon="5.6162">
        <ele>580.745</ele>
        <time>2020-09-02T09:10:02Z</time>
      </trkpt>
      <trkpt lat="43.95878" lon="5.6161">
        <ele>580.532</ele>
        <time>2020-09-02T09:10:03Z</time>
      </trkpt>
      <trkpt lat="43.95883" lon="5.61601">
        <ele>579.863</ele>
        <time>2020-09-02T09:10:04Z</time>
      </trkpt>
      <trkpt lat="43.9589" lon="5.61592">
        <ele>578.751</ele>
        <time>2020-09-02T09:10:05Z</time>
      </trkpt>
      <trkpt lat="43.95895" lon="5.61583">
        <ele>578.047</ele>
        <time>2020-09-02T09:10:06Z</time>
      </trkpt>
      <trkpt lat="43.95901" lon="5.61574">
        <ele>577.68</ele>
        <time>2020-09-02T09:10:07Z</time>
      </trkpt>
      <trkpt lat="43.95909" lon="5.61566">
        <ele>576.662</ele>
        <time>2020-09-02T09:10:08Z</time>
      </trkpt>
      <trkpt lat="43.95914" lon="5.61558">
        <ele>575.483</ele>
        <time>2020-09-02T09:10:09Z</time>
      </trkpt>
      <trkpt lat="43.9592" lon="5.61549">
        <ele>575.411</ele>
        <time>2020-09-02T09:10:10Z</time>
      </trkpt>
      <trkpt lat="43.95926" lon="5.6154">
        <ele>575.508</ele>
        <time>2020-09-02T09:10:11Z</time>
      </trkpt>
      <trkpt lat="43.95932" lon="5.61532">
        <ele>574.554</ele>
        <time>2020-09-02T09:10:12Z</time>
      </trkpt>
      <trkpt lat="43.95937" lon="5.61523">
        <ele>573.983</ele>
        <time>2020-09-02T09:10:13Z</time>
      </trkpt>
      <trkpt lat="43.9594" lon="5.61513">
        <ele>573.783</ele>
        <time>2020-09-02T09:10:14Z</time>
      </trkpt>
      <trkpt lat="43.95942" lon="5.61505">
        <ele>573.69</ele>
        <time>2020-09-02T09:10:15Z</time>
      </trkpt>
      <trkpt lat="43.95944" lon="5.61498">
        <ele>573.311</ele>
        <time>2020-09-02T09:10:16Z</time>
      </trkpt>
      <trkpt lat="43.95946" lon="5.6149">
        <ele>573.259</ele>
        <time>2020-09-02T09:10:17Z</time>
      </trkpt>
      <trkpt lat="43.95947" lon="5.61481">
        <ele>572.465</ele>
        <time>2020-09-02T09:10:18Z</time>
      </trkpt>
      <trkpt lat="43.95949" lon="5.61472">
        <ele>571.918</ele>
        <time>2020-09-02T09:10:19Z</time>
      </trkpt>
      <trkpt lat="43.95951" lon="5.61462">
        <ele>571.756</ele>
        <time>2020-09-02T09:10:20Z</time>
      </trkpt>
      <trkpt lat="43.95952" lon="5.61454">
        <ele>571.259</ele>
        <time>2020-09-02T09:10:21Z</time>
      </trkpt>
      <trkpt lat="43.95952" lon="5.61445">
        <ele>569.714</ele>
        <time>2020-09-02T09:10:22Z</time>
      </trkpt>
      <trkpt lat="43.95953" lon="5.61438">
        <ele>568.708</ele>
        <time>2020-09-02T09:10:23Z</time>
      </trkpt>
      <trkpt lat="43.95953" lon="5.61431">
        <ele>567.423</ele>
        <time>2020-09-02T09:10:25Z</time>
      </trkpt>
      <trkpt lat="43.95951" lon="5.61423">
        <ele>561.512</ele>
        <time>2020-09-02T09:11:33Z</time>
      </trkpt>
      <trkpt lat="43.95946" lon="5.61417">
        <ele>561.672</ele>
        <time>2020-09-02T09:11:35Z</time>
      </trkpt>
      <trkpt lat="43.95941" lon="5.61412">
        <ele>561.959</ele>
        <time>2020-09-02T09:11:36Z</time>
      </trkpt>
      <trkpt lat="43.95935" lon="5.61409">
        <ele>561.83</ele>
        <time>2020-09-02T09:11:37Z</time>
      </trkpt>
      <trkpt lat="43.95929" lon="5.61407">
        <ele>561.728</ele>
        <time>2020-09-02T09:11:38Z</time>
      </trkpt>
      <trkpt lat="43.95922" lon="5.61405">
        <ele>561.564</ele>
        <time>2020-09-02T09:11:39Z</time>
      </trkpt>
      <trkpt lat="43.95917" lon="5.61406">
        <ele>560.537</ele>
        <time>2020-09-02T09:11:40Z</time>
      </trkpt>
      <trkpt lat="43.95911" lon="5.61404">
        <ele>560.121</ele>
        <time>2020-09-02T09:11:41Z</time>
      </trkpt>
      <trkpt lat="43.95904" lon="5.614">
        <ele>559.741</ele>
        <time>2020-09-02T09:11:43Z</time>
      </trkpt>
      <trkpt lat="43.95903" lon="5.61393">
        <ele>559.305</ele>
        <time>2020-09-02T09:11:44Z</time>
      </trkpt>
      <trkpt lat="43.95909" lon="5.61385">
        <ele>558.008</ele>
        <time>2020-09-02T09:11:46Z</time>
      </trkpt>
      <trkpt lat="43.95914" lon="5.61385">
        <ele>557.26</ele>
        <time>2020-09-02T09:11:47Z</time>
      </trkpt>
      <trkpt lat="43.95921" lon="5.61382">
        <ele>557.269</ele>
        <time>2020-09-02T09:11:48Z</time>
      </trkpt>
      <trkpt lat="43.95928" lon="5.6138">
        <ele>557.119</ele>
        <time>2020-09-02T09:11:49Z</time>
      </trkpt>
      <trkpt lat="43.95935" lon="5.61375">
        <ele>557.196</ele>
        <time>2020-09-02T09:11:50Z</time>
      </trkpt>
      <trkpt lat="43.95941" lon="5.6137">
        <ele>556.327</ele>
        <time>2020-09-02T09:11:51Z</time>
      </trkpt>
      <trkpt lat="43.95947" lon="5.61365">
        <ele>555.845</ele>
        <time>2020-09-02T09:11:52Z</time>
      </trkpt>
      <trkpt lat="43.95954" lon="5.6136">
        <ele>554.971</ele>
        <time>2020-09-02T09:11:53Z</time>
      </trkpt>
      <trkpt lat="43.9596" lon="5.61357">
        <ele>553.884</ele>
        <time>2020-09-02T09:11:54Z</time>
      </trkpt>
      <trkpt lat="43.95966" lon="5.61354">
        <ele>553.027</ele>
        <time>2020-09-02T09:11:55Z</time>
      </trkpt>
      <trkpt lat="43.95972" lon="5.6135">
        <ele>552.468</ele>
        <time>2020-09-02T09:11:56Z</time>
      </trkpt>
      <trkpt lat="43.95977" lon="5.61347">
        <ele>552.214</ele>
        <time>2020-09-02T09:11:57Z</time>
      </trkpt>
      <trkpt lat="43.95984" lon="5.61343">
        <ele>551.808</ele>
        <time>2020-09-02T09:11:58Z</time>
      </trkpt>
      <trkpt lat="43.9599" lon="5.61339">
        <ele>551.67</ele>
        <time>2020-09-02T09:11:59Z</time>
      </trkpt>
      <trkpt lat="43.95997" lon="5.61336">
        <ele>551.059</ele>
        <time>2020-09-02T09:12:00Z</time>
      </trkpt>
      <trkpt lat="43.96003" lon="5.61332">
        <ele>549.669</ele>
        <time>2020-09-02T09:12:01Z</time>
      </trkpt>
      <trkpt lat="43.9601" lon="5.61324">
        <ele>547.966</ele>
        <time>2020-09-02T09:12:03Z</time>
      </trkpt>
      <trkpt lat="43.96015" lon="5.61317">
        <ele>547.117</ele>
        <time>2020-09-02T09:12:04Z</time>
      </trkpt>
      <trkpt lat="43.96021" lon="5.61309">
        <ele>547.315</ele>
        <time>2020-09-02T09:12:05Z</time>
      </trkpt>
      <trkpt lat="43.96024" lon="5.613">
        <ele>546.441</ele>
        <time>2020-09-02T09:12:06Z</time>
      </trkpt>
      <trkpt lat="43.96027" lon="5.61292">
        <ele>545.724</ele>
        <time>2020-09-02T09:12:07Z</time>
      </trkpt>
      <trkpt lat="43.96032" lon="5.61283">
        <ele>545.122</ele>
        <time>2020-09-02T09:12:08Z</time>
      </trkpt>
      <trkpt lat="43.96037" lon="5.61272">
        <ele>544.062</ele>
        <time>2020-09-02T09:12:09Z</time>
      </trkpt>
      <trkpt lat="43.96044" lon="5.61265">
        <ele>542.808</ele>
        <time>2020-09-02T09:12:10Z</time>
      </trkpt>
      <trkpt lat="43.96048" lon="5.61255">
        <ele>542.508</ele>
        <time>2020-09-02T09:12:11Z</time>
      </trkpt>
      <trkpt lat="43.96051" lon="5.61245">
        <ele>542.15</ele>
        <time>2020-09-02T09:12:12Z</time>
      </trkpt>
      <trkpt lat="43.96056" lon="5.61235">
        <ele>542.419</ele>
        <time>2020-09-02T09:12:13Z</time>
      </trkpt>
      <trkpt lat="43.96059" lon="5.61226">
        <ele>542.249</ele>
        <time>2020-09-02T09:12:14Z</time>
      </trkpt>
      <trkpt lat="43.96063" lon="5.6122">
        <ele>542.546</ele>
        <time>2020-09-02T09:12:15Z</time>
      </trkpt>
      <trkpt lat="43.96065" lon="5.6121">
        <ele>542.537</ele>
        <time>2020-09-02T09:12:16Z</time>
      </trkpt>
      <trkpt lat="43.96068" lon="5.61202">
        <ele>542.025</ele>
        <time>2020-09-02T09:12:17Z</time>
      </trkpt>
      <trkpt lat="43.9607" lon="5.61193">
        <ele>541.551</ele>
        <time>2020-09-02T09:12:18Z</time>
      </trkpt>
      <trkpt lat="43.96071" lon="5.61186">
        <ele>541.044</ele>
        <time>2020-09-02T09:12:19Z</time>
      </trkpt>
      <trkpt lat="43.96074" lon="5.61176">
        <ele>540.995</ele>
        <time>2020-09-02T09:12:20Z</time>
      </trkpt>
      <trkpt lat="43.96077" lon="5.61168">
        <ele>540.949</ele>
        <time>2020-09-02T09:12:21Z</time>
      </trkpt>
      <trkpt lat="43.96081" lon="5.61158">
        <ele>540.823</ele>
        <time>2020-09-02T09:12:22Z</time>
      </trkpt>
      <trkpt lat="43.96085" lon="5.61148">
        <ele>540.708</ele>
        <time>2020-09-02T09:12:23Z</time>
      </trkpt>
      <trkpt lat="43.96089" lon="5.61137">
        <ele>540.417</ele>
        <time>2020-09-02T09:12:24Z</time>
      </trkpt>
      <trkpt lat="43.96094" lon="5.61123">
        <ele>539.686</ele>
        <time>2020-09-02T09:12:25Z</time>
      </trkpt>
      <trkpt lat="43.961" lon="5.61109">
        <ele>539.256</ele>
        <time>2020-09-02T09:12:26Z</time>
      </trkpt>
      <trkpt lat="43.96106" lon="5.61091">
        <ele>538.993</ele>
        <time>2020-09-02T09:12:27Z</time>
      </trkpt>
      <trkpt lat="43.96112" lon="5.61076">
        <ele>538.994</ele>
        <time>2020-09-02T09:12:28Z</time>
      </trkpt>
      <trkpt lat="43.96118" lon="5.6106">
        <ele>538.812</ele>
        <time>2020-09-02T09:12:29Z</time>
      </trkpt>
      <trkpt lat="43.96123" lon="5.61042">
        <ele>538.728</ele>
        <time>2020-09-02T09:12:30Z</time>
      </trkpt>
      <trkpt lat="43.96128" lon="5.61027">
        <ele>538.691</ele>
        <time>2020-09-02T09:12:31Z</time>
      </trkpt>
      <trkpt lat="43.96134" lon="5.61011">
        <ele>537.955</ele>
        <time>2020-09-02T09:12:32Z</time>
      </trkpt>
      <trkpt lat="43.9614" lon="5.60995">
        <ele>537.707</ele>
        <time>2020-09-02T09:12:33Z</time>
      </trkpt>
      <trkpt lat="43.96145" lon="5.60981">
        <ele>537.317</ele>
        <time>2020-09-02T09:12:34Z</time>
      </trkpt>
      <trkpt lat="43.96149" lon="5.60962">
        <ele>536.808</ele>
        <time>2020-09-02T09:12:35Z</time>
      </trkpt>
      <trkpt lat="43.96154" lon="5.60946">
        <ele>536.923</ele>
        <time>2020-09-02T09:12:36Z</time>
      </trkpt>
      <trkpt lat="43.9616" lon="5.6093">
        <ele>536.822</ele>
        <time>2020-09-02T09:12:37Z</time>
      </trkpt>
      <trkpt lat="43.96165" lon="5.60916">
        <ele>536.522</ele>
        <time>2020-09-02T09:12:38Z</time>
      </trkpt>
      <trkpt lat="43.96171" lon="5.60901">
        <ele>536.059</ele>
        <time>2020-09-02T09:12:39Z</time>
      </trkpt>
      <trkpt lat="43.96177" lon="5.60888">
        <ele>535.35</ele>
        <time>2020-09-02T09:12:40Z</time>
      </trkpt>
      <trkpt lat="43.96182" lon="5.60875">
        <ele>534.748</ele>
        <time>2020-09-02T09:12:41Z</time>
      </trkpt>
      <trkpt lat="43.96187" lon="5.60863">
        <ele>534.034</ele>
        <time>2020-09-02T09:12:42Z</time>
      </trkpt>
      <trkpt lat="43.96192" lon="5.60851">
        <ele>533.267</ele>
        <time>2020-09-02T09:12:43Z</time>
      </trkpt>
      <trkpt lat="43.96197" lon="5.6084">
        <ele>532.491</ele>
        <time>2020-09-02T09:12:44Z</time>
      </trkpt>
      <trkpt lat="43.96203" lon="5.60829">
        <ele>531.581</ele>
        <time>2020-09-02T09:12:45Z</time>
      </trkpt>
      <trkpt lat="43.96208" lon="5.60818">
        <ele>530.419</ele>
        <time>2020-09-02T09:12:46Z</time>
      </trkpt>
      <trkpt lat="43.96211" lon="5.60805">
        <ele>529.608</ele>
        <time>2020-09-02T09:12:47Z</time>
      </trkpt>
      <trkpt lat="43.96216" lon="5.60794">
        <ele>528.497</ele>
        <time>2020-09-02T09:12:48Z</time>
      </trkpt>
      <trkpt lat="43.9622" lon="5.60783">
        <ele>527.336</ele>
        <time>2020-09-02T09:12:49Z</time>
      </trkpt>
      <trkpt lat="43.96225" lon="5.60773">
        <ele>526.296</ele>
        <time>2020-09-02T09:12:50Z</time>
      </trkpt>
      <trkpt lat="43.96229" lon="5.60762">
        <ele>525.183</ele>
        <time>2020-09-02T09:12:51Z</time>
      </trkpt>
      <trkpt lat="43.96234" lon="5.60753">
        <ele>524.194</ele>
        <time>2020-09-02T09:12:52Z</time>
      </trkpt>
      <trkpt lat="43.9624" lon="5.60747">
        <ele>522.882</ele>
        <time>2020-09-02T09:12:53Z</time>
      </trkpt>
      <trkpt lat="43.96245" lon="5.60742">
        <ele>521.468</ele>
        <time>2020-09-02T09:12:54Z</time>
      </trkpt>
      <trkpt lat="43.96253" lon="5.60739">
        <ele>520.031</ele>
        <time>2020-09-02T09:12:55Z</time>
      </trkpt>
      <trkpt lat="43.96262" lon="5.60738">
        <ele>519.222</ele>
        <time>2020-09-02T09:12:56Z</time>
      </trkpt>
      <trkpt lat="43.96273" lon="5.60739">
        <ele>518.262</ele>
        <time>2020-09-02T09:12:57Z</time>
      </trkpt>
      <trkpt lat="43.96283" lon="5.60743">
        <ele>517.508</ele>
        <time>2020-09-02T09:12:58Z</time>
      </trkpt>
      <trkpt lat="43.96293" lon="5.60747">
        <ele>517.208</ele>
        <time>2020-09-02T09:12:59Z</time>
      </trkpt>
      <trkpt lat="43.96303" lon="5.60752">
        <ele>516.62</ele>
        <time>2020-09-02T09:13:00Z</time>
      </trkpt>
      <trkpt lat="43.96314" lon="5.60757">
        <ele>516.319</ele>
        <time>2020-09-02T09:13:01Z</time>
      </trkpt>
      <trkpt lat="43.96323" lon="5.60762">
        <ele>515.969</ele>
        <time>2020-09-02T09:13:02Z</time>
      </trkpt>
      <trkpt lat="43.96331" lon="5.60767">
        <ele>515.156</ele>
        <time>2020-09-02T09:13:03Z</time>
      </trkpt>
      <trkpt lat="43.9634" lon="5.60771">
        <ele>514.947</ele>
        <time>2020-09-02T09:13:04Z</time>
      </trkpt>
      <trkpt lat="43.96351" lon="5.60771">
        <ele>513.485</ele>
        <time>2020-09-02T09:13:05Z</time>
      </trkpt>
      <trkpt lat="43.96359" lon="5.60772">
        <ele>512.391</ele>
        <time>2020-09-02T09:13:06Z</time>
      </trkpt>
      <trkpt lat="43.96368" lon="5.60772">
        <ele>510.844</ele>
        <time>2020-09-02T09:13:07Z</time>
      </trkpt>
      <trkpt lat="43.96376" lon="5.60769">
        <ele>510.563</ele>
        <time>2020-09-02T09:13:08Z</time>
      </trkpt>
      <trkpt lat="43.96385" lon="5.60766">
        <ele>509.244</ele>
        <time>2020-09-02T09:13:09Z</time>
      </trkpt>
      <trkpt lat="43.96392" lon="5.60761">
        <ele>508.218</ele>
        <time>2020-09-02T09:13:10Z</time>
      </trkpt>
      <trkpt lat="43.96398" lon="5.60755">
        <ele>507.508</ele>
        <time>2020-09-02T09:13:11Z</time>
      </trkpt>
      <trkpt lat="43.96402" lon="5.60747">
        <ele>506.584</ele>
        <time>2020-09-02T09:13:12Z</time>
      </trkpt>
      <trkpt lat="43.96406" lon="5.60736">
        <ele>506.123</ele>
        <time>2020-09-02T09:13:13Z</time>
      </trkpt>
      <trkpt lat="43.96411" lon="5.60725">
        <ele>505.513</ele>
        <time>2020-09-02T09:13:14Z</time>
      </trkpt>
      <trkpt lat="43.96416" lon="5.60717">
        <ele>506.49</ele>
        <time>2020-09-02T09:13:15Z</time>
      </trkpt>
      <trkpt lat="43.96419" lon="5.60709">
        <ele>506.511</ele>
        <time>2020-09-02T09:13:16Z</time>
      </trkpt>
      <trkpt lat="43.96423" lon="5.60702">
        <ele>506.089</ele>
        <time>2020-09-02T09:13:17Z</time>
      </trkpt>
      <trkpt lat="43.96427" lon="5.60696">
        <ele>505.715</ele>
        <time>2020-09-02T09:13:18Z</time>
      </trkpt>
      <trkpt lat="43.9643" lon="5.60692">
        <ele>505.798</ele>
        <time>2020-09-02T09:13:19Z</time>
      </trkpt>
      <trkpt lat="43.96436" lon="5.60691">
        <ele>506.093</ele>
        <time>2020-09-02T09:13:21Z</time>
      </trkpt>
      <trkpt lat="43.96442" lon="5.60695">
        <ele>505.765</ele>
        <time>2020-09-02T09:13:23Z</time>
      </trkpt>
      <trkpt lat="43.96445" lon="5.60701">
        <ele>505.821</ele>
        <time>2020-09-02T09:13:24Z</time>
      </trkpt>
      <trkpt lat="43.96446" lon="5.60712">
        <ele>505.608</ele>
        <time>2020-09-02T09:13:25Z</time>
      </trkpt>
      <trkpt lat="43.9645" lon="5.6072">
        <ele>505.367</ele>
        <time>2020-09-02T09:13:26Z</time>
      </trkpt>
      <trkpt lat="43.96452" lon="5.60729">
        <ele>504.496</ele>
        <time>2020-09-02T09:13:27Z</time>
      </trkpt>
      <trkpt lat="43.96455" lon="5.60738">
        <ele>504.296</ele>
        <time>2020-09-02T09:13:28Z</time>
      </trkpt>
      <trkpt lat="43.96459" lon="5.60746">
        <ele>504.683</ele>
        <time>2020-09-02T09:13:29Z</time>
      </trkpt>
      <trkpt lat="43.96462" lon="5.60753">
        <ele>504.864</ele>
        <time>2020-09-02T09:13:30Z</time>
      </trkpt>
      <trkpt lat="43.96464" lon="5.60761">
        <ele>504.532</ele>
        <time>2020-09-02T09:13:32Z</time>
      </trkpt>
      <trkpt lat="43.96467" lon="5.60766">
        <ele>505.188</ele>
        <time>2020-09-02T09:13:34Z</time>
      </trkpt>
      <trkpt lat="43.96472" lon="5.60776">
        <ele>505.661</ele>
        <time>2020-09-02T09:13:36Z</time>
      </trkpt>
      <trkpt lat="43.96472" lon="5.60783">
        <ele>505.955</ele>
        <time>2020-09-02T09:13:37Z</time>
      </trkpt>
      <trkpt lat="43.96471" lon="5.6079">
        <ele>506.007</ele>
        <time>2020-09-02T09:13:38Z</time>
      </trkpt>
      <trkpt lat="43.96468" lon="5.60803">
        <ele>505.617</ele>
        <time>2020-09-02T09:13:40Z</time>
      </trkpt>
      <trkpt lat="43.96465" lon="5.60811">
        <ele>506.108</ele>
        <time>2020-09-02T09:13:41Z</time>
      </trkpt>
      <trkpt lat="43.96462" lon="5.60819">
        <ele>506.313</ele>
        <time>2020-09-02T09:13:42Z</time>
      </trkpt>
      <trkpt lat="43.9646" lon="5.60826">
        <ele>506.582</ele>
        <time>2020-09-02T09:13:43Z</time>
      </trkpt>
      <trkpt lat="43.96464" lon="5.60836">
        <ele>506.382</ele>
        <time>2020-09-02T09:13:45Z</time>
      </trkpt>
      <trkpt lat="43.96469" lon="5.60838">
        <ele>506.829</ele>
        <time>2020-09-02T09:13:46Z</time>
      </trkpt>
      <trkpt lat="43.96474" lon="5.60841">
        <ele>507.03</ele>
        <time>2020-09-02T09:13:47Z</time>
      </trkpt>
      <trkpt lat="43.9648" lon="5.60843">
        <ele>507.228</ele>
        <time>2020-09-02T09:13:48Z</time>
      </trkpt>
      <trkpt lat="43.96485" lon="5.60844">
        <ele>507.624</ele>
        <time>2020-09-02T09:13:49Z</time>
      </trkpt>
      <trkpt lat="43.9649" lon="5.60848">
        <ele>508.357</ele>
        <time>2020-09-02T09:13:50Z</time>
      </trkpt>
      <trkpt lat="43.96496" lon="5.60852">
        <ele>508.645</ele>
        <time>2020-09-02T09:13:51Z</time>
      </trkpt>
      <trkpt lat="43.96501" lon="5.60855">
        <ele>509.147</ele>
        <time>2020-09-02T09:13:52Z</time>
      </trkpt>
      <trkpt lat="43.96506" lon="5.60858">
        <ele>509.511</ele>
        <time>2020-09-02T09:13:53Z</time>
      </trkpt>
      <trkpt lat="43.96511" lon="5.60863">
        <ele>509.608</ele>
        <time>2020-09-02T09:13:54Z</time>
      </trkpt>
      <trkpt lat="43.96518" lon="5.60869">
        <ele>510.132</ele>
        <time>2020-09-02T09:13:55Z</time>
      </trkpt>
      <trkpt lat="43.96524" lon="5.60877">
        <ele>510.731</ele>
        <time>2020-09-02T09:13:56Z</time>
      </trkpt>
      <trkpt lat="43.96532" lon="5.60885">
        <ele>511.811</ele>
        <time>2020-09-02T09:13:57Z</time>
      </trkpt>
      <trkpt lat="43.9654" lon="5.60893">
        <ele>512.468</ele>
        <time>2020-09-02T09:13:58Z</time>
      </trkpt>
      <trkpt lat="43.96548" lon="5.60901">
        <ele>512.989</ele>
        <time>2020-09-02T09:13:59Z</time>
      </trkpt>
      <trkpt lat="43.96557" lon="5.60909">
        <ele>513.287</ele>
        <time>2020-09-02T09:14:00Z</time>
      </trkpt>
      <trkpt lat="43.96566" lon="5.60918">
        <ele>514.083</ele>
        <time>2020-09-02T09:14:01Z</time>
      </trkpt>
      <trkpt lat="43.96574" lon="5.60926">
        <ele>514.756</ele>
        <time>2020-09-02T09:14:02Z</time>
      </trkpt>
      <trkpt lat="43.96583" lon="5.60934">
        <ele>515.233</ele>
        <time>2020-09-02T09:14:03Z</time>
      </trkpt>
      <trkpt lat="43.96593" lon="5.60943">
        <ele>517.823</ele>
        <time>2020-09-02T09:14:04Z</time>
      </trkpt>
      <trkpt lat="43.96603" lon="5.60954">
        <ele>517.515</ele>
        <time>2020-09-02T09:14:05Z</time>
      </trkpt>
      <trkpt lat="43.96611" lon="5.60963">
        <ele>517.708</ele>
        <time>2020-09-02T09:14:06Z</time>
      </trkpt>
      <trkpt lat="43.9662" lon="5.60973">
        <ele>518.261</ele>
        <time>2020-09-02T09:14:07Z</time>
      </trkpt>
      <trkpt lat="43.96629" lon="5.60983">
        <ele>518.57</ele>
        <time>2020-09-02T09:14:08Z</time>
      </trkpt>
      <trkpt lat="43.96637" lon="5.60993">
        <ele>518.73</ele>
        <time>2020-09-02T09:14:09Z</time>
      </trkpt>
      <trkpt lat="43.9665" lon="5.60999">
        <ele>519.027</ele>
        <time>2020-09-02T09:14:10Z</time>
      </trkpt>
      <trkpt lat="43.96661" lon="5.61004">
        <ele>519.278</ele>
        <time>2020-09-02T09:14:11Z</time>
      </trkpt>
      <trkpt lat="43.96671" lon="5.6101">
        <ele>519.626</ele>
        <time>2020-09-02T09:14:12Z</time>
      </trkpt>
      <trkpt lat="43.96679" lon="5.61013">
        <ele>519.662</ele>
        <time>2020-09-02T09:14:13Z</time>
      </trkpt>
      <trkpt lat="43.96688" lon="5.61014">
        <ele>519.365</ele>
        <time>2020-09-02T09:14:14Z</time>
      </trkpt>
      <trkpt lat="43.96696" lon="5.61014">
        <ele>518.818</ele>
        <time>2020-09-02T09:14:15Z</time>
      </trkpt>
      <trkpt lat="43.96707" lon="5.61014">
        <ele>519.398</ele>
        <time>2020-09-02T09:14:16Z</time>
      </trkpt>
      <trkpt lat="43.96718" lon="5.61016">
        <ele>519.017</ele>
        <time>2020-09-02T09:14:17Z</time>
      </trkpt>
      <trkpt lat="43.96728" lon="5.61016">
        <ele>519.008</ele>
        <time>2020-09-02T09:14:18Z</time>
      </trkpt>
      <trkpt lat="43.96739" lon="5.61016">
        <ele>519.839</ele>
        <time>2020-09-02T09:14:19Z</time>
      </trkpt>
      <trkpt lat="43.96749" lon="5.61015">
        <ele>519.798</ele>
        <time>2020-09-02T09:14:20Z</time>
      </trkpt>
      <trkpt lat="43.96758" lon="5.61014">
        <ele>519.518</ele>
        <time>2020-09-02T09:14:21Z</time>
      </trkpt>
      <trkpt lat="43.9677" lon="5.61013">
        <ele>519.925</ele>
        <time>2020-09-02T09:14:22Z</time>
      </trkpt>
      <trkpt lat="43.96782" lon="5.61011">
        <ele>519.756</ele>
        <time>2020-09-02T09:14:23Z</time>
      </trkpt>
      <trkpt lat="43.96792" lon="5.61006">
        <ele>519.974</ele>
        <time>2020-09-02T09:14:24Z</time>
      </trkpt>
      <trkpt lat="43.96804" lon="5.61005">
        <ele>519.52</ele>
        <time>2020-09-02T09:14:25Z</time>
      </trkpt>
      <trkpt lat="43.96816" lon="5.61005">
        <ele>519.263</ele>
        <time>2020-09-02T09:14:26Z</time>
      </trkpt>
      <trkpt lat="43.96827" lon="5.61005">
        <ele>518.948</ele>
        <time>2020-09-02T09:14:27Z</time>
      </trkpt>
      <trkpt lat="43.96837" lon="5.61006">
        <ele>518.261</ele>
        <time>2020-09-02T09:14:28Z</time>
      </trkpt>
      <trkpt lat="43.96846" lon="5.61007">
        <ele>517.717</ele>
        <time>2020-09-02T09:14:29Z</time>
      </trkpt>
      <trkpt lat="43.96854" lon="5.61009">
        <ele>517.608</ele>
        <time>2020-09-02T09:14:30Z</time>
      </trkpt>
      <trkpt lat="43.96864" lon="5.61014">
        <ele>517.592</ele>
        <time>2020-09-02T09:14:31Z</time>
      </trkpt>
      <trkpt lat="43.96873" lon="5.61021">
        <ele>517.081</ele>
        <time>2020-09-02T09:14:32Z</time>
      </trkpt>
      <trkpt lat="43.96882" lon="5.61028">
        <ele>517.121</ele>
        <time>2020-09-02T09:14:33Z</time>
      </trkpt>
      <trkpt lat="43.96891" lon="5.61035">
        <ele>517.618</ele>
        <time>2020-09-02T09:14:34Z</time>
      </trkpt>
      <trkpt lat="43.969" lon="5.61042">
        <ele>517.689</ele>
        <time>2020-09-02T09:14:35Z</time>
      </trkpt>
      <trkpt lat="43.96909" lon="5.6105">
        <ele>517.847</ele>
        <time>2020-09-02T09:14:36Z</time>
      </trkpt>
      <trkpt lat="43.96918" lon="5.61057">
        <ele>517.993</ele>
        <time>2020-09-02T09:14:37Z</time>
      </trkpt>
      <trkpt lat="43.96924" lon="5.61064">
        <ele>518.056</ele>
        <time>2020-09-02T09:14:38Z</time>
      </trkpt>
      <trkpt lat="43.96931" lon="5.6107">
        <ele>518.731</ele>
        <time>2020-09-02T09:14:39Z</time>
      </trkpt>
      <trkpt lat="43.96936" lon="5.61077">
        <ele>518.061</ele>
        <time>2020-09-02T09:14:40Z</time>
      </trkpt>
      <trkpt lat="43.96942" lon="5.61083">
        <ele>517.907</ele>
        <time>2020-09-02T09:14:41Z</time>
      </trkpt>
      <trkpt lat="43.96946" lon="5.61088">
        <ele>517.408</ele>
        <time>2020-09-02T09:14:42Z</time>
      </trkpt>
      <trkpt lat="43.96951" lon="5.61094">
        <ele>517.251</ele>
        <time>2020-09-02T09:14:43Z</time>
      </trkpt>
      <trkpt lat="43.96957" lon="5.611">
        <ele>517.76</ele>
        <time>2020-09-02T09:14:44Z</time>
      </trkpt>
      <trkpt lat="43.96963" lon="5.61107">
        <ele>517.73</ele>
        <time>2020-09-02T09:14:45Z</time>
      </trkpt>
      <trkpt lat="43.9697" lon="5.61117">
        <ele>517.277</ele>
        <time>2020-09-02T09:14:46Z</time>
      </trkpt>
      <trkpt lat="43.96974" lon="5.61128">
        <ele>517.228</ele>
        <time>2020-09-02T09:14:47Z</time>
      </trkpt>
      <trkpt lat="43.9698" lon="5.61139">
        <ele>517.266</ele>
        <time>2020-09-02T09:14:48Z</time>
      </trkpt>
      <trkpt lat="43.96985" lon="5.61149">
        <ele>517.692</ele>
        <time>2020-09-02T09:14:49Z</time>
      </trkpt>
      <trkpt lat="43.96989" lon="5.61157">
        <ele>517.585</ele>
        <time>2020-09-02T09:14:50Z</time>
      </trkpt>
      <trkpt lat="43.96995" lon="5.61167">
        <ele>517.314</ele>
        <time>2020-09-02T09:14:51Z</time>
      </trkpt>
      <trkpt lat="43.97" lon="5.61176">
        <ele>517.654</ele>
        <time>2020-09-02T09:14:52Z</time>
      </trkpt>
      <trkpt lat="43.97006" lon="5.61188">
        <ele>517.109</ele>
        <time>2020-09-02T09:14:53Z</time>
      </trkpt>
      <trkpt lat="43.97014" lon="5.61199">
        <ele>517.208</ele>
        <time>2020-09-02T09:14:54Z</time>
      </trkpt>
      <trkpt lat="43.97021" lon="5.6121">
        <ele>517.419</ele>
        <time>2020-09-02T09:14:55Z</time>
      </trkpt>
      <trkpt lat="43.9703" lon="5.6122">
        <ele>516.318</ele>
        <time>2020-09-02T09:14:56Z</time>
      </trkpt>
      <trkpt lat="43.97039" lon="5.61232">
        <ele>516.778</ele>
        <time>2020-09-02T09:14:57Z</time>
      </trkpt>
      <trkpt lat="43.97048" lon="5.61242">
        <ele>517.195</ele>
        <time>2020-09-02T09:14:58Z</time>
      </trkpt>
      <trkpt lat="43.97057" lon="5.61253">
        <ele>517.886</ele>
        <time>2020-09-02T09:14:59Z</time>
      </trkpt>
      <trkpt lat="43.97065" lon="5.61262">
        <ele>517.844</ele>
        <time>2020-09-02T09:15:00Z</time>
      </trkpt>
      <trkpt lat="43.97072" lon="5.61272">
        <ele>517.86</ele>
        <time>2020-09-02T09:15:01Z</time>
      </trkpt>
      <trkpt lat="43.97078" lon="5.61282">
        <ele>517.883</ele>
        <time>2020-09-02T09:15:02Z</time>
      </trkpt>
      <trkpt lat="43.97086" lon="5.61291">
        <ele>517.617</ele>
        <time>2020-09-02T09:15:03Z</time>
      </trkpt>
      <trkpt lat="43.97093" lon="5.61298">
        <ele>517.987</ele>
        <time>2020-09-02T09:15:04Z</time>
      </trkpt>
      <trkpt lat="43.97104" lon="5.61304">
        <ele>517.915</ele>
        <time>2020-09-02T09:15:05Z</time>
      </trkpt>
      <trkpt lat="43.97112" lon="5.61308">
        <ele>517.908</ele>
        <time>2020-09-02T09:15:06Z</time>
      </trkpt>
      <trkpt lat="43.97121" lon="5.61312">
        <ele>518.239</ele>
        <time>2020-09-02T09:15:07Z</time>
      </trkpt>
      <trkpt lat="43.97128" lon="5.61318">
        <ele>518.138</ele>
        <time>2020-09-02T09:15:08Z</time>
      </trkpt>
      <trkpt lat="43.97135" lon="5.61322">
        <ele>518.088</ele>
        <time>2020-09-02T09:15:09Z</time>
      </trkpt>
      <trkpt lat="43.97145" lon="5.61323">
        <ele>518.315</ele>
        <time>2020-09-02T09:15:10Z</time>
      </trkpt>
      <trkpt lat="43.97156" lon="5.61327">
        <ele>518.936</ele>
        <time>2020-09-02T09:15:11Z</time>
      </trkpt>
      <trkpt lat="43.97166" lon="5.61331">
        <ele>518.524</ele>
        <time>2020-09-02T09:15:12Z</time>
      </trkpt>
      <trkpt lat="43.97176" lon="5.61334">
        <ele>518.59</ele>
        <time>2020-09-02T09:15:13Z</time>
      </trkpt>
      <trkpt lat="43.97188" lon="5.61336">
        <ele>517.773</ele>
        <time>2020-09-02T09:15:14Z</time>
      </trkpt>
      <trkpt lat="43.972" lon="5.61339">
        <ele>517.928</ele>
        <time>2020-09-02T09:15:15Z</time>
      </trkpt>
      <trkpt lat="43.9721" lon="5.6134">
        <ele>517.789</ele>
        <time>2020-09-02T09:15:16Z</time>
      </trkpt>
      <trkpt lat="43.97222" lon="5.61341">
        <ele>517.417</ele>
        <time>2020-09-02T09:15:17Z</time>
      </trkpt>
      <trkpt lat="43.97235" lon="5.6134">
        <ele>517.708</ele>
        <time>2020-09-02T09:15:18Z</time>
      </trkpt>
      <trkpt lat="43.97246" lon="5.61338">
        <ele>517.49</ele>
        <time>2020-09-02T09:15:19Z</time>
      </trkpt>
      <trkpt lat="43.97257" lon="5.61337">
        <ele>517.239</ele>
        <time>2020-09-02T09:15:20Z</time>
      </trkpt>
      <trkpt lat="43.97267" lon="5.61334">
        <ele>517.229</ele>
        <time>2020-09-02T09:15:21Z</time>
      </trkpt>
      <trkpt lat="43.97276" lon="5.61333">
        <ele>517.546</ele>
        <time>2020-09-02T09:15:22Z</time>
      </trkpt>
      <trkpt lat="43.97285" lon="5.61331">
        <ele>517.527</ele>
        <time>2020-09-02T09:15:23Z</time>
      </trkpt>
      <trkpt lat="43.97294" lon="5.61329">
        <ele>517.595</ele>
        <time>2020-09-02T09:15:24Z</time>
      </trkpt>
      <trkpt lat="43.973" lon="5.61325">
        <ele>517.441</ele>
        <time>2020-09-02T09:15:25Z</time>
      </trkpt>
      <trkpt lat="43.97306" lon="5.61318">
        <ele>517.814</ele>
        <time>2020-09-02T09:15:26Z</time>
      </trkpt>
      <trkpt lat="43.97311" lon="5.61313">
        <ele>517.818</ele>
        <time>2020-09-02T09:15:27Z</time>
      </trkpt>
      <trkpt lat="43.97317" lon="5.61308">
        <ele>518.598</ele>
        <time>2020-09-02T09:15:28Z</time>
      </trkpt>
      <trkpt lat="43.97322" lon="5.61302">
        <ele>518.617</ele>
        <time>2020-09-02T09:15:29Z</time>
      </trkpt>
      <trkpt lat="43.9733" lon="5.61297">
        <ele>518.608</ele>
        <time>2020-09-02T09:15:30Z</time>
      </trkpt>
      <trkpt lat="43.9734" lon="5.61296">
        <ele>519.329</ele>
        <time>2020-09-02T09:15:31Z</time>
      </trkpt>
      <trkpt lat="43.9735" lon="5.61297">
        <ele>519.848</ele>
        <time>2020-09-02T09:15:32Z</time>
      </trkpt>
      <trkpt lat="43.97359" lon="5.61299">
        <ele>520.048</ele>
        <time>2020-09-02T09:15:33Z</time>
      </trkpt>
      <trkpt lat="43.97369" lon="5.613">
        <ele>519.995</ele>
        <time>2020-09-02T09:15:34Z</time>
      </trkpt>
      <trkpt lat="43.97379" lon="5.61303">
        <ele>519.586</ele>
        <time>2020-09-02T09:15:35Z</time>
      </trkpt>
      <trkpt lat="43.97387" lon="5.61305">
        <ele>520.774</ele>
        <time>2020-09-02T09:15:36Z</time>
      </trkpt>
      <trkpt lat="43.97397" lon="5.61306">
        <ele>520.25</ele>
        <time>2020-09-02T09:15:37Z</time>
      </trkpt>
      <trkpt lat="43.97406" lon="5.61307">
        <ele>520.333</ele>
        <time>2020-09-02T09:15:38Z</time>
      </trkpt>
      <trkpt lat="43.97413" lon="5.61305">
        <ele>521.129</ele>
        <time>2020-09-02T09:15:39Z</time>
      </trkpt>
      <trkpt lat="43.97419" lon="5.613">
        <ele>520.8</ele>
        <time>2020-09-02T09:15:40Z</time>
      </trkpt>
      <trkpt lat="43.97427" lon="5.61297">
        <ele>521.22</ele>
        <time>2020-09-02T09:15:41Z</time>
      </trkpt>
      <trkpt lat="43.97435" lon="5.61296">
        <ele>521.308</ele>
        <time>2020-09-02T09:15:42Z</time>
      </trkpt>
      <trkpt lat="43.97444" lon="5.61299">
        <ele>521.71</ele>
        <time>2020-09-02T09:15:43Z</time>
      </trkpt>
      <trkpt lat="43.97453" lon="5.61303">
        <ele>521.879</ele>
        <time>2020-09-02T09:15:44Z</time>
      </trkpt>
      <trkpt lat="43.97464" lon="5.61305">
        <ele>521.839</ele>
        <time>2020-09-02T09:15:45Z</time>
      </trkpt>
      <trkpt lat="43.97474" lon="5.61307">
        <ele>521.116</ele>
        <time>2020-09-02T09:15:46Z</time>
      </trkpt>
      <trkpt lat="43.97485" lon="5.61306">
        <ele>520.997</ele>
        <time>2020-09-02T09:15:47Z</time>
      </trkpt>
      <trkpt lat="43.97495" lon="5.61304">
        <ele>521.085</ele>
        <time>2020-09-02T09:15:48Z</time>
      </trkpt>
      <trkpt lat="43.97505" lon="5.61303">
        <ele>521.321</ele>
        <time>2020-09-02T09:15:49Z</time>
      </trkpt>
      <trkpt lat="43.97513" lon="5.61301">
        <ele>521.164</ele>
        <time>2020-09-02T09:15:50Z</time>
      </trkpt>
      <trkpt lat="43.97523" lon="5.61301">
        <ele>520.145</ele>
        <time>2020-09-02T09:15:51Z</time>
      </trkpt>
      <trkpt lat="43.97531" lon="5.61297">
        <ele>520.347</ele>
        <time>2020-09-02T09:15:52Z</time>
      </trkpt>
      <trkpt lat="43.9754" lon="5.6129">
        <ele>521.111</ele>
        <time>2020-09-02T09:15:53Z</time>
      </trkpt>
      <trkpt lat="43.97547" lon="5.61281">
        <ele>521.508</ele>
        <time>2020-09-02T09:15:54Z</time>
      </trkpt>
      <trkpt lat="43.97551" lon="5.6127">
        <ele>521.752</ele>
        <time>2020-09-02T09:15:55Z</time>
      </trkpt>
      <trkpt lat="43.97554" lon="5.61259">
        <ele>521.991</ele>
        <time>2020-09-02T09:15:56Z</time>
      </trkpt>
      <trkpt lat="43.97559" lon="5.61248">
        <ele>522.341</ele>
        <time>2020-09-02T09:15:57Z</time>
      </trkpt>
      <trkpt lat="43.97563" lon="5.6124">
        <ele>522.438</ele>
        <time>2020-09-02T09:15:58Z</time>
      </trkpt>
      <trkpt lat="43.97569" lon="5.61234">
        <ele>522.699</ele>
        <time>2020-09-02T09:15:59Z</time>
      </trkpt>
      <trkpt lat="43.97577" lon="5.61231">
        <ele>522.687</ele>
        <time>2020-09-02T09:16:00Z</time>
      </trkpt>
      <trkpt lat="43.97585" lon="5.6123">
        <ele>522.653</ele>
        <time>2020-09-02T09:16:01Z</time>
      </trkpt>
      <trkpt lat="43.97593" lon="5.61231">
        <ele>522.536</ele>
        <time>2020-09-02T09:16:02Z</time>
      </trkpt>
      <trkpt lat="43.97601" lon="5.61234">
        <ele>522.726</ele>
        <time>2020-09-02T09:16:03Z</time>
      </trkpt>
      <trkpt lat="43.9761" lon="5.61238">
        <ele>522.947</ele>
        <time>2020-09-02T09:16:04Z</time>
      </trkpt>
      <trkpt lat="43.9762" lon="5.61242">
        <ele>523.611</ele>
        <time>2020-09-02T09:16:05Z</time>
      </trkpt>
      <trkpt lat="43.9763" lon="5.61246">
        <ele>523.808</ele>
        <time>2020-09-02T09:16:06Z</time>
      </trkpt>
      <trkpt lat="43.97641" lon="5.6125">
        <ele>524.06</ele>
        <time>2020-09-02T09:16:07Z</time>
      </trkpt>
      <trkpt lat="43.97652" lon="5.61253">
        <ele>523.999</ele>
        <time>2020-09-02T09:16:08Z</time>
      </trkpt>
      <trkpt lat="43.97664" lon="5.61254">
        <ele>524.199</ele>
        <time>2020-09-02T09:16:09Z</time>
      </trkpt>
      <trkpt lat="43.97675" lon="5.61256">
        <ele>524.066</ele>
        <time>2020-09-02T09:16:10Z</time>
      </trkpt>
      <trkpt lat="43.97686" lon="5.61258">
        <ele>524.527</ele>
        <time>2020-09-02T09:16:11Z</time>
      </trkpt>
      <trkpt lat="43.97697" lon="5.61264">
        <ele>524.635</ele>
        <time>2020-09-02T09:16:12Z</time>
      </trkpt>
      <trkpt lat="43.97708" lon="5.61268">
        <ele>524.791</ele>
        <time>2020-09-02T09:16:13Z</time>
      </trkpt>
      <trkpt lat="43.9772" lon="5.61271">
        <ele>524.924</ele>
        <time>2020-09-02T09:16:14Z</time>
      </trkpt>
      <trkpt lat="43.97732" lon="5.61273">
        <ele>524.868</ele>
        <time>2020-09-02T09:16:15Z</time>
      </trkpt>
      <trkpt lat="43.97743" lon="5.6127">
        <ele>525.042</ele>
        <time>2020-09-02T09:16:16Z</time>
      </trkpt>
      <trkpt lat="43.97754" lon="5.61267">
        <ele>524.726</ele>
        <time>2020-09-02T09:16:17Z</time>
      </trkpt>
      <trkpt lat="43.97765" lon="5.61262">
        <ele>524.908</ele>
        <time>2020-09-02T09:16:18Z</time>
      </trkpt>
      <trkpt lat="43.97776" lon="5.61258">
        <ele>525.184</ele>
        <time>2020-09-02T09:16:19Z</time>
      </trkpt>
      <trkpt lat="43.97787" lon="5.61256">
        <ele>524.813</ele>
        <time>2020-09-02T09:16:20Z</time>
      </trkpt>
      <trkpt lat="43.97797" lon="5.61255">
        <ele>524.833</ele>
        <time>2020-09-02T09:16:21Z</time>
      </trkpt>
      <trkpt lat="43.97807" lon="5.61258">
        <ele>524.64</ele>
        <time>2020-09-02T09:16:22Z</time>
      </trkpt>
      <trkpt lat="43.97817" lon="5.61259">
        <ele>524.741</ele>
        <time>2020-09-02T09:16:23Z</time>
      </trkpt>
      <trkpt lat="43.97826" lon="5.61258">
        <ele>524.819</ele>
        <time>2020-09-02T09:16:24Z</time>
      </trkpt>
      <trkpt lat="43.97836" lon="5.61257">
        <ele>525.195</ele>
        <time>2020-09-02T09:16:25Z</time>
      </trkpt>
      <trkpt lat="43.97845" lon="5.61257">
        <ele>525.478</ele>
        <time>2020-09-02T09:16:26Z</time>
      </trkpt>
      <trkpt lat="43.97853" lon="5.61256">
        <ele>525.239</ele>
        <time>2020-09-02T09:16:27Z</time>
      </trkpt>
      <trkpt lat="43.97861" lon="5.61256">
        <ele>525.701</ele>
        <time>2020-09-02T09:16:28Z</time>
      </trkpt>
      <trkpt lat="43.97869" lon="5.61256">
        <ele>526.021</ele>
        <time>2020-09-02T09:16:29Z</time>
      </trkpt>
      <trkpt lat="43.97876" lon="5.61257">
        <ele>525.908</ele>
        <time>2020-09-02T09:16:30Z</time>
      </trkpt>
      <trkpt lat="43.97884" lon="5.61258">
        <ele>526.661</ele>
        <time>2020-09-02T09:16:31Z</time>
      </trkpt>
      <trkpt lat="43.97892" lon="5.61259">
        <ele>526.75</ele>
        <time>2020-09-02T09:16:32Z</time>
      </trkpt>
      <trkpt lat="43.97899" lon="5.6126">
        <ele>527.18</ele>
        <time>2020-09-02T09:16:33Z</time>
      </trkpt>
      <trkpt lat="43.97906" lon="5.6126">
        <ele>526.867</ele>
        <time>2020-09-02T09:16:34Z</time>
      </trkpt>
      <trkpt lat="43.97912" lon="5.6126">
        <ele>526.948</ele>
        <time>2020-09-02T09:16:35Z</time>
      </trkpt>
      <trkpt lat="43.97918" lon="5.61264">
        <ele>526.996</ele>
        <time>2020-09-02T09:16:36Z</time>
      </trkpt>
      <trkpt lat="43.97924" lon="5.6127">
        <ele>526.872</ele>
        <time>2020-09-02T09:16:37Z</time>
      </trkpt>
      <trkpt lat="43.97926" lon="5.61276">
        <ele>527.155</ele>
        <time>2020-09-02T09:16:38Z</time>
      </trkpt>
      <trkpt lat="43.97928" lon="5.61283">
        <ele>526.766</ele>
        <time>2020-09-02T09:16:39Z</time>
      </trkpt>
      <trkpt lat="43.9793" lon="5.61293">
        <ele>526.329</ele>
        <time>2020-09-02T09:16:40Z</time>
      </trkpt>
      <trkpt lat="43.97933" lon="5.613">
        <ele>526.521</ele>
        <time>2020-09-02T09:16:41Z</time>
      </trkpt>
      <trkpt lat="43.97938" lon="5.61306">
        <ele>526.208</ele>
        <time>2020-09-02T09:16:42Z</time>
      </trkpt>
      <trkpt lat="43.97943" lon="5.61309">
        <ele>525.584</ele>
        <time>2020-09-02T09:16:43Z</time>
      </trkpt>
      <trkpt lat="43.97949" lon="5.61313">
        <ele>525.843</ele>
        <time>2020-09-02T09:16:44Z</time>
      </trkpt>
      <trkpt lat="43.97956" lon="5.61315">
        <ele>526.053</ele>
        <time>2020-09-02T09:16:45Z</time>
      </trkpt>
      <trkpt lat="43.97965" lon="5.61319">
        <ele>526.94</ele>
        <time>2020-09-02T09:16:46Z</time>
      </trkpt>
      <trkpt lat="43.97973" lon="5.61323">
        <ele>527.211</ele>
        <time>2020-09-02T09:16:47Z</time>
      </trkpt>
      <trkpt lat="43.97982" lon="5.61326">
        <ele>528.059</ele>
        <time>2020-09-02T09:16:48Z</time>
      </trkpt>
      <trkpt lat="43.97991" lon="5.6133">
        <ele>528.415</ele>
        <time>2020-09-02T09:16:49Z</time>
      </trkpt>
      <trkpt lat="43.98" lon="5.61334">
        <ele>528.878</ele>
        <time>2020-09-02T09:16:50Z</time>
      </trkpt>
      <trkpt lat="43.98009" lon="5.61339">
        <ele>529.664</ele>
        <time>2020-09-02T09:16:51Z</time>
      </trkpt>
      <trkpt lat="43.98019" lon="5.61342">
        <ele>530.106</ele>
        <time>2020-09-02T09:16:52Z</time>
      </trkpt>
      <trkpt lat="43.9803" lon="5.61343">
        <ele>530.716</ele>
        <time>2020-09-02T09:16:53Z</time>
      </trkpt>
      <trkpt lat="43.98041" lon="5.61347">
        <ele>532.208</ele>
        <time>2020-09-02T09:16:54Z</time>
      </trkpt>
      <trkpt lat="43.98051" lon="5.61352">
        <ele>531.934</ele>
        <time>2020-09-02T09:16:55Z</time>
      </trkpt>
      <trkpt lat="43.9806" lon="5.61356">
        <ele>532.713</ele>
        <time>2020-09-02T09:16:56Z</time>
      </trkpt>
      <trkpt lat="43.9807" lon="5.61361">
        <ele>533.383</ele>
        <time>2020-09-02T09:16:57Z</time>
      </trkpt>
      <trkpt lat="43.9808" lon="5.61366">
        <ele>534.13</ele>
        <time>2020-09-02T09:16:58Z</time>
      </trkpt>
      <trkpt lat="43.98089" lon="5.61369">
        <ele>535.051</ele>
        <time>2020-09-02T09:16:59Z</time>
      </trkpt>
      <trkpt lat="43.98101" lon="5.61365">
        <ele>536.139</ele>
        <time>2020-09-02T09:17:00Z</time>
      </trkpt>
      <trkpt lat="43.98111" lon="5.61366">
        <ele>536.295</ele>
        <time>2020-09-02T09:17:01Z</time>
      </trkpt>
      <trkpt lat="43.98123" lon="5.61368">
        <ele>537.158</ele>
        <time>2020-09-02T09:17:02Z</time>
      </trkpt>
      <trkpt lat="43.98134" lon="5.61375">
        <ele>537.234</ele>
        <time>2020-09-02T09:17:03Z</time>
      </trkpt>
      <trkpt lat="43.98146" lon="5.61379">
        <ele>536.955</ele>
        <time>2020-09-02T09:17:04Z</time>
      </trkpt>
      <trkpt lat="43.98157" lon="5.61382">
        <ele>537.21</ele>
        <time>2020-09-02T09:17:05Z</time>
      </trkpt>
      <trkpt lat="43.98168" lon="5.61387">
        <ele>538.008</ele>
        <time>2020-09-02T09:17:06Z</time>
      </trkpt>
      <trkpt lat="43.98178" lon="5.61391">
        <ele>538.631</ele>
        <time>2020-09-02T09:17:07Z</time>
      </trkpt>
      <trkpt lat="43.98188" lon="5.61394">
        <ele>539.43</ele>
        <time>2020-09-02T09:17:08Z</time>
      </trkpt>
      <trkpt lat="43.98198" lon="5.61396">
        <ele>540.38</ele>
        <time>2020-09-02T09:17:09Z</time>
      </trkpt>
      <trkpt lat="43.98207" lon="5.61395">
        <ele>540.197</ele>
        <time>2020-09-02T09:17:10Z</time>
      </trkpt>
      <trkpt lat="43.98216" lon="5.61396">
        <ele>540.488</ele>
        <time>2020-09-02T09:17:11Z</time>
      </trkpt>
      <trkpt lat="43.98226" lon="5.61399">
        <ele>541.366</ele>
        <time>2020-09-02T09:17:12Z</time>
      </trkpt>
      <trkpt lat="43.98236" lon="5.61404">
        <ele>541.472</ele>
        <time>2020-09-02T09:17:13Z</time>
      </trkpt>
      <trkpt lat="43.98245" lon="5.61411">
        <ele>542.265</ele>
        <time>2020-09-02T09:17:14Z</time>
      </trkpt>
      <trkpt lat="43.98252" lon="5.61417">
        <ele>542.534</ele>
        <time>2020-09-02T09:17:15Z</time>
      </trkpt>
      <trkpt lat="43.98262" lon="5.61421">
        <ele>543.255</ele>
        <time>2020-09-02T09:17:16Z</time>
      </trkpt>
      <trkpt lat="43.98268" lon="5.61423">
        <ele>543.61</ele>
        <time>2020-09-02T09:17:17Z</time>
      </trkpt>
      <trkpt lat="43.98273" lon="5.61424">
        <ele>544.008</ele>
        <time>2020-09-02T09:17:18Z</time>
      </trkpt>
      <trkpt lat="43.98278" lon="5.61425">
        <ele>544.571</ele>
        <time>2020-09-02T09:17:19Z</time>
      </trkpt>
      <trkpt lat="43.98286" lon="5.61429">
        <ele>545.34</ele>
        <time>2020-09-02T09:17:21Z</time>
      </trkpt>
      <trkpt lat="43.9829" lon="5.61433">
        <ele>545.24</ele>
        <time>2020-09-02T09:17:22Z</time>
      </trkpt>
      <trkpt lat="43.98294" lon="5.61438">
        <ele>544.627</ele>
        <time>2020-09-02T09:17:24Z</time>
      </trkpt>
      <trkpt lat="43.98298" lon="5.61446">
        <ele>542.858</ele>
        <time>2020-09-02T09:17:27Z</time>
      </trkpt>
      <trkpt lat="43.98302" lon="5.6145">
        <ele>542.816</ele>
        <time>2020-09-02T09:17:28Z</time>
      </trkpt>
      <trkpt lat="43.98307" lon="5.61451">
        <ele>543.192</ele>
        <time>2020-09-02T09:17:29Z</time>
      </trkpt>
      <trkpt lat="43.98314" lon="5.6145">
        <ele>543.415</ele>
        <time>2020-09-02T09:17:30Z</time>
      </trkpt>
      <trkpt lat="43.98322" lon="5.61447">
        <ele>544.135</ele>
        <time>2020-09-02T09:17:31Z</time>
      </trkpt>
      <trkpt lat="43.98331" lon="5.61444">
        <ele>544.986</ele>
        <time>2020-09-02T09:17:32Z</time>
      </trkpt>
      <trkpt lat="43.9834" lon="5.6144">
        <ele>546.114</ele>
        <time>2020-09-02T09:17:33Z</time>
      </trkpt>
      <trkpt lat="43.98351" lon="5.61434">
        <ele>546.508</ele>
        <time>2020-09-02T09:17:34Z</time>
      </trkpt>
      <trkpt lat="43.98361" lon="5.61427">
        <ele>547.121</ele>
        <time>2020-09-02T09:17:35Z</time>
      </trkpt>
      <trkpt lat="43.98373" lon="5.61421">
        <ele>547.92</ele>
        <time>2020-09-02T09:17:36Z</time>
      </trkpt>
      <trkpt lat="43.98385" lon="5.61417">
        <ele>548.19</ele>
        <time>2020-09-02T09:17:37Z</time>
      </trkpt>
      <trkpt lat="43.98398" lon="5.61414">
        <ele>548.247</ele>
        <time>2020-09-02T09:17:38Z</time>
      </trkpt>
      <trkpt lat="43.98412" lon="5.61412">
        <ele>548.918</ele>
        <time>2020-09-02T09:17:39Z</time>
      </trkpt>
      <trkpt lat="43.98425" lon="5.61408">
        <ele>549.076</ele>
        <time>2020-09-02T09:17:40Z</time>
      </trkpt>
      <trkpt lat="43.98436" lon="5.61401">
        <ele>549.412</ele>
        <time>2020-09-02T09:17:41Z</time>
      </trkpt>
      <trkpt lat="43.98448" lon="5.61393">
        <ele>550.485</ele>
        <time>2020-09-02T09:17:42Z</time>
      </trkpt>
      <trkpt lat="43.9846" lon="5.61384">
        <ele>551.224</ele>
        <time>2020-09-02T09:17:43Z</time>
      </trkpt>
      <trkpt lat="43.98474" lon="5.61377">
        <ele>551.904</ele>
        <time>2020-09-02T09:17:44Z</time>
      </trkpt>
      <trkpt lat="43.98488" lon="5.61375">
        <ele>552.214</ele>
        <time>2020-09-02T09:17:45Z</time>
      </trkpt>
      <trkpt lat="43.98503" lon="5.61376">
        <ele>552.708</ele>
        <time>2020-09-02T09:17:46Z</time>
      </trkpt>
      <trkpt lat="43.98519" lon="5.61382">
        <ele>552.61</ele>
        <time>2020-09-02T09:17:47Z</time>
      </trkpt>
      <trkpt lat="43.98532" lon="5.61392">
        <ele>552.459</ele>
        <time>2020-09-02T09:17:48Z</time>
      </trkpt>
      <trkpt lat="43.98545" lon="5.61402">
        <ele>551.459</ele>
        <time>2020-09-02T09:17:49Z</time>
      </trkpt>
      <trkpt lat="43.98557" lon="5.61411">
        <ele>550.776</ele>
        <time>2020-09-02T09:17:50Z</time>
      </trkpt>
      <trkpt lat="43.9857" lon="5.61418">
        <ele>550.227</ele>
        <time>2020-09-02T09:17:51Z</time>
      </trkpt>
      <trkpt lat="43.98583" lon="5.61419">
        <ele>549.735</ele>
        <time>2020-09-02T09:17:52Z</time>
      </trkpt>
      <trkpt lat="43.98597" lon="5.61422">
        <ele>549.851</ele>
        <time>2020-09-02T09:17:53Z</time>
      </trkpt>
      <trkpt lat="43.98608" lon="5.6143">
        <ele>550.114</ele>
        <time>2020-09-02T09:17:54Z</time>
      </trkpt>
      <trkpt lat="43.9862" lon="5.61441">
        <ele>549.078</ele>
        <time>2020-09-02T09:17:55Z</time>
      </trkpt>
      <trkpt lat="43.98632" lon="5.61455">
        <ele>549.333</ele>
        <time>2020-09-02T09:17:56Z</time>
      </trkpt>
      <trkpt lat="43.98643" lon="5.61469">
        <ele>550.226</ele>
        <time>2020-09-02T09:17:57Z</time>
      </trkpt>
      <trkpt lat="43.98654" lon="5.61482">
        <ele>550.408</ele>
        <time>2020-09-02T09:17:58Z</time>
      </trkpt>
      <trkpt lat="43.98665" lon="5.61493">
        <ele>550.855</ele>
        <time>2020-09-02T09:17:59Z</time>
      </trkpt>
      <trkpt lat="43.98677" lon="5.61501">
        <ele>551.194</ele>
        <time>2020-09-02T09:18:00Z</time>
      </trkpt>
      <trkpt lat="43.98689" lon="5.61508">
        <ele>551.334</ele>
        <time>2020-09-02T09:18:01Z</time>
      </trkpt>
      <trkpt lat="43.98704" lon="5.61509">
        <ele>551.971</ele>
        <time>2020-09-02T09:18:02Z</time>
      </trkpt>
      <trkpt lat="43.98719" lon="5.6151">
        <ele>552.982</ele>
        <time>2020-09-02T09:18:03Z</time>
      </trkpt>
      <trkpt lat="43.98733" lon="5.61512">
        <ele>553.55</ele>
        <time>2020-09-02T09:18:04Z</time>
      </trkpt>
      <trkpt lat="43.98746" lon="5.61514">
        <ele>553.336</ele>
        <time>2020-09-02T09:18:05Z</time>
      </trkpt>
      <trkpt lat="43.98759" lon="5.6152">
        <ele>553.549</ele>
        <time>2020-09-02T09:18:06Z</time>
      </trkpt>
      <trkpt lat="43.98771" lon="5.61529">
        <ele>553.918</ele>
        <time>2020-09-02T09:18:07Z</time>
      </trkpt>
      <trkpt lat="43.98782" lon="5.61541">
        <ele>555.498</ele>
        <time>2020-09-02T09:18:08Z</time>
      </trkpt>
      <trkpt lat="43.98793" lon="5.61555">
        <ele>555.917</ele>
        <time>2020-09-02T09:18:09Z</time>
      </trkpt>
      <trkpt lat="43.98802" lon="5.61568">
        <ele>556.608</ele>
        <time>2020-09-02T09:18:10Z</time>
      </trkpt>
      <trkpt lat="43.98813" lon="5.61579">
        <ele>557.049</ele>
        <time>2020-09-02T09:18:11Z</time>
      </trkpt>
      <trkpt lat="43.98824" lon="5.61588">
        <ele>557.138</ele>
        <time>2020-09-02T09:18:12Z</time>
      </trkpt>
      <trkpt lat="43.98837" lon="5.61594">
        <ele>557.318</ele>
        <time>2020-09-02T09:18:13Z</time>
      </trkpt>
      <trkpt lat="43.98851" lon="5.61597">
        <ele>557.875</ele>
        <time>2020-09-02T09:18:14Z</time>
      </trkpt>
      <trkpt lat="43.98866" lon="5.61598">
        <ele>558.626</ele>
        <time>2020-09-02T09:18:15Z</time>
      </trkpt>
      <trkpt lat="43.98882" lon="5.61598">
        <ele>559.724</ele>
        <time>2020-09-02T09:18:16Z</time>
      </trkpt>
      <trkpt lat="43.98898" lon="5.61599">
        <ele>560.27</ele>
        <time>2020-09-02T09:18:17Z</time>
      </trkpt>
      <trkpt lat="43.98915" lon="5.61602">
        <ele>560.993</ele>
        <time>2020-09-02T09:18:18Z</time>
      </trkpt>
      <trkpt lat="43.98932" lon="5.61605">
        <ele>560.637</ele>
        <time>2020-09-02T09:18:19Z</time>
      </trkpt>
      <trkpt lat="43.9895" lon="5.6161">
        <ele>560.049</ele>
        <time>2020-09-02T09:18:20Z</time>
      </trkpt>
      <trkpt lat="43.98966" lon="5.61609">
        <ele>560.813</ele>
        <time>2020-09-02T09:18:21Z</time>
      </trkpt>
      <trkpt lat="43.98981" lon="5.61607">
        <ele>561.208</ele>
        <time>2020-09-02T09:18:22Z</time>
      </trkpt>
      <trkpt lat="43.98993" lon="5.61602">
        <ele>561.851</ele>
        <time>2020-09-02T09:18:23Z</time>
      </trkpt>
      <trkpt lat="43.99006" lon="5.61596">
        <ele>562.56</ele>
        <time>2020-09-02T09:18:24Z</time>
      </trkpt>
      <trkpt lat="43.99016" lon="5.61587">
        <ele>562.98</ele>
        <time>2020-09-02T09:18:25Z</time>
      </trkpt>
      <trkpt lat="43.99025" lon="5.61576">
        <ele>563.727</ele>
        <time>2020-09-02T09:18:26Z</time>
      </trkpt>
      <trkpt lat="43.99034" lon="5.61564">
        <ele>564.768</ele>
        <time>2020-09-02T09:18:27Z</time>
      </trkpt>
      <trkpt lat="43.99042" lon="5.61552">
        <ele>565.836</ele>
        <time>2020-09-02T09:18:28Z</time>
      </trkpt>
      <trkpt lat="43.99052" lon="5.61541">
        <ele>565.462</ele>
        <time>2020-09-02T09:18:29Z</time>
      </trkpt>
      <trkpt lat="43.99059" lon="5.6153">
        <ele>566.795</ele>
        <time>2020-09-02T09:18:30Z</time>
      </trkpt>
      <trkpt lat="43.99069" lon="5.61522">
        <ele>567.836</ele>
        <time>2020-09-02T09:18:31Z</time>
      </trkpt>
      <trkpt lat="43.99081" lon="5.6152">
        <ele>569.317</ele>
        <time>2020-09-02T09:18:32Z</time>
      </trkpt>
      <trkpt lat="43.99092" lon="5.61521">
        <ele>570.018</ele>
        <time>2020-09-02T09:18:33Z</time>
      </trkpt>
      <trkpt lat="43.99105" lon="5.61524">
        <ele>570.608</ele>
        <time>2020-09-02T09:18:34Z</time>
      </trkpt>
      <trkpt lat="43.99117" lon="5.61528">
        <ele>570.881</ele>
        <time>2020-09-02T09:18:35Z</time>
      </trkpt>
      <trkpt lat="43.99131" lon="5.61532">
        <ele>571.27</ele>
        <time>2020-09-02T09:18:36Z</time>
      </trkpt>
      <trkpt lat="43.99144" lon="5.61539">
        <ele>572.01</ele>
        <time>2020-09-02T09:18:37Z</time>
      </trkpt>
      <trkpt lat="43.99156" lon="5.61549">
        <ele>572.867</ele>
        <time>2020-09-02T09:18:38Z</time>
      </trkpt>
      <trkpt lat="43.99168" lon="5.6156">
        <ele>574.958</ele>
        <time>2020-09-02T09:18:39Z</time>
      </trkpt>
      <trkpt lat="43.9918" lon="5.61571">
        <ele>576.056</ele>
        <time>2020-09-02T09:18:40Z</time>
      </trkpt>
      <trkpt lat="43.99192" lon="5.61581">
        <ele>576.332</ele>
        <time>2020-09-02T09:18:41Z</time>
      </trkpt>
      <trkpt lat="43.99205" lon="5.61586">
        <ele>577.355</ele>
        <time>2020-09-02T09:18:42Z</time>
      </trkpt>
      <trkpt lat="43.99218" lon="5.61587">
        <ele>578.354</ele>
        <time>2020-09-02T09:18:43Z</time>
      </trkpt>
      <trkpt lat="43.99232" lon="5.61589">
        <ele>579.456</ele>
        <time>2020-09-02T09:18:44Z</time>
      </trkpt>
      <trkpt lat="43.99246" lon="5.61595">
        <ele>580.111</ele>
        <time>2020-09-02T09:18:45Z</time>
      </trkpt>
      <trkpt lat="43.99259" lon="5.61604">
        <ele>581.308</ele>
        <time>2020-09-02T09:18:46Z</time>
      </trkpt>
      <trkpt lat="43.99274" lon="5.61614">
        <ele>581.663</ele>
        <time>2020-09-02T09:18:47Z</time>
      </trkpt>
      <trkpt lat="43.99289" lon="5.61624">
        <ele>580.712</ele>
        <time>2020-09-02T09:18:48Z</time>
      </trkpt>
      <trkpt lat="43.99302" lon="5.61635">
        <ele>581.222</ele>
        <time>2020-09-02T09:18:49Z</time>
      </trkpt>
      <trkpt lat="43.99316" lon="5.61648">
        <ele>582.489</ele>
        <time>2020-09-02T09:18:50Z</time>
      </trkpt>
      <trkpt lat="43.99329" lon="5.61664">
        <ele>582.81</ele>
        <time>2020-09-02T09:18:51Z</time>
      </trkpt>
      <trkpt lat="43.99342" lon="5.61676">
        <ele>583.158</ele>
        <time>2020-09-02T09:18:52Z</time>
      </trkpt>
      <trkpt lat="43.99353" lon="5.61688">
        <ele>583.274</ele>
        <time>2020-09-02T09:18:53Z</time>
      </trkpt>
      <trkpt lat="43.99365" lon="5.61698">
        <ele>583.247</ele>
        <time>2020-09-02T09:18:54Z</time>
      </trkpt>
      <trkpt lat="43.99377" lon="5.61706">
        <ele>583.179</ele>
        <time>2020-09-02T09:18:55Z</time>
      </trkpt>
      <trkpt lat="43.99389" lon="5.6171">
        <ele>582.905</ele>
        <time>2020-09-02T09:18:56Z</time>
      </trkpt>
      <trkpt lat="43.994" lon="5.61712">
        <ele>583.225</ele>
        <time>2020-09-02T09:18:57Z</time>
      </trkpt>
      <trkpt lat="43.99409" lon="5.61719">
        <ele>583.108</ele>
        <time>2020-09-02T09:18:58Z</time>
      </trkpt>
      <trkpt lat="43.99418" lon="5.61727">
        <ele>582.915</ele>
        <time>2020-09-02T09:18:59Z</time>
      </trkpt>
      <trkpt lat="43.99426" lon="5.61738">
        <ele>582.394</ele>
        <time>2020-09-02T09:19:00Z</time>
      </trkpt>
      <trkpt lat="43.99434" lon="5.6175">
        <ele>581.484</ele>
        <time>2020-09-02T09:19:01Z</time>
      </trkpt>
      <trkpt lat="43.99442" lon="5.61761">
        <ele>580.931</ele>
        <time>2020-09-02T09:19:02Z</time>
      </trkpt>
      <trkpt lat="43.9945" lon="5.61774">
        <ele>580.882</ele>
        <time>2020-09-02T09:19:03Z</time>
      </trkpt>
      <trkpt lat="43.99459" lon="5.61788">
        <ele>581.35</ele>
        <time>2020-09-02T09:19:04Z</time>
      </trkpt>
      <trkpt lat="43.99469" lon="5.61802">
        <ele>581.856</ele>
        <time>2020-09-02T09:19:05Z</time>
      </trkpt>
      <trkpt lat="43.99479" lon="5.61815">
        <ele>582.749</ele>
        <time>2020-09-02T09:19:06Z</time>
      </trkpt>
      <trkpt lat="43.9949" lon="5.61828">
        <ele>582.967</ele>
        <time>2020-09-02T09:19:07Z</time>
      </trkpt>
      <trkpt lat="43.99501" lon="5.6184">
        <ele>583.181</ele>
        <time>2020-09-02T09:19:08Z</time>
      </trkpt>
      <trkpt lat="43.99512" lon="5.61853">
        <ele>583.319</ele>
        <time>2020-09-02T09:19:09Z</time>
      </trkpt>
      <trkpt lat="43.99523" lon="5.61865">
        <ele>584.308</ele>
        <time>2020-09-02T09:19:10Z</time>
      </trkpt>
      <trkpt lat="43.99534" lon="5.61877">
        <ele>584.244</ele>
        <time>2020-09-02T09:19:11Z</time>
      </trkpt>
      <trkpt lat="43.99545" lon="5.6189">
        <ele>585.373</ele>
        <time>2020-09-02T09:19:12Z</time>
      </trkpt>
      <trkpt lat="43.99555" lon="5.61903">
        <ele>586.173</ele>
        <time>2020-09-02T09:19:13Z</time>
      </trkpt>
      <trkpt lat="43.99567" lon="5.61917">
        <ele>586.91</ele>
        <time>2020-09-02T09:19:14Z</time>
      </trkpt>
      <trkpt lat="43.99579" lon="5.61931">
        <ele>586.761</ele>
        <time>2020-09-02T09:19:15Z</time>
      </trkpt>
      <trkpt lat="43.9959" lon="5.61944">
        <ele>587.139</ele>
        <time>2020-09-02T09:19:16Z</time>
      </trkpt>
      <trkpt lat="43.99603" lon="5.61957">
        <ele>587.385</ele>
        <time>2020-09-02T09:19:17Z</time>
      </trkpt>
      <trkpt lat="43.99613" lon="5.6197">
        <ele>587.188</ele>
        <time>2020-09-02T09:19:18Z</time>
      </trkpt>
      <trkpt lat="43.99625" lon="5.61982">
        <ele>586.878</ele>
        <time>2020-09-02T09:19:19Z</time>
      </trkpt>
      <trkpt lat="43.99636" lon="5.61993">
        <ele>587.233</ele>
        <time>2020-09-02T09:19:20Z</time>
      </trkpt>
      <trkpt lat="43.99649" lon="5.61999">
        <ele>587.426</ele>
        <time>2020-09-02T09:19:21Z</time>
      </trkpt>
      <trkpt lat="43.99663" lon="5.62007">
        <ele>588.108</ele>
        <time>2020-09-02T09:19:22Z</time>
      </trkpt>
      <trkpt lat="43.99677" lon="5.62017">
        <ele>588.815</ele>
        <time>2020-09-02T09:19:23Z</time>
      </trkpt>
      <trkpt lat="43.99691" lon="5.62027">
        <ele>589.144</ele>
        <time>2020-09-02T09:19:24Z</time>
      </trkpt>
      <trkpt lat="43.99705" lon="5.62036">
        <ele>589.244</ele>
        <time>2020-09-02T09:19:25Z</time>
      </trkpt>
      <trkpt lat="43.9972" lon="5.62038">
        <ele>589.751</ele>
        <time>2020-09-02T09:19:26Z</time>
      </trkpt>
      <trkpt lat="43.99735" lon="5.6204">
        <ele>590.382</ele>
        <time>2020-09-02T09:19:27Z</time>
      </trkpt>
      <trkpt lat="43.99752" lon="5.62042">
        <ele>590.42</ele>
        <time>2020-09-02T09:19:28Z</time>
      </trkpt>
      <trkpt lat="43.99768" lon="5.62046">
        <ele>590.686</ele>
        <time>2020-09-02T09:19:29Z</time>
      </trkpt>
      <trkpt lat="43.99786" lon="5.62052">
        <ele>591.189</ele>
        <time>2020-09-02T09:19:30Z</time>
      </trkpt>
      <trkpt lat="43.99804" lon="5.62059">
        <ele>592.676</ele>
        <time>2020-09-02T09:19:31Z</time>
      </trkpt>
      <trkpt lat="43.99821" lon="5.62065">
        <ele>592.79</ele>
        <time>2020-09-02T09:19:32Z</time>
      </trkpt>
      <trkpt lat="43.99839" lon="5.62073">
        <ele>592.919</ele>
        <time>2020-09-02T09:19:33Z</time>
      </trkpt>
      <trkpt lat="43.99858" lon="5.62082">
        <ele>594.408</ele>
        <time>2020-09-02T09:19:34Z</time>
      </trkpt>
      <trkpt lat="43.99876" lon="5.62088">
        <ele>594.715</ele>
        <time>2020-09-02T09:19:35Z</time>
      </trkpt>
      <trkpt lat="43.99894" lon="5.62094">
        <ele>595.474</ele>
        <time>2020-09-02T09:19:36Z</time>
      </trkpt>
      <trkpt lat="43.99911" lon="5.62101">
        <ele>596.194</ele>
        <time>2020-09-02T09:19:37Z</time>
      </trkpt>
      <trkpt lat="43.99927" lon="5.6211">
        <ele>596.811</ele>
        <time>2020-09-02T09:19:38Z</time>
      </trkpt>
      <trkpt lat="43.99944" lon="5.62122">
        <ele>598.142</ele>
        <time>2020-09-02T09:19:39Z</time>
      </trkpt>
      <trkpt lat="43.9996" lon="5.62133">
        <ele>599.03</ele>
        <time>2020-09-02T09:19:40Z</time>
      </trkpt>
      <trkpt lat="43.99976" lon="5.62145">
        <ele>599.846</ele>
        <time>2020-09-02T09:19:41Z</time>
      </trkpt>
      <trkpt lat="43.99992" lon="5.62157">
        <ele>600.689</ele>
        <time>2020-09-02T09:19:42Z</time>
      </trkpt>
      <trkpt lat="44.0001" lon="5.62169">
        <ele>600.521</ele>
        <time>2020-09-02T09:19:43Z</time>
      </trkpt>
      <trkpt lat="44.00026" lon="5.62181">
        <ele>600.941</ele>
        <time>2020-09-02T09:19:44Z</time>
      </trkpt>
      <trkpt lat="44.00045" lon="5.62194">
        <ele>602.305</ele>
        <time>2020-09-02T09:19:45Z</time>
      </trkpt>
      <trkpt lat="44.0006" lon="5.62203">
        <ele>602.708</ele>
        <time>2020-09-02T09:19:46Z</time>
      </trkpt>
      <trkpt lat="44.00076" lon="5.62213">
        <ele>602.69</ele>
        <time>2020-09-02T09:19:47Z</time>
      </trkpt>
      <trkpt lat="44.00091" lon="5.62224">
        <ele>602.139</ele>
        <time>2020-09-02T09:19:48Z</time>
      </trkpt>
      <trkpt lat="44.00105" lon="5.62235">
        <ele>602.039</ele>
        <time>2020-09-02T09:19:49Z</time>
      </trkpt>
      <trkpt lat="44.0012" lon="5.62247">
        <ele>603.066</ele>
        <time>2020-09-02T09:19:50Z</time>
      </trkpt>
      <trkpt lat="44.00133" lon="5.62261">
        <ele>603.527</ele>
        <time>2020-09-02T09:19:51Z</time>
      </trkpt>
      <trkpt lat="44.00145" lon="5.62276">
        <ele>604.185</ele>
        <time>2020-09-02T09:19:52Z</time>
      </trkpt>
      <trkpt lat="44.00156" lon="5.62289">
        <ele>605.041</ele>
        <time>2020-09-02T09:19:53Z</time>
      </trkpt>
      <trkpt lat="44.00166" lon="5.623">
        <ele>606.484</ele>
        <time>2020-09-02T09:19:54Z</time>
      </trkpt>
      <trkpt lat="44.00176" lon="5.62311">
        <ele>606.888</ele>
        <time>2020-09-02T09:19:55Z</time>
      </trkpt>
      <trkpt lat="44.00188" lon="5.62317">
        <ele>607.224</ele>
        <time>2020-09-02T09:19:56Z</time>
      </trkpt>
      <trkpt lat="44.00201" lon="5.62323">
        <ele>607.726</ele>
        <time>2020-09-02T09:19:57Z</time>
      </trkpt>
      <trkpt lat="44.00215" lon="5.62328">
        <ele>607.508</ele>
        <time>2020-09-02T09:19:58Z</time>
      </trkpt>
      <trkpt lat="44.0023" lon="5.62336">
        <ele>607.466</ele>
        <time>2020-09-02T09:19:59Z</time>
      </trkpt>
      <trkpt lat="44.00246" lon="5.62344">
        <ele>606.915</ele>
        <time>2020-09-02T09:20:00Z</time>
      </trkpt>
      <trkpt lat="44.0026" lon="5.62353">
        <ele>606.555</ele>
        <time>2020-09-02T09:20:01Z</time>
      </trkpt>
      <trkpt lat="44.00274" lon="5.62361">
        <ele>606.632</ele>
        <time>2020-09-02T09:20:02Z</time>
      </trkpt>
      <trkpt lat="44.00289" lon="5.6237">
        <ele>607.343</ele>
        <time>2020-09-02T09:20:03Z</time>
      </trkpt>
      <trkpt lat="44.00304" lon="5.62381">
        <ele>608.211</ele>
        <time>2020-09-02T09:20:04Z</time>
      </trkpt>
      <trkpt lat="44.00317" lon="5.6239">
        <ele>608.747</ele>
        <time>2020-09-02T09:20:05Z</time>
      </trkpt>
      <trkpt lat="44.0033" lon="5.62402">
        <ele>608.98</ele>
        <time>2020-09-02T09:20:06Z</time>
      </trkpt>
      <trkpt lat="44.00342" lon="5.62414">
        <ele>609.668</ele>
        <time>2020-09-02T09:20:07Z</time>
      </trkpt>
      <trkpt lat="44.00355" lon="5.62424">
        <ele>610.342</ele>
        <time>2020-09-02T09:20:08Z</time>
      </trkpt>
      <trkpt lat="44.0037" lon="5.62433">
        <ele>611.326</ele>
        <time>2020-09-02T09:20:09Z</time>
      </trkpt>
      <trkpt lat="44.00385" lon="5.62443">
        <ele>612.608</ele>
        <time>2020-09-02T09:20:10Z</time>
      </trkpt>
      <trkpt lat="44.004" lon="5.62451">
        <ele>613.534</ele>
        <time>2020-09-02T09:20:11Z</time>
      </trkpt>
      <trkpt lat="44.00415" lon="5.62454">
        <ele>614.763</ele>
        <time>2020-09-02T09:20:12Z</time>
      </trkpt>
      <trkpt lat="44.0043" lon="5.62452">
        <ele>613.623</ele>
        <time>2020-09-02T09:20:13Z</time>
      </trkpt>
      <trkpt lat="44.00446" lon="5.62449">
        <ele>613.52</ele>
        <time>2020-09-02T09:20:14Z</time>
      </trkpt>
      <trkpt lat="44.0046" lon="5.62442">
        <ele>613.371</ele>
        <time>2020-09-02T09:20:15Z</time>
      </trkpt>
      <trkpt lat="44.00475" lon="5.62435">
        <ele>613.019</ele>
        <time>2020-09-02T09:20:16Z</time>
      </trkpt>
      <trkpt lat="44.00491" lon="5.6243">
        <ele>613.245</ele>
        <time>2020-09-02T09:20:17Z</time>
      </trkpt>
      <trkpt lat="44.00506" lon="5.62427">
        <ele>613.688</ele>
        <time>2020-09-02T09:20:18Z</time>
      </trkpt>
      <trkpt lat="44.00522" lon="5.62428">
        <ele>614.451</ele>
        <time>2020-09-02T09:20:19Z</time>
      </trkpt>
      <trkpt lat="44.00536" lon="5.62433">
        <ele>614.901</ele>
        <time>2020-09-02T09:20:20Z</time>
      </trkpt>
      <trkpt lat="44.0055" lon="5.62439">
        <ele>615.911</ele>
        <time>2020-09-02T09:20:21Z</time>
      </trkpt>
      <trkpt lat="44.00565" lon="5.62447">
        <ele>616.308</ele>
        <time>2020-09-02T09:20:22Z</time>
      </trkpt>
      <trkpt lat="44.0058" lon="5.62455">
        <ele>617.433</ele>
        <time>2020-09-02T09:20:23Z</time>
      </trkpt>
      <trkpt lat="44.00595" lon="5.62464">
        <ele>618.232</ele>
        <time>2020-09-02T09:20:24Z</time>
      </trkpt>
      <trkpt lat="44.00611" lon="5.62472">
        <ele>619.052</ele>
        <time>2020-09-02T09:20:25Z</time>
      </trkpt>
      <trkpt lat="44.00628" lon="5.6248">
        <ele>619.999</ele>
        <time>2020-09-02T09:20:26Z</time>
      </trkpt>
      <trkpt lat="44.00645" lon="5.62486">
        <ele>620.18</ele>
        <time>2020-09-02T09:20:27Z</time>
      </trkpt>
      <trkpt lat="44.0066" lon="5.62494">
        <ele>621.758</ele>
        <time>2020-09-02T09:20:28Z</time>
      </trkpt>
      <trkpt lat="44.00676" lon="5.62502">
        <ele>622.384</ele>
        <time>2020-09-02T09:20:29Z</time>
      </trkpt>
      <trkpt lat="44.00693" lon="5.62508">
        <ele>623.077</ele>
        <time>2020-09-02T09:20:30Z</time>
      </trkpt>
      <trkpt lat="44.00709" lon="5.62511">
        <ele>624.436</ele>
        <time>2020-09-02T09:20:31Z</time>
      </trkpt>
      <trkpt lat="44.00727" lon="5.62511">
        <ele>625.217</ele>
        <time>2020-09-02T09:20:32Z</time>
      </trkpt>
      <trkpt lat="44.00745" lon="5.62513">
        <ele>625.818</ele>
        <time>2020-09-02T09:20:33Z</time>
      </trkpt>
      <trkpt lat="44.00763" lon="5.62515">
        <ele>627.508</ele>
        <time>2020-09-02T09:20:34Z</time>
      </trkpt>
      <trkpt lat="44.00781" lon="5.62516">
        <ele>628.241</ele>
        <time>2020-09-02T09:20:35Z</time>
      </trkpt>
      <trkpt lat="44.00798" lon="5.62516">
        <ele>628.62</ele>
        <time>2020-09-02T09:20:36Z</time>
      </trkpt>
      <trkpt lat="44.00816" lon="5.62518">
        <ele>629.79</ele>
        <time>2020-09-02T09:20:37Z</time>
      </trkpt>
      <trkpt lat="44.00834" lon="5.62521">
        <ele>630.427</ele>
        <time>2020-09-02T09:20:38Z</time>
      </trkpt>
      <trkpt lat="44.00851" lon="5.62524">
        <ele>630.778</ele>
        <time>2020-09-02T09:20:39Z</time>
      </trkpt>
      <trkpt lat="44.00868" lon="5.62527">
        <ele>631.336</ele>
        <time>2020-09-02T09:20:40Z</time>
      </trkpt>
      <trkpt lat="44.00884" lon="5.62529">
        <ele>631.252</ele>
        <time>2020-09-02T09:20:41Z</time>
      </trkpt>
      <trkpt lat="44.009" lon="5.6253">
        <ele>631.935</ele>
        <time>2020-09-02T09:20:42Z</time>
      </trkpt>
      <trkpt lat="44.00916" lon="5.62528">
        <ele>632.337</ele>
        <time>2020-09-02T09:20:43Z</time>
      </trkpt>
      <trkpt lat="44.00932" lon="5.62525">
        <ele>633.449</ele>
        <time>2020-09-02T09:20:44Z</time>
      </trkpt>
      <trkpt lat="44.00948" lon="5.62523">
        <ele>633.713</ele>
        <time>2020-09-02T09:20:45Z</time>
      </trkpt>
      <trkpt lat="44.00965" lon="5.6252">
        <ele>634.108</ele>
        <time>2020-09-02T09:20:46Z</time>
      </trkpt>
      <trkpt lat="44.00981" lon="5.62518">
        <ele>634.831</ele>
        <time>2020-09-02T09:20:47Z</time>
      </trkpt>
      <trkpt lat="44.00996" lon="5.62514">
        <ele>636.14</ele>
        <time>2020-09-02T09:20:48Z</time>
      </trkpt>
      <trkpt lat="44.0101" lon="5.62507">
        <ele>637.17</ele>
        <time>2020-09-02T09:20:49Z</time>
      </trkpt>
      <trkpt lat="44.01023" lon="5.62501">
        <ele>638.187</ele>
        <time>2020-09-02T09:20:50Z</time>
      </trkpt>
      <trkpt lat="44.01037" lon="5.62498">
        <ele>639.138</ele>
        <time>2020-09-02T09:20:51Z</time>
      </trkpt>
      <trkpt lat="44.0105" lon="5.62497">
        <ele>639.536</ele>
        <time>2020-09-02T09:20:52Z</time>
      </trkpt>
      <trkpt lat="44.01064" lon="5.62496">
        <ele>639.912</ele>
        <time>2020-09-02T09:20:53Z</time>
      </trkpt>
      <trkpt lat="44.01079" lon="5.62496">
        <ele>640.555</ele>
        <time>2020-09-02T09:20:54Z</time>
      </trkpt>
      <trkpt lat="44.01096" lon="5.62498">
        <ele>642.376</ele>
        <time>2020-09-02T09:20:55Z</time>
      </trkpt>
      <trkpt lat="44.0111" lon="5.62498">
        <ele>642.49</ele>
        <time>2020-09-02T09:20:56Z</time>
      </trkpt>
      <trkpt lat="44.01125" lon="5.62499">
        <ele>641.619</ele>
        <time>2020-09-02T09:20:57Z</time>
      </trkpt>
      <trkpt lat="44.0114" lon="5.62502">
        <ele>642.708</ele>
        <time>2020-09-02T09:20:58Z</time>
      </trkpt>
      <trkpt lat="44.01156" lon="5.62506">
        <ele>643.555</ele>
        <time>2020-09-02T09:20:59Z</time>
      </trkpt>
      <trkpt lat="44.01171" lon="5.62511">
        <ele>644.134</ele>
        <time>2020-09-02T09:21:00Z</time>
      </trkpt>
      <trkpt lat="44.01187" lon="5.62517">
        <ele>644.534</ele>
        <time>2020-09-02T09:21:01Z</time>
      </trkpt>
      <trkpt lat="44.01202" lon="5.62523">
        <ele>646.051</ele>
        <time>2020-09-02T09:21:02Z</time>
      </trkpt>
      <trkpt lat="44.01218" lon="5.62529">
        <ele>646.932</ele>
        <time>2020-09-02T09:21:03Z</time>
      </trkpt>
      <trkpt lat="44.01234" lon="5.62535">
        <ele>647.57</ele>
        <time>2020-09-02T09:21:04Z</time>
      </trkpt>
      <trkpt lat="44.01253" lon="5.62544">
        <ele>648.026</ele>
        <time>2020-09-02T09:21:05Z</time>
      </trkpt>
      <trkpt lat="44.01268" lon="5.62553">
        <ele>649.099</ele>
        <time>2020-09-02T09:21:06Z</time>
      </trkpt>
      <trkpt lat="44.01284" lon="5.62565">
        <ele>650.245</ele>
        <time>2020-09-02T09:21:07Z</time>
      </trkpt>
      <trkpt lat="44.01303" lon="5.62581">
        <ele>652.047</ele>
        <time>2020-09-02T09:21:08Z</time>
      </trkpt>
      <trkpt lat="44.0132" lon="5.62593">
        <ele>653.211</ele>
        <time>2020-09-02T09:21:09Z</time>
      </trkpt>
      <trkpt lat="44.01338" lon="5.62605">
        <ele>654.608</ele>
        <time>2020-09-02T09:21:10Z</time>
      </trkpt>
      <trkpt lat="44.01357" lon="5.62616">
        <ele>656.482</ele>
        <time>2020-09-02T09:21:11Z</time>
      </trkpt>
      <trkpt lat="44.01375" lon="5.62626">
        <ele>658.061</ele>
        <time>2020-09-02T09:21:12Z</time>
      </trkpt>
      <trkpt lat="44.01392" lon="5.62636">
        <ele>658.941</ele>
        <time>2020-09-02T09:21:13Z</time>
      </trkpt>
      <trkpt lat="44.0141" lon="5.62645">
        <ele>657.868</ele>
        <time>2020-09-02T09:21:14Z</time>
      </trkpt>
      <trkpt lat="44.01429" lon="5.62655">
        <ele>659.019</ele>
        <time>2020-09-02T09:21:15Z</time>
      </trkpt>
      <trkpt lat="44.01447" lon="5.62665">
        <ele>658.337</ele>
        <time>2020-09-02T09:21:16Z</time>
      </trkpt>
      <trkpt lat="44.01465" lon="5.62675">
        <ele>661.383</ele>
        <time>2020-09-02T09:21:17Z</time>
      </trkpt>
      <trkpt lat="44.01483" lon="5.62685">
        <ele>662.726</ele>
        <time>2020-09-02T09:21:18Z</time>
      </trkpt>
      <trkpt lat="44.015" lon="5.62695">
        <ele>663.473</ele>
        <time>2020-09-02T09:21:19Z</time>
      </trkpt>
      <trkpt lat="44.01518" lon="5.62706">
        <ele>663.485</ele>
        <time>2020-09-02T09:21:20Z</time>
      </trkpt>
      <trkpt lat="44.01535" lon="5.62714">
        <ele>663.713</ele>
        <time>2020-09-02T09:21:21Z</time>
      </trkpt>
      <trkpt lat="44.01552" lon="5.62724">
        <ele>663.508</ele>
        <time>2020-09-02T09:21:22Z</time>
      </trkpt>
      <trkpt lat="44.01568" lon="5.62737">
        <ele>663.735</ele>
        <time>2020-09-02T09:21:23Z</time>
      </trkpt>
      <trkpt lat="44.01585" lon="5.62751">
        <ele>665.364</ele>
        <time>2020-09-02T09:21:24Z</time>
      </trkpt>
      <trkpt lat="44.01601" lon="5.62767">
        <ele>666.014</ele>
        <time>2020-09-02T09:21:25Z</time>
      </trkpt>
      <trkpt lat="44.01618" lon="5.62784">
        <ele>667.151</ele>
        <time>2020-09-02T09:21:26Z</time>
      </trkpt>
      <trkpt lat="44.01634" lon="5.628">
        <ele>668.132</ele>
        <time>2020-09-02T09:21:27Z</time>
      </trkpt>
      <trkpt lat="44.01649" lon="5.62814">
        <ele>669.26</ele>
        <time>2020-09-02T09:21:28Z</time>
      </trkpt>
      <trkpt lat="44.01665" lon="5.62829">
        <ele>670.776</ele>
        <time>2020-09-02T09:21:29Z</time>
      </trkpt>
      <trkpt lat="44.01683" lon="5.62847">
        <ele>672.619</ele>
        <time>2020-09-02T09:21:30Z</time>
      </trkpt>
      <trkpt lat="44.01699" lon="5.62863">
        <ele>673.642</ele>
        <time>2020-09-02T09:21:31Z</time>
      </trkpt>
      <trkpt lat="44.01714" lon="5.62878">
        <ele>674.122</ele>
        <time>2020-09-02T09:21:32Z</time>
      </trkpt>
      <trkpt lat="44.01729" lon="5.62893">
        <ele>675.114</ele>
        <time>2020-09-02T09:21:33Z</time>
      </trkpt>
      <trkpt lat="44.01744" lon="5.62905">
        <ele>675.708</ele>
        <time>2020-09-02T09:21:34Z</time>
      </trkpt>
      <trkpt lat="44.01759" lon="5.62916">
        <ele>677.062</ele>
        <time>2020-09-02T09:21:35Z</time>
      </trkpt>
      <trkpt lat="44.01775" lon="5.62924">
        <ele>677.481</ele>
        <time>2020-09-02T09:21:36Z</time>
      </trkpt>
      <trkpt lat="44.01791" lon="5.62929">
        <ele>678.261</ele>
        <time>2020-09-02T09:21:37Z</time>
      </trkpt>
      <trkpt lat="44.01808" lon="5.6293">
        <ele>679.088</ele>
        <time>2020-09-02T09:21:38Z</time>
      </trkpt>
      <trkpt lat="44.01827" lon="5.6293">
        <ele>680.299</ele>
        <time>2020-09-02T09:21:39Z</time>
      </trkpt>
      <trkpt lat="44.01847" lon="5.6293">
        <ele>680.727</ele>
        <time>2020-09-02T09:21:40Z</time>
      </trkpt>
      <trkpt lat="44.01866" lon="5.6293">
        <ele>682.053</ele>
        <time>2020-09-02T09:21:41Z</time>
      </trkpt>
      <trkpt lat="44.01884" lon="5.6293">
        <ele>682.966</ele>
        <time>2020-09-02T09:21:42Z</time>
      </trkpt>
      <trkpt lat="44.01903" lon="5.62931">
        <ele>684.995</ele>
        <time>2020-09-02T09:21:43Z</time>
      </trkpt>
      <trkpt lat="44.01921" lon="5.62932">
        <ele>685.449</ele>
        <time>2020-09-02T09:21:44Z</time>
      </trkpt>
      <trkpt lat="44.01939" lon="5.62932">
        <ele>685.923</ele>
        <time>2020-09-02T09:21:45Z</time>
      </trkpt>
      <trkpt lat="44.01956" lon="5.6293">
        <ele>686.808</ele>
        <time>2020-09-02T09:21:46Z</time>
      </trkpt>
      <trkpt lat="44.01974" lon="5.62926">
        <ele>687.927</ele>
        <time>2020-09-02T09:21:47Z</time>
      </trkpt>
      <trkpt lat="44.01992" lon="5.62921">
        <ele>688.736</ele>
        <time>2020-09-02T09:21:48Z</time>
      </trkpt>
      <trkpt lat="44.0201" lon="5.62915">
        <ele>689.736</ele>
        <time>2020-09-02T09:21:49Z</time>
      </trkpt>
      <trkpt lat="44.02026" lon="5.62909">
        <ele>690.053</ele>
        <time>2020-09-02T09:21:50Z</time>
      </trkpt>
      <trkpt lat="44.02041" lon="5.62904">
        <ele>690.254</ele>
        <time>2020-09-02T09:21:51Z</time>
      </trkpt>
      <trkpt lat="44.02056" lon="5.629">
        <ele>691.192</ele>
        <time>2020-09-02T09:21:52Z</time>
      </trkpt>
      <trkpt lat="44.02071" lon="5.62895">
        <ele>692.318</ele>
        <time>2020-09-02T09:21:53Z</time>
      </trkpt>
      <trkpt lat="44.02085" lon="5.6289">
        <ele>693.581</ele>
        <time>2020-09-02T09:21:54Z</time>
      </trkpt>
      <trkpt lat="44.02099" lon="5.62885">
        <ele>694.338</ele>
        <time>2020-09-02T09:21:55Z</time>
      </trkpt>
      <trkpt lat="44.02112" lon="5.6288">
        <ele>694.87</ele>
        <time>2020-09-02T09:21:56Z</time>
      </trkpt>
      <trkpt lat="44.02124" lon="5.62875">
        <ele>695.217</ele>
        <time>2020-09-02T09:21:57Z</time>
      </trkpt>
      <trkpt lat="44.02134" lon="5.62868">
        <ele>696.008</ele>
        <time>2020-09-02T09:21:58Z</time>
      </trkpt>
      <trkpt lat="44.02143" lon="5.62861">
        <ele>696.491</ele>
        <time>2020-09-02T09:21:59Z</time>
      </trkpt>
      <trkpt lat="44.02151" lon="5.62853">
        <ele>697.09</ele>
        <time>2020-09-02T09:22:00Z</time>
      </trkpt>
      <trkpt lat="44.02159" lon="5.62846">
        <ele>697.63</ele>
        <time>2020-09-02T09:22:01Z</time>
      </trkpt>
      <trkpt lat="44.02168" lon="5.62837">
        <ele>697.657</ele>
        <time>2020-09-02T09:22:02Z</time>
      </trkpt>
      <trkpt lat="44.02177" lon="5.62829">
        <ele>697.558</ele>
        <time>2020-09-02T09:22:03Z</time>
      </trkpt>
      <trkpt lat="44.02187" lon="5.6282">
        <ele>697.336</ele>
        <time>2020-09-02T09:22:04Z</time>
      </trkpt>
      <trkpt lat="44.02197" lon="5.62811">
        <ele>697.912</ele>
        <time>2020-09-02T09:22:05Z</time>
      </trkpt>
      <trkpt lat="44.02207" lon="5.62802">
        <ele>698.475</ele>
        <time>2020-09-02T09:22:06Z</time>
      </trkpt>
      <trkpt lat="44.02216" lon="5.62793">
        <ele>699.329</ele>
        <time>2020-09-02T09:22:07Z</time>
      </trkpt>
      <trkpt lat="44.02225" lon="5.62785">
        <ele>699.9</ele>
        <time>2020-09-02T09:22:08Z</time>
      </trkpt>
      <trkpt lat="44.02234" lon="5.62777">
        <ele>700.52</ele>
        <time>2020-09-02T09:22:09Z</time>
      </trkpt>
      <trkpt lat="44.02242" lon="5.62771">
        <ele>701.208</ele>
        <time>2020-09-02T09:22:10Z</time>
      </trkpt>
      <trkpt lat="44.02249" lon="5.62765">
        <ele>701.89</ele>
        <time>2020-09-02T09:22:11Z</time>
      </trkpt>
      <trkpt lat="44.02255" lon="5.6276">
        <ele>703.299</ele>
        <time>2020-09-02T09:22:12Z</time>
      </trkpt>
      <trkpt lat="44.02262" lon="5.62758">
        <ele>704.489</ele>
        <time>2020-09-02T09:22:13Z</time>
      </trkpt>
      <trkpt lat="44.02268" lon="5.62756">
        <ele>704.896</ele>
        <time>2020-09-02T09:22:14Z</time>
      </trkpt>
      <trkpt lat="44.02275" lon="5.62756">
        <ele>704.647</ele>
        <time>2020-09-02T09:22:15Z</time>
      </trkpt>
      <trkpt lat="44.02284" lon="5.62757">
        <ele>705.165</ele>
        <time>2020-09-02T09:22:16Z</time>
      </trkpt>
      <trkpt lat="44.02293" lon="5.6276">
        <ele>705.111</ele>
        <time>2020-09-02T09:22:17Z</time>
      </trkpt>
      <trkpt lat="44.02304" lon="5.62764">
        <ele>706.614</ele>
        <time>2020-09-02T09:22:18Z</time>
      </trkpt>
      <trkpt lat="44.02316" lon="5.62768">
        <ele>707.165</ele>
        <time>2020-09-02T09:22:19Z</time>
      </trkpt>
      <trkpt lat="44.02328" lon="5.62772">
        <ele>707.468</ele>
        <time>2020-09-02T09:22:20Z</time>
      </trkpt>
      <trkpt lat="44.02341" lon="5.62775">
        <ele>707.114</ele>
        <time>2020-09-02T09:22:21Z</time>
      </trkpt>
      <trkpt lat="44.02356" lon="5.6278">
        <ele>708.208</ele>
        <time>2020-09-02T09:22:22Z</time>
      </trkpt>
      <trkpt lat="44.02371" lon="5.62783">
        <ele>707.944</ele>
        <time>2020-09-02T09:22:23Z</time>
      </trkpt>
      <trkpt lat="44.02386" lon="5.62787">
        <ele>708.163</ele>
        <time>2020-09-02T09:22:24Z</time>
      </trkpt>
      <trkpt lat="44.024" lon="5.62793">
        <ele>708.673</ele>
        <time>2020-09-02T09:22:25Z</time>
      </trkpt>
      <trkpt lat="44.02416" lon="5.62798">
        <ele>709.21</ele>
        <time>2020-09-02T09:22:26Z</time>
      </trkpt>
      <trkpt lat="44.02432" lon="5.62804">
        <ele>710.321</ele>
        <time>2020-09-02T09:22:27Z</time>
      </trkpt>
      <trkpt lat="44.02448" lon="5.62809">
        <ele>711.599</ele>
        <time>2020-09-02T09:22:28Z</time>
      </trkpt>
      <trkpt lat="44.02463" lon="5.62814">
        <ele>712.165</ele>
        <time>2020-09-02T09:22:29Z</time>
      </trkpt>
      <trkpt lat="44.0248" lon="5.62819">
        <ele>712.998</ele>
        <time>2020-09-02T09:22:30Z</time>
      </trkpt>
      <trkpt lat="44.02496" lon="5.62823">
        <ele>713.658</ele>
        <time>2020-09-02T09:22:31Z</time>
      </trkpt>
      <trkpt lat="44.02514" lon="5.62829">
        <ele>714.552</ele>
        <time>2020-09-02T09:22:32Z</time>
      </trkpt>
      <trkpt lat="44.02531" lon="5.62834">
        <ele>716.017</ele>
        <time>2020-09-02T09:22:33Z</time>
      </trkpt>
      <trkpt lat="44.02548" lon="5.62841">
        <ele>716.408</ele>
        <time>2020-09-02T09:22:34Z</time>
      </trkpt>
      <trkpt lat="44.02566" lon="5.62846">
        <ele>717.543</ele>
        <time>2020-09-02T09:22:35Z</time>
      </trkpt>
      <trkpt lat="44.02584" lon="5.62852">
        <ele>718.722</ele>
        <time>2020-09-02T09:22:36Z</time>
      </trkpt>
      <trkpt lat="44.02601" lon="5.62858">
        <ele>719.972</ele>
        <time>2020-09-02T09:22:37Z</time>
      </trkpt>
      <trkpt lat="44.02619" lon="5.62863">
        <ele>720.619</ele>
        <time>2020-09-02T09:22:38Z</time>
      </trkpt>
      <trkpt lat="44.02636" lon="5.62866">
        <ele>721.25</ele>
        <time>2020-09-02T09:22:39Z</time>
      </trkpt>
      <trkpt lat="44.02653" lon="5.62869">
        <ele>721.788</ele>
        <time>2020-09-02T09:22:40Z</time>
      </trkpt>
      <trkpt lat="44.02671" lon="5.62868">
        <ele>722.824</ele>
        <time>2020-09-02T09:22:41Z</time>
      </trkpt>
      <trkpt lat="44.02689" lon="5.62866">
        <ele>725.267</ele>
        <time>2020-09-02T09:22:42Z</time>
      </trkpt>
      <trkpt lat="44.02708" lon="5.62864">
        <ele>726.632</ele>
        <time>2020-09-02T09:22:43Z</time>
      </trkpt>
      <trkpt lat="44.02726" lon="5.62862">
        <ele>727.592</ele>
        <time>2020-09-02T09:22:44Z</time>
      </trkpt>
      <trkpt lat="44.02744" lon="5.62859">
        <ele>728.211</ele>
        <time>2020-09-02T09:22:45Z</time>
      </trkpt>
      <trkpt lat="44.02763" lon="5.62857">
        <ele>729.608</ele>
        <time>2020-09-02T09:22:46Z</time>
      </trkpt>
      <trkpt lat="44.02782" lon="5.62854">
        <ele>730.581</ele>
        <time>2020-09-02T09:22:47Z</time>
      </trkpt>
      <trkpt lat="44.028" lon="5.62851">
        <ele>731.64</ele>
        <time>2020-09-02T09:22:48Z</time>
      </trkpt>
      <trkpt lat="44.02819" lon="5.62849">
        <ele>732.15</ele>
        <time>2020-09-02T09:22:49Z</time>
      </trkpt>
      <trkpt lat="44.02838" lon="5.62846">
        <ele>733.097</ele>
        <time>2020-09-02T09:22:50Z</time>
      </trkpt>
      <trkpt lat="44.02856" lon="5.62844">
        <ele>733.898</ele>
        <time>2020-09-02T09:22:51Z</time>
      </trkpt>
      <trkpt lat="44.02877" lon="5.62842">
        <ele>735.226</ele>
        <time>2020-09-02T09:22:52Z</time>
      </trkpt>
      <trkpt lat="44.02896" lon="5.62839">
        <ele>735.852</ele>
        <time>2020-09-02T09:22:53Z</time>
      </trkpt>
      <trkpt lat="44.02916" lon="5.62837">
        <ele>736.945</ele>
        <time>2020-09-02T09:22:54Z</time>
      </trkpt>
      <trkpt lat="44.02934" lon="5.62835">
        <ele>737.446</ele>
        <time>2020-09-02T09:22:55Z</time>
      </trkpt>
      <trkpt lat="44.02952" lon="5.62832">
        <ele>737.488</ele>
        <time>2020-09-02T09:22:56Z</time>
      </trkpt>
      <trkpt lat="44.02971" lon="5.62831">
        <ele>738.116</ele>
        <time>2020-09-02T09:22:57Z</time>
      </trkpt>
      <trkpt lat="44.02991" lon="5.62828">
        <ele>739.308</ele>
        <time>2020-09-02T09:22:58Z</time>
      </trkpt>
      <trkpt lat="44.03009" lon="5.62827">
        <ele>739.682</ele>
        <time>2020-09-02T09:22:59Z</time>
      </trkpt>
      <trkpt lat="44.03028" lon="5.62825">
        <ele>740.181</ele>
        <time>2020-09-02T09:23:00Z</time>
      </trkpt>
      <trkpt lat="44.03046" lon="5.62823">
        <ele>741.751</ele>
        <time>2020-09-02T09:23:01Z</time>
      </trkpt>
      <trkpt lat="44.03066" lon="5.6282">
        <ele>742.318</ele>
        <time>2020-09-02T09:23:02Z</time>
      </trkpt>
      <trkpt lat="44.03084" lon="5.62817">
        <ele>743.769</ele>
        <time>2020-09-02T09:23:03Z</time>
      </trkpt>
      <trkpt lat="44.03104" lon="5.62815">
        <ele>745.737</ele>
        <time>2020-09-02T09:23:04Z</time>
      </trkpt>
      <trkpt lat="44.03123" lon="5.62811">
        <ele>746.993</ele>
        <time>2020-09-02T09:23:05Z</time>
      </trkpt>
      <trkpt lat="44.03142" lon="5.62808">
        <ele>748.026</ele>
        <time>2020-09-02T09:23:06Z</time>
      </trkpt>
      <trkpt lat="44.03159" lon="5.62807">
        <ele>748.691</ele>
        <time>2020-09-02T09:23:07Z</time>
      </trkpt>
      <trkpt lat="44.03176" lon="5.62804">
        <ele>749.181</ele>
        <time>2020-09-02T09:23:08Z</time>
      </trkpt>
      <trkpt lat="44.03193" lon="5.62802">
        <ele>749.719</ele>
        <time>2020-09-02T09:23:09Z</time>
      </trkpt>
      <trkpt lat="44.0321" lon="5.62799">
        <ele>751.208</ele>
        <time>2020-09-02T09:23:10Z</time>
      </trkpt>
      <trkpt lat="44.03227" lon="5.62796">
        <ele>752.557</ele>
        <time>2020-09-02T09:23:11Z</time>
      </trkpt>
      <trkpt lat="44.03245" lon="5.62795">
        <ele>753.686</ele>
        <time>2020-09-02T09:23:12Z</time>
      </trkpt>
      <trkpt lat="44.03261" lon="5.62792">
        <ele>754.846</ele>
        <time>2020-09-02T09:23:13Z</time>
      </trkpt>
      <trkpt lat="44.03278" lon="5.6279">
        <ele>755.553</ele>
        <time>2020-09-02T09:23:14Z</time>
      </trkpt>
      <trkpt lat="44.03293" lon="5.62788">
        <ele>756.024</ele>
        <time>2020-09-02T09:23:15Z</time>
      </trkpt>
      <trkpt lat="44.03308" lon="5.62786">
        <ele>756.662</ele>
        <time>2020-09-02T09:23:16Z</time>
      </trkpt>
      <trkpt lat="44.03323" lon="5.62784">
        <ele>756.528</ele>
        <time>2020-09-02T09:23:17Z</time>
      </trkpt>
      <trkpt lat="44.03339" lon="5.62782">
        <ele>757.031</ele>
        <time>2020-09-02T09:23:18Z</time>
      </trkpt>
      <trkpt lat="44.03354" lon="5.6278">
        <ele>757.581</ele>
        <time>2020-09-02T09:23:19Z</time>
      </trkpt>
      <trkpt lat="44.03369" lon="5.62777">
        <ele>758.761</ele>
        <time>2020-09-02T09:23:20Z</time>
      </trkpt>
      <trkpt lat="44.03384" lon="5.62776">
        <ele>759.217</ele>
        <time>2020-09-02T09:23:21Z</time>
      </trkpt>
      <trkpt lat="44.03399" lon="5.62775">
        <ele>759.408</ele>
        <time>2020-09-02T09:23:22Z</time>
      </trkpt>
      <trkpt lat="44.03414" lon="5.62773">
        <ele>760.266</ele>
        <time>2020-09-02T09:23:23Z</time>
      </trkpt>
      <trkpt lat="44.03428" lon="5.62772">
        <ele>760.195</ele>
        <time>2020-09-02T09:23:24Z</time>
      </trkpt>
      <trkpt lat="44.03441" lon="5.62771">
        <ele>759.995</ele>
        <time>2020-09-02T09:23:25Z</time>
      </trkpt>
      <trkpt lat="44.03455" lon="5.6277">
        <ele>760.172</ele>
        <time>2020-09-02T09:23:26Z</time>
      </trkpt>
      <trkpt lat="44.03467" lon="5.6277">
        <ele>760.073</ele>
        <time>2020-09-02T09:23:27Z</time>
      </trkpt>
      <trkpt lat="44.03479" lon="5.62774">
        <ele>760.611</ele>
        <time>2020-09-02T09:23:28Z</time>
      </trkpt>
      <trkpt lat="44.0349" lon="5.62778">
        <ele>760.887</ele>
        <time>2020-09-02T09:23:29Z</time>
      </trkpt>
      <trkpt lat="44.03501" lon="5.62782">
        <ele>762.08</ele>
        <time>2020-09-02T09:23:30Z</time>
      </trkpt>
      <trkpt lat="44.03512" lon="5.62785">
        <ele>761.833</ele>
        <time>2020-09-02T09:23:31Z</time>
      </trkpt>
      <trkpt lat="44.03522" lon="5.62788">
        <ele>762.623</ele>
        <time>2020-09-02T09:23:32Z</time>
      </trkpt>
      <trkpt lat="44.03533" lon="5.62793">
        <ele>762.315</ele>
        <time>2020-09-02T09:23:33Z</time>
      </trkpt>
      <trkpt lat="44.03543" lon="5.62797">
        <ele>763.408</ele>
        <time>2020-09-02T09:23:34Z</time>
      </trkpt>
      <trkpt lat="44.03555" lon="5.62801">
        <ele>765.141</ele>
        <time>2020-09-02T09:23:35Z</time>
      </trkpt>
      <trkpt lat="44.03565" lon="5.62805">
        <ele>766.17</ele>
        <time>2020-09-02T09:23:36Z</time>
      </trkpt>
      <trkpt lat="44.03576" lon="5.62808">
        <ele>766.91</ele>
        <time>2020-09-02T09:23:37Z</time>
      </trkpt>
      <trkpt lat="44.03586" lon="5.62811">
        <ele>766.817</ele>
        <time>2020-09-02T09:23:38Z</time>
      </trkpt>
      <trkpt lat="44.03595" lon="5.62813">
        <ele>766.648</ele>
        <time>2020-09-02T09:23:39Z</time>
      </trkpt>
      <trkpt lat="44.03606" lon="5.62817">
        <ele>767.426</ele>
        <time>2020-09-02T09:23:40Z</time>
      </trkpt>
      <trkpt lat="44.03617" lon="5.6282">
        <ele>767.562</ele>
        <time>2020-09-02T09:23:41Z</time>
      </trkpt>
      <trkpt lat="44.03627" lon="5.62824">
        <ele>768.845</ele>
        <time>2020-09-02T09:23:42Z</time>
      </trkpt>
      <trkpt lat="44.03638" lon="5.62827">
        <ele>770.228</ele>
        <time>2020-09-02T09:23:43Z</time>
      </trkpt>
      <trkpt lat="44.03649" lon="5.62831">
        <ele>771.489</ele>
        <time>2020-09-02T09:23:44Z</time>
      </trkpt>
      <trkpt lat="44.03659" lon="5.62834">
        <ele>772.817</ele>
        <time>2020-09-02T09:23:45Z</time>
      </trkpt>
      <trkpt lat="44.0367" lon="5.62836">
        <ele>773.508</ele>
        <time>2020-09-02T09:23:46Z</time>
      </trkpt>
      <trkpt lat="44.03681" lon="5.62839">
        <ele>774.29</ele>
        <time>2020-09-02T09:23:47Z</time>
      </trkpt>
      <trkpt lat="44.03691" lon="5.62841">
        <ele>775.199</ele>
        <time>2020-09-02T09:23:48Z</time>
      </trkpt>
      <trkpt lat="44.03701" lon="5.62845">
        <ele>776.599</ele>
        <time>2020-09-02T09:23:49Z</time>
      </trkpt>
      <trkpt lat="44.03711" lon="5.62848">
        <ele>777.526</ele>
        <time>2020-09-02T09:23:50Z</time>
      </trkpt>
      <trkpt lat="44.03722" lon="5.62851">
        <ele>779.027</ele>
        <time>2020-09-02T09:23:51Z</time>
      </trkpt>
      <trkpt lat="44.03731" lon="5.62855">
        <ele>780.295</ele>
        <time>2020-09-02T09:23:52Z</time>
      </trkpt>
      <trkpt lat="44.03741" lon="5.62859">
        <ele>780.731</ele>
        <time>2020-09-02T09:23:53Z</time>
      </trkpt>
      <trkpt lat="44.03751" lon="5.62862">
        <ele>781.694</ele>
        <time>2020-09-02T09:23:54Z</time>
      </trkpt>
      <trkpt lat="44.0376" lon="5.62864">
        <ele>781.946</ele>
        <time>2020-09-02T09:23:55Z</time>
      </trkpt>
      <trkpt lat="44.03769" lon="5.62867">
        <ele>782.588</ele>
        <time>2020-09-02T09:23:56Z</time>
      </trkpt>
      <trkpt lat="44.0378" lon="5.62869">
        <ele>783.516</ele>
        <time>2020-09-02T09:23:57Z</time>
      </trkpt>
      <trkpt lat="44.0379" lon="5.6287">
        <ele>783.608</ele>
        <time>2020-09-02T09:23:58Z</time>
      </trkpt>
      <trkpt lat="44.038" lon="5.6287">
        <ele>784.012</ele>
        <time>2020-09-02T09:23:59Z</time>
      </trkpt>
      <trkpt lat="44.0381" lon="5.62871">
        <ele>785.261</ele>
        <time>2020-09-02T09:24:00Z</time>
      </trkpt>
      <trkpt lat="44.03818" lon="5.62871">
        <ele>785.821</ele>
        <time>2020-09-02T09:24:01Z</time>
      </trkpt>
      <trkpt lat="44.03827" lon="5.62873">
        <ele>787.478</ele>
        <time>2020-09-02T09:24:02Z</time>
      </trkpt>
      <trkpt lat="44.03835" lon="5.62873">
        <ele>788.249</ele>
        <time>2020-09-02T09:24:03Z</time>
      </trkpt>
      <trkpt lat="44.03843" lon="5.62873">
        <ele>788.937</ele>
        <time>2020-09-02T09:24:04Z</time>
      </trkpt>
      <trkpt lat="44.03849" lon="5.62875">
        <ele>790.593</ele>
        <time>2020-09-02T09:24:05Z</time>
      </trkpt>
      <trkpt lat="44.03855" lon="5.62875">
        <ele>791.896</ele>
        <time>2020-09-02T09:24:06Z</time>
      </trkpt>
      <trkpt lat="44.03861" lon="5.62876">
        <ele>793.058</ele>
        <time>2020-09-02T09:24:07Z</time>
      </trkpt>
      <trkpt lat="44.03866" lon="5.62873">
        <ele>794.752</ele>
        <time>2020-09-02T09:24:09Z</time>
      </trkpt>
      <trkpt lat="44.03866" lon="5.62865">
        <ele>796.117</ele>
        <time>2020-09-02T09:24:11Z</time>
      </trkpt>
      <trkpt lat="44.0386" lon="5.62856">
        <ele>796.008</ele>
        <time>2020-09-02T09:24:13Z</time>
      </trkpt>
      <trkpt lat="44.03856" lon="5.6285">
        <ele>796.143</ele>
        <time>2020-09-02T09:24:14Z</time>
      </trkpt>
      <trkpt lat="44.03849" lon="5.62848">
        <ele>796.382</ele>
        <time>2020-09-02T09:24:16Z</time>
      </trkpt>
      <trkpt lat="44.03845" lon="5.62852">
        <ele>796.722</ele>
        <time>2020-09-02T09:24:18Z</time>
      </trkpt>
      <trkpt lat="44.03844" lon="5.62859">
        <ele>796.819</ele>
        <time>2020-09-02T09:24:20Z</time>
      </trkpt>
      <trkpt lat="44.03842" lon="5.62865">
        <ele>796.75</ele>
        <time>2020-09-02T09:24:23Z</time>
      </trkpt>
      <trkpt lat="44.03839" lon="5.6286">
        <ele>801.958</ele>
        <time>2020-09-02T09:54:57Z</time>
      </trkpt>
      <trkpt lat="44.03838" lon="5.62854">
        <ele>801.834</ele>
        <time>2020-09-02T09:54:59Z</time>
      </trkpt>
      <trkpt lat="44.03839" lon="5.62846">
        <ele>801.347</ele>
        <time>2020-09-02T09:55:01Z</time>
      </trkpt>
      <trkpt lat="44.03844" lon="5.62843">
        <ele>801.781</ele>
        <time>2020-09-02T09:55:03Z</time>
      </trkpt>
      <trkpt lat="44.03852" lon="5.62848">
        <ele>801.461</ele>
        <time>2020-09-02T09:55:05Z</time>
      </trkpt>
      <trkpt lat="44.03857" lon="5.62855">
        <ele>800.917</ele>
        <time>2020-09-02T09:55:07Z</time>
      </trkpt>
      <trkpt lat="44.0386" lon="5.62861">
        <ele>800.408</ele>
        <time>2020-09-02T09:55:09Z</time>
      </trkpt>
      <trkpt lat="44.03861" lon="5.62867">
        <ele>800.386</ele>
        <time>2020-09-02T09:55:28Z</time>
      </trkpt>
      <trkpt lat="44.03866" lon="5.62873">
        <ele>799.985</ele>
        <time>2020-09-02T09:55:30Z</time>
      </trkpt>
      <trkpt lat="44.03873" lon="5.62877">
        <ele>800.035</ele>
        <time>2020-09-02T09:55:32Z</time>
      </trkpt>
      <trkpt lat="44.0388" lon="5.62878">
        <ele>799.042</ele>
        <time>2020-09-02T09:55:34Z</time>
      </trkpt>
      <trkpt lat="44.03886" lon="5.62875">
        <ele>799.143</ele>
        <time>2020-09-02T09:55:36Z</time>
      </trkpt>
      <trkpt lat="44.03886" lon="5.62854">
        <ele>800.271</ele>
        <time>2020-09-02T09:55:38Z</time>
      </trkpt>
      <trkpt lat="44.03888" lon="5.62847">
        <ele>800.837</ele>
        <time>2020-09-02T09:55:39Z</time>
      </trkpt>
      <trkpt lat="44.03891" lon="5.6284">
        <ele>800.85</ele>
        <time>2020-09-02T09:55:40Z</time>
      </trkpt>
      <trkpt lat="44.03894" lon="5.62832">
        <ele>801.082</ele>
        <time>2020-09-02T09:55:41Z</time>
      </trkpt>
      <trkpt lat="44.03896" lon="5.62824">
        <ele>801.443</ele>
        <time>2020-09-02T09:55:42Z</time>
      </trkpt>
      <trkpt lat="44.03899" lon="5.62816">
        <ele>800.317</ele>
        <time>2020-09-02T09:55:43Z</time>
      </trkpt>
      <trkpt lat="44.039" lon="5.62806">
        <ele>801.408</ele>
        <time>2020-09-02T09:55:44Z</time>
      </trkpt>
      <trkpt lat="44.03902" lon="5.62798">
        <ele>802.486</ele>
        <time>2020-09-02T09:55:45Z</time>
      </trkpt>
      <trkpt lat="44.03904" lon="5.62789">
        <ele>803.685</ele>
        <time>2020-09-02T09:55:46Z</time>
      </trkpt>
      <trkpt lat="44.03906" lon="5.62779">
        <ele>805.135</ele>
        <time>2020-09-02T09:55:47Z</time>
      </trkpt>
      <trkpt lat="44.03908" lon="5.6277">
        <ele>806.132</ele>
        <time>2020-09-02T09:55:48Z</time>
      </trkpt>
      <trkpt lat="44.0391" lon="5.6276">
        <ele>806.943</ele>
        <time>2020-09-02T09:55:49Z</time>
      </trkpt>
      <trkpt lat="44.0391" lon="5.6275">
        <ele>807.711</ele>
        <time>2020-09-02T09:55:50Z</time>
      </trkpt>
      <trkpt lat="44.03909" lon="5.62742">
        <ele>808.827</ele>
        <time>2020-09-02T09:55:51Z</time>
      </trkpt>
      <trkpt lat="44.03907" lon="5.62732">
        <ele>809.42</ele>
        <time>2020-09-02T09:55:52Z</time>
      </trkpt>
      <trkpt lat="44.03906" lon="5.62724">
        <ele>810.046</ele>
        <time>2020-09-02T09:55:53Z</time>
      </trkpt>
      <trkpt lat="44.03909" lon="5.62717">
        <ele>810.888</ele>
        <time>2020-09-02T09:55:54Z</time>
      </trkpt>
      <trkpt lat="44.03911" lon="5.62709">
        <ele>811.416</ele>
        <time>2020-09-02T09:55:55Z</time>
      </trkpt>
      <trkpt lat="44.03913" lon="5.62702">
        <ele>811.408</ele>
        <time>2020-09-02T09:55:56Z</time>
      </trkpt>
      <trkpt lat="44.03916" lon="5.62694">
        <ele>812.882</ele>
        <time>2020-09-02T09:55:57Z</time>
      </trkpt>
      <trkpt lat="44.03919" lon="5.62685">
        <ele>813.361</ele>
        <time>2020-09-02T09:55:58Z</time>
      </trkpt>
      <trkpt lat="44.03921" lon="5.62675">
        <ele>814.211</ele>
        <time>2020-09-02T09:55:59Z</time>
      </trkpt>
      <trkpt lat="44.03925" lon="5.62665">
        <ele>815.258</ele>
        <time>2020-09-02T09:56:00Z</time>
      </trkpt>
      <trkpt lat="44.0393" lon="5.62655">
        <ele>816.329</ele>
        <time>2020-09-02T09:56:01Z</time>
      </trkpt>
      <trkpt lat="44.03935" lon="5.62646">
        <ele>817.357</ele>
        <time>2020-09-02T09:56:02Z</time>
      </trkpt>
      <trkpt lat="44.03941" lon="5.62636">
        <ele>818.213</ele>
        <time>2020-09-02T09:56:03Z</time>
      </trkpt>
      <trkpt lat="44.03947" lon="5.62624">
        <ele>818.766</ele>
        <time>2020-09-02T09:56:04Z</time>
      </trkpt>
      <trkpt lat="44.03953" lon="5.62613">
        <ele>819.893</ele>
        <time>2020-09-02T09:56:05Z</time>
      </trkpt>
      <trkpt lat="44.0396" lon="5.626">
        <ele>820.765</ele>
        <time>2020-09-02T09:56:06Z</time>
      </trkpt>
      <trkpt lat="44.03966" lon="5.62586">
        <ele>821.721</ele>
        <time>2020-09-02T09:56:07Z</time>
      </trkpt>
      <trkpt lat="44.03973" lon="5.62573">
        <ele>823.208</ele>
        <time>2020-09-02T09:56:08Z</time>
      </trkpt>
      <trkpt lat="44.03979" lon="5.62558">
        <ele>824.657</ele>
        <time>2020-09-02T09:56:09Z</time>
      </trkpt>
      <trkpt lat="44.03985" lon="5.62544">
        <ele>826.126</ele>
        <time>2020-09-02T09:56:10Z</time>
      </trkpt>
      <trkpt lat="44.03991" lon="5.6253">
        <ele>827.446</ele>
        <time>2020-09-02T09:56:11Z</time>
      </trkpt>
      <trkpt lat="44.03997" lon="5.62515">
        <ele>828.513</ele>
        <time>2020-09-02T09:56:12Z</time>
      </trkpt>
      <trkpt lat="44.04002" lon="5.62501">
        <ele>829.054</ele>
        <time>2020-09-02T09:56:13Z</time>
      </trkpt>
      <trkpt lat="44.0401" lon="5.6249">
        <ele>830.462</ele>
        <time>2020-09-02T09:56:14Z</time>
      </trkpt>
      <trkpt lat="44.04018" lon="5.62481">
        <ele>831.188</ele>
        <time>2020-09-02T09:56:15Z</time>
      </trkpt>
      <trkpt lat="44.04027" lon="5.62471">
        <ele>832.031</ele>
        <time>2020-09-02T09:56:16Z</time>
      </trkpt>
      <trkpt lat="44.04035" lon="5.62462">
        <ele>833.163</ele>
        <time>2020-09-02T09:56:17Z</time>
      </trkpt>
      <trkpt lat="44.04043" lon="5.62453">
        <ele>834.144</ele>
        <time>2020-09-02T09:56:18Z</time>
      </trkpt>
      <trkpt lat="44.0405" lon="5.62448">
        <ele>834.618</ele>
        <time>2020-09-02T09:56:19Z</time>
      </trkpt>
      <trkpt lat="44.04057" lon="5.62445">
        <ele>834.608</ele>
        <time>2020-09-02T09:56:20Z</time>
      </trkpt>
      <trkpt lat="44.04066" lon="5.62446">
        <ele>835.354</ele>
        <time>2020-09-02T09:56:21Z</time>
      </trkpt>
      <trkpt lat="44.04075" lon="5.62449">
        <ele>836.443</ele>
        <time>2020-09-02T09:56:22Z</time>
      </trkpt>
      <trkpt lat="44.04084" lon="5.62453">
        <ele>837.343</ele>
        <time>2020-09-02T09:56:23Z</time>
      </trkpt>
      <trkpt lat="44.04093" lon="5.62453">
        <ele>838.58</ele>
        <time>2020-09-02T09:56:24Z</time>
      </trkpt>
      <trkpt lat="44.041" lon="5.62449">
        <ele>839.551</ele>
        <time>2020-09-02T09:56:25Z</time>
      </trkpt>
      <trkpt lat="44.04107" lon="5.62444">
        <ele>841.159</ele>
        <time>2020-09-02T09:56:26Z</time>
      </trkpt>
      <trkpt lat="44.04116" lon="5.6244">
        <ele>842.435</ele>
        <time>2020-09-02T09:56:27Z</time>
      </trkpt>
      <trkpt lat="44.04124" lon="5.62436">
        <ele>843.718</ele>
        <time>2020-09-02T09:56:28Z</time>
      </trkpt>
      <trkpt lat="44.04132" lon="5.62432">
        <ele>844.695</ele>
        <time>2020-09-02T09:56:29Z</time>
      </trkpt>
      <trkpt lat="44.04143" lon="5.62429">
        <ele>845.149</ele>
        <time>2020-09-02T09:56:30Z</time>
      </trkpt>
      <trkpt lat="44.04154" lon="5.62428">
        <ele>845.723</ele>
        <time>2020-09-02T09:56:31Z</time>
      </trkpt>
      <trkpt lat="44.04164" lon="5.62425">
        <ele>846.508</ele>
        <time>2020-09-02T09:56:32Z</time>
      </trkpt>
      <trkpt lat="44.04175" lon="5.62425">
        <ele>847.927</ele>
        <time>2020-09-02T09:56:33Z</time>
      </trkpt>
      <trkpt lat="44.04188" lon="5.62425">
        <ele>848.226</ele>
        <time>2020-09-02T09:56:34Z</time>
      </trkpt>
      <trkpt lat="44.04201" lon="5.62427">
        <ele>849.376</ele>
        <time>2020-09-02T09:56:35Z</time>
      </trkpt>
      <trkpt lat="44.04214" lon="5.62432">
        <ele>850.523</ele>
        <time>2020-09-02T09:56:36Z</time>
      </trkpt>
      <trkpt lat="44.04228" lon="5.62439">
        <ele>851.864</ele>
        <time>2020-09-02T09:56:37Z</time>
      </trkpt>
      <trkpt lat="44.0424" lon="5.62444">
        <ele>853.212</ele>
        <time>2020-09-02T09:56:38Z</time>
      </trkpt>
      <trkpt lat="44.04253" lon="5.6245">
        <ele>854.158</ele>
        <time>2020-09-02T09:56:39Z</time>
      </trkpt>
      <trkpt lat="44.04265" lon="5.62454">
        <ele>854.921</ele>
        <time>2020-09-02T09:56:40Z</time>
      </trkpt>
      <trkpt lat="44.04279" lon="5.6246">
        <ele>856.437</ele>
        <time>2020-09-02T09:56:41Z</time>
      </trkpt>
      <trkpt lat="44.04291" lon="5.62468">
        <ele>857.149</ele>
        <time>2020-09-02T09:56:42Z</time>
      </trkpt>
      <trkpt lat="44.04305" lon="5.62474">
        <ele>858.213</ele>
        <time>2020-09-02T09:56:43Z</time>
      </trkpt>
      <trkpt lat="44.04319" lon="5.62481">
        <ele>859.608</ele>
        <time>2020-09-02T09:56:44Z</time>
      </trkpt>
      <trkpt lat="44.04332" lon="5.62487">
        <ele>860.391</ele>
        <time>2020-09-02T09:56:45Z</time>
      </trkpt>
      <trkpt lat="44.04346" lon="5.62493">
        <ele>861.11</ele>
        <time>2020-09-02T09:56:46Z</time>
      </trkpt>
      <trkpt lat="44.04358" lon="5.62501">
        <ele>860.93</ele>
        <time>2020-09-02T09:56:47Z</time>
      </trkpt>
      <trkpt lat="44.0437" lon="5.62507">
        <ele>861.357</ele>
        <time>2020-09-02T09:56:48Z</time>
      </trkpt>
      <trkpt lat="44.04384" lon="5.62514">
        <ele>862.928</ele>
        <time>2020-09-02T09:56:49Z</time>
      </trkpt>
      <trkpt lat="44.04397" lon="5.62522">
        <ele>863.266</ele>
        <time>2020-09-02T09:56:50Z</time>
      </trkpt>
      <trkpt lat="44.04411" lon="5.6253">
        <ele>864.742</ele>
        <time>2020-09-02T09:56:51Z</time>
      </trkpt>
      <trkpt lat="44.04425" lon="5.62537">
        <ele>865.595</ele>
        <time>2020-09-02T09:56:52Z</time>
      </trkpt>
      <trkpt lat="44.04438" lon="5.62544">
        <ele>867.343</ele>
        <time>2020-09-02T09:56:53Z</time>
      </trkpt>
      <trkpt lat="44.04453" lon="5.62552">
        <ele>868.664</ele>
        <time>2020-09-02T09:56:54Z</time>
      </trkpt>
      <trkpt lat="44.04467" lon="5.62559">
        <ele>869.91</ele>
        <time>2020-09-02T09:56:55Z</time>
      </trkpt>
      <trkpt lat="44.0448" lon="5.62567">
        <ele>870.708</ele>
        <time>2020-09-02T09:56:56Z</time>
      </trkpt>
      <trkpt lat="44.04492" lon="5.62574">
        <ele>872.792</ele>
        <time>2020-09-02T09:56:57Z</time>
      </trkpt>
      <trkpt lat="44.04502" lon="5.62578">
        <ele>873.931</ele>
        <time>2020-09-02T09:56:58Z</time>
      </trkpt>
      <trkpt lat="44.04511" lon="5.62583">
        <ele>875.021</ele>
        <time>2020-09-02T09:56:59Z</time>
      </trkpt>
      <trkpt lat="44.0452" lon="5.62589">
        <ele>875.378</ele>
        <time>2020-09-02T09:57:00Z</time>
      </trkpt>
      <trkpt lat="44.04527" lon="5.62598">
        <ele>876.429</ele>
        <time>2020-09-02T09:57:01Z</time>
      </trkpt>
      <trkpt lat="44.04532" lon="5.62609">
        <ele>876.817</ele>
        <time>2020-09-02T09:57:02Z</time>
      </trkpt>
      <trkpt lat="44.04536" lon="5.62622">
        <ele>877.513</ele>
        <time>2020-09-02T09:57:03Z</time>
      </trkpt>
      <trkpt lat="44.0454" lon="5.62636">
        <ele>878.936</ele>
        <time>2020-09-02T09:57:04Z</time>
      </trkpt>
      <trkpt lat="44.04544" lon="5.62651">
        <ele>879.812</ele>
        <time>2020-09-02T09:57:05Z</time>
      </trkpt>
      <trkpt lat="44.04548" lon="5.62666">
        <ele>881.532</ele>
        <time>2020-09-02T09:57:06Z</time>
      </trkpt>
      <trkpt lat="44.04551" lon="5.62682">
        <ele>881.705</ele>
        <time>2020-09-02T09:57:07Z</time>
      </trkpt>
      <trkpt lat="44.04555" lon="5.62695">
        <ele>883.008</ele>
        <time>2020-09-02T09:57:08Z</time>
      </trkpt>
      <trkpt lat="44.04559" lon="5.62709">
        <ele>882.839</ele>
        <time>2020-09-02T09:57:09Z</time>
      </trkpt>
      <trkpt lat="44.04565" lon="5.62721">
        <ele>883.338</ele>
        <time>2020-09-02T09:57:10Z</time>
      </trkpt>
      <trkpt lat="44.04573" lon="5.62733">
        <ele>884.698</ele>
        <time>2020-09-02T09:57:11Z</time>
      </trkpt>
      <trkpt lat="44.04581" lon="5.6274">
        <ele>885.335</ele>
        <time>2020-09-02T09:57:12Z</time>
      </trkpt>
      <trkpt lat="44.04592" lon="5.62745">
        <ele>885.566</ele>
        <time>2020-09-02T09:57:13Z</time>
      </trkpt>
      <trkpt lat="44.04602" lon="5.6275">
        <ele>885.964</ele>
        <time>2020-09-02T09:57:14Z</time>
      </trkpt>
      <trkpt lat="44.04615" lon="5.62754">
        <ele>886.35</ele>
        <time>2020-09-02T09:57:15Z</time>
      </trkpt>
      <trkpt lat="44.04627" lon="5.62759">
        <ele>887.133</ele>
        <time>2020-09-02T09:57:16Z</time>
      </trkpt>
      <trkpt lat="44.04639" lon="5.62764">
        <ele>888.377</ele>
        <time>2020-09-02T09:57:17Z</time>
      </trkpt>
      <trkpt lat="44.04652" lon="5.62767">
        <ele>889.561</ele>
        <time>2020-09-02T09:57:18Z</time>
      </trkpt>
      <trkpt lat="44.04666" lon="5.62767">
        <ele>890.627</ele>
        <time>2020-09-02T09:57:19Z</time>
      </trkpt>
      <trkpt lat="44.04682" lon="5.62767">
        <ele>891.308</ele>
        <time>2020-09-02T09:57:20Z</time>
      </trkpt>
      <trkpt lat="44.04696" lon="5.62766">
        <ele>891.895</ele>
        <time>2020-09-02T09:57:21Z</time>
      </trkpt>
      <trkpt lat="44.0471" lon="5.62766">
        <ele>893.294</ele>
        <time>2020-09-02T09:57:22Z</time>
      </trkpt>
      <trkpt lat="44.04722" lon="5.62763">
        <ele>893.574</ele>
        <time>2020-09-02T09:57:23Z</time>
      </trkpt>
      <trkpt lat="44.04733" lon="5.62759">
        <ele>895.031</ele>
        <time>2020-09-02T09:57:24Z</time>
      </trkpt>
      <trkpt lat="44.04744" lon="5.62757">
        <ele>895.772</ele>
        <time>2020-09-02T09:57:25Z</time>
      </trkpt>
      <trkpt lat="44.04756" lon="5.62756">
        <ele>897.25</ele>
        <time>2020-09-02T09:57:26Z</time>
      </trkpt>
      <trkpt lat="44.04768" lon="5.62757">
        <ele>898.496</ele>
        <time>2020-09-02T09:57:27Z</time>
      </trkpt>
      <trkpt lat="44.04781" lon="5.62758">
        <ele>899.949</ele>
        <time>2020-09-02T09:57:28Z</time>
      </trkpt>
      <trkpt lat="44.04793" lon="5.62758">
        <ele>901.912</ele>
        <time>2020-09-02T09:57:29Z</time>
      </trkpt>
      <trkpt lat="44.04805" lon="5.62759">
        <ele>903.232</ele>
        <time>2020-09-02T09:57:30Z</time>
      </trkpt>
      <trkpt lat="44.04815" lon="5.62761">
        <ele>903.605</ele>
        <time>2020-09-02T09:57:31Z</time>
      </trkpt>
      <trkpt lat="44.04825" lon="5.62765">
        <ele>904.308</ele>
        <time>2020-09-02T09:57:32Z</time>
      </trkpt>
      <trkpt lat="44.04835" lon="5.62771">
        <ele>905.749</ele>
        <time>2020-09-02T09:57:33Z</time>
      </trkpt>
      <trkpt lat="44.04843" lon="5.62778">
        <ele>907.178</ele>
        <time>2020-09-02T09:57:34Z</time>
      </trkpt>
      <trkpt lat="44.04849" lon="5.62787">
        <ele>907.358</ele>
        <time>2020-09-02T09:57:35Z</time>
      </trkpt>
      <trkpt lat="44.04853" lon="5.62798">
        <ele>908.235</ele>
        <time>2020-09-02T09:57:36Z</time>
      </trkpt>
      <trkpt lat="44.04857" lon="5.62811">
        <ele>909.336</ele>
        <time>2020-09-02T09:57:37Z</time>
      </trkpt>
      <trkpt lat="44.04861" lon="5.62824">
        <ele>910.354</ele>
        <time>2020-09-02T09:57:38Z</time>
      </trkpt>
      <trkpt lat="44.04864" lon="5.62839">
        <ele>911.52</ele>
        <time>2020-09-02T09:57:39Z</time>
      </trkpt>
      <trkpt lat="44.04868" lon="5.62852">
        <ele>912.743</ele>
        <time>2020-09-02T09:57:40Z</time>
      </trkpt>
      <trkpt lat="44.04873" lon="5.62865">
        <ele>913.864</ele>
        <time>2020-09-02T09:57:41Z</time>
      </trkpt>
      <trkpt lat="44.0488" lon="5.62878">
        <ele>914.806</ele>
        <time>2020-09-02T09:57:42Z</time>
      </trkpt>
      <trkpt lat="44.04886" lon="5.6289">
        <ele>915.816</ele>
        <time>2020-09-02T09:57:43Z</time>
      </trkpt>
      <trkpt lat="44.04893" lon="5.629">
        <ele>916.708</ele>
        <time>2020-09-02T09:57:44Z</time>
      </trkpt>
      <trkpt lat="44.04901" lon="5.62906">
        <ele>917.054</ele>
        <time>2020-09-02T09:57:45Z</time>
      </trkpt>
      <trkpt lat="44.04911" lon="5.62911">
        <ele>917.553</ele>
        <time>2020-09-02T09:57:46Z</time>
      </trkpt>
      <trkpt lat="44.04922" lon="5.62916">
        <ele>918.693</ele>
        <time>2020-09-02T09:57:47Z</time>
      </trkpt>
      <trkpt lat="44.04935" lon="5.62922">
        <ele>920.36</ele>
        <time>2020-09-02T09:57:48Z</time>
      </trkpt>
      <trkpt lat="44.04947" lon="5.62927">
        <ele>921.211</ele>
        <time>2020-09-02T09:57:49Z</time>
      </trkpt>
      <trkpt lat="44.04959" lon="5.62932">
        <ele>922.149</ele>
        <time>2020-09-02T09:57:50Z</time>
      </trkpt>
      <trkpt lat="44.04972" lon="5.62936">
        <ele>923.815</ele>
        <time>2020-09-02T09:57:51Z</time>
      </trkpt>
      <trkpt lat="44.04985" lon="5.62938">
        <ele>924.758</ele>
        <time>2020-09-02T09:57:52Z</time>
      </trkpt>
      <trkpt lat="44.04998" lon="5.6294">
        <ele>925.796</ele>
        <time>2020-09-02T09:57:53Z</time>
      </trkpt>
      <trkpt lat="44.05011" lon="5.6294">
        <ele>926.731</ele>
        <time>2020-09-02T09:57:54Z</time>
      </trkpt>
      <trkpt lat="44.05025" lon="5.6294">
        <ele>926.824</ele>
        <time>2020-09-02T09:57:55Z</time>
      </trkpt>
      <trkpt lat="44.0504" lon="5.62938">
        <ele>927.608</ele>
        <time>2020-09-02T09:57:56Z</time>
      </trkpt>
      <trkpt lat="44.05056" lon="5.62937">
        <ele>929.237</ele>
        <time>2020-09-02T09:57:57Z</time>
      </trkpt>
      <trkpt lat="44.05072" lon="5.62934">
        <ele>931.396</ele>
        <time>2020-09-02T09:57:58Z</time>
      </trkpt>
      <trkpt lat="44.05087" lon="5.62931">
        <ele>933.086</ele>
        <time>2020-09-02T09:57:59Z</time>
      </trkpt>
      <trkpt lat="44.05103" lon="5.62927">
        <ele>934.393</ele>
        <time>2020-09-02T09:58:00Z</time>
      </trkpt>
      <trkpt lat="44.05117" lon="5.62925">
        <ele>935.544</ele>
        <time>2020-09-02T09:58:01Z</time>
      </trkpt>
      <trkpt lat="44.05132" lon="5.62925">
        <ele>936.522</ele>
        <time>2020-09-02T09:58:02Z</time>
      </trkpt>
      <trkpt lat="44.05146" lon="5.62923">
        <ele>936.598</ele>
        <time>2020-09-02T09:58:03Z</time>
      </trkpt>
      <trkpt lat="44.0516" lon="5.62923">
        <ele>937.721</ele>
        <time>2020-09-02T09:58:04Z</time>
      </trkpt>
      <trkpt lat="44.05173" lon="5.6292">
        <ele>939.148</ele>
        <time>2020-09-02T09:58:05Z</time>
      </trkpt>
      <trkpt lat="44.05186" lon="5.6292">
        <ele>941.461</ele>
        <time>2020-09-02T09:58:06Z</time>
      </trkpt>
      <trkpt lat="44.05197" lon="5.62919">
        <ele>942.217</ele>
        <time>2020-09-02T09:58:07Z</time>
      </trkpt>
      <trkpt lat="44.05209" lon="5.62919">
        <ele>943.208</ele>
        <time>2020-09-02T09:58:08Z</time>
      </trkpt>
      <trkpt lat="44.05221" lon="5.6292">
        <ele>944.212</ele>
        <time>2020-09-02T09:58:09Z</time>
      </trkpt>
      <trkpt lat="44.05232" lon="5.62922">
        <ele>945.281</ele>
        <time>2020-09-02T09:58:10Z</time>
      </trkpt>
      <trkpt lat="44.05241" lon="5.62922">
        <ele>945.681</ele>
        <time>2020-09-02T09:58:11Z</time>
      </trkpt>
      <trkpt lat="44.0525" lon="5.62923">
        <ele>946.068</ele>
        <time>2020-09-02T09:58:12Z</time>
      </trkpt>
      <trkpt lat="44.05256" lon="5.62924">
        <ele>946.129</ele>
        <time>2020-09-02T09:58:13Z</time>
      </trkpt>
      <trkpt lat="44.05262" lon="5.62926">
        <ele>946.057</ele>
        <time>2020-09-02T09:58:14Z</time>
      </trkpt>
      <trkpt lat="44.05266" lon="5.62928">
        <ele>945.873</ele>
        <time>2020-09-02T09:58:15Z</time>
      </trkpt>
      <trkpt lat="44.05271" lon="5.62928">
        <ele>947.896</ele>
        <time>2020-09-02T09:58:17Z</time>
      </trkpt>
      <trkpt lat="44.0527" lon="5.62934">
        <ele>950.477</ele>
        <time>2020-09-02T09:58:33Z</time>
      </trkpt>
      <trkpt lat="44.05268" lon="5.62927">
        <ele>948.561</ele>
        <time>2020-09-02T09:59:05Z</time>
      </trkpt>
      <trkpt lat="44.05273" lon="5.62929">
        <ele>948.627</ele>
        <time>2020-09-02T09:59:07Z</time>
      </trkpt>
      <trkpt lat="44.05278" lon="5.62932">
        <ele>949.008</ele>
        <time>2020-09-02T09:59:08Z</time>
      </trkpt>
      <trkpt lat="44.05283" lon="5.62935">
        <ele>950.035</ele>
        <time>2020-09-02T09:59:09Z</time>
      </trkpt>
      <trkpt lat="44.05288" lon="5.6294">
        <ele>951.324</ele>
        <time>2020-09-02T09:59:10Z</time>
      </trkpt>
      <trkpt lat="44.05293" lon="5.62945">
        <ele>951.334</ele>
        <time>2020-09-02T09:59:11Z</time>
      </trkpt>
      <trkpt lat="44.05297" lon="5.62951">
        <ele>951.991</ele>
        <time>2020-09-02T09:59:12Z</time>
      </trkpt>
      <trkpt lat="44.05302" lon="5.6296">
        <ele>951.132</ele>
        <time>2020-09-02T09:59:13Z</time>
      </trkpt>
      <trkpt lat="44.05305" lon="5.62969">
        <ele>951.29</ele>
        <time>2020-09-02T09:59:14Z</time>
      </trkpt>
      <trkpt lat="44.05311" lon="5.62977">
        <ele>952.526</ele>
        <time>2020-09-02T09:59:15Z</time>
      </trkpt>
      <trkpt lat="44.05319" lon="5.62984">
        <ele>953.339</ele>
        <time>2020-09-02T09:59:16Z</time>
      </trkpt>
      <trkpt lat="44.05326" lon="5.62991">
        <ele>954.268</ele>
        <time>2020-09-02T09:59:17Z</time>
      </trkpt>
      <trkpt lat="44.05333" lon="5.63">
        <ele>954.942</ele>
        <time>2020-09-02T09:59:18Z</time>
      </trkpt>
      <trkpt lat="44.0534" lon="5.63009">
        <ele>955.526</ele>
        <time>2020-09-02T09:59:19Z</time>
      </trkpt>
      <trkpt lat="44.05348" lon="5.6302">
        <ele>955.908</ele>
        <time>2020-09-02T09:59:20Z</time>
      </trkpt>
      <trkpt lat="44.05356" lon="5.63033">
        <ele>957.994</ele>
        <time>2020-09-02T09:59:21Z</time>
      </trkpt>
      <trkpt lat="44.05364" lon="5.63044">
        <ele>960.153</ele>
        <time>2020-09-02T09:59:22Z</time>
      </trkpt>
      <trkpt lat="44.05371" lon="5.63055">
        <ele>960.243</ele>
        <time>2020-09-02T09:59:23Z</time>
      </trkpt>
      <trkpt lat="44.05378" lon="5.63067">
        <ele>961.68</ele>
        <time>2020-09-02T09:59:24Z</time>
      </trkpt>
      <trkpt lat="44.05386" lon="5.63081">
        <ele>962.171</ele>
        <time>2020-09-02T09:59:25Z</time>
      </trkpt>
      <trkpt lat="44.05392" lon="5.63094">
        <ele>963.779</ele>
        <time>2020-09-02T09:59:26Z</time>
      </trkpt>
      <trkpt lat="44.054" lon="5.63106">
        <ele>964.645</ele>
        <time>2020-09-02T09:59:27Z</time>
      </trkpt>
      <trkpt lat="44.05407" lon="5.6312">
        <ele>964.628</ele>
        <time>2020-09-02T09:59:28Z</time>
      </trkpt>
      <trkpt lat="44.05413" lon="5.63134">
        <ele>966.544</ele>
        <time>2020-09-02T09:59:29Z</time>
      </trkpt>
      <trkpt lat="44.05421" lon="5.63148">
        <ele>966.805</ele>
        <time>2020-09-02T09:59:30Z</time>
      </trkpt>
      <trkpt lat="44.0543" lon="5.63163">
        <ele>967.615</ele>
        <time>2020-09-02T09:59:31Z</time>
      </trkpt>
      <trkpt lat="44.05439" lon="5.63177">
        <ele>969.208</ele>
        <time>2020-09-02T09:59:32Z</time>
      </trkpt>
      <trkpt lat="44.05448" lon="5.63192">
        <ele>969.972</ele>
        <time>2020-09-02T09:59:33Z</time>
      </trkpt>
      <trkpt lat="44.05458" lon="5.63205">
        <ele>969.541</ele>
        <time>2020-09-02T09:59:34Z</time>
      </trkpt>
      <trkpt lat="44.05469" lon="5.6322">
        <ele>970.981</ele>
        <time>2020-09-02T09:59:35Z</time>
      </trkpt>
      <trkpt lat="44.05479" lon="5.63233">
        <ele>971.358</ele>
        <time>2020-09-02T09:59:36Z</time>
      </trkpt>
      <trkpt lat="44.05489" lon="5.63247">
        <ele>973.669</ele>
        <time>2020-09-02T09:59:37Z</time>
      </trkpt>
      <trkpt lat="44.055" lon="5.63261">
        <ele>975.467</ele>
        <time>2020-09-02T09:59:38Z</time>
      </trkpt>
      <trkpt lat="44.05509" lon="5.63275">
        <ele>975.993</ele>
        <time>2020-09-02T09:59:39Z</time>
      </trkpt>
      <trkpt lat="44.05519" lon="5.63289">
        <ele>977.296</ele>
        <time>2020-09-02T09:59:40Z</time>
      </trkpt>
      <trkpt lat="44.05528" lon="5.63303">
        <ele>979.036</ele>
        <time>2020-09-02T09:59:41Z</time>
      </trkpt>
      <trkpt lat="44.05535" lon="5.63316">
        <ele>978.917</ele>
        <time>2020-09-02T09:59:42Z</time>
      </trkpt>
      <trkpt lat="44.05545" lon="5.63328">
        <ele>979.418</ele>
        <time>2020-09-02T09:59:43Z</time>
      </trkpt>
      <trkpt lat="44.05556" lon="5.6334">
        <ele>981.608</ele>
        <time>2020-09-02T09:59:44Z</time>
      </trkpt>
      <trkpt lat="44.05569" lon="5.63353">
        <ele>982.531</ele>
        <time>2020-09-02T09:59:45Z</time>
      </trkpt>
      <trkpt lat="44.0558" lon="5.63364">
        <ele>982.96</ele>
        <time>2020-09-02T09:59:46Z</time>
      </trkpt>
      <trkpt lat="44.05592" lon="5.63377">
        <ele>983.35</ele>
        <time>2020-09-02T09:59:47Z</time>
      </trkpt>
      <trkpt lat="44.05604" lon="5.63389">
        <ele>984.147</ele>
        <time>2020-09-02T09:59:48Z</time>
      </trkpt>
      <trkpt lat="44.05617" lon="5.63404">
        <ele>984.968</ele>
        <time>2020-09-02T09:59:49Z</time>
      </trkpt>
      <trkpt lat="44.0563" lon="5.6342">
        <ele>986.036</ele>
        <time>2020-09-02T09:59:50Z</time>
      </trkpt>
      <trkpt lat="44.05642" lon="5.63434">
        <ele>986.252</ele>
        <time>2020-09-02T09:59:51Z</time>
      </trkpt>
      <trkpt lat="44.05653" lon="5.63446">
        <ele>986.725</ele>
        <time>2020-09-02T09:59:52Z</time>
      </trkpt>
      <trkpt lat="44.05662" lon="5.63456">
        <ele>987.057</ele>
        <time>2020-09-02T09:59:53Z</time>
      </trkpt>
      <trkpt lat="44.05668" lon="5.63462">
        <ele>987.3</ele>
        <time>2020-09-02T09:59:54Z</time>
      </trkpt>
      <trkpt lat="44.05672" lon="5.63465">
        <ele>987.72</ele>
        <time>2020-09-02T09:59:55Z</time>
      </trkpt>
      <trkpt lat="44.05677" lon="5.63468">
        <ele>988.108</ele>
        <time>2020-09-02T09:59:57Z</time>
      </trkpt>
      <trkpt lat="44.05682" lon="5.63471">
        <ele>989.663</ele>
        <time>2020-09-02T10:00:02Z</time>
      </trkpt>
      <trkpt lat="44.05687" lon="5.63474">
        <ele>990.012</ele>
        <time>2020-09-02T10:00:03Z</time>
      </trkpt>
      <trkpt lat="44.05692" lon="5.63478">
        <ele>989.992</ele>
        <time>2020-09-02T10:00:04Z</time>
      </trkpt>
      <trkpt lat="44.05699" lon="5.63482">
        <ele>990.299</ele>
        <time>2020-09-02T10:00:05Z</time>
      </trkpt>
      <trkpt lat="44.05707" lon="5.63485">
        <ele>991.15</ele>
        <time>2020-09-02T10:00:06Z</time>
      </trkpt>
      <trkpt lat="44.05716" lon="5.63486">
        <ele>991.788</ele>
        <time>2020-09-02T10:00:07Z</time>
      </trkpt>
      <trkpt lat="44.05723" lon="5.63484">
        <ele>992.474</ele>
        <time>2020-09-02T10:00:08Z</time>
      </trkpt>
      <trkpt lat="44.05728" lon="5.63481">
        <ele>992.777</ele>
        <time>2020-09-02T10:00:09Z</time>
      </trkpt>
      <trkpt lat="44.05735" lon="5.63477">
        <ele>993.255</ele>
        <time>2020-09-02T10:00:10Z</time>
      </trkpt>
      <trkpt lat="44.05742" lon="5.63474">
        <ele>993.107</ele>
        <time>2020-09-02T10:00:11Z</time>
      </trkpt>
      <trkpt lat="44.05747" lon="5.63472">
        <ele>993.417</ele>
        <time>2020-09-02T10:00:12Z</time>
      </trkpt>
      <trkpt lat="44.05752" lon="5.63472">
        <ele>993.808</ele>
        <time>2020-09-02T10:00:13Z</time>
      </trkpt>
      <trkpt lat="44.05759" lon="5.63474">
        <ele>994.983</ele>
        <time>2020-09-02T10:00:15Z</time>
      </trkpt>
      <trkpt lat="44.05764" lon="5.63475">
        <ele>995.462</ele>
        <time>2020-09-02T10:00:16Z</time>
      </trkpt>
      <trkpt lat="44.05771" lon="5.63476">
        <ele>995.842</ele>
        <time>2020-09-02T10:00:17Z</time>
      </trkpt>
      <trkpt lat="44.05779" lon="5.63477">
        <ele>996.239</ele>
        <time>2020-09-02T10:00:18Z</time>
      </trkpt>
      <trkpt lat="44.05787" lon="5.63479">
        <ele>997.37</ele>
        <time>2020-09-02T10:00:19Z</time>
      </trkpt>
      <trkpt lat="44.05795" lon="5.63481">
        <ele>997.858</ele>
        <time>2020-09-02T10:00:20Z</time>
      </trkpt>
      <trkpt lat="44.05803" lon="5.63483">
        <ele>998.664</ele>
        <time>2020-09-02T10:00:21Z</time>
      </trkpt>
      <trkpt lat="44.0581" lon="5.63484">
        <ele>999.387</ele>
        <time>2020-09-02T10:00:22Z</time>
      </trkpt>
      <trkpt lat="44.05818" lon="5.63485">
        <ele>999.852</ele>
        <time>2020-09-02T10:00:23Z</time>
      </trkpt>
      <trkpt lat="44.05826" lon="5.63488">
        <ele>1000.453</ele>
        <time>2020-09-02T10:00:24Z</time>
      </trkpt>
      <trkpt lat="44.05835" lon="5.63491">
        <ele>1000.608</ele>
        <time>2020-09-02T10:00:25Z</time>
      </trkpt>
      <trkpt lat="44.0584" lon="5.63494">
        <ele>1001.308</ele>
        <time>2020-09-02T10:00:26Z</time>
      </trkpt>
      <trkpt lat="44.05847" lon="5.635">
        <ele>1002.623</ele>
        <time>2020-09-02T10:00:27Z</time>
      </trkpt>
      <trkpt lat="44.05854" lon="5.63506">
        <ele>1003.262</ele>
        <time>2020-09-02T10:00:28Z</time>
      </trkpt>
      <trkpt lat="44.05861" lon="5.63511">
        <ele>1003.892</ele>
        <time>2020-09-02T10:00:29Z</time>
      </trkpt>
      <trkpt lat="44.05869" lon="5.63516">
        <ele>1004.929</ele>
        <time>2020-09-02T10:00:30Z</time>
      </trkpt>
      <trkpt lat="44.05877" lon="5.63525">
        <ele>1005.79</ele>
        <time>2020-09-02T10:00:31Z</time>
      </trkpt>
      <trkpt lat="44.05885" lon="5.63532">
        <ele>1007.028</ele>
        <time>2020-09-02T10:00:32Z</time>
      </trkpt>
      <trkpt lat="44.05893" lon="5.63538">
        <ele>1006.714</ele>
        <time>2020-09-02T10:00:33Z</time>
      </trkpt>
      <trkpt lat="44.05903" lon="5.63544">
        <ele>1007.447</ele>
        <time>2020-09-02T10:00:34Z</time>
      </trkpt>
      <trkpt lat="44.05914" lon="5.63549">
        <ele>1007.813</ele>
        <time>2020-09-02T10:00:35Z</time>
      </trkpt>
      <trkpt lat="44.05925" lon="5.63554">
        <ele>1008.443</ele>
        <time>2020-09-02T10:00:36Z</time>
      </trkpt>
      <trkpt lat="44.05936" lon="5.63558">
        <ele>1008.607</ele>
        <time>2020-09-02T10:00:37Z</time>
      </trkpt>
      <trkpt lat="44.05948" lon="5.63562">
        <ele>1009.608</ele>
        <time>2020-09-02T10:00:38Z</time>
      </trkpt>
      <trkpt lat="44.0596" lon="5.63565">
        <ele>1010.679</ele>
        <time>2020-09-02T10:00:39Z</time>
      </trkpt>
      <trkpt lat="44.05973" lon="5.63568">
        <ele>1010.838</ele>
        <time>2020-09-02T10:00:40Z</time>
      </trkpt>
      <trkpt lat="44.05986" lon="5.63573">
        <ele>1011.428</ele>
        <time>2020-09-02T10:00:41Z</time>
      </trkpt>
      <trkpt lat="44.06" lon="5.63576">
        <ele>1011.515</ele>
        <time>2020-09-02T10:00:42Z</time>
      </trkpt>
      <trkpt lat="44.06014" lon="5.63579">
        <ele>1012.496</ele>
        <time>2020-09-02T10:00:43Z</time>
      </trkpt>
      <trkpt lat="44.0603" lon="5.63581">
        <ele>1012.854</ele>
        <time>2020-09-02T10:00:44Z</time>
      </trkpt>
      <trkpt lat="44.06045" lon="5.63584">
        <ele>1013.39</ele>
        <time>2020-09-02T10:00:45Z</time>
      </trkpt>
      <trkpt lat="44.06059" lon="5.63587">
        <ele>1013.743</ele>
        <time>2020-09-02T10:00:46Z</time>
      </trkpt>
      <trkpt lat="44.06074" lon="5.6359">
        <ele>1014.259</ele>
        <time>2020-09-02T10:00:47Z</time>
      </trkpt>
      <trkpt lat="44.06088" lon="5.63592">
        <ele>1015.103</ele>
        <time>2020-09-02T10:00:48Z</time>
      </trkpt>
      <trkpt lat="44.06101" lon="5.63594">
        <ele>1015.523</ele>
        <time>2020-09-02T10:00:49Z</time>
      </trkpt>
      <trkpt lat="44.06112" lon="5.63596">
        <ele>1016.008</ele>
        <time>2020-09-02T10:00:50Z</time>
      </trkpt>
      <trkpt lat="44.06121" lon="5.636">
        <ele>1016.683</ele>
        <time>2020-09-02T10:00:51Z</time>
      </trkpt>
      <trkpt lat="44.0613" lon="5.63608">
        <ele>1017.242</ele>
        <time>2020-09-02T10:00:52Z</time>
      </trkpt>
      <trkpt lat="44.06141" lon="5.63618">
        <ele>1017.922</ele>
        <time>2020-09-02T10:00:53Z</time>
      </trkpt>
      <trkpt lat="44.06152" lon="5.63629">
        <ele>1020.099</ele>
        <time>2020-09-02T10:00:54Z</time>
      </trkpt>
      <trkpt lat="44.06163" lon="5.63641">
        <ele>1020.66</ele>
        <time>2020-09-02T10:00:55Z</time>
      </trkpt>
      <trkpt lat="44.06172" lon="5.63651">
        <ele>1021.778</ele>
        <time>2020-09-02T10:00:56Z</time>
      </trkpt>
      <trkpt lat="44.06181" lon="5.63662">
        <ele>1022.434</ele>
        <time>2020-09-02T10:00:57Z</time>
      </trkpt>
      <trkpt lat="44.06191" lon="5.63672">
        <ele>1022.887</ele>
        <time>2020-09-02T10:00:58Z</time>
      </trkpt>
      <trkpt lat="44.06202" lon="5.6368">
        <ele>1023.133</ele>
        <time>2020-09-02T10:00:59Z</time>
      </trkpt>
      <trkpt lat="44.06214" lon="5.63687">
        <ele>1024.023</ele>
        <time>2020-09-02T10:01:00Z</time>
      </trkpt>
      <trkpt lat="44.06227" lon="5.63694">
        <ele>1024.215</ele>
        <time>2020-09-02T10:01:01Z</time>
      </trkpt>
      <trkpt lat="44.06241" lon="5.63698">
        <ele>1025.308</ele>
        <time>2020-09-02T10:01:02Z</time>
      </trkpt>
      <trkpt lat="44.06255" lon="5.63702">
        <ele>1026.481</ele>
        <time>2020-09-02T10:01:03Z</time>
      </trkpt>
      <trkpt lat="44.06269" lon="5.63706">
        <ele>1027.41</ele>
        <time>2020-09-02T10:01:04Z</time>
      </trkpt>
      <trkpt lat="44.06283" lon="5.6371">
        <ele>1028.87</ele>
        <time>2020-09-02T10:01:05Z</time>
      </trkpt>
      <trkpt lat="44.06295" lon="5.63715">
        <ele>1029.957</ele>
        <time>2020-09-02T10:01:06Z</time>
      </trkpt>
      <trkpt lat="44.06309" lon="5.6372">
        <ele>1031.118</ele>
        <time>2020-09-02T10:01:07Z</time>
      </trkpt>
      <trkpt lat="44.06322" lon="5.63724">
        <ele>1033.076</ele>
        <time>2020-09-02T10:01:08Z</time>
      </trkpt>
      <trkpt lat="44.06334" lon="5.63728">
        <ele>1034.392</ele>
        <time>2020-09-02T10:01:09Z</time>
      </trkpt>
      <trkpt lat="44.06346" lon="5.63731">
        <ele>1035.415</ele>
        <time>2020-09-02T10:01:10Z</time>
      </trkpt>
      <trkpt lat="44.06358" lon="5.63733">
        <ele>1035.894</ele>
        <time>2020-09-02T10:01:11Z</time>
      </trkpt>
      <trkpt lat="44.06372" lon="5.63735">
        <ele>1036.357</ele>
        <time>2020-09-02T10:01:12Z</time>
      </trkpt>
      <trkpt lat="44.06385" lon="5.63737">
        <ele>1036.522</ele>
        <time>2020-09-02T10:01:13Z</time>
      </trkpt>
      <trkpt lat="44.06398" lon="5.63738">
        <ele>1037.108</ele>
        <time>2020-09-02T10:01:14Z</time>
      </trkpt>
      <trkpt lat="44.06412" lon="5.6374">
        <ele>1037.747</ele>
        <time>2020-09-02T10:01:15Z</time>
      </trkpt>
      <trkpt lat="44.06425" lon="5.6374">
        <ele>1038.366</ele>
        <time>2020-09-02T10:01:16Z</time>
      </trkpt>
      <trkpt lat="44.06437" lon="5.63739">
        <ele>1038.376</ele>
        <time>2020-09-02T10:01:17Z</time>
      </trkpt>
      <trkpt lat="44.06449" lon="5.63738">
        <ele>1039.263</ele>
        <time>2020-09-02T10:01:18Z</time>
      </trkpt>
      <trkpt lat="44.06459" lon="5.63736">
        <ele>1038.424</ele>
        <time>2020-09-02T10:01:19Z</time>
      </trkpt>
      <trkpt lat="44.0647" lon="5.63732">
        <ele>1038.992</ele>
        <time>2020-09-02T10:01:20Z</time>
      </trkpt>
      <trkpt lat="44.06476" lon="5.63719">
        <ele>1040.098</ele>
        <time>2020-09-02T10:01:21Z</time>
      </trkpt>
      <trkpt lat="44.06484" lon="5.63709">
        <ele>1040.941</ele>
        <time>2020-09-02T10:01:22Z</time>
      </trkpt>
      <trkpt lat="44.06492" lon="5.63698">
        <ele>1041.669</ele>
        <time>2020-09-02T10:01:23Z</time>
      </trkpt>
      <trkpt lat="44.065" lon="5.63688">
        <ele>1042.004</ele>
        <time>2020-09-02T10:01:24Z</time>
      </trkpt>
      <trkpt lat="44.0651" lon="5.63681">
        <ele>1042.324</ele>
        <time>2020-09-02T10:01:25Z</time>
      </trkpt>
      <trkpt lat="44.0652" lon="5.63674">
        <ele>1042.408</ele>
        <time>2020-09-02T10:01:26Z</time>
      </trkpt>
      <trkpt lat="44.06531" lon="5.63667">
        <ele>1044.494</ele>
        <time>2020-09-02T10:01:27Z</time>
      </trkpt>
      <trkpt lat="44.06543" lon="5.63664">
        <ele>1044.963</ele>
        <time>2020-09-02T10:01:28Z</time>
      </trkpt>
      <trkpt lat="44.06554" lon="5.63659">
        <ele>1046.183</ele>
        <time>2020-09-02T10:01:29Z</time>
      </trkpt>
      <trkpt lat="44.06565" lon="5.63652">
        <ele>1047.09</ele>
        <time>2020-09-02T10:01:30Z</time>
      </trkpt>
      <trkpt lat="44.06573" lon="5.63644">
        <ele>1047.821</ele>
        <time>2020-09-02T10:01:31Z</time>
      </trkpt>
      <trkpt lat="44.06581" lon="5.63639">
        <ele>1048.349</ele>
        <time>2020-09-02T10:01:32Z</time>
      </trkpt>
      <trkpt lat="44.06591" lon="5.6364">
        <ele>1051.545</ele>
        <time>2020-09-02T10:01:33Z</time>
      </trkpt>
      <trkpt lat="44.066" lon="5.63641">
        <ele>1051.898</ele>
        <time>2020-09-02T10:01:34Z</time>
      </trkpt>
      <trkpt lat="44.06609" lon="5.63641">
        <ele>1052.541</ele>
        <time>2020-09-02T10:01:35Z</time>
      </trkpt>
      <trkpt lat="44.06617" lon="5.63642">
        <ele>1053.681</ele>
        <time>2020-09-02T10:01:36Z</time>
      </trkpt>
      <trkpt lat="44.06626" lon="5.63641">
        <ele>1054.509</ele>
        <time>2020-09-02T10:01:37Z</time>
      </trkpt>
      <trkpt lat="44.06634" lon="5.6364">
        <ele>1055.208</ele>
        <time>2020-09-02T10:01:38Z</time>
      </trkpt>
      <trkpt lat="44.06643" lon="5.63638">
        <ele>1055.252</ele>
        <time>2020-09-02T10:01:39Z</time>
      </trkpt>
      <trkpt lat="44.06651" lon="5.63636">
        <ele>1055.911</ele>
        <time>2020-09-02T10:01:40Z</time>
      </trkpt>
      <trkpt lat="44.0666" lon="5.63636">
        <ele>1056.971</ele>
        <time>2020-09-02T10:01:41Z</time>
      </trkpt>
      <trkpt lat="44.06669" lon="5.63635">
        <ele>1059.138</ele>
        <time>2020-09-02T10:01:42Z</time>
      </trkpt>
      <trkpt lat="44.06677" lon="5.63634">
        <ele>1060.579</ele>
        <time>2020-09-02T10:01:43Z</time>
      </trkpt>
      <trkpt lat="44.06686" lon="5.6363">
        <ele>1061.647</ele>
        <time>2020-09-02T10:01:44Z</time>
      </trkpt>
      <trkpt lat="44.06695" lon="5.63626">
        <ele>1062.393</ele>
        <time>2020-09-02T10:01:45Z</time>
      </trkpt>
      <trkpt lat="44.06705" lon="5.63621">
        <ele>1063.326</ele>
        <time>2020-09-02T10:01:46Z</time>
      </trkpt>
      <trkpt lat="44.06715" lon="5.63617">
        <ele>1065.086</ele>
        <time>2020-09-02T10:01:47Z</time>
      </trkpt>
      <trkpt lat="44.06725" lon="5.63613">
        <ele>1066.36</ele>
        <time>2020-09-02T10:01:48Z</time>
      </trkpt>
      <trkpt lat="44.06736" lon="5.6361">
        <ele>1067.126</ele>
        <time>2020-09-02T10:01:49Z</time>
      </trkpt>
      <trkpt lat="44.06748" lon="5.63604">
        <ele>1068.208</ele>
        <time>2020-09-02T10:01:50Z</time>
      </trkpt>
      <trkpt lat="44.0676" lon="5.63597">
        <ele>1069.686</ele>
        <time>2020-09-02T10:01:51Z</time>
      </trkpt>
      <trkpt lat="44.06773" lon="5.63592">
        <ele>1070.255</ele>
        <time>2020-09-02T10:01:52Z</time>
      </trkpt>
      <trkpt lat="44.06784" lon="5.63589">
        <ele>1071.345</ele>
        <time>2020-09-02T10:01:53Z</time>
      </trkpt>
      <trkpt lat="44.06793" lon="5.63588">
        <ele>1071.492</ele>
        <time>2020-09-02T10:01:54Z</time>
      </trkpt>
      <trkpt lat="44.06797" lon="5.63583">
        <ele>1072.653</ele>
        <time>2020-09-02T10:01:55Z</time>
      </trkpt>
      <trkpt lat="44.068" lon="5.63569">
        <ele>1074.121</ele>
        <time>2020-09-02T10:01:57Z</time>
      </trkpt>
      <trkpt lat="44.06801" lon="5.6356">
        <ele>1074.647</ele>
        <time>2020-09-02T10:01:58Z</time>
      </trkpt>
      <trkpt lat="44.06802" lon="5.6355">
        <ele>1075.63</ele>
        <time>2020-09-02T10:01:59Z</time>
      </trkpt>
      <trkpt lat="44.06801" lon="5.63542">
        <ele>1076.511</ele>
        <time>2020-09-02T10:02:00Z</time>
      </trkpt>
      <trkpt lat="44.068" lon="5.63533">
        <ele>1078.721</ele>
        <time>2020-09-02T10:02:02Z</time>
      </trkpt>
      <trkpt lat="44.06804" lon="5.63529">
        <ele>1080.003</ele>
        <time>2020-09-02T10:02:04Z</time>
      </trkpt>
      <trkpt lat="44.0681" lon="5.63529">
        <ele>1080.808</ele>
        <time>2020-09-02T10:02:06Z</time>
      </trkpt>
      <trkpt lat="44.06819" lon="5.63529">
        <ele>1081.339</ele>
        <time>2020-09-02T10:02:08Z</time>
      </trkpt>
      <trkpt lat="44.06825" lon="5.6353">
        <ele>1081.638</ele>
        <time>2020-09-02T10:02:09Z</time>
      </trkpt>
      <trkpt lat="44.06831" lon="5.63534">
        <ele>1082.088</ele>
        <time>2020-09-02T10:02:10Z</time>
      </trkpt>
      <trkpt lat="44.06837" lon="5.6354">
        <ele>1082.535</ele>
        <time>2020-09-02T10:02:11Z</time>
      </trkpt>
      <trkpt lat="44.06845" lon="5.63544">
        <ele>1082.916</ele>
        <time>2020-09-02T10:02:12Z</time>
      </trkpt>
      <trkpt lat="44.06853" lon="5.63549">
        <ele>1083.174</ele>
        <time>2020-09-02T10:02:13Z</time>
      </trkpt>
      <trkpt lat="44.0686" lon="5.63553">
        <ele>1083.45</ele>
        <time>2020-09-02T10:02:14Z</time>
      </trkpt>
      <trkpt lat="44.06868" lon="5.63558">
        <ele>1083.593</ele>
        <time>2020-09-02T10:02:15Z</time>
      </trkpt>
      <trkpt lat="44.06876" lon="5.63562">
        <ele>1083.761</ele>
        <time>2020-09-02T10:02:16Z</time>
      </trkpt>
      <trkpt lat="44.06882" lon="5.63565">
        <ele>1084.521</ele>
        <time>2020-09-02T10:02:17Z</time>
      </trkpt>
      <trkpt lat="44.06887" lon="5.63568">
        <ele>1085.013</ele>
        <time>2020-09-02T10:02:18Z</time>
      </trkpt>
      <trkpt lat="44.06893" lon="5.63571">
        <ele>1085.808</ele>
        <time>2020-09-02T10:02:19Z</time>
      </trkpt>
      <trkpt lat="44.06898" lon="5.63573">
        <ele>1086.344</ele>
        <time>2020-09-02T10:02:20Z</time>
      </trkpt>
      <trkpt lat="44.06903" lon="5.63575">
        <ele>1086.483</ele>
        <time>2020-09-02T10:02:21Z</time>
      </trkpt>
      <trkpt lat="44.0691" lon="5.63579">
        <ele>1086.813</ele>
        <time>2020-09-02T10:02:23Z</time>
      </trkpt>
      <trkpt lat="44.06913" lon="5.63586">
        <ele>1087.31</ele>
        <time>2020-09-02T10:02:26Z</time>
      </trkpt>
      <trkpt lat="44.0692" lon="5.63591">
        <ele>1087.641</ele>
        <time>2020-09-02T10:02:28Z</time>
      </trkpt>
      <trkpt lat="44.06924" lon="5.63593">
        <ele>1088.139</ele>
        <time>2020-09-02T10:02:29Z</time>
      </trkpt>
      <trkpt lat="44.06931" lon="5.63598">
        <ele>1088.825</ele>
        <time>2020-09-02T10:02:31Z</time>
      </trkpt>
      <trkpt lat="44.06937" lon="5.63605">
        <ele>1089.348</ele>
        <time>2020-09-02T10:02:33Z</time>
      </trkpt>
      <trkpt lat="44.06945" lon="5.63613">
        <ele>1088.785</ele>
        <time>2020-09-02T10:02:59Z</time>
      </trkpt>
      <trkpt lat="44.0694" lon="5.63614">
        <ele>1089.289</ele>
        <time>2020-09-02T10:03:04Z</time>
      </trkpt>
      <trkpt lat="44.06934" lon="5.63599">
        <ele>1088.717</ele>
        <time>2020-09-02T10:03:06Z</time>
      </trkpt>
      <trkpt lat="44.06926" lon="5.63593">
        <ele>1089.008</ele>
        <time>2020-09-02T10:03:08Z</time>
      </trkpt>
      <trkpt lat="44.06922" lon="5.6359">
        <ele>1089.216</ele>
        <time>2020-09-02T10:03:09Z</time>
      </trkpt>
      <trkpt lat="44.06917" lon="5.63588">
        <ele>1089.195</ele>
        <time>2020-09-02T10:03:10Z</time>
      </trkpt>
      <trkpt lat="44.06911" lon="5.63585">
        <ele>1088.975</ele>
        <time>2020-09-02T10:03:11Z</time>
      </trkpt>
      <trkpt lat="44.06907" lon="5.63583">
        <ele>1088.972</ele>
        <time>2020-09-02T10:03:12Z</time>
      </trkpt>
      <trkpt lat="44.06902" lon="5.63581">
        <ele>1088.713</ele>
        <time>2020-09-02T10:03:13Z</time>
      </trkpt>
      <trkpt lat="44.06896" lon="5.63579">
        <ele>1088.781</ele>
        <time>2020-09-02T10:03:14Z</time>
      </trkpt>
      <trkpt lat="44.06892" lon="5.63576">
        <ele>1088.297</ele>
        <time>2020-09-02T10:03:15Z</time>
      </trkpt>
      <trkpt lat="44.06888" lon="5.63572">
        <ele>1088.19</ele>
        <time>2020-09-02T10:03:16Z</time>
      </trkpt>
      <trkpt lat="44.06884" lon="5.63567">
        <ele>1088.474</ele>
        <time>2020-09-02T10:03:17Z</time>
      </trkpt>
      <trkpt lat="44.06879" lon="5.63563">
        <ele>1088.256</ele>
        <time>2020-09-02T10:03:18Z</time>
      </trkpt>
      <trkpt lat="44.06873" lon="5.6356">
        <ele>1088.021</ele>
        <time>2020-09-02T10:03:19Z</time>
      </trkpt>
      <trkpt lat="44.06867" lon="5.63557">
        <ele>1087.508</ele>
        <time>2020-09-02T10:03:20Z</time>
      </trkpt>
      <trkpt lat="44.0686" lon="5.63555">
        <ele>1086.865</ele>
        <time>2020-09-02T10:03:21Z</time>
      </trkpt>
      <trkpt lat="44.06853" lon="5.63551">
        <ele>1086.484</ele>
        <time>2020-09-02T10:03:22Z</time>
      </trkpt>
      <trkpt lat="44.06847" lon="5.63547">
        <ele>1086.334</ele>
        <time>2020-09-02T10:03:23Z</time>
      </trkpt>
      <trkpt lat="44.06841" lon="5.63543">
        <ele>1086.081</ele>
        <time>2020-09-02T10:03:24Z</time>
      </trkpt>
      <trkpt lat="44.06836" lon="5.6354">
        <ele>1086.132</ele>
        <time>2020-09-02T10:03:25Z</time>
      </trkpt>
      <trkpt lat="44.06831" lon="5.63537">
        <ele>1086.22</ele>
        <time>2020-09-02T10:03:26Z</time>
      </trkpt>
      <trkpt lat="44.06825" lon="5.63534">
        <ele>1086.356</ele>
        <time>2020-09-02T10:03:27Z</time>
      </trkpt>
      <trkpt lat="44.0682" lon="5.63532">
        <ele>1086.029</ele>
        <time>2020-09-02T10:03:28Z</time>
      </trkpt>
      <trkpt lat="44.06814" lon="5.6353">
        <ele>1086.384</ele>
        <time>2020-09-02T10:03:29Z</time>
      </trkpt>
      <trkpt lat="44.06807" lon="5.6353">
        <ele>1086.007</ele>
        <time>2020-09-02T10:03:30Z</time>
      </trkpt>
      <trkpt lat="44.06801" lon="5.63531">
        <ele>1085.917</ele>
        <time>2020-09-02T10:03:31Z</time>
      </trkpt>
      <trkpt lat="44.06796" lon="5.6353">
        <ele>1085.308</ele>
        <time>2020-09-02T10:03:32Z</time>
      </trkpt>
      <trkpt lat="44.06791" lon="5.6353">
        <ele>1085.566</ele>
        <time>2020-09-02T10:03:33Z</time>
      </trkpt>
      <trkpt lat="44.06784" lon="5.63529">
        <ele>1085.655</ele>
        <time>2020-09-02T10:03:34Z</time>
      </trkpt>
      <trkpt lat="44.06778" lon="5.63528">
        <ele>1085.945</ele>
        <time>2020-09-02T10:03:35Z</time>
      </trkpt>
      <trkpt lat="44.06771" lon="5.63531">
        <ele>1086.282</ele>
        <time>2020-09-02T10:03:36Z</time>
      </trkpt>
      <trkpt lat="44.06766" lon="5.63534">
        <ele>1086.213</ele>
        <time>2020-09-02T10:03:37Z</time>
      </trkpt>
      <trkpt lat="44.0676" lon="5.63527">
        <ele>1086.981</ele>
        <time>2020-09-02T10:03:39Z</time>
      </trkpt>
      <trkpt lat="44.06765" lon="5.63518">
        <ele>1087.987</ele>
        <time>2020-09-02T10:03:41Z</time>
      </trkpt>
      <trkpt lat="44.06771" lon="5.63517">
        <ele>1088.58</ele>
        <time>2020-09-02T10:03:42Z</time>
      </trkpt>
      <trkpt lat="44.06778" lon="5.63515">
        <ele>1088.066</ele>
        <time>2020-09-02T10:03:43Z</time>
      </trkpt>
      <trkpt lat="44.06786" lon="5.63513">
        <ele>1087.929</ele>
        <time>2020-09-02T10:03:44Z</time>
      </trkpt>
      <trkpt lat="44.06794" lon="5.63511">
        <ele>1088.821</ele>
        <time>2020-09-02T10:03:45Z</time>
      </trkpt>
      <trkpt lat="44.06803" lon="5.63509">
        <ele>1089.608</ele>
        <time>2020-09-02T10:03:46Z</time>
      </trkpt>
      <trkpt lat="44.06813" lon="5.63507">
        <ele>1090.334</ele>
        <time>2020-09-02T10:03:47Z</time>
      </trkpt>
      <trkpt lat="44.06822" lon="5.63506">
        <ele>1089.743</ele>
        <time>2020-09-02T10:03:48Z</time>
      </trkpt>
      <trkpt lat="44.06832" lon="5.63507">
        <ele>1090.293</ele>
        <time>2020-09-02T10:03:49Z</time>
      </trkpt>
      <trkpt lat="44.06842" lon="5.63509">
        <ele>1091.22</ele>
        <time>2020-09-02T10:03:50Z</time>
      </trkpt>
      <trkpt lat="44.06852" lon="5.63513">
        <ele>1091.541</ele>
        <time>2020-09-02T10:03:51Z</time>
      </trkpt>
      <trkpt lat="44.06862" lon="5.63518">
        <ele>1092.419</ele>
        <time>2020-09-02T10:03:52Z</time>
      </trkpt>
      <trkpt lat="44.06872" lon="5.63524">
        <ele>1093.875</ele>
        <time>2020-09-02T10:03:53Z</time>
      </trkpt>
      <trkpt lat="44.06881" lon="5.63529">
        <ele>1094.368</ele>
        <time>2020-09-02T10:03:54Z</time>
      </trkpt>
      <trkpt lat="44.06889" lon="5.63536">
        <ele>1095.025</ele>
        <time>2020-09-02T10:03:55Z</time>
      </trkpt>
      <trkpt lat="44.06899" lon="5.63542">
        <ele>1094.926</ele>
        <time>2020-09-02T10:03:56Z</time>
      </trkpt>
      <trkpt lat="44.06909" lon="5.63548">
        <ele>1095.108</ele>
        <time>2020-09-02T10:03:57Z</time>
      </trkpt>
      <trkpt lat="44.0692" lon="5.63553">
        <ele>1095.408</ele>
        <time>2020-09-02T10:03:58Z</time>
      </trkpt>
      <trkpt lat="44.0693" lon="5.63557">
        <ele>1095.97</ele>
        <time>2020-09-02T10:03:59Z</time>
      </trkpt>
      <trkpt lat="44.0694" lon="5.6356">
        <ele>1096.889</ele>
        <time>2020-09-02T10:04:00Z</time>
      </trkpt>
      <trkpt lat="44.06948" lon="5.63563">
        <ele>1096.919</ele>
        <time>2020-09-02T10:04:01Z</time>
      </trkpt>
      <trkpt lat="44.06956" lon="5.63569">
        <ele>1097.946</ele>
        <time>2020-09-02T10:04:02Z</time>
      </trkpt>
      <trkpt lat="44.06966" lon="5.63578">
        <ele>1097.977</ele>
        <time>2020-09-02T10:04:03Z</time>
      </trkpt>
      <trkpt lat="44.06976" lon="5.63585">
        <ele>1098.695</ele>
        <time>2020-09-02T10:04:04Z</time>
      </trkpt>
      <trkpt lat="44.06985" lon="5.6359">
        <ele>1099.761</ele>
        <time>2020-09-02T10:04:05Z</time>
      </trkpt>
      <trkpt lat="44.06995" lon="5.63593">
        <ele>1100.954</ele>
        <time>2020-09-02T10:04:06Z</time>
      </trkpt>
      <trkpt lat="44.07005" lon="5.63591">
        <ele>1102.871</ele>
        <time>2020-09-02T10:04:07Z</time>
      </trkpt>
      <trkpt lat="44.07015" lon="5.63587">
        <ele>1104.141</ele>
        <time>2020-09-02T10:04:08Z</time>
      </trkpt>
      <trkpt lat="44.07025" lon="5.63582">
        <ele>1105.415</ele>
        <time>2020-09-02T10:04:09Z</time>
      </trkpt>
      <trkpt lat="44.07036" lon="5.63577">
        <ele>1107.208</ele>
        <time>2020-09-02T10:04:10Z</time>
      </trkpt>
      <trkpt lat="44.07048" lon="5.63573">
        <ele>1108.575</ele>
        <time>2020-09-02T10:04:11Z</time>
      </trkpt>
      <trkpt lat="44.07059" lon="5.6357">
        <ele>1109.484</ele>
        <time>2020-09-02T10:04:12Z</time>
      </trkpt>
      <trkpt lat="44.07072" lon="5.63568">
        <ele>1110.414</ele>
        <time>2020-09-02T10:04:13Z</time>
      </trkpt>
      <trkpt lat="44.07085" lon="5.63566">
        <ele>1111.221</ele>
        <time>2020-09-02T10:04:14Z</time>
      </trkpt>
      <trkpt lat="44.07099" lon="5.63563">
        <ele>1112.272</ele>
        <time>2020-09-02T10:04:15Z</time>
      </trkpt>
      <trkpt lat="44.07112" lon="5.63561">
        <ele>1112.75</ele>
        <time>2020-09-02T10:04:16Z</time>
      </trkpt>
      <trkpt lat="44.07126" lon="5.63559">
        <ele>1113.616</ele>
        <time>2020-09-02T10:04:17Z</time>
      </trkpt>
      <trkpt lat="44.07139" lon="5.63556">
        <ele>1115.059</ele>
        <time>2020-09-02T10:04:18Z</time>
      </trkpt>
      <trkpt lat="44.07152" lon="5.63553">
        <ele>1116.535</ele>
        <time>2020-09-02T10:04:19Z</time>
      </trkpt>
      <trkpt lat="44.07163" lon="5.63551">
        <ele>1117.786</ele>
        <time>2020-09-02T10:04:20Z</time>
      </trkpt>
      <trkpt lat="44.07174" lon="5.63548">
        <ele>1118.914</ele>
        <time>2020-09-02T10:04:21Z</time>
      </trkpt>
      <trkpt lat="44.07184" lon="5.63545">
        <ele>1119.808</ele>
        <time>2020-09-02T10:04:22Z</time>
      </trkpt>
      <trkpt lat="44.07194" lon="5.63542">
        <ele>1120.731</ele>
        <time>2020-09-02T10:04:23Z</time>
      </trkpt>
      <trkpt lat="44.07205" lon="5.63537">
        <ele>1121.41</ele>
        <time>2020-09-02T10:04:24Z</time>
      </trkpt>
      <trkpt lat="44.07217" lon="5.63532">
        <ele>1121.98</ele>
        <time>2020-09-02T10:04:25Z</time>
      </trkpt>
      <trkpt lat="44.07228" lon="5.63526">
        <ele>1122.597</ele>
        <time>2020-09-02T10:04:26Z</time>
      </trkpt>
      <trkpt lat="44.0724" lon="5.63521">
        <ele>1123.178</ele>
        <time>2020-09-02T10:04:27Z</time>
      </trkpt>
      <trkpt lat="44.07251" lon="5.63518">
        <ele>1123.856</ele>
        <time>2020-09-02T10:04:28Z</time>
      </trkpt>
      <trkpt lat="44.07261" lon="5.63516">
        <ele>1124.512</ele>
        <time>2020-09-02T10:04:29Z</time>
      </trkpt>
      <trkpt lat="44.07271" lon="5.63513">
        <ele>1124.885</ele>
        <time>2020-09-02T10:04:30Z</time>
      </trkpt>
      <trkpt lat="44.07282" lon="5.63509">
        <ele>1124.547</ele>
        <time>2020-09-02T10:04:31Z</time>
      </trkpt>
      <trkpt lat="44.07292" lon="5.63504">
        <ele>1124.229</ele>
        <time>2020-09-02T10:04:32Z</time>
      </trkpt>
      <trkpt lat="44.07303" lon="5.635">
        <ele>1123.421</ele>
        <time>2020-09-02T10:04:33Z</time>
      </trkpt>
      <trkpt lat="44.07314" lon="5.63496">
        <ele>1122.808</ele>
        <time>2020-09-02T10:04:34Z</time>
      </trkpt>
      <trkpt lat="44.07323" lon="5.63494">
        <ele>1122.392</ele>
        <time>2020-09-02T10:04:35Z</time>
      </trkpt>
      <trkpt lat="44.07333" lon="5.63493">
        <ele>1121.741</ele>
        <time>2020-09-02T10:04:36Z</time>
      </trkpt>
      <trkpt lat="44.07342" lon="5.63494">
        <ele>1121.791</ele>
        <time>2020-09-02T10:04:37Z</time>
      </trkpt>
      <trkpt lat="44.07351" lon="5.63496">
        <ele>1121.428</ele>
        <time>2020-09-02T10:04:38Z</time>
      </trkpt>
      <trkpt lat="44.0736" lon="5.635">
        <ele>1121.449</ele>
        <time>2020-09-02T10:04:39Z</time>
      </trkpt>
      <trkpt lat="44.07369" lon="5.63504">
        <ele>1121.047</ele>
        <time>2020-09-02T10:04:40Z</time>
      </trkpt>
      <trkpt lat="44.07378" lon="5.63508">
        <ele>1120.733</ele>
        <time>2020-09-02T10:04:41Z</time>
      </trkpt>
      <trkpt lat="44.07387" lon="5.63511">
        <ele>1120.366</ele>
        <time>2020-09-02T10:04:42Z</time>
      </trkpt>
      <trkpt lat="44.07398" lon="5.63515">
        <ele>1119.877</ele>
        <time>2020-09-02T10:04:43Z</time>
      </trkpt>
      <trkpt lat="44.07408" lon="5.63519">
        <ele>1119.361</ele>
        <time>2020-09-02T10:04:44Z</time>
      </trkpt>
      <trkpt lat="44.07418" lon="5.63524">
        <ele>1118.927</ele>
        <time>2020-09-02T10:04:45Z</time>
      </trkpt>
      <trkpt lat="44.0743" lon="5.63529">
        <ele>1118.408</ele>
        <time>2020-09-02T10:04:46Z</time>
      </trkpt>
      <trkpt lat="44.07441" lon="5.63532">
        <ele>1117.855</ele>
        <time>2020-09-02T10:04:47Z</time>
      </trkpt>
      <trkpt lat="44.07453" lon="5.63534">
        <ele>1117.344</ele>
        <time>2020-09-02T10:04:48Z</time>
      </trkpt>
      <trkpt lat="44.07466" lon="5.63534">
        <ele>1116.894</ele>
        <time>2020-09-02T10:04:49Z</time>
      </trkpt>
      <trkpt lat="44.07478" lon="5.63535">
        <ele>1116.471</ele>
        <time>2020-09-02T10:04:50Z</time>
      </trkpt>
      <trkpt lat="44.07491" lon="5.63535">
        <ele>1115.992</ele>
        <time>2020-09-02T10:04:51Z</time>
      </trkpt>
      <trkpt lat="44.07504" lon="5.63538">
        <ele>1115.53</ele>
        <time>2020-09-02T10:04:52Z</time>
      </trkpt>
      <trkpt lat="44.07516" lon="5.63541">
        <ele>1115.476</ele>
        <time>2020-09-02T10:04:53Z</time>
      </trkpt>
      <trkpt lat="44.07529" lon="5.63543">
        <ele>1115.159</ele>
        <time>2020-09-02T10:04:54Z</time>
      </trkpt>
      <trkpt lat="44.07542" lon="5.63543">
        <ele>1115.334</ele>
        <time>2020-09-02T10:04:55Z</time>
      </trkpt>
      <trkpt lat="44.07554" lon="5.63544">
        <ele>1115.755</ele>
        <time>2020-09-02T10:04:56Z</time>
      </trkpt>
      <trkpt lat="44.07566" lon="5.63546">
        <ele>1116.51</ele>
        <time>2020-09-02T10:04:57Z</time>
      </trkpt>
      <trkpt lat="44.07579" lon="5.63547">
        <ele>1117.108</ele>
        <time>2020-09-02T10:04:58Z</time>
      </trkpt>
      <trkpt lat="44.07591" lon="5.63548">
        <ele>1117.561</ele>
        <time>2020-09-02T10:04:59Z</time>
      </trkpt>
      <trkpt lat="44.07604" lon="5.6355">
        <ele>1117.93</ele>
        <time>2020-09-02T10:05:00Z</time>
      </trkpt>
      <trkpt lat="44.07616" lon="5.63552">
        <ele>1118.66</ele>
        <time>2020-09-02T10:05:01Z</time>
      </trkpt>
      <trkpt lat="44.07626" lon="5.63553">
        <ele>1119.167</ele>
        <time>2020-09-02T10:05:02Z</time>
      </trkpt>
      <trkpt lat="44.07637" lon="5.63556">
        <ele>1120.018</ele>
        <time>2020-09-02T10:05:03Z</time>
      </trkpt>
      <trkpt lat="44.07647" lon="5.63559">
        <ele>1121.076</ele>
        <time>2020-09-02T10:05:04Z</time>
      </trkpt>
      <trkpt lat="44.07656" lon="5.63562">
        <ele>1122.032</ele>
        <time>2020-09-02T10:05:05Z</time>
      </trkpt>
      <trkpt lat="44.07664" lon="5.63567">
        <ele>1123.025</ele>
        <time>2020-09-02T10:05:06Z</time>
      </trkpt>
      <trkpt lat="44.07671" lon="5.63574">
        <ele>1124.522</ele>
        <time>2020-09-02T10:05:07Z</time>
      </trkpt>
      <trkpt lat="44.07678" lon="5.63582">
        <ele>1125.962</ele>
        <time>2020-09-02T10:05:08Z</time>
      </trkpt>
      <trkpt lat="44.07684" lon="5.63591">
        <ele>1127.708</ele>
        <time>2020-09-02T10:05:09Z</time>
      </trkpt>
      <trkpt lat="44.0769" lon="5.63601">
        <ele>1129.708</ele>
        <time>2020-09-02T10:05:10Z</time>
      </trkpt>
      <trkpt lat="44.07696" lon="5.63612">
        <ele>1131.19</ele>
        <time>2020-09-02T10:05:11Z</time>
      </trkpt>
      <trkpt lat="44.07703" lon="5.63619">
        <ele>1132.459</ele>
        <time>2020-09-02T10:05:12Z</time>
      </trkpt>
      <trkpt lat="44.07712" lon="5.63625">
        <ele>1133.549</ele>
        <time>2020-09-02T10:05:13Z</time>
      </trkpt>
      <trkpt lat="44.07722" lon="5.6363">
        <ele>1134.236</ele>
        <time>2020-09-02T10:05:14Z</time>
      </trkpt>
      <trkpt lat="44.07733" lon="5.63635">
        <ele>1134.957</ele>
        <time>2020-09-02T10:05:15Z</time>
      </trkpt>
      <trkpt lat="44.07741" lon="5.63641">
        <ele>1135.515</ele>
        <time>2020-09-02T10:05:16Z</time>
      </trkpt>
      <trkpt lat="44.07747" lon="5.63645">
        <ele>1136.021</ele>
        <time>2020-09-02T10:05:17Z</time>
      </trkpt>
      <trkpt lat="44.07755" lon="5.63649">
        <ele>1136.324</ele>
        <time>2020-09-02T10:05:18Z</time>
      </trkpt>
      <trkpt lat="44.07763" lon="5.63654">
        <ele>1136.893</ele>
        <time>2020-09-02T10:05:19Z</time>
      </trkpt>
      <trkpt lat="44.0777" lon="5.6366">
        <ele>1137.065</ele>
        <time>2020-09-02T10:05:20Z</time>
      </trkpt>
      <trkpt lat="44.07776" lon="5.63668">
        <ele>1137.521</ele>
        <time>2020-09-02T10:05:21Z</time>
      </trkpt>
      <trkpt lat="44.07782" lon="5.63677">
        <ele>1137.808</ele>
        <time>2020-09-02T10:05:22Z</time>
      </trkpt>
      <trkpt lat="44.07788" lon="5.63688">
        <ele>1138.577</ele>
        <time>2020-09-02T10:05:23Z</time>
      </trkpt>
      <trkpt lat="44.07793" lon="5.63701">
        <ele>1138.436</ele>
        <time>2020-09-02T10:05:24Z</time>
      </trkpt>
      <trkpt lat="44.07798" lon="5.63714">
        <ele>1138.796</ele>
        <time>2020-09-02T10:05:25Z</time>
      </trkpt>
      <trkpt lat="44.07802" lon="5.63726">
        <ele>1139.163</ele>
        <time>2020-09-02T10:05:26Z</time>
      </trkpt>
      <trkpt lat="44.07806" lon="5.63739">
        <ele>1140.164</ele>
        <time>2020-09-02T10:05:27Z</time>
      </trkpt>
      <trkpt lat="44.07811" lon="5.63754">
        <ele>1140.662</ele>
        <time>2020-09-02T10:05:28Z</time>
      </trkpt>
      <trkpt lat="44.07815" lon="5.63765">
        <ele>1140.738</ele>
        <time>2020-09-02T10:05:29Z</time>
      </trkpt>
      <trkpt lat="44.07821" lon="5.63777">
        <ele>1140.871</ele>
        <time>2020-09-02T10:05:30Z</time>
      </trkpt>
      <trkpt lat="44.07827" lon="5.63788">
        <ele>1140.415</ele>
        <time>2020-09-02T10:05:31Z</time>
      </trkpt>
      <trkpt lat="44.07833" lon="5.638">
        <ele>1141.065</ele>
        <time>2020-09-02T10:05:32Z</time>
      </trkpt>
      <trkpt lat="44.07841" lon="5.63813">
        <ele>1141.911</ele>
        <time>2020-09-02T10:05:33Z</time>
      </trkpt>
      <trkpt lat="44.07848" lon="5.63823">
        <ele>1142.508</ele>
        <time>2020-09-02T10:05:34Z</time>
      </trkpt>
      <trkpt lat="44.07854" lon="5.63834">
        <ele>1143.479</ele>
        <time>2020-09-02T10:05:35Z</time>
      </trkpt>
      <trkpt lat="44.07859" lon="5.63845">
        <ele>1144.318</ele>
        <time>2020-09-02T10:05:36Z</time>
      </trkpt>
      <trkpt lat="44.07864" lon="5.63856">
        <ele>1145.028</ele>
        <time>2020-09-02T10:05:37Z</time>
      </trkpt>
      <trkpt lat="44.07869" lon="5.63866">
        <ele>1145.665</ele>
        <time>2020-09-02T10:05:38Z</time>
      </trkpt>
      <trkpt lat="44.07876" lon="5.63874">
        <ele>1146.796</ele>
        <time>2020-09-02T10:05:39Z</time>
      </trkpt>
      <trkpt lat="44.07883" lon="5.63881">
        <ele>1147.364</ele>
        <time>2020-09-02T10:05:40Z</time>
      </trkpt>
      <trkpt lat="44.07891" lon="5.63889">
        <ele>1147.49</ele>
        <time>2020-09-02T10:05:41Z</time>
      </trkpt>
      <trkpt lat="44.079" lon="5.63897">
        <ele>1147.993</ele>
        <time>2020-09-02T10:05:42Z</time>
      </trkpt>
      <trkpt lat="44.07909" lon="5.63904">
        <ele>1148.639</ele>
        <time>2020-09-02T10:05:43Z</time>
      </trkpt>
      <trkpt lat="44.07918" lon="5.63909">
        <ele>1149.201</ele>
        <time>2020-09-02T10:05:44Z</time>
      </trkpt>
      <trkpt lat="44.07927" lon="5.63915">
        <ele>1149.121</ele>
        <time>2020-09-02T10:05:45Z</time>
      </trkpt>
      <trkpt lat="44.07937" lon="5.63919">
        <ele>1149.908</ele>
        <time>2020-09-02T10:05:46Z</time>
      </trkpt>
      <trkpt lat="44.07947" lon="5.63924">
        <ele>1150.361</ele>
        <time>2020-09-02T10:05:47Z</time>
      </trkpt>
      <trkpt lat="44.07956" lon="5.63929">
        <ele>1151.02</ele>
        <time>2020-09-02T10:05:48Z</time>
      </trkpt>
      <trkpt lat="44.07966" lon="5.63933">
        <ele>1151.73</ele>
        <time>2020-09-02T10:05:49Z</time>
      </trkpt>
      <trkpt lat="44.07974" lon="5.63937">
        <ele>1151.327</ele>
        <time>2020-09-02T10:05:50Z</time>
      </trkpt>
      <trkpt lat="44.0798" lon="5.63941">
        <ele>1151.568</ele>
        <time>2020-09-02T10:05:51Z</time>
      </trkpt>
      <trkpt lat="44.07985" lon="5.63943">
        <ele>1152.436</ele>
        <time>2020-09-02T10:05:52Z</time>
      </trkpt>
      <trkpt lat="44.07992" lon="5.63946">
        <ele>1153.212</ele>
        <time>2020-09-02T10:05:54Z</time>
      </trkpt>
      <trkpt lat="44.07996" lon="5.63948">
        <ele>1154.295</ele>
        <time>2020-09-02T10:05:57Z</time>
      </trkpt>
      <trkpt lat="44.08002" lon="5.63951">
        <ele>1159.023</ele>
        <time>2020-09-02T10:06:42Z</time>
      </trkpt>
      <trkpt lat="44.07997" lon="5.63953">
        <ele>1159.683</ele>
        <time>2020-09-02T10:06:46Z</time>
      </trkpt>
      <trkpt lat="44.07985" lon="5.63947">
        <ele>1158.911</ele>
        <time>2020-09-02T10:06:48Z</time>
      </trkpt>
      <trkpt lat="44.07981" lon="5.63944">
        <ele>1158.608</ele>
        <time>2020-09-02T10:06:49Z</time>
      </trkpt>
      <trkpt lat="44.07974" lon="5.63941">
        <ele>1158.33</ele>
        <time>2020-09-02T10:06:50Z</time>
      </trkpt>
      <trkpt lat="44.07964" lon="5.63937">
        <ele>1157.839</ele>
        <time>2020-09-02T10:06:51Z</time>
      </trkpt>
      <trkpt lat="44.07956" lon="5.63932">
        <ele>1156.949</ele>
        <time>2020-09-02T10:06:52Z</time>
      </trkpt>
      <trkpt lat="44.07947" lon="5.63927">
        <ele>1156.636</ele>
        <time>2020-09-02T10:06:53Z</time>
      </trkpt>
      <trkpt lat="44.07939" lon="5.63922">
        <ele>1156.447</ele>
        <time>2020-09-02T10:06:54Z</time>
      </trkpt>
      <trkpt lat="44.07931" lon="5.63919">
        <ele>1156.125</ele>
        <time>2020-09-02T10:06:55Z</time>
      </trkpt>
      <trkpt lat="44.07924" lon="5.63915">
        <ele>1155.891</ele>
        <time>2020-09-02T10:06:56Z</time>
      </trkpt>
      <trkpt lat="44.07916" lon="5.63911">
        <ele>1155.314</ele>
        <time>2020-09-02T10:06:57Z</time>
      </trkpt>
      <trkpt lat="44.07908" lon="5.63906">
        <ele>1154.814</ele>
        <time>2020-09-02T10:06:58Z</time>
      </trkpt>
      <trkpt lat="44.07902" lon="5.639">
        <ele>1153.754</ele>
        <time>2020-09-02T10:06:59Z</time>
      </trkpt>
      <trkpt lat="44.07894" lon="5.63892">
        <ele>1153.209</ele>
        <time>2020-09-02T10:07:00Z</time>
      </trkpt>
      <trkpt lat="44.07888" lon="5.63886">
        <ele>1153.308</ele>
        <time>2020-09-02T10:07:01Z</time>
      </trkpt>
      <trkpt lat="44.07882" lon="5.63878">
        <ele>1153.169</ele>
        <time>2020-09-02T10:07:02Z</time>
      </trkpt>
      <trkpt lat="44.07875" lon="5.63873">
        <ele>1153.168</ele>
        <time>2020-09-02T10:07:03Z</time>
      </trkpt>
      <trkpt lat="44.07869" lon="5.63868">
        <ele>1152.948</ele>
        <time>2020-09-02T10:07:04Z</time>
      </trkpt>
      <trkpt lat="44.07865" lon="5.6386">
        <ele>1152.775</ele>
        <time>2020-09-02T10:07:05Z</time>
      </trkpt>
      <trkpt lat="44.07859" lon="5.63851">
        <ele>1152.436</ele>
        <time>2020-09-02T10:07:06Z</time>
      </trkpt>
      <trkpt lat="44.07855" lon="5.6384">
        <ele>1152.294</ele>
        <time>2020-09-02T10:07:07Z</time>
      </trkpt>
      <trkpt lat="44.0785" lon="5.63831">
        <ele>1151.57</ele>
        <time>2020-09-02T10:07:08Z</time>
      </trkpt>
      <trkpt lat="44.07846" lon="5.63822">
        <ele>1152.533</ele>
        <time>2020-09-02T10:07:09Z</time>
      </trkpt>
      <trkpt lat="44.07841" lon="5.63814">
        <ele>1150.819</ele>
        <time>2020-09-02T10:07:10Z</time>
      </trkpt>
      <trkpt lat="44.07836" lon="5.63806">
        <ele>1150.109</ele>
        <time>2020-09-02T10:07:11Z</time>
      </trkpt>
      <trkpt lat="44.07831" lon="5.63798">
        <ele>1150.019</ele>
        <time>2020-09-02T10:07:12Z</time>
      </trkpt>
      <trkpt lat="44.07827" lon="5.6379">
        <ele>1149.608</ele>
        <time>2020-09-02T10:07:13Z</time>
      </trkpt>
      <trkpt lat="44.07822" lon="5.63784">
        <ele>1148.039</ele>
        <time>2020-09-02T10:07:14Z</time>
      </trkpt>
      <trkpt lat="44.07818" lon="5.63775">
        <ele>1147.568</ele>
        <time>2020-09-02T10:07:15Z</time>
      </trkpt>
      <trkpt lat="44.07814" lon="5.63769">
        <ele>1147.418</ele>
        <time>2020-09-02T10:07:16Z</time>
      </trkpt>
      <trkpt lat="44.07812" lon="5.63761">
        <ele>1146.975</ele>
        <time>2020-09-02T10:07:17Z</time>
      </trkpt>
      <trkpt lat="44.0781" lon="5.63755">
        <ele>1146.586</ele>
        <time>2020-09-02T10:07:18Z</time>
      </trkpt>
      <trkpt lat="44.07807" lon="5.63748">
        <ele>1146.244</ele>
        <time>2020-09-02T10:07:19Z</time>
      </trkpt>
      <trkpt lat="44.07805" lon="5.63741">
        <ele>1145.69</ele>
        <time>2020-09-02T10:07:20Z</time>
      </trkpt>
      <trkpt lat="44.07803" lon="5.63732">
        <ele>1145.513</ele>
        <time>2020-09-02T10:07:21Z</time>
      </trkpt>
      <trkpt lat="44.07801" lon="5.63725">
        <ele>1145.736</ele>
        <time>2020-09-02T10:07:22Z</time>
      </trkpt>
      <trkpt lat="44.07799" lon="5.63717">
        <ele>1145.917</ele>
        <time>2020-09-02T10:07:23Z</time>
      </trkpt>
      <trkpt lat="44.07797" lon="5.63709">
        <ele>1145.818</ele>
        <time>2020-09-02T10:07:24Z</time>
      </trkpt>
      <trkpt lat="44.07794" lon="5.63701">
        <ele>1145.408</ele>
        <time>2020-09-02T10:07:25Z</time>
      </trkpt>
      <trkpt lat="44.07791" lon="5.63694">
        <ele>1144.971</ele>
        <time>2020-09-02T10:07:26Z</time>
      </trkpt>
      <trkpt lat="44.07787" lon="5.63686">
        <ele>1144.49</ele>
        <time>2020-09-02T10:07:27Z</time>
      </trkpt>
      <trkpt lat="44.07783" lon="5.63678">
        <ele>1143.93</ele>
        <time>2020-09-02T10:07:28Z</time>
      </trkpt>
      <trkpt lat="44.0778" lon="5.63671">
        <ele>1143.017</ele>
        <time>2020-09-02T10:07:29Z</time>
      </trkpt>
      <trkpt lat="44.07775" lon="5.63665">
        <ele>1143.238</ele>
        <time>2020-09-02T10:07:30Z</time>
      </trkpt>
      <trkpt lat="44.07771" lon="5.63659">
        <ele>1142.636</ele>
        <time>2020-09-02T10:07:31Z</time>
      </trkpt>
      <trkpt lat="44.07767" lon="5.63654">
        <ele>1142.082</ele>
        <time>2020-09-02T10:07:32Z</time>
      </trkpt>
      <trkpt lat="44.07761" lon="5.63651">
        <ele>1141.355</ele>
        <time>2020-09-02T10:07:33Z</time>
      </trkpt>
      <trkpt lat="44.07755" lon="5.63648">
        <ele>1140.912</ele>
        <time>2020-09-02T10:07:34Z</time>
      </trkpt>
      <trkpt lat="44.07749" lon="5.63645">
        <ele>1140.732</ele>
        <time>2020-09-02T10:07:35Z</time>
      </trkpt>
      <trkpt lat="44.07743" lon="5.63641">
        <ele>1140.505</ele>
        <time>2020-09-02T10:07:36Z</time>
      </trkpt>
      <trkpt lat="44.07737" lon="5.63637">
        <ele>1140.008</ele>
        <time>2020-09-02T10:07:37Z</time>
      </trkpt>
      <trkpt lat="44.0773" lon="5.63633">
        <ele>1139.159</ele>
        <time>2020-09-02T10:07:38Z</time>
      </trkpt>
      <trkpt lat="44.07724" lon="5.63629">
        <ele>1138.468</ele>
        <time>2020-09-02T10:07:39Z</time>
      </trkpt>
      <trkpt lat="44.07719" lon="5.63627">
        <ele>1138.018</ele>
        <time>2020-09-02T10:07:40Z</time>
      </trkpt>
      <trkpt lat="44.07714" lon="5.63624">
        <ele>1137.545</ele>
        <time>2020-09-02T10:07:41Z</time>
      </trkpt>
      <trkpt lat="44.07708" lon="5.63622">
        <ele>1136.926</ele>
        <time>2020-09-02T10:07:42Z</time>
      </trkpt>
      <trkpt lat="44.07704" lon="5.6362">
        <ele>1136.864</ele>
        <time>2020-09-02T10:07:43Z</time>
      </trkpt>
      <trkpt lat="44.07699" lon="5.63615">
        <ele>1136.14</ele>
        <time>2020-09-02T10:07:45Z</time>
      </trkpt>
      <trkpt lat="44.07695" lon="5.63608">
        <ele>1133.563</ele>
        <time>2020-09-02T10:08:39Z</time>
      </trkpt>
      <trkpt lat="44.07697" lon="5.63602">
        <ele>1133.117</ele>
        <time>2020-09-02T10:08:42Z</time>
      </trkpt>
      <trkpt lat="44.07701" lon="5.63609">
        <ele>1133.887</ele>
        <time>2020-09-02T10:08:45Z</time>
      </trkpt>
      <trkpt lat="44.07702" lon="5.63615">
        <ele>1134.415</ele>
        <time>2020-09-02T10:08:47Z</time>
      </trkpt>
      <trkpt lat="44.07712" lon="5.63622">
        <ele>1135.008</ele>
        <time>2020-09-02T10:08:49Z</time>
      </trkpt>
      <trkpt lat="44.07719" lon="5.63625">
        <ele>1135.199</ele>
        <time>2020-09-02T10:08:50Z</time>
      </trkpt>
      <trkpt lat="44.07726" lon="5.63629">
        <ele>1135.288</ele>
        <time>2020-09-02T10:08:51Z</time>
      </trkpt>
      <trkpt lat="44.07733" lon="5.63632">
        <ele>1136.118</ele>
        <time>2020-09-02T10:08:52Z</time>
      </trkpt>
      <trkpt lat="44.0774" lon="5.63636">
        <ele>1136.335</ele>
        <time>2020-09-02T10:08:53Z</time>
      </trkpt>
      <trkpt lat="44.07747" lon="5.63641">
        <ele>1136.986</ele>
        <time>2020-09-02T10:08:54Z</time>
      </trkpt>
      <trkpt lat="44.07754" lon="5.63646">
        <ele>1137.744</ele>
        <time>2020-09-02T10:08:55Z</time>
      </trkpt>
      <trkpt lat="44.0776" lon="5.63652">
        <ele>1138.27</ele>
        <time>2020-09-02T10:08:56Z</time>
      </trkpt>
      <trkpt lat="44.07767" lon="5.63657">
        <ele>1138.133</ele>
        <time>2020-09-02T10:08:57Z</time>
      </trkpt>
      <trkpt lat="44.07773" lon="5.63664">
        <ele>1138.022</ele>
        <time>2020-09-02T10:08:58Z</time>
      </trkpt>
      <trkpt lat="44.0778" lon="5.63669">
        <ele>1137.562</ele>
        <time>2020-09-02T10:08:59Z</time>
      </trkpt>
      <trkpt lat="44.07786" lon="5.63679">
        <ele>1137.908</ele>
        <time>2020-09-02T10:09:00Z</time>
      </trkpt>
      <trkpt lat="44.07791" lon="5.63689">
        <ele>1137.708</ele>
        <time>2020-09-02T10:09:01Z</time>
      </trkpt>
      <trkpt lat="44.07797" lon="5.63701">
        <ele>1137.18</ele>
        <time>2020-09-02T10:09:02Z</time>
      </trkpt>
      <trkpt lat="44.078" lon="5.63712">
        <ele>1137.349</ele>
        <time>2020-09-02T10:09:03Z</time>
      </trkpt>
      <trkpt lat="44.07804" lon="5.63725">
        <ele>1137.379</ele>
        <time>2020-09-02T10:09:04Z</time>
      </trkpt>
      <trkpt lat="44.07808" lon="5.63737">
        <ele>1137.916</ele>
        <time>2020-09-02T10:09:05Z</time>
      </trkpt>
      <trkpt lat="44.07812" lon="5.6375">
        <ele>1138.897</ele>
        <time>2020-09-02T10:09:06Z</time>
      </trkpt>
      <trkpt lat="44.07816" lon="5.63765">
        <ele>1138.175</ele>
        <time>2020-09-02T10:09:07Z</time>
      </trkpt>
      <trkpt lat="44.0782" lon="5.63777">
        <ele>1138.841</ele>
        <time>2020-09-02T10:09:08Z</time>
      </trkpt>
      <trkpt lat="44.07825" lon="5.6379">
        <ele>1140.334</ele>
        <time>2020-09-02T10:09:09Z</time>
      </trkpt>
      <trkpt lat="44.07832" lon="5.638">
        <ele>1140.712</ele>
        <time>2020-09-02T10:09:10Z</time>
      </trkpt>
      <trkpt lat="44.07839" lon="5.6381">
        <ele>1140.832</ele>
        <time>2020-09-02T10:09:11Z</time>
      </trkpt>
      <trkpt lat="44.07845" lon="5.63821">
        <ele>1141.405</ele>
        <time>2020-09-02T10:09:12Z</time>
      </trkpt>
      <trkpt lat="44.07851" lon="5.63831">
        <ele>1142.008</ele>
        <time>2020-09-02T10:09:13Z</time>
      </trkpt>
      <trkpt lat="44.07857" lon="5.63843">
        <ele>1143.049</ele>
        <time>2020-09-02T10:09:14Z</time>
      </trkpt>
      <trkpt lat="44.07862" lon="5.63855">
        <ele>1143.448</ele>
        <time>2020-09-02T10:09:15Z</time>
      </trkpt>
      <trkpt lat="44.07869" lon="5.63867">
        <ele>1144.328</ele>
        <time>2020-09-02T10:09:16Z</time>
      </trkpt>
      <trkpt lat="44.07878" lon="5.63876">
        <ele>1144.735</ele>
        <time>2020-09-02T10:09:17Z</time>
      </trkpt>
      <trkpt lat="44.07887" lon="5.63885">
        <ele>1145.766</ele>
        <time>2020-09-02T10:09:18Z</time>
      </trkpt>
      <trkpt lat="44.07897" lon="5.63892">
        <ele>1146.544</ele>
        <time>2020-09-02T10:09:19Z</time>
      </trkpt>
      <trkpt lat="44.07906" lon="5.639">
        <ele>1147.54</ele>
        <time>2020-09-02T10:09:20Z</time>
      </trkpt>
      <trkpt lat="44.07916" lon="5.63906">
        <ele>1147.533</ele>
        <time>2020-09-02T10:09:21Z</time>
      </trkpt>
      <trkpt lat="44.07926" lon="5.63913">
        <ele>1148.526</ele>
        <time>2020-09-02T10:09:22Z</time>
      </trkpt>
      <trkpt lat="44.07937" lon="5.63917">
        <ele>1150.147</ele>
        <time>2020-09-02T10:09:23Z</time>
      </trkpt>
      <trkpt lat="44.07948" lon="5.63923">
        <ele>1150.611</ele>
        <time>2020-09-02T10:09:24Z</time>
      </trkpt>
      <trkpt lat="44.0796" lon="5.63929">
        <ele>1151.608</ele>
        <time>2020-09-02T10:09:25Z</time>
      </trkpt>
      <trkpt lat="44.07973" lon="5.63935">
        <ele>1152.25</ele>
        <time>2020-09-02T10:09:26Z</time>
      </trkpt>
      <trkpt lat="44.07984" lon="5.63941">
        <ele>1153.099</ele>
        <time>2020-09-02T10:09:27Z</time>
      </trkpt>
      <trkpt lat="44.07995" lon="5.63946">
        <ele>1153.569</ele>
        <time>2020-09-02T10:09:28Z</time>
      </trkpt>
      <trkpt lat="44.08006" lon="5.63951">
        <ele>1154.396</ele>
        <time>2020-09-02T10:09:29Z</time>
      </trkpt>
      <trkpt lat="44.08017" lon="5.63958">
        <ele>1154.457</ele>
        <time>2020-09-02T10:09:30Z</time>
      </trkpt>
      <trkpt lat="44.08026" lon="5.63965">
        <ele>1155.045</ele>
        <time>2020-09-02T10:09:31Z</time>
      </trkpt>
      <trkpt lat="44.08036" lon="5.63971">
        <ele>1155.361</ele>
        <time>2020-09-02T10:09:32Z</time>
      </trkpt>
      <trkpt lat="44.08048" lon="5.63977">
        <ele>1156.314</ele>
        <time>2020-09-02T10:09:33Z</time>
      </trkpt>
      <trkpt lat="44.08059" lon="5.63981">
        <ele>1156.539</ele>
        <time>2020-09-02T10:09:34Z</time>
      </trkpt>
      <trkpt lat="44.08071" lon="5.63986">
        <ele>1157.201</ele>
        <time>2020-09-02T10:09:35Z</time>
      </trkpt>
      <trkpt lat="44.08082" lon="5.63991">
        <ele>1158.421</ele>
        <time>2020-09-02T10:09:36Z</time>
      </trkpt>
      <trkpt lat="44.08092" lon="5.63994">
        <ele>1159.008</ele>
        <time>2020-09-02T10:09:37Z</time>
      </trkpt>
      <trkpt lat="44.08104" lon="5.63997">
        <ele>1159.461</ele>
        <time>2020-09-02T10:09:38Z</time>
      </trkpt>
      <trkpt lat="44.08115" lon="5.63998">
        <ele>1160.41</ele>
        <time>2020-09-02T10:09:39Z</time>
      </trkpt>
      <trkpt lat="44.08126" lon="5.64">
        <ele>1160.67</ele>
        <time>2020-09-02T10:09:40Z</time>
      </trkpt>
      <trkpt lat="44.08137" lon="5.64002">
        <ele>1161.237</ele>
        <time>2020-09-02T10:09:41Z</time>
      </trkpt>
      <trkpt lat="44.08148" lon="5.64006">
        <ele>1161.888</ele>
        <time>2020-09-02T10:09:42Z</time>
      </trkpt>
      <trkpt lat="44.0816" lon="5.64011">
        <ele>1162.336</ele>
        <time>2020-09-02T10:09:43Z</time>
      </trkpt>
      <trkpt lat="44.08169" lon="5.64017">
        <ele>1162.712</ele>
        <time>2020-09-02T10:09:44Z</time>
      </trkpt>
      <trkpt lat="44.0818" lon="5.64021">
        <ele>1163.845</ele>
        <time>2020-09-02T10:09:45Z</time>
      </trkpt>
      <trkpt lat="44.08192" lon="5.64023">
        <ele>1164.967</ele>
        <time>2020-09-02T10:09:46Z</time>
      </trkpt>
      <trkpt lat="44.08204" lon="5.64027">
        <ele>1165.681</ele>
        <time>2020-09-02T10:09:47Z</time>
      </trkpt>
      <trkpt lat="44.08215" lon="5.64031">
        <ele>1166.519</ele>
        <time>2020-09-02T10:09:48Z</time>
      </trkpt>
      <trkpt lat="44.08227" lon="5.64033">
        <ele>1167.508</ele>
        <time>2020-09-02T10:09:49Z</time>
      </trkpt>
      <trkpt lat="44.08238" lon="5.64036">
        <ele>1168.154</ele>
        <time>2020-09-02T10:09:50Z</time>
      </trkpt>
      <trkpt lat="44.08249" lon="5.64039">
        <ele>1169.293</ele>
        <time>2020-09-02T10:09:51Z</time>
      </trkpt>
      <trkpt lat="44.0826" lon="5.64041">
        <ele>1170.263</ele>
        <time>2020-09-02T10:09:52Z</time>
      </trkpt>
      <trkpt lat="44.08271" lon="5.6404">
        <ele>1170.74</ele>
        <time>2020-09-02T10:09:53Z</time>
      </trkpt>
      <trkpt lat="44.08282" lon="5.64038">
        <ele>1171.091</ele>
        <time>2020-09-02T10:09:54Z</time>
      </trkpt>
      <trkpt lat="44.08293" lon="5.64035">
        <ele>1170.859</ele>
        <time>2020-09-02T10:09:55Z</time>
      </trkpt>
      <trkpt lat="44.08302" lon="5.64031">
        <ele>1171.295</ele>
        <time>2020-09-02T10:09:56Z</time>
      </trkpt>
      <trkpt lat="44.08311" lon="5.64032">
        <ele>1173.168</ele>
        <time>2020-09-02T10:09:57Z</time>
      </trkpt>
      <trkpt lat="44.08321" lon="5.64033">
        <ele>1173.987</ele>
        <time>2020-09-02T10:09:58Z</time>
      </trkpt>
      <trkpt lat="44.08331" lon="5.6404">
        <ele>1175.042</ele>
        <time>2020-09-02T10:09:59Z</time>
      </trkpt>
      <trkpt lat="44.08342" lon="5.64044">
        <ele>1176.226</ele>
        <time>2020-09-02T10:10:00Z</time>
      </trkpt>
      <trkpt lat="44.08352" lon="5.64045">
        <ele>1177.308</ele>
        <time>2020-09-02T10:10:01Z</time>
      </trkpt>
      <trkpt lat="44.08364" lon="5.64045">
        <ele>1177.966</ele>
        <time>2020-09-02T10:10:02Z</time>
      </trkpt>
      <trkpt lat="44.08375" lon="5.64042">
        <ele>1177.955</ele>
        <time>2020-09-02T10:10:03Z</time>
      </trkpt>
      <trkpt lat="44.08386" lon="5.6404">
        <ele>1178.925</ele>
        <time>2020-09-02T10:10:04Z</time>
      </trkpt>
      <trkpt lat="44.08398" lon="5.64041">
        <ele>1179.312</ele>
        <time>2020-09-02T10:10:05Z</time>
      </trkpt>
      <trkpt lat="44.08409" lon="5.64045">
        <ele>1180.343</ele>
        <time>2020-09-02T10:10:06Z</time>
      </trkpt>
      <trkpt lat="44.08421" lon="5.64047">
        <ele>1180.811</ele>
        <time>2020-09-02T10:10:07Z</time>
      </trkpt>
      <trkpt lat="44.08434" lon="5.64053">
        <ele>1181.257</ele>
        <time>2020-09-02T10:10:08Z</time>
      </trkpt>
      <trkpt lat="44.08445" lon="5.64056">
        <ele>1182.16</ele>
        <time>2020-09-02T10:10:09Z</time>
      </trkpt>
      <trkpt lat="44.08456" lon="5.64058">
        <ele>1182.762</ele>
        <time>2020-09-02T10:10:10Z</time>
      </trkpt>
      <trkpt lat="44.08467" lon="5.6406">
        <ele>1183.383</ele>
        <time>2020-09-02T10:10:11Z</time>
      </trkpt>
      <trkpt lat="44.08479" lon="5.64062">
        <ele>1182.811</ele>
        <time>2020-09-02T10:10:12Z</time>
      </trkpt>
      <trkpt lat="44.08491" lon="5.64064">
        <ele>1182.308</ele>
        <time>2020-09-02T10:10:13Z</time>
      </trkpt>
      <trkpt lat="44.08504" lon="5.64064">
        <ele>1182.414</ele>
        <time>2020-09-02T10:10:14Z</time>
      </trkpt>
      <trkpt lat="44.08516" lon="5.64065">
        <ele>1182.493</ele>
        <time>2020-09-02T10:10:15Z</time>
      </trkpt>
      <trkpt lat="44.08528" lon="5.64063">
        <ele>1182.793</ele>
        <time>2020-09-02T10:10:16Z</time>
      </trkpt>
      <trkpt lat="44.08537" lon="5.64065">
        <ele>1182.96</ele>
        <time>2020-09-02T10:10:17Z</time>
      </trkpt>
      <trkpt lat="44.08546" lon="5.64069">
        <ele>1183.261</ele>
        <time>2020-09-02T10:10:18Z</time>
      </trkpt>
      <trkpt lat="44.08557" lon="5.64073">
        <ele>1183.699</ele>
        <time>2020-09-02T10:10:19Z</time>
      </trkpt>
      <trkpt lat="44.0857" lon="5.64075">
        <ele>1184.155</ele>
        <time>2020-09-02T10:10:20Z</time>
      </trkpt>
      <trkpt lat="44.08582" lon="5.64077">
        <ele>1184.598</ele>
        <time>2020-09-02T10:10:21Z</time>
      </trkpt>
      <trkpt lat="44.08593" lon="5.64078">
        <ele>1184.368</ele>
        <time>2020-09-02T10:10:22Z</time>
      </trkpt>
      <trkpt lat="44.08604" lon="5.6408">
        <ele>1183.942</ele>
        <time>2020-09-02T10:10:23Z</time>
      </trkpt>
      <trkpt lat="44.08613" lon="5.64081">
        <ele>1183.226</ele>
        <time>2020-09-02T10:10:24Z</time>
      </trkpt>
      <trkpt lat="44.08621" lon="5.64081">
        <ele>1183.608</ele>
        <time>2020-09-02T10:10:25Z</time>
      </trkpt>
      <trkpt lat="44.0863" lon="5.64084">
        <ele>1183.414</ele>
        <time>2020-09-02T10:10:26Z</time>
      </trkpt>
      <trkpt lat="44.0864" lon="5.64086">
        <ele>1183.323</ele>
        <time>2020-09-02T10:10:27Z</time>
      </trkpt>
      <trkpt lat="44.08651" lon="5.64092">
        <ele>1182.883</ele>
        <time>2020-09-02T10:10:28Z</time>
      </trkpt>
      <trkpt lat="44.08662" lon="5.64096">
        <ele>1182.12</ele>
        <time>2020-09-02T10:10:29Z</time>
      </trkpt>
      <trkpt lat="44.08674" lon="5.641">
        <ele>1182.021</ele>
        <time>2020-09-02T10:10:30Z</time>
      </trkpt>
      <trkpt lat="44.08684" lon="5.64104">
        <ele>1181.999</ele>
        <time>2020-09-02T10:10:31Z</time>
      </trkpt>
      <trkpt lat="44.08694" lon="5.64108">
        <ele>1182.465</ele>
        <time>2020-09-02T10:10:32Z</time>
      </trkpt>
      <trkpt lat="44.08705" lon="5.64115">
        <ele>1182.058</ele>
        <time>2020-09-02T10:10:33Z</time>
      </trkpt>
      <trkpt lat="44.08715" lon="5.64122">
        <ele>1182.395</ele>
        <time>2020-09-02T10:10:34Z</time>
      </trkpt>
      <trkpt lat="44.08725" lon="5.64129">
        <ele>1182.249</ele>
        <time>2020-09-02T10:10:35Z</time>
      </trkpt>
      <trkpt lat="44.08731" lon="5.64133">
        <ele>1182.723</ele>
        <time>2020-09-02T10:10:36Z</time>
      </trkpt>
      <trkpt lat="44.08735" lon="5.64137">
        <ele>1182.608</ele>
        <time>2020-09-02T10:10:38Z</time>
      </trkpt>
      <trkpt lat="44.08738" lon="5.64143">
        <ele>1182.227</ele>
        <time>2020-09-02T10:10:46Z</time>
      </trkpt>
      <trkpt lat="44.08744" lon="5.64141">
        <ele>1183.946</ele>
        <time>2020-09-02T10:10:52Z</time>
      </trkpt>
      <trkpt lat="44.0875" lon="5.64141">
        <ele>1184.426</ele>
        <time>2020-09-02T10:10:54Z</time>
      </trkpt>
      <trkpt lat="44.08755" lon="5.64143">
        <ele>1184.393</ele>
        <time>2020-09-02T10:10:56Z</time>
      </trkpt>
      <trkpt lat="44.0876" lon="5.64145">
        <ele>1185.064</ele>
        <time>2020-09-02T10:16:08Z</time>
      </trkpt>
      <trkpt lat="44.08766" lon="5.64148">
        <ele>1185.472</ele>
        <time>2020-09-02T10:16:09Z</time>
      </trkpt>
      <trkpt lat="44.08772" lon="5.64152">
        <ele>1185.788</ele>
        <time>2020-09-02T10:16:10Z</time>
      </trkpt>
      <trkpt lat="44.0878" lon="5.64157">
        <ele>1185.951</ele>
        <time>2020-09-02T10:16:11Z</time>
      </trkpt>
      <trkpt lat="44.08787" lon="5.64164">
        <ele>1186.018</ele>
        <time>2020-09-02T10:16:12Z</time>
      </trkpt>
      <trkpt lat="44.08796" lon="5.64175">
        <ele>1186.098</ele>
        <time>2020-09-02T10:16:13Z</time>
      </trkpt>
      <trkpt lat="44.08803" lon="5.64182">
        <ele>1186.417</ele>
        <time>2020-09-02T10:16:14Z</time>
      </trkpt>
      <trkpt lat="44.0881" lon="5.64189">
        <ele>1186.508</ele>
        <time>2020-09-02T10:16:15Z</time>
      </trkpt>
      <trkpt lat="44.08818" lon="5.64199">
        <ele>1186.359</ele>
        <time>2020-09-02T10:16:16Z</time>
      </trkpt>
      <trkpt lat="44.08827" lon="5.64206">
        <ele>1186.358</ele>
        <time>2020-09-02T10:16:17Z</time>
      </trkpt>
      <trkpt lat="44.08835" lon="5.64212">
        <ele>1186.388</ele>
        <time>2020-09-02T10:16:18Z</time>
      </trkpt>
      <trkpt lat="44.08842" lon="5.64217">
        <ele>1186.755</ele>
        <time>2020-09-02T10:16:19Z</time>
      </trkpt>
      <trkpt lat="44.08851" lon="5.6422">
        <ele>1186.786</ele>
        <time>2020-09-02T10:16:20Z</time>
      </trkpt>
      <trkpt lat="44.08861" lon="5.64223">
        <ele>1186.924</ele>
        <time>2020-09-02T10:16:21Z</time>
      </trkpt>
      <trkpt lat="44.08871" lon="5.64227">
        <ele>1186.92</ele>
        <time>2020-09-02T10:16:22Z</time>
      </trkpt>
      <trkpt lat="44.0888" lon="5.64229">
        <ele>1186.763</ele>
        <time>2020-09-02T10:16:23Z</time>
      </trkpt>
      <trkpt lat="44.0889" lon="5.6423">
        <ele>1186.744</ele>
        <time>2020-09-02T10:16:24Z</time>
      </trkpt>
      <trkpt lat="44.089" lon="5.64232">
        <ele>1186.905</ele>
        <time>2020-09-02T10:16:25Z</time>
      </trkpt>
      <trkpt lat="44.0891" lon="5.64234">
        <ele>1186.915</ele>
        <time>2020-09-02T10:16:26Z</time>
      </trkpt>
      <trkpt lat="44.08921" lon="5.64237">
        <ele>1187.008</ele>
        <time>2020-09-02T10:16:27Z</time>
      </trkpt>
      <trkpt lat="44.08931" lon="5.6424">
        <ele>1186.772</ele>
        <time>2020-09-02T10:16:28Z</time>
      </trkpt>
      <trkpt lat="44.08942" lon="5.64243">
        <ele>1186.751</ele>
        <time>2020-09-02T10:16:29Z</time>
      </trkpt>
      <trkpt lat="44.08952" lon="5.64247">
        <ele>1186.311</ele>
        <time>2020-09-02T10:16:30Z</time>
      </trkpt>
      <trkpt lat="44.08963" lon="5.64252">
        <ele>1186.458</ele>
        <time>2020-09-02T10:16:31Z</time>
      </trkpt>
      <trkpt lat="44.08974" lon="5.64257">
        <ele>1185.619</ele>
        <time>2020-09-02T10:16:32Z</time>
      </trkpt>
      <trkpt lat="44.08985" lon="5.64261">
        <ele>1185.637</ele>
        <time>2020-09-02T10:16:33Z</time>
      </trkpt>
      <trkpt lat="44.08996" lon="5.64265">
        <ele>1185.313</ele>
        <time>2020-09-02T10:16:34Z</time>
      </trkpt>
      <trkpt lat="44.09006" lon="5.64269">
        <ele>1184.326</ele>
        <time>2020-09-02T10:16:35Z</time>
      </trkpt>
      <trkpt lat="44.09016" lon="5.64273">
        <ele>1183.274</ele>
        <time>2020-09-02T10:16:36Z</time>
      </trkpt>
      <trkpt lat="44.09026" lon="5.64277">
        <ele>1181.856</ele>
        <time>2020-09-02T10:16:37Z</time>
      </trkpt>
      <trkpt lat="44.09035" lon="5.64279">
        <ele>1182.121</ele>
        <time>2020-09-02T10:16:38Z</time>
      </trkpt>
      <trkpt lat="44.09044" lon="5.64283">
        <ele>1180.808</ele>
        <time>2020-09-02T10:16:39Z</time>
      </trkpt>
      <trkpt lat="44.09054" lon="5.64287">
        <ele>1179.335</ele>
        <time>2020-09-02T10:16:40Z</time>
      </trkpt>
      <trkpt lat="44.09065" lon="5.64292">
        <ele>1178.664</ele>
        <time>2020-09-02T10:16:41Z</time>
      </trkpt>
      <trkpt lat="44.09076" lon="5.64297">
        <ele>1177.874</ele>
        <time>2020-09-02T10:16:42Z</time>
      </trkpt>
      <trkpt lat="44.09085" lon="5.64304">
        <ele>1176.231</ele>
        <time>2020-09-02T10:16:43Z</time>
      </trkpt>
      <trkpt lat="44.09096" lon="5.64312">
        <ele>1174.722</ele>
        <time>2020-09-02T10:16:44Z</time>
      </trkpt>
      <trkpt lat="44.09105" lon="5.6432">
        <ele>1174.12</ele>
        <time>2020-09-02T10:16:45Z</time>
      </trkpt>
      <trkpt lat="44.09114" lon="5.6433">
        <ele>1173.866</ele>
        <time>2020-09-02T10:16:46Z</time>
      </trkpt>
      <trkpt lat="44.09121" lon="5.64339">
        <ele>1174.169</ele>
        <time>2020-09-02T10:16:47Z</time>
      </trkpt>
      <trkpt lat="44.09131" lon="5.64346">
        <ele>1174.044</ele>
        <time>2020-09-02T10:16:48Z</time>
      </trkpt>
      <trkpt lat="44.0914" lon="5.64344">
        <ele>1173.805</ele>
        <time>2020-09-02T10:16:49Z</time>
      </trkpt>
      <trkpt lat="44.09147" lon="5.64341">
        <ele>1173.115</ele>
        <time>2020-09-02T10:16:50Z</time>
      </trkpt>
      <trkpt lat="44.09156" lon="5.64337">
        <ele>1172.908</ele>
        <time>2020-09-02T10:16:51Z</time>
      </trkpt>
      <trkpt lat="44.09165" lon="5.64332">
        <ele>1172.042</ele>
        <time>2020-09-02T10:16:52Z</time>
      </trkpt>
      <trkpt lat="44.09172" lon="5.64327">
        <ele>1171.761</ele>
        <time>2020-09-02T10:16:53Z</time>
      </trkpt>
      <trkpt lat="44.09181" lon="5.64324">
        <ele>1171.211</ele>
        <time>2020-09-02T10:16:54Z</time>
      </trkpt>
      <trkpt lat="44.09191" lon="5.64322">
        <ele>1170.598</ele>
        <time>2020-09-02T10:16:55Z</time>
      </trkpt>
      <trkpt lat="44.09201" lon="5.64322">
        <ele>1170.029</ele>
        <time>2020-09-02T10:16:56Z</time>
      </trkpt>
      <trkpt lat="44.0921" lon="5.64325">
        <ele>1168.667</ele>
        <time>2020-09-02T10:16:57Z</time>
      </trkpt>
      <trkpt lat="44.0922" lon="5.64325">
        <ele>1168.613</ele>
        <time>2020-09-02T10:16:58Z</time>
      </trkpt>
      <trkpt lat="44.09227" lon="5.64326">
        <ele>1168.136</ele>
        <time>2020-09-02T10:16:59Z</time>
      </trkpt>
      <trkpt lat="44.09238" lon="5.64331">
        <ele>1168.025</ele>
        <time>2020-09-02T10:17:00Z</time>
      </trkpt>
      <trkpt lat="44.09247" lon="5.64338">
        <ele>1167.226</ele>
        <time>2020-09-02T10:17:01Z</time>
      </trkpt>
      <trkpt lat="44.09258" lon="5.64345">
        <ele>1167.208</ele>
        <time>2020-09-02T10:17:02Z</time>
      </trkpt>
      <trkpt lat="44.09267" lon="5.64355">
        <ele>1166.808</ele>
        <time>2020-09-02T10:17:03Z</time>
      </trkpt>
      <trkpt lat="44.09277" lon="5.64362">
        <ele>1166.73</ele>
        <time>2020-09-02T10:17:04Z</time>
      </trkpt>
      <trkpt lat="44.09286" lon="5.64362">
        <ele>1166.879</ele>
        <time>2020-09-02T10:17:05Z</time>
      </trkpt>
      <trkpt lat="44.09295" lon="5.64367">
        <ele>1166.539</ele>
        <time>2020-09-02T10:17:06Z</time>
      </trkpt>
      <trkpt lat="44.09303" lon="5.6437">
        <ele>1165.956</ele>
        <time>2020-09-02T10:17:07Z</time>
      </trkpt>
      <trkpt lat="44.09312" lon="5.64374">
        <ele>1165.637</ele>
        <time>2020-09-02T10:17:08Z</time>
      </trkpt>
      <trkpt lat="44.09323" lon="5.64376">
        <ele>1165.255</ele>
        <time>2020-09-02T10:17:09Z</time>
      </trkpt>
      <trkpt lat="44.09335" lon="5.64377">
        <ele>1164.451</ele>
        <time>2020-09-02T10:17:10Z</time>
      </trkpt>
      <trkpt lat="44.09346" lon="5.6438">
        <ele>1164.074</ele>
        <time>2020-09-02T10:17:11Z</time>
      </trkpt>
      <trkpt lat="44.09359" lon="5.64382">
        <ele>1164.315</ele>
        <time>2020-09-02T10:17:12Z</time>
      </trkpt>
      <trkpt lat="44.09372" lon="5.64385">
        <ele>1164.865</ele>
        <time>2020-09-02T10:17:13Z</time>
      </trkpt>
      <trkpt lat="44.09384" lon="5.64388">
        <ele>1165.211</ele>
        <time>2020-09-02T10:17:14Z</time>
      </trkpt>
      <trkpt lat="44.09396" lon="5.64393">
        <ele>1165.408</ele>
        <time>2020-09-02T10:17:15Z</time>
      </trkpt>
      <trkpt lat="44.09407" lon="5.64395">
        <ele>1165.819</ele>
        <time>2020-09-02T10:17:16Z</time>
      </trkpt>
      <trkpt lat="44.09417" lon="5.64397">
        <ele>1166.538</ele>
        <time>2020-09-02T10:17:17Z</time>
      </trkpt>
      <trkpt lat="44.09426" lon="5.64398">
        <ele>1167.548</ele>
        <time>2020-09-02T10:17:18Z</time>
      </trkpt>
      <trkpt lat="44.09432" lon="5.644">
        <ele>1167.745</ele>
        <time>2020-09-02T10:17:19Z</time>
      </trkpt>
      <trkpt lat="44.0944" lon="5.64401">
        <ele>1168.616</ele>
        <time>2020-09-02T10:17:20Z</time>
      </trkpt>
      <trkpt lat="44.09448" lon="5.64404">
        <ele>1169.314</ele>
        <time>2020-09-02T10:17:21Z</time>
      </trkpt>
      <trkpt lat="44.09456" lon="5.64408">
        <ele>1169.84</ele>
        <time>2020-09-02T10:17:22Z</time>
      </trkpt>
      <trkpt lat="44.09465" lon="5.64414">
        <ele>1170.793</ele>
        <time>2020-09-02T10:17:23Z</time>
      </trkpt>
      <trkpt lat="44.09473" lon="5.6442">
        <ele>1171.275</ele>
        <time>2020-09-02T10:17:24Z</time>
      </trkpt>
      <trkpt lat="44.09481" lon="5.64428">
        <ele>1171.728</ele>
        <time>2020-09-02T10:17:25Z</time>
      </trkpt>
      <trkpt lat="44.0949" lon="5.64436">
        <ele>1172.82</ele>
        <time>2020-09-02T10:17:26Z</time>
      </trkpt>
      <trkpt lat="44.09498" lon="5.64444">
        <ele>1173.208</ele>
        <time>2020-09-02T10:17:27Z</time>
      </trkpt>
      <trkpt lat="44.09509" lon="5.6445">
        <ele>1173.695</ele>
        <time>2020-09-02T10:17:28Z</time>
      </trkpt>
      <trkpt lat="44.0952" lon="5.64456">
        <ele>1173.914</ele>
        <time>2020-09-02T10:17:29Z</time>
      </trkpt>
      <trkpt lat="44.09531" lon="5.64461">
        <ele>1174.574</ele>
        <time>2020-09-02T10:17:30Z</time>
      </trkpt>
      <trkpt lat="44.09542" lon="5.64465">
        <ele>1174.131</ele>
        <time>2020-09-02T10:17:31Z</time>
      </trkpt>
      <trkpt lat="44.09552" lon="5.64471">
        <ele>1174.022</ele>
        <time>2020-09-02T10:17:32Z</time>
      </trkpt>
      <trkpt lat="44.09561" lon="5.64479">
        <ele>1174.08</ele>
        <time>2020-09-02T10:17:33Z</time>
      </trkpt>
      <trkpt lat="44.09569" lon="5.6449">
        <ele>1173.236</ele>
        <time>2020-09-02T10:17:34Z</time>
      </trkpt>
      <trkpt lat="44.09577" lon="5.64501">
        <ele>1173.739</ele>
        <time>2020-09-02T10:17:35Z</time>
      </trkpt>
      <trkpt lat="44.09585" lon="5.6451">
        <ele>1174.156</ele>
        <time>2020-09-02T10:17:36Z</time>
      </trkpt>
      <trkpt lat="44.09592" lon="5.64517">
        <ele>1175.159</ele>
        <time>2020-09-02T10:17:37Z</time>
      </trkpt>
      <trkpt lat="44.09601" lon="5.64523">
        <ele>1175.114</ele>
        <time>2020-09-02T10:17:38Z</time>
      </trkpt>
      <trkpt lat="44.09609" lon="5.64529">
        <ele>1173.808</ele>
        <time>2020-09-02T10:17:39Z</time>
      </trkpt>
      <trkpt lat="44.09618" lon="5.64536">
        <ele>1172.253</ele>
        <time>2020-09-02T10:17:40Z</time>
      </trkpt>
      <trkpt lat="44.09626" lon="5.6454">
        <ele>1171.042</ele>
        <time>2020-09-02T10:17:41Z</time>
      </trkpt>
      <trkpt lat="44.09635" lon="5.64545">
        <ele>1170.462</ele>
        <time>2020-09-02T10:17:42Z</time>
      </trkpt>
      <trkpt lat="44.09643" lon="5.64551">
        <ele>1169.959</ele>
        <time>2020-09-02T10:17:43Z</time>
      </trkpt>
      <trkpt lat="44.09651" lon="5.64556">
        <ele>1169.27</ele>
        <time>2020-09-02T10:17:44Z</time>
      </trkpt>
      <trkpt lat="44.09657" lon="5.64563">
        <ele>1169.128</ele>
        <time>2020-09-02T10:17:45Z</time>
      </trkpt>
      <trkpt lat="44.09665" lon="5.64569">
        <ele>1168.994</ele>
        <time>2020-09-02T10:17:46Z</time>
      </trkpt>
      <trkpt lat="44.09673" lon="5.64576">
        <ele>1169.067</ele>
        <time>2020-09-02T10:17:47Z</time>
      </trkpt>
      <trkpt lat="44.09681" lon="5.64581">
        <ele>1169.271</ele>
        <time>2020-09-02T10:17:48Z</time>
      </trkpt>
      <trkpt lat="44.09689" lon="5.64584">
        <ele>1168.841</ele>
        <time>2020-09-02T10:17:49Z</time>
      </trkpt>
      <trkpt lat="44.09695" lon="5.64584">
        <ele>1168.715</ele>
        <time>2020-09-02T10:17:50Z</time>
      </trkpt>
      <trkpt lat="44.09701" lon="5.64581">
        <ele>1168.708</ele>
        <time>2020-09-02T10:17:51Z</time>
      </trkpt>
      <trkpt lat="44.09707" lon="5.64578">
        <ele>1168.845</ele>
        <time>2020-09-02T10:17:52Z</time>
      </trkpt>
      <trkpt lat="44.09714" lon="5.64574">
        <ele>1169.444</ele>
        <time>2020-09-02T10:17:53Z</time>
      </trkpt>
      <trkpt lat="44.09722" lon="5.64573">
        <ele>1169.914</ele>
        <time>2020-09-02T10:17:54Z</time>
      </trkpt>
      <trkpt lat="44.09729" lon="5.64574">
        <ele>1169.931</ele>
        <time>2020-09-02T10:17:55Z</time>
      </trkpt>
      <trkpt lat="44.09738" lon="5.64577">
        <ele>1168.812</ele>
        <time>2020-09-02T10:17:56Z</time>
      </trkpt>
      <trkpt lat="44.09745" lon="5.64576">
        <ele>1169.85</ele>
        <time>2020-09-02T10:17:57Z</time>
      </trkpt>
      <trkpt lat="44.09752" lon="5.64574">
        <ele>1170.576</ele>
        <time>2020-09-02T10:17:58Z</time>
      </trkpt>
      <trkpt lat="44.0976" lon="5.64572">
        <ele>1170.529</ele>
        <time>2020-09-02T10:17:59Z</time>
      </trkpt>
      <trkpt lat="44.09767" lon="5.64569">
        <ele>1171.045</ele>
        <time>2020-09-02T10:18:00Z</time>
      </trkpt>
      <trkpt lat="44.09774" lon="5.64567">
        <ele>1172.247</ele>
        <time>2020-09-02T10:18:01Z</time>
      </trkpt>
      <trkpt lat="44.09781" lon="5.64562">
        <ele>1172.811</ele>
        <time>2020-09-02T10:18:02Z</time>
      </trkpt>
      <trkpt lat="44.09787" lon="5.64558">
        <ele>1173.108</ele>
        <time>2020-09-02T10:18:03Z</time>
      </trkpt>
      <trkpt lat="44.09793" lon="5.64554">
        <ele>1174.162</ele>
        <time>2020-09-02T10:18:04Z</time>
      </trkpt>
      <trkpt lat="44.09799" lon="5.6455">
        <ele>1174.761</ele>
        <time>2020-09-02T10:18:05Z</time>
      </trkpt>
      <trkpt lat="44.09806" lon="5.64548">
        <ele>1175.131</ele>
        <time>2020-09-02T10:18:06Z</time>
      </trkpt>
      <trkpt lat="44.09813" lon="5.64544">
        <ele>1176.028</ele>
        <time>2020-09-02T10:18:07Z</time>
      </trkpt>
      <trkpt lat="44.0982" lon="5.64541">
        <ele>1177.069</ele>
        <time>2020-09-02T10:18:08Z</time>
      </trkpt>
      <trkpt lat="44.09828" lon="5.64537">
        <ele>1177.717</ele>
        <time>2020-09-02T10:18:09Z</time>
      </trkpt>
      <trkpt lat="44.09836" lon="5.64533">
        <ele>1178.753</ele>
        <time>2020-09-02T10:18:10Z</time>
      </trkpt>
      <trkpt lat="44.09844" lon="5.64529">
        <ele>1179.756</ele>
        <time>2020-09-02T10:18:11Z</time>
      </trkpt>
      <trkpt lat="44.09851" lon="5.64525">
        <ele>1180.855</ele>
        <time>2020-09-02T10:18:12Z</time>
      </trkpt>
      <trkpt lat="44.09859" lon="5.64521">
        <ele>1182.007</ele>
        <time>2020-09-02T10:18:13Z</time>
      </trkpt>
      <trkpt lat="44.09868" lon="5.64518">
        <ele>1183.517</ele>
        <time>2020-09-02T10:18:14Z</time>
      </trkpt>
      <trkpt lat="44.09877" lon="5.64514">
        <ele>1184.508</ele>
        <time>2020-09-02T10:18:15Z</time>
      </trkpt>
      <trkpt lat="44.09885" lon="5.64509">
        <ele>1186.373</ele>
        <time>2020-09-02T10:18:16Z</time>
      </trkpt>
      <trkpt lat="44.09893" lon="5.64504">
        <ele>1187.092</ele>
        <time>2020-09-02T10:18:17Z</time>
      </trkpt>
      <trkpt lat="44.099" lon="5.64498">
        <ele>1187.922</ele>
        <time>2020-09-02T10:18:18Z</time>
      </trkpt>
      <trkpt lat="44.09906" lon="5.64489">
        <ele>1189.119</ele>
        <time>2020-09-02T10:18:19Z</time>
      </trkpt>
      <trkpt lat="44.09911" lon="5.6448">
        <ele>1190.67</ele>
        <time>2020-09-02T10:18:20Z</time>
      </trkpt>
      <trkpt lat="44.09915" lon="5.64472">
        <ele>1191.188</ele>
        <time>2020-09-02T10:18:21Z</time>
      </trkpt>
      <trkpt lat="44.09921" lon="5.64466">
        <ele>1192.184</ele>
        <time>2020-09-02T10:18:22Z</time>
      </trkpt>
      <trkpt lat="44.09929" lon="5.64461">
        <ele>1192.767</ele>
        <time>2020-09-02T10:18:23Z</time>
      </trkpt>
      <trkpt lat="44.09937" lon="5.64456">
        <ele>1193.894</ele>
        <time>2020-09-02T10:18:24Z</time>
      </trkpt>
      <trkpt lat="44.09946" lon="5.64454">
        <ele>1195.057</ele>
        <time>2020-09-02T10:18:25Z</time>
      </trkpt>
      <trkpt lat="44.09955" lon="5.64452">
        <ele>1195.422</ele>
        <time>2020-09-02T10:18:26Z</time>
      </trkpt>
      <trkpt lat="44.09965" lon="5.64449">
        <ele>1196.608</ele>
        <time>2020-09-02T10:18:27Z</time>
      </trkpt>
      <trkpt lat="44.09975" lon="5.64448">
        <ele>1197.887</ele>
        <time>2020-09-02T10:18:28Z</time>
      </trkpt>
      <trkpt lat="44.09986" lon="5.64446">
        <ele>1198.646</ele>
        <time>2020-09-02T10:18:29Z</time>
      </trkpt>
      <trkpt lat="44.09996" lon="5.64445">
        <ele>1199.566</ele>
        <time>2020-09-02T10:18:30Z</time>
      </trkpt>
      <trkpt lat="44.10006" lon="5.64442">
        <ele>1200.333</ele>
        <time>2020-09-02T10:18:31Z</time>
      </trkpt>
      <trkpt lat="44.10016" lon="5.64437">
        <ele>1201.044</ele>
        <time>2020-09-02T10:18:32Z</time>
      </trkpt>
      <trkpt lat="44.10027" lon="5.64431">
        <ele>1201.732</ele>
        <time>2020-09-02T10:18:33Z</time>
      </trkpt>
      <trkpt lat="44.10038" lon="5.64424">
        <ele>1202.518</ele>
        <time>2020-09-02T10:18:34Z</time>
      </trkpt>
      <trkpt lat="44.10049" lon="5.64418">
        <ele>1202.961</ele>
        <time>2020-09-02T10:18:35Z</time>
      </trkpt>
      <trkpt lat="44.10061" lon="5.64413">
        <ele>1203.636</ele>
        <time>2020-09-02T10:18:36Z</time>
      </trkpt>
      <trkpt lat="44.10071" lon="5.64408">
        <ele>1203.717</ele>
        <time>2020-09-02T10:18:37Z</time>
      </trkpt>
      <trkpt lat="44.10082" lon="5.64405">
        <ele>1203.818</ele>
        <time>2020-09-02T10:18:38Z</time>
      </trkpt>
      <trkpt lat="44.10091" lon="5.64401">
        <ele>1203.308</ele>
        <time>2020-09-02T10:18:39Z</time>
      </trkpt>
      <trkpt lat="44.10101" lon="5.64396">
        <ele>1202.691</ele>
        <time>2020-09-02T10:18:40Z</time>
      </trkpt>
      <trkpt lat="44.10109" lon="5.6439">
        <ele>1202.32</ele>
        <time>2020-09-02T10:18:41Z</time>
      </trkpt>
      <trkpt lat="44.10117" lon="5.64382">
        <ele>1202.09</ele>
        <time>2020-09-02T10:18:42Z</time>
      </trkpt>
      <trkpt lat="44.10126" lon="5.64373">
        <ele>1201.597</ele>
        <time>2020-09-02T10:18:43Z</time>
      </trkpt>
      <trkpt lat="44.10134" lon="5.64365">
        <ele>1201.278</ele>
        <time>2020-09-02T10:18:44Z</time>
      </trkpt>
      <trkpt lat="44.10141" lon="5.64355">
        <ele>1200.376</ele>
        <time>2020-09-02T10:18:45Z</time>
      </trkpt>
      <trkpt lat="44.10148" lon="5.64344">
        <ele>1200.172</ele>
        <time>2020-09-02T10:18:46Z</time>
      </trkpt>
      <trkpt lat="44.10157" lon="5.64331">
        <ele>1199.455</ele>
        <time>2020-09-02T10:18:47Z</time>
      </trkpt>
      <trkpt lat="44.10165" lon="5.64319">
        <ele>1198.871</ele>
        <time>2020-09-02T10:18:48Z</time>
      </trkpt>
      <trkpt lat="44.10174" lon="5.64306">
        <ele>1198.541</ele>
        <time>2020-09-02T10:18:49Z</time>
      </trkpt>
      <trkpt lat="44.10182" lon="5.64293">
        <ele>1197.515</ele>
        <time>2020-09-02T10:18:50Z</time>
      </trkpt>
      <trkpt lat="44.1019" lon="5.64281">
        <ele>1196.908</ele>
        <time>2020-09-02T10:18:51Z</time>
      </trkpt>
      <trkpt lat="44.10198" lon="5.64269">
        <ele>1196.225</ele>
        <time>2020-09-02T10:18:52Z</time>
      </trkpt>
      <trkpt lat="44.10207" lon="5.64258">
        <ele>1195.244</ele>
        <time>2020-09-02T10:18:53Z</time>
      </trkpt>
      <trkpt lat="44.10217" lon="5.64249">
        <ele>1194.494</ele>
        <time>2020-09-02T10:18:54Z</time>
      </trkpt>
      <trkpt lat="44.10228" lon="5.64239">
        <ele>1193.641</ele>
        <time>2020-09-02T10:18:55Z</time>
      </trkpt>
      <trkpt lat="44.1024" lon="5.64231">
        <ele>1193.292</ele>
        <time>2020-09-02T10:18:56Z</time>
      </trkpt>
      <trkpt lat="44.10251" lon="5.64224">
        <ele>1192.77</ele>
        <time>2020-09-02T10:18:57Z</time>
      </trkpt>
      <trkpt lat="44.10262" lon="5.64218">
        <ele>1192.646</ele>
        <time>2020-09-02T10:18:58Z</time>
      </trkpt>
      <trkpt lat="44.10274" lon="5.64212">
        <ele>1192.319</ele>
        <time>2020-09-02T10:18:59Z</time>
      </trkpt>
      <trkpt lat="44.10286" lon="5.64204">
        <ele>1192.467</ele>
        <time>2020-09-02T10:19:00Z</time>
      </trkpt>
      <trkpt lat="44.10297" lon="5.64195">
        <ele>1192.781</ele>
        <time>2020-09-02T10:19:01Z</time>
      </trkpt>
      <trkpt lat="44.10308" lon="5.64186">
        <ele>1192.519</ele>
        <time>2020-09-02T10:19:02Z</time>
      </trkpt>
      <trkpt lat="44.10318" lon="5.64177">
        <ele>1193.108</ele>
        <time>2020-09-02T10:19:03Z</time>
      </trkpt>
      <trkpt lat="44.10328" lon="5.6417">
        <ele>1193.394</ele>
        <time>2020-09-02T10:19:04Z</time>
      </trkpt>
      <trkpt lat="44.10337" lon="5.64163">
        <ele>1193.743</ele>
        <time>2020-09-02T10:19:05Z</time>
      </trkpt>
      <trkpt lat="44.10346" lon="5.64156">
        <ele>1193.853</ele>
        <time>2020-09-02T10:19:06Z</time>
      </trkpt>
      <trkpt lat="44.10355" lon="5.64151">
        <ele>1193.66</ele>
        <time>2020-09-02T10:19:07Z</time>
      </trkpt>
      <trkpt lat="44.10363" lon="5.64145">
        <ele>1193.711</ele>
        <time>2020-09-02T10:19:08Z</time>
      </trkpt>
      <trkpt lat="44.10369" lon="5.64141">
        <ele>1193.559</ele>
        <time>2020-09-02T10:19:09Z</time>
      </trkpt>
      <trkpt lat="44.10373" lon="5.64137">
        <ele>1193.655</ele>
        <time>2020-09-02T10:19:10Z</time>
      </trkpt>
      <trkpt lat="44.10378" lon="5.64131">
        <ele>1193.358</ele>
        <time>2020-09-02T10:19:12Z</time>
      </trkpt>
      <trkpt lat="44.10382" lon="5.64124">
        <ele>1193.043</ele>
        <time>2020-09-02T10:19:14Z</time>
      </trkpt>
      <trkpt lat="44.10387" lon="5.64115">
        <ele>1192.864</ele>
        <time>2020-09-02T10:19:16Z</time>
      </trkpt>
      <trkpt lat="44.10389" lon="5.6411">
        <ele>1192.61</ele>
        <time>2020-09-02T10:19:17Z</time>
      </trkpt>
      <trkpt lat="44.10392" lon="5.64102">
        <ele>1192.508</ele>
        <time>2020-09-02T10:19:18Z</time>
      </trkpt>
      <trkpt lat="44.10395" lon="5.64094">
        <ele>1192.892</ele>
        <time>2020-09-02T10:19:19Z</time>
      </trkpt>
      <trkpt lat="44.10399" lon="5.64086">
        <ele>1192.761</ele>
        <time>2020-09-02T10:19:20Z</time>
      </trkpt>
      <trkpt lat="44.10404" lon="5.6408">
        <ele>1192.811</ele>
        <time>2020-09-02T10:19:21Z</time>
      </trkpt>
      <trkpt lat="44.10409" lon="5.64075">
        <ele>1192.858</ele>
        <time>2020-09-02T10:19:22Z</time>
      </trkpt>
      <trkpt lat="44.10415" lon="5.64071">
        <ele>1193.259</ele>
        <time>2020-09-02T10:19:23Z</time>
      </trkpt>
      <trkpt lat="44.10421" lon="5.64067">
        <ele>1193.717</ele>
        <time>2020-09-02T10:19:24Z</time>
      </trkpt>
      <trkpt lat="44.10428" lon="5.64064">
        <ele>1194.043</ele>
        <time>2020-09-02T10:19:25Z</time>
      </trkpt>
      <trkpt lat="44.10434" lon="5.64059">
        <ele>1194.816</ele>
        <time>2020-09-02T10:19:26Z</time>
      </trkpt>
      <trkpt lat="44.10441" lon="5.64054">
        <ele>1195.667</ele>
        <time>2020-09-02T10:19:27Z</time>
      </trkpt>
      <trkpt lat="44.10447" lon="5.64048">
        <ele>1196.181</ele>
        <time>2020-09-02T10:19:28Z</time>
      </trkpt>
      <trkpt lat="44.10453" lon="5.64041">
        <ele>1196.719</ele>
        <time>2020-09-02T10:19:29Z</time>
      </trkpt>
      <trkpt lat="44.1046" lon="5.64034">
        <ele>1197.508</ele>
        <time>2020-09-02T10:19:30Z</time>
      </trkpt>
      <trkpt lat="44.10466" lon="5.64024">
        <ele>1198.724</ele>
        <time>2020-09-02T10:19:31Z</time>
      </trkpt>
      <trkpt lat="44.10471" lon="5.64012">
        <ele>1199.083</ele>
        <time>2020-09-02T10:19:32Z</time>
      </trkpt>
      <trkpt lat="44.10476" lon="5.64001">
        <ele>1199.353</ele>
        <time>2020-09-02T10:19:33Z</time>
      </trkpt>
      <trkpt lat="44.10482" lon="5.63991">
        <ele>1200.15</ele>
        <time>2020-09-02T10:19:34Z</time>
      </trkpt>
      <trkpt lat="44.10489" lon="5.63982">
        <ele>1200.561</ele>
        <time>2020-09-02T10:19:35Z</time>
      </trkpt>
      <trkpt lat="44.10497" lon="5.63974">
        <ele>1200.359</ele>
        <time>2020-09-02T10:19:36Z</time>
      </trkpt>
      <trkpt lat="44.10506" lon="5.63968">
        <ele>1200.755</ele>
        <time>2020-09-02T10:19:37Z</time>
      </trkpt>
      <trkpt lat="44.10516" lon="5.63963">
        <ele>1201.278</ele>
        <time>2020-09-02T10:19:38Z</time>
      </trkpt>
      <trkpt lat="44.10526" lon="5.63961">
        <ele>1201.852</ele>
        <time>2020-09-02T10:19:39Z</time>
      </trkpt>
      <trkpt lat="44.10536" lon="5.6396">
        <ele>1202.353</ele>
        <time>2020-09-02T10:19:40Z</time>
      </trkpt>
      <trkpt lat="44.10546" lon="5.6396">
        <ele>1203.308</ele>
        <time>2020-09-02T10:19:41Z</time>
      </trkpt>
      <trkpt lat="44.10556" lon="5.63964">
        <ele>1204.208</ele>
        <time>2020-09-02T10:19:42Z</time>
      </trkpt>
      <trkpt lat="44.10565" lon="5.63967">
        <ele>1205.323</ele>
        <time>2020-09-02T10:19:43Z</time>
      </trkpt>
      <trkpt lat="44.10575" lon="5.6397">
        <ele>1205.912</ele>
        <time>2020-09-02T10:19:44Z</time>
      </trkpt>
      <trkpt lat="44.10586" lon="5.63973">
        <ele>1206.422</ele>
        <time>2020-09-02T10:19:45Z</time>
      </trkpt>
      <trkpt lat="44.10597" lon="5.63974">
        <ele>1207.119</ele>
        <time>2020-09-02T10:19:46Z</time>
      </trkpt>
      <trkpt lat="44.10607" lon="5.63975">
        <ele>1207.55</ele>
        <time>2020-09-02T10:19:47Z</time>
      </trkpt>
      <trkpt lat="44.10619" lon="5.63974">
        <ele>1207.688</ele>
        <time>2020-09-02T10:19:48Z</time>
      </trkpt>
      <trkpt lat="44.1063" lon="5.63973">
        <ele>1207.854</ele>
        <time>2020-09-02T10:19:49Z</time>
      </trkpt>
      <trkpt lat="44.10641" lon="5.63972">
        <ele>1208.397</ele>
        <time>2020-09-02T10:19:50Z</time>
      </trkpt>
      <trkpt lat="44.10648" lon="5.63971">
        <ele>1208.513</ele>
        <time>2020-09-02T10:19:51Z</time>
      </trkpt>
      <trkpt lat="44.10653" lon="5.63968">
        <ele>1208.843</ele>
        <time>2020-09-02T10:19:52Z</time>
      </trkpt>
      <trkpt lat="44.10657" lon="5.63964">
        <ele>1209.007</ele>
        <time>2020-09-02T10:19:53Z</time>
      </trkpt>
      <trkpt lat="44.10657" lon="5.63958">
        <ele>1209.008</ele>
        <time>2020-09-02T10:19:54Z</time>
      </trkpt>
      <trkpt lat="44.10657" lon="5.63949">
        <ele>1208.949</ele>
        <time>2020-09-02T10:19:55Z</time>
      </trkpt>
      <trkpt lat="44.10656" lon="5.63938">
        <ele>1208.258</ele>
        <time>2020-09-02T10:19:56Z</time>
      </trkpt>
      <trkpt lat="44.10656" lon="5.63925">
        <ele>1208.348</ele>
        <time>2020-09-02T10:19:57Z</time>
      </trkpt>
      <trkpt lat="44.10656" lon="5.6391">
        <ele>1208.595</ele>
        <time>2020-09-02T10:19:58Z</time>
      </trkpt>
      <trkpt lat="44.10656" lon="5.63895">
        <ele>1208.856</ele>
        <time>2020-09-02T10:19:59Z</time>
      </trkpt>
      <trkpt lat="44.10658" lon="5.63879">
        <ele>1209.134</ele>
        <time>2020-09-02T10:20:00Z</time>
      </trkpt>
      <trkpt lat="44.1066" lon="5.63865">
        <ele>1209.26</ele>
        <time>2020-09-02T10:20:01Z</time>
      </trkpt>
      <trkpt lat="44.10662" lon="5.63853">
        <ele>1209.423</ele>
        <time>2020-09-02T10:20:02Z</time>
      </trkpt>
      <trkpt lat="44.10662" lon="5.63841">
        <ele>1209.668</ele>
        <time>2020-09-02T10:20:03Z</time>
      </trkpt>
      <trkpt lat="44.10663" lon="5.63829">
        <ele>1209.542</ele>
        <time>2020-09-02T10:20:04Z</time>
      </trkpt>
      <trkpt lat="44.10665" lon="5.63816">
        <ele>1209.826</ele>
        <time>2020-09-02T10:20:05Z</time>
      </trkpt>
      <trkpt lat="44.10669" lon="5.63804">
        <ele>1209.908</ele>
        <time>2020-09-02T10:20:06Z</time>
      </trkpt>
      <trkpt lat="44.10673" lon="5.63792">
        <ele>1209.564</ele>
        <time>2020-09-02T10:20:07Z</time>
      </trkpt>
      <trkpt lat="44.10677" lon="5.63782">
        <ele>1209.383</ele>
        <time>2020-09-02T10:20:08Z</time>
      </trkpt>
      <trkpt lat="44.10681" lon="5.63777">
        <ele>1208.953</ele>
        <time>2020-09-02T10:20:09Z</time>
      </trkpt>
      <trkpt lat="44.10687" lon="5.63773">
        <ele>1208.38</ele>
        <time>2020-09-02T10:20:10Z</time>
      </trkpt>
      <trkpt lat="44.10694" lon="5.63773">
        <ele>1208.091</ele>
        <time>2020-09-02T10:20:11Z</time>
      </trkpt>
      <trkpt lat="44.10702" lon="5.63773">
        <ele>1207.779</ele>
        <time>2020-09-02T10:20:12Z</time>
      </trkpt>
      <trkpt lat="44.10712" lon="5.63778">
        <ele>1207.445</ele>
        <time>2020-09-02T10:20:13Z</time>
      </trkpt>
      <trkpt lat="44.10721" lon="5.63782">
        <ele>1206.978</ele>
        <time>2020-09-02T10:20:14Z</time>
      </trkpt>
      <trkpt lat="44.10729" lon="5.63786">
        <ele>1206.349</ele>
        <time>2020-09-02T10:20:15Z</time>
      </trkpt>
      <trkpt lat="44.10738" lon="5.63789">
        <ele>1205.702</ele>
        <time>2020-09-02T10:20:16Z</time>
      </trkpt>
      <trkpt lat="44.10747" lon="5.63793">
        <ele>1204.522</ele>
        <time>2020-09-02T10:20:17Z</time>
      </trkpt>
      <trkpt lat="44.10757" lon="5.63797">
        <ele>1204.408</ele>
        <time>2020-09-02T10:20:18Z</time>
      </trkpt>
      <trkpt lat="44.10767" lon="5.63802">
        <ele>1203.822</ele>
        <time>2020-09-02T10:20:19Z</time>
      </trkpt>
      <trkpt lat="44.10777" lon="5.63808">
        <ele>1203.281</ele>
        <time>2020-09-02T10:20:20Z</time>
      </trkpt>
      <trkpt lat="44.10785" lon="5.63814">
        <ele>1203.051</ele>
        <time>2020-09-02T10:20:21Z</time>
      </trkpt>
      <trkpt lat="44.10793" lon="5.6382">
        <ele>1202.678</ele>
        <time>2020-09-02T10:20:22Z</time>
      </trkpt>
      <trkpt lat="44.10799" lon="5.63827">
        <ele>1201.919</ele>
        <time>2020-09-02T10:20:23Z</time>
      </trkpt>
      <trkpt lat="44.10805" lon="5.63833">
        <ele>1201.657</ele>
        <time>2020-09-02T10:20:24Z</time>
      </trkpt>
      <trkpt lat="44.10811" lon="5.63838">
        <ele>1201.093</ele>
        <time>2020-09-02T10:20:25Z</time>
      </trkpt>
      <trkpt lat="44.10817" lon="5.63841">
        <ele>1200.976</ele>
        <time>2020-09-02T10:20:26Z</time>
      </trkpt>
      <trkpt lat="44.10825" lon="5.63841">
        <ele>1200.822</ele>
        <time>2020-09-02T10:20:27Z</time>
      </trkpt>
      <trkpt lat="44.10831" lon="5.63837">
        <ele>1200.662</ele>
        <time>2020-09-02T10:20:28Z</time>
      </trkpt>
      <trkpt lat="44.10835" lon="5.63831">
        <ele>1200.108</ele>
        <time>2020-09-02T10:20:29Z</time>
      </trkpt>
      <trkpt lat="44.10837" lon="5.63823">
        <ele>1199.608</ele>
        <time>2020-09-02T10:20:30Z</time>
      </trkpt>
      <trkpt lat="44.10837" lon="5.63811">
        <ele>1199.97</ele>
        <time>2020-09-02T10:20:31Z</time>
      </trkpt>
      <trkpt lat="44.10836" lon="5.63799">
        <ele>1200.149</ele>
        <time>2020-09-02T10:20:32Z</time>
      </trkpt>
      <trkpt lat="44.10834" lon="5.63787">
        <ele>1200.299</ele>
        <time>2020-09-02T10:20:33Z</time>
      </trkpt>
      <trkpt lat="44.10833" lon="5.63775">
        <ele>1200.316</ele>
        <time>2020-09-02T10:20:34Z</time>
      </trkpt>
      <trkpt lat="44.10833" lon="5.63762">
        <ele>1201.137</ele>
        <time>2020-09-02T10:20:35Z</time>
      </trkpt>
      <trkpt lat="44.10835" lon="5.63753">
        <ele>1201.035</ele>
        <time>2020-09-02T10:20:36Z</time>
      </trkpt>
      <trkpt lat="44.10839" lon="5.63743">
        <ele>1200.611</ele>
        <time>2020-09-02T10:20:37Z</time>
      </trkpt>
      <trkpt lat="44.10844" lon="5.63733">
        <ele>1201.084</ele>
        <time>2020-09-02T10:20:38Z</time>
      </trkpt>
      <trkpt lat="44.1085" lon="5.63723">
        <ele>1200.897</ele>
        <time>2020-09-02T10:20:39Z</time>
      </trkpt>
      <trkpt lat="44.10861" lon="5.63714">
        <ele>1200.623</ele>
        <time>2020-09-02T10:20:40Z</time>
      </trkpt>
      <trkpt lat="44.1087" lon="5.63704">
        <ele>1200.925</ele>
        <time>2020-09-02T10:20:41Z</time>
      </trkpt>
      <trkpt lat="44.1088" lon="5.63696">
        <ele>1200.908</ele>
        <time>2020-09-02T10:20:42Z</time>
      </trkpt>
      <trkpt lat="44.1089" lon="5.63688">
        <ele>1200.957</ele>
        <time>2020-09-02T10:20:43Z</time>
      </trkpt>
      <trkpt lat="44.109" lon="5.63679">
        <ele>1200.646</ele>
        <time>2020-09-02T10:20:44Z</time>
      </trkpt>
      <trkpt lat="44.10909" lon="5.63669">
        <ele>1200.136</ele>
        <time>2020-09-02T10:20:45Z</time>
      </trkpt>
      <trkpt lat="44.10918" lon="5.63659">
        <ele>1199.933</ele>
        <time>2020-09-02T10:20:46Z</time>
      </trkpt>
      <trkpt lat="44.10927" lon="5.6365">
        <ele>1199.554</ele>
        <time>2020-09-02T10:20:47Z</time>
      </trkpt>
      <trkpt lat="44.10937" lon="5.6364">
        <ele>1199.032</ele>
        <time>2020-09-02T10:20:48Z</time>
      </trkpt>
      <trkpt lat="44.10946" lon="5.6363">
        <ele>1198.248</ele>
        <time>2020-09-02T10:20:49Z</time>
      </trkpt>
      <trkpt lat="44.10955" lon="5.63618">
        <ele>1197.811</ele>
        <time>2020-09-02T10:20:50Z</time>
      </trkpt>
      <trkpt lat="44.10964" lon="5.63609">
        <ele>1196.534</ele>
        <time>2020-09-02T10:20:51Z</time>
      </trkpt>
      <trkpt lat="44.10972" lon="5.63599">
        <ele>1195.155</ele>
        <time>2020-09-02T10:20:52Z</time>
      </trkpt>
      <trkpt lat="44.1098" lon="5.63589">
        <ele>1194.61</ele>
        <time>2020-09-02T10:20:53Z</time>
      </trkpt>
      <trkpt lat="44.10988" lon="5.6358">
        <ele>1194.108</ele>
        <time>2020-09-02T10:20:54Z</time>
      </trkpt>
      <trkpt lat="44.10995" lon="5.63572">
        <ele>1193.671</ele>
        <time>2020-09-02T10:20:55Z</time>
      </trkpt>
      <trkpt lat="44.11003" lon="5.63563">
        <ele>1192.58</ele>
        <time>2020-09-02T10:20:56Z</time>
      </trkpt>
      <trkpt lat="44.1101" lon="5.63557">
        <ele>1191.88</ele>
        <time>2020-09-02T10:20:57Z</time>
      </trkpt>
      <trkpt lat="44.11019" lon="5.6355">
        <ele>1191.147</ele>
        <time>2020-09-02T10:20:58Z</time>
      </trkpt>
      <trkpt lat="44.11029" lon="5.63547">
        <ele>1189.728</ele>
        <time>2020-09-02T10:20:59Z</time>
      </trkpt>
      <trkpt lat="44.1104" lon="5.63545">
        <ele>1188.566</ele>
        <time>2020-09-02T10:21:00Z</time>
      </trkpt>
      <trkpt lat="44.11052" lon="5.63544">
        <ele>1187.842</ele>
        <time>2020-09-02T10:21:01Z</time>
      </trkpt>
      <trkpt lat="44.11064" lon="5.63542">
        <ele>1187.345</ele>
        <time>2020-09-02T10:21:02Z</time>
      </trkpt>
      <trkpt lat="44.11077" lon="5.63539">
        <ele>1187.214</ele>
        <time>2020-09-02T10:21:03Z</time>
      </trkpt>
      <trkpt lat="44.1109" lon="5.63536">
        <ele>1186.854</ele>
        <time>2020-09-02T10:21:04Z</time>
      </trkpt>
      <trkpt lat="44.11101" lon="5.63532">
        <ele>1186.509</ele>
        <time>2020-09-02T10:21:05Z</time>
      </trkpt>
      <trkpt lat="44.11114" lon="5.63527">
        <ele>1185.108</ele>
        <time>2020-09-02T10:21:06Z</time>
      </trkpt>
      <trkpt lat="44.11126" lon="5.6352">
        <ele>1184.059</ele>
        <time>2020-09-02T10:21:07Z</time>
      </trkpt>
      <trkpt lat="44.11138" lon="5.63513">
        <ele>1183.648</ele>
        <time>2020-09-02T10:21:08Z</time>
      </trkpt>
      <trkpt lat="44.11149" lon="5.63507">
        <ele>1182.618</ele>
        <time>2020-09-02T10:21:09Z</time>
      </trkpt>
      <trkpt lat="44.11159" lon="5.63501">
        <ele>1182.025</ele>
        <time>2020-09-02T10:21:10Z</time>
      </trkpt>
      <trkpt lat="44.11169" lon="5.63497">
        <ele>1180.986</ele>
        <time>2020-09-02T10:21:11Z</time>
      </trkpt>
      <trkpt lat="44.11178" lon="5.63492">
        <ele>1180.044</ele>
        <time>2020-09-02T10:21:12Z</time>
      </trkpt>
      <trkpt lat="44.11185" lon="5.63486">
        <ele>1180.02</ele>
        <time>2020-09-02T10:21:13Z</time>
      </trkpt>
      <trkpt lat="44.11192" lon="5.63476">
        <ele>1179.593</ele>
        <time>2020-09-02T10:21:14Z</time>
      </trkpt>
      <trkpt lat="44.11198" lon="5.63468">
        <ele>1178.142</ele>
        <time>2020-09-02T10:21:15Z</time>
      </trkpt>
      <trkpt lat="44.11205" lon="5.6346">
        <ele>1177.322</ele>
        <time>2020-09-02T10:21:16Z</time>
      </trkpt>
      <trkpt lat="44.11214" lon="5.63454">
        <ele>1176.814</ele>
        <time>2020-09-02T10:21:17Z</time>
      </trkpt>
      <trkpt lat="44.11224" lon="5.6345">
        <ele>1176.008</ele>
        <time>2020-09-02T10:21:18Z</time>
      </trkpt>
      <trkpt lat="44.11234" lon="5.6345">
        <ele>1175.742</ele>
        <time>2020-09-02T10:21:19Z</time>
      </trkpt>
      <trkpt lat="44.11245" lon="5.6345">
        <ele>1175.361</ele>
        <time>2020-09-02T10:21:20Z</time>
      </trkpt>
      <trkpt lat="44.11257" lon="5.63448">
        <ele>1175.041</ele>
        <time>2020-09-02T10:21:21Z</time>
      </trkpt>
      <trkpt lat="44.11266" lon="5.63446">
        <ele>1174.928</ele>
        <time>2020-09-02T10:21:22Z</time>
      </trkpt>
      <trkpt lat="44.11274" lon="5.63443">
        <ele>1174.719</ele>
        <time>2020-09-02T10:21:23Z</time>
      </trkpt>
      <trkpt lat="44.11281" lon="5.63439">
        <ele>1174.287</ele>
        <time>2020-09-02T10:21:24Z</time>
      </trkpt>
      <trkpt lat="44.11287" lon="5.63433">
        <ele>1174.373</ele>
        <time>2020-09-02T10:21:25Z</time>
      </trkpt>
      <trkpt lat="44.1129" lon="5.63425">
        <ele>1174.556</ele>
        <time>2020-09-02T10:21:26Z</time>
      </trkpt>
      <trkpt lat="44.1129" lon="5.63418">
        <ele>1174.739</ele>
        <time>2020-09-02T10:21:27Z</time>
      </trkpt>
      <trkpt lat="44.11287" lon="5.63413">
        <ele>1174.901</ele>
        <time>2020-09-02T10:21:28Z</time>
      </trkpt>
      <trkpt lat="44.11281" lon="5.6341">
        <ele>1175.121</ele>
        <time>2020-09-02T10:21:29Z</time>
      </trkpt>
      <trkpt lat="44.11274" lon="5.63409">
        <ele>1175.008</ele>
        <time>2020-09-02T10:21:30Z</time>
      </trkpt>
      <trkpt lat="44.11267" lon="5.63409">
        <ele>1175.151</ele>
        <time>2020-09-02T10:21:31Z</time>
      </trkpt>
      <trkpt lat="44.11257" lon="5.6341">
        <ele>1175.48</ele>
        <time>2020-09-02T10:21:32Z</time>
      </trkpt>
      <trkpt lat="44.11246" lon="5.63409">
        <ele>1175.65</ele>
        <time>2020-09-02T10:21:33Z</time>
      </trkpt>
      <trkpt lat="44.11235" lon="5.63407">
        <ele>1175.987</ele>
        <time>2020-09-02T10:21:34Z</time>
      </trkpt>
      <trkpt lat="44.11223" lon="5.63405">
        <ele>1176.358</ele>
        <time>2020-09-02T10:21:35Z</time>
      </trkpt>
      <trkpt lat="44.11212" lon="5.63403">
        <ele>1176.886</ele>
        <time>2020-09-02T10:21:36Z</time>
      </trkpt>
      <trkpt lat="44.112" lon="5.63401">
        <ele>1177.472</ele>
        <time>2020-09-02T10:21:37Z</time>
      </trkpt>
      <trkpt lat="44.11188" lon="5.63399">
        <ele>1177.715</ele>
        <time>2020-09-02T10:21:38Z</time>
      </trkpt>
      <trkpt lat="44.11176" lon="5.63398">
        <ele>1178.378</ele>
        <time>2020-09-02T10:21:39Z</time>
      </trkpt>
      <trkpt lat="44.11164" lon="5.634">
        <ele>1177.833</ele>
        <time>2020-09-02T10:21:40Z</time>
      </trkpt>
      <trkpt lat="44.11152" lon="5.63401">
        <ele>1177.826</ele>
        <time>2020-09-02T10:21:41Z</time>
      </trkpt>
      <trkpt lat="44.11141" lon="5.63404">
        <ele>1178.108</ele>
        <time>2020-09-02T10:21:42Z</time>
      </trkpt>
      <trkpt lat="44.11129" lon="5.63405">
        <ele>1177.925</ele>
        <time>2020-09-02T10:21:43Z</time>
      </trkpt>
      <trkpt lat="44.11119" lon="5.63405">
        <ele>1177.944</ele>
        <time>2020-09-02T10:21:44Z</time>
      </trkpt>
      <trkpt lat="44.11108" lon="5.63403">
        <ele>1177.434</ele>
        <time>2020-09-02T10:21:45Z</time>
      </trkpt>
      <trkpt lat="44.11098" lon="5.63399">
        <ele>1177.471</ele>
        <time>2020-09-02T10:21:46Z</time>
      </trkpt>
      <trkpt lat="44.11086" lon="5.63393">
        <ele>1177.422</ele>
        <time>2020-09-02T10:21:47Z</time>
      </trkpt>
      <trkpt lat="44.11073" lon="5.63388">
        <ele>1177.49</ele>
        <time>2020-09-02T10:21:48Z</time>
      </trkpt>
      <trkpt lat="44.11061" lon="5.63384">
        <ele>1177.326</ele>
        <time>2020-09-02T10:21:49Z</time>
      </trkpt>
      <trkpt lat="44.11048" lon="5.6338">
        <ele>1177.399</ele>
        <time>2020-09-02T10:21:50Z</time>
      </trkpt>
      <trkpt lat="44.11033" lon="5.6338">
        <ele>1177.573</ele>
        <time>2020-09-02T10:21:51Z</time>
      </trkpt>
      <trkpt lat="44.11019" lon="5.63379">
        <ele>1177.885</ele>
        <time>2020-09-02T10:21:52Z</time>
      </trkpt>
      <trkpt lat="44.11006" lon="5.63377">
        <ele>1178.213</ele>
        <time>2020-09-02T10:21:53Z</time>
      </trkpt>
      <trkpt lat="44.10992" lon="5.63375">
        <ele>1178.808</ele>
        <time>2020-09-02T10:21:54Z</time>
      </trkpt>
      <trkpt lat="44.10977" lon="5.63373">
        <ele>1179.485</ele>
        <time>2020-09-02T10:21:55Z</time>
      </trkpt>
      <trkpt lat="44.10962" lon="5.63373">
        <ele>1180.184</ele>
        <time>2020-09-02T10:21:56Z</time>
      </trkpt>
      <trkpt lat="44.10948" lon="5.63373">
        <ele>1180.854</ele>
        <time>2020-09-02T10:21:57Z</time>
      </trkpt>
      <trkpt lat="44.10933" lon="5.63374">
        <ele>1181.521</ele>
        <time>2020-09-02T10:21:58Z</time>
      </trkpt>
      <trkpt lat="44.10918" lon="5.63378">
        <ele>1181.652</ele>
        <time>2020-09-02T10:21:59Z</time>
      </trkpt>
      <trkpt lat="44.10905" lon="5.63383">
        <ele>1182.38</ele>
        <time>2020-09-02T10:22:00Z</time>
      </trkpt>
      <trkpt lat="44.10893" lon="5.63388">
        <ele>1182.686</ele>
        <time>2020-09-02T10:22:01Z</time>
      </trkpt>
      <trkpt lat="44.10881" lon="5.63393">
        <ele>1182.669</ele>
        <time>2020-09-02T10:22:02Z</time>
      </trkpt>
      <trkpt lat="44.10871" lon="5.63397">
        <ele>1182.522</ele>
        <time>2020-09-02T10:22:03Z</time>
      </trkpt>
      <trkpt lat="44.1086" lon="5.63399">
        <ele>1182.262</ele>
        <time>2020-09-02T10:22:04Z</time>
      </trkpt>
      <trkpt lat="44.1085" lon="5.63399">
        <ele>1182.008</ele>
        <time>2020-09-02T10:22:05Z</time>
      </trkpt>
      <trkpt lat="44.1084" lon="5.63395">
        <ele>1182.108</ele>
        <time>2020-09-02T10:22:06Z</time>
      </trkpt>
      <trkpt lat="44.10831" lon="5.6339">
        <ele>1182.31</ele>
        <time>2020-09-02T10:22:07Z</time>
      </trkpt>
      <trkpt lat="44.10824" lon="5.63382">
        <ele>1182.519</ele>
        <time>2020-09-02T10:22:08Z</time>
      </trkpt>
      <trkpt lat="44.10816" lon="5.63371">
        <ele>1182.789</ele>
        <time>2020-09-02T10:22:09Z</time>
      </trkpt>
      <trkpt lat="44.10809" lon="5.63355">
        <ele>1183.056</ele>
        <time>2020-09-02T10:22:10Z</time>
      </trkpt>
      <trkpt lat="44.10803" lon="5.63338">
        <ele>1182.627</ele>
        <time>2020-09-02T10:22:11Z</time>
      </trkpt>
      <trkpt lat="44.10795" lon="5.63322">
        <ele>1182.685</ele>
        <time>2020-09-02T10:22:12Z</time>
      </trkpt>
      <trkpt lat="44.10789" lon="5.63306">
        <ele>1182.111</ele>
        <time>2020-09-02T10:22:13Z</time>
      </trkpt>
      <trkpt lat="44.10784" lon="5.63291">
        <ele>1181.674</ele>
        <time>2020-09-02T10:22:14Z</time>
      </trkpt>
      <trkpt lat="44.10782" lon="5.63275">
        <ele>1180.842</ele>
        <time>2020-09-02T10:22:15Z</time>
      </trkpt>
      <trkpt lat="44.10781" lon="5.63261">
        <ele>1181.122</ele>
        <time>2020-09-02T10:22:16Z</time>
      </trkpt>
      <trkpt lat="44.10783" lon="5.63245">
        <ele>1180.514</ele>
        <time>2020-09-02T10:22:17Z</time>
      </trkpt>
      <trkpt lat="44.10786" lon="5.63229">
        <ele>1179.608</ele>
        <time>2020-09-02T10:22:18Z</time>
      </trkpt>
      <trkpt lat="44.1079" lon="5.63211">
        <ele>1179.152</ele>
        <time>2020-09-02T10:22:19Z</time>
      </trkpt>
      <trkpt lat="44.10795" lon="5.63193">
        <ele>1178.961</ele>
        <time>2020-09-02T10:22:20Z</time>
      </trkpt>
      <trkpt lat="44.10799" lon="5.63175">
        <ele>1178.811</ele>
        <time>2020-09-02T10:22:21Z</time>
      </trkpt>
      <trkpt lat="44.10801" lon="5.63158">
        <ele>1179.188</ele>
        <time>2020-09-02T10:22:22Z</time>
      </trkpt>
      <trkpt lat="44.10802" lon="5.6314">
        <ele>1179.539</ele>
        <time>2020-09-02T10:22:23Z</time>
      </trkpt>
      <trkpt lat="44.10803" lon="5.63122">
        <ele>1179.937</ele>
        <time>2020-09-02T10:22:24Z</time>
      </trkpt>
      <trkpt lat="44.10802" lon="5.63105">
        <ele>1180.523</ele>
        <time>2020-09-02T10:22:25Z</time>
      </trkpt>
      <trkpt lat="44.108" lon="5.63089">
        <ele>1180.776</ele>
        <time>2020-09-02T10:22:26Z</time>
      </trkpt>
      <trkpt lat="44.10798" lon="5.63074">
        <ele>1180.968</ele>
        <time>2020-09-02T10:22:27Z</time>
      </trkpt>
      <trkpt lat="44.10795" lon="5.63059">
        <ele>1181.142</ele>
        <time>2020-09-02T10:22:28Z</time>
      </trkpt>
      <trkpt lat="44.10792" lon="5.63043">
        <ele>1180.926</ele>
        <time>2020-09-02T10:22:29Z</time>
      </trkpt>
      <trkpt lat="44.10789" lon="5.63027">
        <ele>1180.808</ele>
        <time>2020-09-02T10:22:30Z</time>
      </trkpt>
      <trkpt lat="44.10786" lon="5.63009">
        <ele>1179.344</ele>
        <time>2020-09-02T10:22:31Z</time>
      </trkpt>
      <trkpt lat="44.10783" lon="5.62988">
        <ele>1178.053</ele>
        <time>2020-09-02T10:22:32Z</time>
      </trkpt>
      <trkpt lat="44.10778" lon="5.62966">
        <ele>1176.893</ele>
        <time>2020-09-02T10:22:33Z</time>
      </trkpt>
      <trkpt lat="44.10774" lon="5.62946">
        <ele>1175.43</ele>
        <time>2020-09-02T10:22:34Z</time>
      </trkpt>
      <trkpt lat="44.1077" lon="5.62925">
        <ele>1174.771</ele>
        <time>2020-09-02T10:22:35Z</time>
      </trkpt>
      <trkpt lat="44.10765" lon="5.62904">
        <ele>1174.499</ele>
        <time>2020-09-02T10:22:36Z</time>
      </trkpt>
      <trkpt lat="44.10762" lon="5.62882">
        <ele>1172.695</ele>
        <time>2020-09-02T10:22:37Z</time>
      </trkpt>
      <trkpt lat="44.10757" lon="5.6286">
        <ele>1172.388</ele>
        <time>2020-09-02T10:22:38Z</time>
      </trkpt>
      <trkpt lat="44.10753" lon="5.62838">
        <ele>1171.458</ele>
        <time>2020-09-02T10:22:39Z</time>
      </trkpt>
      <trkpt lat="44.10751" lon="5.62815">
        <ele>1170.052</ele>
        <time>2020-09-02T10:22:40Z</time>
      </trkpt>
      <trkpt lat="44.10747" lon="5.62792">
        <ele>1169.417</ele>
        <time>2020-09-02T10:22:41Z</time>
      </trkpt>
      <trkpt lat="44.10743" lon="5.62771">
        <ele>1169.208</ele>
        <time>2020-09-02T10:22:42Z</time>
      </trkpt>
      <trkpt lat="44.1074" lon="5.62752">
        <ele>1168.743</ele>
        <time>2020-09-02T10:22:43Z</time>
      </trkpt>
      <trkpt lat="44.10736" lon="5.62735">
        <ele>1166.322</ele>
        <time>2020-09-02T10:22:44Z</time>
      </trkpt>
      <trkpt lat="44.10732" lon="5.62718">
        <ele>1165.792</ele>
        <time>2020-09-02T10:22:45Z</time>
      </trkpt>
      <trkpt lat="44.10728" lon="5.62704">
        <ele>1164.349</ele>
        <time>2020-09-02T10:22:46Z</time>
      </trkpt>
      <trkpt lat="44.10724" lon="5.62691">
        <ele>1163.95</ele>
        <time>2020-09-02T10:22:47Z</time>
      </trkpt>
      <trkpt lat="44.10722" lon="5.62676">
        <ele>1162.978</ele>
        <time>2020-09-02T10:22:48Z</time>
      </trkpt>
      <trkpt lat="44.10721" lon="5.62661">
        <ele>1162.274</ele>
        <time>2020-09-02T10:22:49Z</time>
      </trkpt>
      <trkpt lat="44.10723" lon="5.62646">
        <ele>1161.417</ele>
        <time>2020-09-02T10:22:50Z</time>
      </trkpt>
      <trkpt lat="44.10727" lon="5.62629">
        <ele>1159.774</ele>
        <time>2020-09-02T10:22:51Z</time>
      </trkpt>
      <trkpt lat="44.10731" lon="5.62611">
        <ele>1157.856</ele>
        <time>2020-09-02T10:22:52Z</time>
      </trkpt>
      <trkpt lat="44.10735" lon="5.62594">
        <ele>1156.621</ele>
        <time>2020-09-02T10:22:53Z</time>
      </trkpt>
      <trkpt lat="44.10739" lon="5.62579">
        <ele>1155.908</ele>
        <time>2020-09-02T10:22:54Z</time>
      </trkpt>
      <trkpt lat="44.10741" lon="5.62566">
        <ele>1154.525</ele>
        <time>2020-09-02T10:22:55Z</time>
      </trkpt>
      <trkpt lat="44.10743" lon="5.62553">
        <ele>1154.484</ele>
        <time>2020-09-02T10:22:56Z</time>
      </trkpt>
      <trkpt lat="44.10741" lon="5.62541">
        <ele>1154.094</ele>
        <time>2020-09-02T10:22:57Z</time>
      </trkpt>
      <trkpt lat="44.10738" lon="5.62528">
        <ele>1153.481</ele>
        <time>2020-09-02T10:22:58Z</time>
      </trkpt>
      <trkpt lat="44.10733" lon="5.62514">
        <ele>1152.772</ele>
        <time>2020-09-02T10:22:59Z</time>
      </trkpt>
      <trkpt lat="44.10726" lon="5.62499">
        <ele>1152.57</ele>
        <time>2020-09-02T10:23:00Z</time>
      </trkpt>
      <trkpt lat="44.10719" lon="5.62483">
        <ele>1152.556</ele>
        <time>2020-09-02T10:23:01Z</time>
      </trkpt>
      <trkpt lat="44.10712" lon="5.62466">
        <ele>1151.859</ele>
        <time>2020-09-02T10:23:02Z</time>
      </trkpt>
      <trkpt lat="44.10707" lon="5.62449">
        <ele>1151.344</ele>
        <time>2020-09-02T10:23:03Z</time>
      </trkpt>
      <trkpt lat="44.10702" lon="5.62433">
        <ele>1150.405</ele>
        <time>2020-09-02T10:23:04Z</time>
      </trkpt>
      <trkpt lat="44.10694" lon="5.62416">
        <ele>1149.915</ele>
        <time>2020-09-02T10:23:05Z</time>
      </trkpt>
      <trkpt lat="44.10686" lon="5.62401">
        <ele>1149.108</ele>
        <time>2020-09-02T10:23:06Z</time>
      </trkpt>
      <trkpt lat="44.10677" lon="5.62388">
        <ele>1148.592</ele>
        <time>2020-09-02T10:23:07Z</time>
      </trkpt>
      <trkpt lat="44.10669" lon="5.62375">
        <ele>1147.641</ele>
        <time>2020-09-02T10:23:08Z</time>
      </trkpt>
      <trkpt lat="44.1066" lon="5.62363">
        <ele>1146.911</ele>
        <time>2020-09-02T10:23:09Z</time>
      </trkpt>
      <trkpt lat="44.10652" lon="5.6235">
        <ele>1146.018</ele>
        <time>2020-09-02T10:23:10Z</time>
      </trkpt>
      <trkpt lat="44.10645" lon="5.62336">
        <ele>1145.029</ele>
        <time>2020-09-02T10:23:11Z</time>
      </trkpt>
      <trkpt lat="44.10639" lon="5.6232">
        <ele>1144.087</ele>
        <time>2020-09-02T10:23:12Z</time>
      </trkpt>
      <trkpt lat="44.10633" lon="5.62302">
        <ele>1143.593</ele>
        <time>2020-09-02T10:23:13Z</time>
      </trkpt>
      <trkpt lat="44.10628" lon="5.62286">
        <ele>1142.546</ele>
        <time>2020-09-02T10:23:14Z</time>
      </trkpt>
      <trkpt lat="44.10622" lon="5.6227">
        <ele>1141.613</ele>
        <time>2020-09-02T10:23:15Z</time>
      </trkpt>
      <trkpt lat="44.10616" lon="5.62255">
        <ele>1141.043</ele>
        <time>2020-09-02T10:23:16Z</time>
      </trkpt>
      <trkpt lat="44.10609" lon="5.6224">
        <ele>1140.007</ele>
        <time>2020-09-02T10:23:17Z</time>
      </trkpt>
      <trkpt lat="44.10601" lon="5.62226">
        <ele>1139.108</ele>
        <time>2020-09-02T10:23:18Z</time>
      </trkpt>
      <trkpt lat="44.10591" lon="5.62213">
        <ele>1138.299</ele>
        <time>2020-09-02T10:23:19Z</time>
      </trkpt>
      <trkpt lat="44.10581" lon="5.622">
        <ele>1137.458</ele>
        <time>2020-09-02T10:23:20Z</time>
      </trkpt>
      <trkpt lat="44.10571" lon="5.6219">
        <ele>1136.858</ele>
        <time>2020-09-02T10:23:21Z</time>
      </trkpt>
      <trkpt lat="44.10561" lon="5.6218">
        <ele>1136.075</ele>
        <time>2020-09-02T10:23:22Z</time>
      </trkpt>
      <trkpt lat="44.10551" lon="5.62173">
        <ele>1135.656</ele>
        <time>2020-09-02T10:23:23Z</time>
      </trkpt>
      <trkpt lat="44.10543" lon="5.62167">
        <ele>1135.024</ele>
        <time>2020-09-02T10:23:24Z</time>
      </trkpt>
      <trkpt lat="44.10537" lon="5.62163">
        <ele>1134.58</ele>
        <time>2020-09-02T10:23:25Z</time>
      </trkpt>
      <trkpt lat="44.10532" lon="5.6216">
        <ele>1134.023</ele>
        <time>2020-09-02T10:23:26Z</time>
      </trkpt>
      <trkpt lat="44.10526" lon="5.62154">
        <ele>1132.974</ele>
        <time>2020-09-02T10:23:28Z</time>
      </trkpt>
      <trkpt lat="44.10524" lon="5.62148">
        <ele>1132.756</ele>
        <time>2020-09-02T10:23:30Z</time>
      </trkpt>
      <trkpt lat="44.10527" lon="5.6214">
        <ele>1132.521</ele>
        <time>2020-09-02T10:23:32Z</time>
      </trkpt>
      <trkpt lat="44.10531" lon="5.62135">
        <ele>1132.308</ele>
        <time>2020-09-02T10:23:33Z</time>
      </trkpt>
      <trkpt lat="44.10537" lon="5.62129">
        <ele>1131.635</ele>
        <time>2020-09-02T10:23:34Z</time>
      </trkpt>
      <trkpt lat="44.10543" lon="5.62123">
        <ele>1131.034</ele>
        <time>2020-09-02T10:23:35Z</time>
      </trkpt>
      <trkpt lat="44.1055" lon="5.62116">
        <ele>1130.534</ele>
        <time>2020-09-02T10:23:36Z</time>
      </trkpt>
      <trkpt lat="44.10556" lon="5.62109">
        <ele>1130.681</ele>
        <time>2020-09-02T10:23:37Z</time>
      </trkpt>
      <trkpt lat="44.10562" lon="5.62101">
        <ele>1130.732</ele>
        <time>2020-09-02T10:23:38Z</time>
      </trkpt>
      <trkpt lat="44.10568" lon="5.62095">
        <ele>1130.79</ele>
        <time>2020-09-02T10:23:39Z</time>
      </trkpt>
      <trkpt lat="44.10573" lon="5.62089">
        <ele>1131.166</ele>
        <time>2020-09-02T10:23:40Z</time>
      </trkpt>
      <trkpt lat="44.10577" lon="5.62085">
        <ele>1131.269</ele>
        <time>2020-09-02T10:23:41Z</time>
      </trkpt>
      <trkpt lat="44.10581" lon="5.62082">
        <ele>1131.066</ele>
        <time>2020-09-02T10:23:42Z</time>
      </trkpt>
      <trkpt lat="44.10587" lon="5.6208">
        <ele>1130.729</ele>
        <time>2020-09-02T10:23:43Z</time>
      </trkpt>
      <trkpt lat="44.10594" lon="5.62079">
        <ele>1131.121</ele>
        <time>2020-09-02T10:23:44Z</time>
      </trkpt>
      <trkpt lat="44.10601" lon="5.62079">
        <ele>1131.908</ele>
        <time>2020-09-02T10:23:45Z</time>
      </trkpt>
      <trkpt lat="44.10607" lon="5.6208">
        <ele>1132.234</ele>
        <time>2020-09-02T10:23:46Z</time>
      </trkpt>
      <trkpt lat="44.10615" lon="5.62082">
        <ele>1132.943</ele>
        <time>2020-09-02T10:23:47Z</time>
      </trkpt>
      <trkpt lat="44.10624" lon="5.62084">
        <ele>1133.483</ele>
        <time>2020-09-02T10:23:48Z</time>
      </trkpt>
      <trkpt lat="44.10633" lon="5.62087">
        <ele>1133.72</ele>
        <time>2020-09-02T10:23:49Z</time>
      </trkpt>
      <trkpt lat="44.10642" lon="5.6209">
        <ele>1134.791</ele>
        <time>2020-09-02T10:23:50Z</time>
      </trkpt>
      <trkpt lat="44.10652" lon="5.62091">
        <ele>1134.929</ele>
        <time>2020-09-02T10:23:51Z</time>
      </trkpt>
      <trkpt lat="44.10662" lon="5.62092">
        <ele>1135.335</ele>
        <time>2020-09-02T10:23:52Z</time>
      </trkpt>
      <trkpt lat="44.10673" lon="5.62092">
        <ele>1135.328</ele>
        <time>2020-09-02T10:23:53Z</time>
      </trkpt>
      <trkpt lat="44.10684" lon="5.62091">
        <ele>1135.837</ele>
        <time>2020-09-02T10:23:54Z</time>
      </trkpt>
      <trkpt lat="44.10695" lon="5.62091">
        <ele>1135.449</ele>
        <time>2020-09-02T10:23:55Z</time>
      </trkpt>
      <trkpt lat="44.10706" lon="5.62091">
        <ele>1135.713</ele>
        <time>2020-09-02T10:23:56Z</time>
      </trkpt>
      <trkpt lat="44.10715" lon="5.6209">
        <ele>1135.808</ele>
        <time>2020-09-02T10:23:57Z</time>
      </trkpt>
      <trkpt lat="44.10723" lon="5.62088">
        <ele>1136.371</ele>
        <time>2020-09-02T10:23:58Z</time>
      </trkpt>
      <trkpt lat="44.10731" lon="5.62084">
        <ele>1136.66</ele>
        <time>2020-09-02T10:23:59Z</time>
      </trkpt>
      <trkpt lat="44.10739" lon="5.62078">
        <ele>1136.93</ele>
        <time>2020-09-02T10:24:00Z</time>
      </trkpt>
      <trkpt lat="44.10748" lon="5.62075">
        <ele>1137.587</ele>
        <time>2020-09-02T10:24:01Z</time>
      </trkpt>
      <trkpt lat="44.10757" lon="5.62075">
        <ele>1137.728</ele>
        <time>2020-09-02T10:24:02Z</time>
      </trkpt>
      <trkpt lat="44.10766" lon="5.6208">
        <ele>1138.616</ele>
        <time>2020-09-02T10:24:03Z</time>
      </trkpt>
      <trkpt lat="44.10772" lon="5.6209">
        <ele>1139.092</ele>
        <time>2020-09-02T10:24:04Z</time>
      </trkpt>
      <trkpt lat="44.10778" lon="5.62101">
        <ele>1139.335</ele>
        <time>2020-09-02T10:24:05Z</time>
      </trkpt>
      <trkpt lat="44.10785" lon="5.62112">
        <ele>1140.228</ele>
        <time>2020-09-02T10:24:06Z</time>
      </trkpt>
      <trkpt lat="44.10794" lon="5.62122">
        <ele>1141.589</ele>
        <time>2020-09-02T10:24:07Z</time>
      </trkpt>
      <trkpt lat="44.10804" lon="5.6213">
        <ele>1142.817</ele>
        <time>2020-09-02T10:24:08Z</time>
      </trkpt>
      <trkpt lat="44.10814" lon="5.62139">
        <ele>1144.108</ele>
        <time>2020-09-02T10:24:09Z</time>
      </trkpt>
      <trkpt lat="44.10824" lon="5.62149">
        <ele>1145.17</ele>
        <time>2020-09-02T10:24:10Z</time>
      </trkpt>
      <trkpt lat="44.10835" lon="5.6216">
        <ele>1146.429</ele>
        <time>2020-09-02T10:24:11Z</time>
      </trkpt>
      <trkpt lat="44.10845" lon="5.6217">
        <ele>1147.369</ele>
        <time>2020-09-02T10:24:12Z</time>
      </trkpt>
      <trkpt lat="44.10856" lon="5.62181">
        <ele>1148.376</ele>
        <time>2020-09-02T10:24:13Z</time>
      </trkpt>
      <trkpt lat="44.10868" lon="5.62192">
        <ele>1149.877</ele>
        <time>2020-09-02T10:24:14Z</time>
      </trkpt>
      <trkpt lat="44.10879" lon="5.62201">
        <ele>1150.485</ele>
        <time>2020-09-02T10:24:15Z</time>
      </trkpt>
      <trkpt lat="44.10892" lon="5.62208">
        <ele>1152.021</ele>
        <time>2020-09-02T10:24:16Z</time>
      </trkpt>
      <trkpt lat="44.10905" lon="5.62216">
        <ele>1153.274</ele>
        <time>2020-09-02T10:24:17Z</time>
      </trkpt>
      <trkpt lat="44.10918" lon="5.62225">
        <ele>1154.144</ele>
        <time>2020-09-02T10:24:18Z</time>
      </trkpt>
      <trkpt lat="44.10932" lon="5.62233">
        <ele>1156.005</ele>
        <time>2020-09-02T10:24:19Z</time>
      </trkpt>
      <trkpt lat="44.10946" lon="5.62241">
        <ele>1157.115</ele>
        <time>2020-09-02T10:24:20Z</time>
      </trkpt>
      <trkpt lat="44.10961" lon="5.62249">
        <ele>1158.508</ele>
        <time>2020-09-02T10:24:21Z</time>
      </trkpt>
      <trkpt lat="44.10976" lon="5.62257">
        <ele>1159.992</ele>
        <time>2020-09-02T10:24:22Z</time>
      </trkpt>
      <trkpt lat="44.1099" lon="5.62265">
        <ele>1160.711</ele>
        <time>2020-09-02T10:24:23Z</time>
      </trkpt>
      <trkpt lat="44.11005" lon="5.62273">
        <ele>1162.531</ele>
        <time>2020-09-02T10:24:24Z</time>
      </trkpt>
      <trkpt lat="44.1102" lon="5.62281">
        <ele>1164.018</ele>
        <time>2020-09-02T10:24:25Z</time>
      </trkpt>
      <trkpt lat="44.11035" lon="5.62289">
        <ele>1166.689</ele>
        <time>2020-09-02T10:24:26Z</time>
      </trkpt>
      <trkpt lat="44.11049" lon="5.62297">
        <ele>1168.877</ele>
        <time>2020-09-02T10:24:27Z</time>
      </trkpt>
      <trkpt lat="44.11062" lon="5.62305">
        <ele>1170.853</ele>
        <time>2020-09-02T10:24:28Z</time>
      </trkpt>
      <trkpt lat="44.11075" lon="5.62312">
        <ele>1173.256</ele>
        <time>2020-09-02T10:24:29Z</time>
      </trkpt>
      <trkpt lat="44.11088" lon="5.6232">
        <ele>1175.659</ele>
        <time>2020-09-02T10:24:30Z</time>
      </trkpt>
      <trkpt lat="44.111" lon="5.62327">
        <ele>1177.403</ele>
        <time>2020-09-02T10:24:31Z</time>
      </trkpt>
      <trkpt lat="44.11114" lon="5.62334">
        <ele>1179.623</ele>
        <time>2020-09-02T10:24:32Z</time>
      </trkpt>
      <trkpt lat="44.11126" lon="5.62342">
        <ele>1181.708</ele>
        <time>2020-09-02T10:24:33Z</time>
      </trkpt>
      <trkpt lat="44.1114" lon="5.62353">
        <ele>1182.433</ele>
        <time>2020-09-02T10:24:34Z</time>
      </trkpt>
      <trkpt lat="44.11153" lon="5.62364">
        <ele>1184.052</ele>
        <time>2020-09-02T10:24:35Z</time>
      </trkpt>
      <trkpt lat="44.11163" lon="5.62373">
        <ele>1185.282</ele>
        <time>2020-09-02T10:24:36Z</time>
      </trkpt>
      <trkpt lat="44.11172" lon="5.62382">
        <ele>1185.489</ele>
        <time>2020-09-02T10:24:37Z</time>
      </trkpt>
      <trkpt lat="44.11181" lon="5.62388">
        <ele>1185.55</ele>
        <time>2020-09-02T10:24:38Z</time>
      </trkpt>
      <trkpt lat="44.1119" lon="5.62392">
        <ele>1186.258</ele>
        <time>2020-09-02T10:24:39Z</time>
      </trkpt>
      <trkpt lat="44.112" lon="5.62395">
        <ele>1187.094</ele>
        <time>2020-09-02T10:24:40Z</time>
      </trkpt>
      <trkpt lat="44.11211" lon="5.62395">
        <ele>1187.277</ele>
        <time>2020-09-02T10:24:41Z</time>
      </trkpt>
      <trkpt lat="44.11222" lon="5.62387">
        <ele>1187.742</ele>
        <time>2020-09-02T10:24:42Z</time>
      </trkpt>
      <trkpt lat="44.11234" lon="5.62382">
        <ele>1188.122</ele>
        <time>2020-09-02T10:24:43Z</time>
      </trkpt>
      <trkpt lat="44.11247" lon="5.62379">
        <ele>1188.414</ele>
        <time>2020-09-02T10:24:44Z</time>
      </trkpt>
      <trkpt lat="44.1126" lon="5.62379">
        <ele>1189.508</ele>
        <time>2020-09-02T10:24:45Z</time>
      </trkpt>
      <trkpt lat="44.11274" lon="5.6238">
        <ele>1190.292</ele>
        <time>2020-09-02T10:24:46Z</time>
      </trkpt>
      <trkpt lat="44.11288" lon="5.62387">
        <ele>1191.211</ele>
        <time>2020-09-02T10:24:47Z</time>
      </trkpt>
      <trkpt lat="44.11301" lon="5.62395">
        <ele>1192.511</ele>
        <time>2020-09-02T10:24:48Z</time>
      </trkpt>
      <trkpt lat="44.11314" lon="5.62403">
        <ele>1193.498</ele>
        <time>2020-09-02T10:24:49Z</time>
      </trkpt>
      <trkpt lat="44.11328" lon="5.62411">
        <ele>1194.579</ele>
        <time>2020-09-02T10:24:50Z</time>
      </trkpt>
      <trkpt lat="44.11343" lon="5.62419">
        <ele>1195.747</ele>
        <time>2020-09-02T10:24:51Z</time>
      </trkpt>
      <trkpt lat="44.11356" lon="5.62426">
        <ele>1196.763</ele>
        <time>2020-09-02T10:24:52Z</time>
      </trkpt>
      <trkpt lat="44.11367" lon="5.62433">
        <ele>1196.986</ele>
        <time>2020-09-02T10:24:53Z</time>
      </trkpt>
      <trkpt lat="44.11379" lon="5.62437">
        <ele>1197.836</ele>
        <time>2020-09-02T10:24:54Z</time>
      </trkpt>
      <trkpt lat="44.11391" lon="5.62441">
        <ele>1198.617</ele>
        <time>2020-09-02T10:24:55Z</time>
      </trkpt>
      <trkpt lat="44.11404" lon="5.62443">
        <ele>1199.718</ele>
        <time>2020-09-02T10:24:56Z</time>
      </trkpt>
      <trkpt lat="44.11418" lon="5.62447">
        <ele>1201.208</ele>
        <time>2020-09-02T10:24:57Z</time>
      </trkpt>
      <trkpt lat="44.11432" lon="5.62449">
        <ele>1202.031</ele>
        <time>2020-09-02T10:24:58Z</time>
      </trkpt>
      <trkpt lat="44.11447" lon="5.62451">
        <ele>1202.83</ele>
        <time>2020-09-02T10:24:59Z</time>
      </trkpt>
      <trkpt lat="44.11462" lon="5.62453">
        <ele>1203.69</ele>
        <time>2020-09-02T10:25:00Z</time>
      </trkpt>
      <trkpt lat="44.11477" lon="5.62453">
        <ele>1205.017</ele>
        <time>2020-09-02T10:25:01Z</time>
      </trkpt>
      <trkpt lat="44.11493" lon="5.62454">
        <ele>1205.798</ele>
        <time>2020-09-02T10:25:02Z</time>
      </trkpt>
      <trkpt lat="44.11509" lon="5.62456">
        <ele>1206.846</ele>
        <time>2020-09-02T10:25:03Z</time>
      </trkpt>
      <trkpt lat="44.11524" lon="5.62458">
        <ele>1207.542</ele>
        <time>2020-09-02T10:25:04Z</time>
      </trkpt>
      <trkpt lat="44.11539" lon="5.62461">
        <ele>1207.915</ele>
        <time>2020-09-02T10:25:05Z</time>
      </trkpt>
      <trkpt lat="44.1155" lon="5.62463">
        <ele>1207.882</ele>
        <time>2020-09-02T10:25:06Z</time>
      </trkpt>
      <trkpt lat="44.11561" lon="5.62465">
        <ele>1208.443</ele>
        <time>2020-09-02T10:25:07Z</time>
      </trkpt>
      <trkpt lat="44.11572" lon="5.62465">
        <ele>1209.817</ele>
        <time>2020-09-02T10:25:08Z</time>
      </trkpt>
      <trkpt lat="44.11583" lon="5.62466">
        <ele>1210.308</ele>
        <time>2020-09-02T10:25:09Z</time>
      </trkpt>
      <trkpt lat="44.11594" lon="5.62467">
        <ele>1210.216</ele>
        <time>2020-09-02T10:25:10Z</time>
      </trkpt>
      <trkpt lat="44.11607" lon="5.6247">
        <ele>1210.825</ele>
        <time>2020-09-02T10:25:11Z</time>
      </trkpt>
      <trkpt lat="44.11619" lon="5.62472">
        <ele>1211.425</ele>
        <time>2020-09-02T10:25:12Z</time>
      </trkpt>
      <trkpt lat="44.11633" lon="5.62474">
        <ele>1212.012</ele>
        <time>2020-09-02T10:25:13Z</time>
      </trkpt>
      <trkpt lat="44.11644" lon="5.62474">
        <ele>1211.243</ele>
        <time>2020-09-02T10:25:14Z</time>
      </trkpt>
      <trkpt lat="44.11657" lon="5.6248">
        <ele>1212.071</ele>
        <time>2020-09-02T10:25:15Z</time>
      </trkpt>
      <trkpt lat="44.11669" lon="5.62483">
        <ele>1213.517</ele>
        <time>2020-09-02T10:25:16Z</time>
      </trkpt>
      <trkpt lat="44.11681" lon="5.62491">
        <ele>1214.23</ele>
        <time>2020-09-02T10:25:17Z</time>
      </trkpt>
      <trkpt lat="44.11692" lon="5.62498">
        <ele>1215.025</ele>
        <time>2020-09-02T10:25:18Z</time>
      </trkpt>
      <trkpt lat="44.11703" lon="5.62505">
        <ele>1215.726</ele>
        <time>2020-09-02T10:25:19Z</time>
      </trkpt>
      <trkpt lat="44.11713" lon="5.62516">
        <ele>1215.708</ele>
        <time>2020-09-02T10:25:20Z</time>
      </trkpt>
      <trkpt lat="44.11723" lon="5.62527">
        <ele>1217.208</ele>
        <time>2020-09-02T10:25:21Z</time>
      </trkpt>
      <trkpt lat="44.11733" lon="5.62539">
        <ele>1218.12</ele>
        <time>2020-09-02T10:25:22Z</time>
      </trkpt>
      <trkpt lat="44.11742" lon="5.62553">
        <ele>1218.749</ele>
        <time>2020-09-02T10:25:23Z</time>
      </trkpt>
      <trkpt lat="44.11751" lon="5.62566">
        <ele>1219.289</ele>
        <time>2020-09-02T10:25:24Z</time>
      </trkpt>
      <trkpt lat="44.1176" lon="5.62578">
        <ele>1219.816</ele>
        <time>2020-09-02T10:25:25Z</time>
      </trkpt>
      <trkpt lat="44.11768" lon="5.62591">
        <ele>1219.847</ele>
        <time>2020-09-02T10:25:26Z</time>
      </trkpt>
      <trkpt lat="44.11776" lon="5.62604">
        <ele>1220.345</ele>
        <time>2020-09-02T10:25:27Z</time>
      </trkpt>
      <trkpt lat="44.11785" lon="5.62615">
        <ele>1220.451</ele>
        <time>2020-09-02T10:25:28Z</time>
      </trkpt>
      <trkpt lat="44.11795" lon="5.62623">
        <ele>1220.534</ele>
        <time>2020-09-02T10:25:29Z</time>
      </trkpt>
      <trkpt lat="44.11806" lon="5.62629">
        <ele>1220.799</ele>
        <time>2020-09-02T10:25:30Z</time>
      </trkpt>
      <trkpt lat="44.11818" lon="5.62634">
        <ele>1220.507</ele>
        <time>2020-09-02T10:25:31Z</time>
      </trkpt>
      <trkpt lat="44.11829" lon="5.62638">
        <ele>1219.627</ele>
        <time>2020-09-02T10:25:32Z</time>
      </trkpt>
      <trkpt lat="44.1184" lon="5.62643">
        <ele>1218.708</ele>
        <time>2020-09-02T10:25:33Z</time>
      </trkpt>
      <trkpt lat="44.11851" lon="5.62648">
        <ele>1217.467</ele>
        <time>2020-09-02T10:25:34Z</time>
      </trkpt>
      <trkpt lat="44.11863" lon="5.62652">
        <ele>1216.656</ele>
        <time>2020-09-02T10:25:35Z</time>
      </trkpt>
      <trkpt lat="44.11875" lon="5.62658">
        <ele>1216.356</ele>
        <time>2020-09-02T10:25:36Z</time>
      </trkpt>
      <trkpt lat="44.11887" lon="5.62665">
        <ele>1216.273</ele>
        <time>2020-09-02T10:25:37Z</time>
      </trkpt>
      <trkpt lat="44.11898" lon="5.62673">
        <ele>1216.254</ele>
        <time>2020-09-02T10:25:38Z</time>
      </trkpt>
      <trkpt lat="44.11909" lon="5.62681">
        <ele>1215.982</ele>
        <time>2020-09-02T10:25:39Z</time>
      </trkpt>
      <trkpt lat="44.1192" lon="5.6269">
        <ele>1214.968</ele>
        <time>2020-09-02T10:25:40Z</time>
      </trkpt>
      <trkpt lat="44.11931" lon="5.627">
        <ele>1214.741</ele>
        <time>2020-09-02T10:25:41Z</time>
      </trkpt>
      <trkpt lat="44.11941" lon="5.62709">
        <ele>1214.337</ele>
        <time>2020-09-02T10:25:42Z</time>
      </trkpt>
      <trkpt lat="44.11952" lon="5.62717">
        <ele>1213.849</ele>
        <time>2020-09-02T10:25:43Z</time>
      </trkpt>
      <trkpt lat="44.1196" lon="5.62726">
        <ele>1212.613</ele>
        <time>2020-09-02T10:25:44Z</time>
      </trkpt>
      <trkpt lat="44.1197" lon="5.62734">
        <ele>1211.908</ele>
        <time>2020-09-02T10:25:45Z</time>
      </trkpt>
      <trkpt lat="44.11981" lon="5.6274">
        <ele>1211.951</ele>
        <time>2020-09-02T10:25:46Z</time>
      </trkpt>
      <trkpt lat="44.1199" lon="5.62745">
        <ele>1210.55</ele>
        <time>2020-09-02T10:25:47Z</time>
      </trkpt>
      <trkpt lat="44.12" lon="5.62746">
        <ele>1210.58</ele>
        <time>2020-09-02T10:25:48Z</time>
      </trkpt>
      <trkpt lat="44.12009" lon="5.62745">
        <ele>1210.857</ele>
        <time>2020-09-02T10:25:49Z</time>
      </trkpt>
      <trkpt lat="44.12017" lon="5.62745">
        <ele>1210.838</ele>
        <time>2020-09-02T10:25:50Z</time>
      </trkpt>
      <trkpt lat="44.12023" lon="5.62746">
        <ele>1211.836</ele>
        <time>2020-09-02T10:25:51Z</time>
      </trkpt>
      <trkpt lat="44.12028" lon="5.62747">
        <ele>1211.942</ele>
        <time>2020-09-02T10:25:53Z</time>
      </trkpt>
      <trkpt lat="44.12034" lon="5.62748">
        <ele>1213.085</ele>
        <time>2020-09-02T10:25:55Z</time>
      </trkpt>
      <trkpt lat="44.12042" lon="5.62749">
        <ele>1213.249</ele>
        <time>2020-09-02T10:25:57Z</time>
      </trkpt>
      <trkpt lat="44.1205" lon="5.62749">
        <ele>1214.002</ele>
        <time>2020-09-02T10:25:59Z</time>
      </trkpt>
      <trkpt lat="44.12056" lon="5.62748">
        <ele>1214.422</ele>
        <time>2020-09-02T10:26:01Z</time>
      </trkpt>
      <trkpt lat="44.12063" lon="5.62747">
        <ele>1214.308</ele>
        <time>2020-09-02T10:26:03Z</time>
      </trkpt>
      <trkpt lat="44.12071" lon="5.62748">
        <ele>1214.972</ele>
        <time>2020-09-02T10:26:05Z</time>
      </trkpt>
      <trkpt lat="44.12077" lon="5.62748">
        <ele>1215.961</ele>
        <time>2020-09-02T10:26:11Z</time>
      </trkpt>
      <trkpt lat="44.12086" lon="5.62747">
        <ele>1216.841</ele>
        <time>2020-09-02T10:26:13Z</time>
      </trkpt>
      <trkpt lat="44.12093" lon="5.62749">
        <ele>1217.388</ele>
        <time>2020-09-02T10:26:14Z</time>
      </trkpt>
      <trkpt lat="44.12101" lon="5.62749">
        <ele>1217.939</ele>
        <time>2020-09-02T10:26:15Z</time>
      </trkpt>
      <trkpt lat="44.12108" lon="5.62747">
        <ele>1218.617</ele>
        <time>2020-09-02T10:26:16Z</time>
      </trkpt>
      <trkpt lat="44.12115" lon="5.62743">
        <ele>1219.173</ele>
        <time>2020-09-02T10:26:17Z</time>
      </trkpt>
      <trkpt lat="44.12121" lon="5.62739">
        <ele>1219.226</ele>
        <time>2020-09-02T10:26:18Z</time>
      </trkpt>
      <trkpt lat="44.12127" lon="5.62735">
        <ele>1219.683</ele>
        <time>2020-09-02T10:26:19Z</time>
      </trkpt>
      <trkpt lat="44.12133" lon="5.62732">
        <ele>1220.525</ele>
        <time>2020-09-02T10:26:20Z</time>
      </trkpt>
      <trkpt lat="44.12138" lon="5.62727">
        <ele>1221.217</ele>
        <time>2020-09-02T10:26:21Z</time>
      </trkpt>
      <trkpt lat="44.12143" lon="5.62722">
        <ele>1221.408</ele>
        <time>2020-09-02T10:26:22Z</time>
      </trkpt>
      <trkpt lat="44.12147" lon="5.62718">
        <ele>1221.226</ele>
        <time>2020-09-02T10:26:23Z</time>
      </trkpt>
      <trkpt lat="44.12152" lon="5.62714">
        <ele>1221.525</ele>
        <time>2020-09-02T10:26:24Z</time>
      </trkpt>
      <trkpt lat="44.12156" lon="5.62709">
        <ele>1222.235</ele>
        <time>2020-09-02T10:26:25Z</time>
      </trkpt>
      <trkpt lat="44.12162" lon="5.62704">
        <ele>1223.542</ele>
        <time>2020-09-02T10:26:27Z</time>
      </trkpt>
      <trkpt lat="44.12167" lon="5.62702">
        <ele>1222.233</ele>
        <time>2020-09-02T10:28:29Z</time>
      </trkpt>
      <trkpt lat="44.12175" lon="5.62696">
        <ele>1222.861</ele>
        <time>2020-09-02T10:28:31Z</time>
      </trkpt>
      <trkpt lat="44.12181" lon="5.62693">
        <ele>1222.797</ele>
        <time>2020-09-02T10:28:32Z</time>
      </trkpt>
      <trkpt lat="44.12187" lon="5.62689">
        <ele>1223.12</ele>
        <time>2020-09-02T10:28:33Z</time>
      </trkpt>
      <trkpt lat="44.12195" lon="5.62686">
        <ele>1223.587</ele>
        <time>2020-09-02T10:28:34Z</time>
      </trkpt>
      <trkpt lat="44.12203" lon="5.62683">
        <ele>1224.342</ele>
        <time>2020-09-02T10:28:35Z</time>
      </trkpt>
      <trkpt lat="44.12211" lon="5.62681">
        <ele>1225.426</ele>
        <time>2020-09-02T10:28:36Z</time>
      </trkpt>
      <trkpt lat="44.12221" lon="5.62678">
        <ele>1226.608</ele>
        <time>2020-09-02T10:28:37Z</time>
      </trkpt>
      <trkpt lat="44.12231" lon="5.62676">
        <ele>1228.066</ele>
        <time>2020-09-02T10:28:38Z</time>
      </trkpt>
      <trkpt lat="44.12241" lon="5.62673">
        <ele>1228.175</ele>
        <time>2020-09-02T10:28:39Z</time>
      </trkpt>
      <trkpt lat="44.12251" lon="5.62667">
        <ele>1228.595</ele>
        <time>2020-09-02T10:28:40Z</time>
      </trkpt>
      <trkpt lat="44.1226" lon="5.62662">
        <ele>1229.182</ele>
        <time>2020-09-02T10:28:41Z</time>
      </trkpt>
      <trkpt lat="44.1227" lon="5.62656">
        <ele>1230.413</ele>
        <time>2020-09-02T10:28:42Z</time>
      </trkpt>
      <trkpt lat="44.12279" lon="5.62651">
        <ele>1230.731</ele>
        <time>2020-09-02T10:28:43Z</time>
      </trkpt>
      <trkpt lat="44.12289" lon="5.62648">
        <ele>1232.647</ele>
        <time>2020-09-02T10:28:44Z</time>
      </trkpt>
      <trkpt lat="44.12297" lon="5.62647">
        <ele>1232.96</ele>
        <time>2020-09-02T10:28:45Z</time>
      </trkpt>
      <trkpt lat="44.12305" lon="5.62647">
        <ele>1233.019</ele>
        <time>2020-09-02T10:28:46Z</time>
      </trkpt>
      <trkpt lat="44.12311" lon="5.62649">
        <ele>1233.209</ele>
        <time>2020-09-02T10:28:47Z</time>
      </trkpt>
      <trkpt lat="44.12317" lon="5.62647">
        <ele>1233.619</ele>
        <time>2020-09-02T10:28:48Z</time>
      </trkpt>
      <trkpt lat="44.12325" lon="5.6264">
        <ele>1233.808</ele>
        <time>2020-09-02T10:28:50Z</time>
      </trkpt>
      <trkpt lat="44.12326" lon="5.62631">
        <ele>1234.089</ele>
        <time>2020-09-02T10:28:51Z</time>
      </trkpt>
      <trkpt lat="44.12326" lon="5.62623">
        <ele>1234.748</ele>
        <time>2020-09-02T10:28:52Z</time>
      </trkpt>
      <trkpt lat="44.12323" lon="5.62614">
        <ele>1236.188</ele>
        <time>2020-09-02T10:28:53Z</time>
      </trkpt>
      <trkpt lat="44.12315" lon="5.62605">
        <ele>1237.135</ele>
        <time>2020-09-02T10:28:54Z</time>
      </trkpt>
      <trkpt lat="44.12308" lon="5.626">
        <ele>1238.926</ele>
        <time>2020-09-02T10:28:55Z</time>
      </trkpt>
      <trkpt lat="44.12297" lon="5.626">
        <ele>1240.684</ele>
        <time>2020-09-02T10:28:56Z</time>
      </trkpt>
      <trkpt lat="44.12288" lon="5.62593">
        <ele>1240.84</ele>
        <time>2020-09-02T10:28:57Z</time>
      </trkpt>
      <trkpt lat="44.12277" lon="5.62591">
        <ele>1240.843</ele>
        <time>2020-09-02T10:28:58Z</time>
      </trkpt>
      <trkpt lat="44.12266" lon="5.62589">
        <ele>1240.352</ele>
        <time>2020-09-02T10:28:59Z</time>
      </trkpt>
      <trkpt lat="44.12252" lon="5.62585">
        <ele>1240.253</ele>
        <time>2020-09-02T10:29:00Z</time>
      </trkpt>
      <trkpt lat="44.12242" lon="5.62581">
        <ele>1241.408</ele>
        <time>2020-09-02T10:29:01Z</time>
      </trkpt>
      <trkpt lat="44.12232" lon="5.62577">
        <ele>1241.808</ele>
        <time>2020-09-02T10:29:02Z</time>
      </trkpt>
      <trkpt lat="44.12222" lon="5.62575">
        <ele>1242.043</ele>
        <time>2020-09-02T10:29:03Z</time>
      </trkpt>
      <trkpt lat="44.12212" lon="5.62571">
        <ele>1242.092</ele>
        <time>2020-09-02T10:29:04Z</time>
      </trkpt>
      <trkpt lat="44.12201" lon="5.62567">
        <ele>1242.642</ele>
        <time>2020-09-02T10:29:05Z</time>
      </trkpt>
      <trkpt lat="44.12193" lon="5.62565">
        <ele>1244.049</ele>
        <time>2020-09-02T10:29:06Z</time>
      </trkpt>
      <trkpt lat="44.12183" lon="5.6256">
        <ele>1243.15</ele>
        <time>2020-09-02T10:29:07Z</time>
      </trkpt>
      <trkpt lat="44.12172" lon="5.62554">
        <ele>1243.148</ele>
        <time>2020-09-02T10:29:08Z</time>
      </trkpt>
      <trkpt lat="44.12164" lon="5.62546">
        <ele>1245.254</ele>
        <time>2020-09-02T10:29:09Z</time>
      </trkpt>
      <trkpt lat="44.12159" lon="5.62537">
        <ele>1245.577</ele>
        <time>2020-09-02T10:29:10Z</time>
      </trkpt>
      <trkpt lat="44.12154" lon="5.62527">
        <ele>1246.862</ele>
        <time>2020-09-02T10:29:11Z</time>
      </trkpt>
      <trkpt lat="44.12151" lon="5.62517">
        <ele>1247.483</ele>
        <time>2020-09-02T10:29:12Z</time>
      </trkpt>
      <trkpt lat="44.12151" lon="5.62506">
        <ele>1247.511</ele>
        <time>2020-09-02T10:29:13Z</time>
      </trkpt>
      <trkpt lat="44.12153" lon="5.62497">
        <ele>1247.408</ele>
        <time>2020-09-02T10:29:14Z</time>
      </trkpt>
      <trkpt lat="44.12157" lon="5.62486">
        <ele>1247.564</ele>
        <time>2020-09-02T10:29:15Z</time>
      </trkpt>
      <trkpt lat="44.12164" lon="5.62476">
        <ele>1249.263</ele>
        <time>2020-09-02T10:29:16Z</time>
      </trkpt>
      <trkpt lat="44.12169" lon="5.62467">
        <ele>1249.793</ele>
        <time>2020-09-02T10:29:17Z</time>
      </trkpt>
      <trkpt lat="44.12176" lon="5.62458">
        <ele>1250.53</ele>
        <time>2020-09-02T10:29:18Z</time>
      </trkpt>
      <trkpt lat="44.12184" lon="5.62453">
        <ele>1250.921</ele>
        <time>2020-09-02T10:29:19Z</time>
      </trkpt>
      <trkpt lat="44.12192" lon="5.62451">
        <ele>1251.039</ele>
        <time>2020-09-02T10:29:20Z</time>
      </trkpt>
      <trkpt lat="44.122" lon="5.62452">
        <ele>1251.355</ele>
        <time>2020-09-02T10:29:21Z</time>
      </trkpt>
      <trkpt lat="44.12209" lon="5.62454">
        <ele>1252.128</ele>
        <time>2020-09-02T10:29:22Z</time>
      </trkpt>
      <trkpt lat="44.12219" lon="5.62457">
        <ele>1253.123</ele>
        <time>2020-09-02T10:29:23Z</time>
      </trkpt>
      <trkpt lat="44.1223" lon="5.62458">
        <ele>1254.783</ele>
        <time>2020-09-02T10:29:24Z</time>
      </trkpt>
      <trkpt lat="44.1224" lon="5.6246">
        <ele>1255.811</ele>
        <time>2020-09-02T10:29:25Z</time>
      </trkpt>
      <trkpt lat="44.1225" lon="5.6246">
        <ele>1257.408</ele>
        <time>2020-09-02T10:29:26Z</time>
      </trkpt>
      <trkpt lat="44.12262" lon="5.62461">
        <ele>1258.65</ele>
        <time>2020-09-02T10:29:27Z</time>
      </trkpt>
      <trkpt lat="44.12273" lon="5.62463">
        <ele>1260.069</ele>
        <time>2020-09-02T10:29:28Z</time>
      </trkpt>
      <trkpt lat="44.12283" lon="5.62464">
        <ele>1262.289</ele>
        <time>2020-09-02T10:29:29Z</time>
      </trkpt>
      <trkpt lat="44.12294" lon="5.62464">
        <ele>1263.846</ele>
        <time>2020-09-02T10:29:30Z</time>
      </trkpt>
      <trkpt lat="44.12305" lon="5.62465">
        <ele>1265.137</ele>
        <time>2020-09-02T10:29:31Z</time>
      </trkpt>
      <trkpt lat="44.12316" lon="5.62466">
        <ele>1266.565</ele>
        <time>2020-09-02T10:29:32Z</time>
      </trkpt>
      <trkpt lat="44.12328" lon="5.62469">
        <ele>1268.311</ele>
        <time>2020-09-02T10:29:33Z</time>
      </trkpt>
      <trkpt lat="44.12339" lon="5.62473">
        <ele>1269.384</ele>
        <time>2020-09-02T10:29:34Z</time>
      </trkpt>
      <trkpt lat="44.12351" lon="5.62478">
        <ele>1270.499</ele>
        <time>2020-09-02T10:29:35Z</time>
      </trkpt>
      <trkpt lat="44.12361" lon="5.62483">
        <ele>1271.507</ele>
        <time>2020-09-02T10:29:36Z</time>
      </trkpt>
      <trkpt lat="44.12372" lon="5.62488">
        <ele>1272.327</ele>
        <time>2020-09-02T10:29:37Z</time>
      </trkpt>
      <trkpt lat="44.12383" lon="5.62493">
        <ele>1273.408</ele>
        <time>2020-09-02T10:29:38Z</time>
      </trkpt>
      <trkpt lat="44.12395" lon="5.62497">
        <ele>1274.897</ele>
        <time>2020-09-02T10:29:39Z</time>
      </trkpt>
      <trkpt lat="44.12406" lon="5.625">
        <ele>1275.586</ele>
        <time>2020-09-02T10:29:40Z</time>
      </trkpt>
      <trkpt lat="44.12418" lon="5.62502">
        <ele>1275.816</ele>
        <time>2020-09-02T10:29:41Z</time>
      </trkpt>
      <trkpt lat="44.12431" lon="5.62503">
        <ele>1276.853</ele>
        <time>2020-09-02T10:29:42Z</time>
      </trkpt>
      <trkpt lat="44.12444" lon="5.62506">
        <ele>1276.914</ele>
        <time>2020-09-02T10:29:43Z</time>
      </trkpt>
      <trkpt lat="44.12456" lon="5.62509">
        <ele>1277.382</ele>
        <time>2020-09-02T10:29:44Z</time>
      </trkpt>
      <trkpt lat="44.12469" lon="5.62514">
        <ele>1277.748</ele>
        <time>2020-09-02T10:29:45Z</time>
      </trkpt>
      <trkpt lat="44.12482" lon="5.62521">
        <ele>1277.451</ele>
        <time>2020-09-02T10:29:46Z</time>
      </trkpt>
      <trkpt lat="44.12496" lon="5.62528">
        <ele>1277.663</ele>
        <time>2020-09-02T10:29:47Z</time>
      </trkpt>
      <trkpt lat="44.12508" lon="5.62539">
        <ele>1278.144</ele>
        <time>2020-09-02T10:29:48Z</time>
      </trkpt>
      <trkpt lat="44.12519" lon="5.6255">
        <ele>1278.818</ele>
        <time>2020-09-02T10:29:49Z</time>
      </trkpt>
      <trkpt lat="44.1253" lon="5.62564">
        <ele>1280.108</ele>
        <time>2020-09-02T10:29:50Z</time>
      </trkpt>
      <trkpt lat="44.1254" lon="5.62576">
        <ele>1282.314</ele>
        <time>2020-09-02T10:29:51Z</time>
      </trkpt>
      <trkpt lat="44.12551" lon="5.62587">
        <ele>1284.483</ele>
        <time>2020-09-02T10:29:52Z</time>
      </trkpt>
      <trkpt lat="44.12561" lon="5.62598">
        <ele>1286.143</ele>
        <time>2020-09-02T10:29:53Z</time>
      </trkpt>
      <trkpt lat="44.12572" lon="5.62609">
        <ele>1287.47</ele>
        <time>2020-09-02T10:29:54Z</time>
      </trkpt>
      <trkpt lat="44.12582" lon="5.6262">
        <ele>1289.591</ele>
        <time>2020-09-02T10:29:55Z</time>
      </trkpt>
      <trkpt lat="44.12592" lon="5.62633">
        <ele>1290.829</ele>
        <time>2020-09-02T10:29:56Z</time>
      </trkpt>
      <trkpt lat="44.12603" lon="5.62644">
        <ele>1293.385</ele>
        <time>2020-09-02T10:29:57Z</time>
      </trkpt>
      <trkpt lat="44.12614" lon="5.62652">
        <ele>1294.518</ele>
        <time>2020-09-02T10:29:58Z</time>
      </trkpt>
      <trkpt lat="44.12627" lon="5.62659">
        <ele>1295.829</ele>
        <time>2020-09-02T10:29:59Z</time>
      </trkpt>
      <trkpt lat="44.1264" lon="5.62666">
        <ele>1296.3</ele>
        <time>2020-09-02T10:30:00Z</time>
      </trkpt>
      <trkpt lat="44.12653" lon="5.62671">
        <ele>1297.12</ele>
        <time>2020-09-02T10:30:01Z</time>
      </trkpt>
      <trkpt lat="44.12666" lon="5.62674">
        <ele>1297.408</ele>
        <time>2020-09-02T10:30:02Z</time>
      </trkpt>
      <trkpt lat="44.1268" lon="5.62677">
        <ele>1298.78</ele>
        <time>2020-09-02T10:30:03Z</time>
      </trkpt>
      <trkpt lat="44.12694" lon="5.62681">
        <ele>1301.419</ele>
        <time>2020-09-02T10:30:04Z</time>
      </trkpt>
      <trkpt lat="44.12707" lon="5.62685">
        <ele>1303.889</ele>
        <time>2020-09-02T10:30:05Z</time>
      </trkpt>
      <trkpt lat="44.1272" lon="5.62687">
        <ele>1305.666</ele>
        <time>2020-09-02T10:30:06Z</time>
      </trkpt>
      <trkpt lat="44.12734" lon="5.62689">
        <ele>1307.057</ele>
        <time>2020-09-02T10:30:07Z</time>
      </trkpt>
      <trkpt lat="44.12748" lon="5.62692">
        <ele>1308.415</ele>
        <time>2020-09-02T10:30:08Z</time>
      </trkpt>
      <trkpt lat="44.12762" lon="5.62694">
        <ele>1310.031</ele>
        <time>2020-09-02T10:30:09Z</time>
      </trkpt>
      <trkpt lat="44.12776" lon="5.62696">
        <ele>1311.374</ele>
        <time>2020-09-02T10:30:10Z</time>
      </trkpt>
      <trkpt lat="44.1279" lon="5.62698">
        <ele>1313.214</ele>
        <time>2020-09-02T10:30:11Z</time>
      </trkpt>
      <trkpt lat="44.12804" lon="5.62701">
        <ele>1314.354</ele>
        <time>2020-09-02T10:30:12Z</time>
      </trkpt>
      <trkpt lat="44.12818" lon="5.62701">
        <ele>1314.909</ele>
        <time>2020-09-02T10:30:13Z</time>
      </trkpt>
      <trkpt lat="44.12832" lon="5.62701">
        <ele>1316.308</ele>
        <time>2020-09-02T10:30:14Z</time>
      </trkpt>
      <trkpt lat="44.12847" lon="5.62701">
        <ele>1317.399</ele>
        <time>2020-09-02T10:30:15Z</time>
      </trkpt>
      <trkpt lat="44.12861" lon="5.62701">
        <ele>1317.928</ele>
        <time>2020-09-02T10:30:16Z</time>
      </trkpt>
      <trkpt lat="44.12876" lon="5.62701">
        <ele>1318.658</ele>
        <time>2020-09-02T10:30:17Z</time>
      </trkpt>
      <trkpt lat="44.12891" lon="5.627">
        <ele>1319.085</ele>
        <time>2020-09-02T10:30:18Z</time>
      </trkpt>
      <trkpt lat="44.12907" lon="5.62701">
        <ele>1319.696</ele>
        <time>2020-09-02T10:30:19Z</time>
      </trkpt>
      <trkpt lat="44.12922" lon="5.62703">
        <ele>1320.514</ele>
        <time>2020-09-02T10:30:20Z</time>
      </trkpt>
      <trkpt lat="44.12938" lon="5.62705">
        <ele>1321.13</ele>
        <time>2020-09-02T10:30:21Z</time>
      </trkpt>
      <trkpt lat="44.12953" lon="5.62708">
        <ele>1322.143</ele>
        <time>2020-09-02T10:30:22Z</time>
      </trkpt>
      <trkpt lat="44.12968" lon="5.62711">
        <ele>1323.298</ele>
        <time>2020-09-02T10:30:23Z</time>
      </trkpt>
      <trkpt lat="44.12981" lon="5.62715">
        <ele>1324.315</ele>
        <time>2020-09-02T10:30:24Z</time>
      </trkpt>
      <trkpt lat="44.12993" lon="5.62717">
        <ele>1325.226</ele>
        <time>2020-09-02T10:30:25Z</time>
      </trkpt>
      <trkpt lat="44.13005" lon="5.6272">
        <ele>1325.708</ele>
        <time>2020-09-02T10:30:26Z</time>
      </trkpt>
      <trkpt lat="44.13017" lon="5.62724">
        <ele>1326.247</ele>
        <time>2020-09-02T10:30:27Z</time>
      </trkpt>
      <trkpt lat="44.13029" lon="5.62727">
        <ele>1326.386</ele>
        <time>2020-09-02T10:30:28Z</time>
      </trkpt>
      <trkpt lat="44.13043" lon="5.6273">
        <ele>1326.666</ele>
        <time>2020-09-02T10:30:29Z</time>
      </trkpt>
      <trkpt lat="44.13056" lon="5.62734">
        <ele>1326.663</ele>
        <time>2020-09-02T10:30:30Z</time>
      </trkpt>
      <trkpt lat="44.13071" lon="5.62736">
        <ele>1326.944</ele>
        <time>2020-09-02T10:30:31Z</time>
      </trkpt>
      <trkpt lat="44.13085" lon="5.62738">
        <ele>1326.982</ele>
        <time>2020-09-02T10:30:32Z</time>
      </trkpt>
      <trkpt lat="44.13101" lon="5.6274">
        <ele>1326.778</ele>
        <time>2020-09-02T10:30:33Z</time>
      </trkpt>
      <trkpt lat="44.13116" lon="5.62743">
        <ele>1326.431</ele>
        <time>2020-09-02T10:30:34Z</time>
      </trkpt>
      <trkpt lat="44.13131" lon="5.62747">
        <ele>1326.239</ele>
        <time>2020-09-02T10:30:35Z</time>
      </trkpt>
      <trkpt lat="44.13145" lon="5.6275">
        <ele>1325.101</ele>
        <time>2020-09-02T10:30:36Z</time>
      </trkpt>
      <trkpt lat="44.1316" lon="5.62753">
        <ele>1324.421</ele>
        <time>2020-09-02T10:30:37Z</time>
      </trkpt>
      <trkpt lat="44.13176" lon="5.62754">
        <ele>1323.808</ele>
        <time>2020-09-02T10:30:38Z</time>
      </trkpt>
      <trkpt lat="44.1319" lon="5.62752">
        <ele>1323.871</ele>
        <time>2020-09-02T10:30:39Z</time>
      </trkpt>
      <trkpt lat="44.13206" lon="5.62749">
        <ele>1323.99</ele>
        <time>2020-09-02T10:30:40Z</time>
      </trkpt>
      <trkpt lat="44.13221" lon="5.62746">
        <ele>1324.35</ele>
        <time>2020-09-02T10:30:41Z</time>
      </trkpt>
      <trkpt lat="44.13237" lon="5.62743">
        <ele>1324.347</ele>
        <time>2020-09-02T10:30:42Z</time>
      </trkpt>
      <trkpt lat="44.13253" lon="5.62741">
        <ele>1323.778</ele>
        <time>2020-09-02T10:30:43Z</time>
      </trkpt>
      <trkpt lat="44.13269" lon="5.62739">
        <ele>1323.266</ele>
        <time>2020-09-02T10:30:44Z</time>
      </trkpt>
      <trkpt lat="44.13286" lon="5.62737">
        <ele>1322.882</ele>
        <time>2020-09-02T10:30:45Z</time>
      </trkpt>
      <trkpt lat="44.13303" lon="5.62737">
        <ele>1322.445</ele>
        <time>2020-09-02T10:30:46Z</time>
      </trkpt>
      <trkpt lat="44.1332" lon="5.62739">
        <ele>1322.065</ele>
        <time>2020-09-02T10:30:47Z</time>
      </trkpt>
      <trkpt lat="44.13336" lon="5.6274">
        <ele>1321.768</ele>
        <time>2020-09-02T10:30:48Z</time>
      </trkpt>
      <trkpt lat="44.1335" lon="5.6274">
        <ele>1321.514</ele>
        <time>2020-09-02T10:30:49Z</time>
      </trkpt>
      <trkpt lat="44.13362" lon="5.62738">
        <ele>1321.208</ele>
        <time>2020-09-02T10:30:50Z</time>
      </trkpt>
      <trkpt lat="44.13373" lon="5.62738">
        <ele>1321.134</ele>
        <time>2020-09-02T10:30:51Z</time>
      </trkpt>
      <trkpt lat="44.13385" lon="5.6274">
        <ele>1321.623</ele>
        <time>2020-09-02T10:30:52Z</time>
      </trkpt>
      <trkpt lat="44.13399" lon="5.62741">
        <ele>1321.723</ele>
        <time>2020-09-02T10:30:53Z</time>
      </trkpt>
      <trkpt lat="44.13413" lon="5.6274">
        <ele>1322.08</ele>
        <time>2020-09-02T10:30:54Z</time>
      </trkpt>
      <trkpt lat="44.13428" lon="5.62741">
        <ele>1322.641</ele>
        <time>2020-09-02T10:30:55Z</time>
      </trkpt>
      <trkpt lat="44.13443" lon="5.62741">
        <ele>1323.619</ele>
        <time>2020-09-02T10:30:56Z</time>
      </trkpt>
      <trkpt lat="44.13457" lon="5.62741">
        <ele>1324.565</ele>
        <time>2020-09-02T10:30:57Z</time>
      </trkpt>
      <trkpt lat="44.13472" lon="5.62741">
        <ele>1325.178</ele>
        <time>2020-09-02T10:30:58Z</time>
      </trkpt>
      <trkpt lat="44.13486" lon="5.62743">
        <ele>1326.691</ele>
        <time>2020-09-02T10:30:59Z</time>
      </trkpt>
      <trkpt lat="44.13501" lon="5.62746">
        <ele>1326.981</ele>
        <time>2020-09-02T10:31:00Z</time>
      </trkpt>
      <trkpt lat="44.13516" lon="5.62752">
        <ele>1327.219</ele>
        <time>2020-09-02T10:31:01Z</time>
      </trkpt>
      <trkpt lat="44.13531" lon="5.62758">
        <ele>1327.808</ele>
        <time>2020-09-02T10:31:02Z</time>
      </trkpt>
      <trkpt lat="44.13545" lon="5.62765">
        <ele>1328.557</ele>
        <time>2020-09-02T10:31:03Z</time>
      </trkpt>
      <trkpt lat="44.13559" lon="5.62771">
        <ele>1328.816</ele>
        <time>2020-09-02T10:31:04Z</time>
      </trkpt>
      <trkpt lat="44.13574" lon="5.62777">
        <ele>1328.856</ele>
        <time>2020-09-02T10:31:05Z</time>
      </trkpt>
      <trkpt lat="44.13588" lon="5.6278">
        <ele>1328.943</ele>
        <time>2020-09-02T10:31:06Z</time>
      </trkpt>
      <trkpt lat="44.13604" lon="5.62782">
        <ele>1329.134</ele>
        <time>2020-09-02T10:31:07Z</time>
      </trkpt>
      <trkpt lat="44.13619" lon="5.62783">
        <ele>1329.032</ele>
        <time>2020-09-02T10:31:08Z</time>
      </trkpt>
      <trkpt lat="44.13634" lon="5.62782">
        <ele>1328.468</ele>
        <time>2020-09-02T10:31:09Z</time>
      </trkpt>
      <trkpt lat="44.13648" lon="5.62783">
        <ele>1327.761</ele>
        <time>2020-09-02T10:31:10Z</time>
      </trkpt>
      <trkpt lat="44.13661" lon="5.62785">
        <ele>1326.564</ele>
        <time>2020-09-02T10:31:11Z</time>
      </trkpt>
      <trkpt lat="44.13674" lon="5.62787">
        <ele>1326.106</ele>
        <time>2020-09-02T10:31:12Z</time>
      </trkpt>
      <trkpt lat="44.13687" lon="5.62792">
        <ele>1326.316</ele>
        <time>2020-09-02T10:31:13Z</time>
      </trkpt>
      <trkpt lat="44.137" lon="5.628">
        <ele>1325.208</ele>
        <time>2020-09-02T10:31:14Z</time>
      </trkpt>
      <trkpt lat="44.13713" lon="5.62808">
        <ele>1324.754</ele>
        <time>2020-09-02T10:31:15Z</time>
      </trkpt>
      <trkpt lat="44.13727" lon="5.62817">
        <ele>1324.333</ele>
        <time>2020-09-02T10:31:16Z</time>
      </trkpt>
      <trkpt lat="44.13739" lon="5.62824">
        <ele>1324.093</ele>
        <time>2020-09-02T10:31:17Z</time>
      </trkpt>
      <trkpt lat="44.13753" lon="5.62829">
        <ele>1323.91</ele>
        <time>2020-09-02T10:31:18Z</time>
      </trkpt>
      <trkpt lat="44.13767" lon="5.62832">
        <ele>1324.081</ele>
        <time>2020-09-02T10:31:19Z</time>
      </trkpt>
      <trkpt lat="44.13782" lon="5.62833">
        <ele>1324.319</ele>
        <time>2020-09-02T10:31:20Z</time>
      </trkpt>
      <trkpt lat="44.13796" lon="5.62833">
        <ele>1323.465</ele>
        <time>2020-09-02T10:31:21Z</time>
      </trkpt>
      <trkpt lat="44.1381" lon="5.62833">
        <ele>1323.468</ele>
        <time>2020-09-02T10:31:22Z</time>
      </trkpt>
      <trkpt lat="44.13824" lon="5.62836">
        <ele>1322.766</ele>
        <time>2020-09-02T10:31:23Z</time>
      </trkpt>
      <trkpt lat="44.13837" lon="5.6284">
        <ele>1322.329</ele>
        <time>2020-09-02T10:31:24Z</time>
      </trkpt>
      <trkpt lat="44.13848" lon="5.62845">
        <ele>1322.621</ele>
        <time>2020-09-02T10:31:25Z</time>
      </trkpt>
      <trkpt lat="44.1386" lon="5.6285">
        <ele>1322.408</ele>
        <time>2020-09-02T10:31:26Z</time>
      </trkpt>
      <trkpt lat="44.1387" lon="5.62855">
        <ele>1323.284</ele>
        <time>2020-09-02T10:31:27Z</time>
      </trkpt>
      <trkpt lat="44.13882" lon="5.6286">
        <ele>1323.013</ele>
        <time>2020-09-02T10:31:28Z</time>
      </trkpt>
      <trkpt lat="44.13895" lon="5.62864">
        <ele>1323.443</ele>
        <time>2020-09-02T10:31:29Z</time>
      </trkpt>
      <trkpt lat="44.13906" lon="5.62868">
        <ele>1323.58</ele>
        <time>2020-09-02T10:31:30Z</time>
      </trkpt>
      <trkpt lat="44.13918" lon="5.62873">
        <ele>1323.381</ele>
        <time>2020-09-02T10:31:31Z</time>
      </trkpt>
      <trkpt lat="44.13929" lon="5.62876">
        <ele>1323.319</ele>
        <time>2020-09-02T10:31:32Z</time>
      </trkpt>
      <trkpt lat="44.1394" lon="5.62876">
        <ele>1323.065</ele>
        <time>2020-09-02T10:31:33Z</time>
      </trkpt>
      <trkpt lat="44.13952" lon="5.62879">
        <ele>1323.368</ele>
        <time>2020-09-02T10:31:34Z</time>
      </trkpt>
      <trkpt lat="44.13964" lon="5.62882">
        <ele>1323.798</ele>
        <time>2020-09-02T10:31:35Z</time>
      </trkpt>
      <trkpt lat="44.13972" lon="5.62885">
        <ele>1322.915</ele>
        <time>2020-09-02T10:31:36Z</time>
      </trkpt>
      <trkpt lat="44.1398" lon="5.62888">
        <ele>1323.026</ele>
        <time>2020-09-02T10:31:37Z</time>
      </trkpt>
      <trkpt lat="44.13986" lon="5.62891">
        <ele>1322.808</ele>
        <time>2020-09-02T10:31:38Z</time>
      </trkpt>
      <trkpt lat="44.13989" lon="5.62896">
        <ele>1322.017</ele>
        <time>2020-09-02T10:31:39Z</time>
      </trkpt>
      <trkpt lat="44.13995" lon="5.62899">
        <ele>1321.436</ele>
        <time>2020-09-02T10:31:40Z</time>
      </trkpt>
      <trkpt lat="44.14001" lon="5.62901">
        <ele>1320.716</ele>
        <time>2020-09-02T10:31:41Z</time>
      </trkpt>
      <trkpt lat="44.14009" lon="5.62903">
        <ele>1320.153</ele>
        <time>2020-09-02T10:31:42Z</time>
      </trkpt>
      <trkpt lat="44.14017" lon="5.62907">
        <ele>1319.764</ele>
        <time>2020-09-02T10:31:43Z</time>
      </trkpt>
      <trkpt lat="44.14024" lon="5.62911">
        <ele>1319.752</ele>
        <time>2020-09-02T10:31:44Z</time>
      </trkpt>
      <trkpt lat="44.14032" lon="5.62914">
        <ele>1319.738</ele>
        <time>2020-09-02T10:31:45Z</time>
      </trkpt>
      <trkpt lat="44.14037" lon="5.62917">
        <ele>1316.871</ele>
        <time>2020-09-02T10:31:48Z</time>
      </trkpt>
      <trkpt lat="44.14038" lon="5.62924">
        <ele>1319.027</ele>
        <time>2020-09-02T10:32:26Z</time>
      </trkpt>
      <trkpt lat="44.14035" lon="5.62935">
        <ele>1319.368</ele>
        <time>2020-09-02T10:32:28Z</time>
      </trkpt>
      <trkpt lat="44.14034" lon="5.62943">
        <ele>1319.014</ele>
        <time>2020-09-02T10:32:29Z</time>
      </trkpt>
      <trkpt lat="44.14034" lon="5.62951">
        <ele>1319.108</ele>
        <time>2020-09-02T10:32:30Z</time>
      </trkpt>
      <trkpt lat="44.14034" lon="5.6296">
        <ele>1319.11</ele>
        <time>2020-09-02T10:32:31Z</time>
      </trkpt>
      <trkpt lat="44.14035" lon="5.6297">
        <ele>1318.529</ele>
        <time>2020-09-02T10:32:32Z</time>
      </trkpt>
      <trkpt lat="44.14038" lon="5.62979">
        <ele>1318.469</ele>
        <time>2020-09-02T10:32:33Z</time>
      </trkpt>
      <trkpt lat="44.1404" lon="5.62988">
        <ele>1318.156</ele>
        <time>2020-09-02T10:32:34Z</time>
      </trkpt>
      <trkpt lat="44.14044" lon="5.62997">
        <ele>1317.737</ele>
        <time>2020-09-02T10:32:35Z</time>
      </trkpt>
      <trkpt lat="44.14048" lon="5.63005">
        <ele>1318.025</ele>
        <time>2020-09-02T10:32:36Z</time>
      </trkpt>
      <trkpt lat="44.14053" lon="5.63012">
        <ele>1318.021</ele>
        <time>2020-09-02T10:32:37Z</time>
      </trkpt>
      <trkpt lat="44.14057" lon="5.63019">
        <ele>1317.294</ele>
        <time>2020-09-02T10:32:38Z</time>
      </trkpt>
      <trkpt lat="44.14062" lon="5.63027">
        <ele>1317.839</ele>
        <time>2020-09-02T10:32:39Z</time>
      </trkpt>
      <trkpt lat="44.14066" lon="5.63037">
        <ele>1317.001</ele>
        <time>2020-09-02T10:32:40Z</time>
      </trkpt>
      <trkpt lat="44.1407" lon="5.63045">
        <ele>1316.921</ele>
        <time>2020-09-02T10:32:41Z</time>
      </trkpt>
      <trkpt lat="44.14074" lon="5.63054">
        <ele>1317.008</ele>
        <time>2020-09-02T10:32:42Z</time>
      </trkpt>
      <trkpt lat="44.14077" lon="5.63062">
        <ele>1316.821</ele>
        <time>2020-09-02T10:32:43Z</time>
      </trkpt>
      <trkpt lat="44.14079" lon="5.6307">
        <ele>1316.69</ele>
        <time>2020-09-02T10:32:44Z</time>
      </trkpt>
      <trkpt lat="44.14081" lon="5.63078">
        <ele>1315.78</ele>
        <time>2020-09-02T10:32:45Z</time>
      </trkpt>
      <trkpt lat="44.14083" lon="5.63087">
        <ele>1315.497</ele>
        <time>2020-09-02T10:32:46Z</time>
      </trkpt>
      <trkpt lat="44.14087" lon="5.63096">
        <ele>1315.328</ele>
        <time>2020-09-02T10:32:47Z</time>
      </trkpt>
      <trkpt lat="44.14091" lon="5.63106">
        <ele>1314.656</ele>
        <time>2020-09-02T10:32:48Z</time>
      </trkpt>
      <trkpt lat="44.14095" lon="5.63115">
        <ele>1314.162</ele>
        <time>2020-09-02T10:32:49Z</time>
      </trkpt>
      <trkpt lat="44.14098" lon="5.63125">
        <ele>1313.855</ele>
        <time>2020-09-02T10:32:50Z</time>
      </trkpt>
      <trkpt lat="44.14101" lon="5.63136">
        <ele>1314.452</ele>
        <time>2020-09-02T10:32:51Z</time>
      </trkpt>
      <trkpt lat="44.14103" lon="5.63147">
        <ele>1314.953</ele>
        <time>2020-09-02T10:32:52Z</time>
      </trkpt>
      <trkpt lat="44.14104" lon="5.63158">
        <ele>1316.108</ele>
        <time>2020-09-02T10:32:53Z</time>
      </trkpt>
      <trkpt lat="44.14105" lon="5.63169">
        <ele>1316.508</ele>
        <time>2020-09-02T10:32:54Z</time>
      </trkpt>
      <trkpt lat="44.14105" lon="5.63177">
        <ele>1317.183</ele>
        <time>2020-09-02T10:32:55Z</time>
      </trkpt>
      <trkpt lat="44.14107" lon="5.63186">
        <ele>1317.422</ele>
        <time>2020-09-02T10:32:56Z</time>
      </trkpt>
      <trkpt lat="44.14111" lon="5.63194">
        <ele>1317.432</ele>
        <time>2020-09-02T10:32:57Z</time>
      </trkpt>
      <trkpt lat="44.14116" lon="5.63196">
        <ele>1317.689</ele>
        <time>2020-09-02T10:32:58Z</time>
      </trkpt>
      <trkpt lat="44.14121" lon="5.63201">
        <ele>1317.29</ele>
        <time>2020-09-02T10:32:59Z</time>
      </trkpt>
      <trkpt lat="44.14127" lon="5.63206">
        <ele>1316.988</ele>
        <time>2020-09-02T10:33:00Z</time>
      </trkpt>
      <trkpt lat="44.14132" lon="5.63215">
        <ele>1317.024</ele>
        <time>2020-09-02T10:33:01Z</time>
      </trkpt>
      <trkpt lat="44.14136" lon="5.63222">
        <ele>1315.747</ele>
        <time>2020-09-02T10:33:02Z</time>
      </trkpt>
      <trkpt lat="44.14141" lon="5.63228">
        <ele>1315.969</ele>
        <time>2020-09-02T10:33:03Z</time>
      </trkpt>
      <trkpt lat="44.14144" lon="5.63237">
        <ele>1316.004</ele>
        <time>2020-09-02T10:33:04Z</time>
      </trkpt>
      <trkpt lat="44.14147" lon="5.63247">
        <ele>1315.624</ele>
        <time>2020-09-02T10:33:05Z</time>
      </trkpt>
      <trkpt lat="44.14149" lon="5.63257">
        <ele>1315.408</ele>
        <time>2020-09-02T10:33:06Z</time>
      </trkpt>
      <trkpt lat="44.1415" lon="5.63267">
        <ele>1314.834</ele>
        <time>2020-09-02T10:33:07Z</time>
      </trkpt>
      <trkpt lat="44.14149" lon="5.63277">
        <ele>1313.423</ele>
        <time>2020-09-02T10:33:08Z</time>
      </trkpt>
      <trkpt lat="44.1415" lon="5.63288">
        <ele>1312.833</ele>
        <time>2020-09-02T10:33:09Z</time>
      </trkpt>
      <trkpt lat="44.14151" lon="5.63299">
        <ele>1313.35</ele>
        <time>2020-09-02T10:33:10Z</time>
      </trkpt>
      <trkpt lat="44.1415" lon="5.63312">
        <ele>1313.611</ele>
        <time>2020-09-02T10:33:11Z</time>
      </trkpt>
      <trkpt lat="44.14149" lon="5.63325">
        <ele>1313.959</ele>
        <time>2020-09-02T10:33:12Z</time>
      </trkpt>
      <trkpt lat="44.14148" lon="5.63339">
        <ele>1314.685</ele>
        <time>2020-09-02T10:33:13Z</time>
      </trkpt>
      <trkpt lat="44.14147" lon="5.6335">
        <ele>1314.578</ele>
        <time>2020-09-02T10:33:14Z</time>
      </trkpt>
      <trkpt lat="44.14146" lon="5.63361">
        <ele>1314.287</ele>
        <time>2020-09-02T10:33:15Z</time>
      </trkpt>
      <trkpt lat="44.14144" lon="5.63373">
        <ele>1314.142</ele>
        <time>2020-09-02T10:33:16Z</time>
      </trkpt>
      <trkpt lat="44.14142" lon="5.63385">
        <ele>1314.126</ele>
        <time>2020-09-02T10:33:17Z</time>
      </trkpt>
      <trkpt lat="44.1414" lon="5.63398">
        <ele>1313.508</ele>
        <time>2020-09-02T10:33:18Z</time>
      </trkpt>
      <trkpt lat="44.14137" lon="5.63411">
        <ele>1312.966</ele>
        <time>2020-09-02T10:33:19Z</time>
      </trkpt>
      <trkpt lat="44.14134" lon="5.63424">
        <ele>1312.345</ele>
        <time>2020-09-02T10:33:20Z</time>
      </trkpt>
      <trkpt lat="44.1413" lon="5.63436">
        <ele>1311.135</ele>
        <time>2020-09-02T10:33:21Z</time>
      </trkpt>
      <trkpt lat="44.14126" lon="5.63447">
        <ele>1310.622</ele>
        <time>2020-09-02T10:33:22Z</time>
      </trkpt>
      <trkpt lat="44.14122" lon="5.63458">
        <ele>1310.443</ele>
        <time>2020-09-02T10:33:23Z</time>
      </trkpt>
      <trkpt lat="44.14119" lon="5.63467">
        <ele>1310.611</ele>
        <time>2020-09-02T10:33:24Z</time>
      </trkpt>
      <trkpt lat="44.14116" lon="5.63475">
        <ele>1310.477</ele>
        <time>2020-09-02T10:33:25Z</time>
      </trkpt>
      <trkpt lat="44.14114" lon="5.63485">
        <ele>1309.35</ele>
        <time>2020-09-02T10:33:26Z</time>
      </trkpt>
      <trkpt lat="44.1411" lon="5.63494">
        <ele>1309.455</ele>
        <time>2020-09-02T10:33:27Z</time>
      </trkpt>
      <trkpt lat="44.14105" lon="5.63504">
        <ele>1309.607</ele>
        <time>2020-09-02T10:33:28Z</time>
      </trkpt>
      <trkpt lat="44.14099" lon="5.63515">
        <ele>1309.517</ele>
        <time>2020-09-02T10:33:29Z</time>
      </trkpt>
      <trkpt lat="44.14094" lon="5.63525">
        <ele>1309.408</ele>
        <time>2020-09-02T10:33:30Z</time>
      </trkpt>
      <trkpt lat="44.14089" lon="5.63534">
        <ele>1309.523</ele>
        <time>2020-09-02T10:33:31Z</time>
      </trkpt>
      <trkpt lat="44.14086" lon="5.63543">
        <ele>1309.112</ele>
        <time>2020-09-02T10:33:32Z</time>
      </trkpt>
      <trkpt lat="44.14084" lon="5.63552">
        <ele>1308.812</ele>
        <time>2020-09-02T10:33:33Z</time>
      </trkpt>
      <trkpt lat="44.14083" lon="5.63558">
        <ele>1308.499</ele>
        <time>2020-09-02T10:33:34Z</time>
      </trkpt>
      <trkpt lat="44.1408" lon="5.63564">
        <ele>1308.84</ele>
        <time>2020-09-02T10:33:36Z</time>
      </trkpt>
      <trkpt lat="44.14078" lon="5.6357">
        <ele>1308.788</ele>
        <time>2020-09-02T10:33:38Z</time>
      </trkpt>
      <trkpt lat="44.14078" lon="5.63576">
        <ele>1308.144</ele>
        <time>2020-09-02T10:33:41Z</time>
      </trkpt>
      <trkpt lat="44.14081" lon="5.63571">
        <ele>1306.937</ele>
        <time>2020-09-02T10:34:27Z</time>
      </trkpt>
      <trkpt lat="44.14089" lon="5.63568">
        <ele>1306.712</ele>
        <time>2020-09-02T10:35:15Z</time>
      </trkpt>
      <trkpt lat="44.14093" lon="5.63565">
        <ele>1306.632</ele>
        <time>2020-09-02T10:35:16Z</time>
      </trkpt>
      <trkpt lat="44.14098" lon="5.6356">
        <ele>1306.805</ele>
        <time>2020-09-02T10:35:17Z</time>
      </trkpt>
      <trkpt lat="44.14104" lon="5.63554">
        <ele>1306.708</ele>
        <time>2020-09-02T10:35:18Z</time>
      </trkpt>
      <trkpt lat="44.14108" lon="5.63549">
        <ele>1306.939</ele>
        <time>2020-09-02T10:35:19Z</time>
      </trkpt>
      <trkpt lat="44.14113" lon="5.63543">
        <ele>1307.018</ele>
        <time>2020-09-02T10:35:20Z</time>
      </trkpt>
      <trkpt lat="44.14119" lon="5.63538">
        <ele>1307.198</ele>
        <time>2020-09-02T10:35:21Z</time>
      </trkpt>
      <trkpt lat="44.14126" lon="5.63534">
        <ele>1307.535</ele>
        <time>2020-09-02T10:35:22Z</time>
      </trkpt>
      <trkpt lat="44.14133" lon="5.63529">
        <ele>1307.696</ele>
        <time>2020-09-02T10:35:23Z</time>
      </trkpt>
      <trkpt lat="44.1414" lon="5.63526">
        <ele>1307.724</ele>
        <time>2020-09-02T10:35:24Z</time>
      </trkpt>
      <trkpt lat="44.14147" lon="5.63524">
        <ele>1307.97</ele>
        <time>2020-09-02T10:35:25Z</time>
      </trkpt>
      <trkpt lat="44.14155" lon="5.63522">
        <ele>1307.843</ele>
        <time>2020-09-02T10:35:26Z</time>
      </trkpt>
      <trkpt lat="44.14163" lon="5.6352">
        <ele>1307.728</ele>
        <time>2020-09-02T10:35:27Z</time>
      </trkpt>
      <trkpt lat="44.1417" lon="5.63518">
        <ele>1308.189</ele>
        <time>2020-09-02T10:35:28Z</time>
      </trkpt>
      <trkpt lat="44.14179" lon="5.63515">
        <ele>1308.417</ele>
        <time>2020-09-02T10:35:29Z</time>
      </trkpt>
      <trkpt lat="44.14187" lon="5.63513">
        <ele>1309.008</ele>
        <time>2020-09-02T10:35:30Z</time>
      </trkpt>
      <trkpt lat="44.14195" lon="5.63511">
        <ele>1309.32</ele>
        <time>2020-09-02T10:35:31Z</time>
      </trkpt>
      <trkpt lat="44.14203" lon="5.63508">
        <ele>1309.669</ele>
        <time>2020-09-02T10:35:32Z</time>
      </trkpt>
      <trkpt lat="44.14212" lon="5.63508">
        <ele>1309.999</ele>
        <time>2020-09-02T10:35:33Z</time>
      </trkpt>
      <trkpt lat="44.1422" lon="5.63506">
        <ele>1309.516</ele>
        <time>2020-09-02T10:35:34Z</time>
      </trkpt>
      <trkpt lat="44.14229" lon="5.63503">
        <ele>1309.517</ele>
        <time>2020-09-02T10:35:35Z</time>
      </trkpt>
      <trkpt lat="44.14238" lon="5.635">
        <ele>1310.415</ele>
        <time>2020-09-02T10:35:36Z</time>
      </trkpt>
      <trkpt lat="44.14248" lon="5.63496">
        <ele>1310.651</ele>
        <time>2020-09-02T10:35:37Z</time>
      </trkpt>
      <trkpt lat="44.14257" lon="5.63493">
        <ele>1311.544</ele>
        <time>2020-09-02T10:35:38Z</time>
      </trkpt>
      <trkpt lat="44.14266" lon="5.6349">
        <ele>1311.034</ele>
        <time>2020-09-02T10:35:39Z</time>
      </trkpt>
      <trkpt lat="44.14274" lon="5.63488">
        <ele>1310.755</ele>
        <time>2020-09-02T10:35:40Z</time>
      </trkpt>
      <trkpt lat="44.14284" lon="5.63485">
        <ele>1311.01</ele>
        <time>2020-09-02T10:35:41Z</time>
      </trkpt>
      <trkpt lat="44.14293" lon="5.63483">
        <ele>1311.208</ele>
        <time>2020-09-02T10:35:42Z</time>
      </trkpt>
      <trkpt lat="44.14303" lon="5.63481">
        <ele>1311.051</ele>
        <time>2020-09-02T10:35:43Z</time>
      </trkpt>
      <trkpt lat="44.14312" lon="5.63476">
        <ele>1311.72</ele>
        <time>2020-09-02T10:35:44Z</time>
      </trkpt>
      <trkpt lat="44.14321" lon="5.63468">
        <ele>1312.04</ele>
        <time>2020-09-02T10:35:45Z</time>
      </trkpt>
      <trkpt lat="44.1433" lon="5.63462">
        <ele>1312.687</ele>
        <time>2020-09-02T10:35:46Z</time>
      </trkpt>
      <trkpt lat="44.14338" lon="5.63455">
        <ele>1313.258</ele>
        <time>2020-09-02T10:35:47Z</time>
      </trkpt>
      <trkpt lat="44.14347" lon="5.63449">
        <ele>1313.516</ele>
        <time>2020-09-02T10:35:48Z</time>
      </trkpt>
      <trkpt lat="44.14356" lon="5.63444">
        <ele>1313.452</ele>
        <time>2020-09-02T10:35:49Z</time>
      </trkpt>
      <trkpt lat="44.14364" lon="5.63441">
        <ele>1313.615</ele>
        <time>2020-09-02T10:35:50Z</time>
      </trkpt>
      <trkpt lat="44.14374" lon="5.63441">
        <ele>1313.566</ele>
        <time>2020-09-02T10:35:51Z</time>
      </trkpt>
      <trkpt lat="44.14383" lon="5.63445">
        <ele>1313.729</ele>
        <time>2020-09-02T10:35:52Z</time>
      </trkpt>
      <trkpt lat="44.14392" lon="5.63451">
        <ele>1313.721</ele>
        <time>2020-09-02T10:35:53Z</time>
      </trkpt>
      <trkpt lat="44.14402" lon="5.63457">
        <ele>1314.108</ele>
        <time>2020-09-02T10:35:54Z</time>
      </trkpt>
      <trkpt lat="44.14413" lon="5.6346">
        <ele>1315.094</ele>
        <time>2020-09-02T10:35:55Z</time>
      </trkpt>
      <trkpt lat="44.14425" lon="5.63463">
        <ele>1316.183</ele>
        <time>2020-09-02T10:35:56Z</time>
      </trkpt>
      <trkpt lat="44.14436" lon="5.63467">
        <ele>1316.743</ele>
        <time>2020-09-02T10:35:57Z</time>
      </trkpt>
      <trkpt lat="44.14448" lon="5.63472">
        <ele>1317.74</ele>
        <time>2020-09-02T10:35:58Z</time>
      </trkpt>
      <trkpt lat="44.1446" lon="5.63477">
        <ele>1318.281</ele>
        <time>2020-09-02T10:35:59Z</time>
      </trkpt>
      <trkpt lat="44.14472" lon="5.63481">
        <ele>1319.279</ele>
        <time>2020-09-02T10:36:00Z</time>
      </trkpt>
      <trkpt lat="44.14485" lon="5.63485">
        <ele>1320.575</ele>
        <time>2020-09-02T10:36:01Z</time>
      </trkpt>
      <trkpt lat="44.14499" lon="5.63489">
        <ele>1321.088</ele>
        <time>2020-09-02T10:36:02Z</time>
      </trkpt>
      <trkpt lat="44.14512" lon="5.63492">
        <ele>1321.216</ele>
        <time>2020-09-02T10:36:03Z</time>
      </trkpt>
      <trkpt lat="44.14527" lon="5.63495">
        <ele>1323.476</ele>
        <time>2020-09-02T10:36:04Z</time>
      </trkpt>
      <trkpt lat="44.1454" lon="5.635">
        <ele>1324.813</ele>
        <time>2020-09-02T10:36:05Z</time>
      </trkpt>
      <trkpt lat="44.14553" lon="5.63505">
        <ele>1326.408</ele>
        <time>2020-09-02T10:36:06Z</time>
      </trkpt>
      <trkpt lat="44.14567" lon="5.63509">
        <ele>1328.189</ele>
        <time>2020-09-02T10:36:07Z</time>
      </trkpt>
      <trkpt lat="44.14581" lon="5.63514">
        <ele>1329.328</ele>
        <time>2020-09-02T10:36:08Z</time>
      </trkpt>
      <trkpt lat="44.14594" lon="5.6352">
        <ele>1330.018</ele>
        <time>2020-09-02T10:36:09Z</time>
      </trkpt>
      <trkpt lat="44.14607" lon="5.63526">
        <ele>1331.575</ele>
        <time>2020-09-02T10:36:10Z</time>
      </trkpt>
      <trkpt lat="44.14621" lon="5.6353">
        <ele>1332.636</ele>
        <time>2020-09-02T10:36:11Z</time>
      </trkpt>
      <trkpt lat="44.14636" lon="5.63534">
        <ele>1334.014</ele>
        <time>2020-09-02T10:36:12Z</time>
      </trkpt>
      <trkpt lat="44.14649" lon="5.63537">
        <ele>1335.19</ele>
        <time>2020-09-02T10:36:13Z</time>
      </trkpt>
      <trkpt lat="44.14663" lon="5.63543">
        <ele>1335.983</ele>
        <time>2020-09-02T10:36:14Z</time>
      </trkpt>
      <trkpt lat="44.14677" lon="5.63548">
        <ele>1337.451</ele>
        <time>2020-09-02T10:36:15Z</time>
      </trkpt>
      <trkpt lat="44.14692" lon="5.63554">
        <ele>1338.401</ele>
        <time>2020-09-02T10:36:16Z</time>
      </trkpt>
      <trkpt lat="44.14705" lon="5.6356">
        <ele>1339.711</ele>
        <time>2020-09-02T10:36:17Z</time>
      </trkpt>
      <trkpt lat="44.1472" lon="5.63565">
        <ele>1341.308</ele>
        <time>2020-09-02T10:36:18Z</time>
      </trkpt>
      <trkpt lat="44.14733" lon="5.6357">
        <ele>1342.793</ele>
        <time>2020-09-02T10:36:19Z</time>
      </trkpt>
      <trkpt lat="44.14746" lon="5.63574">
        <ele>1343.952</ele>
        <time>2020-09-02T10:36:20Z</time>
      </trkpt>
      <trkpt lat="44.1476" lon="5.63577">
        <ele>1345.382</ele>
        <time>2020-09-02T10:36:21Z</time>
      </trkpt>
      <trkpt lat="44.14774" lon="5.6358">
        <ele>1347.559</ele>
        <time>2020-09-02T10:36:22Z</time>
      </trkpt>
      <trkpt lat="44.14788" lon="5.63582">
        <ele>1349.05</ele>
        <time>2020-09-02T10:36:23Z</time>
      </trkpt>
      <trkpt lat="44.14801" lon="5.63586">
        <ele>1351.098</ele>
        <time>2020-09-02T10:36:24Z</time>
      </trkpt>
      <trkpt lat="44.1481" lon="5.6359">
        <ele>1352.084</ele>
        <time>2020-09-02T10:36:25Z</time>
      </trkpt>
      <trkpt lat="44.1482" lon="5.63593">
        <ele>1352.917</ele>
        <time>2020-09-02T10:36:26Z</time>
      </trkpt>
      <trkpt lat="44.14828" lon="5.63593">
        <ele>1354.275</ele>
        <time>2020-09-02T10:36:27Z</time>
      </trkpt>
      <trkpt lat="44.14836" lon="5.6359">
        <ele>1354.928</ele>
        <time>2020-09-02T10:36:28Z</time>
      </trkpt>
      <trkpt lat="44.14845" lon="5.63586">
        <ele>1356.22</ele>
        <time>2020-09-02T10:36:29Z</time>
      </trkpt>
      <trkpt lat="44.14854" lon="5.6358">
        <ele>1357.808</ele>
        <time>2020-09-02T10:36:30Z</time>
      </trkpt>
      <trkpt lat="44.14863" lon="5.63572">
        <ele>1358.525</ele>
        <time>2020-09-02T10:36:31Z</time>
      </trkpt>
      <trkpt lat="44.14872" lon="5.63566">
        <ele>1359.644</ele>
        <time>2020-09-02T10:36:32Z</time>
      </trkpt>
      <trkpt lat="44.14881" lon="5.63559">
        <ele>1360.374</ele>
        <time>2020-09-02T10:36:33Z</time>
      </trkpt>
      <trkpt lat="44.14888" lon="5.63552">
        <ele>1361.831</ele>
        <time>2020-09-02T10:36:34Z</time>
      </trkpt>
      <trkpt lat="44.14894" lon="5.63546">
        <ele>1362.242</ele>
        <time>2020-09-02T10:36:35Z</time>
      </trkpt>
      <trkpt lat="44.149" lon="5.63541">
        <ele>1362.55</ele>
        <time>2020-09-02T10:36:36Z</time>
      </trkpt>
      <trkpt lat="44.14906" lon="5.63538">
        <ele>1363.386</ele>
        <time>2020-09-02T10:36:37Z</time>
      </trkpt>
      <trkpt lat="44.1491" lon="5.63537">
        <ele>1364.089</ele>
        <time>2020-09-02T10:36:38Z</time>
      </trkpt>
      <trkpt lat="44.14916" lon="5.63541">
        <ele>1364.384</ele>
        <time>2020-09-02T10:36:40Z</time>
      </trkpt>
      <trkpt lat="44.14917" lon="5.63552">
        <ele>1365.907</ele>
        <time>2020-09-02T10:36:43Z</time>
      </trkpt>
      <trkpt lat="44.14916" lon="5.63559">
        <ele>1366.017</ele>
        <time>2020-09-02T10:36:44Z</time>
      </trkpt>
      <trkpt lat="44.14915" lon="5.63568">
        <ele>1366.408</ele>
        <time>2020-09-02T10:36:45Z</time>
      </trkpt>
      <trkpt lat="44.14917" lon="5.63576">
        <ele>1366.416</ele>
        <time>2020-09-02T10:36:46Z</time>
      </trkpt>
      <trkpt lat="44.14919" lon="5.63585">
        <ele>1366.515</ele>
        <time>2020-09-02T10:36:47Z</time>
      </trkpt>
      <trkpt lat="44.14921" lon="5.63593">
        <ele>1366.125</ele>
        <time>2020-09-02T10:36:48Z</time>
      </trkpt>
      <trkpt lat="44.14923" lon="5.63602">
        <ele>1366.382</ele>
        <time>2020-09-02T10:36:49Z</time>
      </trkpt>
      <trkpt lat="44.14926" lon="5.63613">
        <ele>1367.093</ele>
        <time>2020-09-02T10:36:50Z</time>
      </trkpt>
      <trkpt lat="44.14928" lon="5.63623">
        <ele>1367.191</ele>
        <time>2020-09-02T10:36:51Z</time>
      </trkpt>
      <trkpt lat="44.1493" lon="5.63633">
        <ele>1367.927</ele>
        <time>2020-09-02T10:36:52Z</time>
      </trkpt>
      <trkpt lat="44.14933" lon="5.63642">
        <ele>1367.73</ele>
        <time>2020-09-02T10:36:53Z</time>
      </trkpt>
      <trkpt lat="44.14933" lon="5.63651">
        <ele>1367.648</ele>
        <time>2020-09-02T10:36:54Z</time>
      </trkpt>
      <trkpt lat="44.14934" lon="5.63661">
        <ele>1367.561</ele>
        <time>2020-09-02T10:36:55Z</time>
      </trkpt>
      <trkpt lat="44.14935" lon="5.6367">
        <ele>1367.617</ele>
        <time>2020-09-02T10:36:56Z</time>
      </trkpt>
      <trkpt lat="44.14937" lon="5.6368">
        <ele>1367.008</ele>
        <time>2020-09-02T10:36:57Z</time>
      </trkpt>
      <trkpt lat="44.14939" lon="5.63689">
        <ele>1367.142</ele>
        <time>2020-09-02T10:36:58Z</time>
      </trkpt>
      <trkpt lat="44.1494" lon="5.63698">
        <ele>1366.851</ele>
        <time>2020-09-02T10:36:59Z</time>
      </trkpt>
      <trkpt lat="44.14943" lon="5.63707">
        <ele>1366.641</ele>
        <time>2020-09-02T10:37:00Z</time>
      </trkpt>
      <trkpt lat="44.14947" lon="5.63716">
        <ele>1366.548</ele>
        <time>2020-09-02T10:37:01Z</time>
      </trkpt>
      <trkpt lat="44.1495" lon="5.63725">
        <ele>1366.899</ele>
        <time>2020-09-02T10:37:02Z</time>
      </trkpt>
      <trkpt lat="44.14954" lon="5.63735">
        <ele>1366.547</ele>
        <time>2020-09-02T10:37:03Z</time>
      </trkpt>
      <trkpt lat="44.14958" lon="5.63745">
        <ele>1367.153</ele>
        <time>2020-09-02T10:37:04Z</time>
      </trkpt>
      <trkpt lat="44.14961" lon="5.63755">
        <ele>1366.746</ele>
        <time>2020-09-02T10:37:05Z</time>
      </trkpt>
      <trkpt lat="44.14964" lon="5.63765">
        <ele>1366.988</ele>
        <time>2020-09-02T10:37:06Z</time>
      </trkpt>
      <trkpt lat="44.14966" lon="5.63777">
        <ele>1367.424</ele>
        <time>2020-09-02T10:37:07Z</time>
      </trkpt>
      <trkpt lat="44.14968" lon="5.63789">
        <ele>1367.326</ele>
        <time>2020-09-02T10:37:08Z</time>
      </trkpt>
      <trkpt lat="44.14969" lon="5.63802">
        <ele>1368.008</ele>
        <time>2020-09-02T10:37:09Z</time>
      </trkpt>
      <trkpt lat="44.14969" lon="5.63814">
        <ele>1368.636</ele>
        <time>2020-09-02T10:37:10Z</time>
      </trkpt>
      <trkpt lat="44.14969" lon="5.63827">
        <ele>1368.895</ele>
        <time>2020-09-02T10:37:11Z</time>
      </trkpt>
      <trkpt lat="44.14968" lon="5.6384">
        <ele>1370.415</ele>
        <time>2020-09-02T10:37:12Z</time>
      </trkpt>
      <trkpt lat="44.14969" lon="5.63854">
        <ele>1372.242</ele>
        <time>2020-09-02T10:37:13Z</time>
      </trkpt>
      <trkpt lat="44.14969" lon="5.63865">
        <ele>1374.263</ele>
        <time>2020-09-02T10:37:14Z</time>
      </trkpt>
      <trkpt lat="44.14968" lon="5.63877">
        <ele>1375.361</ele>
        <time>2020-09-02T10:37:15Z</time>
      </trkpt>
      <trkpt lat="44.14968" lon="5.63888">
        <ele>1376.577</ele>
        <time>2020-09-02T10:37:16Z</time>
      </trkpt>
      <trkpt lat="44.14965" lon="5.63899">
        <ele>1377.04</ele>
        <time>2020-09-02T10:37:17Z</time>
      </trkpt>
      <trkpt lat="44.14961" lon="5.6391">
        <ele>1377.751</ele>
        <time>2020-09-02T10:37:18Z</time>
      </trkpt>
      <trkpt lat="44.14958" lon="5.63921">
        <ele>1378.901</ele>
        <time>2020-09-02T10:37:19Z</time>
      </trkpt>
      <trkpt lat="44.14956" lon="5.63932">
        <ele>1380.411</ele>
        <time>2020-09-02T10:37:20Z</time>
      </trkpt>
      <trkpt lat="44.14954" lon="5.63944">
        <ele>1381.308</ele>
        <time>2020-09-02T10:37:21Z</time>
      </trkpt>
      <trkpt lat="44.14952" lon="5.63956">
        <ele>1382.393</ele>
        <time>2020-09-02T10:37:22Z</time>
      </trkpt>
      <trkpt lat="44.14951" lon="5.63969">
        <ele>1383.732</ele>
        <time>2020-09-02T10:37:23Z</time>
      </trkpt>
      <trkpt lat="44.1495" lon="5.63983">
        <ele>1385.462</ele>
        <time>2020-09-02T10:37:24Z</time>
      </trkpt>
      <trkpt lat="44.1495" lon="5.63997">
        <ele>1387.689</ele>
        <time>2020-09-02T10:37:25Z</time>
      </trkpt>
      <trkpt lat="44.14949" lon="5.64012">
        <ele>1389.77</ele>
        <time>2020-09-02T10:37:26Z</time>
      </trkpt>
      <trkpt lat="44.14948" lon="5.64028">
        <ele>1391.688</ele>
        <time>2020-09-02T10:37:27Z</time>
      </trkpt>
      <trkpt lat="44.14947" lon="5.64044">
        <ele>1394.774</ele>
        <time>2020-09-02T10:37:28Z</time>
      </trkpt>
      <trkpt lat="44.14947" lon="5.64059">
        <ele>1397.127</ele>
        <time>2020-09-02T10:37:29Z</time>
      </trkpt>
      <trkpt lat="44.14946" lon="5.64073">
        <ele>1399.364</ele>
        <time>2020-09-02T10:37:30Z</time>
      </trkpt>
      <trkpt lat="44.14945" lon="5.64086">
        <ele>1401.006</ele>
        <time>2020-09-02T10:37:31Z</time>
      </trkpt>
      <trkpt lat="44.14944" lon="5.641">
        <ele>1403.816</ele>
        <time>2020-09-02T10:37:32Z</time>
      </trkpt>
      <trkpt lat="44.14944" lon="5.64113">
        <ele>1405.308</ele>
        <time>2020-09-02T10:37:33Z</time>
      </trkpt>
      <trkpt lat="44.14944" lon="5.64125">
        <ele>1406.374</ele>
        <time>2020-09-02T10:37:34Z</time>
      </trkpt>
      <trkpt lat="44.14944" lon="5.64134">
        <ele>1406.953</ele>
        <time>2020-09-02T10:37:35Z</time>
      </trkpt>
      <trkpt lat="44.14946" lon="5.6414">
        <ele>1407.673</ele>
        <time>2020-09-02T10:37:36Z</time>
      </trkpt>
      <trkpt lat="44.14948" lon="5.64148">
        <ele>1408.77</ele>
        <time>2020-09-02T10:37:38Z</time>
      </trkpt>
      <trkpt lat="44.14949" lon="5.64155">
        <ele>1409.711</ele>
        <time>2020-09-02T10:39:08Z</time>
      </trkpt>
      <trkpt lat="44.14947" lon="5.64161">
        <ele>1409.489</ele>
        <time>2020-09-02T10:39:10Z</time>
      </trkpt>
      <trkpt lat="44.14942" lon="5.64166">
        <ele>1410.055</ele>
        <time>2020-09-02T10:39:11Z</time>
      </trkpt>
      <trkpt lat="44.14937" lon="5.64172">
        <ele>1410.928</ele>
        <time>2020-09-02T10:39:12Z</time>
      </trkpt>
      <trkpt lat="44.14933" lon="5.64178">
        <ele>1412.139</ele>
        <time>2020-09-02T10:39:13Z</time>
      </trkpt>
      <trkpt lat="44.1493" lon="5.64186">
        <ele>1412.701</ele>
        <time>2020-09-02T10:39:14Z</time>
      </trkpt>
      <trkpt lat="44.14927" lon="5.64194">
        <ele>1412.421</ele>
        <time>2020-09-02T10:39:15Z</time>
      </trkpt>
      <trkpt lat="44.14926" lon="5.64205">
        <ele>1412.808</ele>
        <time>2020-09-02T10:39:16Z</time>
      </trkpt>
      <trkpt lat="44.14925" lon="5.64214">
        <ele>1413.731</ele>
        <time>2020-09-02T10:39:17Z</time>
      </trkpt>
      <trkpt lat="44.14925" lon="5.64224">
        <ele>1413.92</ele>
        <time>2020-09-02T10:39:18Z</time>
      </trkpt>
      <trkpt lat="44.14924" lon="5.64233">
        <ele>1413.63</ele>
        <time>2020-09-02T10:39:19Z</time>
      </trkpt>
      <trkpt lat="44.14923" lon="5.64239">
        <ele>1414.467</ele>
        <time>2020-09-02T10:39:20Z</time>
      </trkpt>
      <trkpt lat="44.14923" lon="5.64247">
        <ele>1414.698</ele>
        <time>2020-09-02T10:39:21Z</time>
      </trkpt>
      <trkpt lat="44.14923" lon="5.64255">
        <ele>1415.396</ele>
        <time>2020-09-02T10:39:22Z</time>
      </trkpt>
      <trkpt lat="44.14923" lon="5.64262">
        <ele>1415.292</ele>
        <time>2020-09-02T10:39:23Z</time>
      </trkpt>
      <trkpt lat="44.14924" lon="5.64276">
        <ele>1415.615</ele>
        <time>2020-09-02T10:39:25Z</time>
      </trkpt>
      <trkpt lat="44.14925" lon="5.64285">
        <ele>1415.135</ele>
        <time>2020-09-02T10:39:26Z</time>
      </trkpt>
      <trkpt lat="44.14925" lon="5.64295">
        <ele>1414.486</ele>
        <time>2020-09-02T10:39:27Z</time>
      </trkpt>
      <trkpt lat="44.14925" lon="5.64305">
        <ele>1414.414</ele>
        <time>2020-09-02T10:39:28Z</time>
      </trkpt>
      <trkpt lat="44.14924" lon="5.64313">
        <ele>1414.008</ele>
        <time>2020-09-02T10:39:29Z</time>
      </trkpt>
      <trkpt lat="44.14924" lon="5.64321">
        <ele>1414.241</ele>
        <time>2020-09-02T10:39:30Z</time>
      </trkpt>
      <trkpt lat="44.14924" lon="5.64328">
        <ele>1414.19</ele>
        <time>2020-09-02T10:39:31Z</time>
      </trkpt>
      <trkpt lat="44.14923" lon="5.6434">
        <ele>1412.92</ele>
        <time>2020-09-02T10:39:33Z</time>
      </trkpt>
      <trkpt lat="44.14922" lon="5.64347">
        <ele>1412.437</ele>
        <time>2020-09-02T10:39:34Z</time>
      </trkpt>
      <trkpt lat="44.14921" lon="5.64354">
        <ele>1411.948</ele>
        <time>2020-09-02T10:39:35Z</time>
      </trkpt>
      <trkpt lat="44.14918" lon="5.64362">
        <ele>1411.276</ele>
        <time>2020-09-02T10:39:36Z</time>
      </trkpt>
      <trkpt lat="44.14917" lon="5.6437">
        <ele>1410.882</ele>
        <time>2020-09-02T10:39:37Z</time>
      </trkpt>
      <trkpt lat="44.14915" lon="5.64378">
        <ele>1411.195</ele>
        <time>2020-09-02T10:39:38Z</time>
      </trkpt>
      <trkpt lat="44.14913" lon="5.64386">
        <ele>1411.392</ele>
        <time>2020-09-02T10:39:39Z</time>
      </trkpt>
      <trkpt lat="44.14912" lon="5.64395">
        <ele>1410.973</ele>
        <time>2020-09-02T10:39:40Z</time>
      </trkpt>
      <trkpt lat="44.14909" lon="5.64403">
        <ele>1411.02</ele>
        <time>2020-09-02T10:39:41Z</time>
      </trkpt>
      <trkpt lat="44.14907" lon="5.64416">
        <ele>1410.108</ele>
        <time>2020-09-02T10:39:42Z</time>
      </trkpt>
      <trkpt lat="44.14904" lon="5.64427">
        <ele>1410.567</ele>
        <time>2020-09-02T10:39:43Z</time>
      </trkpt>
      <trkpt lat="44.14901" lon="5.64437">
        <ele>1411.576</ele>
        <time>2020-09-02T10:39:44Z</time>
      </trkpt>
      <trkpt lat="44.14897" lon="5.64447">
        <ele>1412.436</ele>
        <time>2020-09-02T10:39:45Z</time>
      </trkpt>
      <trkpt lat="44.14893" lon="5.64457">
        <ele>1413.233</ele>
        <time>2020-09-02T10:39:46Z</time>
      </trkpt>
      <trkpt lat="44.14889" lon="5.64467">
        <ele>1414.484</ele>
        <time>2020-09-02T10:39:47Z</time>
      </trkpt>
      <trkpt lat="44.14886" lon="5.64477">
        <ele>1414.382</ele>
        <time>2020-09-02T10:39:48Z</time>
      </trkpt>
      <trkpt lat="44.14881" lon="5.64485">
        <ele>1415.818</ele>
        <time>2020-09-02T10:39:49Z</time>
      </trkpt>
      <trkpt lat="44.14876" lon="5.64495">
        <ele>1416.781</ele>
        <time>2020-09-02T10:39:50Z</time>
      </trkpt>
      <trkpt lat="44.1487" lon="5.64505">
        <ele>1417.793</ele>
        <time>2020-09-02T10:39:51Z</time>
      </trkpt>
      <trkpt lat="44.14865" lon="5.64515">
        <ele>1418.565</ele>
        <time>2020-09-02T10:39:52Z</time>
      </trkpt>
      <trkpt lat="44.14861" lon="5.64527">
        <ele>1419.221</ele>
        <time>2020-09-02T10:39:53Z</time>
      </trkpt>
      <trkpt lat="44.14857" lon="5.64539">
        <ele>1420.208</ele>
        <time>2020-09-02T10:39:54Z</time>
      </trkpt>
      <trkpt lat="44.14853" lon="5.64551">
        <ele>1421.287</ele>
        <time>2020-09-02T10:39:55Z</time>
      </trkpt>
      <trkpt lat="44.14849" lon="5.64562">
        <ele>1422.146</ele>
        <time>2020-09-02T10:39:56Z</time>
      </trkpt>
      <trkpt lat="44.14845" lon="5.64575">
        <ele>1422.856</ele>
        <time>2020-09-02T10:39:57Z</time>
      </trkpt>
      <trkpt lat="44.14842" lon="5.64588">
        <ele>1423.083</ele>
        <time>2020-09-02T10:39:58Z</time>
      </trkpt>
      <trkpt lat="44.14838" lon="5.64602">
        <ele>1423.064</ele>
        <time>2020-09-02T10:39:59Z</time>
      </trkpt>
      <trkpt lat="44.14834" lon="5.64614">
        <ele>1422.622</ele>
        <time>2020-09-02T10:40:00Z</time>
      </trkpt>
      <trkpt lat="44.14831" lon="5.64627">
        <ele>1421.528</ele>
        <time>2020-09-02T10:40:01Z</time>
      </trkpt>
      <trkpt lat="44.14827" lon="5.64638">
        <ele>1421.761</ele>
        <time>2020-09-02T10:40:02Z</time>
      </trkpt>
      <trkpt lat="44.14823" lon="5.64648">
        <ele>1421.362</ele>
        <time>2020-09-02T10:40:03Z</time>
      </trkpt>
      <trkpt lat="44.14821" lon="5.64658">
        <ele>1420.483</ele>
        <time>2020-09-02T10:40:04Z</time>
      </trkpt>
      <trkpt lat="44.1482" lon="5.64667">
        <ele>1419.211</ele>
        <time>2020-09-02T10:40:05Z</time>
      </trkpt>
      <trkpt lat="44.1482" lon="5.64674">
        <ele>1418.908</ele>
        <time>2020-09-02T10:40:06Z</time>
      </trkpt>
      <trkpt lat="44.1482" lon="5.64681">
        <ele>1417.514</ele>
        <time>2020-09-02T10:40:07Z</time>
      </trkpt>
      <trkpt lat="44.14821" lon="5.64689">
        <ele>1416.393</ele>
        <time>2020-09-02T10:40:08Z</time>
      </trkpt>
      <trkpt lat="44.14821" lon="5.64696">
        <ele>1415.623</ele>
        <time>2020-09-02T10:40:09Z</time>
      </trkpt>
      <trkpt lat="44.14822" lon="5.64703">
        <ele>1414.94</ele>
        <time>2020-09-02T10:40:10Z</time>
      </trkpt>
      <trkpt lat="44.14822" lon="5.6471">
        <ele>1414.471</ele>
        <time>2020-09-02T10:40:11Z</time>
      </trkpt>
      <trkpt lat="44.14822" lon="5.64718">
        <ele>1413.259</ele>
        <time>2020-09-02T10:40:12Z</time>
      </trkpt>
      <trkpt lat="44.14822" lon="5.64728">
        <ele>1412.145</ele>
        <time>2020-09-02T10:40:13Z</time>
      </trkpt>
      <trkpt lat="44.14822" lon="5.64736">
        <ele>1410.828</ele>
        <time>2020-09-02T10:40:14Z</time>
      </trkpt>
      <trkpt lat="44.1482" lon="5.64745">
        <ele>1410.223</ele>
        <time>2020-09-02T10:40:15Z</time>
      </trkpt>
      <trkpt lat="44.1482" lon="5.64755">
        <ele>1408.983</ele>
        <time>2020-09-02T10:40:16Z</time>
      </trkpt>
      <trkpt lat="44.14819" lon="5.64763">
        <ele>1408.311</ele>
        <time>2020-09-02T10:40:17Z</time>
      </trkpt>
      <trkpt lat="44.1482" lon="5.64772">
        <ele>1407.108</ele>
        <time>2020-09-02T10:40:18Z</time>
      </trkpt>
      <trkpt lat="44.14819" lon="5.64783">
        <ele>1406.28</ele>
        <time>2020-09-02T10:40:19Z</time>
      </trkpt>
      <trkpt lat="44.1482" lon="5.64792">
        <ele>1404.579</ele>
        <time>2020-09-02T10:40:20Z</time>
      </trkpt>
      <trkpt lat="44.1482" lon="5.64802">
        <ele>1403.489</ele>
        <time>2020-09-02T10:40:21Z</time>
      </trkpt>
      <trkpt lat="44.1482" lon="5.64812">
        <ele>1402.346</ele>
        <time>2020-09-02T10:40:22Z</time>
      </trkpt>
      <trkpt lat="44.14821" lon="5.64821">
        <ele>1400.567</ele>
        <time>2020-09-02T10:40:23Z</time>
      </trkpt>
      <trkpt lat="44.14822" lon="5.64831">
        <ele>1399.255</ele>
        <time>2020-09-02T10:40:24Z</time>
      </trkpt>
      <trkpt lat="44.14824" lon="5.64842">
        <ele>1398.141</ele>
        <time>2020-09-02T10:40:25Z</time>
      </trkpt>
      <trkpt lat="44.14826" lon="5.64852">
        <ele>1397.554</ele>
        <time>2020-09-02T10:40:26Z</time>
      </trkpt>
      <trkpt lat="44.14827" lon="5.64863">
        <ele>1396.051</ele>
        <time>2020-09-02T10:40:27Z</time>
      </trkpt>
      <trkpt lat="44.14828" lon="5.64873">
        <ele>1395.101</ele>
        <time>2020-09-02T10:40:28Z</time>
      </trkpt>
      <trkpt lat="44.1483" lon="5.64883">
        <ele>1393.811</ele>
        <time>2020-09-02T10:40:29Z</time>
      </trkpt>
      <trkpt lat="44.14832" lon="5.64893">
        <ele>1393.608</ele>
        <time>2020-09-02T10:40:30Z</time>
      </trkpt>
      <trkpt lat="44.14834" lon="5.64905">
        <ele>1393.533</ele>
        <time>2020-09-02T10:40:31Z</time>
      </trkpt>
      <trkpt lat="44.14836" lon="5.64916">
        <ele>1392.592</ele>
        <time>2020-09-02T10:40:32Z</time>
      </trkpt>
      <trkpt lat="44.14836" lon="5.64929">
        <ele>1392.442</ele>
        <time>2020-09-02T10:40:33Z</time>
      </trkpt>
      <trkpt lat="44.14837" lon="5.64942">
        <ele>1391.229</ele>
        <time>2020-09-02T10:40:34Z</time>
      </trkpt>
      <trkpt lat="44.14838" lon="5.64953">
        <ele>1389.89</ele>
        <time>2020-09-02T10:40:35Z</time>
      </trkpt>
      <trkpt lat="44.14837" lon="5.64965">
        <ele>1388.998</ele>
        <time>2020-09-02T10:40:36Z</time>
      </trkpt>
      <trkpt lat="44.14838" lon="5.64978">
        <ele>1389.744</ele>
        <time>2020-09-02T10:40:37Z</time>
      </trkpt>
      <trkpt lat="44.14839" lon="5.64992">
        <ele>1390.067</ele>
        <time>2020-09-02T10:40:38Z</time>
      </trkpt>
      <trkpt lat="44.1484" lon="5.65005">
        <ele>1390.365</ele>
        <time>2020-09-02T10:40:39Z</time>
      </trkpt>
      <trkpt lat="44.14839" lon="5.65018">
        <ele>1388.768</ele>
        <time>2020-09-02T10:40:40Z</time>
      </trkpt>
      <trkpt lat="44.14841" lon="5.65033">
        <ele>1389.014</ele>
        <time>2020-09-02T10:40:41Z</time>
      </trkpt>
      <trkpt lat="44.14841" lon="5.65048">
        <ele>1389.508</ele>
        <time>2020-09-02T10:40:42Z</time>
      </trkpt>
      <trkpt lat="44.14842" lon="5.65062">
        <ele>1390.944</ele>
        <time>2020-09-02T10:40:43Z</time>
      </trkpt>
      <trkpt lat="44.14842" lon="5.65076">
        <ele>1391.623</ele>
        <time>2020-09-02T10:40:44Z</time>
      </trkpt>
      <trkpt lat="44.14841" lon="5.65089">
        <ele>1392.513</ele>
        <time>2020-09-02T10:40:45Z</time>
      </trkpt>
      <trkpt lat="44.1484" lon="5.65101">
        <ele>1393.87</ele>
        <time>2020-09-02T10:40:46Z</time>
      </trkpt>
      <trkpt lat="44.14839" lon="5.65113">
        <ele>1393.831</ele>
        <time>2020-09-02T10:40:47Z</time>
      </trkpt>
      <trkpt lat="44.14839" lon="5.65125">
        <ele>1394.049</ele>
        <time>2020-09-02T10:40:48Z</time>
      </trkpt>
      <trkpt lat="44.14838" lon="5.65135">
        <ele>1394.445</ele>
        <time>2020-09-02T10:40:49Z</time>
      </trkpt>
      <trkpt lat="44.14837" lon="5.65146">
        <ele>1395.678</ele>
        <time>2020-09-02T10:40:50Z</time>
      </trkpt>
      <trkpt lat="44.14837" lon="5.65158">
        <ele>1396.212</ele>
        <time>2020-09-02T10:40:51Z</time>
      </trkpt>
      <trkpt lat="44.14835" lon="5.6517">
        <ele>1396.832</ele>
        <time>2020-09-02T10:40:52Z</time>
      </trkpt>
      <trkpt lat="44.14834" lon="5.65183">
        <ele>1397.405</ele>
        <time>2020-09-02T10:40:53Z</time>
      </trkpt>
      <trkpt lat="44.14833" lon="5.65196">
        <ele>1397.508</ele>
        <time>2020-09-02T10:40:54Z</time>
      </trkpt>
      <trkpt lat="44.14832" lon="5.65209">
        <ele>1397.769</ele>
        <time>2020-09-02T10:40:55Z</time>
      </trkpt>
      <trkpt lat="44.14831" lon="5.65222">
        <ele>1397.858</ele>
        <time>2020-09-02T10:40:56Z</time>
      </trkpt>
      <trkpt lat="44.14831" lon="5.65234">
        <ele>1397.768</ele>
        <time>2020-09-02T10:40:57Z</time>
      </trkpt>
      <trkpt lat="44.14831" lon="5.65246">
        <ele>1398.785</ele>
        <time>2020-09-02T10:40:58Z</time>
      </trkpt>
      <trkpt lat="44.14831" lon="5.65257">
        <ele>1398.916</ele>
        <time>2020-09-02T10:40:59Z</time>
      </trkpt>
      <trkpt lat="44.14831" lon="5.65269">
        <ele>1399.864</ele>
        <time>2020-09-02T10:41:00Z</time>
      </trkpt>
      <trkpt lat="44.14831" lon="5.6528">
        <ele>1401.06</ele>
        <time>2020-09-02T10:41:01Z</time>
      </trkpt>
      <trkpt lat="44.1483" lon="5.65293">
        <ele>1401.743</ele>
        <time>2020-09-02T10:41:02Z</time>
      </trkpt>
      <trkpt lat="44.14828" lon="5.65305">
        <ele>1402.661</ele>
        <time>2020-09-02T10:41:03Z</time>
      </trkpt>
      <trkpt lat="44.14825" lon="5.65317">
        <ele>1402.621</ele>
        <time>2020-09-02T10:41:04Z</time>
      </trkpt>
      <trkpt lat="44.14824" lon="5.6533">
        <ele>1401.713</ele>
        <time>2020-09-02T10:41:05Z</time>
      </trkpt>
      <trkpt lat="44.14822" lon="5.65342">
        <ele>1401.908</ele>
        <time>2020-09-02T10:41:06Z</time>
      </trkpt>
      <trkpt lat="44.1482" lon="5.65355">
        <ele>1401.994</ele>
        <time>2020-09-02T10:41:07Z</time>
      </trkpt>
      <trkpt lat="44.14816" lon="5.65367">
        <ele>1402.683</ele>
        <time>2020-09-02T10:41:08Z</time>
      </trkpt>
      <trkpt lat="44.14812" lon="5.65379">
        <ele>1403.613</ele>
        <time>2020-09-02T10:41:09Z</time>
      </trkpt>
      <trkpt lat="44.1481" lon="5.65389">
        <ele>1404.96</ele>
        <time>2020-09-02T10:41:10Z</time>
      </trkpt>
      <trkpt lat="44.14806" lon="5.65398">
        <ele>1406.031</ele>
        <time>2020-09-02T10:41:11Z</time>
      </trkpt>
      <trkpt lat="44.14803" lon="5.65407">
        <ele>1406.149</ele>
        <time>2020-09-02T10:41:12Z</time>
      </trkpt>
      <trkpt lat="44.14801" lon="5.65418">
        <ele>1407.145</ele>
        <time>2020-09-02T10:41:13Z</time>
      </trkpt>
      <trkpt lat="44.14798" lon="5.65427">
        <ele>1407.588</ele>
        <time>2020-09-02T10:41:14Z</time>
      </trkpt>
      <trkpt lat="44.14794" lon="5.65436">
        <ele>1407.684</ele>
        <time>2020-09-02T10:41:15Z</time>
      </trkpt>
      <trkpt lat="44.14791" lon="5.65445">
        <ele>1408.907</ele>
        <time>2020-09-02T10:41:16Z</time>
      </trkpt>
      <trkpt lat="44.14788" lon="5.65454">
        <ele>1410.317</ele>
        <time>2020-09-02T10:41:17Z</time>
      </trkpt>
      <trkpt lat="44.14785" lon="5.65463">
        <ele>1411.608</ele>
        <time>2020-09-02T10:41:18Z</time>
      </trkpt>
      <trkpt lat="44.14782" lon="5.65473">
        <ele>1413.196</ele>
        <time>2020-09-02T10:41:19Z</time>
      </trkpt>
      <trkpt lat="44.14777" lon="5.65483">
        <ele>1414.185</ele>
        <time>2020-09-02T10:41:20Z</time>
      </trkpt>
      <trkpt lat="44.14774" lon="5.65493">
        <ele>1415.415</ele>
        <time>2020-09-02T10:41:21Z</time>
      </trkpt>
      <trkpt lat="44.1477" lon="5.65503">
        <ele>1417.092</ele>
        <time>2020-09-02T10:41:22Z</time>
      </trkpt>
      <trkpt lat="44.14767" lon="5.65512">
        <ele>1417.473</ele>
        <time>2020-09-02T10:41:23Z</time>
      </trkpt>
      <trkpt lat="44.14762" lon="5.65519">
        <ele>1417.831</ele>
        <time>2020-09-02T10:41:24Z</time>
      </trkpt>
      <trkpt lat="44.14758" lon="5.65527">
        <ele>1418.547</ele>
        <time>2020-09-02T10:41:25Z</time>
      </trkpt>
      <trkpt lat="44.14753" lon="5.65534">
        <ele>1419.85</ele>
        <time>2020-09-02T10:41:26Z</time>
      </trkpt>
      <trkpt lat="44.14746" lon="5.65542">
        <ele>1419.842</ele>
        <time>2020-09-02T10:41:27Z</time>
      </trkpt>
      <trkpt lat="44.1474" lon="5.6555">
        <ele>1420.722</ele>
        <time>2020-09-02T10:41:28Z</time>
      </trkpt>
      <trkpt lat="44.14733" lon="5.65558">
        <ele>1422.014</ele>
        <time>2020-09-02T10:41:29Z</time>
      </trkpt>
      <trkpt lat="44.14726" lon="5.65565">
        <ele>1422.708</ele>
        <time>2020-09-02T10:41:30Z</time>
      </trkpt>
      <trkpt lat="44.14719" lon="5.65574">
        <ele>1421.872</ele>
        <time>2020-09-02T10:41:31Z</time>
      </trkpt>
      <trkpt lat="44.14712" lon="5.6558">
        <ele>1422.291</ele>
        <time>2020-09-02T10:41:32Z</time>
      </trkpt>
      <trkpt lat="44.14705" lon="5.65586">
        <ele>1422.871</ele>
        <time>2020-09-02T10:41:33Z</time>
      </trkpt>
      <trkpt lat="44.14697" lon="5.65591">
        <ele>1423.998</ele>
        <time>2020-09-02T10:41:34Z</time>
      </trkpt>
      <trkpt lat="44.1469" lon="5.65596">
        <ele>1424.289</ele>
        <time>2020-09-02T10:41:35Z</time>
      </trkpt>
      <trkpt lat="44.1468" lon="5.65601">
        <ele>1424.457</ele>
        <time>2020-09-02T10:41:36Z</time>
      </trkpt>
      <trkpt lat="44.14672" lon="5.65606">
        <ele>1424.743</ele>
        <time>2020-09-02T10:41:37Z</time>
      </trkpt>
      <trkpt lat="44.14664" lon="5.6561">
        <ele>1424.636</ele>
        <time>2020-09-02T10:41:38Z</time>
      </trkpt>
      <trkpt lat="44.14657" lon="5.65614">
        <ele>1423.166</ele>
        <time>2020-09-02T10:41:39Z</time>
      </trkpt>
      <trkpt lat="44.14648" lon="5.65616">
        <ele>1423.929</ele>
        <time>2020-09-02T10:41:40Z</time>
      </trkpt>
      <trkpt lat="44.14638" lon="5.65618">
        <ele>1424.021</ele>
        <time>2020-09-02T10:41:41Z</time>
      </trkpt>
      <trkpt lat="44.14631" lon="5.65619">
        <ele>1424.308</ele>
        <time>2020-09-02T10:41:42Z</time>
      </trkpt>
      <trkpt lat="44.14624" lon="5.6562">
        <ele>1424.184</ele>
        <time>2020-09-02T10:41:43Z</time>
      </trkpt>
      <trkpt lat="44.14618" lon="5.6562">
        <ele>1424.163</ele>
        <time>2020-09-02T10:41:44Z</time>
      </trkpt>
      <trkpt lat="44.14611" lon="5.65619">
        <ele>1423.723</ele>
        <time>2020-09-02T10:41:45Z</time>
      </trkpt>
      <trkpt lat="44.14604" lon="5.65618">
        <ele>1424.07</ele>
        <time>2020-09-02T10:41:46Z</time>
      </trkpt>
      <trkpt lat="44.14597" lon="5.65617">
        <ele>1424.211</ele>
        <time>2020-09-02T10:41:47Z</time>
      </trkpt>
      <trkpt lat="44.14591" lon="5.65618">
        <ele>1424.949</ele>
        <time>2020-09-02T10:41:48Z</time>
      </trkpt>
      <trkpt lat="44.14586" lon="5.65618">
        <ele>1424.445</ele>
        <time>2020-09-02T10:41:49Z</time>
      </trkpt>
      <trkpt lat="44.14579" lon="5.65617">
        <ele>1423.918</ele>
        <time>2020-09-02T10:41:51Z</time>
      </trkpt>
      <trkpt lat="44.14575" lon="5.65618">
        <ele>1423.681</ele>
        <time>2020-09-02T10:41:52Z</time>
      </trkpt>
      <trkpt lat="44.14577" lon="5.65613">
        <ele>1424.661</ele>
        <time>2020-09-02T10:42:07Z</time>
      </trkpt>
      <trkpt lat="44.14584" lon="5.65616">
        <ele>1425.117</ele>
        <time>2020-09-02T10:42:09Z</time>
      </trkpt>
      <trkpt lat="44.14589" lon="5.6562">
        <ele>1424.808</ele>
        <time>2020-09-02T10:42:11Z</time>
      </trkpt>
      <trkpt lat="44.14594" lon="5.65627">
        <ele>1424.866</ele>
        <time>2020-09-02T10:42:14Z</time>
      </trkpt>
      <trkpt lat="44.14599" lon="5.65633">
        <ele>1424.255</ele>
        <time>2020-09-02T10:42:16Z</time>
      </trkpt>
      <trkpt lat="44.14603" lon="5.6564">
        <ele>1424.055</ele>
        <time>2020-09-02T10:42:18Z</time>
      </trkpt>
      <trkpt lat="44.14602" lon="5.65647">
        <ele>1423.192</ele>
        <time>2020-09-02T10:42:20Z</time>
      </trkpt>
      <trkpt lat="44.14598" lon="5.65656">
        <ele>1422.223</ele>
        <time>2020-09-02T10:42:22Z</time>
      </trkpt>
      <trkpt lat="44.14595" lon="5.65663">
        <ele>1421.361</ele>
        <time>2020-09-02T10:42:24Z</time>
      </trkpt>
      <trkpt lat="44.14592" lon="5.6567">
        <ele>1419.857</ele>
        <time>2020-09-02T10:42:26Z</time>
      </trkpt>
      <trkpt lat="44.1459" lon="5.65679">
        <ele>1418.55</ele>
        <time>2020-09-02T10:42:28Z</time>
      </trkpt>
      <trkpt lat="44.14589" lon="5.65686">
        <ele>1416.424</ele>
        <time>2020-09-02T10:42:30Z</time>
      </trkpt>
      <trkpt lat="44.14587" lon="5.65694">
        <ele>1415.104</ele>
        <time>2020-09-02T10:42:32Z</time>
      </trkpt>
      <trkpt lat="44.14582" lon="5.65699">
        <ele>1414.314</ele>
        <time>2020-09-02T10:42:34Z</time>
      </trkpt>
      <trkpt lat="44.14575" lon="5.65703">
        <ele>1412.208</ele>
        <time>2020-09-02T10:42:36Z</time>
      </trkpt>
      <trkpt lat="44.14572" lon="5.65708">
        <ele>1411.05</ele>
        <time>2020-09-02T10:42:38Z</time>
      </trkpt>
      <trkpt lat="44.1457" lon="5.65716">
        <ele>1410.039</ele>
        <time>2020-09-02T10:42:40Z</time>
      </trkpt>
      <trkpt lat="44.14572" lon="5.65724">
        <ele>1409.179</ele>
        <time>2020-09-02T10:42:42Z</time>
      </trkpt>
      <trkpt lat="44.14576" lon="5.65731">
        <ele>1408.386</ele>
        <time>2020-09-02T10:42:44Z</time>
      </trkpt>
      <trkpt lat="44.14581" lon="5.65735">
        <ele>1406.517</ele>
        <time>2020-09-02T10:42:46Z</time>
      </trkpt>
      <trkpt lat="44.14586" lon="5.65734">
        <ele>1405.055</ele>
        <time>2020-09-02T10:42:54Z</time>
      </trkpt>
      <trkpt lat="44.1459" lon="5.65738">
        <ele>1405.351</ele>
        <time>2020-09-02T10:43:00Z</time>
      </trkpt>
      <trkpt lat="44.14594" lon="5.65745">
        <ele>1404.094</ele>
        <time>2020-09-02T10:43:02Z</time>
      </trkpt>
      <trkpt lat="44.14599" lon="5.65752">
        <ele>1402.529</ele>
        <time>2020-09-02T10:43:04Z</time>
      </trkpt>
      <trkpt lat="44.14604" lon="5.65758">
        <ele>1400.9</ele>
        <time>2020-09-02T10:43:06Z</time>
      </trkpt>
      <trkpt lat="44.14611" lon="5.65764">
        <ele>1400.42</ele>
        <time>2020-09-02T10:43:08Z</time>
      </trkpt>
      <trkpt lat="44.14615" lon="5.65769">
        <ele>1399.908</ele>
        <time>2020-09-02T10:43:10Z</time>
      </trkpt>
      <trkpt lat="44.14618" lon="5.65775">
        <ele>1399.76</ele>
        <time>2020-09-02T10:43:12Z</time>
      </trkpt>
      <trkpt lat="44.14622" lon="5.65781">
        <ele>1398.229</ele>
        <time>2020-09-02T10:43:14Z</time>
      </trkpt>
      <trkpt lat="44.14627" lon="5.65787">
        <ele>1396.679</ele>
        <time>2020-09-02T10:43:16Z</time>
      </trkpt>
      <trkpt lat="44.1463" lon="5.65793">
        <ele>1394.356</ele>
        <time>2020-09-02T10:43:18Z</time>
      </trkpt>
      <trkpt lat="44.14634" lon="5.658">
        <ele>1393.677</ele>
        <time>2020-09-02T10:43:21Z</time>
      </trkpt>
      <trkpt lat="44.14636" lon="5.65806">
        <ele>1393.335</ele>
        <time>2020-09-02T10:43:23Z</time>
      </trkpt>
      <trkpt lat="44.14639" lon="5.65814">
        <ele>1390.261</ele>
        <time>2020-09-02T10:43:25Z</time>
      </trkpt>
      <trkpt lat="44.14641" lon="5.65821">
        <ele>1387.634</ele>
        <time>2020-09-02T10:43:27Z</time>
      </trkpt>
      <trkpt lat="44.14645" lon="5.6583">
        <ele>1385.251</ele>
        <time>2020-09-02T10:43:30Z</time>
      </trkpt>
      <trkpt lat="44.14648" lon="5.65839">
        <ele>1383.801</ele>
        <time>2020-09-02T10:43:32Z</time>
      </trkpt>
      <trkpt lat="44.1465" lon="5.65847">
        <ele>1381.811</ele>
        <time>2020-09-02T10:43:34Z</time>
      </trkpt>
      <trkpt lat="44.14653" lon="5.65853">
        <ele>1380.508</ele>
        <time>2020-09-02T10:43:36Z</time>
      </trkpt>
      <trkpt lat="44.14655" lon="5.6586">
        <ele>1379.123</ele>
        <time>2020-09-02T10:43:38Z</time>
      </trkpt>
      <trkpt lat="44.14659" lon="5.65864">
        <ele>1376.952</ele>
        <time>2020-09-02T10:43:40Z</time>
      </trkpt>
      <trkpt lat="44.14664" lon="5.65868">
        <ele>1375.442</ele>
        <time>2020-09-02T10:43:42Z</time>
      </trkpt>
      <trkpt lat="44.14671" lon="5.65874">
        <ele>1374.549</ele>
        <time>2020-09-02T10:43:44Z</time>
      </trkpt>
      <trkpt lat="44.14677" lon="5.65882">
        <ele>1371.97</ele>
        <time>2020-09-02T10:43:46Z</time>
      </trkpt>
      <trkpt lat="44.14682" lon="5.65891">
        <ele>1369.478</ele>
        <time>2020-09-02T10:43:48Z</time>
      </trkpt>
      <trkpt lat="44.14686" lon="5.659">
        <ele>1367.244</ele>
        <time>2020-09-02T10:43:50Z</time>
      </trkpt>
      <trkpt lat="44.14691" lon="5.65906">
        <ele>1364.187</ele>
        <time>2020-09-02T10:43:52Z</time>
      </trkpt>
      <trkpt lat="44.14696" lon="5.6591">
        <ele>1363.769</ele>
        <time>2020-09-02T10:43:54Z</time>
      </trkpt>
      <trkpt lat="44.14701" lon="5.65918">
        <ele>1362.504</ele>
        <time>2020-09-02T10:43:56Z</time>
      </trkpt>
      <trkpt lat="44.14706" lon="5.65926">
        <ele>1360.824</ele>
        <time>2020-09-02T10:43:58Z</time>
      </trkpt>
      <trkpt lat="44.14713" lon="5.65929">
        <ele>1359.608</ele>
        <time>2020-09-02T10:44:00Z</time>
      </trkpt>
      <trkpt lat="44.1472" lon="5.65931">
        <ele>1358.594</ele>
        <time>2020-09-02T10:44:02Z</time>
      </trkpt>
      <trkpt lat="44.14727" lon="5.65933">
        <ele>1358.863</ele>
        <time>2020-09-02T10:44:04Z</time>
      </trkpt>
      <trkpt lat="44.14731" lon="5.65937">
        <ele>1356.783</ele>
        <time>2020-09-02T10:44:06Z</time>
      </trkpt>
      <trkpt lat="44.14736" lon="5.65945">
        <ele>1354.42</ele>
        <time>2020-09-02T10:44:08Z</time>
      </trkpt>
      <trkpt lat="44.14739" lon="5.6595">
        <ele>1353.491</ele>
        <time>2020-09-02T10:44:09Z</time>
      </trkpt>
      <trkpt lat="44.14742" lon="5.65954">
        <ele>1352.219</ele>
        <time>2020-09-02T10:44:10Z</time>
      </trkpt>
      <trkpt lat="44.14746" lon="5.65958">
        <ele>1350.935</ele>
        <time>2020-09-02T10:44:11Z</time>
      </trkpt>
      <trkpt lat="44.1475" lon="5.65963">
        <ele>1350.168</ele>
        <time>2020-09-02T10:44:12Z</time>
      </trkpt>
      <trkpt lat="44.14754" lon="5.65968">
        <ele>1349.389</ele>
        <time>2020-09-02T10:44:13Z</time>
      </trkpt>
      <trkpt lat="44.14757" lon="5.65973">
        <ele>1347.306</ele>
        <time>2020-09-02T10:44:14Z</time>
      </trkpt>
      <trkpt lat="44.1476" lon="5.65979">
        <ele>1345.726</ele>
        <time>2020-09-02T10:44:15Z</time>
      </trkpt>
      <trkpt lat="44.14763" lon="5.65986">
        <ele>1343.808</ele>
        <time>2020-09-02T10:44:16Z</time>
      </trkpt>
      <trkpt lat="44.14768" lon="5.65994">
        <ele>1339.496</ele>
        <time>2020-09-02T10:44:18Z</time>
      </trkpt>
      <trkpt lat="44.14773" lon="5.65996">
        <ele>1337.245</ele>
        <time>2020-09-02T10:44:21Z</time>
      </trkpt>
      <trkpt lat="44.14777" lon="5.66">
        <ele>1337.595</ele>
        <time>2020-09-02T10:44:25Z</time>
      </trkpt>
      <trkpt lat="44.14777" lon="5.66007">
        <ele>1334.642</ele>
        <time>2020-09-02T10:44:29Z</time>
      </trkpt>
      <trkpt lat="44.14775" lon="5.66013">
        <ele>1334.433</ele>
        <time>2020-09-02T10:44:32Z</time>
      </trkpt>
      <trkpt lat="44.14774" lon="5.66021">
        <ele>1332.641</ele>
        <time>2020-09-02T10:44:35Z</time>
      </trkpt>
      <trkpt lat="44.14773" lon="5.66028">
        <ele>1332.197</ele>
        <time>2020-09-02T10:44:37Z</time>
      </trkpt>
      <trkpt lat="44.14772" lon="5.66035">
        <ele>1329.99</ele>
        <time>2020-09-02T10:44:40Z</time>
      </trkpt>
      <trkpt lat="44.1477" lon="5.66044">
        <ele>1326.426</ele>
        <time>2020-09-02T10:44:43Z</time>
      </trkpt>
      <trkpt lat="44.14768" lon="5.66049">
        <ele>1325.547</ele>
        <time>2020-09-02T10:44:45Z</time>
      </trkpt>
      <trkpt lat="44.14765" lon="5.66055">
        <ele>1323.511</ele>
        <time>2020-09-02T10:44:47Z</time>
      </trkpt>
      <trkpt lat="44.14763" lon="5.66062">
        <ele>1321.808</ele>
        <time>2020-09-02T10:44:49Z</time>
      </trkpt>
      <trkpt lat="44.14765" lon="5.6607">
        <ele>1321.33</ele>
        <time>2020-09-02T10:44:51Z</time>
      </trkpt>
      <trkpt lat="44.14768" lon="5.66077">
        <ele>1320.859</ele>
        <time>2020-09-02T10:44:53Z</time>
      </trkpt>
      <trkpt lat="44.14773" lon="5.6608">
        <ele>1320.119</ele>
        <time>2020-09-02T10:44:55Z</time>
      </trkpt>
      <trkpt lat="44.14778" lon="5.66082">
        <ele>1319.716</ele>
        <time>2020-09-02T10:44:57Z</time>
      </trkpt>
      <trkpt lat="44.14783" lon="5.66088">
        <ele>1318.827</ele>
        <time>2020-09-02T10:44:59Z</time>
      </trkpt>
      <trkpt lat="44.14785" lon="5.66097">
        <ele>1318.035</ele>
        <time>2020-09-02T10:45:01Z</time>
      </trkpt>
      <trkpt lat="44.14787" lon="5.66108">
        <ele>1316.911</ele>
        <time>2020-09-02T10:45:03Z</time>
      </trkpt>
      <trkpt lat="44.1479" lon="5.66118">
        <ele>1315.864</ele>
        <time>2020-09-02T10:45:05Z</time>
      </trkpt>
      <trkpt lat="44.14792" lon="5.6613">
        <ele>1315.668</ele>
        <time>2020-09-02T10:45:07Z</time>
      </trkpt>
      <trkpt lat="44.14794" lon="5.66142">
        <ele>1313.742</ele>
        <time>2020-09-02T10:45:09Z</time>
      </trkpt>
      <trkpt lat="44.14797" lon="5.66152">
        <ele>1312.526</ele>
        <time>2020-09-02T10:45:11Z</time>
      </trkpt>
      <trkpt lat="44.14799" lon="5.6616">
        <ele>1312.708</ele>
        <time>2020-09-02T10:45:13Z</time>
      </trkpt>
      <trkpt lat="44.14803" lon="5.66162">
        <ele>1311.874</ele>
        <time>2020-09-02T10:45:15Z</time>
      </trkpt>
      <trkpt lat="44.14809" lon="5.66159">
        <ele>1312.273</ele>
        <time>2020-09-02T10:45:17Z</time>
      </trkpt>
      <trkpt lat="44.14817" lon="5.66163">
        <ele>1312.413</ele>
        <time>2020-09-02T10:45:19Z</time>
      </trkpt>
      <trkpt lat="44.14819" lon="5.6617">
        <ele>1312.25</ele>
        <time>2020-09-02T10:45:21Z</time>
      </trkpt>
      <trkpt lat="44.14816" lon="5.66178">
        <ele>1311.551</ele>
        <time>2020-09-02T10:45:23Z</time>
      </trkpt>
      <trkpt lat="44.14812" lon="5.66182">
        <ele>1310.989</ele>
        <time>2020-09-02T10:45:24Z</time>
      </trkpt>
      <trkpt lat="44.14809" lon="5.66187">
        <ele>1311.185</ele>
        <time>2020-09-02T10:45:25Z</time>
      </trkpt>
      <trkpt lat="44.14807" lon="5.66194">
        <ele>1310.818</ele>
        <time>2020-09-02T10:45:26Z</time>
      </trkpt>
      <trkpt lat="44.14805" lon="5.66201">
        <ele>1311.093</ele>
        <time>2020-09-02T10:45:27Z</time>
      </trkpt>
      <trkpt lat="44.14802" lon="5.66207">
        <ele>1310.765</ele>
        <time>2020-09-02T10:45:28Z</time>
      </trkpt>
      <trkpt lat="44.148" lon="5.66216">
        <ele>1310.621</ele>
        <time>2020-09-02T10:45:29Z</time>
      </trkpt>
      <trkpt lat="44.148" lon="5.66224">
        <ele>1310.608</ele>
        <time>2020-09-02T10:45:30Z</time>
      </trkpt>
      <trkpt lat="44.14799" lon="5.66233">
        <ele>1311.167</ele>
        <time>2020-09-02T10:45:31Z</time>
      </trkpt>
      <trkpt lat="44.148" lon="5.66241">
        <ele>1311.656</ele>
        <time>2020-09-02T10:45:32Z</time>
      </trkpt>
      <trkpt lat="44.14802" lon="5.66251">
        <ele>1311.436</ele>
        <time>2020-09-02T10:45:33Z</time>
      </trkpt>
      <trkpt lat="44.14803" lon="5.6626">
        <ele>1312.253</ele>
        <time>2020-09-02T10:45:34Z</time>
      </trkpt>
      <trkpt lat="44.14804" lon="5.6627">
        <ele>1313.234</ele>
        <time>2020-09-02T10:45:35Z</time>
      </trkpt>
      <trkpt lat="44.14807" lon="5.6628">
        <ele>1314.692</ele>
        <time>2020-09-02T10:45:36Z</time>
      </trkpt>
      <trkpt lat="44.1481" lon="5.66288">
        <ele>1315.648</ele>
        <time>2020-09-02T10:45:37Z</time>
      </trkpt>
      <trkpt lat="44.14812" lon="5.66298">
        <ele>1317.291</ele>
        <time>2020-09-02T10:45:38Z</time>
      </trkpt>
      <trkpt lat="44.14814" lon="5.66308">
        <ele>1318.769</ele>
        <time>2020-09-02T10:45:39Z</time>
      </trkpt>
      <trkpt lat="44.14815" lon="5.66318">
        <ele>1319.704</ele>
        <time>2020-09-02T10:45:40Z</time>
      </trkpt>
      <trkpt lat="44.14814" lon="5.66329">
        <ele>1321.024</ele>
        <time>2020-09-02T10:45:41Z</time>
      </trkpt>
      <trkpt lat="44.14813" lon="5.6634">
        <ele>1322.608</ele>
        <time>2020-09-02T10:45:42Z</time>
      </trkpt>
      <trkpt lat="44.14813" lon="5.66352">
        <ele>1323.574</ele>
        <time>2020-09-02T10:45:43Z</time>
      </trkpt>
      <trkpt lat="44.14812" lon="5.66363">
        <ele>1324.583</ele>
        <time>2020-09-02T10:45:44Z</time>
      </trkpt>
      <trkpt lat="44.1481" lon="5.66375">
        <ele>1326.063</ele>
        <time>2020-09-02T10:45:45Z</time>
      </trkpt>
      <trkpt lat="44.14809" lon="5.66386">
        <ele>1327.02</ele>
        <time>2020-09-02T10:45:46Z</time>
      </trkpt>
      <trkpt lat="44.14809" lon="5.66397">
        <ele>1328.451</ele>
        <time>2020-09-02T10:45:47Z</time>
      </trkpt>
      <trkpt lat="44.14809" lon="5.6641">
        <ele>1329.529</ele>
        <time>2020-09-02T10:45:48Z</time>
      </trkpt>
      <trkpt lat="44.14809" lon="5.66421">
        <ele>1330.255</ele>
        <time>2020-09-02T10:45:49Z</time>
      </trkpt>
      <trkpt lat="44.1481" lon="5.66433">
        <ele>1331.838</ele>
        <time>2020-09-02T10:45:50Z</time>
      </trkpt>
      <trkpt lat="44.14811" lon="5.66446">
        <ele>1333.282</ele>
        <time>2020-09-02T10:45:51Z</time>
      </trkpt>
      <trkpt lat="44.14812" lon="5.66457">
        <ele>1333.643</ele>
        <time>2020-09-02T10:45:52Z</time>
      </trkpt>
      <trkpt lat="44.14812" lon="5.66468">
        <ele>1334.817</ele>
        <time>2020-09-02T10:45:53Z</time>
      </trkpt>
      <trkpt lat="44.14812" lon="5.66479">
        <ele>1334.808</ele>
        <time>2020-09-02T10:45:54Z</time>
      </trkpt>
      <trkpt lat="44.14812" lon="5.6649">
        <ele>1336.286</ele>
        <time>2020-09-02T10:45:55Z</time>
      </trkpt>
      <trkpt lat="44.14812" lon="5.66501">
        <ele>1337.495</ele>
        <time>2020-09-02T10:45:56Z</time>
      </trkpt>
      <trkpt lat="44.14813" lon="5.66512">
        <ele>1338.755</ele>
        <time>2020-09-02T10:45:57Z</time>
      </trkpt>
      <trkpt lat="44.14815" lon="5.66522">
        <ele>1339.432</ele>
        <time>2020-09-02T10:45:58Z</time>
      </trkpt>
      <trkpt lat="44.14817" lon="5.66533">
        <ele>1340.513</ele>
        <time>2020-09-02T10:45:59Z</time>
      </trkpt>
      <trkpt lat="44.14818" lon="5.66544">
        <ele>1341.841</ele>
        <time>2020-09-02T10:46:00Z</time>
      </trkpt>
      <trkpt lat="44.1482" lon="5.66556">
        <ele>1342.897</ele>
        <time>2020-09-02T10:46:01Z</time>
      </trkpt>
      <trkpt lat="44.14822" lon="5.66567">
        <ele>1343.55</ele>
        <time>2020-09-02T10:46:02Z</time>
      </trkpt>
      <trkpt lat="44.14824" lon="5.66578">
        <ele>1344.135</ele>
        <time>2020-09-02T10:46:03Z</time>
      </trkpt>
      <trkpt lat="44.14828" lon="5.66588">
        <ele>1345.186</ele>
        <time>2020-09-02T10:46:04Z</time>
      </trkpt>
      <trkpt lat="44.14831" lon="5.66599">
        <ele>1346.514</ele>
        <time>2020-09-02T10:46:05Z</time>
      </trkpt>
      <trkpt lat="44.14835" lon="5.6661">
        <ele>1347.608</ele>
        <time>2020-09-02T10:46:06Z</time>
      </trkpt>
      <trkpt lat="44.14837" lon="5.66623">
        <ele>1348.881</ele>
        <time>2020-09-02T10:46:07Z</time>
      </trkpt>
      <trkpt lat="44.14841" lon="5.66634">
        <ele>1350.51</ele>
        <time>2020-09-02T10:46:08Z</time>
      </trkpt>
      <trkpt lat="44.14844" lon="5.66645">
        <ele>1352.27</ele>
        <time>2020-09-02T10:46:09Z</time>
      </trkpt>
      <trkpt lat="44.14848" lon="5.66655">
        <ele>1353.947</ele>
        <time>2020-09-02T10:46:10Z</time>
      </trkpt>
      <trkpt lat="44.14853" lon="5.66665">
        <ele>1355.288</ele>
        <time>2020-09-02T10:46:11Z</time>
      </trkpt>
      <trkpt lat="44.14856" lon="5.66676">
        <ele>1356.326</ele>
        <time>2020-09-02T10:46:12Z</time>
      </trkpt>
      <trkpt lat="44.14858" lon="5.66688">
        <ele>1357.752</ele>
        <time>2020-09-02T10:46:13Z</time>
      </trkpt>
      <trkpt lat="44.1486" lon="5.667">
        <ele>1359.085</ele>
        <time>2020-09-02T10:46:14Z</time>
      </trkpt>
      <trkpt lat="44.14861" lon="5.66712">
        <ele>1360.419</ele>
        <time>2020-09-02T10:46:15Z</time>
      </trkpt>
      <trkpt lat="44.14861" lon="5.66724">
        <ele>1361.509</ele>
        <time>2020-09-02T10:46:16Z</time>
      </trkpt>
      <trkpt lat="44.14861" lon="5.66737">
        <ele>1362.819</ele>
        <time>2020-09-02T10:46:17Z</time>
      </trkpt>
      <trkpt lat="44.14859" lon="5.66749">
        <ele>1363.808</ele>
        <time>2020-09-02T10:46:18Z</time>
      </trkpt>
      <trkpt lat="44.14858" lon="5.66761">
        <ele>1364.869</ele>
        <time>2020-09-02T10:46:19Z</time>
      </trkpt>
      <trkpt lat="44.14859" lon="5.66773">
        <ele>1366.318</ele>
        <time>2020-09-02T10:46:20Z</time>
      </trkpt>
      <trkpt lat="44.1486" lon="5.66785">
        <ele>1367.768</ele>
        <time>2020-09-02T10:46:21Z</time>
      </trkpt>
      <trkpt lat="44.1486" lon="5.66795">
        <ele>1368.975</ele>
        <time>2020-09-02T10:46:22Z</time>
      </trkpt>
      <trkpt lat="44.1486" lon="5.66806">
        <ele>1370.416</ele>
        <time>2020-09-02T10:46:23Z</time>
      </trkpt>
      <trkpt lat="44.14859" lon="5.66816">
        <ele>1371.544</ele>
        <time>2020-09-02T10:46:24Z</time>
      </trkpt>
      <trkpt lat="44.14858" lon="5.66825">
        <ele>1373.01</ele>
        <time>2020-09-02T10:46:25Z</time>
      </trkpt>
      <trkpt lat="44.14856" lon="5.66833">
        <ele>1374.163</ele>
        <time>2020-09-02T10:46:26Z</time>
      </trkpt>
      <trkpt lat="44.14852" lon="5.66842">
        <ele>1374.765</ele>
        <time>2020-09-02T10:46:27Z</time>
      </trkpt>
      <trkpt lat="44.14849" lon="5.66852">
        <ele>1375.068</ele>
        <time>2020-09-02T10:46:28Z</time>
      </trkpt>
      <trkpt lat="44.14846" lon="5.6686">
        <ele>1376.514</ele>
        <time>2020-09-02T10:46:29Z</time>
      </trkpt>
      <trkpt lat="44.14842" lon="5.66868">
        <ele>1377.208</ele>
        <time>2020-09-02T10:46:30Z</time>
      </trkpt>
      <trkpt lat="44.14839" lon="5.66876">
        <ele>1377.784</ele>
        <time>2020-09-02T10:46:31Z</time>
      </trkpt>
      <trkpt lat="44.14836" lon="5.66883">
        <ele>1378.113</ele>
        <time>2020-09-02T10:46:32Z</time>
      </trkpt>
      <trkpt lat="44.14834" lon="5.66892">
        <ele>1378.583</ele>
        <time>2020-09-02T10:46:33Z</time>
      </trkpt>
      <trkpt lat="44.14832" lon="5.66901">
        <ele>1379.73</ele>
        <time>2020-09-02T10:46:34Z</time>
      </trkpt>
      <trkpt lat="44.1483" lon="5.66908">
        <ele>1380.991</ele>
        <time>2020-09-02T10:46:35Z</time>
      </trkpt>
      <trkpt lat="44.14827" lon="5.66915">
        <ele>1381.929</ele>
        <time>2020-09-02T10:46:36Z</time>
      </trkpt>
      <trkpt lat="44.14823" lon="5.66924">
        <ele>1382.835</ele>
        <time>2020-09-02T10:46:37Z</time>
      </trkpt>
      <trkpt lat="44.14819" lon="5.66933">
        <ele>1383.018</ele>
        <time>2020-09-02T10:46:38Z</time>
      </trkpt>
      <trkpt lat="44.14816" lon="5.66943">
        <ele>1383.376</ele>
        <time>2020-09-02T10:46:39Z</time>
      </trkpt>
      <trkpt lat="44.14813" lon="5.66954">
        <ele>1383.39</ele>
        <time>2020-09-02T10:46:40Z</time>
      </trkpt>
      <trkpt lat="44.1481" lon="5.66964">
        <ele>1383.619</ele>
        <time>2020-09-02T10:46:41Z</time>
      </trkpt>
      <trkpt lat="44.14807" lon="5.66974">
        <ele>1384.008</ele>
        <time>2020-09-02T10:46:42Z</time>
      </trkpt>
      <trkpt lat="44.14804" lon="5.66982">
        <ele>1384.035</ele>
        <time>2020-09-02T10:46:43Z</time>
      </trkpt>
      <trkpt lat="44.14804" lon="5.6699">
        <ele>1384.794</ele>
        <time>2020-09-02T10:46:44Z</time>
      </trkpt>
      <trkpt lat="44.14803" lon="5.66998">
        <ele>1384.934</ele>
        <time>2020-09-02T10:46:45Z</time>
      </trkpt>
      <trkpt lat="44.148" lon="5.67006">
        <ele>1384.861</ele>
        <time>2020-09-02T10:46:46Z</time>
      </trkpt>
      <trkpt lat="44.14798" lon="5.67015">
        <ele>1384.822</ele>
        <time>2020-09-02T10:46:47Z</time>
      </trkpt>
      <trkpt lat="44.14795" lon="5.67023">
        <ele>1384.57</ele>
        <time>2020-09-02T10:46:48Z</time>
      </trkpt>
      <trkpt lat="44.14794" lon="5.6703">
        <ele>1384.526</ele>
        <time>2020-09-02T10:46:49Z</time>
      </trkpt>
      <trkpt lat="44.14793" lon="5.67037">
        <ele>1385.069</ele>
        <time>2020-09-02T10:46:50Z</time>
      </trkpt>
      <trkpt lat="44.14793" lon="5.67044">
        <ele>1385.027</ele>
        <time>2020-09-02T10:46:51Z</time>
      </trkpt>
      <trkpt lat="44.14794" lon="5.67052">
        <ele>1384.768</ele>
        <time>2020-09-02T10:46:52Z</time>
      </trkpt>
      <trkpt lat="44.14796" lon="5.67061">
        <ele>1384.814</ele>
        <time>2020-09-02T10:46:53Z</time>
      </trkpt>
      <trkpt lat="44.14797" lon="5.67069">
        <ele>1385.208</ele>
        <time>2020-09-02T10:46:54Z</time>
      </trkpt>
      <trkpt lat="44.14798" lon="5.67077">
        <ele>1386.09</ele>
        <time>2020-09-02T10:46:55Z</time>
      </trkpt>
      <trkpt lat="44.148" lon="5.67083">
        <ele>1386.479</ele>
        <time>2020-09-02T10:46:56Z</time>
      </trkpt>
      <trkpt lat="44.148" lon="5.6709">
        <ele>1386.239</ele>
        <time>2020-09-02T10:46:57Z</time>
      </trkpt>
      <trkpt lat="44.14802" lon="5.67096">
        <ele>1386.636</ele>
        <time>2020-09-02T10:46:58Z</time>
      </trkpt>
      <trkpt lat="44.14805" lon="5.67102">
        <ele>1387.497</ele>
        <time>2020-09-02T10:46:59Z</time>
      </trkpt>
      <trkpt lat="44.14808" lon="5.67108">
        <ele>1388.225</ele>
        <time>2020-09-02T10:47:00Z</time>
      </trkpt>
      <trkpt lat="44.1481" lon="5.67113">
        <ele>1388.541</ele>
        <time>2020-09-02T10:47:01Z</time>
      </trkpt>
      <trkpt lat="44.14813" lon="5.67125">
        <ele>1389.874</ele>
        <time>2020-09-02T10:47:03Z</time>
      </trkpt>
      <trkpt lat="44.14812" lon="5.67138">
        <ele>1390.636</ele>
        <time>2020-09-02T10:47:05Z</time>
      </trkpt>
      <trkpt lat="44.14809" lon="5.67146">
        <ele>1389.917</ele>
        <time>2020-09-02T10:47:06Z</time>
      </trkpt>
      <trkpt lat="44.14807" lon="5.67153">
        <ele>1390.218</ele>
        <time>2020-09-02T10:47:07Z</time>
      </trkpt>
      <trkpt lat="44.14805" lon="5.6716">
        <ele>1390.508</ele>
        <time>2020-09-02T10:47:08Z</time>
      </trkpt>
      <trkpt lat="44.14804" lon="5.67167">
        <ele>1389.711</ele>
        <time>2020-09-02T10:47:09Z</time>
      </trkpt>
      <trkpt lat="44.14801" lon="5.67173">
        <ele>1389.54</ele>
        <time>2020-09-02T10:47:10Z</time>
      </trkpt>
      <trkpt lat="44.148" lon="5.67182">
        <ele>1390.62</ele>
        <time>2020-09-02T10:47:12Z</time>
      </trkpt>
      <trkpt lat="44.14798" lon="5.67194">
        <ele>1391.497</ele>
        <time>2020-09-02T10:47:14Z</time>
      </trkpt>
      <trkpt lat="44.14795" lon="5.67205">
        <ele>1391.378</ele>
        <time>2020-09-02T10:47:16Z</time>
      </trkpt>
      <trkpt lat="44.1479" lon="5.67213">
        <ele>1391.196</ele>
        <time>2020-09-02T10:47:18Z</time>
      </trkpt>
      <trkpt lat="44.14786" lon="5.67217">
        <ele>1391.372</ele>
        <time>2020-09-02T10:47:19Z</time>
      </trkpt>
      <trkpt lat="44.1478" lon="5.67225">
        <ele>1393.175</ele>
        <time>2020-09-02T10:47:21Z</time>
      </trkpt>
      <trkpt lat="44.14773" lon="5.67232">
        <ele>1395.672</ele>
        <time>2020-09-02T10:47:23Z</time>
      </trkpt>
      <trkpt lat="44.14767" lon="5.67239">
        <ele>1397.913</ele>
        <time>2020-09-02T10:47:25Z</time>
      </trkpt>
      <trkpt lat="44.14763" lon="5.67246">
        <ele>1397.614</ele>
        <time>2020-09-02T10:47:27Z</time>
      </trkpt>
      <trkpt lat="44.14759" lon="5.67258">
        <ele>1398.808</ele>
        <time>2020-09-02T10:47:29Z</time>
      </trkpt>
      <trkpt lat="44.14756" lon="5.67264">
        <ele>1399.945</ele>
        <time>2020-09-02T10:47:30Z</time>
      </trkpt>
      <trkpt lat="44.14752" lon="5.67274">
        <ele>1402.264</ele>
        <time>2020-09-02T10:47:32Z</time>
      </trkpt>
      <trkpt lat="44.14751" lon="5.6728">
        <ele>1402.764</ele>
        <time>2020-09-02T10:47:33Z</time>
      </trkpt>
      <trkpt lat="44.14749" lon="5.67286">
        <ele>1403.071</ele>
        <time>2020-09-02T10:47:34Z</time>
      </trkpt>
      <trkpt lat="44.14746" lon="5.67292">
        <ele>1403.982</ele>
        <time>2020-09-02T10:47:35Z</time>
      </trkpt>
      <trkpt lat="44.14741" lon="5.67302">
        <ele>1407.18</ele>
        <time>2020-09-02T10:47:37Z</time>
      </trkpt>
      <trkpt lat="44.14739" lon="5.67308">
        <ele>1408.746</ele>
        <time>2020-09-02T10:47:38Z</time>
      </trkpt>
      <trkpt lat="44.14732" lon="5.67314">
        <ele>1412.689</ele>
        <time>2020-09-02T10:47:39Z</time>
      </trkpt>
      <trkpt lat="44.1473" lon="5.6732">
        <ele>1414.171</ele>
        <time>2020-09-02T10:47:40Z</time>
      </trkpt>
      <trkpt lat="44.14727" lon="5.67326">
        <ele>1415.441</ele>
        <time>2020-09-02T10:47:41Z</time>
      </trkpt>
      <trkpt lat="44.14722" lon="5.67336">
        <ele>1420.515</ele>
        <time>2020-09-02T10:47:43Z</time>
      </trkpt>
      <trkpt lat="44.14719" lon="5.67348">
        <ele>1423.808</ele>
        <time>2020-09-02T10:47:45Z</time>
      </trkpt>
      <trkpt lat="44.14719" lon="5.67357">
        <ele>1426.315</ele>
        <time>2020-09-02T10:47:47Z</time>
      </trkpt>
      <trkpt lat="44.14719" lon="5.67369">
        <ele>1428.664</ele>
        <time>2020-09-02T10:47:49Z</time>
      </trkpt>
      <trkpt lat="44.14719" lon="5.67379">
        <ele>1431.634</ele>
        <time>2020-09-02T10:47:51Z</time>
      </trkpt>
      <trkpt lat="44.14716" lon="5.6739">
        <ele>1434.241</ele>
        <time>2020-09-02T10:47:53Z</time>
      </trkpt>
      <trkpt lat="44.14716" lon="5.67396">
        <ele>1436.342</ele>
        <time>2020-09-02T10:47:54Z</time>
      </trkpt>
      <trkpt lat="44.14715" lon="5.67409">
        <ele>1438.65</ele>
        <time>2020-09-02T10:47:56Z</time>
      </trkpt>
      <trkpt lat="44.14714" lon="5.6742">
        <ele>1441.196</ele>
        <time>2020-09-02T10:47:58Z</time>
      </trkpt>
      <trkpt lat="44.14713" lon="5.67429">
        <ele>1445.699</ele>
        <time>2020-09-02T10:48:00Z</time>
      </trkpt>
      <trkpt lat="44.14711" lon="5.6744">
        <ele>1449.288</ele>
        <time>2020-09-02T10:48:02Z</time>
      </trkpt>
      <trkpt lat="44.14706" lon="5.6745">
        <ele>1452.124</ele>
        <time>2020-09-02T10:48:04Z</time>
      </trkpt>
      <trkpt lat="44.14699" lon="5.67453">
        <ele>1454.126</ele>
        <time>2020-09-02T10:48:06Z</time>
      </trkpt>
      <trkpt lat="44.14694" lon="5.67454">
        <ele>1455.008</ele>
        <time>2020-09-02T10:48:07Z</time>
      </trkpt>
      <trkpt lat="44.14686" lon="5.67456">
        <ele>1455.776</ele>
        <time>2020-09-02T10:48:09Z</time>
      </trkpt>
      <trkpt lat="44.1468" lon="5.67455">
        <ele>1455.735</ele>
        <time>2020-09-02T10:48:11Z</time>
      </trkpt>
      <trkpt lat="44.14673" lon="5.67456">
        <ele>1454.995</ele>
        <time>2020-09-02T10:48:13Z</time>
      </trkpt>
      <trkpt lat="44.14669" lon="5.67457">
        <ele>1455.222</ele>
        <time>2020-09-02T10:48:14Z</time>
      </trkpt>
      <trkpt lat="44.14662" lon="5.67459">
        <ele>1454.693</ele>
        <time>2020-09-02T10:48:15Z</time>
      </trkpt>
      <trkpt lat="44.14654" lon="5.67464">
        <ele>1455.751</ele>
        <time>2020-09-02T10:48:17Z</time>
      </trkpt>
      <trkpt lat="44.14649" lon="5.67466">
        <ele>1455.557</ele>
        <time>2020-09-02T10:48:18Z</time>
      </trkpt>
      <trkpt lat="44.14644" lon="5.67468">
        <ele>1456.31</ele>
        <time>2020-09-02T10:48:19Z</time>
      </trkpt>
      <trkpt lat="44.14636" lon="5.6747">
        <ele>1456.661</ele>
        <time>2020-09-02T10:48:21Z</time>
      </trkpt>
      <trkpt lat="44.14629" lon="5.67469">
        <ele>1456.421</ele>
        <time>2020-09-02T10:48:23Z</time>
      </trkpt>
      <trkpt lat="44.14622" lon="5.67468">
        <ele>1456.313</ele>
        <time>2020-09-02T10:48:25Z</time>
      </trkpt>
      <trkpt lat="44.14615" lon="5.67466">
        <ele>1455.308</ele>
        <time>2020-09-02T10:48:27Z</time>
      </trkpt>
      <trkpt lat="44.14608" lon="5.67465">
        <ele>1454.634</ele>
        <time>2020-09-02T10:48:29Z</time>
      </trkpt>
      <trkpt lat="44.14602" lon="5.67464">
        <ele>1454.583</ele>
        <time>2020-09-02T10:48:31Z</time>
      </trkpt>
      <trkpt lat="44.14595" lon="5.67464">
        <ele>1454.943</ele>
        <time>2020-09-02T10:48:33Z</time>
      </trkpt>
      <trkpt lat="44.1459" lon="5.67464">
        <ele>1455.62</ele>
        <time>2020-09-02T10:48:35Z</time>
      </trkpt>
      <trkpt lat="44.14583" lon="5.67466">
        <ele>1456.371</ele>
        <time>2020-09-02T10:48:37Z</time>
      </trkpt>
      <trkpt lat="44.14576" lon="5.67473">
        <ele>1457.499</ele>
        <time>2020-09-02T10:48:39Z</time>
      </trkpt>
      <trkpt lat="44.14568" lon="5.67478">
        <ele>1457.025</ele>
        <time>2020-09-02T10:48:41Z</time>
      </trkpt>
      <trkpt lat="44.14563" lon="5.67481">
        <ele>1456.978</ele>
        <time>2020-09-02T10:48:42Z</time>
      </trkpt>
      <trkpt lat="44.14557" lon="5.67481">
        <ele>1457.258</ele>
        <time>2020-09-02T10:48:43Z</time>
      </trkpt>
      <trkpt lat="44.14551" lon="5.67484">
        <ele>1459.452</ele>
        <time>2020-09-02T10:48:45Z</time>
      </trkpt>
      <trkpt lat="44.14547" lon="5.67489">
        <ele>1460.117</ele>
        <time>2020-09-02T10:48:47Z</time>
      </trkpt>
      <trkpt lat="44.14544" lon="5.67495">
        <ele>1461.908</ele>
        <time>2020-09-02T10:48:49Z</time>
      </trkpt>
      <trkpt lat="44.14538" lon="5.67495">
        <ele>1461.643</ele>
        <time>2020-09-02T10:48:52Z</time>
      </trkpt>
      <trkpt lat="44.14532" lon="5.67496">
        <ele>1461.062</ele>
        <time>2020-09-02T10:48:54Z</time>
      </trkpt>
      <trkpt lat="44.14525" lon="5.67496">
        <ele>1461.492</ele>
        <time>2020-09-02T10:48:56Z</time>
      </trkpt>
      <trkpt lat="44.14517" lon="5.67495">
        <ele>1462.849</ele>
        <time>2020-09-02T10:48:58Z</time>
      </trkpt>
      <trkpt lat="44.14509" lon="5.67494">
        <ele>1463.88</ele>
        <time>2020-09-02T10:49:00Z</time>
      </trkpt>
      <trkpt lat="44.145" lon="5.67491">
        <ele>1463.138</ele>
        <time>2020-09-02T10:49:02Z</time>
      </trkpt>
      <trkpt lat="44.14493" lon="5.6749">
        <ele>1463.124</ele>
        <time>2020-09-02T10:49:04Z</time>
      </trkpt>
      <trkpt lat="44.14485" lon="5.6749">
        <ele>1464.287</ele>
        <time>2020-09-02T10:49:06Z</time>
      </trkpt>
      <trkpt lat="44.14479" lon="5.67491">
        <ele>1465.469</ele>
        <time>2020-09-02T10:49:08Z</time>
      </trkpt>
      <trkpt lat="44.14473" lon="5.67495">
        <ele>1466.204</ele>
        <time>2020-09-02T10:49:10Z</time>
      </trkpt>
      <trkpt lat="44.14468" lon="5.675">
        <ele>1465.924</ele>
        <time>2020-09-02T10:49:12Z</time>
      </trkpt>
      <trkpt lat="44.14462" lon="5.67502">
        <ele>1465.808</ele>
        <time>2020-09-02T10:49:14Z</time>
      </trkpt>
      <trkpt lat="44.14458" lon="5.67501">
        <ele>1466.494</ele>
        <time>2020-09-02T10:49:44Z</time>
      </trkpt>
      <trkpt lat="44.14452" lon="5.67505">
        <ele>1466.973</ele>
        <time>2020-09-02T10:49:46Z</time>
      </trkpt>
      <trkpt lat="44.14445" lon="5.67506">
        <ele>1466.433</ele>
        <time>2020-09-02T10:49:48Z</time>
      </trkpt>
      <trkpt lat="44.1444" lon="5.67507">
        <ele>1466.62</ele>
        <time>2020-09-02T10:49:50Z</time>
      </trkpt>
      <trkpt lat="44.14439" lon="5.67515">
        <ele>1467.641</ele>
        <time>2020-09-02T10:49:53Z</time>
      </trkpt>
      <trkpt lat="44.14437" lon="5.67526">
        <ele>1470.199</ele>
        <time>2020-09-02T10:50:01Z</time>
      </trkpt>
      <trkpt lat="44.14432" lon="5.67535">
        <ele>1471.525</ele>
        <time>2020-09-02T10:50:03Z</time>
      </trkpt>
      <trkpt lat="44.14428" lon="5.67542">
        <ele>1473.468</ele>
        <time>2020-09-02T10:50:05Z</time>
      </trkpt>
      <trkpt lat="44.14426" lon="5.6755">
        <ele>1474.481</ele>
        <time>2020-09-02T10:50:07Z</time>
      </trkpt>
      <trkpt lat="44.14424" lon="5.67557">
        <ele>1475.461</ele>
        <time>2020-09-02T10:50:09Z</time>
      </trkpt>
      <trkpt lat="44.14423" lon="5.67564">
        <ele>1476.517</ele>
        <time>2020-09-02T10:50:11Z</time>
      </trkpt>
      <trkpt lat="44.14422" lon="5.67571">
        <ele>1477.608</ele>
        <time>2020-09-02T10:50:13Z</time>
      </trkpt>
      <trkpt lat="44.14421" lon="5.6758">
        <ele>1479.196</ele>
        <time>2020-09-02T10:50:15Z</time>
      </trkpt>
      <trkpt lat="44.14419" lon="5.67588">
        <ele>1479.595</ele>
        <time>2020-09-02T10:50:17Z</time>
      </trkpt>
      <trkpt lat="44.14417" lon="5.67597">
        <ele>1480.815</ele>
        <time>2020-09-02T10:50:19Z</time>
      </trkpt>
      <trkpt lat="44.14421" lon="5.67601">
        <ele>1481.142</ele>
        <time>2020-09-02T10:50:38Z</time>
      </trkpt>
      <trkpt lat="44.14424" lon="5.67612">
        <ele>1481.373</ele>
        <time>2020-09-02T10:50:40Z</time>
      </trkpt>
      <trkpt lat="44.14426" lon="5.67622">
        <ele>1482.721</ele>
        <time>2020-09-02T10:50:42Z</time>
      </trkpt>
      <trkpt lat="44.14428" lon="5.67632">
        <ele>1484.267</ele>
        <time>2020-09-02T10:50:44Z</time>
      </trkpt>
      <trkpt lat="44.14431" lon="5.67641">
        <ele>1485.71</ele>
        <time>2020-09-02T10:50:46Z</time>
      </trkpt>
      <trkpt lat="44.14433" lon="5.67649">
        <ele>1486.887</ele>
        <time>2020-09-02T10:50:48Z</time>
      </trkpt>
      <trkpt lat="44.14436" lon="5.67656">
        <ele>1487.842</ele>
        <time>2020-09-02T10:50:50Z</time>
      </trkpt>
      <trkpt lat="44.14439" lon="5.67664">
        <ele>1490.526</ele>
        <time>2020-09-02T10:50:52Z</time>
      </trkpt>
      <trkpt lat="44.14442" lon="5.67671">
        <ele>1491.908</ele>
        <time>2020-09-02T10:50:54Z</time>
      </trkpt>
      <trkpt lat="44.14446" lon="5.67679">
        <ele>1493.266</ele>
        <time>2020-09-02T10:50:56Z</time>
      </trkpt>
      <trkpt lat="44.1445" lon="5.67687">
        <ele>1494.695</ele>
        <time>2020-09-02T10:50:58Z</time>
      </trkpt>
      <trkpt lat="44.14453" lon="5.67695">
        <ele>1495.555</ele>
        <time>2020-09-02T10:51:00Z</time>
      </trkpt>
      <trkpt lat="44.14456" lon="5.67702">
        <ele>1496.952</ele>
        <time>2020-09-02T10:51:02Z</time>
      </trkpt>
      <trkpt lat="44.1446" lon="5.67707">
        <ele>1498.773</ele>
        <time>2020-09-02T10:51:04Z</time>
      </trkpt>
      <trkpt lat="44.14459" lon="5.67716">
        <ele>1500.831</ele>
        <time>2020-09-02T10:51:23Z</time>
      </trkpt>
      <trkpt lat="44.14457" lon="5.67724">
        <ele>1500.797</ele>
        <time>2020-09-02T10:51:25Z</time>
      </trkpt>
      <trkpt lat="44.14459" lon="5.67734">
        <ele>1500.89</ele>
        <time>2020-09-02T10:51:28Z</time>
      </trkpt>
      <trkpt lat="44.14463" lon="5.67741">
        <ele>1501.712</ele>
        <time>2020-09-02T10:51:30Z</time>
      </trkpt>
      <trkpt lat="44.14468" lon="5.67746">
        <ele>1503.232</ele>
        <time>2020-09-02T10:51:32Z</time>
      </trkpt>
      <trkpt lat="44.14473" lon="5.67751">
        <ele>1503.905</ele>
        <time>2020-09-02T10:51:54Z</time>
      </trkpt>
      <trkpt lat="44.14478" lon="5.67756">
        <ele>1505.708</ele>
        <time>2020-09-02T10:51:56Z</time>
      </trkpt>
      <trkpt lat="44.14483" lon="5.67761">
        <ele>1506.679</ele>
        <time>2020-09-02T10:51:58Z</time>
      </trkpt>
      <trkpt lat="44.14489" lon="5.67766">
        <ele>1508.228</ele>
        <time>2020-09-02T10:52:00Z</time>
      </trkpt>
      <trkpt lat="44.14494" lon="5.67772">
        <ele>1509.758</ele>
        <time>2020-09-02T10:52:02Z</time>
      </trkpt>
      <trkpt lat="44.14498" lon="5.67777">
        <ele>1511.285</ele>
        <time>2020-09-02T10:52:04Z</time>
      </trkpt>
      <trkpt lat="44.14502" lon="5.67782">
        <ele>1512.566</ele>
        <time>2020-09-02T10:52:06Z</time>
      </trkpt>
      <trkpt lat="44.14508" lon="5.67784">
        <ele>1513.364</ele>
        <time>2020-09-02T10:52:08Z</time>
      </trkpt>
      <trkpt lat="44.14514" lon="5.67787">
        <ele>1514.92</ele>
        <time>2020-09-02T10:52:10Z</time>
      </trkpt>
      <trkpt lat="44.14521" lon="5.67792">
        <ele>1516.753</ele>
        <time>2020-09-02T10:52:12Z</time>
      </trkpt>
      <trkpt lat="44.14526" lon="5.67796">
        <ele>1518.653</ele>
        <time>2020-09-02T10:52:14Z</time>
      </trkpt>
      <trkpt lat="44.14529" lon="5.67803">
        <ele>1520.204</ele>
        <time>2020-09-02T10:52:16Z</time>
      </trkpt>
      <trkpt lat="44.14532" lon="5.67811">
        <ele>1521.814</ele>
        <time>2020-09-02T10:52:18Z</time>
      </trkpt>
      <trkpt lat="44.14537" lon="5.67818">
        <ele>1523.708</ele>
        <time>2020-09-02T10:52:20Z</time>
      </trkpt>
      <trkpt lat="44.14543" lon="5.67823">
        <ele>1525.213</ele>
        <time>2020-09-02T10:52:22Z</time>
      </trkpt>
      <trkpt lat="44.14548" lon="5.67828">
        <ele>1526.322</ele>
        <time>2020-09-02T10:52:24Z</time>
      </trkpt>
      <trkpt lat="44.14553" lon="5.67835">
        <ele>1525.792</ele>
        <time>2020-09-02T10:52:26Z</time>
      </trkpt>
      <trkpt lat="44.14558" lon="5.67842">
        <ele>1527.479</ele>
        <time>2020-09-02T10:52:28Z</time>
      </trkpt>
      <trkpt lat="44.14564" lon="5.67843">
        <ele>1529.14</ele>
        <time>2020-09-02T10:53:20Z</time>
      </trkpt>
      <trkpt lat="44.14569" lon="5.67843">
        <ele>1529.318</ele>
        <time>2020-09-02T10:53:22Z</time>
      </trkpt>
      <trkpt lat="44.14574" lon="5.67838">
        <ele>1529.224</ele>
        <time>2020-09-02T10:53:24Z</time>
      </trkpt>
      <trkpt lat="44.14578" lon="5.67832">
        <ele>1529.087</ele>
        <time>2020-09-02T10:53:26Z</time>
      </trkpt>
      <trkpt lat="44.14583" lon="5.67828">
        <ele>1529.641</ele>
        <time>2020-09-02T10:53:28Z</time>
      </trkpt>
      <trkpt lat="44.14589" lon="5.67827">
        <ele>1529.581</ele>
        <time>2020-09-02T10:53:30Z</time>
      </trkpt>
      <trkpt lat="44.14594" lon="5.67829">
        <ele>1531.309</ele>
        <time>2020-09-02T10:53:32Z</time>
      </trkpt>
      <trkpt lat="44.14601" lon="5.67834">
        <ele>1531.408</ele>
        <time>2020-09-02T10:53:34Z</time>
      </trkpt>
      <trkpt lat="44.14606" lon="5.67837">
        <ele>1531.832</ele>
        <time>2020-09-02T10:53:36Z</time>
      </trkpt>
      <trkpt lat="44.14611" lon="5.6784">
        <ele>1533.311</ele>
        <time>2020-09-02T10:53:38Z</time>
      </trkpt>
      <trkpt lat="44.14613" lon="5.67848">
        <ele>1534.181</ele>
        <time>2020-09-02T10:53:40Z</time>
      </trkpt>
      <trkpt lat="44.14613" lon="5.67858">
        <ele>1534.378</ele>
        <time>2020-09-02T10:53:42Z</time>
      </trkpt>
      <trkpt lat="44.14616" lon="5.67865">
        <ele>1534.149</ele>
        <time>2020-09-02T10:53:44Z</time>
      </trkpt>
      <trkpt lat="44.1462" lon="5.6787">
        <ele>1534.817</ele>
        <time>2020-09-02T10:53:46Z</time>
      </trkpt>
      <trkpt lat="44.14616" lon="5.67876">
        <ele>1535.833</ele>
        <time>2020-09-02T10:54:00Z</time>
      </trkpt>
      <trkpt lat="44.1461" lon="5.67876">
        <ele>1536.796</ele>
        <time>2020-09-02T10:54:02Z</time>
      </trkpt>
      <trkpt lat="44.14603" lon="5.67876">
        <ele>1536.684</ele>
        <time>2020-09-02T10:54:04Z</time>
      </trkpt>
      <trkpt lat="44.14597" lon="5.67878">
        <ele>1536.607</ele>
        <time>2020-09-02T10:54:06Z</time>
      </trkpt>
      <trkpt lat="44.14591" lon="5.67883">
        <ele>1536.217</ele>
        <time>2020-09-02T10:54:08Z</time>
      </trkpt>
      <trkpt lat="44.14586" lon="5.6789">
        <ele>1536.608</ele>
        <time>2020-09-02T10:54:10Z</time>
      </trkpt>
      <trkpt lat="44.14582" lon="5.67898">
        <ele>1536.776</ele>
        <time>2020-09-02T10:54:12Z</time>
      </trkpt>
      <trkpt lat="44.14583" lon="5.67905">
        <ele>1537.485</ele>
        <time>2020-09-02T10:54:18Z</time>
      </trkpt>
      <trkpt lat="44.14585" lon="5.6791">
        <ele>1536.525</ele>
        <time>2020-09-02T10:54:20Z</time>
      </trkpt>
      <trkpt lat="44.14586" lon="5.67918">
        <ele>1535.872</ele>
        <time>2020-09-02T10:54:22Z</time>
      </trkpt>
      <trkpt lat="44.14585" lon="5.67927">
        <ele>1535.263</ele>
        <time>2020-09-02T10:54:24Z</time>
      </trkpt>
      <trkpt lat="44.14584" lon="5.67936">
        <ele>1535.041</ele>
        <time>2020-09-02T10:54:26Z</time>
      </trkpt>
      <trkpt lat="44.14581" lon="5.67944">
        <ele>1534.767</ele>
        <time>2020-09-02T10:54:28Z</time>
      </trkpt>
      <trkpt lat="44.14577" lon="5.67952">
        <ele>1534.35</ele>
        <time>2020-09-02T10:54:30Z</time>
      </trkpt>
      <trkpt lat="44.14573" lon="5.67958">
        <ele>1532.566</ele>
        <time>2020-09-02T10:54:33Z</time>
      </trkpt>
      <trkpt lat="44.14572" lon="5.67965">
        <ele>1532.329</ele>
        <time>2020-09-02T10:54:36Z</time>
      </trkpt>
      <trkpt lat="44.14573" lon="5.67974">
        <ele>1532.821</ele>
        <time>2020-09-02T10:54:39Z</time>
      </trkpt>
      <trkpt lat="44.14572" lon="5.67981">
        <ele>1533.308</ele>
        <time>2020-09-02T10:54:41Z</time>
      </trkpt>
      <trkpt lat="44.14569" lon="5.67988">
        <ele>1534.014</ele>
        <time>2020-09-02T10:54:43Z</time>
      </trkpt>
      <trkpt lat="44.14566" lon="5.67996">
        <ele>1533.793</ele>
        <time>2020-09-02T10:54:45Z</time>
      </trkpt>
      <trkpt lat="44.14562" lon="5.68005">
        <ele>1533.073</ele>
        <time>2020-09-02T10:54:47Z</time>
      </trkpt>
      <trkpt lat="44.14557" lon="5.68013">
        <ele>1532.06</ele>
        <time>2020-09-02T10:54:49Z</time>
      </trkpt>
      <trkpt lat="44.14552" lon="5.68022">
        <ele>1531.071</ele>
        <time>2020-09-02T10:54:51Z</time>
      </trkpt>
      <trkpt lat="44.14548" lon="5.6803">
        <ele>1530.239</ele>
        <time>2020-09-02T10:54:53Z</time>
      </trkpt>
      <trkpt lat="44.14544" lon="5.68035">
        <ele>1529.415</ele>
        <time>2020-09-02T10:54:55Z</time>
      </trkpt>
      <trkpt lat="44.14542" lon="5.68042">
        <ele>1527.728</ele>
        <time>2020-09-02T10:54:58Z</time>
      </trkpt>
      <trkpt lat="44.14542" lon="5.68049">
        <ele>1526.643</ele>
        <time>2020-09-02T10:55:00Z</time>
      </trkpt>
      <trkpt lat="44.14543" lon="5.68056">
        <ele>1525.364</ele>
        <time>2020-09-02T10:55:02Z</time>
      </trkpt>
      <trkpt lat="44.14541" lon="5.68062">
        <ele>1522.71</ele>
        <time>2020-09-02T10:55:30Z</time>
      </trkpt>
      <trkpt lat="44.14539" lon="5.6807">
        <ele>1522.008</ele>
        <time>2020-09-02T10:55:33Z</time>
      </trkpt>
      <trkpt lat="44.14538" lon="5.68077">
        <ele>1521.732</ele>
        <time>2020-09-02T10:55:35Z</time>
      </trkpt>
      <trkpt lat="44.14538" lon="5.68085">
        <ele>1521.451</ele>
        <time>2020-09-02T10:55:37Z</time>
      </trkpt>
      <trkpt lat="44.14539" lon="5.68093">
        <ele>1520.691</ele>
        <time>2020-09-02T10:55:39Z</time>
      </trkpt>
      <trkpt lat="44.1454" lon="5.68101">
        <ele>1520.378</ele>
        <time>2020-09-02T10:55:41Z</time>
      </trkpt>
      <trkpt lat="44.14541" lon="5.68108">
        <ele>1519.289</ele>
        <time>2020-09-02T10:55:43Z</time>
      </trkpt>
      <trkpt lat="44.1454" lon="5.68114">
        <ele>1518.027</ele>
        <time>2020-09-02T10:55:45Z</time>
      </trkpt>
      <trkpt lat="44.14538" lon="5.68121">
        <ele>1517.763</ele>
        <time>2020-09-02T10:55:47Z</time>
      </trkpt>
      <trkpt lat="44.14536" lon="5.68127">
        <ele>1517.326</ele>
        <time>2020-09-02T10:55:49Z</time>
      </trkpt>
      <trkpt lat="44.14535" lon="5.68136">
        <ele>1515.665</ele>
        <time>2020-09-02T10:55:52Z</time>
      </trkpt>
      <trkpt lat="44.1453" lon="5.6814">
        <ele>1515.468</ele>
        <time>2020-09-02T10:55:54Z</time>
      </trkpt>
      <trkpt lat="44.14525" lon="5.68141">
        <ele>1515.214</ele>
        <time>2020-09-02T10:55:56Z</time>
      </trkpt>
      <trkpt lat="44.1452" lon="5.68142">
        <ele>1514.508</ele>
        <time>2020-09-02T10:55:58Z</time>
      </trkpt>
      <trkpt lat="44.14516" lon="5.68145">
        <ele>1514.244</ele>
        <time>2020-09-02T10:56:00Z</time>
      </trkpt>
      <trkpt lat="44.14512" lon="5.68152">
        <ele>1513.153</ele>
        <time>2020-09-02T10:56:03Z</time>
      </trkpt>
      <trkpt lat="44.14508" lon="5.68158">
        <ele>1511.623</ele>
        <time>2020-09-02T10:56:05Z</time>
      </trkpt>
      <trkpt lat="44.14503" lon="5.68161">
        <ele>1509.77</ele>
        <time>2020-09-02T10:56:07Z</time>
      </trkpt>
      <trkpt lat="44.14497" lon="5.68164">
        <ele>1508.191</ele>
        <time>2020-09-02T10:56:09Z</time>
      </trkpt>
      <trkpt lat="44.14491" lon="5.68169">
        <ele>1506.769</ele>
        <time>2020-09-02T10:56:11Z</time>
      </trkpt>
      <trkpt lat="44.14487" lon="5.68177">
        <ele>1505.425</ele>
        <time>2020-09-02T10:56:13Z</time>
      </trkpt>
      <trkpt lat="44.14486" lon="5.68186">
        <ele>1503.598</ele>
        <time>2020-09-02T10:56:15Z</time>
      </trkpt>
      <trkpt lat="44.14485" lon="5.68195">
        <ele>1501.564</ele>
        <time>2020-09-02T10:56:17Z</time>
      </trkpt>
      <trkpt lat="44.14484" lon="5.68204">
        <ele>1498.506</ele>
        <time>2020-09-02T10:56:19Z</time>
      </trkpt>
      <trkpt lat="44.14484" lon="5.68211">
        <ele>1496.516</ele>
        <time>2020-09-02T10:56:21Z</time>
      </trkpt>
      <trkpt lat="44.14484" lon="5.6822">
        <ele>1495.208</ele>
        <time>2020-09-02T10:56:23Z</time>
      </trkpt>
      <trkpt lat="44.14484" lon="5.6823">
        <ele>1494.394</ele>
        <time>2020-09-02T10:56:25Z</time>
      </trkpt>
      <trkpt lat="44.14485" lon="5.68239">
        <ele>1493.123</ele>
        <time>2020-09-02T10:56:27Z</time>
      </trkpt>
      <trkpt lat="44.14486" lon="5.6825">
        <ele>1492.013</ele>
        <time>2020-09-02T10:56:29Z</time>
      </trkpt>
      <trkpt lat="44.14486" lon="5.6826">
        <ele>1490.28</ele>
        <time>2020-09-02T10:56:31Z</time>
      </trkpt>
      <trkpt lat="44.14485" lon="5.6827">
        <ele>1488.991</ele>
        <time>2020-09-02T10:56:33Z</time>
      </trkpt>
      <trkpt lat="44.14484" lon="5.68279">
        <ele>1487.859</ele>
        <time>2020-09-02T10:56:35Z</time>
      </trkpt>
      <trkpt lat="44.14484" lon="5.68286">
        <ele>1486.655</ele>
        <time>2020-09-02T10:56:37Z</time>
      </trkpt>
      <trkpt lat="44.14485" lon="5.68294">
        <ele>1485.288</ele>
        <time>2020-09-02T10:56:39Z</time>
      </trkpt>
      <trkpt lat="44.14486" lon="5.68305">
        <ele>1484.019</ele>
        <time>2020-09-02T10:56:41Z</time>
      </trkpt>
      <trkpt lat="44.14486" lon="5.68314">
        <ele>1483.709</ele>
        <time>2020-09-02T10:56:43Z</time>
      </trkpt>
      <trkpt lat="44.14485" lon="5.68324">
        <ele>1483.419</ele>
        <time>2020-09-02T10:56:45Z</time>
      </trkpt>
      <trkpt lat="44.14483" lon="5.68334">
        <ele>1482.508</ele>
        <time>2020-09-02T10:56:47Z</time>
      </trkpt>
      <trkpt lat="44.14481" lon="5.68342">
        <ele>1482.779</ele>
        <time>2020-09-02T10:56:49Z</time>
      </trkpt>
      <trkpt lat="44.14478" lon="5.68349">
        <ele>1479.638</ele>
        <time>2020-09-02T10:56:51Z</time>
      </trkpt>
      <trkpt lat="44.14473" lon="5.68356">
        <ele>1478.768</ele>
        <time>2020-09-02T10:56:53Z</time>
      </trkpt>
      <trkpt lat="44.1447" lon="5.68361">
        <ele>1479.685</ele>
        <time>2020-09-02T10:56:55Z</time>
      </trkpt>
      <trkpt lat="44.14468" lon="5.68369">
        <ele>1479.336</ele>
        <time>2020-09-02T10:56:58Z</time>
      </trkpt>
      <trkpt lat="44.14469" lon="5.68377">
        <ele>1478.234</ele>
        <time>2020-09-02T10:57:00Z</time>
      </trkpt>
      <trkpt lat="44.14472" lon="5.68385">
        <ele>1476.42</ele>
        <time>2020-09-02T10:57:02Z</time>
      </trkpt>
      <trkpt lat="44.14469" lon="5.68391">
        <ele>1473.913</ele>
        <time>2020-09-02T10:57:10Z</time>
      </trkpt>
      <trkpt lat="44.14467" lon="5.68399">
        <ele>1473.018</ele>
        <time>2020-09-02T10:57:13Z</time>
      </trkpt>
      <trkpt lat="44.14467" lon="5.68408">
        <ele>1471.798</ele>
        <time>2020-09-02T10:57:15Z</time>
      </trkpt>
      <trkpt lat="44.1447" lon="5.68419">
        <ele>1471.517</ele>
        <time>2020-09-02T10:57:17Z</time>
      </trkpt>
      <trkpt lat="44.14473" lon="5.6843">
        <ele>1471.108</ele>
        <time>2020-09-02T10:57:19Z</time>
      </trkpt>
      <trkpt lat="44.14475" lon="5.6844">
        <ele>1470.789</ele>
        <time>2020-09-02T10:57:21Z</time>
      </trkpt>
      <trkpt lat="44.14476" lon="5.68449">
        <ele>1471.038</ele>
        <time>2020-09-02T10:57:23Z</time>
      </trkpt>
      <trkpt lat="44.14475" lon="5.68456">
        <ele>1472.058</ele>
        <time>2020-09-02T10:57:50Z</time>
      </trkpt>
      <trkpt lat="44.14473" lon="5.68467">
        <ele>1471.645</ele>
        <time>2020-09-02T10:57:52Z</time>
      </trkpt>
      <trkpt lat="44.14472" lon="5.68474">
        <ele>1471.856</ele>
        <time>2020-09-02T10:57:53Z</time>
      </trkpt>
      <trkpt lat="44.14473" lon="5.68481">
        <ele>1471.614</ele>
        <time>2020-09-02T10:57:54Z</time>
      </trkpt>
      <trkpt lat="44.14473" lon="5.68488">
        <ele>1471.73</ele>
        <time>2020-09-02T10:57:55Z</time>
      </trkpt>
      <trkpt lat="44.14475" lon="5.68494">
        <ele>1471.823</ele>
        <time>2020-09-02T10:57:56Z</time>
      </trkpt>
      <trkpt lat="44.14476" lon="5.68505">
        <ele>1471.341</ele>
        <time>2020-09-02T10:57:58Z</time>
      </trkpt>
      <trkpt lat="44.14476" lon="5.68515">
        <ele>1470.981</ele>
        <time>2020-09-02T10:58:00Z</time>
      </trkpt>
      <trkpt lat="44.14477" lon="5.68524">
        <ele>1470.709</ele>
        <time>2020-09-02T10:58:02Z</time>
      </trkpt>
      <trkpt lat="44.14481" lon="5.68534">
        <ele>1471.008</ele>
        <time>2020-09-02T10:58:04Z</time>
      </trkpt>
      <trkpt lat="44.14486" lon="5.68544">
        <ele>1471.942</ele>
        <time>2020-09-02T10:58:06Z</time>
      </trkpt>
      <trkpt lat="44.14488" lon="5.6855">
        <ele>1472.081</ele>
        <time>2020-09-02T10:58:07Z</time>
      </trkpt>
      <trkpt lat="44.14489" lon="5.68557">
        <ele>1472.271</ele>
        <time>2020-09-02T10:58:08Z</time>
      </trkpt>
      <trkpt lat="44.1449" lon="5.68563">
        <ele>1472.418</ele>
        <time>2020-09-02T10:58:09Z</time>
      </trkpt>
      <trkpt lat="44.14489" lon="5.6857">
        <ele>1471.979</ele>
        <time>2020-09-02T10:58:10Z</time>
      </trkpt>
      <trkpt lat="44.14491" lon="5.68576">
        <ele>1471.557</ele>
        <time>2020-09-02T10:58:11Z</time>
      </trkpt>
      <trkpt lat="44.14492" lon="5.68587">
        <ele>1471.723</ele>
        <time>2020-09-02T10:58:13Z</time>
      </trkpt>
      <trkpt lat="44.14487" lon="5.68591">
        <ele>1471.746</ele>
        <time>2020-09-02T10:58:14Z</time>
      </trkpt>
      <trkpt lat="44.14484" lon="5.68597">
        <ele>1471.314</ele>
        <time>2020-09-02T10:58:16Z</time>
      </trkpt>
      <trkpt lat="44.1448" lon="5.68607">
        <ele>1470.954</ele>
        <time>2020-09-02T10:58:18Z</time>
      </trkpt>
      <trkpt lat="44.14478" lon="5.68618">
        <ele>1470.609</ele>
        <time>2020-09-02T10:58:20Z</time>
      </trkpt>
      <trkpt lat="44.14475" lon="5.68629">
        <ele>1469.908</ele>
        <time>2020-09-02T10:58:22Z</time>
      </trkpt>
      <trkpt lat="44.14472" lon="5.68639">
        <ele>1468.859</ele>
        <time>2020-09-02T10:58:24Z</time>
      </trkpt>
      <trkpt lat="44.1447" lon="5.68648">
        <ele>1467.858</ele>
        <time>2020-09-02T10:58:26Z</time>
      </trkpt>
      <trkpt lat="44.14468" lon="5.68655">
        <ele>1466.888</ele>
        <time>2020-09-02T10:58:29Z</time>
      </trkpt>
      <trkpt lat="44.14466" lon="5.68663">
        <ele>1466.965</ele>
        <time>2020-09-02T10:58:32Z</time>
      </trkpt>
      <trkpt lat="44.14466" lon="5.68671">
        <ele>1466.696</ele>
        <time>2020-09-02T10:58:34Z</time>
      </trkpt>
      <trkpt lat="44.14465" lon="5.6868">
        <ele>1466.674</ele>
        <time>2020-09-02T10:58:36Z</time>
      </trkpt>
      <trkpt lat="44.14462" lon="5.68689">
        <ele>1464.77</ele>
        <time>2020-09-02T10:58:38Z</time>
      </trkpt>
      <trkpt lat="44.14459" lon="5.68697">
        <ele>1464.753</ele>
        <time>2020-09-02T10:58:40Z</time>
      </trkpt>
      <trkpt lat="44.14456" lon="5.68705">
        <ele>1463.614</ele>
        <time>2020-09-02T10:58:42Z</time>
      </trkpt>
      <trkpt lat="44.14453" lon="5.68715">
        <ele>1463.254</ele>
        <time>2020-09-02T10:58:44Z</time>
      </trkpt>
      <trkpt lat="44.14451" lon="5.68725">
        <ele>1462.809</ele>
        <time>2020-09-02T10:58:46Z</time>
      </trkpt>
      <trkpt lat="44.14452" lon="5.68733">
        <ele>1461.808</ele>
        <time>2020-09-02T10:58:48Z</time>
      </trkpt>
      <trkpt lat="44.14455" lon="5.68742">
        <ele>1460.689</ele>
        <time>2020-09-02T10:58:51Z</time>
      </trkpt>
      <trkpt lat="44.14454" lon="5.68748">
        <ele>1459.928</ele>
        <time>2020-09-02T10:58:53Z</time>
      </trkpt>
      <trkpt lat="44.14453" lon="5.68756">
        <ele>1459.218</ele>
        <time>2020-09-02T10:58:56Z</time>
      </trkpt>
      <trkpt lat="44.14454" lon="5.68762">
        <ele>1459.085</ele>
        <time>2020-09-02T10:58:58Z</time>
      </trkpt>
      <trkpt lat="44.14456" lon="5.68769">
        <ele>1458.576</ele>
        <time>2020-09-02T10:59:00Z</time>
      </trkpt>
      <trkpt lat="44.14458" lon="5.68775">
        <ele>1457.484</ele>
        <time>2020-09-02T10:59:12Z</time>
      </trkpt>
      <trkpt lat="44.14458" lon="5.68785">
        <ele>1457.87</ele>
        <time>2020-09-02T10:59:30Z</time>
      </trkpt>
      <trkpt lat="44.14458" lon="5.68791">
        <ele>1457.523</ele>
        <time>2020-09-02T10:59:32Z</time>
      </trkpt>
      <trkpt lat="44.14459" lon="5.68799">
        <ele>1456.766</ele>
        <time>2020-09-02T10:59:35Z</time>
      </trkpt>
      <trkpt lat="44.14458" lon="5.68808">
        <ele>1456.729</ele>
        <time>2020-09-02T10:59:37Z</time>
      </trkpt>
      <trkpt lat="44.14457" lon="5.68819">
        <ele>1456.821</ele>
        <time>2020-09-02T10:59:39Z</time>
      </trkpt>
      <trkpt lat="44.14458" lon="5.68831">
        <ele>1455.808</ele>
        <time>2020-09-02T10:59:41Z</time>
      </trkpt>
      <trkpt lat="44.1446" lon="5.6884">
        <ele>1455.624</ele>
        <time>2020-09-02T10:59:43Z</time>
      </trkpt>
      <trkpt lat="44.14462" lon="5.68849">
        <ele>1455.023</ele>
        <time>2020-09-02T10:59:45Z</time>
      </trkpt>
      <trkpt lat="44.14462" lon="5.68859">
        <ele>1454.153</ele>
        <time>2020-09-02T10:59:47Z</time>
      </trkpt>
      <trkpt lat="44.14459" lon="5.68866">
        <ele>1453.01</ele>
        <time>2020-09-02T10:59:49Z</time>
      </trkpt>
      <trkpt lat="44.14455" lon="5.68873">
        <ele>1453.341</ele>
        <time>2020-09-02T10:59:51Z</time>
      </trkpt>
      <trkpt lat="44.14453" lon="5.68881">
        <ele>1453.339</ele>
        <time>2020-09-02T10:59:53Z</time>
      </trkpt>
      <trkpt lat="44.14452" lon="5.68891">
        <ele>1453.335</ele>
        <time>2020-09-02T10:59:55Z</time>
      </trkpt>
      <trkpt lat="44.14451" lon="5.68903">
        <ele>1453.298</ele>
        <time>2020-09-02T10:59:57Z</time>
      </trkpt>
      <trkpt lat="44.14449" lon="5.6891">
        <ele>1453.093</ele>
        <time>2020-09-02T10:59:59Z</time>
      </trkpt>
      <trkpt lat="44.14447" lon="5.68917">
        <ele>1452.165</ele>
        <time>2020-09-02T11:00:01Z</time>
      </trkpt>
      <trkpt lat="44.14446" lon="5.68926">
        <ele>1452.021</ele>
        <time>2020-09-02T11:00:03Z</time>
      </trkpt>
      <trkpt lat="44.14446" lon="5.68933">
        <ele>1451.308</ele>
        <time>2020-09-02T11:00:04Z</time>
      </trkpt>
      <trkpt lat="44.14445" lon="5.68939">
        <ele>1451.857</ele>
        <time>2020-09-02T11:00:05Z</time>
      </trkpt>
      <trkpt lat="44.14445" lon="5.68951">
        <ele>1451.776</ele>
        <time>2020-09-02T11:00:07Z</time>
      </trkpt>
      <trkpt lat="44.14445" lon="5.68959">
        <ele>1451.826</ele>
        <time>2020-09-02T11:00:09Z</time>
      </trkpt>
      <trkpt lat="44.14446" lon="5.68966">
        <ele>1451.463</ele>
        <time>2020-09-02T11:00:11Z</time>
      </trkpt>
      <trkpt lat="44.14445" lon="5.68975">
        <ele>1451.674</ele>
        <time>2020-09-02T11:00:13Z</time>
      </trkpt>
      <trkpt lat="44.14442" lon="5.68984">
        <ele>1451.282</ele>
        <time>2020-09-02T11:00:15Z</time>
      </trkpt>
      <trkpt lat="44.14438" lon="5.68991">
        <ele>1450.068</ele>
        <time>2020-09-02T11:00:17Z</time>
      </trkpt>
      <trkpt lat="44.14434" lon="5.68999">
        <ele>1449.371</ele>
        <time>2020-09-02T11:00:19Z</time>
      </trkpt>
      <trkpt lat="44.14429" lon="5.69008">
        <ele>1448.291</ele>
        <time>2020-09-02T11:00:21Z</time>
      </trkpt>
      <trkpt lat="44.14424" lon="5.69016">
        <ele>1446.581</ele>
        <time>2020-09-02T11:00:23Z</time>
      </trkpt>
      <trkpt lat="44.14421" lon="5.69025">
        <ele>1445.019</ele>
        <time>2020-09-02T11:00:25Z</time>
      </trkpt>
      <trkpt lat="44.14423" lon="5.69035">
        <ele>1442.108</ele>
        <time>2020-09-02T11:00:27Z</time>
      </trkpt>
      <trkpt lat="44.14428" lon="5.69043">
        <ele>1441.117</ele>
        <time>2020-09-02T11:00:29Z</time>
      </trkpt>
      <trkpt lat="44.14431" lon="5.69052">
        <ele>1440.976</ele>
        <time>2020-09-02T11:00:31Z</time>
      </trkpt>
      <trkpt lat="44.14432" lon="5.69061">
        <ele>1440.876</ele>
        <time>2020-09-02T11:00:33Z</time>
      </trkpt>
      <trkpt lat="44.1443" lon="5.69068">
        <ele>1438.513</ele>
        <time>2020-09-02T11:00:35Z</time>
      </trkpt>
      <trkpt lat="44.14425" lon="5.69073">
        <ele>1436.284</ele>
        <time>2020-09-02T11:00:38Z</time>
      </trkpt>
      <trkpt lat="44.14422" lon="5.69079">
        <ele>1437.262</ele>
        <time>2020-09-02T11:00:57Z</time>
      </trkpt>
      <trkpt lat="44.14419" lon="5.69085">
        <ele>1437.568</ele>
        <time>2020-09-02T11:00:59Z</time>
      </trkpt>
      <trkpt lat="44.14413" lon="5.6909">
        <ele>1437.161</ele>
        <time>2020-09-02T11:01:01Z</time>
      </trkpt>
      <trkpt lat="44.14408" lon="5.69094">
        <ele>1435.153</ele>
        <time>2020-09-02T11:01:03Z</time>
      </trkpt>
      <trkpt lat="44.14403" lon="5.69098">
        <ele>1433.704</ele>
        <time>2020-09-02T11:01:05Z</time>
      </trkpt>
      <trkpt lat="44.14399" lon="5.69104">
        <ele>1431.014</ele>
        <time>2020-09-02T11:01:07Z</time>
      </trkpt>
      <trkpt lat="44.14396" lon="5.69111">
        <ele>1429.308</ele>
        <time>2020-09-02T11:01:09Z</time>
      </trkpt>
      <trkpt lat="44.14393" lon="5.69119">
        <ele>1428.193</ele>
        <time>2020-09-02T11:01:11Z</time>
      </trkpt>
      <trkpt lat="44.14391" lon="5.69126">
        <ele>1426.062</ele>
        <time>2020-09-02T11:01:13Z</time>
      </trkpt>
      <trkpt lat="44.1439" lon="5.69134">
        <ele>1425.492</ele>
        <time>2020-09-02T11:01:15Z</time>
      </trkpt>
      <trkpt lat="44.14388" lon="5.69142">
        <ele>1425.639</ele>
        <time>2020-09-02T11:01:17Z</time>
      </trkpt>
      <trkpt lat="44.14385" lon="5.69149">
        <ele>1425.13</ele>
        <time>2020-09-02T11:01:19Z</time>
      </trkpt>
      <trkpt lat="44.1438" lon="5.69153">
        <ele>1424.228</ele>
        <time>2020-09-02T11:01:21Z</time>
      </trkpt>
      <trkpt lat="44.14377" lon="5.69159">
        <ele>1422.674</ele>
        <time>2020-09-02T11:01:23Z</time>
      </trkpt>
      <trkpt lat="44.14376" lon="5.69168">
        <ele>1421.857</ele>
        <time>2020-09-02T11:01:25Z</time>
      </trkpt>
      <trkpt lat="44.14376" lon="5.69174">
        <ele>1421.411</ele>
        <time>2020-09-02T11:01:27Z</time>
      </trkpt>
      <trkpt lat="44.14373" lon="5.69183">
        <ele>1419.121</ele>
        <time>2020-09-02T11:01:29Z</time>
      </trkpt>
      <trkpt lat="44.14368" lon="5.69193">
        <ele>1418.903</ele>
        <time>2020-09-02T11:01:31Z</time>
      </trkpt>
      <trkpt lat="44.14362" lon="5.69199">
        <ele>1417.708</ele>
        <time>2020-09-02T11:01:33Z</time>
      </trkpt>
      <trkpt lat="44.14356" lon="5.69201">
        <ele>1415.779</ele>
        <time>2020-09-02T11:01:35Z</time>
      </trkpt>
      <trkpt lat="44.14349" lon="5.69201">
        <ele>1412.838</ele>
        <time>2020-09-02T11:01:37Z</time>
      </trkpt>
      <trkpt lat="44.14343" lon="5.692">
        <ele>1410.348</ele>
        <time>2020-09-02T11:01:39Z</time>
      </trkpt>
      <trkpt lat="44.14339" lon="5.69203">
        <ele>1409.075</ele>
        <time>2020-09-02T11:01:41Z</time>
      </trkpt>
      <trkpt lat="44.14337" lon="5.69212">
        <ele>1406.136</ele>
        <time>2020-09-02T11:01:43Z</time>
      </trkpt>
      <trkpt lat="44.14333" lon="5.69222">
        <ele>1404.714</ele>
        <time>2020-09-02T11:01:45Z</time>
      </trkpt>
      <trkpt lat="44.14328" lon="5.69229">
        <ele>1402.16</ele>
        <time>2020-09-02T11:01:47Z</time>
      </trkpt>
      <trkpt lat="44.14322" lon="5.69237">
        <ele>1400.223</ele>
        <time>2020-09-02T11:01:49Z</time>
      </trkpt>
      <trkpt lat="44.14317" lon="5.69244">
        <ele>1399.293</ele>
        <time>2020-09-02T11:01:51Z</time>
      </trkpt>
      <trkpt lat="44.14312" lon="5.69249">
        <ele>1398.265</ele>
        <time>2020-09-02T11:01:53Z</time>
      </trkpt>
      <trkpt lat="44.14308" lon="5.69252">
        <ele>1397.021</ele>
        <time>2020-09-02T11:01:55Z</time>
      </trkpt>
      <trkpt lat="44.14303" lon="5.69252">
        <ele>1394.808</ele>
        <time>2020-09-02T11:01:57Z</time>
      </trkpt>
      <trkpt lat="44.14296" lon="5.69253">
        <ele>1392.827</ele>
        <time>2020-09-02T11:02:00Z</time>
      </trkpt>
      <trkpt lat="44.14291" lon="5.69253">
        <ele>1390.556</ele>
        <time>2020-09-02T11:02:02Z</time>
      </trkpt>
      <trkpt lat="44.14286" lon="5.69255">
        <ele>1389.446</ele>
        <time>2020-09-02T11:02:04Z</time>
      </trkpt>
      <trkpt lat="44.14282" lon="5.6926">
        <ele>1389.033</ele>
        <time>2020-09-02T11:02:06Z</time>
      </trkpt>
      <trkpt lat="44.1428" lon="5.69265">
        <ele>1389.164</ele>
        <time>2020-09-02T11:02:08Z</time>
      </trkpt>
      <trkpt lat="44.14274" lon="5.6927">
        <ele>1388.532</ele>
        <time>2020-09-02T11:02:11Z</time>
      </trkpt>
      <trkpt lat="44.1427" lon="5.69274">
        <ele>1387.628</ele>
        <time>2020-09-02T11:02:13Z</time>
      </trkpt>
      <trkpt lat="44.14267" lon="5.69279">
        <ele>1386.321</ele>
        <time>2020-09-02T11:02:15Z</time>
      </trkpt>
      <trkpt lat="44.14267" lon="5.6929">
        <ele>1383.914</ele>
        <time>2020-09-02T11:02:17Z</time>
      </trkpt>
      <trkpt lat="44.14268" lon="5.69296">
        <ele>1383.754</ele>
        <time>2020-09-02T11:02:18Z</time>
      </trkpt>
      <trkpt lat="44.14269" lon="5.69304">
        <ele>1383.209</ele>
        <time>2020-09-02T11:02:19Z</time>
      </trkpt>
      <trkpt lat="44.14275" lon="5.69315">
        <ele>1383.408</ele>
        <time>2020-09-02T11:02:20Z</time>
      </trkpt>
      <trkpt lat="44.14279" lon="5.69327">
        <ele>1383.229</ele>
        <time>2020-09-02T11:02:22Z</time>
      </trkpt>
      <trkpt lat="44.14279" lon="5.69334">
        <ele>1382.398</ele>
        <time>2020-09-02T11:02:23Z</time>
      </trkpt>
      <trkpt lat="44.14279" lon="5.6934">
        <ele>1382.238</ele>
        <time>2020-09-02T11:02:24Z</time>
      </trkpt>
      <trkpt lat="44.1428" lon="5.69347">
        <ele>1382.275</ele>
        <time>2020-09-02T11:02:25Z</time>
      </trkpt>
      <trkpt lat="44.1428" lon="5.69353">
        <ele>1382.296</ele>
        <time>2020-09-02T11:02:26Z</time>
      </trkpt>
      <trkpt lat="44.14279" lon="5.69366">
        <ele>1382.624</ele>
        <time>2020-09-02T11:02:28Z</time>
      </trkpt>
      <trkpt lat="44.1428" lon="5.69373">
        <ele>1382.83</ele>
        <time>2020-09-02T11:02:29Z</time>
      </trkpt>
      <trkpt lat="44.1428" lon="5.69379">
        <ele>1382.533</ele>
        <time>2020-09-02T11:02:30Z</time>
      </trkpt>
      <trkpt lat="44.1428" lon="5.6939">
        <ele>1382.536</ele>
        <time>2020-09-02T11:02:32Z</time>
      </trkpt>
      <trkpt lat="44.14281" lon="5.69398">
        <ele>1382.817</ele>
        <time>2020-09-02T11:02:34Z</time>
      </trkpt>
      <trkpt lat="44.14278" lon="5.69406">
        <ele>1381.918</ele>
        <time>2020-09-02T11:02:36Z</time>
      </trkpt>
      <trkpt lat="44.14279" lon="5.69414">
        <ele>1381.608</ele>
        <time>2020-09-02T11:02:38Z</time>
      </trkpt>
      <trkpt lat="44.14279" lon="5.69424">
        <ele>1382.241</ele>
        <time>2020-09-02T11:02:41Z</time>
      </trkpt>
      <trkpt lat="44.14276" lon="5.6943">
        <ele>1382.19</ele>
        <time>2020-09-02T11:02:43Z</time>
      </trkpt>
      <trkpt lat="44.1428" lon="5.69436">
        <ele>1382.57</ele>
        <time>2020-09-02T11:02:48Z</time>
      </trkpt>
      <trkpt lat="44.14283" lon="5.69445">
        <ele>1382.177</ele>
        <time>2020-09-02T11:02:50Z</time>
      </trkpt>
      <trkpt lat="44.14284" lon="5.69453">
        <ele>1381.548</ele>
        <time>2020-09-02T11:02:52Z</time>
      </trkpt>
      <trkpt lat="44.1428" lon="5.69458">
        <ele>1382.316</ele>
        <time>2020-09-02T11:02:56Z</time>
      </trkpt>
      <trkpt lat="44.14277" lon="5.69465">
        <ele>1382.972</ele>
        <time>2020-09-02T11:02:59Z</time>
      </trkpt>
      <trkpt lat="44.14275" lon="5.69471">
        <ele>1383.625</ele>
        <time>2020-09-02T11:03:02Z</time>
      </trkpt>
      <trkpt lat="44.14274" lon="5.69479">
        <ele>1384.223</ele>
        <time>2020-09-02T11:03:04Z</time>
      </trkpt>
      <trkpt lat="44.14274" lon="5.69488">
        <ele>1384.383</ele>
        <time>2020-09-02T11:03:06Z</time>
      </trkpt>
      <trkpt lat="44.14272" lon="5.69497">
        <ele>1384.311</ele>
        <time>2020-09-02T11:03:08Z</time>
      </trkpt>
      <trkpt lat="44.1427" lon="5.69504">
        <ele>1383.808</ele>
        <time>2020-09-02T11:03:10Z</time>
      </trkpt>
      <trkpt lat="44.14271" lon="5.69512">
        <ele>1383.22</ele>
        <time>2020-09-02T11:03:13Z</time>
      </trkpt>
      <trkpt lat="44.14272" lon="5.69519">
        <ele>1382.649</ele>
        <time>2020-09-02T11:03:15Z</time>
      </trkpt>
      <trkpt lat="44.14272" lon="5.69527">
        <ele>1382.799</ele>
        <time>2020-09-02T11:03:17Z</time>
      </trkpt>
      <trkpt lat="44.14274" lon="5.69534">
        <ele>1382.156</ele>
        <time>2020-09-02T11:03:19Z</time>
      </trkpt>
      <trkpt lat="44.1428" lon="5.69536">
        <ele>1382.647</ele>
        <time>2020-09-02T11:03:21Z</time>
      </trkpt>
      <trkpt lat="44.14287" lon="5.69536">
        <ele>1383.635</ele>
        <time>2020-09-02T11:03:23Z</time>
      </trkpt>
      <trkpt lat="44.14294" lon="5.69534">
        <ele>1383.831</ele>
        <time>2020-09-02T11:03:25Z</time>
      </trkpt>
      <trkpt lat="44.14302" lon="5.69535">
        <ele>1383.544</ele>
        <time>2020-09-02T11:03:27Z</time>
      </trkpt>
      <trkpt lat="44.14308" lon="5.69538">
        <ele>1383.774</ele>
        <time>2020-09-02T11:03:29Z</time>
      </trkpt>
      <trkpt lat="44.14314" lon="5.69542">
        <ele>1383.656</ele>
        <time>2020-09-02T11:03:31Z</time>
      </trkpt>
      <trkpt lat="44.1432" lon="5.69546">
        <ele>1383.321</ele>
        <time>2020-09-02T11:03:33Z</time>
      </trkpt>
      <trkpt lat="44.14325" lon="5.69546">
        <ele>1383.808</ele>
        <time>2020-09-02T11:03:35Z</time>
      </trkpt>
      <trkpt lat="44.14331" lon="5.69549">
        <ele>1383.035</ele>
        <time>2020-09-02T11:03:38Z</time>
      </trkpt>
      <trkpt lat="44.14337" lon="5.69553">
        <ele>1383.154</ele>
        <time>2020-09-02T11:03:41Z</time>
      </trkpt>
      <trkpt lat="44.14341" lon="5.69558">
        <ele>1381.784</ele>
        <time>2020-09-02T11:03:44Z</time>
      </trkpt>
      <trkpt lat="44.14338" lon="5.69566">
        <ele>1381.391</ele>
        <time>2020-09-02T11:03:47Z</time>
      </trkpt>
      <trkpt lat="44.14333" lon="5.69572">
        <ele>1381.662</ele>
        <time>2020-09-02T11:03:49Z</time>
      </trkpt>
      <trkpt lat="44.1433" lon="5.69579">
        <ele>1381.55</ele>
        <time>2020-09-02T11:03:51Z</time>
      </trkpt>
      <trkpt lat="44.14329" lon="5.69586">
        <ele>1381.636</ele>
        <time>2020-09-02T11:03:53Z</time>
      </trkpt>
      <trkpt lat="44.1433" lon="5.69593">
        <ele>1380.799</ele>
        <time>2020-09-02T11:03:55Z</time>
      </trkpt>
      <trkpt lat="44.14334" lon="5.69598">
        <ele>1380.147</ele>
        <time>2020-09-02T11:03:57Z</time>
      </trkpt>
      <trkpt lat="44.14339" lon="5.69602">
        <ele>1380.329</ele>
        <time>2020-09-02T11:03:59Z</time>
      </trkpt>
      <trkpt lat="44.14341" lon="5.69607">
        <ele>1380.821</ele>
        <time>2020-09-02T11:04:14Z</time>
      </trkpt>
      <trkpt lat="44.14342" lon="5.69617">
        <ele>1382.208</ele>
        <time>2020-09-02T11:04:18Z</time>
      </trkpt>
      <trkpt lat="44.14346" lon="5.69624">
        <ele>1381.562</ele>
        <time>2020-09-02T11:04:20Z</time>
      </trkpt>
      <trkpt lat="44.1435" lon="5.69632">
        <ele>1382.041</ele>
        <time>2020-09-02T11:04:22Z</time>
      </trkpt>
      <trkpt lat="44.14354" lon="5.69639">
        <ele>1381.111</ele>
        <time>2020-09-02T11:04:24Z</time>
      </trkpt>
      <trkpt lat="44.14358" lon="5.69646">
        <ele>1380.828</ele>
        <time>2020-09-02T11:04:26Z</time>
      </trkpt>
      <trkpt lat="44.14363" lon="5.6965">
        <ele>1381.119</ele>
        <time>2020-09-02T11:04:32Z</time>
      </trkpt>
      <trkpt lat="44.14368" lon="5.69656">
        <ele>1381.347</ele>
        <time>2020-09-02T11:04:34Z</time>
      </trkpt>
      <trkpt lat="44.14373" lon="5.69664">
        <ele>1381.583</ele>
        <time>2020-09-02T11:04:36Z</time>
      </trkpt>
      <trkpt lat="44.14376" lon="5.69668">
        <ele>1381.666</ele>
        <time>2020-09-02T11:04:37Z</time>
      </trkpt>
      <trkpt lat="44.14381" lon="5.69676">
        <ele>1381.484</ele>
        <time>2020-09-02T11:04:39Z</time>
      </trkpt>
      <trkpt lat="44.14384" lon="5.69683">
        <ele>1381.707</ele>
        <time>2020-09-02T11:04:41Z</time>
      </trkpt>
      <trkpt lat="44.14384" lon="5.69694">
        <ele>1381.717</ele>
        <time>2020-09-02T11:04:43Z</time>
      </trkpt>
      <trkpt lat="44.14384" lon="5.69705">
        <ele>1382.608</ele>
        <time>2020-09-02T11:04:45Z</time>
      </trkpt>
      <trkpt lat="44.14385" lon="5.69715">
        <ele>1382.136</ele>
        <time>2020-09-02T11:04:47Z</time>
      </trkpt>
      <trkpt lat="44.14384" lon="5.69724">
        <ele>1381.595</ele>
        <time>2020-09-02T11:04:49Z</time>
      </trkpt>
      <trkpt lat="44.14383" lon="5.69731">
        <ele>1382.035</ele>
        <time>2020-09-02T11:04:51Z</time>
      </trkpt>
      <trkpt lat="44.1438" lon="5.69739">
        <ele>1381.362</ele>
        <time>2020-09-02T11:04:54Z</time>
      </trkpt>
      <trkpt lat="44.1438" lon="5.69745">
        <ele>1382.023</ele>
        <time>2020-09-02T11:04:56Z</time>
      </trkpt>
      <trkpt lat="44.14379" lon="5.69752">
        <ele>1380.691</ele>
        <time>2020-09-02T11:04:58Z</time>
      </trkpt>
      <trkpt lat="44.14381" lon="5.69761">
        <ele>1381.227</ele>
        <time>2020-09-02T11:05:00Z</time>
      </trkpt>
      <trkpt lat="44.14384" lon="5.69771">
        <ele>1381.82</ele>
        <time>2020-09-02T11:05:02Z</time>
      </trkpt>
      <trkpt lat="44.14388" lon="5.6978">
        <ele>1382.241</ele>
        <time>2020-09-02T11:05:04Z</time>
      </trkpt>
      <trkpt lat="44.14392" lon="5.69787">
        <ele>1382.581</ele>
        <time>2020-09-02T11:05:06Z</time>
      </trkpt>
      <trkpt lat="44.14395" lon="5.69795">
        <ele>1382.709</ele>
        <time>2020-09-02T11:05:08Z</time>
      </trkpt>
      <trkpt lat="44.14396" lon="5.69803">
        <ele>1383.408</ele>
        <time>2020-09-02T11:05:10Z</time>
      </trkpt>
      <trkpt lat="44.14395" lon="5.69811">
        <ele>1384.272</ele>
        <time>2020-09-02T11:05:12Z</time>
      </trkpt>
      <trkpt lat="44.14397" lon="5.69818">
        <ele>1383.531</ele>
        <time>2020-09-02T11:05:14Z</time>
      </trkpt>
      <trkpt lat="44.144" lon="5.69824">
        <ele>1382.421</ele>
        <time>2020-09-02T11:05:16Z</time>
      </trkpt>
      <trkpt lat="44.14403" lon="5.6983">
        <ele>1381.918</ele>
        <time>2020-09-02T11:05:18Z</time>
      </trkpt>
      <trkpt lat="44.14407" lon="5.69839">
        <ele>1380.449</ele>
        <time>2020-09-02T11:05:20Z</time>
      </trkpt>
      <trkpt lat="44.14411" lon="5.69849">
        <ele>1381.297</ele>
        <time>2020-09-02T11:05:22Z</time>
      </trkpt>
      <trkpt lat="44.14414" lon="5.69859">
        <ele>1382.783</ele>
        <time>2020-09-02T11:05:24Z</time>
      </trkpt>
      <trkpt lat="44.14414" lon="5.69869">
        <ele>1382.426</ele>
        <time>2020-09-02T11:05:26Z</time>
      </trkpt>
      <trkpt lat="44.14415" lon="5.69876">
        <ele>1382.667</ele>
        <time>2020-09-02T11:05:28Z</time>
      </trkpt>
      <trkpt lat="44.14418" lon="5.69883">
        <ele>1383.281</ele>
        <time>2020-09-02T11:05:34Z</time>
      </trkpt>
      <trkpt lat="44.14422" lon="5.69888">
        <ele>1383.719</ele>
        <time>2020-09-02T11:05:36Z</time>
      </trkpt>
      <trkpt lat="44.14425" lon="5.69895">
        <ele>1383.608</ele>
        <time>2020-09-02T11:05:38Z</time>
      </trkpt>
      <trkpt lat="44.14428" lon="5.69901">
        <ele>1383.924</ele>
        <time>2020-09-02T11:05:40Z</time>
      </trkpt>
      <trkpt lat="44.14429" lon="5.69909">
        <ele>1385.793</ele>
        <time>2020-09-02T11:05:47Z</time>
      </trkpt>
      <trkpt lat="44.14424" lon="5.69913">
        <ele>1385.173</ele>
        <time>2020-09-02T11:05:49Z</time>
      </trkpt>
      <trkpt lat="44.14418" lon="5.69914">
        <ele>1384.02</ele>
        <time>2020-09-02T11:05:51Z</time>
      </trkpt>
      <trkpt lat="44.14413" lon="5.69915">
        <ele>1382.891</ele>
        <time>2020-09-02T11:05:54Z</time>
      </trkpt>
      <trkpt lat="44.14407" lon="5.69921">
        <ele>1383.019</ele>
        <time>2020-09-02T11:05:57Z</time>
      </trkpt>
      <trkpt lat="44.14402" lon="5.69925">
        <ele>1383.225</ele>
        <time>2020-09-02T11:05:59Z</time>
      </trkpt>
      <trkpt lat="44.14397" lon="5.69928">
        <ele>1382.618</ele>
        <time>2020-09-02T11:06:02Z</time>
      </trkpt>
      <trkpt lat="44.14392" lon="5.69931">
        <ele>1381.125</ele>
        <time>2020-09-02T11:06:05Z</time>
      </trkpt>
      <trkpt lat="44.14388" lon="5.69936">
        <ele>1380.326</ele>
        <time>2020-09-02T11:06:08Z</time>
      </trkpt>
      <trkpt lat="44.14386" lon="5.69943">
        <ele>1376.308</ele>
        <time>2020-09-02T11:06:11Z</time>
      </trkpt>
      <trkpt lat="44.14382" lon="5.69947">
        <ele>1373.508</ele>
        <time>2020-09-02T11:06:13Z</time>
      </trkpt>
      <trkpt lat="44.14378" lon="5.69953">
        <ele>1373.37</ele>
        <time>2020-09-02T11:06:16Z</time>
      </trkpt>
      <trkpt lat="44.14376" lon="5.6996">
        <ele>1372.739</ele>
        <time>2020-09-02T11:06:18Z</time>
      </trkpt>
      <trkpt lat="44.14372" lon="5.69967">
        <ele>1372.329</ele>
        <time>2020-09-02T11:06:20Z</time>
      </trkpt>
      <trkpt lat="44.14369" lon="5.69976">
        <ele>1371.096</ele>
        <time>2020-09-02T11:06:22Z</time>
      </trkpt>
      <trkpt lat="44.14367" lon="5.69984">
        <ele>1369.957</ele>
        <time>2020-09-02T11:06:24Z</time>
      </trkpt>
      <trkpt lat="44.14364" lon="5.69989">
        <ele>1368.585</ele>
        <time>2020-09-02T11:06:26Z</time>
      </trkpt>
      <trkpt lat="44.14362" lon="5.69995">
        <ele>1366.711</ele>
        <time>2020-09-02T11:06:29Z</time>
      </trkpt>
      <trkpt lat="44.14358" lon="5.70001">
        <ele>1365.764</ele>
        <time>2020-09-02T11:06:32Z</time>
      </trkpt>
      <trkpt lat="44.14356" lon="5.70006">
        <ele>1364.525</ele>
        <time>2020-09-02T11:06:34Z</time>
      </trkpt>
      <trkpt lat="44.14351" lon="5.70011">
        <ele>1363.626</ele>
        <time>2020-09-02T11:06:36Z</time>
      </trkpt>
      <trkpt lat="44.14344" lon="5.70014">
        <ele>1362.608</ele>
        <time>2020-09-02T11:06:38Z</time>
      </trkpt>
      <trkpt lat="44.14338" lon="5.70017">
        <ele>1361.908</ele>
        <time>2020-09-02T11:06:40Z</time>
      </trkpt>
      <trkpt lat="44.14331" lon="5.70016">
        <ele>1361.33</ele>
        <time>2020-09-02T11:06:42Z</time>
      </trkpt>
      <trkpt lat="44.14324" lon="5.70015">
        <ele>1359.749</ele>
        <time>2020-09-02T11:06:44Z</time>
      </trkpt>
      <trkpt lat="44.14317" lon="5.70016">
        <ele>1358.899</ele>
        <time>2020-09-02T11:06:46Z</time>
      </trkpt>
      <trkpt lat="44.14312" lon="5.70019">
        <ele>1357.776</ele>
        <time>2020-09-02T11:06:48Z</time>
      </trkpt>
      <trkpt lat="44.14307" lon="5.70021">
        <ele>1356.797</ele>
        <time>2020-09-02T11:06:50Z</time>
      </trkpt>
      <trkpt lat="44.14301" lon="5.70019">
        <ele>1355.565</ele>
        <time>2020-09-02T11:06:53Z</time>
      </trkpt>
      <trkpt lat="44.14297" lon="5.70016">
        <ele>1354.171</ele>
        <time>2020-09-02T11:06:55Z</time>
      </trkpt>
      <trkpt lat="44.14291" lon="5.70018">
        <ele>1353.554</ele>
        <time>2020-09-02T11:06:57Z</time>
      </trkpt>
      <trkpt lat="44.14286" lon="5.70021">
        <ele>1352.698</ele>
        <time>2020-09-02T11:06:59Z</time>
      </trkpt>
      <trkpt lat="44.1428" lon="5.70023">
        <ele>1352.115</ele>
        <time>2020-09-02T11:07:01Z</time>
      </trkpt>
      <trkpt lat="44.14276" lon="5.70024">
        <ele>1351.526</ele>
        <time>2020-09-02T11:07:03Z</time>
      </trkpt>
      <trkpt lat="44.14269" lon="5.70025">
        <ele>1350.508</ele>
        <time>2020-09-02T11:07:06Z</time>
      </trkpt>
      <trkpt lat="44.14264" lon="5.70027">
        <ele>1349.147</ele>
        <time>2020-09-02T11:07:09Z</time>
      </trkpt>
      <trkpt lat="44.1426" lon="5.70032">
        <ele>1348.826</ele>
        <time>2020-09-02T11:07:11Z</time>
      </trkpt>
      <trkpt lat="44.14254" lon="5.70035">
        <ele>1347.956</ele>
        <time>2020-09-02T11:07:13Z</time>
      </trkpt>
      <trkpt lat="44.14247" lon="5.70038">
        <ele>1347.233</ele>
        <time>2020-09-02T11:07:15Z</time>
      </trkpt>
      <trkpt lat="44.14242" lon="5.70042">
        <ele>1345.634</ele>
        <time>2020-09-02T11:07:17Z</time>
      </trkpt>
      <trkpt lat="44.14237" lon="5.70048">
        <ele>1344.582</ele>
        <time>2020-09-02T11:07:19Z</time>
      </trkpt>
      <trkpt lat="44.14233" lon="5.70054">
        <ele>1343.198</ele>
        <time>2020-09-02T11:07:21Z</time>
      </trkpt>
      <trkpt lat="44.14228" lon="5.70061">
        <ele>1341.721</ele>
        <time>2020-09-02T11:07:23Z</time>
      </trkpt>
      <trkpt lat="44.14222" lon="5.70068">
        <ele>1341.886</ele>
        <time>2020-09-02T11:07:25Z</time>
      </trkpt>
      <trkpt lat="44.14216" lon="5.70077">
        <ele>1341.16</ele>
        <time>2020-09-02T11:07:27Z</time>
      </trkpt>
      <trkpt lat="44.14211" lon="5.70087">
        <ele>1340.026</ele>
        <time>2020-09-02T11:07:29Z</time>
      </trkpt>
      <trkpt lat="44.14208" lon="5.70092">
        <ele>1338.908</ele>
        <time>2020-09-02T11:07:30Z</time>
      </trkpt>
      <trkpt lat="44.14205" lon="5.70097">
        <ele>1338.076</ele>
        <time>2020-09-02T11:07:31Z</time>
      </trkpt>
      <trkpt lat="44.14199" lon="5.70106">
        <ele>1336.135</ele>
        <time>2020-09-02T11:07:33Z</time>
      </trkpt>
      <trkpt lat="44.14191" lon="5.70113">
        <ele>1336.855</ele>
        <time>2020-09-02T11:07:35Z</time>
      </trkpt>
      <trkpt lat="44.14186" lon="5.70115">
        <ele>1336.882</ele>
        <time>2020-09-02T11:07:36Z</time>
      </trkpt>
      <trkpt lat="44.14181" lon="5.70118">
        <ele>1336.873</ele>
        <time>2020-09-02T11:07:37Z</time>
      </trkpt>
      <trkpt lat="44.14176" lon="5.70121">
        <ele>1336.641</ele>
        <time>2020-09-02T11:07:38Z</time>
      </trkpt>
      <trkpt lat="44.1417" lon="5.70124">
        <ele>1337.377</ele>
        <time>2020-09-02T11:07:39Z</time>
      </trkpt>
      <trkpt lat="44.14166" lon="5.70126">
        <ele>1337.05</ele>
        <time>2020-09-02T11:07:40Z</time>
      </trkpt>
      <trkpt lat="44.14158" lon="5.70131">
        <ele>1336.623</ele>
        <time>2020-09-02T11:07:42Z</time>
      </trkpt>
      <trkpt lat="44.1415" lon="5.70136">
        <ele>1336.683</ele>
        <time>2020-09-02T11:07:44Z</time>
      </trkpt>
      <trkpt lat="44.14145" lon="5.70142">
        <ele>1335.611</ele>
        <time>2020-09-02T11:07:46Z</time>
      </trkpt>
      <trkpt lat="44.14142" lon="5.70148">
        <ele>1334.508</ele>
        <time>2020-09-02T11:07:48Z</time>
      </trkpt>
      <trkpt lat="44.14138" lon="5.70154">
        <ele>1333.91</ele>
        <time>2020-09-02T11:07:50Z</time>
      </trkpt>
      <trkpt lat="44.14134" lon="5.70161">
        <ele>1334.059</ele>
        <time>2020-09-02T11:07:52Z</time>
      </trkpt>
      <trkpt lat="44.1413" lon="5.70165">
        <ele>1334.789</ele>
        <time>2020-09-02T11:07:54Z</time>
      </trkpt>
      <trkpt lat="44.14125" lon="5.70169">
        <ele>1333.946</ele>
        <time>2020-09-02T11:07:56Z</time>
      </trkpt>
      <trkpt lat="44.1412" lon="5.70175">
        <ele>1333.987</ele>
        <time>2020-09-02T11:07:58Z</time>
      </trkpt>
      <trkpt lat="44.14117" lon="5.7018">
        <ele>1332.745</ele>
        <time>2020-09-02T11:08:00Z</time>
      </trkpt>
      <trkpt lat="44.14113" lon="5.70185">
        <ele>1334.451</ele>
        <time>2020-09-02T11:08:59Z</time>
      </trkpt>
      <trkpt lat="44.14117" lon="5.70179">
        <ele>1334.224</ele>
        <time>2020-09-02T11:09:15Z</time>
      </trkpt>
      <trkpt lat="44.14118" lon="5.70171">
        <ele>1334.039</ele>
        <time>2020-09-02T11:09:17Z</time>
      </trkpt>
      <trkpt lat="44.14124" lon="5.70163">
        <ele>1333.701</ele>
        <time>2020-09-02T11:09:19Z</time>
      </trkpt>
      <trkpt lat="44.14131" lon="5.70156">
        <ele>1333.021</ele>
        <time>2020-09-02T11:09:21Z</time>
      </trkpt>
      <trkpt lat="44.14137" lon="5.70148">
        <ele>1331.908</ele>
        <time>2020-09-02T11:09:23Z</time>
      </trkpt>
      <trkpt lat="44.14143" lon="5.70141">
        <ele>1332.361</ele>
        <time>2020-09-02T11:09:25Z</time>
      </trkpt>
      <trkpt lat="44.14149" lon="5.70133">
        <ele>1333.51</ele>
        <time>2020-09-02T11:09:27Z</time>
      </trkpt>
      <trkpt lat="44.14156" lon="5.70126">
        <ele>1333.54</ele>
        <time>2020-09-02T11:09:29Z</time>
      </trkpt>
      <trkpt lat="44.14162" lon="5.70122">
        <ele>1332.177</ele>
        <time>2020-09-02T11:09:31Z</time>
      </trkpt>
      <trkpt lat="44.14167" lon="5.70119">
        <ele>1331.848</ele>
        <time>2020-09-02T11:09:33Z</time>
      </trkpt>
      <trkpt lat="44.14173" lon="5.70117">
        <ele>1332.376</ele>
        <time>2020-09-02T11:09:35Z</time>
      </trkpt>
      <trkpt lat="44.1418" lon="5.70116">
        <ele>1334.152</ele>
        <time>2020-09-02T11:09:37Z</time>
      </trkpt>
      <trkpt lat="44.14187" lon="5.70113">
        <ele>1334.275</ele>
        <time>2020-09-02T11:09:39Z</time>
      </trkpt>
      <trkpt lat="44.14194" lon="5.70108">
        <ele>1332.382</ele>
        <time>2020-09-02T11:09:41Z</time>
      </trkpt>
      <trkpt lat="44.14201" lon="5.70102">
        <ele>1332.743</ele>
        <time>2020-09-02T11:09:43Z</time>
      </trkpt>
      <trkpt lat="44.14208" lon="5.70094">
        <ele>1333.417</ele>
        <time>2020-09-02T11:09:45Z</time>
      </trkpt>
      <trkpt lat="44.14211" lon="5.70089">
        <ele>1333.608</ele>
        <time>2020-09-02T11:09:46Z</time>
      </trkpt>
      <trkpt lat="44.14216" lon="5.70081">
        <ele>1334.296</ele>
        <time>2020-09-02T11:09:48Z</time>
      </trkpt>
      <trkpt lat="44.1422" lon="5.70074">
        <ele>1333.415</ele>
        <time>2020-09-02T11:09:50Z</time>
      </trkpt>
      <trkpt lat="44.14224" lon="5.70067">
        <ele>1333.845</ele>
        <time>2020-09-02T11:09:52Z</time>
      </trkpt>
      <trkpt lat="44.14229" lon="5.70061">
        <ele>1332.942</ele>
        <time>2020-09-02T11:09:54Z</time>
      </trkpt>
      <trkpt lat="44.14232" lon="5.70056">
        <ele>1332.513</ele>
        <time>2020-09-02T11:09:56Z</time>
      </trkpt>
      <trkpt lat="44.14229" lon="5.70048">
        <ele>1333.391</ele>
        <time>2020-09-02T11:10:03Z</time>
      </trkpt>
      <trkpt lat="44.14227" lon="5.7004">
        <ele>1332.857</ele>
        <time>2020-09-02T11:10:05Z</time>
      </trkpt>
      <trkpt lat="44.14224" lon="5.70034">
        <ele>1333.68</ele>
        <time>2020-09-02T11:10:07Z</time>
      </trkpt>
      <trkpt lat="44.14221" lon="5.70028">
        <ele>1332.495</ele>
        <time>2020-09-02T11:10:09Z</time>
      </trkpt>
      <trkpt lat="44.14216" lon="5.70022">
        <ele>1331.449</ele>
        <time>2020-09-02T11:10:11Z</time>
      </trkpt>
      <trkpt lat="44.14212" lon="5.70015">
        <ele>1331.523</ele>
        <time>2020-09-02T11:10:13Z</time>
      </trkpt>
      <trkpt lat="44.14208" lon="5.7001">
        <ele>1330.808</ele>
        <time>2020-09-02T11:10:15Z</time>
      </trkpt>
      <trkpt lat="44.14203" lon="5.70005">
        <ele>1330.697</ele>
        <time>2020-09-02T11:10:17Z</time>
      </trkpt>
      <trkpt lat="44.14198" lon="5.7">
        <ele>1329.966</ele>
        <time>2020-09-02T11:10:19Z</time>
      </trkpt>
      <trkpt lat="44.14193" lon="5.69995">
        <ele>1328.966</ele>
        <time>2020-09-02T11:10:21Z</time>
      </trkpt>
      <trkpt lat="44.14189" lon="5.69989">
        <ele>1328.523</ele>
        <time>2020-09-02T11:10:23Z</time>
      </trkpt>
      <trkpt lat="44.14185" lon="5.69983">
        <ele>1327.574</ele>
        <time>2020-09-02T11:10:25Z</time>
      </trkpt>
      <trkpt lat="44.14181" lon="5.69978">
        <ele>1326.912</ele>
        <time>2020-09-02T11:10:27Z</time>
      </trkpt>
      <trkpt lat="44.14176" lon="5.69977">
        <ele>1325.258</ele>
        <time>2020-09-02T11:10:29Z</time>
      </trkpt>
      <trkpt lat="44.14171" lon="5.6998">
        <ele>1324.041</ele>
        <time>2020-09-02T11:10:31Z</time>
      </trkpt>
      <trkpt lat="44.14164" lon="5.69983">
        <ele>1322.999</ele>
        <time>2020-09-02T11:10:34Z</time>
      </trkpt>
      <trkpt lat="44.14155" lon="5.69985">
        <ele>1321.807</ele>
        <time>2020-09-02T11:10:36Z</time>
      </trkpt>
      <trkpt lat="44.14147" lon="5.69989">
        <ele>1322.627</ele>
        <time>2020-09-02T11:10:38Z</time>
      </trkpt>
      <trkpt lat="44.14141" lon="5.69995">
        <ele>1321.108</ele>
        <time>2020-09-02T11:10:39Z</time>
      </trkpt>
      <trkpt lat="44.14135" lon="5.69995">
        <ele>1321.637</ele>
        <time>2020-09-02T11:10:40Z</time>
      </trkpt>
      <trkpt lat="44.1413" lon="5.69996">
        <ele>1319.366</ele>
        <time>2020-09-02T11:10:41Z</time>
      </trkpt>
      <trkpt lat="44.14125" lon="5.69997">
        <ele>1319.626</ele>
        <time>2020-09-02T11:10:42Z</time>
      </trkpt>
      <trkpt lat="44.1412" lon="5.7">
        <ele>1319.723</ele>
        <time>2020-09-02T11:10:43Z</time>
      </trkpt>
      <trkpt lat="44.14112" lon="5.70001">
        <ele>1320.864</ele>
        <time>2020-09-02T11:10:44Z</time>
      </trkpt>
      <trkpt lat="44.14106" lon="5.70001">
        <ele>1320.552</ele>
        <time>2020-09-02T11:10:45Z</time>
      </trkpt>
      <trkpt lat="44.14102" lon="5.70005">
        <ele>1318.998</ele>
        <time>2020-09-02T11:10:46Z</time>
      </trkpt>
      <trkpt lat="44.14095" lon="5.70004">
        <ele>1320.771</ele>
        <time>2020-09-02T11:10:47Z</time>
      </trkpt>
      <trkpt lat="44.14088" lon="5.70006">
        <ele>1320.627</ele>
        <time>2020-09-02T11:10:48Z</time>
      </trkpt>
      <trkpt lat="44.14082" lon="5.70007">
        <ele>1320.868</ele>
        <time>2020-09-02T11:10:49Z</time>
      </trkpt>
      <trkpt lat="44.14075" lon="5.70011">
        <ele>1320.914</ele>
        <time>2020-09-02T11:10:50Z</time>
      </trkpt>
      <trkpt lat="44.14069" lon="5.70013">
        <ele>1321.008</ele>
        <time>2020-09-02T11:10:51Z</time>
      </trkpt>
      <trkpt lat="44.14062" lon="5.70016">
        <ele>1321.82</ele>
        <time>2020-09-02T11:10:52Z</time>
      </trkpt>
      <trkpt lat="44.14055" lon="5.70015">
        <ele>1322.989</ele>
        <time>2020-09-02T11:10:53Z</time>
      </trkpt>
      <trkpt lat="44.14048" lon="5.70016">
        <ele>1323.779</ele>
        <time>2020-09-02T11:10:54Z</time>
      </trkpt>
      <trkpt lat="44.14039" lon="5.70016">
        <ele>1323.726</ele>
        <time>2020-09-02T11:10:55Z</time>
      </trkpt>
      <trkpt lat="44.14033" lon="5.70018">
        <ele>1323.547</ele>
        <time>2020-09-02T11:10:56Z</time>
      </trkpt>
      <trkpt lat="44.14026" lon="5.70022">
        <ele>1323.635</ele>
        <time>2020-09-02T11:10:57Z</time>
      </trkpt>
      <trkpt lat="44.1402" lon="5.70027">
        <ele>1322.941</ele>
        <time>2020-09-02T11:10:58Z</time>
      </trkpt>
      <trkpt lat="44.14015" lon="5.70032">
        <ele>1322.894</ele>
        <time>2020-09-02T11:10:59Z</time>
      </trkpt>
      <trkpt lat="44.1401" lon="5.70038">
        <ele>1321.815</ele>
        <time>2020-09-02T11:11:00Z</time>
      </trkpt>
      <trkpt lat="44.14005" lon="5.70044">
        <ele>1322.265</ele>
        <time>2020-09-02T11:11:01Z</time>
      </trkpt>
      <trkpt lat="44.14001" lon="5.70049">
        <ele>1322.811</ele>
        <time>2020-09-02T11:11:02Z</time>
      </trkpt>
      <trkpt lat="44.13996" lon="5.70055">
        <ele>1322.608</ele>
        <time>2020-09-02T11:11:03Z</time>
      </trkpt>
      <trkpt lat="44.13993" lon="5.7006">
        <ele>1323.449</ele>
        <time>2020-09-02T11:11:04Z</time>
      </trkpt>
      <trkpt lat="44.1399" lon="5.70067">
        <ele>1323.298</ele>
        <time>2020-09-02T11:11:05Z</time>
      </trkpt>
      <trkpt lat="44.13985" lon="5.70072">
        <ele>1322.828</ele>
        <time>2020-09-02T11:11:06Z</time>
      </trkpt>
      <trkpt lat="44.13981" lon="5.70079">
        <ele>1322.635</ele>
        <time>2020-09-02T11:11:07Z</time>
      </trkpt>
      <trkpt lat="44.13977" lon="5.70087">
        <ele>1321.436</ele>
        <time>2020-09-02T11:11:08Z</time>
      </trkpt>
      <trkpt lat="44.13974" lon="5.70095">
        <ele>1321.454</ele>
        <time>2020-09-02T11:11:09Z</time>
      </trkpt>
      <trkpt lat="44.13972" lon="5.70103">
        <ele>1321.34</ele>
        <time>2020-09-02T11:11:10Z</time>
      </trkpt>
      <trkpt lat="44.1397" lon="5.70109">
        <ele>1320.953</ele>
        <time>2020-09-02T11:11:11Z</time>
      </trkpt>
      <trkpt lat="44.13968" lon="5.70115">
        <ele>1321.277</ele>
        <time>2020-09-02T11:11:12Z</time>
      </trkpt>
      <trkpt lat="44.13967" lon="5.70121">
        <ele>1321.261</ele>
        <time>2020-09-02T11:11:13Z</time>
      </trkpt>
      <trkpt lat="44.13961" lon="5.70125">
        <ele>1321.627</ele>
        <time>2020-09-02T11:11:14Z</time>
      </trkpt>
      <trkpt lat="44.13955" lon="5.70135">
        <ele>1321.508</ele>
        <time>2020-09-02T11:11:16Z</time>
      </trkpt>
      <trkpt lat="44.13951" lon="5.70141">
        <ele>1322.055</ele>
        <time>2020-09-02T11:11:17Z</time>
      </trkpt>
      <trkpt lat="44.13947" lon="5.70147">
        <ele>1321.684</ele>
        <time>2020-09-02T11:11:18Z</time>
      </trkpt>
      <trkpt lat="44.13943" lon="5.70153">
        <ele>1319.654</ele>
        <time>2020-09-02T11:11:19Z</time>
      </trkpt>
      <trkpt lat="44.13937" lon="5.70157">
        <ele>1320.411</ele>
        <time>2020-09-02T11:11:20Z</time>
      </trkpt>
      <trkpt lat="44.13931" lon="5.70162">
        <ele>1319.782</ele>
        <time>2020-09-02T11:11:21Z</time>
      </trkpt>
      <trkpt lat="44.13926" lon="5.70168">
        <ele>1318.96</ele>
        <time>2020-09-02T11:11:22Z</time>
      </trkpt>
      <trkpt lat="44.13922" lon="5.70173">
        <ele>1319.546</ele>
        <time>2020-09-02T11:11:23Z</time>
      </trkpt>
      <trkpt lat="44.13916" lon="5.70177">
        <ele>1319.049</ele>
        <time>2020-09-02T11:11:24Z</time>
      </trkpt>
      <trkpt lat="44.13911" lon="5.70183">
        <ele>1318.726</ele>
        <time>2020-09-02T11:11:25Z</time>
      </trkpt>
      <trkpt lat="44.13906" lon="5.70188">
        <ele>1319.047</ele>
        <time>2020-09-02T11:11:26Z</time>
      </trkpt>
      <trkpt lat="44.13903" lon="5.70195">
        <ele>1319.511</ele>
        <time>2020-09-02T11:11:27Z</time>
      </trkpt>
      <trkpt lat="44.13898" lon="5.70202">
        <ele>1319.308</ele>
        <time>2020-09-02T11:11:28Z</time>
      </trkpt>
      <trkpt lat="44.13895" lon="5.70208">
        <ele>1319.69</ele>
        <time>2020-09-02T11:11:29Z</time>
      </trkpt>
      <trkpt lat="44.13891" lon="5.70215">
        <ele>1319.779</ele>
        <time>2020-09-02T11:11:30Z</time>
      </trkpt>
      <trkpt lat="44.13887" lon="5.70223">
        <ele>1319.789</ele>
        <time>2020-09-02T11:11:31Z</time>
      </trkpt>
      <trkpt lat="44.13886" lon="5.70233">
        <ele>1318.696</ele>
        <time>2020-09-02T11:11:32Z</time>
      </trkpt>
      <trkpt lat="44.13883" lon="5.70241">
        <ele>1318.467</ele>
        <time>2020-09-02T11:11:33Z</time>
      </trkpt>
      <trkpt lat="44.13879" lon="5.70246">
        <ele>1318.845</ele>
        <time>2020-09-02T11:11:34Z</time>
      </trkpt>
      <trkpt lat="44.13873" lon="5.70253">
        <ele>1319.521</ele>
        <time>2020-09-02T11:11:36Z</time>
      </trkpt>
      <trkpt lat="44.13868" lon="5.70257">
        <ele>1319.474</ele>
        <time>2020-09-02T11:11:38Z</time>
      </trkpt>
      <trkpt lat="44.13863" lon="5.70262">
        <ele>1319.073</ele>
        <time>2020-09-02T11:11:40Z</time>
      </trkpt>
      <trkpt lat="44.13858" lon="5.70265">
        <ele>1319.485</ele>
        <time>2020-09-02T11:11:42Z</time>
      </trkpt>
      <trkpt lat="44.13853" lon="5.70267">
        <ele>1322.613</ele>
        <time>2020-09-02T11:16:32Z</time>
      </trkpt>
      <trkpt lat="44.13846" lon="5.70273">
        <ele>1321.308</ele>
        <time>2020-09-02T11:16:33Z</time>
      </trkpt>
      <trkpt lat="44.13842" lon="5.70277">
        <ele>1321.715</ele>
        <time>2020-09-02T11:16:34Z</time>
      </trkpt>
      <trkpt lat="44.13838" lon="5.70282">
        <ele>1321.614</ele>
        <time>2020-09-02T11:16:35Z</time>
      </trkpt>
      <trkpt lat="44.13834" lon="5.70286">
        <ele>1322.424</ele>
        <time>2020-09-02T11:16:36Z</time>
      </trkpt>
      <trkpt lat="44.13828" lon="5.70292">
        <ele>1323.311</ele>
        <time>2020-09-02T11:16:37Z</time>
      </trkpt>
      <trkpt lat="44.13822" lon="5.70296">
        <ele>1323.562</ele>
        <time>2020-09-02T11:16:38Z</time>
      </trkpt>
      <trkpt lat="44.13816" lon="5.703">
        <ele>1323.41</ele>
        <time>2020-09-02T11:16:39Z</time>
      </trkpt>
      <trkpt lat="44.13811" lon="5.70306">
        <ele>1322.326</ele>
        <time>2020-09-02T11:16:40Z</time>
      </trkpt>
      <trkpt lat="44.13805" lon="5.70309">
        <ele>1322.639</ele>
        <time>2020-09-02T11:16:41Z</time>
      </trkpt>
      <trkpt lat="44.138" lon="5.70312">
        <ele>1322.887</ele>
        <time>2020-09-02T11:16:42Z</time>
      </trkpt>
      <trkpt lat="44.13794" lon="5.70317">
        <ele>1322.442</ele>
        <time>2020-09-02T11:16:43Z</time>
      </trkpt>
      <trkpt lat="44.13789" lon="5.7032">
        <ele>1322.126</ele>
        <time>2020-09-02T11:16:44Z</time>
      </trkpt>
      <trkpt lat="44.13782" lon="5.70323">
        <ele>1322.008</ele>
        <time>2020-09-02T11:16:45Z</time>
      </trkpt>
      <trkpt lat="44.13776" lon="5.70324">
        <ele>1322.296</ele>
        <time>2020-09-02T11:16:46Z</time>
      </trkpt>
      <trkpt lat="44.13768" lon="5.70323">
        <ele>1321.835</ele>
        <time>2020-09-02T11:16:47Z</time>
      </trkpt>
      <trkpt lat="44.13763" lon="5.70325">
        <ele>1319.065</ele>
        <time>2020-09-02T11:16:48Z</time>
      </trkpt>
      <trkpt lat="44.13756" lon="5.70326">
        <ele>1320.672</ele>
        <time>2020-09-02T11:16:49Z</time>
      </trkpt>
      <trkpt lat="44.1375" lon="5.70327">
        <ele>1319.953</ele>
        <time>2020-09-02T11:16:50Z</time>
      </trkpt>
      <trkpt lat="44.13743" lon="5.70328">
        <ele>1318.961</ele>
        <time>2020-09-02T11:16:51Z</time>
      </trkpt>
      <trkpt lat="44.13738" lon="5.70328">
        <ele>1320.177</ele>
        <time>2020-09-02T11:16:52Z</time>
      </trkpt>
      <trkpt lat="44.13729" lon="5.70329">
        <ele>1321.04</ele>
        <time>2020-09-02T11:16:54Z</time>
      </trkpt>
      <trkpt lat="44.13722" lon="5.70332">
        <ele>1321.399</ele>
        <time>2020-09-02T11:16:56Z</time>
      </trkpt>
      <trkpt lat="44.13717" lon="5.70337">
        <ele>1322.507</ele>
        <time>2020-09-02T11:16:58Z</time>
      </trkpt>
      <trkpt lat="44.13717" lon="5.70345">
        <ele>1322.827</ele>
        <time>2020-09-02T11:17:00Z</time>
      </trkpt>
      <trkpt lat="44.13719" lon="5.70355">
        <ele>1320.808</ele>
        <time>2020-09-02T11:17:02Z</time>
      </trkpt>
      <trkpt lat="44.13718" lon="5.70362">
        <ele>1319.327</ele>
        <time>2020-09-02T11:17:04Z</time>
      </trkpt>
      <trkpt lat="44.13719" lon="5.70369">
        <ele>1318.536</ele>
        <time>2020-09-02T11:17:06Z</time>
      </trkpt>
      <trkpt lat="44.1372" lon="5.70377">
        <ele>1317.266</ele>
        <time>2020-09-02T11:17:08Z</time>
      </trkpt>
      <trkpt lat="44.1372" lon="5.70386">
        <ele>1314.923</ele>
        <time>2020-09-02T11:17:10Z</time>
      </trkpt>
      <trkpt lat="44.1372" lon="5.70395">
        <ele>1312.674</ele>
        <time>2020-09-02T11:17:12Z</time>
      </trkpt>
      <trkpt lat="44.1372" lon="5.70405">
        <ele>1310.012</ele>
        <time>2020-09-02T11:17:14Z</time>
      </trkpt>
      <trkpt lat="44.13721" lon="5.70415">
        <ele>1309.498</ele>
        <time>2020-09-02T11:17:16Z</time>
      </trkpt>
      <trkpt lat="44.13721" lon="5.70425">
        <ele>1308.411</ele>
        <time>2020-09-02T11:17:18Z</time>
      </trkpt>
      <trkpt lat="44.13717" lon="5.70434">
        <ele>1306.511</ele>
        <time>2020-09-02T11:17:20Z</time>
      </trkpt>
      <trkpt lat="44.13713" lon="5.70443">
        <ele>1304.321</ele>
        <time>2020-09-02T11:17:22Z</time>
      </trkpt>
      <trkpt lat="44.13711" lon="5.70452">
        <ele>1302.503</ele>
        <time>2020-09-02T11:17:24Z</time>
      </trkpt>
      <trkpt lat="44.1371" lon="5.7046">
        <ele>1299.308</ele>
        <time>2020-09-02T11:17:26Z</time>
      </trkpt>
      <trkpt lat="44.13712" lon="5.70468">
        <ele>1297.619</ele>
        <time>2020-09-02T11:17:29Z</time>
      </trkpt>
      <trkpt lat="44.13709" lon="5.70476">
        <ele>1295.338</ele>
        <time>2020-09-02T11:17:32Z</time>
      </trkpt>
      <trkpt lat="44.13705" lon="5.70483">
        <ele>1294.748</ele>
        <time>2020-09-02T11:17:34Z</time>
      </trkpt>
      <trkpt lat="44.13701" lon="5.70492">
        <ele>1294.555</ele>
        <time>2020-09-02T11:17:36Z</time>
      </trkpt>
      <trkpt lat="44.13698" lon="5.70499">
        <ele>1294.786</ele>
        <time>2020-09-02T11:17:38Z</time>
      </trkpt>
      <trkpt lat="44.13695" lon="5.70509">
        <ele>1293.954</ele>
        <time>2020-09-02T11:17:40Z</time>
      </trkpt>
      <trkpt lat="44.13695" lon="5.7052">
        <ele>1293.97</ele>
        <time>2020-09-02T11:17:42Z</time>
      </trkpt>
      <trkpt lat="44.13694" lon="5.7053">
        <ele>1294.733</ele>
        <time>2020-09-02T11:17:44Z</time>
      </trkpt>
      <trkpt lat="44.13693" lon="5.70538">
        <ele>1293.428</ele>
        <time>2020-09-02T11:17:46Z</time>
      </trkpt>
      <trkpt lat="44.1369" lon="5.70546">
        <ele>1292.589</ele>
        <time>2020-09-02T11:17:49Z</time>
      </trkpt>
      <trkpt lat="44.13686" lon="5.70547">
        <ele>1293.617</ele>
        <time>2020-09-02T11:17:53Z</time>
      </trkpt>
      <trkpt lat="44.13674" lon="5.70542">
        <ele>1292.608</ele>
        <time>2020-09-02T11:17:55Z</time>
      </trkpt>
      <trkpt lat="44.13666" lon="5.70538">
        <ele>1292.55</ele>
        <time>2020-09-02T11:17:56Z</time>
      </trkpt>
      <trkpt lat="44.1366" lon="5.70533">
        <ele>1291.869</ele>
        <time>2020-09-02T11:17:58Z</time>
      </trkpt>
      <trkpt lat="44.13654" lon="5.70533">
        <ele>1291.869</ele>
        <time>2020-09-02T11:17:59Z</time>
      </trkpt>
      <trkpt lat="44.13645" lon="5.70537">
        <ele>1290.696</ele>
        <time>2020-09-02T11:18:00Z</time>
      </trkpt>
      <trkpt lat="44.13634" lon="5.70539">
        <ele>1290.827</ele>
        <time>2020-09-02T11:18:02Z</time>
      </trkpt>
      <trkpt lat="44.13629" lon="5.70541">
        <ele>1290.735</ele>
        <time>2020-09-02T11:18:03Z</time>
      </trkpt>
      <trkpt lat="44.1362" lon="5.7054">
        <ele>1290.251</ele>
        <time>2020-09-02T11:18:05Z</time>
      </trkpt>
      <trkpt lat="44.13616" lon="5.70541">
        <ele>1289.784</ele>
        <time>2020-09-02T11:18:06Z</time>
      </trkpt>
      <trkpt lat="44.13607" lon="5.70543">
        <ele>1288.756</ele>
        <time>2020-09-02T11:18:08Z</time>
      </trkpt>
      <trkpt lat="44.13602" lon="5.70544">
        <ele>1288.259</ele>
        <time>2020-09-02T11:18:09Z</time>
      </trkpt>
      <trkpt lat="44.13597" lon="5.70545">
        <ele>1287.814</ele>
        <time>2020-09-02T11:18:10Z</time>
      </trkpt>
      <trkpt lat="44.13591" lon="5.70547">
        <ele>1288.108</ele>
        <time>2020-09-02T11:18:11Z</time>
      </trkpt>
      <trkpt lat="44.13586" lon="5.7055">
        <ele>1288.753</ele>
        <time>2020-09-02T11:18:12Z</time>
      </trkpt>
      <trkpt lat="44.13581" lon="5.70549">
        <ele>1286.842</ele>
        <time>2020-09-02T11:18:13Z</time>
      </trkpt>
      <trkpt lat="44.13575" lon="5.7055">
        <ele>1286.612</ele>
        <time>2020-09-02T11:18:14Z</time>
      </trkpt>
      <trkpt lat="44.13567" lon="5.70553">
        <ele>1282.619</ele>
        <time>2020-09-02T11:18:16Z</time>
      </trkpt>
      <trkpt lat="44.13562" lon="5.70557">
        <ele>1281.43</ele>
        <time>2020-09-02T11:18:17Z</time>
      </trkpt>
      <trkpt lat="44.13556" lon="5.70559">
        <ele>1281.878</ele>
        <time>2020-09-02T11:18:18Z</time>
      </trkpt>
      <trkpt lat="44.13549" lon="5.7056">
        <ele>1281.864</ele>
        <time>2020-09-02T11:18:19Z</time>
      </trkpt>
      <trkpt lat="44.13542" lon="5.70558">
        <ele>1281.967</ele>
        <time>2020-09-02T11:18:20Z</time>
      </trkpt>
      <trkpt lat="44.13536" lon="5.70556">
        <ele>1282.052</ele>
        <time>2020-09-02T11:18:21Z</time>
      </trkpt>
      <trkpt lat="44.13529" lon="5.70553">
        <ele>1281.353</ele>
        <time>2020-09-02T11:18:22Z</time>
      </trkpt>
      <trkpt lat="44.13524" lon="5.70552">
        <ele>1280.308</ele>
        <time>2020-09-02T11:18:23Z</time>
      </trkpt>
      <trkpt lat="44.13517" lon="5.70548">
        <ele>1279.108</ele>
        <time>2020-09-02T11:18:24Z</time>
      </trkpt>
      <trkpt lat="44.13511" lon="5.70546">
        <ele>1277.133</ele>
        <time>2020-09-02T11:18:25Z</time>
      </trkpt>
      <trkpt lat="44.13505" lon="5.70544">
        <ele>1275.922</ele>
        <time>2020-09-02T11:18:26Z</time>
      </trkpt>
      <trkpt lat="44.13498" lon="5.70543">
        <ele>1275.562</ele>
        <time>2020-09-02T11:18:27Z</time>
      </trkpt>
      <trkpt lat="44.1349" lon="5.70542">
        <ele>1274.639</ele>
        <time>2020-09-02T11:18:28Z</time>
      </trkpt>
      <trkpt lat="44.13485" lon="5.7054">
        <ele>1274.51</ele>
        <time>2020-09-02T11:18:29Z</time>
      </trkpt>
      <trkpt lat="44.13479" lon="5.70536">
        <ele>1273.728</ele>
        <time>2020-09-02T11:18:30Z</time>
      </trkpt>
      <trkpt lat="44.13472" lon="5.70532">
        <ele>1271.974</ele>
        <time>2020-09-02T11:18:31Z</time>
      </trkpt>
      <trkpt lat="44.13466" lon="5.7053">
        <ele>1271.187</ele>
        <time>2020-09-02T11:18:32Z</time>
      </trkpt>
      <trkpt lat="44.13459" lon="5.70531">
        <ele>1270.069</ele>
        <time>2020-09-02T11:18:33Z</time>
      </trkpt>
      <trkpt lat="44.13454" lon="5.70532">
        <ele>1269.504</ele>
        <time>2020-09-02T11:18:34Z</time>
      </trkpt>
      <trkpt lat="44.13448" lon="5.70532">
        <ele>1269.024</ele>
        <time>2020-09-02T11:18:35Z</time>
      </trkpt>
      <trkpt lat="44.13442" lon="5.70531">
        <ele>1266.108</ele>
        <time>2020-09-02T11:18:36Z</time>
      </trkpt>
      <trkpt lat="44.13437" lon="5.70528">
        <ele>1265.514</ele>
        <time>2020-09-02T11:18:37Z</time>
      </trkpt>
      <trkpt lat="44.1343" lon="5.70525">
        <ele>1264.433</ele>
        <time>2020-09-02T11:18:38Z</time>
      </trkpt>
      <trkpt lat="44.13424" lon="5.70523">
        <ele>1263.923</ele>
        <time>2020-09-02T11:18:39Z</time>
      </trkpt>
      <trkpt lat="44.13415" lon="5.70521">
        <ele>1261.85</ele>
        <time>2020-09-02T11:18:41Z</time>
      </trkpt>
      <trkpt lat="44.1341" lon="5.7052">
        <ele>1261.621</ele>
        <time>2020-09-02T11:18:42Z</time>
      </trkpt>
      <trkpt lat="44.13401" lon="5.70521">
        <ele>1261.099</ele>
        <time>2020-09-02T11:18:44Z</time>
      </trkpt>
      <trkpt lat="44.13395" lon="5.70523">
        <ele>1260.015</ele>
        <time>2020-09-02T11:18:45Z</time>
      </trkpt>
      <trkpt lat="44.1339" lon="5.70524">
        <ele>1259.968</ele>
        <time>2020-09-02T11:18:46Z</time>
      </trkpt>
      <trkpt lat="44.13385" lon="5.70524">
        <ele>1258.755</ele>
        <time>2020-09-02T11:18:47Z</time>
      </trkpt>
      <trkpt lat="44.1338" lon="5.70525">
        <ele>1258.507</ele>
        <time>2020-09-02T11:18:48Z</time>
      </trkpt>
      <trkpt lat="44.13375" lon="5.70525">
        <ele>1257.717</ele>
        <time>2020-09-02T11:18:49Z</time>
      </trkpt>
      <trkpt lat="44.13368" lon="5.70524">
        <ele>1256.008</ele>
        <time>2020-09-02T11:18:50Z</time>
      </trkpt>
      <trkpt lat="44.1336" lon="5.70519">
        <ele>1253.263</ele>
        <time>2020-09-02T11:18:52Z</time>
      </trkpt>
      <trkpt lat="44.13348" lon="5.70518">
        <ele>1253.362</ele>
        <time>2020-09-02T11:18:54Z</time>
      </trkpt>
      <trkpt lat="44.13339" lon="5.70517">
        <ele>1253.142</ele>
        <time>2020-09-02T11:18:56Z</time>
      </trkpt>
      <trkpt lat="44.13334" lon="5.70517">
        <ele>1252.899</ele>
        <time>2020-09-02T11:18:57Z</time>
      </trkpt>
      <trkpt lat="44.13327" lon="5.70515">
        <ele>1252.78</ele>
        <time>2020-09-02T11:18:58Z</time>
      </trkpt>
      <trkpt lat="44.13319" lon="5.70516">
        <ele>1252.418</ele>
        <time>2020-09-02T11:18:59Z</time>
      </trkpt>
      <trkpt lat="44.13313" lon="5.70515">
        <ele>1252.494</ele>
        <time>2020-09-02T11:19:00Z</time>
      </trkpt>
      <trkpt lat="44.13307" lon="5.70514">
        <ele>1251.867</ele>
        <time>2020-09-02T11:19:01Z</time>
      </trkpt>
      <trkpt lat="44.13299" lon="5.70511">
        <ele>1250.264</ele>
        <time>2020-09-02T11:19:02Z</time>
      </trkpt>
      <trkpt lat="44.13291" lon="5.70509">
        <ele>1247.906</ele>
        <time>2020-09-02T11:19:03Z</time>
      </trkpt>
      <trkpt lat="44.13286" lon="5.70507">
        <ele>1246.616</ele>
        <time>2020-09-02T11:19:04Z</time>
      </trkpt>
      <trkpt lat="44.1328" lon="5.70505">
        <ele>1245.708</ele>
        <time>2020-09-02T11:19:05Z</time>
      </trkpt>
      <trkpt lat="44.13275" lon="5.70506">
        <ele>1243.984</ele>
        <time>2020-09-02T11:19:06Z</time>
      </trkpt>
      <trkpt lat="44.13269" lon="5.70505">
        <ele>1242.283</ele>
        <time>2020-09-02T11:19:07Z</time>
      </trkpt>
      <trkpt lat="44.13264" lon="5.70504">
        <ele>1241.963</ele>
        <time>2020-09-02T11:19:08Z</time>
      </trkpt>
      <trkpt lat="44.13257" lon="5.70502">
        <ele>1240.59</ele>
        <time>2020-09-02T11:19:09Z</time>
      </trkpt>
      <trkpt lat="44.13251" lon="5.705">
        <ele>1240.121</ele>
        <time>2020-09-02T11:19:10Z</time>
      </trkpt>
      <trkpt lat="44.13246" lon="5.70499">
        <ele>1240.219</ele>
        <time>2020-09-02T11:19:11Z</time>
      </trkpt>
      <trkpt lat="44.1324" lon="5.70498">
        <ele>1240.085</ele>
        <time>2020-09-02T11:19:12Z</time>
      </trkpt>
      <trkpt lat="44.13235" lon="5.70497">
        <ele>1239.558</ele>
        <time>2020-09-02T11:19:13Z</time>
      </trkpt>
      <trkpt lat="44.13228" lon="5.70494">
        <ele>1238.788</ele>
        <time>2020-09-02T11:19:14Z</time>
      </trkpt>
      <trkpt lat="44.13222" lon="5.70493">
        <ele>1237.924</ele>
        <time>2020-09-02T11:19:15Z</time>
      </trkpt>
      <trkpt lat="44.13215" lon="5.70489">
        <ele>1235.226</ele>
        <time>2020-09-02T11:19:16Z</time>
      </trkpt>
      <trkpt lat="44.1321" lon="5.70488">
        <ele>1234.408</ele>
        <time>2020-09-02T11:19:17Z</time>
      </trkpt>
      <trkpt lat="44.13205" lon="5.70487">
        <ele>1233.956</ele>
        <time>2020-09-02T11:19:18Z</time>
      </trkpt>
      <trkpt lat="44.13199" lon="5.70488">
        <ele>1232.885</ele>
        <time>2020-09-02T11:19:19Z</time>
      </trkpt>
      <trkpt lat="44.13193" lon="5.70488">
        <ele>1232.375</ele>
        <time>2020-09-02T11:19:20Z</time>
      </trkpt>
      <trkpt lat="44.13186" lon="5.70489">
        <ele>1230.482</ele>
        <time>2020-09-02T11:19:21Z</time>
      </trkpt>
      <trkpt lat="44.1318" lon="5.70489">
        <ele>1229.973</ele>
        <time>2020-09-02T11:19:22Z</time>
      </trkpt>
      <trkpt lat="44.13174" lon="5.70489">
        <ele>1229.651</ele>
        <time>2020-09-02T11:19:23Z</time>
      </trkpt>
      <trkpt lat="44.13168" lon="5.70489">
        <ele>1227.597</ele>
        <time>2020-09-02T11:19:24Z</time>
      </trkpt>
      <trkpt lat="44.13161" lon="5.70489">
        <ele>1226.83</ele>
        <time>2020-09-02T11:19:25Z</time>
      </trkpt>
      <trkpt lat="44.13154" lon="5.70487">
        <ele>1227.235</ele>
        <time>2020-09-02T11:19:26Z</time>
      </trkpt>
      <trkpt lat="44.13148" lon="5.70489">
        <ele>1226.286</ele>
        <time>2020-09-02T11:19:27Z</time>
      </trkpt>
      <trkpt lat="44.1314" lon="5.70489">
        <ele>1225.814</ele>
        <time>2020-09-02T11:19:28Z</time>
      </trkpt>
      <trkpt lat="44.13131" lon="5.70483">
        <ele>1223.608</ele>
        <time>2020-09-02T11:19:29Z</time>
      </trkpt>
      <trkpt lat="44.13124" lon="5.70481">
        <ele>1221.291</ele>
        <time>2020-09-02T11:19:30Z</time>
      </trkpt>
      <trkpt lat="44.13118" lon="5.70479">
        <ele>1220.66</ele>
        <time>2020-09-02T11:19:31Z</time>
      </trkpt>
      <trkpt lat="44.13112" lon="5.70476">
        <ele>1220.04</ele>
        <time>2020-09-02T11:19:32Z</time>
      </trkpt>
      <trkpt lat="44.13105" lon="5.70475">
        <ele>1218.627</ele>
        <time>2020-09-02T11:19:33Z</time>
      </trkpt>
      <trkpt lat="44.13098" lon="5.70473">
        <ele>1216.818</ele>
        <time>2020-09-02T11:19:34Z</time>
      </trkpt>
      <trkpt lat="44.13092" lon="5.70468">
        <ele>1215.896</ele>
        <time>2020-09-02T11:19:35Z</time>
      </trkpt>
      <trkpt lat="44.13088" lon="5.70466">
        <ele>1212.772</ele>
        <time>2020-09-02T11:19:36Z</time>
      </trkpt>
      <trkpt lat="44.13084" lon="5.70463">
        <ele>1211.895</ele>
        <time>2020-09-02T11:19:37Z</time>
      </trkpt>
      <trkpt lat="44.13077" lon="5.70461">
        <ele>1211.645</ele>
        <time>2020-09-02T11:19:38Z</time>
      </trkpt>
      <trkpt lat="44.13071" lon="5.70458">
        <ele>1209.447</ele>
        <time>2020-09-02T11:19:39Z</time>
      </trkpt>
      <trkpt lat="44.13064" lon="5.70454">
        <ele>1208.111</ele>
        <time>2020-09-02T11:19:40Z</time>
      </trkpt>
      <trkpt lat="44.1306" lon="5.70455">
        <ele>1202.808</ele>
        <time>2020-09-02T11:19:41Z</time>
      </trkpt>
      <trkpt lat="44.13055" lon="5.70452">
        <ele>1202.532</ele>
        <time>2020-09-02T11:19:42Z</time>
      </trkpt>
      <trkpt lat="44.13049" lon="5.70448">
        <ele>1202.411</ele>
        <time>2020-09-02T11:19:43Z</time>
      </trkpt>
      <trkpt lat="44.13044" lon="5.70446">
        <ele>1201.511</ele>
        <time>2020-09-02T11:19:44Z</time>
      </trkpt>
      <trkpt lat="44.13035" lon="5.70444">
        <ele>1197.818</ele>
        <time>2020-09-02T11:19:46Z</time>
      </trkpt>
      <trkpt lat="44.1303" lon="5.70445">
        <ele>1197.569</ele>
        <time>2020-09-02T11:19:47Z</time>
      </trkpt>
      <trkpt lat="44.13022" lon="5.7045">
        <ele>1195.557</ele>
        <time>2020-09-02T11:19:49Z</time>
      </trkpt>
      <trkpt lat="44.13015" lon="5.70449">
        <ele>1195.873</ele>
        <time>2020-09-02T11:19:50Z</time>
      </trkpt>
      <trkpt lat="44.13008" lon="5.7045">
        <ele>1195.736</ele>
        <time>2020-09-02T11:19:51Z</time>
      </trkpt>
      <trkpt lat="44.13002" lon="5.70449">
        <ele>1192.649</ele>
        <time>2020-09-02T11:19:52Z</time>
      </trkpt>
      <trkpt lat="44.12997" lon="5.70449">
        <ele>1192.002</ele>
        <time>2020-09-02T11:19:53Z</time>
      </trkpt>
      <trkpt lat="44.12989" lon="5.70446">
        <ele>1189.922</ele>
        <time>2020-09-02T11:19:54Z</time>
      </trkpt>
      <trkpt lat="44.12984" lon="5.70446">
        <ele>1188.908</ele>
        <time>2020-09-02T11:19:55Z</time>
      </trkpt>
      <trkpt lat="44.12979" lon="5.70447">
        <ele>1188.382</ele>
        <time>2020-09-02T11:19:56Z</time>
      </trkpt>
      <trkpt lat="44.12973" lon="5.70445">
        <ele>1186.961</ele>
        <time>2020-09-02T11:19:57Z</time>
      </trkpt>
      <trkpt lat="44.12967" lon="5.70443">
        <ele>1186.411</ele>
        <time>2020-09-02T11:19:58Z</time>
      </trkpt>
      <trkpt lat="44.12957" lon="5.70442">
        <ele>1185.928</ele>
        <time>2020-09-02T11:20:00Z</time>
      </trkpt>
      <trkpt lat="44.12951" lon="5.70438">
        <ele>1184.969</ele>
        <time>2020-09-02T11:20:01Z</time>
      </trkpt>
      <trkpt lat="44.12944" lon="5.70437">
        <ele>1183.327</ele>
        <time>2020-09-02T11:20:02Z</time>
      </trkpt>
      <trkpt lat="44.12938" lon="5.70435">
        <ele>1181.653</ele>
        <time>2020-09-02T11:20:03Z</time>
      </trkpt>
      <trkpt lat="44.12931" lon="5.70433">
        <ele>1181.186</ele>
        <time>2020-09-02T11:20:04Z</time>
      </trkpt>
      <trkpt lat="44.12925" lon="5.70433">
        <ele>1180.741</ele>
        <time>2020-09-02T11:20:05Z</time>
      </trkpt>
      <trkpt lat="44.1292" lon="5.70432">
        <ele>1179.481</ele>
        <time>2020-09-02T11:20:06Z</time>
      </trkpt>
      <trkpt lat="44.12915" lon="5.70431">
        <ele>1178.709</ele>
        <time>2020-09-02T11:20:07Z</time>
      </trkpt>
      <trkpt lat="44.1291" lon="5.70428">
        <ele>1178.908</ele>
        <time>2020-09-02T11:20:08Z</time>
      </trkpt>
      <trkpt lat="44.12905" lon="5.70426">
        <ele>1179.332</ele>
        <time>2020-09-02T11:20:09Z</time>
      </trkpt>
      <trkpt lat="44.129" lon="5.70423">
        <ele>1179.071</ele>
        <time>2020-09-02T11:20:10Z</time>
      </trkpt>
      <trkpt lat="44.12892" lon="5.70421">
        <ele>1178.791</ele>
        <time>2020-09-02T11:20:11Z</time>
      </trkpt>
      <trkpt lat="44.12886" lon="5.70418">
        <ele>1176.738</ele>
        <time>2020-09-02T11:20:12Z</time>
      </trkpt>
      <trkpt lat="44.1288" lon="5.70418">
        <ele>1176.179</ele>
        <time>2020-09-02T11:20:13Z</time>
      </trkpt>
      <trkpt lat="44.12873" lon="5.70417">
        <ele>1175.457</ele>
        <time>2020-09-02T11:20:14Z</time>
      </trkpt>
      <trkpt lat="44.12865" lon="5.70417">
        <ele>1174.113</ele>
        <time>2020-09-02T11:20:15Z</time>
      </trkpt>
      <trkpt lat="44.12859" lon="5.70416">
        <ele>1173.456</ele>
        <time>2020-09-02T11:20:16Z</time>
      </trkpt>
      <trkpt lat="44.12853" lon="5.70413">
        <ele>1172.595</ele>
        <time>2020-09-02T11:20:17Z</time>
      </trkpt>
      <trkpt lat="44.12847" lon="5.70411">
        <ele>1171.849</ele>
        <time>2020-09-02T11:20:18Z</time>
      </trkpt>
      <trkpt lat="44.12839" lon="5.7041">
        <ele>1169.323</ele>
        <time>2020-09-02T11:20:19Z</time>
      </trkpt>
      <trkpt lat="44.12834" lon="5.70409">
        <ele>1168.908</ele>
        <time>2020-09-02T11:20:20Z</time>
      </trkpt>
      <trkpt lat="44.12828" lon="5.70408">
        <ele>1168.567</ele>
        <time>2020-09-02T11:20:21Z</time>
      </trkpt>
      <trkpt lat="44.1282" lon="5.70407">
        <ele>1167.786</ele>
        <time>2020-09-02T11:20:23Z</time>
      </trkpt>
      <trkpt lat="44.12812" lon="5.70406">
        <ele>1166.456</ele>
        <time>2020-09-02T11:20:25Z</time>
      </trkpt>
      <trkpt lat="44.12804" lon="5.70404">
        <ele>1165.563</ele>
        <time>2020-09-02T11:20:27Z</time>
      </trkpt>
      <trkpt lat="44.12797" lon="5.704">
        <ele>1164.094</ele>
        <time>2020-09-02T11:20:29Z</time>
      </trkpt>
      <trkpt lat="44.12793" lon="5.70399">
        <ele>1163.182</ele>
        <time>2020-09-02T11:20:30Z</time>
      </trkpt>
      <trkpt lat="44.12787" lon="5.70397">
        <ele>1162.118</ele>
        <time>2020-09-02T11:20:31Z</time>
      </trkpt>
      <trkpt lat="44.1278" lon="5.70396">
        <ele>1161.361</ele>
        <time>2020-09-02T11:20:32Z</time>
      </trkpt>
      <trkpt lat="44.12774" lon="5.70393">
        <ele>1160.896</ele>
        <time>2020-09-02T11:20:33Z</time>
      </trkpt>
      <trkpt lat="44.12768" lon="5.7039">
        <ele>1160.631</ele>
        <time>2020-09-02T11:20:34Z</time>
      </trkpt>
      <trkpt lat="44.12763" lon="5.70389">
        <ele>1159.724</ele>
        <time>2020-09-02T11:20:35Z</time>
      </trkpt>
      <trkpt lat="44.12757" lon="5.70388">
        <ele>1159.708</ele>
        <time>2020-09-02T11:20:36Z</time>
      </trkpt>
      <trkpt lat="44.12752" lon="5.70385">
        <ele>1158.587</ele>
        <time>2020-09-02T11:20:37Z</time>
      </trkpt>
      <trkpt lat="44.12748" lon="5.70381">
        <ele>1158.216</ele>
        <time>2020-09-02T11:20:38Z</time>
      </trkpt>
      <trkpt lat="44.12743" lon="5.70376">
        <ele>1157.876</ele>
        <time>2020-09-02T11:20:39Z</time>
      </trkpt>
      <trkpt lat="44.12737" lon="5.70371">
        <ele>1157.093</ele>
        <time>2020-09-02T11:20:40Z</time>
      </trkpt>
      <trkpt lat="44.12732" lon="5.70368">
        <ele>1156.694</ele>
        <time>2020-09-02T11:20:41Z</time>
      </trkpt>
      <trkpt lat="44.12726" lon="5.70365">
        <ele>1156.452</ele>
        <time>2020-09-02T11:20:42Z</time>
      </trkpt>
      <trkpt lat="44.12721" lon="5.70361">
        <ele>1155.628</ele>
        <time>2020-09-02T11:20:43Z</time>
      </trkpt>
      <trkpt lat="44.12716" lon="5.70358">
        <ele>1155.151</ele>
        <time>2020-09-02T11:20:44Z</time>
      </trkpt>
      <trkpt lat="44.1271" lon="5.70356">
        <ele>1153.677</ele>
        <time>2020-09-02T11:20:45Z</time>
      </trkpt>
      <trkpt lat="44.12704" lon="5.70356">
        <ele>1152.761</ele>
        <time>2020-09-02T11:20:46Z</time>
      </trkpt>
      <trkpt lat="44.12698" lon="5.70353">
        <ele>1150.827</ele>
        <time>2020-09-02T11:20:47Z</time>
      </trkpt>
      <trkpt lat="44.12689" lon="5.7035">
        <ele>1150.908</ele>
        <time>2020-09-02T11:20:49Z</time>
      </trkpt>
      <trkpt lat="44.12683" lon="5.7035">
        <ele>1150.595</ele>
        <time>2020-09-02T11:20:50Z</time>
      </trkpt>
      <trkpt lat="44.12677" lon="5.70349">
        <ele>1150.074</ele>
        <time>2020-09-02T11:20:51Z</time>
      </trkpt>
      <trkpt lat="44.12672" lon="5.70347">
        <ele>1149.844</ele>
        <time>2020-09-02T11:20:52Z</time>
      </trkpt>
      <trkpt lat="44.12666" lon="5.70345">
        <ele>1149.211</ele>
        <time>2020-09-02T11:20:53Z</time>
      </trkpt>
      <trkpt lat="44.12658" lon="5.7034">
        <ele>1146.692</ele>
        <time>2020-09-02T11:20:54Z</time>
      </trkpt>
      <trkpt lat="44.12652" lon="5.70338">
        <ele>1145.75</ele>
        <time>2020-09-02T11:20:55Z</time>
      </trkpt>
      <trkpt lat="44.12645" lon="5.70337">
        <ele>1144.956</ele>
        <time>2020-09-02T11:20:56Z</time>
      </trkpt>
      <trkpt lat="44.12639" lon="5.70333">
        <ele>1144.219</ele>
        <time>2020-09-02T11:20:57Z</time>
      </trkpt>
      <trkpt lat="44.12632" lon="5.7033">
        <ele>1144.182</ele>
        <time>2020-09-02T11:20:58Z</time>
      </trkpt>
      <trkpt lat="44.12624" lon="5.70328">
        <ele>1144.043</ele>
        <time>2020-09-02T11:20:59Z</time>
      </trkpt>
      <trkpt lat="44.12617" lon="5.70326">
        <ele>1143.517</ele>
        <time>2020-09-02T11:21:00Z</time>
      </trkpt>
      <trkpt lat="44.12609" lon="5.70324">
        <ele>1142.908</ele>
        <time>2020-09-02T11:21:01Z</time>
      </trkpt>
      <trkpt lat="44.12603" lon="5.70324">
        <ele>1142.146</ele>
        <time>2020-09-02T11:21:02Z</time>
      </trkpt>
      <trkpt lat="44.12596" lon="5.70324">
        <ele>1140.735</ele>
        <time>2020-09-02T11:21:03Z</time>
      </trkpt>
      <trkpt lat="44.12589" lon="5.70325">
        <ele>1140.485</ele>
        <time>2020-09-02T11:21:04Z</time>
      </trkpt>
      <trkpt lat="44.12583" lon="5.70326">
        <ele>1140.232</ele>
        <time>2020-09-02T11:21:05Z</time>
      </trkpt>
      <trkpt lat="44.12576" lon="5.70326">
        <ele>1139.633</ele>
        <time>2020-09-02T11:21:06Z</time>
      </trkpt>
      <trkpt lat="44.12568" lon="5.70327">
        <ele>1139.251</ele>
        <time>2020-09-02T11:21:07Z</time>
      </trkpt>
      <trkpt lat="44.12561" lon="5.70328">
        <ele>1138.857</ele>
        <time>2020-09-02T11:21:08Z</time>
      </trkpt>
      <trkpt lat="44.12553" lon="5.70329">
        <ele>1138.76</ele>
        <time>2020-09-02T11:21:09Z</time>
      </trkpt>
      <trkpt lat="44.12544" lon="5.70331">
        <ele>1138.237</ele>
        <time>2020-09-02T11:21:10Z</time>
      </trkpt>
      <trkpt lat="44.12535" lon="5.70333">
        <ele>1138.249</ele>
        <time>2020-09-02T11:21:11Z</time>
      </trkpt>
      <trkpt lat="44.12528" lon="5.70334">
        <ele>1136.813</ele>
        <time>2020-09-02T11:21:12Z</time>
      </trkpt>
      <trkpt lat="44.12519" lon="5.70335">
        <ele>1135.308</ele>
        <time>2020-09-02T11:21:13Z</time>
      </trkpt>
      <trkpt lat="44.12513" lon="5.70337">
        <ele>1134.851</ele>
        <time>2020-09-02T11:21:14Z</time>
      </trkpt>
      <trkpt lat="44.12506" lon="5.70339">
        <ele>1133.81</ele>
        <time>2020-09-02T11:21:15Z</time>
      </trkpt>
      <trkpt lat="44.12499" lon="5.70341">
        <ele>1132.24</ele>
        <time>2020-09-02T11:21:16Z</time>
      </trkpt>
      <trkpt lat="44.12492" lon="5.70342">
        <ele>1130.567</ele>
        <time>2020-09-02T11:21:17Z</time>
      </trkpt>
      <trkpt lat="44.12485" lon="5.70342">
        <ele>1129.318</ele>
        <time>2020-09-02T11:21:18Z</time>
      </trkpt>
      <trkpt lat="44.12478" lon="5.70342">
        <ele>1128.736</ele>
        <time>2020-09-02T11:21:19Z</time>
      </trkpt>
      <trkpt lat="44.1247" lon="5.70343">
        <ele>1128.292</ele>
        <time>2020-09-02T11:21:20Z</time>
      </trkpt>
      <trkpt lat="44.12464" lon="5.70345">
        <ele>1127.465</ele>
        <time>2020-09-02T11:21:21Z</time>
      </trkpt>
      <trkpt lat="44.12457" lon="5.70346">
        <ele>1126.957</ele>
        <time>2020-09-02T11:21:22Z</time>
      </trkpt>
      <trkpt lat="44.12451" lon="5.70346">
        <ele>1126</ele>
        <time>2020-09-02T11:21:23Z</time>
      </trkpt>
      <trkpt lat="44.12445" lon="5.70346">
        <ele>1125.62</ele>
        <time>2020-09-02T11:21:24Z</time>
      </trkpt>
      <trkpt lat="44.12439" lon="5.70342">
        <ele>1124.708</ele>
        <time>2020-09-02T11:21:25Z</time>
      </trkpt>
      <trkpt lat="44.12432" lon="5.7034">
        <ele>1124.153</ele>
        <time>2020-09-02T11:21:26Z</time>
      </trkpt>
      <trkpt lat="44.12426" lon="5.70336">
        <ele>1123.382</ele>
        <time>2020-09-02T11:21:27Z</time>
      </trkpt>
      <trkpt lat="44.1242" lon="5.70333">
        <ele>1122.472</ele>
        <time>2020-09-02T11:21:28Z</time>
      </trkpt>
      <trkpt lat="44.12415" lon="5.7033">
        <ele>1121.449</ele>
        <time>2020-09-02T11:21:29Z</time>
      </trkpt>
      <trkpt lat="44.12409" lon="5.70327">
        <ele>1121.46</ele>
        <time>2020-09-02T11:21:30Z</time>
      </trkpt>
      <trkpt lat="44.12404" lon="5.70325">
        <ele>1121.448</ele>
        <time>2020-09-02T11:21:31Z</time>
      </trkpt>
      <trkpt lat="44.12398" lon="5.70325">
        <ele>1120.444</ele>
        <time>2020-09-02T11:21:32Z</time>
      </trkpt>
      <trkpt lat="44.12392" lon="5.70325">
        <ele>1119.777</ele>
        <time>2020-09-02T11:21:33Z</time>
      </trkpt>
      <trkpt lat="44.12386" lon="5.70324">
        <ele>1119.389</ele>
        <time>2020-09-02T11:21:34Z</time>
      </trkpt>
      <trkpt lat="44.12379" lon="5.70322">
        <ele>1118.406</ele>
        <time>2020-09-02T11:21:35Z</time>
      </trkpt>
      <trkpt lat="44.12373" lon="5.70319">
        <ele>1117.726</ele>
        <time>2020-09-02T11:21:36Z</time>
      </trkpt>
      <trkpt lat="44.12367" lon="5.70316">
        <ele>1117.108</ele>
        <time>2020-09-02T11:21:37Z</time>
      </trkpt>
      <trkpt lat="44.12362" lon="5.70312">
        <ele>1116.096</ele>
        <time>2020-09-02T11:21:38Z</time>
      </trkpt>
      <trkpt lat="44.12356" lon="5.70311">
        <ele>1115.545</ele>
        <time>2020-09-02T11:21:39Z</time>
      </trkpt>
      <trkpt lat="44.1235" lon="5.7031">
        <ele>1114.655</ele>
        <time>2020-09-02T11:21:40Z</time>
      </trkpt>
      <trkpt lat="44.12345" lon="5.70309">
        <ele>1113.722</ele>
        <time>2020-09-02T11:21:41Z</time>
      </trkpt>
      <trkpt lat="44.12339" lon="5.70309">
        <ele>1113.073</ele>
        <time>2020-09-02T11:21:42Z</time>
      </trkpt>
      <trkpt lat="44.12333" lon="5.70309">
        <ele>1112.451</ele>
        <time>2020-09-02T11:21:43Z</time>
      </trkpt>
      <trkpt lat="44.12327" lon="5.7031">
        <ele>1111.657</ele>
        <time>2020-09-02T11:21:44Z</time>
      </trkpt>
      <trkpt lat="44.12321" lon="5.70309">
        <ele>1110.77</ele>
        <time>2020-09-02T11:21:45Z</time>
      </trkpt>
      <trkpt lat="44.12315" lon="5.7031">
        <ele>1110.171</ele>
        <time>2020-09-02T11:21:46Z</time>
      </trkpt>
      <trkpt lat="44.12309" lon="5.70311">
        <ele>1109.241</ele>
        <time>2020-09-02T11:21:47Z</time>
      </trkpt>
      <trkpt lat="44.12304" lon="5.70311">
        <ele>1108.615</ele>
        <time>2020-09-02T11:21:48Z</time>
      </trkpt>
      <trkpt lat="44.12298" lon="5.7031">
        <ele>1107.608</ele>
        <time>2020-09-02T11:21:49Z</time>
      </trkpt>
      <trkpt lat="44.12292" lon="5.70309">
        <ele>1107.355</ele>
        <time>2020-09-02T11:21:50Z</time>
      </trkpt>
      <trkpt lat="44.12287" lon="5.70307">
        <ele>1106.514</ele>
        <time>2020-09-02T11:21:51Z</time>
      </trkpt>
      <trkpt lat="44.12282" lon="5.70305">
        <ele>1105.774</ele>
        <time>2020-09-02T11:21:52Z</time>
      </trkpt>
      <trkpt lat="44.12277" lon="5.70304">
        <ele>1104.771</ele>
        <time>2020-09-02T11:21:53Z</time>
      </trkpt>
      <trkpt lat="44.12273" lon="5.70302">
        <ele>1103.292</ele>
        <time>2020-09-02T11:21:54Z</time>
      </trkpt>
      <trkpt lat="44.12267" lon="5.70302">
        <ele>1101.81</ele>
        <time>2020-09-02T11:21:55Z</time>
      </trkpt>
      <trkpt lat="44.12263" lon="5.70303">
        <ele>1101.266</ele>
        <time>2020-09-02T11:21:56Z</time>
      </trkpt>
      <trkpt lat="44.12254" lon="5.70304">
        <ele>1099.359</ele>
        <time>2020-09-02T11:21:58Z</time>
      </trkpt>
      <trkpt lat="44.12245" lon="5.70308">
        <ele>1097.282</ele>
        <time>2020-09-02T11:22:00Z</time>
      </trkpt>
      <trkpt lat="44.1224" lon="5.7031">
        <ele>1095.643</ele>
        <time>2020-09-02T11:22:01Z</time>
      </trkpt>
      <trkpt lat="44.12234" lon="5.70311">
        <ele>1094.717</ele>
        <time>2020-09-02T11:22:02Z</time>
      </trkpt>
      <trkpt lat="44.12228" lon="5.70311">
        <ele>1093.608</ele>
        <time>2020-09-02T11:22:03Z</time>
      </trkpt>
      <trkpt lat="44.12221" lon="5.70309">
        <ele>1092.596</ele>
        <time>2020-09-02T11:22:04Z</time>
      </trkpt>
      <trkpt lat="44.12214" lon="5.70307">
        <ele>1091.525</ele>
        <time>2020-09-02T11:22:05Z</time>
      </trkpt>
      <trkpt lat="44.12209" lon="5.70306">
        <ele>1090.915</ele>
        <time>2020-09-02T11:22:06Z</time>
      </trkpt>
      <trkpt lat="44.12203" lon="5.70303">
        <ele>1089.692</ele>
        <time>2020-09-02T11:22:07Z</time>
      </trkpt>
      <trkpt lat="44.12197" lon="5.70301">
        <ele>1087.783</ele>
        <time>2020-09-02T11:22:08Z</time>
      </trkpt>
      <trkpt lat="44.12191" lon="5.703">
        <ele>1086.571</ele>
        <time>2020-09-02T11:22:09Z</time>
      </trkpt>
      <trkpt lat="44.12185" lon="5.703">
        <ele>1085.777</ele>
        <time>2020-09-02T11:22:10Z</time>
      </trkpt>
      <trkpt lat="44.1218" lon="5.703">
        <ele>1085.03</ele>
        <time>2020-09-02T11:22:11Z</time>
      </trkpt>
      <trkpt lat="44.12174" lon="5.70299">
        <ele>1084.327</ele>
        <time>2020-09-02T11:22:12Z</time>
      </trkpt>
      <trkpt lat="44.12168" lon="5.70299">
        <ele>1083.768</ele>
        <time>2020-09-02T11:22:13Z</time>
      </trkpt>
      <trkpt lat="44.12162" lon="5.70298">
        <ele>1083.414</ele>
        <time>2020-09-02T11:22:14Z</time>
      </trkpt>
      <trkpt lat="44.12156" lon="5.70298">
        <ele>1083.308</ele>
        <time>2020-09-02T11:22:15Z</time>
      </trkpt>
      <trkpt lat="44.1215" lon="5.70298">
        <ele>1081.81</ele>
        <time>2020-09-02T11:22:16Z</time>
      </trkpt>
      <trkpt lat="44.12145" lon="5.70297">
        <ele>1080.899</ele>
        <time>2020-09-02T11:22:17Z</time>
      </trkpt>
      <trkpt lat="44.12139" lon="5.70295">
        <ele>1080.959</ele>
        <time>2020-09-02T11:22:18Z</time>
      </trkpt>
      <trkpt lat="44.12133" lon="5.70294">
        <ele>1080.446</ele>
        <time>2020-09-02T11:22:19Z</time>
      </trkpt>
      <trkpt lat="44.12127" lon="5.70293">
        <ele>1079.027</ele>
        <time>2020-09-02T11:22:20Z</time>
      </trkpt>
      <trkpt lat="44.12122" lon="5.70291">
        <ele>1078.115</ele>
        <time>2020-09-02T11:22:21Z</time>
      </trkpt>
      <trkpt lat="44.12116" lon="5.7029">
        <ele>1076.531</ele>
        <time>2020-09-02T11:22:22Z</time>
      </trkpt>
      <trkpt lat="44.12111" lon="5.70286">
        <ele>1074.554</ele>
        <time>2020-09-02T11:22:23Z</time>
      </trkpt>
      <trkpt lat="44.12106" lon="5.70282">
        <ele>1073.661</ele>
        <time>2020-09-02T11:22:24Z</time>
      </trkpt>
      <trkpt lat="44.121" lon="5.70278">
        <ele>1072.721</ele>
        <time>2020-09-02T11:22:25Z</time>
      </trkpt>
      <trkpt lat="44.12095" lon="5.70275">
        <ele>1071.413</ele>
        <time>2020-09-02T11:22:26Z</time>
      </trkpt>
      <trkpt lat="44.12088" lon="5.70273">
        <ele>1070.908</ele>
        <time>2020-09-02T11:22:27Z</time>
      </trkpt>
      <trkpt lat="44.12083" lon="5.70269">
        <ele>1069.484</ele>
        <time>2020-09-02T11:22:28Z</time>
      </trkpt>
      <trkpt lat="44.12077" lon="5.70266">
        <ele>1068.313</ele>
        <time>2020-09-02T11:22:29Z</time>
      </trkpt>
      <trkpt lat="44.1207" lon="5.70264">
        <ele>1068.993</ele>
        <time>2020-09-02T11:22:30Z</time>
      </trkpt>
      <trkpt lat="44.12064" lon="5.70263">
        <ele>1067.71</ele>
        <time>2020-09-02T11:22:31Z</time>
      </trkpt>
      <trkpt lat="44.12058" lon="5.7026">
        <ele>1066.481</ele>
        <time>2020-09-02T11:22:32Z</time>
      </trkpt>
      <trkpt lat="44.12052" lon="5.70259">
        <ele>1064.529</ele>
        <time>2020-09-02T11:22:33Z</time>
      </trkpt>
      <trkpt lat="44.12046" lon="5.70257">
        <ele>1063.435</ele>
        <time>2020-09-02T11:22:34Z</time>
      </trkpt>
      <trkpt lat="44.12039" lon="5.70257">
        <ele>1063.038</ele>
        <time>2020-09-02T11:22:35Z</time>
      </trkpt>
      <trkpt lat="44.12033" lon="5.70259">
        <ele>1062.184</ele>
        <time>2020-09-02T11:22:36Z</time>
      </trkpt>
      <trkpt lat="44.12027" lon="5.70261">
        <ele>1061.807</ele>
        <time>2020-09-02T11:22:37Z</time>
      </trkpt>
      <trkpt lat="44.12021" lon="5.70264">
        <ele>1061.417</ele>
        <time>2020-09-02T11:22:38Z</time>
      </trkpt>
      <trkpt lat="44.12015" lon="5.70267">
        <ele>1060.808</ele>
        <time>2020-09-02T11:22:39Z</time>
      </trkpt>
      <trkpt lat="44.1201" lon="5.70268">
        <ele>1059.776</ele>
        <time>2020-09-02T11:22:40Z</time>
      </trkpt>
      <trkpt lat="44.12005" lon="5.70268">
        <ele>1059.285</ele>
        <time>2020-09-02T11:22:41Z</time>
      </trkpt>
      <trkpt lat="44.12001" lon="5.70265">
        <ele>1056.895</ele>
        <time>2020-09-02T11:22:43Z</time>
      </trkpt>
      <trkpt lat="44.11999" lon="5.70257">
        <ele>1055.742</ele>
        <time>2020-09-02T11:22:45Z</time>
      </trkpt>
      <trkpt lat="44.11995" lon="5.7025">
        <ele>1056.083</ele>
        <time>2020-09-02T11:22:47Z</time>
      </trkpt>
      <trkpt lat="44.11989" lon="5.7025">
        <ele>1055.251</ele>
        <time>2020-09-02T11:22:49Z</time>
      </trkpt>
      <trkpt lat="44.11982" lon="5.70252">
        <ele>1054.987</ele>
        <time>2020-09-02T11:22:51Z</time>
      </trkpt>
      <trkpt lat="44.11974" lon="5.70254">
        <ele>1054.31</ele>
        <time>2020-09-02T11:22:53Z</time>
      </trkpt>
      <trkpt lat="44.11969" lon="5.70256">
        <ele>1053.949</ele>
        <time>2020-09-02T11:22:54Z</time>
      </trkpt>
      <trkpt lat="44.11961" lon="5.70259">
        <ele>1053.302</ele>
        <time>2020-09-02T11:22:56Z</time>
      </trkpt>
      <trkpt lat="44.11952" lon="5.70263">
        <ele>1051.822</ele>
        <time>2020-09-02T11:22:58Z</time>
      </trkpt>
      <trkpt lat="44.11946" lon="5.70264">
        <ele>1051.408</ele>
        <time>2020-09-02T11:22:59Z</time>
      </trkpt>
      <trkpt lat="44.1194" lon="5.70264">
        <ele>1051.082</ele>
        <time>2020-09-02T11:23:00Z</time>
      </trkpt>
      <trkpt lat="44.11934" lon="5.70266">
        <ele>1050.791</ele>
        <time>2020-09-02T11:23:01Z</time>
      </trkpt>
      <trkpt lat="44.11929" lon="5.70267">
        <ele>1050.841</ele>
        <time>2020-09-02T11:23:02Z</time>
      </trkpt>
      <trkpt lat="44.11924" lon="5.70267">
        <ele>1050.478</ele>
        <time>2020-09-02T11:23:03Z</time>
      </trkpt>
      <trkpt lat="44.11914" lon="5.7027">
        <ele>1049.739</ele>
        <time>2020-09-02T11:23:05Z</time>
      </trkpt>
      <trkpt lat="44.11908" lon="5.70272">
        <ele>1049.137</ele>
        <time>2020-09-02T11:23:06Z</time>
      </trkpt>
      <trkpt lat="44.11903" lon="5.70272">
        <ele>1048.253</ele>
        <time>2020-09-02T11:23:07Z</time>
      </trkpt>
      <trkpt lat="44.11896" lon="5.70273">
        <ele>1048.036</ele>
        <time>2020-09-02T11:23:08Z</time>
      </trkpt>
      <trkpt lat="44.1189" lon="5.70277">
        <ele>1047.171</ele>
        <time>2020-09-02T11:23:09Z</time>
      </trkpt>
      <trkpt lat="44.11884" lon="5.7028">
        <ele>1046.541</ele>
        <time>2020-09-02T11:23:10Z</time>
      </trkpt>
      <trkpt lat="44.11877" lon="5.70282">
        <ele>1046.215</ele>
        <time>2020-09-02T11:23:11Z</time>
      </trkpt>
      <trkpt lat="44.1187" lon="5.70284">
        <ele>1046.108</ele>
        <time>2020-09-02T11:23:12Z</time>
      </trkpt>
      <trkpt lat="44.11863" lon="5.70287">
        <ele>1046.345</ele>
        <time>2020-09-02T11:23:13Z</time>
      </trkpt>
      <trkpt lat="44.11854" lon="5.70287">
        <ele>1045.824</ele>
        <time>2020-09-02T11:23:14Z</time>
      </trkpt>
      <trkpt lat="44.11848" lon="5.70289">
        <ele>1044.664</ele>
        <time>2020-09-02T11:23:15Z</time>
      </trkpt>
      <trkpt lat="44.11842" lon="5.70288">
        <ele>1043.721</ele>
        <time>2020-09-02T11:23:16Z</time>
      </trkpt>
      <trkpt lat="44.11836" lon="5.70289">
        <ele>1043.152</ele>
        <time>2020-09-02T11:23:17Z</time>
      </trkpt>
      <trkpt lat="44.1183" lon="5.70288">
        <ele>1042.39</ele>
        <time>2020-09-02T11:23:18Z</time>
      </trkpt>
      <trkpt lat="44.11824" lon="5.70288">
        <ele>1042.526</ele>
        <time>2020-09-02T11:23:19Z</time>
      </trkpt>
      <trkpt lat="44.11817" lon="5.70288">
        <ele>1042.229</ele>
        <time>2020-09-02T11:23:20Z</time>
      </trkpt>
      <trkpt lat="44.11811" lon="5.70288">
        <ele>1042.412</ele>
        <time>2020-09-02T11:23:21Z</time>
      </trkpt>
      <trkpt lat="44.11806" lon="5.70283">
        <ele>1042.132</ele>
        <time>2020-09-02T11:23:22Z</time>
      </trkpt>
      <trkpt lat="44.118" lon="5.70279">
        <ele>1041.705</ele>
        <time>2020-09-02T11:23:23Z</time>
      </trkpt>
      <trkpt lat="44.11794" lon="5.70274">
        <ele>1041.108</ele>
        <time>2020-09-02T11:23:24Z</time>
      </trkpt>
      <trkpt lat="44.11789" lon="5.7027">
        <ele>1040.299</ele>
        <time>2020-09-02T11:23:25Z</time>
      </trkpt>
      <trkpt lat="44.11783" lon="5.70268">
        <ele>1039.478</ele>
        <time>2020-09-02T11:23:26Z</time>
      </trkpt>
      <trkpt lat="44.11777" lon="5.70266">
        <ele>1038.658</ele>
        <time>2020-09-02T11:23:27Z</time>
      </trkpt>
      <trkpt lat="44.11772" lon="5.70267">
        <ele>1037.945</ele>
        <time>2020-09-02T11:23:28Z</time>
      </trkpt>
      <trkpt lat="44.11766" lon="5.70268">
        <ele>1037.586</ele>
        <time>2020-09-02T11:23:29Z</time>
      </trkpt>
      <trkpt lat="44.11761" lon="5.70268">
        <ele>1036.334</ele>
        <time>2020-09-02T11:23:30Z</time>
      </trkpt>
      <trkpt lat="44.11756" lon="5.70267">
        <ele>1035.49</ele>
        <time>2020-09-02T11:23:31Z</time>
      </trkpt>
      <trkpt lat="44.1175" lon="5.70265">
        <ele>1034.763</ele>
        <time>2020-09-02T11:23:32Z</time>
      </trkpt>
      <trkpt lat="44.11745" lon="5.70263">
        <ele>1033.897</ele>
        <time>2020-09-02T11:23:33Z</time>
      </trkpt>
      <trkpt lat="44.1174" lon="5.70261">
        <ele>1033.723</ele>
        <time>2020-09-02T11:23:34Z</time>
      </trkpt>
      <trkpt lat="44.11734" lon="5.70259">
        <ele>1033.825</ele>
        <time>2020-09-02T11:23:35Z</time>
      </trkpt>
      <trkpt lat="44.1173" lon="5.70258">
        <ele>1032.008</ele>
        <time>2020-09-02T11:23:36Z</time>
      </trkpt>
      <trkpt lat="44.11724" lon="5.70256">
        <ele>1030.827</ele>
        <time>2020-09-02T11:23:37Z</time>
      </trkpt>
      <trkpt lat="44.11719" lon="5.70254">
        <ele>1029.546</ele>
        <time>2020-09-02T11:23:38Z</time>
      </trkpt>
      <trkpt lat="44.11714" lon="5.70251">
        <ele>1029.246</ele>
        <time>2020-09-02T11:23:39Z</time>
      </trkpt>
      <trkpt lat="44.11709" lon="5.70246">
        <ele>1028.523</ele>
        <time>2020-09-02T11:23:40Z</time>
      </trkpt>
      <trkpt lat="44.11704" lon="5.70243">
        <ele>1028.084</ele>
        <time>2020-09-02T11:23:41Z</time>
      </trkpt>
      <trkpt lat="44.11699" lon="5.70239">
        <ele>1027.142</ele>
        <time>2020-09-02T11:23:42Z</time>
      </trkpt>
      <trkpt lat="44.11695" lon="5.70234">
        <ele>1026.378</ele>
        <time>2020-09-02T11:23:43Z</time>
      </trkpt>
      <trkpt lat="44.1169" lon="5.70229">
        <ele>1025.651</ele>
        <time>2020-09-02T11:23:44Z</time>
      </trkpt>
      <trkpt lat="44.11685" lon="5.70223">
        <ele>1025.253</ele>
        <time>2020-09-02T11:23:45Z</time>
      </trkpt>
      <trkpt lat="44.11681" lon="5.70217">
        <ele>1024.604</ele>
        <time>2020-09-02T11:23:46Z</time>
      </trkpt>
      <trkpt lat="44.11678" lon="5.7021">
        <ele>1024.114</ele>
        <time>2020-09-02T11:23:47Z</time>
      </trkpt>
      <trkpt lat="44.11675" lon="5.70205">
        <ele>1022.908</ele>
        <time>2020-09-02T11:23:48Z</time>
      </trkpt>
      <trkpt lat="44.11671" lon="5.70199">
        <ele>1022.213</ele>
        <time>2020-09-02T11:23:49Z</time>
      </trkpt>
      <trkpt lat="44.11668" lon="5.70193">
        <ele>1020.752</ele>
        <time>2020-09-02T11:23:50Z</time>
      </trkpt>
      <trkpt lat="44.11664" lon="5.70188">
        <ele>1020.192</ele>
        <time>2020-09-02T11:23:51Z</time>
      </trkpt>
      <trkpt lat="44.1166" lon="5.70185">
        <ele>1019.439</ele>
        <time>2020-09-02T11:23:52Z</time>
      </trkpt>
      <trkpt lat="44.11659" lon="5.70176">
        <ele>1017.35</ele>
        <time>2020-09-02T11:23:53Z</time>
      </trkpt>
      <trkpt lat="44.11658" lon="5.7017">
        <ele>1015.558</ele>
        <time>2020-09-02T11:23:54Z</time>
      </trkpt>
      <trkpt lat="44.11657" lon="5.70163">
        <ele>1015.094</ele>
        <time>2020-09-02T11:23:55Z</time>
      </trkpt>
      <trkpt lat="44.11656" lon="5.70156">
        <ele>1013.057</ele>
        <time>2020-09-02T11:23:56Z</time>
      </trkpt>
      <trkpt lat="44.11653" lon="5.70145">
        <ele>1012.766</ele>
        <time>2020-09-02T11:23:58Z</time>
      </trkpt>
      <trkpt lat="44.11651" lon="5.70139">
        <ele>1013.729</ele>
        <time>2020-09-02T11:23:59Z</time>
      </trkpt>
      <trkpt lat="44.11649" lon="5.70132">
        <ele>1014.021</ele>
        <time>2020-09-02T11:24:00Z</time>
      </trkpt>
      <trkpt lat="44.11648" lon="5.70126">
        <ele>1013.008</ele>
        <time>2020-09-02T11:24:01Z</time>
      </trkpt>
      <trkpt lat="44.11643" lon="5.70116">
        <ele>1010.834</ele>
        <time>2020-09-02T11:24:03Z</time>
      </trkpt>
      <trkpt lat="44.11641" lon="5.7011">
        <ele>1009.563</ele>
        <time>2020-09-02T11:24:04Z</time>
      </trkpt>
      <trkpt lat="44.11638" lon="5.70104">
        <ele>1008.813</ele>
        <time>2020-09-02T11:24:05Z</time>
      </trkpt>
      <trkpt lat="44.11635" lon="5.70099">
        <ele>1008.05</ele>
        <time>2020-09-02T11:24:06Z</time>
      </trkpt>
      <trkpt lat="44.11632" lon="5.70092">
        <ele>1008.391</ele>
        <time>2020-09-02T11:24:07Z</time>
      </trkpt>
      <trkpt lat="44.11629" lon="5.70086">
        <ele>1007.339</ele>
        <time>2020-09-02T11:24:08Z</time>
      </trkpt>
      <trkpt lat="44.11627" lon="5.70081">
        <ele>1007.515</ele>
        <time>2020-09-02T11:24:09Z</time>
      </trkpt>
      <trkpt lat="44.11623" lon="5.70076">
        <ele>1006.798</ele>
        <time>2020-09-02T11:24:10Z</time>
      </trkpt>
      <trkpt lat="44.1162" lon="5.70071">
        <ele>1008.435</ele>
        <time>2020-09-02T11:24:11Z</time>
      </trkpt>
      <trkpt lat="44.11616" lon="5.70067">
        <ele>1008.386</ele>
        <time>2020-09-02T11:24:12Z</time>
      </trkpt>
      <trkpt lat="44.11611" lon="5.70064">
        <ele>1008.414</ele>
        <time>2020-09-02T11:24:13Z</time>
      </trkpt>
      <trkpt lat="44.11607" lon="5.70061">
        <ele>1008.108</ele>
        <time>2020-09-02T11:24:14Z</time>
      </trkpt>
      <trkpt lat="44.11603" lon="5.70059">
        <ele>1008.021</ele>
        <time>2020-09-02T11:24:15Z</time>
      </trkpt>
      <trkpt lat="44.11598" lon="5.70055">
        <ele>1008.08</ele>
        <time>2020-09-02T11:24:16Z</time>
      </trkpt>
      <trkpt lat="44.11592" lon="5.70053">
        <ele>1007.97</ele>
        <time>2020-09-02T11:24:17Z</time>
      </trkpt>
      <trkpt lat="44.11587" lon="5.7005">
        <ele>1007.887</ele>
        <time>2020-09-02T11:24:18Z</time>
      </trkpt>
      <trkpt lat="44.11582" lon="5.70046">
        <ele>1008.048</ele>
        <time>2020-09-02T11:24:19Z</time>
      </trkpt>
      <trkpt lat="44.11576" lon="5.70043">
        <ele>1007.656</ele>
        <time>2020-09-02T11:24:20Z</time>
      </trkpt>
      <trkpt lat="44.11571" lon="5.70039">
        <ele>1006.962</ele>
        <time>2020-09-02T11:24:21Z</time>
      </trkpt>
      <trkpt lat="44.11565" lon="5.70035">
        <ele>1006.995</ele>
        <time>2020-09-02T11:24:22Z</time>
      </trkpt>
      <trkpt lat="44.11559" lon="5.70031">
        <ele>1006.515</ele>
        <time>2020-09-02T11:24:23Z</time>
      </trkpt>
      <trkpt lat="44.11552" lon="5.70032">
        <ele>1006.365</ele>
        <time>2020-09-02T11:24:24Z</time>
      </trkpt>
      <trkpt lat="44.11545" lon="5.70032">
        <ele>1005.711</ele>
        <time>2020-09-02T11:24:25Z</time>
      </trkpt>
      <trkpt lat="44.1154" lon="5.7003">
        <ele>1005.108</ele>
        <time>2020-09-02T11:24:26Z</time>
      </trkpt>
      <trkpt lat="44.11535" lon="5.7003">
        <ele>1003.979</ele>
        <time>2020-09-02T11:24:27Z</time>
      </trkpt>
      <trkpt lat="44.11529" lon="5.7003">
        <ele>1002.938</ele>
        <time>2020-09-02T11:24:28Z</time>
      </trkpt>
      <trkpt lat="44.11523" lon="5.70029">
        <ele>1002.058</ele>
        <time>2020-09-02T11:24:29Z</time>
      </trkpt>
      <trkpt lat="44.11518" lon="5.70028">
        <ele>1001.695</ele>
        <time>2020-09-02T11:24:30Z</time>
      </trkpt>
      <trkpt lat="44.11512" lon="5.70027">
        <ele>1001.166</ele>
        <time>2020-09-02T11:24:31Z</time>
      </trkpt>
      <trkpt lat="44.11507" lon="5.70025">
        <ele>1000.874</ele>
        <time>2020-09-02T11:24:32Z</time>
      </trkpt>
      <trkpt lat="44.11501" lon="5.70023">
        <ele>1000.22</ele>
        <time>2020-09-02T11:24:33Z</time>
      </trkpt>
      <trkpt lat="44.11495" lon="5.70022">
        <ele>999.523</ele>
        <time>2020-09-02T11:24:34Z</time>
      </trkpt>
      <trkpt lat="44.11489" lon="5.70021">
        <ele>999.448</ele>
        <time>2020-09-02T11:24:35Z</time>
      </trkpt>
      <trkpt lat="44.11484" lon="5.70023">
        <ele>998.061</ele>
        <time>2020-09-02T11:24:36Z</time>
      </trkpt>
      <trkpt lat="44.11478" lon="5.70023">
        <ele>996.117</ele>
        <time>2020-09-02T11:24:37Z</time>
      </trkpt>
      <trkpt lat="44.11472" lon="5.70022">
        <ele>995.108</ele>
        <time>2020-09-02T11:24:38Z</time>
      </trkpt>
      <trkpt lat="44.11467" lon="5.70021">
        <ele>994.982</ele>
        <time>2020-09-02T11:24:39Z</time>
      </trkpt>
      <trkpt lat="44.11457" lon="5.70019">
        <ele>994.471</ele>
        <time>2020-09-02T11:24:41Z</time>
      </trkpt>
      <trkpt lat="44.11453" lon="5.70019">
        <ele>993.881</ele>
        <time>2020-09-02T11:24:42Z</time>
      </trkpt>
      <trkpt lat="44.11448" lon="5.70017">
        <ele>993.288</ele>
        <time>2020-09-02T11:24:43Z</time>
      </trkpt>
      <trkpt lat="44.11443" lon="5.70016">
        <ele>992.999</ele>
        <time>2020-09-02T11:24:44Z</time>
      </trkpt>
      <trkpt lat="44.11437" lon="5.70014">
        <ele>992.917</ele>
        <time>2020-09-02T11:24:45Z</time>
      </trkpt>
      <trkpt lat="44.11431" lon="5.70014">
        <ele>991.243</ele>
        <time>2020-09-02T11:24:46Z</time>
      </trkpt>
      <trkpt lat="44.11424" lon="5.70013">
        <ele>991.196</ele>
        <time>2020-09-02T11:24:47Z</time>
      </trkpt>
      <trkpt lat="44.11418" lon="5.70013">
        <ele>990.437</ele>
        <time>2020-09-02T11:24:48Z</time>
      </trkpt>
      <trkpt lat="44.11412" lon="5.70011">
        <ele>990.249</ele>
        <time>2020-09-02T11:24:49Z</time>
      </trkpt>
      <trkpt lat="44.11405" lon="5.7001">
        <ele>990.113</ele>
        <time>2020-09-02T11:24:50Z</time>
      </trkpt>
      <trkpt lat="44.11399" lon="5.70009">
        <ele>989.308</ele>
        <time>2020-09-02T11:24:51Z</time>
      </trkpt>
      <trkpt lat="44.11393" lon="5.7001">
        <ele>988.251</ele>
        <time>2020-09-02T11:24:52Z</time>
      </trkpt>
      <trkpt lat="44.11386" lon="5.70008">
        <ele>986.24</ele>
        <time>2020-09-02T11:24:53Z</time>
      </trkpt>
      <trkpt lat="44.1138" lon="5.70008">
        <ele>985.65</ele>
        <time>2020-09-02T11:24:54Z</time>
      </trkpt>
      <trkpt lat="44.11374" lon="5.70006">
        <ele>985.057</ele>
        <time>2020-09-02T11:24:55Z</time>
      </trkpt>
      <trkpt lat="44.11368" lon="5.70004">
        <ele>984.478</ele>
        <time>2020-09-02T11:24:56Z</time>
      </trkpt>
      <trkpt lat="44.11362" lon="5.70002">
        <ele>983.866</ele>
        <time>2020-09-02T11:24:57Z</time>
      </trkpt>
      <trkpt lat="44.11355" lon="5.70001">
        <ele>982.472</ele>
        <time>2020-09-02T11:24:58Z</time>
      </trkpt>
      <trkpt lat="44.11349" lon="5.69999">
        <ele>982.055</ele>
        <time>2020-09-02T11:24:59Z</time>
      </trkpt>
      <trkpt lat="44.11342" lon="5.69998">
        <ele>981.169</ele>
        <time>2020-09-02T11:25:00Z</time>
      </trkpt>
      <trkpt lat="44.11334" lon="5.69998">
        <ele>981.104</ele>
        <time>2020-09-02T11:25:01Z</time>
      </trkpt>
      <trkpt lat="44.11327" lon="5.7">
        <ele>980.824</ele>
        <time>2020-09-02T11:25:02Z</time>
      </trkpt>
      <trkpt lat="44.11318" lon="5.70001">
        <ele>980.108</ele>
        <time>2020-09-02T11:25:03Z</time>
      </trkpt>
      <trkpt lat="44.1131" lon="5.70001">
        <ele>979.534</ele>
        <time>2020-09-02T11:25:04Z</time>
      </trkpt>
      <trkpt lat="44.11302" lon="5.70001">
        <ele>979.393</ele>
        <time>2020-09-02T11:25:05Z</time>
      </trkpt>
      <trkpt lat="44.11294" lon="5.70002">
        <ele>978.473</ele>
        <time>2020-09-02T11:25:06Z</time>
      </trkpt>
      <trkpt lat="44.11284" lon="5.70001">
        <ele>977.88</ele>
        <time>2020-09-02T11:25:07Z</time>
      </trkpt>
      <trkpt lat="44.11275" lon="5.70001">
        <ele>977.551</ele>
        <time>2020-09-02T11:25:08Z</time>
      </trkpt>
      <trkpt lat="44.11266" lon="5.69999">
        <ele>977.199</ele>
        <time>2020-09-02T11:25:09Z</time>
      </trkpt>
      <trkpt lat="44.11258" lon="5.69997">
        <ele>976.755</ele>
        <time>2020-09-02T11:25:10Z</time>
      </trkpt>
      <trkpt lat="44.1125" lon="5.69995">
        <ele>976.058</ele>
        <time>2020-09-02T11:25:11Z</time>
      </trkpt>
      <trkpt lat="44.11243" lon="5.69994">
        <ele>974.183</ele>
        <time>2020-09-02T11:25:12Z</time>
      </trkpt>
      <trkpt lat="44.11236" lon="5.69991">
        <ele>973.725</ele>
        <time>2020-09-02T11:25:13Z</time>
      </trkpt>
      <trkpt lat="44.1123" lon="5.6999">
        <ele>973.117</ele>
        <time>2020-09-02T11:25:14Z</time>
      </trkpt>
      <trkpt lat="44.11222" lon="5.69992">
        <ele>973.708</ele>
        <time>2020-09-02T11:25:15Z</time>
      </trkpt>
      <trkpt lat="44.11216" lon="5.69993">
        <ele>971.836</ele>
        <time>2020-09-02T11:25:16Z</time>
      </trkpt>
      <trkpt lat="44.11208" lon="5.69994">
        <ele>971.715</ele>
        <time>2020-09-02T11:25:17Z</time>
      </trkpt>
      <trkpt lat="44.11201" lon="5.69993">
        <ele>970.185</ele>
        <time>2020-09-02T11:25:18Z</time>
      </trkpt>
      <trkpt lat="44.11194" lon="5.69991">
        <ele>969.512</ele>
        <time>2020-09-02T11:25:19Z</time>
      </trkpt>
      <trkpt lat="44.11187" lon="5.69988">
        <ele>968.813</ele>
        <time>2020-09-02T11:25:20Z</time>
      </trkpt>
      <trkpt lat="44.1118" lon="5.69984">
        <ele>969.141</ele>
        <time>2020-09-02T11:25:21Z</time>
      </trkpt>
      <trkpt lat="44.11171" lon="5.6998">
        <ele>968.817</ele>
        <time>2020-09-02T11:25:22Z</time>
      </trkpt>
      <trkpt lat="44.11163" lon="5.69976">
        <ele>968.56</ele>
        <time>2020-09-02T11:25:23Z</time>
      </trkpt>
      <trkpt lat="44.11156" lon="5.69973">
        <ele>968.313</ele>
        <time>2020-09-02T11:25:24Z</time>
      </trkpt>
      <trkpt lat="44.11149" lon="5.69971">
        <ele>966.243</ele>
        <time>2020-09-02T11:25:25Z</time>
      </trkpt>
      <trkpt lat="44.11141" lon="5.69968">
        <ele>965.707</ele>
        <time>2020-09-02T11:25:26Z</time>
      </trkpt>
      <trkpt lat="44.11133" lon="5.69965">
        <ele>965.408</ele>
        <time>2020-09-02T11:25:27Z</time>
      </trkpt>
      <trkpt lat="44.11124" lon="5.69963">
        <ele>965.129</ele>
        <time>2020-09-02T11:25:28Z</time>
      </trkpt>
      <trkpt lat="44.11117" lon="5.69961">
        <ele>965.158</ele>
        <time>2020-09-02T11:25:29Z</time>
      </trkpt>
      <trkpt lat="44.11109" lon="5.69959">
        <ele>965.478</ele>
        <time>2020-09-02T11:25:30Z</time>
      </trkpt>
      <trkpt lat="44.11101" lon="5.69958">
        <ele>965.545</ele>
        <time>2020-09-02T11:25:31Z</time>
      </trkpt>
      <trkpt lat="44.11093" lon="5.69957">
        <ele>964.386</ele>
        <time>2020-09-02T11:25:32Z</time>
      </trkpt>
      <trkpt lat="44.11085" lon="5.69957">
        <ele>963.254</ele>
        <time>2020-09-02T11:25:33Z</time>
      </trkpt>
      <trkpt lat="44.11078" lon="5.69956">
        <ele>962.25</ele>
        <time>2020-09-02T11:25:34Z</time>
      </trkpt>
      <trkpt lat="44.11069" lon="5.69956">
        <ele>962.093</ele>
        <time>2020-09-02T11:25:35Z</time>
      </trkpt>
      <trkpt lat="44.1106" lon="5.69955">
        <ele>961.373</ele>
        <time>2020-09-02T11:25:36Z</time>
      </trkpt>
      <trkpt lat="44.11052" lon="5.69955">
        <ele>959.185</ele>
        <time>2020-09-02T11:25:37Z</time>
      </trkpt>
      <trkpt lat="44.11044" lon="5.69955">
        <ele>958.213</ele>
        <time>2020-09-02T11:25:38Z</time>
      </trkpt>
      <trkpt lat="44.11037" lon="5.69954">
        <ele>957.308</ele>
        <time>2020-09-02T11:25:39Z</time>
      </trkpt>
      <trkpt lat="44.11029" lon="5.69952">
        <ele>957.375</ele>
        <time>2020-09-02T11:25:40Z</time>
      </trkpt>
      <trkpt lat="44.11021" lon="5.6995">
        <ele>955.624</ele>
        <time>2020-09-02T11:25:41Z</time>
      </trkpt>
      <trkpt lat="44.11012" lon="5.69948">
        <ele>955.254</ele>
        <time>2020-09-02T11:25:42Z</time>
      </trkpt>
      <trkpt lat="44.11003" lon="5.69947">
        <ele>953.691</ele>
        <time>2020-09-02T11:25:43Z</time>
      </trkpt>
      <trkpt lat="44.10993" lon="5.69948">
        <ele>953.182</ele>
        <time>2020-09-02T11:25:44Z</time>
      </trkpt>
      <trkpt lat="44.10984" lon="5.6995">
        <ele>953.14</ele>
        <time>2020-09-02T11:25:45Z</time>
      </trkpt>
      <trkpt lat="44.10976" lon="5.69952">
        <ele>953.026</ele>
        <time>2020-09-02T11:25:46Z</time>
      </trkpt>
      <trkpt lat="44.1097" lon="5.69951">
        <ele>951.269</ele>
        <time>2020-09-02T11:25:47Z</time>
      </trkpt>
      <trkpt lat="44.10962" lon="5.69951">
        <ele>950.715</ele>
        <time>2020-09-02T11:25:48Z</time>
      </trkpt>
      <trkpt lat="44.10953" lon="5.69951">
        <ele>950.765</ele>
        <time>2020-09-02T11:25:49Z</time>
      </trkpt>
      <trkpt lat="44.10945" lon="5.69951">
        <ele>950.611</ele>
        <time>2020-09-02T11:25:50Z</time>
      </trkpt>
      <trkpt lat="44.10936" lon="5.69949">
        <ele>950.508</ele>
        <time>2020-09-02T11:25:51Z</time>
      </trkpt>
      <trkpt lat="44.10928" lon="5.69948">
        <ele>950.579</ele>
        <time>2020-09-02T11:25:52Z</time>
      </trkpt>
      <trkpt lat="44.10921" lon="5.69946">
        <ele>950.928</ele>
        <time>2020-09-02T11:25:53Z</time>
      </trkpt>
      <trkpt lat="44.10913" lon="5.69939">
        <ele>950.178</ele>
        <time>2020-09-02T11:25:54Z</time>
      </trkpt>
      <trkpt lat="44.10905" lon="5.69935">
        <ele>949.775</ele>
        <time>2020-09-02T11:25:55Z</time>
      </trkpt>
      <trkpt lat="44.10896" lon="5.69933">
        <ele>949.256</ele>
        <time>2020-09-02T11:25:56Z</time>
      </trkpt>
      <trkpt lat="44.10886" lon="5.69929">
        <ele>948.994</ele>
        <time>2020-09-02T11:25:57Z</time>
      </trkpt>
      <trkpt lat="44.10879" lon="5.69925">
        <ele>948.55</ele>
        <time>2020-09-02T11:25:58Z</time>
      </trkpt>
      <trkpt lat="44.1087" lon="5.69923">
        <ele>948.693</ele>
        <time>2020-09-02T11:25:59Z</time>
      </trkpt>
      <trkpt lat="44.10861" lon="5.6992">
        <ele>948.369</ele>
        <time>2020-09-02T11:26:00Z</time>
      </trkpt>
      <trkpt lat="44.10853" lon="5.69922">
        <ele>947.704</ele>
        <time>2020-09-02T11:26:01Z</time>
      </trkpt>
      <trkpt lat="44.10844" lon="5.69923">
        <ele>947.424</ele>
        <time>2020-09-02T11:26:02Z</time>
      </trkpt>
      <trkpt lat="44.10836" lon="5.69924">
        <ele>946.708</ele>
        <time>2020-09-02T11:26:03Z</time>
      </trkpt>
      <trkpt lat="44.10826" lon="5.69925">
        <ele>946.844</ele>
        <time>2020-09-02T11:26:04Z</time>
      </trkpt>
      <trkpt lat="44.10817" lon="5.69927">
        <ele>946.043</ele>
        <time>2020-09-02T11:26:05Z</time>
      </trkpt>
      <trkpt lat="44.10807" lon="5.69928">
        <ele>946.013</ele>
        <time>2020-09-02T11:26:06Z</time>
      </trkpt>
      <trkpt lat="44.10796" lon="5.6993">
        <ele>946.17</ele>
        <time>2020-09-02T11:26:07Z</time>
      </trkpt>
      <trkpt lat="44.10785" lon="5.69932">
        <ele>945.821</ele>
        <time>2020-09-02T11:26:08Z</time>
      </trkpt>
      <trkpt lat="44.10776" lon="5.69935">
        <ele>943.549</ele>
        <time>2020-09-02T11:26:09Z</time>
      </trkpt>
      <trkpt lat="44.10766" lon="5.69937">
        <ele>943.045</ele>
        <time>2020-09-02T11:26:10Z</time>
      </trkpt>
      <trkpt lat="44.10756" lon="5.6994">
        <ele>941.218</ele>
        <time>2020-09-02T11:26:11Z</time>
      </trkpt>
      <trkpt lat="44.10747" lon="5.69943">
        <ele>940.091</ele>
        <time>2020-09-02T11:26:12Z</time>
      </trkpt>
      <trkpt lat="44.10737" lon="5.69946">
        <ele>938.681</ele>
        <time>2020-09-02T11:26:13Z</time>
      </trkpt>
      <trkpt lat="44.10729" lon="5.69951">
        <ele>937.619</ele>
        <time>2020-09-02T11:26:14Z</time>
      </trkpt>
      <trkpt lat="44.10719" lon="5.69956">
        <ele>936.108</ele>
        <time>2020-09-02T11:26:15Z</time>
      </trkpt>
      <trkpt lat="44.1071" lon="5.69961">
        <ele>935.747</ele>
        <time>2020-09-02T11:26:16Z</time>
      </trkpt>
      <trkpt lat="44.10702" lon="5.69965">
        <ele>934.456</ele>
        <time>2020-09-02T11:26:17Z</time>
      </trkpt>
      <trkpt lat="44.10694" lon="5.69965">
        <ele>932.296</ele>
        <time>2020-09-02T11:26:18Z</time>
      </trkpt>
      <trkpt lat="44.10686" lon="5.69968">
        <ele>931.553</ele>
        <time>2020-09-02T11:26:19Z</time>
      </trkpt>
      <trkpt lat="44.10678" lon="5.69971">
        <ele>930.594</ele>
        <time>2020-09-02T11:26:20Z</time>
      </trkpt>
      <trkpt lat="44.1067" lon="5.69975">
        <ele>930.842</ele>
        <time>2020-09-02T11:26:21Z</time>
      </trkpt>
      <trkpt lat="44.10664" lon="5.69978">
        <ele>931.078</ele>
        <time>2020-09-02T11:26:22Z</time>
      </trkpt>
      <trkpt lat="44.10658" lon="5.69982">
        <ele>931.481</ele>
        <time>2020-09-02T11:26:23Z</time>
      </trkpt>
      <trkpt lat="44.10651" lon="5.69988">
        <ele>929.365</ele>
        <time>2020-09-02T11:26:25Z</time>
      </trkpt>
      <trkpt lat="44.10648" lon="5.69994">
        <ele>928.868</ele>
        <time>2020-09-02T11:26:26Z</time>
      </trkpt>
      <trkpt lat="44.10644" lon="5.69999">
        <ele>928.614</ele>
        <time>2020-09-02T11:26:27Z</time>
      </trkpt>
      <trkpt lat="44.1064" lon="5.70003">
        <ele>928.508</ele>
        <time>2020-09-02T11:26:28Z</time>
      </trkpt>
      <trkpt lat="44.10636" lon="5.70006">
        <ele>927.964</ele>
        <time>2020-09-02T11:26:29Z</time>
      </trkpt>
      <trkpt lat="44.10631" lon="5.70009">
        <ele>928.053</ele>
        <time>2020-09-02T11:26:31Z</time>
      </trkpt>
      <trkpt lat="44.10624" lon="5.70007">
        <ele>926.693</ele>
        <time>2020-09-02T11:26:33Z</time>
      </trkpt>
      <trkpt lat="44.10619" lon="5.70004">
        <ele>925.33</ele>
        <time>2020-09-02T11:26:34Z</time>
      </trkpt>
      <trkpt lat="44.10613" lon="5.70002">
        <ele>925.331</ele>
        <time>2020-09-02T11:26:35Z</time>
      </trkpt>
      <trkpt lat="44.10606" lon="5.69998">
        <ele>925.529</ele>
        <time>2020-09-02T11:26:36Z</time>
      </trkpt>
      <trkpt lat="44.10599" lon="5.69999">
        <ele>923.945</ele>
        <time>2020-09-02T11:26:37Z</time>
      </trkpt>
      <trkpt lat="44.10591" lon="5.69998">
        <ele>923.878</ele>
        <time>2020-09-02T11:26:38Z</time>
      </trkpt>
      <trkpt lat="44.10582" lon="5.69999">
        <ele>923.875</ele>
        <time>2020-09-02T11:26:39Z</time>
      </trkpt>
      <trkpt lat="44.10573" lon="5.7">
        <ele>923.328</ele>
        <time>2020-09-02T11:26:40Z</time>
      </trkpt>
      <trkpt lat="44.10563" lon="5.70002">
        <ele>922.52</ele>
        <time>2020-09-02T11:26:41Z</time>
      </trkpt>
      <trkpt lat="44.10556" lon="5.70003">
        <ele>921.608</ele>
        <time>2020-09-02T11:26:42Z</time>
      </trkpt>
      <trkpt lat="44.10546" lon="5.70003">
        <ele>922.695</ele>
        <time>2020-09-02T11:26:43Z</time>
      </trkpt>
      <trkpt lat="44.10538" lon="5.70006">
        <ele>921.454</ele>
        <time>2020-09-02T11:26:44Z</time>
      </trkpt>
      <trkpt lat="44.10529" lon="5.70009">
        <ele>920.454</ele>
        <time>2020-09-02T11:26:45Z</time>
      </trkpt>
      <trkpt lat="44.10519" lon="5.70016">
        <ele>919.721</ele>
        <time>2020-09-02T11:26:46Z</time>
      </trkpt>
      <trkpt lat="44.1051" lon="5.70023">
        <ele>920.382</ele>
        <time>2020-09-02T11:26:47Z</time>
      </trkpt>
      <trkpt lat="44.105" lon="5.70029">
        <ele>919.22</ele>
        <time>2020-09-02T11:26:48Z</time>
      </trkpt>
      <trkpt lat="44.10491" lon="5.70034">
        <ele>918.526</ele>
        <time>2020-09-02T11:26:49Z</time>
      </trkpt>
      <trkpt lat="44.10482" lon="5.70039">
        <ele>918.469</ele>
        <time>2020-09-02T11:26:50Z</time>
      </trkpt>
      <trkpt lat="44.10472" lon="5.70046">
        <ele>918.944</ele>
        <time>2020-09-02T11:26:51Z</time>
      </trkpt>
      <trkpt lat="44.10464" lon="5.70052">
        <ele>918.805</ele>
        <time>2020-09-02T11:26:52Z</time>
      </trkpt>
      <trkpt lat="44.10456" lon="5.70058">
        <ele>918.115</ele>
        <time>2020-09-02T11:26:53Z</time>
      </trkpt>
      <trkpt lat="44.10447" lon="5.70061">
        <ele>917.008</ele>
        <time>2020-09-02T11:26:54Z</time>
      </trkpt>
      <trkpt lat="44.10439" lon="5.70067">
        <ele>916.772</ele>
        <time>2020-09-02T11:26:55Z</time>
      </trkpt>
      <trkpt lat="44.10433" lon="5.70069">
        <ele>918.261</ele>
        <time>2020-09-02T11:26:56Z</time>
      </trkpt>
      <trkpt lat="44.10429" lon="5.70071">
        <ele>917.771</ele>
        <time>2020-09-02T11:26:57Z</time>
      </trkpt>
      <trkpt lat="44.10423" lon="5.70074">
        <ele>917.918</ele>
        <time>2020-09-02T11:26:59Z</time>
      </trkpt>
      <trkpt lat="44.10418" lon="5.70079">
        <ele>916.939</ele>
        <time>2020-09-02T11:27:01Z</time>
      </trkpt>
      <trkpt lat="44.10413" lon="5.70083">
        <ele>915.747</ele>
        <time>2020-09-02T11:27:03Z</time>
      </trkpt>
      <trkpt lat="44.10407" lon="5.7009">
        <ele>920.953</ele>
        <time>2020-09-02T11:27:38Z</time>
      </trkpt>
      <trkpt lat="44.10404" lon="5.70096">
        <ele>920.276</ele>
        <time>2020-09-02T11:27:39Z</time>
      </trkpt>
      <trkpt lat="44.10399" lon="5.70104">
        <ele>920.821</ele>
        <time>2020-09-02T11:27:40Z</time>
      </trkpt>
      <trkpt lat="44.10393" lon="5.70113">
        <ele>920.841</ele>
        <time>2020-09-02T11:27:41Z</time>
      </trkpt>
      <trkpt lat="44.10388" lon="5.70122">
        <ele>919.805</ele>
        <time>2020-09-02T11:27:42Z</time>
      </trkpt>
      <trkpt lat="44.10383" lon="5.70132">
        <ele>918.108</ele>
        <time>2020-09-02T11:27:43Z</time>
      </trkpt>
      <trkpt lat="44.10377" lon="5.70142">
        <ele>917.29</ele>
        <time>2020-09-02T11:27:44Z</time>
      </trkpt>
      <trkpt lat="44.10371" lon="5.7015">
        <ele>916.439</ele>
        <time>2020-09-02T11:27:45Z</time>
      </trkpt>
      <trkpt lat="44.10364" lon="5.70159">
        <ele>915.489</ele>
        <time>2020-09-02T11:27:46Z</time>
      </trkpt>
      <trkpt lat="44.10358" lon="5.70166">
        <ele>915.166</ele>
        <time>2020-09-02T11:27:47Z</time>
      </trkpt>
      <trkpt lat="44.10352" lon="5.70172">
        <ele>915.027</ele>
        <time>2020-09-02T11:27:48Z</time>
      </trkpt>
      <trkpt lat="44.10346" lon="5.70177">
        <ele>914.545</ele>
        <time>2020-09-02T11:27:49Z</time>
      </trkpt>
      <trkpt lat="44.10341" lon="5.70181">
        <ele>914.391</ele>
        <time>2020-09-02T11:27:50Z</time>
      </trkpt>
      <trkpt lat="44.10335" lon="5.70189">
        <ele>914.644</ele>
        <time>2020-09-02T11:27:52Z</time>
      </trkpt>
      <trkpt lat="44.1033" lon="5.70195">
        <ele>913.257</ele>
        <time>2020-09-02T11:27:54Z</time>
      </trkpt>
      <trkpt lat="44.10327" lon="5.70201">
        <ele>911.3</ele>
        <time>2020-09-02T11:27:58Z</time>
      </trkpt>
      <trkpt lat="44.10325" lon="5.70207">
        <ele>913.22</ele>
        <time>2020-09-02T11:28:16Z</time>
      </trkpt>
      <trkpt lat="44.10322" lon="5.70212">
        <ele>912.608</ele>
        <time>2020-09-02T11:28:19Z</time>
      </trkpt>
      <trkpt lat="44.10317" lon="5.70215">
        <ele>912.123</ele>
        <time>2020-09-02T11:28:21Z</time>
      </trkpt>
      <trkpt lat="44.10313" lon="5.70219">
        <ele>912.022</ele>
        <time>2020-09-02T11:28:23Z</time>
      </trkpt>
      <trkpt lat="44.10309" lon="5.70223">
        <ele>911.362</ele>
        <time>2020-09-02T11:28:26Z</time>
      </trkpt>
      <trkpt lat="44.10305" lon="5.70228">
        <ele>910.729</ele>
        <time>2020-09-02T11:28:29Z</time>
      </trkpt>
      <trkpt lat="44.10301" lon="5.70233">
        <ele>910.66</ele>
        <time>2020-09-02T11:28:31Z</time>
      </trkpt>
      <trkpt lat="44.10295" lon="5.70239">
        <ele>910.278</ele>
        <time>2020-09-02T11:28:33Z</time>
      </trkpt>
      <trkpt lat="44.10291" lon="5.70243">
        <ele>910.314</ele>
        <time>2020-09-02T11:28:34Z</time>
      </trkpt>
      <trkpt lat="44.10287" lon="5.70247">
        <ele>909.737</ele>
        <time>2020-09-02T11:28:35Z</time>
      </trkpt>
      <trkpt lat="44.10282" lon="5.70252">
        <ele>909.252</ele>
        <time>2020-09-02T11:28:36Z</time>
      </trkpt>
      <trkpt lat="44.10277" lon="5.70257">
        <ele>908.253</ele>
        <time>2020-09-02T11:28:37Z</time>
      </trkpt>
      <trkpt lat="44.10272" lon="5.70263">
        <ele>908.508</ele>
        <time>2020-09-02T11:28:38Z</time>
      </trkpt>
      <trkpt lat="44.10267" lon="5.70267">
        <ele>908.008</ele>
        <time>2020-09-02T11:28:39Z</time>
      </trkpt>
      <trkpt lat="44.10261" lon="5.70271">
        <ele>907.153</ele>
        <time>2020-09-02T11:28:40Z</time>
      </trkpt>
      <trkpt lat="44.10255" lon="5.70276">
        <ele>906.182</ele>
        <time>2020-09-02T11:28:41Z</time>
      </trkpt>
      <trkpt lat="44.10249" lon="5.70281">
        <ele>906.232</ele>
        <time>2020-09-02T11:28:42Z</time>
      </trkpt>
      <trkpt lat="44.10243" lon="5.70284">
        <ele>906.559</ele>
        <time>2020-09-02T11:28:43Z</time>
      </trkpt>
      <trkpt lat="44.10237" lon="5.70287">
        <ele>906.48</ele>
        <time>2020-09-02T11:28:44Z</time>
      </trkpt>
      <trkpt lat="44.1023" lon="5.70287">
        <ele>906.418</ele>
        <time>2020-09-02T11:28:45Z</time>
      </trkpt>
      <trkpt lat="44.10225" lon="5.70288">
        <ele>905.434</ele>
        <time>2020-09-02T11:28:46Z</time>
      </trkpt>
      <trkpt lat="44.10218" lon="5.70288">
        <ele>905.567</ele>
        <time>2020-09-02T11:28:47Z</time>
      </trkpt>
      <trkpt lat="44.10212" lon="5.70288">
        <ele>905.849</ele>
        <time>2020-09-02T11:28:48Z</time>
      </trkpt>
      <trkpt lat="44.10206" lon="5.70288">
        <ele>906.102</ele>
        <time>2020-09-02T11:28:49Z</time>
      </trkpt>
      <trkpt lat="44.102" lon="5.70289">
        <ele>905.722</ele>
        <time>2020-09-02T11:28:50Z</time>
      </trkpt>
      <trkpt lat="44.10194" lon="5.7029">
        <ele>904.708</ele>
        <time>2020-09-02T11:28:51Z</time>
      </trkpt>
      <trkpt lat="44.10189" lon="5.70291">
        <ele>904.742</ele>
        <time>2020-09-02T11:28:52Z</time>
      </trkpt>
      <trkpt lat="44.10184" lon="5.70293">
        <ele>904.371</ele>
        <time>2020-09-02T11:28:53Z</time>
      </trkpt>
      <trkpt lat="44.10179" lon="5.70293">
        <ele>904.381</ele>
        <time>2020-09-02T11:28:54Z</time>
      </trkpt>
      <trkpt lat="44.10172" lon="5.70292">
        <ele>905.288</ele>
        <time>2020-09-02T11:28:56Z</time>
      </trkpt>
      <trkpt lat="44.10179" lon="5.70291">
        <ele>902.569</ele>
        <time>2020-09-02T11:29:03Z</time>
      </trkpt>
      <trkpt lat="44.10184" lon="5.70289">
        <ele>902.887</ele>
        <time>2020-09-02T11:29:04Z</time>
      </trkpt>
      <trkpt lat="44.10188" lon="5.7029">
        <ele>902.263</ele>
        <time>2020-09-02T11:29:05Z</time>
      </trkpt>
      <trkpt lat="44.10194" lon="5.70292">
        <ele>902.376</ele>
        <time>2020-09-02T11:29:06Z</time>
      </trkpt>
      <trkpt lat="44.10199" lon="5.70295">
        <ele>899.176</ele>
        <time>2020-09-02T11:29:07Z</time>
      </trkpt>
      <trkpt lat="44.10196" lon="5.70305">
        <ele>898.89</ele>
        <time>2020-09-02T11:29:09Z</time>
      </trkpt>
      <trkpt lat="44.1019" lon="5.70311">
        <ele>899.019</ele>
        <time>2020-09-02T11:29:10Z</time>
      </trkpt>
      <trkpt lat="44.10183" lon="5.70317">
        <ele>898.708</ele>
        <time>2020-09-02T11:29:11Z</time>
      </trkpt>
      <trkpt lat="44.10175" lon="5.70324">
        <ele>899.475</ele>
        <time>2020-09-02T11:29:12Z</time>
      </trkpt>
      <trkpt lat="44.10165" lon="5.7033">
        <ele>899.164</ele>
        <time>2020-09-02T11:29:13Z</time>
      </trkpt>
      <trkpt lat="44.10154" lon="5.70335">
        <ele>899.174</ele>
        <time>2020-09-02T11:29:14Z</time>
      </trkpt>
      <trkpt lat="44.10143" lon="5.7034">
        <ele>898.441</ele>
        <time>2020-09-02T11:29:15Z</time>
      </trkpt>
      <trkpt lat="44.10133" lon="5.70345">
        <ele>897.582</ele>
        <time>2020-09-02T11:29:16Z</time>
      </trkpt>
      <trkpt lat="44.10121" lon="5.70347">
        <ele>897.23</ele>
        <time>2020-09-02T11:29:17Z</time>
      </trkpt>
      <trkpt lat="44.10111" lon="5.70351">
        <ele>895.996</ele>
        <time>2020-09-02T11:29:18Z</time>
      </trkpt>
      <trkpt lat="44.10101" lon="5.70354">
        <ele>895.449</ele>
        <time>2020-09-02T11:29:19Z</time>
      </trkpt>
      <trkpt lat="44.10091" lon="5.70355">
        <ele>893.979</ele>
        <time>2020-09-02T11:29:20Z</time>
      </trkpt>
      <trkpt lat="44.10082" lon="5.70355">
        <ele>892.805</ele>
        <time>2020-09-02T11:29:21Z</time>
      </trkpt>
      <trkpt lat="44.10072" lon="5.70356">
        <ele>892.225</ele>
        <time>2020-09-02T11:29:22Z</time>
      </trkpt>
      <trkpt lat="44.10062" lon="5.70356">
        <ele>891.808</ele>
        <time>2020-09-02T11:29:23Z</time>
      </trkpt>
      <trkpt lat="44.10052" lon="5.70354">
        <ele>891.645</ele>
        <time>2020-09-02T11:29:24Z</time>
      </trkpt>
      <trkpt lat="44.10042" lon="5.70349">
        <ele>891.164</ele>
        <time>2020-09-02T11:29:25Z</time>
      </trkpt>
      <trkpt lat="44.10032" lon="5.70343">
        <ele>890.974</ele>
        <time>2020-09-02T11:29:26Z</time>
      </trkpt>
      <trkpt lat="44.10021" lon="5.70335">
        <ele>890.181</ele>
        <time>2020-09-02T11:29:27Z</time>
      </trkpt>
      <trkpt lat="44.10009" lon="5.70327">
        <ele>890.432</ele>
        <time>2020-09-02T11:29:28Z</time>
      </trkpt>
      <trkpt lat="44.09998" lon="5.70319">
        <ele>890.56</ele>
        <time>2020-09-02T11:29:29Z</time>
      </trkpt>
      <trkpt lat="44.09986" lon="5.70311">
        <ele>890.086</ele>
        <time>2020-09-02T11:29:30Z</time>
      </trkpt>
      <trkpt lat="44.09975" lon="5.70303">
        <ele>890.159</ele>
        <time>2020-09-02T11:29:31Z</time>
      </trkpt>
      <trkpt lat="44.09965" lon="5.70297">
        <ele>889.529</ele>
        <time>2020-09-02T11:29:32Z</time>
      </trkpt>
      <trkpt lat="44.09954" lon="5.70292">
        <ele>888</ele>
        <time>2020-09-02T11:29:33Z</time>
      </trkpt>
      <trkpt lat="44.09941" lon="5.70291">
        <ele>888.12</ele>
        <time>2020-09-02T11:29:34Z</time>
      </trkpt>
      <trkpt lat="44.09928" lon="5.70292">
        <ele>888.008</ele>
        <time>2020-09-02T11:29:35Z</time>
      </trkpt>
      <trkpt lat="44.09915" lon="5.70294">
        <ele>888.93</ele>
        <time>2020-09-02T11:29:36Z</time>
      </trkpt>
      <trkpt lat="44.09901" lon="5.70297">
        <ele>889.749</ele>
        <time>2020-09-02T11:29:37Z</time>
      </trkpt>
      <trkpt lat="44.09887" lon="5.70299">
        <ele>889.049</ele>
        <time>2020-09-02T11:29:38Z</time>
      </trkpt>
      <trkpt lat="44.09872" lon="5.70303">
        <ele>889.196</ele>
        <time>2020-09-02T11:29:39Z</time>
      </trkpt>
      <trkpt lat="44.09858" lon="5.70306">
        <ele>889.647</ele>
        <time>2020-09-02T11:29:40Z</time>
      </trkpt>
      <trkpt lat="44.09844" lon="5.70309">
        <ele>889.575</ele>
        <time>2020-09-02T11:29:41Z</time>
      </trkpt>
      <trkpt lat="44.09829" lon="5.70309">
        <ele>890.571</ele>
        <time>2020-09-02T11:29:42Z</time>
      </trkpt>
      <trkpt lat="44.09813" lon="5.70307">
        <ele>892.554</ele>
        <time>2020-09-02T11:29:43Z</time>
      </trkpt>
      <trkpt lat="44.09797" lon="5.70304">
        <ele>892.633</ele>
        <time>2020-09-02T11:29:44Z</time>
      </trkpt>
      <trkpt lat="44.0978" lon="5.70301">
        <ele>893.123</ele>
        <time>2020-09-02T11:29:45Z</time>
      </trkpt>
      <trkpt lat="44.09764" lon="5.70297">
        <ele>893.715</ele>
        <time>2020-09-02T11:29:46Z</time>
      </trkpt>
      <trkpt lat="44.09748" lon="5.70292">
        <ele>893.808</ele>
        <time>2020-09-02T11:29:47Z</time>
      </trkpt>
      <trkpt lat="44.09733" lon="5.70286">
        <ele>892.221</ele>
        <time>2020-09-02T11:29:48Z</time>
      </trkpt>
      <trkpt lat="44.09716" lon="5.70278">
        <ele>891.14</ele>
        <time>2020-09-02T11:29:49Z</time>
      </trkpt>
      <trkpt lat="44.09699" lon="5.70269">
        <ele>891.43</ele>
        <time>2020-09-02T11:29:50Z</time>
      </trkpt>
      <trkpt lat="44.09683" lon="5.70259">
        <ele>890.667</ele>
        <time>2020-09-02T11:29:51Z</time>
      </trkpt>
      <trkpt lat="44.09668" lon="5.70249">
        <ele>890.118</ele>
        <time>2020-09-02T11:29:52Z</time>
      </trkpt>
      <trkpt lat="44.09654" lon="5.70236">
        <ele>888.666</ele>
        <time>2020-09-02T11:29:53Z</time>
      </trkpt>
      <trkpt lat="44.09639" lon="5.70225">
        <ele>888.432</ele>
        <time>2020-09-02T11:29:54Z</time>
      </trkpt>
      <trkpt lat="44.09624" lon="5.70216">
        <ele>887.615</ele>
        <time>2020-09-02T11:29:55Z</time>
      </trkpt>
      <trkpt lat="44.09609" lon="5.70207">
        <ele>887.164</ele>
        <time>2020-09-02T11:29:56Z</time>
      </trkpt>
      <trkpt lat="44.09594" lon="5.70199">
        <ele>887.006</ele>
        <time>2020-09-02T11:29:57Z</time>
      </trkpt>
      <trkpt lat="44.09579" lon="5.70191">
        <ele>886.616</ele>
        <time>2020-09-02T11:29:58Z</time>
      </trkpt>
      <trkpt lat="44.09564" lon="5.70181">
        <ele>886.408</ele>
        <time>2020-09-02T11:29:59Z</time>
      </trkpt>
      <trkpt lat="44.09551" lon="5.70174">
        <ele>886.174</ele>
        <time>2020-09-02T11:30:00Z</time>
      </trkpt>
      <trkpt lat="44.09537" lon="5.70168">
        <ele>886.013</ele>
        <time>2020-09-02T11:30:01Z</time>
      </trkpt>
      <trkpt lat="44.09523" lon="5.70163">
        <ele>886.683</ele>
        <time>2020-09-02T11:30:02Z</time>
      </trkpt>
      <trkpt lat="44.09509" lon="5.70159">
        <ele>887.25</ele>
        <time>2020-09-02T11:30:03Z</time>
      </trkpt>
      <trkpt lat="44.09496" lon="5.70154">
        <ele>887.791</ele>
        <time>2020-09-02T11:30:04Z</time>
      </trkpt>
      <trkpt lat="44.09482" lon="5.70149">
        <ele>888.039</ele>
        <time>2020-09-02T11:30:05Z</time>
      </trkpt>
      <trkpt lat="44.09468" lon="5.70143">
        <ele>888.325</ele>
        <time>2020-09-02T11:30:06Z</time>
      </trkpt>
      <trkpt lat="44.09454" lon="5.70136">
        <ele>889.278</ele>
        <time>2020-09-02T11:30:07Z</time>
      </trkpt>
      <trkpt lat="44.09442" lon="5.70129">
        <ele>888.947</ele>
        <time>2020-09-02T11:30:08Z</time>
      </trkpt>
      <trkpt lat="44.09429" lon="5.70122">
        <ele>889.829</ele>
        <time>2020-09-02T11:30:09Z</time>
      </trkpt>
      <trkpt lat="44.09416" lon="5.70116">
        <ele>890.721</ele>
        <time>2020-09-02T11:30:10Z</time>
      </trkpt>
      <trkpt lat="44.09401" lon="5.70112">
        <ele>891.308</ele>
        <time>2020-09-02T11:30:11Z</time>
      </trkpt>
      <trkpt lat="44.09387" lon="5.70108">
        <ele>892.182</ele>
        <time>2020-09-02T11:30:12Z</time>
      </trkpt>
      <trkpt lat="44.09373" lon="5.70105">
        <ele>893.131</ele>
        <time>2020-09-02T11:30:13Z</time>
      </trkpt>
      <trkpt lat="44.09358" lon="5.70103">
        <ele>893.741</ele>
        <time>2020-09-02T11:30:14Z</time>
      </trkpt>
      <trkpt lat="44.09343" lon="5.70102">
        <ele>894.548</ele>
        <time>2020-09-02T11:30:15Z</time>
      </trkpt>
      <trkpt lat="44.09328" lon="5.70101">
        <ele>894.579</ele>
        <time>2020-09-02T11:30:16Z</time>
      </trkpt>
      <trkpt lat="44.09312" lon="5.70101">
        <ele>895.167</ele>
        <time>2020-09-02T11:30:17Z</time>
      </trkpt>
      <trkpt lat="44.09295" lon="5.70102">
        <ele>895.953</ele>
        <time>2020-09-02T11:30:18Z</time>
      </trkpt>
      <trkpt lat="44.09279" lon="5.70102">
        <ele>896.366</ele>
        <time>2020-09-02T11:30:19Z</time>
      </trkpt>
      <trkpt lat="44.09265" lon="5.70102">
        <ele>896.346</ele>
        <time>2020-09-02T11:30:20Z</time>
      </trkpt>
      <trkpt lat="44.09251" lon="5.70101">
        <ele>896.788</ele>
        <time>2020-09-02T11:30:21Z</time>
      </trkpt>
      <trkpt lat="44.09239" lon="5.701">
        <ele>897.016</ele>
        <time>2020-09-02T11:30:22Z</time>
      </trkpt>
      <trkpt lat="44.09229" lon="5.70099">
        <ele>897.308</ele>
        <time>2020-09-02T11:30:23Z</time>
      </trkpt>
      <trkpt lat="44.09221" lon="5.70099">
        <ele>897.112</ele>
        <time>2020-09-02T11:30:24Z</time>
      </trkpt>
      <trkpt lat="44.09215" lon="5.70099">
        <ele>896.911</ele>
        <time>2020-09-02T11:30:25Z</time>
      </trkpt>
      <trkpt lat="44.09209" lon="5.701">
        <ele>896.871</ele>
        <time>2020-09-02T11:30:26Z</time>
      </trkpt>
      <trkpt lat="44.09203" lon="5.701">
        <ele>896.698</ele>
        <time>2020-09-02T11:30:27Z</time>
      </trkpt>
      <trkpt lat="44.09198" lon="5.70101">
        <ele>896.379</ele>
        <time>2020-09-02T11:30:29Z</time>
      </trkpt>
      <trkpt lat="44.09193" lon="5.70097">
        <ele>896.277</ele>
        <time>2020-09-02T11:31:40Z</time>
      </trkpt>
      <trkpt lat="44.09181" lon="5.70098">
        <ele>895.933</ele>
        <time>2020-09-02T11:31:42Z</time>
      </trkpt>
      <trkpt lat="44.09172" lon="5.70098">
        <ele>895.616</ele>
        <time>2020-09-02T11:31:43Z</time>
      </trkpt>
      <trkpt lat="44.09162" lon="5.70099">
        <ele>895.145</ele>
        <time>2020-09-02T11:31:44Z</time>
      </trkpt>
      <trkpt lat="44.09151" lon="5.70099">
        <ele>895.247</ele>
        <time>2020-09-02T11:31:45Z</time>
      </trkpt>
      <trkpt lat="44.09139" lon="5.701">
        <ele>895.311</ele>
        <time>2020-09-02T11:31:46Z</time>
      </trkpt>
      <trkpt lat="44.09126" lon="5.701">
        <ele>895.908</ele>
        <time>2020-09-02T11:31:47Z</time>
      </trkpt>
      <trkpt lat="44.09112" lon="5.70099">
        <ele>896.252</ele>
        <time>2020-09-02T11:31:48Z</time>
      </trkpt>
      <trkpt lat="44.091" lon="5.70098">
        <ele>897.161</ele>
        <time>2020-09-02T11:31:49Z</time>
      </trkpt>
      <trkpt lat="44.09087" lon="5.70098">
        <ele>898.151</ele>
        <time>2020-09-02T11:31:50Z</time>
      </trkpt>
      <trkpt lat="44.09078" lon="5.70098">
        <ele>898.588</ele>
        <time>2020-09-02T11:31:51Z</time>
      </trkpt>
      <trkpt lat="44.09071" lon="5.70099">
        <ele>899.489</ele>
        <time>2020-09-02T11:31:52Z</time>
      </trkpt>
      <trkpt lat="44.09065" lon="5.70099">
        <ele>898.957</ele>
        <time>2020-09-02T11:31:54Z</time>
      </trkpt>
      <trkpt lat="44.0906" lon="5.70103">
        <ele>899.443</ele>
        <time>2020-09-02T11:31:56Z</time>
      </trkpt>
      <trkpt lat="44.09061" lon="5.70114">
        <ele>899.416</ele>
        <time>2020-09-02T11:31:58Z</time>
      </trkpt>
      <trkpt lat="44.09063" lon="5.7012">
        <ele>899.933</ele>
        <time>2020-09-02T11:31:59Z</time>
      </trkpt>
      <trkpt lat="44.09065" lon="5.70127">
        <ele>900.623</ele>
        <time>2020-09-02T11:32:00Z</time>
      </trkpt>
      <trkpt lat="44.09067" lon="5.70135">
        <ele>901.815</ele>
        <time>2020-09-02T11:32:01Z</time>
      </trkpt>
      <trkpt lat="44.09068" lon="5.70144">
        <ele>902.508</ele>
        <time>2020-09-02T11:32:02Z</time>
      </trkpt>
      <trkpt lat="44.0907" lon="5.70153">
        <ele>903.251</ele>
        <time>2020-09-02T11:32:03Z</time>
      </trkpt>
      <trkpt lat="44.09072" lon="5.70163">
        <ele>904.18</ele>
        <time>2020-09-02T11:32:04Z</time>
      </trkpt>
      <trkpt lat="44.09074" lon="5.70173">
        <ele>905.48</ele>
        <time>2020-09-02T11:32:05Z</time>
      </trkpt>
      <trkpt lat="44.09077" lon="5.70183">
        <ele>906.837</ele>
        <time>2020-09-02T11:32:06Z</time>
      </trkpt>
      <trkpt lat="44.0908" lon="5.70195">
        <ele>907.858</ele>
        <time>2020-09-02T11:32:07Z</time>
      </trkpt>
      <trkpt lat="44.09082" lon="5.70205">
        <ele>908.576</ele>
        <time>2020-09-02T11:32:08Z</time>
      </trkpt>
      <trkpt lat="44.09083" lon="5.70215">
        <ele>909.152</ele>
        <time>2020-09-02T11:32:09Z</time>
      </trkpt>
      <trkpt lat="44.09085" lon="5.70227">
        <ele>910.595</ele>
        <time>2020-09-02T11:32:10Z</time>
      </trkpt>
      <trkpt lat="44.09088" lon="5.70239">
        <ele>911.196</ele>
        <time>2020-09-02T11:32:11Z</time>
      </trkpt>
      <trkpt lat="44.09089" lon="5.70251">
        <ele>912.531</ele>
        <time>2020-09-02T11:32:12Z</time>
      </trkpt>
      <trkpt lat="44.09092" lon="5.70262">
        <ele>913.924</ele>
        <time>2020-09-02T11:32:13Z</time>
      </trkpt>
      <trkpt lat="44.09095" lon="5.70273">
        <ele>915.408</ele>
        <time>2020-09-02T11:32:14Z</time>
      </trkpt>
      <trkpt lat="44.09097" lon="5.70284">
        <ele>916.677</ele>
        <time>2020-09-02T11:32:15Z</time>
      </trkpt>
      <trkpt lat="44.091" lon="5.70294">
        <ele>917.896</ele>
        <time>2020-09-02T11:32:16Z</time>
      </trkpt>
      <trkpt lat="44.09101" lon="5.70303">
        <ele>918.916</ele>
        <time>2020-09-02T11:32:17Z</time>
      </trkpt>
      <trkpt lat="44.09103" lon="5.70309">
        <ele>920.043</ele>
        <time>2020-09-02T11:32:18Z</time>
      </trkpt>
      <trkpt lat="44.09106" lon="5.70316">
        <ele>921.194</ele>
        <time>2020-09-02T11:32:19Z</time>
      </trkpt>
      <trkpt lat="44.09107" lon="5.70324">
        <ele>921.582</ele>
        <time>2020-09-02T11:32:20Z</time>
      </trkpt>
      <trkpt lat="44.09109" lon="5.70332">
        <ele>921.648</ele>
        <time>2020-09-02T11:32:21Z</time>
      </trkpt>
      <trkpt lat="44.09111" lon="5.70342">
        <ele>922.191</ele>
        <time>2020-09-02T11:32:22Z</time>
      </trkpt>
      <trkpt lat="44.09112" lon="5.70355">
        <ele>921.096</ele>
        <time>2020-09-02T11:32:23Z</time>
      </trkpt>
      <trkpt lat="44.09112" lon="5.70367">
        <ele>920.831</ele>
        <time>2020-09-02T11:32:24Z</time>
      </trkpt>
      <trkpt lat="44.09111" lon="5.70378">
        <ele>920.524</ele>
        <time>2020-09-02T11:32:25Z</time>
      </trkpt>
      <trkpt lat="44.09109" lon="5.70388">
        <ele>921.008</ele>
        <time>2020-09-02T11:32:26Z</time>
      </trkpt>
      <trkpt lat="44.09105" lon="5.70398">
        <ele>920.737</ele>
        <time>2020-09-02T11:32:27Z</time>
      </trkpt>
      <trkpt lat="44.091" lon="5.70409">
        <ele>921.716</ele>
        <time>2020-09-02T11:32:28Z</time>
      </trkpt>
      <trkpt lat="44.09093" lon="5.70419">
        <ele>922.566</ele>
        <time>2020-09-02T11:32:29Z</time>
      </trkpt>
      <trkpt lat="44.09085" lon="5.70428">
        <ele>922.293</ele>
        <time>2020-09-02T11:32:30Z</time>
      </trkpt>
      <trkpt lat="44.09076" lon="5.70435">
        <ele>921.754</ele>
        <time>2020-09-02T11:32:31Z</time>
      </trkpt>
      <trkpt lat="44.09067" lon="5.70443">
        <ele>921.612</ele>
        <time>2020-09-02T11:32:32Z</time>
      </trkpt>
      <trkpt lat="44.09059" lon="5.70451">
        <ele>921.558</ele>
        <time>2020-09-02T11:32:33Z</time>
      </trkpt>
      <trkpt lat="44.09054" lon="5.7046">
        <ele>921.211</ele>
        <time>2020-09-02T11:32:34Z</time>
      </trkpt>
      <trkpt lat="44.0905" lon="5.70471">
        <ele>921.384</ele>
        <time>2020-09-02T11:32:35Z</time>
      </trkpt>
      <trkpt lat="44.09047" lon="5.70484">
        <ele>921.007</ele>
        <time>2020-09-02T11:32:36Z</time>
      </trkpt>
      <trkpt lat="44.09043" lon="5.70497">
        <ele>921.217</ele>
        <time>2020-09-02T11:32:37Z</time>
      </trkpt>
      <trkpt lat="44.09038" lon="5.70512">
        <ele>922.108</ele>
        <time>2020-09-02T11:32:38Z</time>
      </trkpt>
      <trkpt lat="44.09032" lon="5.70527">
        <ele>922.386</ele>
        <time>2020-09-02T11:32:39Z</time>
      </trkpt>
      <trkpt lat="44.09024" lon="5.70539">
        <ele>923.355</ele>
        <time>2020-09-02T11:32:40Z</time>
      </trkpt>
      <trkpt lat="44.09014" lon="5.70551">
        <ele>924.375</ele>
        <time>2020-09-02T11:32:41Z</time>
      </trkpt>
      <trkpt lat="44.09004" lon="5.70563">
        <ele>925.352</ele>
        <time>2020-09-02T11:32:42Z</time>
      </trkpt>
      <trkpt lat="44.08994" lon="5.70575">
        <ele>925.893</ele>
        <time>2020-09-02T11:32:43Z</time>
      </trkpt>
      <trkpt lat="44.08985" lon="5.70587">
        <ele>927.151</ele>
        <time>2020-09-02T11:32:44Z</time>
      </trkpt>
      <trkpt lat="44.08974" lon="5.70599">
        <ele>928.377</ele>
        <time>2020-09-02T11:32:45Z</time>
      </trkpt>
      <trkpt lat="44.08963" lon="5.7061">
        <ele>929.83</ele>
        <time>2020-09-02T11:32:46Z</time>
      </trkpt>
      <trkpt lat="44.08953" lon="5.70622">
        <ele>930.878</ele>
        <time>2020-09-02T11:32:47Z</time>
      </trkpt>
      <trkpt lat="44.08944" lon="5.70635">
        <ele>932.833</ele>
        <time>2020-09-02T11:32:48Z</time>
      </trkpt>
      <trkpt lat="44.08933" lon="5.70647">
        <ele>934.526</ele>
        <time>2020-09-02T11:32:49Z</time>
      </trkpt>
      <trkpt lat="44.08923" lon="5.70659">
        <ele>937.008</ele>
        <time>2020-09-02T11:32:50Z</time>
      </trkpt>
      <trkpt lat="44.08912" lon="5.70671">
        <ele>937.685</ele>
        <time>2020-09-02T11:32:51Z</time>
      </trkpt>
      <trkpt lat="44.08902" lon="5.70683">
        <ele>938.514</ele>
        <time>2020-09-02T11:32:52Z</time>
      </trkpt>
      <trkpt lat="44.08893" lon="5.70695">
        <ele>938.964</ele>
        <time>2020-09-02T11:32:53Z</time>
      </trkpt>
      <trkpt lat="44.08883" lon="5.70708">
        <ele>940.761</ele>
        <time>2020-09-02T11:32:54Z</time>
      </trkpt>
      <trkpt lat="44.08874" lon="5.70718">
        <ele>940.792</ele>
        <time>2020-09-02T11:32:55Z</time>
      </trkpt>
      <trkpt lat="44.08863" lon="5.7073">
        <ele>941.24</ele>
        <time>2020-09-02T11:32:56Z</time>
      </trkpt>
      <trkpt lat="44.08852" lon="5.70742">
        <ele>942.226</ele>
        <time>2020-09-02T11:32:57Z</time>
      </trkpt>
      <trkpt lat="44.08842" lon="5.70755">
        <ele>942.989</ele>
        <time>2020-09-02T11:32:58Z</time>
      </trkpt>
      <trkpt lat="44.08832" lon="5.70767">
        <ele>944.266</ele>
        <time>2020-09-02T11:32:59Z</time>
      </trkpt>
      <trkpt lat="44.08822" lon="5.70779">
        <ele>945.429</ele>
        <time>2020-09-02T11:33:00Z</time>
      </trkpt>
      <trkpt lat="44.08814" lon="5.7079">
        <ele>947.021</ele>
        <time>2020-09-02T11:33:01Z</time>
      </trkpt>
      <trkpt lat="44.08805" lon="5.70797">
        <ele>948.708</ele>
        <time>2020-09-02T11:33:02Z</time>
      </trkpt>
      <trkpt lat="44.08797" lon="5.70804">
        <ele>949.574</ele>
        <time>2020-09-02T11:33:03Z</time>
      </trkpt>
      <trkpt lat="44.08788" lon="5.70811">
        <ele>950.043</ele>
        <time>2020-09-02T11:33:04Z</time>
      </trkpt>
      <trkpt lat="44.0878" lon="5.70816">
        <ele>950.343</ele>
        <time>2020-09-02T11:33:05Z</time>
      </trkpt>
      <trkpt lat="44.0877" lon="5.7082">
        <ele>950.13</ele>
        <time>2020-09-02T11:33:06Z</time>
      </trkpt>
      <trkpt lat="44.08759" lon="5.70823">
        <ele>950.191</ele>
        <time>2020-09-02T11:33:07Z</time>
      </trkpt>
      <trkpt lat="44.08747" lon="5.70825">
        <ele>950.099</ele>
        <time>2020-09-02T11:33:08Z</time>
      </trkpt>
      <trkpt lat="44.08736" lon="5.70828">
        <ele>948.965</ele>
        <time>2020-09-02T11:33:09Z</time>
      </trkpt>
      <trkpt lat="44.08722" lon="5.7083">
        <ele>949.498</ele>
        <time>2020-09-02T11:33:10Z</time>
      </trkpt>
      <trkpt lat="44.0871" lon="5.70832">
        <ele>949.816</ele>
        <time>2020-09-02T11:33:11Z</time>
      </trkpt>
      <trkpt lat="44.08697" lon="5.70835">
        <ele>950.276</ele>
        <time>2020-09-02T11:33:12Z</time>
      </trkpt>
      <trkpt lat="44.08684" lon="5.70838">
        <ele>950.413</ele>
        <time>2020-09-02T11:33:13Z</time>
      </trkpt>
      <trkpt lat="44.0867" lon="5.70841">
        <ele>950.708</ele>
        <time>2020-09-02T11:33:14Z</time>
      </trkpt>
      <trkpt lat="44.08656" lon="5.70845">
        <ele>951.369</ele>
        <time>2020-09-02T11:33:15Z</time>
      </trkpt>
      <trkpt lat="44.08642" lon="5.70849">
        <ele>951.218</ele>
        <time>2020-09-02T11:33:16Z</time>
      </trkpt>
      <trkpt lat="44.08627" lon="5.70852">
        <ele>951.078</ele>
        <time>2020-09-02T11:33:17Z</time>
      </trkpt>
      <trkpt lat="44.08613" lon="5.70856">
        <ele>951.155</ele>
        <time>2020-09-02T11:33:18Z</time>
      </trkpt>
      <trkpt lat="44.086" lon="5.70859">
        <ele>952.016</ele>
        <time>2020-09-02T11:33:19Z</time>
      </trkpt>
      <trkpt lat="44.08587" lon="5.70863">
        <ele>951.764</ele>
        <time>2020-09-02T11:33:20Z</time>
      </trkpt>
      <trkpt lat="44.08576" lon="5.7087">
        <ele>952.37</ele>
        <time>2020-09-02T11:33:21Z</time>
      </trkpt>
      <trkpt lat="44.08565" lon="5.70878">
        <ele>952.143</ele>
        <time>2020-09-02T11:33:22Z</time>
      </trkpt>
      <trkpt lat="44.08557" lon="5.70888">
        <ele>951.714</ele>
        <time>2020-09-02T11:33:23Z</time>
      </trkpt>
      <trkpt lat="44.0855" lon="5.70902">
        <ele>951.754</ele>
        <time>2020-09-02T11:33:24Z</time>
      </trkpt>
      <trkpt lat="44.08544" lon="5.70919">
        <ele>951.609</ele>
        <time>2020-09-02T11:33:25Z</time>
      </trkpt>
      <trkpt lat="44.08539" lon="5.70936">
        <ele>951.508</ele>
        <time>2020-09-02T11:33:26Z</time>
      </trkpt>
      <trkpt lat="44.08534" lon="5.70954">
        <ele>951.879</ele>
        <time>2020-09-02T11:33:27Z</time>
      </trkpt>
      <trkpt lat="44.08529" lon="5.70973">
        <ele>952.158</ele>
        <time>2020-09-02T11:33:28Z</time>
      </trkpt>
      <trkpt lat="44.08523" lon="5.70991">
        <ele>951.998</ele>
        <time>2020-09-02T11:33:29Z</time>
      </trkpt>
      <trkpt lat="44.08517" lon="5.7101">
        <ele>951.735</ele>
        <time>2020-09-02T11:33:30Z</time>
      </trkpt>
      <trkpt lat="44.08511" lon="5.71027">
        <ele>952.176</ele>
        <time>2020-09-02T11:33:31Z</time>
      </trkpt>
      <trkpt lat="44.08504" lon="5.71046">
        <ele>952.084</ele>
        <time>2020-09-02T11:33:32Z</time>
      </trkpt>
      <trkpt lat="44.085" lon="5.71063">
        <ele>952.26</ele>
        <time>2020-09-02T11:33:33Z</time>
      </trkpt>
      <trkpt lat="44.08494" lon="5.71081">
        <ele>952.993</ele>
        <time>2020-09-02T11:33:34Z</time>
      </trkpt>
      <trkpt lat="44.08488" lon="5.71099">
        <ele>953.678</ele>
        <time>2020-09-02T11:33:35Z</time>
      </trkpt>
      <trkpt lat="44.08482" lon="5.71118">
        <ele>953.533</ele>
        <time>2020-09-02T11:33:36Z</time>
      </trkpt>
      <trkpt lat="44.08474" lon="5.71135">
        <ele>954.126</ele>
        <time>2020-09-02T11:33:37Z</time>
      </trkpt>
      <trkpt lat="44.08465" lon="5.7115">
        <ele>954.608</ele>
        <time>2020-09-02T11:33:38Z</time>
      </trkpt>
      <trkpt lat="44.08456" lon="5.71163">
        <ele>954.835</ele>
        <time>2020-09-02T11:33:39Z</time>
      </trkpt>
      <trkpt lat="44.08445" lon="5.71178">
        <ele>954.184</ele>
        <time>2020-09-02T11:33:40Z</time>
      </trkpt>
      <trkpt lat="44.08434" lon="5.71192">
        <ele>954.474</ele>
        <time>2020-09-02T11:33:41Z</time>
      </trkpt>
      <trkpt lat="44.08423" lon="5.71205">
        <ele>954.391</ele>
        <time>2020-09-02T11:33:42Z</time>
      </trkpt>
      <trkpt lat="44.08412" lon="5.71218">
        <ele>953.742</ele>
        <time>2020-09-02T11:33:43Z</time>
      </trkpt>
      <trkpt lat="44.08402" lon="5.7123">
        <ele>954.02</ele>
        <time>2020-09-02T11:33:44Z</time>
      </trkpt>
      <trkpt lat="44.08396" lon="5.71244">
        <ele>954.116</ele>
        <time>2020-09-02T11:33:45Z</time>
      </trkpt>
      <trkpt lat="44.08391" lon="5.7126">
        <ele>953.449</ele>
        <time>2020-09-02T11:33:46Z</time>
      </trkpt>
      <trkpt lat="44.08387" lon="5.71276">
        <ele>953.598</ele>
        <time>2020-09-02T11:33:47Z</time>
      </trkpt>
      <trkpt lat="44.08384" lon="5.71289">
        <ele>952.815</ele>
        <time>2020-09-02T11:33:48Z</time>
      </trkpt>
      <trkpt lat="44.08379" lon="5.71303">
        <ele>953.026</ele>
        <time>2020-09-02T11:33:49Z</time>
      </trkpt>
      <trkpt lat="44.08375" lon="5.71318">
        <ele>952.308</ele>
        <time>2020-09-02T11:33:50Z</time>
      </trkpt>
      <trkpt lat="44.0837" lon="5.71331">
        <ele>951.697</ele>
        <time>2020-09-02T11:33:51Z</time>
      </trkpt>
      <trkpt lat="44.08367" lon="5.71343">
        <ele>951.026</ele>
        <time>2020-09-02T11:33:52Z</time>
      </trkpt>
      <trkpt lat="44.08364" lon="5.71356">
        <ele>950.276</ele>
        <time>2020-09-02T11:33:53Z</time>
      </trkpt>
      <trkpt lat="44.08361" lon="5.71369">
        <ele>950.053</ele>
        <time>2020-09-02T11:33:54Z</time>
      </trkpt>
      <trkpt lat="44.08359" lon="5.71382">
        <ele>950.814</ele>
        <time>2020-09-02T11:33:55Z</time>
      </trkpt>
      <trkpt lat="44.08359" lon="5.71397">
        <ele>951.852</ele>
        <time>2020-09-02T11:33:56Z</time>
      </trkpt>
      <trkpt lat="44.08359" lon="5.71411">
        <ele>952.928</ele>
        <time>2020-09-02T11:33:57Z</time>
      </trkpt>
      <trkpt lat="44.08358" lon="5.71426">
        <ele>953.841</ele>
        <time>2020-09-02T11:33:58Z</time>
      </trkpt>
      <trkpt lat="44.08359" lon="5.7144">
        <ele>955.425</ele>
        <time>2020-09-02T11:33:59Z</time>
      </trkpt>
      <trkpt lat="44.08361" lon="5.71453">
        <ele>956.726</ele>
        <time>2020-09-02T11:34:00Z</time>
      </trkpt>
      <trkpt lat="44.08365" lon="5.71465">
        <ele>957.808</ele>
        <time>2020-09-02T11:34:01Z</time>
      </trkpt>
      <trkpt lat="44.0837" lon="5.71475">
        <ele>959.208</ele>
        <time>2020-09-02T11:34:02Z</time>
      </trkpt>
      <trkpt lat="44.08375" lon="5.71484">
        <ele>960.38</ele>
        <time>2020-09-02T11:34:03Z</time>
      </trkpt>
      <trkpt lat="44.08379" lon="5.71492">
        <ele>960.579</ele>
        <time>2020-09-02T11:34:04Z</time>
      </trkpt>
      <trkpt lat="44.08379" lon="5.71501">
        <ele>960.299</ele>
        <time>2020-09-02T11:34:06Z</time>
      </trkpt>
      <trkpt lat="44.08376" lon="5.71513">
        <ele>962.186</ele>
        <time>2020-09-02T11:34:08Z</time>
      </trkpt>
      <trkpt lat="44.08375" lon="5.7152">
        <ele>961.987</ele>
        <time>2020-09-02T11:34:09Z</time>
      </trkpt>
      <trkpt lat="44.08375" lon="5.71527">
        <ele>962.025</ele>
        <time>2020-09-02T11:34:10Z</time>
      </trkpt>
      <trkpt lat="44.08374" lon="5.71533">
        <ele>962.211</ele>
        <time>2020-09-02T11:34:11Z</time>
      </trkpt>
      <trkpt lat="44.08372" lon="5.71539">
        <ele>962.624</ele>
        <time>2020-09-02T11:34:12Z</time>
      </trkpt>
      <trkpt lat="44.0837" lon="5.71545">
        <ele>963.282</ele>
        <time>2020-09-02T11:34:13Z</time>
      </trkpt>
      <trkpt lat="44.08364" lon="5.71552">
        <ele>964.443</ele>
        <time>2020-09-02T11:34:15Z</time>
      </trkpt>
      <trkpt lat="44.08358" lon="5.71556">
        <ele>965.217</ele>
        <time>2020-09-02T11:34:17Z</time>
      </trkpt>
      <trkpt lat="44.08353" lon="5.71559">
        <ele>967.508</ele>
        <time>2020-09-02T11:34:20Z</time>
      </trkpt>
      <trkpt lat="44.0835" lon="5.71565">
        <ele>968.116</ele>
        <time>2020-09-02T11:34:22Z</time>
      </trkpt>
      <trkpt lat="44.0835" lon="5.71574">
        <ele>968.715</ele>
        <time>2020-09-02T11:34:24Z</time>
      </trkpt>
      <trkpt lat="44.08346" lon="5.71584">
        <ele>967.595</ele>
        <time>2020-09-02T11:34:26Z</time>
      </trkpt>
      <trkpt lat="44.08344" lon="5.71591">
        <ele>966.542</ele>
        <time>2020-09-02T11:34:27Z</time>
      </trkpt>
      <trkpt lat="44.08341" lon="5.71598">
        <ele>966.223</ele>
        <time>2020-09-02T11:34:28Z</time>
      </trkpt>
      <trkpt lat="44.08336" lon="5.71604">
        <ele>965.461</ele>
        <time>2020-09-02T11:34:29Z</time>
      </trkpt>
      <trkpt lat="44.08333" lon="5.71611">
        <ele>964.967</ele>
        <time>2020-09-02T11:34:30Z</time>
      </trkpt>
      <trkpt lat="44.08326" lon="5.71618">
        <ele>964.83</ele>
        <time>2020-09-02T11:34:31Z</time>
      </trkpt>
      <trkpt lat="44.08321" lon="5.71626">
        <ele>964.722</ele>
        <time>2020-09-02T11:34:32Z</time>
      </trkpt>
      <trkpt lat="44.08314" lon="5.71632">
        <ele>964.962</ele>
        <time>2020-09-02T11:34:33Z</time>
      </trkpt>
      <trkpt lat="44.08307" lon="5.71641">
        <ele>964.808</ele>
        <time>2020-09-02T11:34:34Z</time>
      </trkpt>
      <trkpt lat="44.08301" lon="5.71649">
        <ele>963.908</ele>
        <time>2020-09-02T11:34:35Z</time>
      </trkpt>
      <trkpt lat="44.08295" lon="5.71657">
        <ele>963.41</ele>
        <time>2020-09-02T11:34:36Z</time>
      </trkpt>
      <trkpt lat="44.08288" lon="5.71664">
        <ele>963.169</ele>
        <time>2020-09-02T11:34:37Z</time>
      </trkpt>
      <trkpt lat="44.08282" lon="5.71673">
        <ele>962.769</ele>
        <time>2020-09-02T11:34:38Z</time>
      </trkpt>
      <trkpt lat="44.08276" lon="5.71684">
        <ele>963.056</ele>
        <time>2020-09-02T11:34:39Z</time>
      </trkpt>
      <trkpt lat="44.0827" lon="5.71695">
        <ele>962.297</ele>
        <time>2020-09-02T11:34:40Z</time>
      </trkpt>
      <trkpt lat="44.08264" lon="5.71705">
        <ele>962.195</ele>
        <time>2020-09-02T11:34:41Z</time>
      </trkpt>
      <trkpt lat="44.08257" lon="5.71716">
        <ele>961.521</ele>
        <time>2020-09-02T11:34:42Z</time>
      </trkpt>
      <trkpt lat="44.08252" lon="5.71727">
        <ele>961.024</ele>
        <time>2020-09-02T11:34:43Z</time>
      </trkpt>
      <trkpt lat="44.08245" lon="5.71737">
        <ele>960.463</ele>
        <time>2020-09-02T11:34:44Z</time>
      </trkpt>
      <trkpt lat="44.0824" lon="5.71748">
        <ele>960.144</ele>
        <time>2020-09-02T11:34:45Z</time>
      </trkpt>
      <trkpt lat="44.08236" lon="5.7176">
        <ele>959.218</ele>
        <time>2020-09-02T11:34:46Z</time>
      </trkpt>
      <trkpt lat="44.0823" lon="5.71771">
        <ele>958.708</ele>
        <time>2020-09-02T11:34:47Z</time>
      </trkpt>
      <trkpt lat="44.08225" lon="5.71783">
        <ele>958.034</ele>
        <time>2020-09-02T11:34:48Z</time>
      </trkpt>
      <trkpt lat="44.0822" lon="5.71795">
        <ele>957.383</ele>
        <time>2020-09-02T11:34:49Z</time>
      </trkpt>
      <trkpt lat="44.08215" lon="5.71806">
        <ele>956.853</ele>
        <time>2020-09-02T11:34:50Z</time>
      </trkpt>
      <trkpt lat="44.0821" lon="5.71817">
        <ele>955.56</ele>
        <time>2020-09-02T11:34:51Z</time>
      </trkpt>
      <trkpt lat="44.08205" lon="5.71827">
        <ele>954.881</ele>
        <time>2020-09-02T11:34:52Z</time>
      </trkpt>
      <trkpt lat="44.082" lon="5.71836">
        <ele>953.399</ele>
        <time>2020-09-02T11:34:53Z</time>
      </trkpt>
      <trkpt lat="44.08195" lon="5.71844">
        <ele>952.475</ele>
        <time>2020-09-02T11:34:54Z</time>
      </trkpt>
      <trkpt lat="44.0819" lon="5.71853">
        <ele>950.938</ele>
        <time>2020-09-02T11:34:55Z</time>
      </trkpt>
      <trkpt lat="44.08186" lon="5.7186">
        <ele>950.812</ele>
        <time>2020-09-02T11:34:56Z</time>
      </trkpt>
      <trkpt lat="44.08181" lon="5.71867">
        <ele>951.032</ele>
        <time>2020-09-02T11:34:57Z</time>
      </trkpt>
      <trkpt lat="44.08178" lon="5.71871">
        <ele>949.905</ele>
        <time>2020-09-02T11:34:58Z</time>
      </trkpt>
      <trkpt lat="44.08173" lon="5.71881">
        <ele>948.408</ele>
        <time>2020-09-02T11:35:00Z</time>
      </trkpt>
      <trkpt lat="44.08171" lon="5.71887">
        <ele>947.439</ele>
        <time>2020-09-02T11:35:01Z</time>
      </trkpt>
      <trkpt lat="44.0817" lon="5.719">
        <ele>945.998</ele>
        <time>2020-09-02T11:35:03Z</time>
      </trkpt>
      <trkpt lat="44.0817" lon="5.71908">
        <ele>945.838</ele>
        <time>2020-09-02T11:35:04Z</time>
      </trkpt>
      <trkpt lat="44.0817" lon="5.71915">
        <ele>945.165</ele>
        <time>2020-09-02T11:35:05Z</time>
      </trkpt>
      <trkpt lat="44.08169" lon="5.71921">
        <ele>944.896</ele>
        <time>2020-09-02T11:35:06Z</time>
      </trkpt>
      <trkpt lat="44.08164" lon="5.71931">
        <ele>943.574</ele>
        <time>2020-09-02T11:35:08Z</time>
      </trkpt>
      <trkpt lat="44.08158" lon="5.71938">
        <ele>942.51</ele>
        <time>2020-09-02T11:35:10Z</time>
      </trkpt>
      <trkpt lat="44.08153" lon="5.7194">
        <ele>942.533</ele>
        <time>2020-09-02T11:35:11Z</time>
      </trkpt>
      <trkpt lat="44.08148" lon="5.71942">
        <ele>942.653</ele>
        <time>2020-09-02T11:35:12Z</time>
      </trkpt>
      <trkpt lat="44.08143" lon="5.71944">
        <ele>942.604</ele>
        <time>2020-09-02T11:35:13Z</time>
      </trkpt>
      <trkpt lat="44.08138" lon="5.71947">
        <ele>942.814</ele>
        <time>2020-09-02T11:35:14Z</time>
      </trkpt>
      <trkpt lat="44.08132" lon="5.7195">
        <ele>942.808</ele>
        <time>2020-09-02T11:35:15Z</time>
      </trkpt>
      <trkpt lat="44.08126" lon="5.71954">
        <ele>942.433</ele>
        <time>2020-09-02T11:35:16Z</time>
      </trkpt>
      <trkpt lat="44.0812" lon="5.71957">
        <ele>941.982</ele>
        <time>2020-09-02T11:35:17Z</time>
      </trkpt>
      <trkpt lat="44.08115" lon="5.71959">
        <ele>941.962</ele>
        <time>2020-09-02T11:35:18Z</time>
      </trkpt>
      <trkpt lat="44.08111" lon="5.71963">
        <ele>941.939</ele>
        <time>2020-09-02T11:35:19Z</time>
      </trkpt>
      <trkpt lat="44.08102" lon="5.71969">
        <ele>941.69</ele>
        <time>2020-09-02T11:35:21Z</time>
      </trkpt>
      <trkpt lat="44.08097" lon="5.71973">
        <ele>941.048</ele>
        <time>2020-09-02T11:35:22Z</time>
      </trkpt>
      <trkpt lat="44.08092" lon="5.71976">
        <ele>939.274</ele>
        <time>2020-09-02T11:35:23Z</time>
      </trkpt>
      <trkpt lat="44.08088" lon="5.71979">
        <ele>938.657</ele>
        <time>2020-09-02T11:35:24Z</time>
      </trkpt>
      <trkpt lat="44.08082" lon="5.71981">
        <ele>937.548</ele>
        <time>2020-09-02T11:35:25Z</time>
      </trkpt>
      <trkpt lat="44.08076" lon="5.71983">
        <ele>937.461</ele>
        <time>2020-09-02T11:35:26Z</time>
      </trkpt>
      <trkpt lat="44.08071" lon="5.71985">
        <ele>937.717</ele>
        <time>2020-09-02T11:35:27Z</time>
      </trkpt>
      <trkpt lat="44.08064" lon="5.71986">
        <ele>937.008</ele>
        <time>2020-09-02T11:35:28Z</time>
      </trkpt>
      <trkpt lat="44.08058" lon="5.71988">
        <ele>936.872</ele>
        <time>2020-09-02T11:35:29Z</time>
      </trkpt>
      <trkpt lat="44.08053" lon="5.71991">
        <ele>936.331</ele>
        <time>2020-09-02T11:35:30Z</time>
      </trkpt>
      <trkpt lat="44.08047" lon="5.71995">
        <ele>935.591</ele>
        <time>2020-09-02T11:35:31Z</time>
      </trkpt>
      <trkpt lat="44.08041" lon="5.71999">
        <ele>935.428</ele>
        <time>2020-09-02T11:35:32Z</time>
      </trkpt>
      <trkpt lat="44.08036" lon="5.72004">
        <ele>934.729</ele>
        <time>2020-09-02T11:35:33Z</time>
      </trkpt>
      <trkpt lat="44.0803" lon="5.72008">
        <ele>934.787</ele>
        <time>2020-09-02T11:35:34Z</time>
      </trkpt>
      <trkpt lat="44.08025" lon="5.72012">
        <ele>934.813</ele>
        <time>2020-09-02T11:35:35Z</time>
      </trkpt>
      <trkpt lat="44.0802" lon="5.72017">
        <ele>934.976</ele>
        <time>2020-09-02T11:35:36Z</time>
      </trkpt>
      <trkpt lat="44.08016" lon="5.72022">
        <ele>934.598</ele>
        <time>2020-09-02T11:35:37Z</time>
      </trkpt>
      <trkpt lat="44.08011" lon="5.72027">
        <ele>933.715</ele>
        <time>2020-09-02T11:35:38Z</time>
      </trkpt>
      <trkpt lat="44.08006" lon="5.72031">
        <ele>933.526</ele>
        <time>2020-09-02T11:35:39Z</time>
      </trkpt>
      <trkpt lat="44.08001" lon="5.72034">
        <ele>933.608</ele>
        <time>2020-09-02T11:35:40Z</time>
      </trkpt>
      <trkpt lat="44.07997" lon="5.72038">
        <ele>932.687</ele>
        <time>2020-09-02T11:35:41Z</time>
      </trkpt>
      <trkpt lat="44.07991" lon="5.7204">
        <ele>933.076</ele>
        <time>2020-09-02T11:35:42Z</time>
      </trkpt>
      <trkpt lat="44.07984" lon="5.72042">
        <ele>932.526</ele>
        <time>2020-09-02T11:35:43Z</time>
      </trkpt>
      <trkpt lat="44.07978" lon="5.72044">
        <ele>932.153</ele>
        <time>2020-09-02T11:35:44Z</time>
      </trkpt>
      <trkpt lat="44.0797" lon="5.72047">
        <ele>931.664</ele>
        <time>2020-09-02T11:35:45Z</time>
      </trkpt>
      <trkpt lat="44.07963" lon="5.72051">
        <ele>931.242</ele>
        <time>2020-09-02T11:35:46Z</time>
      </trkpt>
      <trkpt lat="44.07958" lon="5.72056">
        <ele>930.888</ele>
        <time>2020-09-02T11:35:47Z</time>
      </trkpt>
      <trkpt lat="44.07951" lon="5.72059">
        <ele>929.891</ele>
        <time>2020-09-02T11:35:48Z</time>
      </trkpt>
      <trkpt lat="44.07944" lon="5.72062">
        <ele>928.899</ele>
        <time>2020-09-02T11:35:49Z</time>
      </trkpt>
      <trkpt lat="44.07938" lon="5.72065">
        <ele>928.707</ele>
        <time>2020-09-02T11:35:50Z</time>
      </trkpt>
      <trkpt lat="44.07933" lon="5.72069">
        <ele>927.627</ele>
        <time>2020-09-02T11:35:51Z</time>
      </trkpt>
      <trkpt lat="44.07927" lon="5.72072">
        <ele>926.008</ele>
        <time>2020-09-02T11:35:52Z</time>
      </trkpt>
      <trkpt lat="44.0792" lon="5.72075">
        <ele>925.057</ele>
        <time>2020-09-02T11:35:53Z</time>
      </trkpt>
      <trkpt lat="44.07914" lon="5.72078">
        <ele>923.566</ele>
        <time>2020-09-02T11:35:54Z</time>
      </trkpt>
      <trkpt lat="44.07908" lon="5.72084">
        <ele>921.946</ele>
        <time>2020-09-02T11:35:55Z</time>
      </trkpt>
      <trkpt lat="44.07903" lon="5.72089">
        <ele>920.923</ele>
        <time>2020-09-02T11:35:56Z</time>
      </trkpt>
      <trkpt lat="44.07898" lon="5.72094">
        <ele>919.764</ele>
        <time>2020-09-02T11:35:57Z</time>
      </trkpt>
      <trkpt lat="44.0789" lon="5.72101">
        <ele>918.882</ele>
        <time>2020-09-02T11:35:59Z</time>
      </trkpt>
      <trkpt lat="44.07883" lon="5.72103">
        <ele>917.738</ele>
        <time>2020-09-02T11:36:00Z</time>
      </trkpt>
      <trkpt lat="44.07876" lon="5.72106">
        <ele>917.131</ele>
        <time>2020-09-02T11:36:01Z</time>
      </trkpt>
      <trkpt lat="44.07869" lon="5.72109">
        <ele>916.941</ele>
        <time>2020-09-02T11:36:02Z</time>
      </trkpt>
      <trkpt lat="44.07862" lon="5.72111">
        <ele>916.281</ele>
        <time>2020-09-02T11:36:03Z</time>
      </trkpt>
      <trkpt lat="44.07855" lon="5.72112">
        <ele>915.609</ele>
        <time>2020-09-02T11:36:04Z</time>
      </trkpt>
      <trkpt lat="44.07847" lon="5.72113">
        <ele>915.308</ele>
        <time>2020-09-02T11:36:05Z</time>
      </trkpt>
      <trkpt lat="44.0784" lon="5.72113">
        <ele>914.882</ele>
        <time>2020-09-02T11:36:06Z</time>
      </trkpt>
      <trkpt lat="44.07832" lon="5.72114">
        <ele>914.471</ele>
        <time>2020-09-02T11:36:07Z</time>
      </trkpt>
      <trkpt lat="44.07826" lon="5.72115">
        <ele>914.341</ele>
        <time>2020-09-02T11:36:08Z</time>
      </trkpt>
      <trkpt lat="44.07818" lon="5.72119">
        <ele>914.488</ele>
        <time>2020-09-02T11:36:09Z</time>
      </trkpt>
      <trkpt lat="44.07811" lon="5.72122">
        <ele>914.229</ele>
        <time>2020-09-02T11:36:10Z</time>
      </trkpt>
      <trkpt lat="44.07803" lon="5.72127">
        <ele>913.577</ele>
        <time>2020-09-02T11:36:11Z</time>
      </trkpt>
      <trkpt lat="44.07795" lon="5.72131">
        <ele>913.253</ele>
        <time>2020-09-02T11:36:12Z</time>
      </trkpt>
      <trkpt lat="44.07787" lon="5.72136">
        <ele>912.726</ele>
        <time>2020-09-02T11:36:13Z</time>
      </trkpt>
      <trkpt lat="44.07779" lon="5.7214">
        <ele>912.169</ele>
        <time>2020-09-02T11:36:14Z</time>
      </trkpt>
      <trkpt lat="44.07771" lon="5.72144">
        <ele>911.604</ele>
        <time>2020-09-02T11:36:15Z</time>
      </trkpt>
      <trkpt lat="44.07764" lon="5.72146">
        <ele>911.424</ele>
        <time>2020-09-02T11:36:16Z</time>
      </trkpt>
      <trkpt lat="44.07756" lon="5.72149">
        <ele>910.508</ele>
        <time>2020-09-02T11:36:17Z</time>
      </trkpt>
      <trkpt lat="44.07747" lon="5.72151">
        <ele>910.254</ele>
        <time>2020-09-02T11:36:18Z</time>
      </trkpt>
      <trkpt lat="44.07739" lon="5.72153">
        <ele>909.213</ele>
        <time>2020-09-02T11:36:19Z</time>
      </trkpt>
      <trkpt lat="44.0773" lon="5.72156">
        <ele>908.853</ele>
        <time>2020-09-02T11:36:20Z</time>
      </trkpt>
      <trkpt lat="44.07721" lon="5.72157">
        <ele>908.46</ele>
        <time>2020-09-02T11:36:21Z</time>
      </trkpt>
      <trkpt lat="44.07712" lon="5.72157">
        <ele>907.961</ele>
        <time>2020-09-02T11:36:22Z</time>
      </trkpt>
      <trkpt lat="44.07702" lon="5.72157">
        <ele>907.619</ele>
        <time>2020-09-02T11:36:23Z</time>
      </trkpt>
      <trkpt lat="44.07692" lon="5.72157">
        <ele>907.575</ele>
        <time>2020-09-02T11:36:24Z</time>
      </trkpt>
      <trkpt lat="44.07683" lon="5.72157">
        <ele>905.818</ele>
        <time>2020-09-02T11:36:25Z</time>
      </trkpt>
      <trkpt lat="44.07673" lon="5.72158">
        <ele>905.321</ele>
        <time>2020-09-02T11:36:26Z</time>
      </trkpt>
      <trkpt lat="44.07665" lon="5.72157">
        <ele>905.341</ele>
        <time>2020-09-02T11:36:27Z</time>
      </trkpt>
      <trkpt lat="44.07656" lon="5.72154">
        <ele>905.105</ele>
        <time>2020-09-02T11:36:28Z</time>
      </trkpt>
      <trkpt lat="44.07645" lon="5.72151">
        <ele>904.408</ele>
        <time>2020-09-02T11:36:29Z</time>
      </trkpt>
      <trkpt lat="44.07634" lon="5.72149">
        <ele>902.72</ele>
        <time>2020-09-02T11:36:30Z</time>
      </trkpt>
      <trkpt lat="44.07625" lon="5.72148">
        <ele>901.159</ele>
        <time>2020-09-02T11:36:31Z</time>
      </trkpt>
      <trkpt lat="44.07615" lon="5.72146">
        <ele>900.719</ele>
        <time>2020-09-02T11:36:32Z</time>
      </trkpt>
      <trkpt lat="44.07605" lon="5.72144">
        <ele>900.126</ele>
        <time>2020-09-02T11:36:33Z</time>
      </trkpt>
      <trkpt lat="44.07595" lon="5.72142">
        <ele>899.617</ele>
        <time>2020-09-02T11:36:34Z</time>
      </trkpt>
      <trkpt lat="44.07585" lon="5.7214">
        <ele>898.715</ele>
        <time>2020-09-02T11:36:35Z</time>
      </trkpt>
      <trkpt lat="44.07575" lon="5.72137">
        <ele>896.951</ele>
        <time>2020-09-02T11:36:36Z</time>
      </trkpt>
      <trkpt lat="44.07564" lon="5.72135">
        <ele>896.314</ele>
        <time>2020-09-02T11:36:37Z</time>
      </trkpt>
      <trkpt lat="44.07554" lon="5.72132">
        <ele>896.299</ele>
        <time>2020-09-02T11:36:38Z</time>
      </trkpt>
      <trkpt lat="44.07544" lon="5.72129">
        <ele>895.907</ele>
        <time>2020-09-02T11:36:39Z</time>
      </trkpt>
      <trkpt lat="44.07535" lon="5.72125">
        <ele>895.227</ele>
        <time>2020-09-02T11:36:40Z</time>
      </trkpt>
      <trkpt lat="44.07524" lon="5.72121">
        <ele>894.608</ele>
        <time>2020-09-02T11:36:41Z</time>
      </trkpt>
      <trkpt lat="44.07515" lon="5.72117">
        <ele>893.477</ele>
        <time>2020-09-02T11:36:42Z</time>
      </trkpt>
      <trkpt lat="44.07503" lon="5.72114">
        <ele>893.456</ele>
        <time>2020-09-02T11:36:43Z</time>
      </trkpt>
      <trkpt lat="44.07493" lon="5.72112">
        <ele>892.896</ele>
        <time>2020-09-02T11:36:44Z</time>
      </trkpt>
      <trkpt lat="44.07482" lon="5.72108">
        <ele>892.463</ele>
        <time>2020-09-02T11:36:45Z</time>
      </trkpt>
      <trkpt lat="44.07471" lon="5.72105">
        <ele>892.514</ele>
        <time>2020-09-02T11:36:46Z</time>
      </trkpt>
      <trkpt lat="44.07461" lon="5.72103">
        <ele>891.882</ele>
        <time>2020-09-02T11:36:47Z</time>
      </trkpt>
      <trkpt lat="44.07451" lon="5.721">
        <ele>891.248</ele>
        <time>2020-09-02T11:36:48Z</time>
      </trkpt>
      <trkpt lat="44.0744" lon="5.72099">
        <ele>890.281</ele>
        <time>2020-09-02T11:36:49Z</time>
      </trkpt>
      <trkpt lat="44.0743" lon="5.72096">
        <ele>889.453</ele>
        <time>2020-09-02T11:36:50Z</time>
      </trkpt>
      <trkpt lat="44.07421" lon="5.72093">
        <ele>886.804</ele>
        <time>2020-09-02T11:36:51Z</time>
      </trkpt>
      <trkpt lat="44.07412" lon="5.7209">
        <ele>886.014</ele>
        <time>2020-09-02T11:36:52Z</time>
      </trkpt>
      <trkpt lat="44.07406" lon="5.72088">
        <ele>883.708</ele>
        <time>2020-09-02T11:36:53Z</time>
      </trkpt>
      <trkpt lat="44.07398" lon="5.72088">
        <ele>883.593</ele>
        <time>2020-09-02T11:36:54Z</time>
      </trkpt>
      <trkpt lat="44.07391" lon="5.72089">
        <ele>883.062</ele>
        <time>2020-09-02T11:36:55Z</time>
      </trkpt>
      <trkpt lat="44.07383" lon="5.7209">
        <ele>882.792</ele>
        <time>2020-09-02T11:36:56Z</time>
      </trkpt>
      <trkpt lat="44.07375" lon="5.72091">
        <ele>881.739</ele>
        <time>2020-09-02T11:36:57Z</time>
      </trkpt>
      <trkpt lat="44.07365" lon="5.7209">
        <ele>881.76</ele>
        <time>2020-09-02T11:36:58Z</time>
      </trkpt>
      <trkpt lat="44.07355" lon="5.72088">
        <ele>881.758</ele>
        <time>2020-09-02T11:36:59Z</time>
      </trkpt>
      <trkpt lat="44.07344" lon="5.72086">
        <ele>881.974</ele>
        <time>2020-09-02T11:37:00Z</time>
      </trkpt>
      <trkpt lat="44.07334" lon="5.72083">
        <ele>881.527</ele>
        <time>2020-09-02T11:37:01Z</time>
      </trkpt>
      <trkpt lat="44.07323" lon="5.7208">
        <ele>880.043</ele>
        <time>2020-09-02T11:37:02Z</time>
      </trkpt>
      <trkpt lat="44.07313" lon="5.72078">
        <ele>880.464</ele>
        <time>2020-09-02T11:37:03Z</time>
      </trkpt>
      <trkpt lat="44.07305" lon="5.72073">
        <ele>879.91</ele>
        <time>2020-09-02T11:37:04Z</time>
      </trkpt>
      <trkpt lat="44.07296" lon="5.72069">
        <ele>879.908</ele>
        <time>2020-09-02T11:37:05Z</time>
      </trkpt>
      <trkpt lat="44.07287" lon="5.72064">
        <ele>880.472</ele>
        <time>2020-09-02T11:37:06Z</time>
      </trkpt>
      <trkpt lat="44.07278" lon="5.72063">
        <ele>879.621</ele>
        <time>2020-09-02T11:37:07Z</time>
      </trkpt>
      <trkpt lat="44.07268" lon="5.72062">
        <ele>879.361</ele>
        <time>2020-09-02T11:37:08Z</time>
      </trkpt>
      <trkpt lat="44.07257" lon="5.7206">
        <ele>879.228</ele>
        <time>2020-09-02T11:37:09Z</time>
      </trkpt>
      <trkpt lat="44.07246" lon="5.72061">
        <ele>878.299</ele>
        <time>2020-09-02T11:37:10Z</time>
      </trkpt>
      <trkpt lat="44.07236" lon="5.72064">
        <ele>876.497</ele>
        <time>2020-09-02T11:37:11Z</time>
      </trkpt>
      <trkpt lat="44.07225" lon="5.72061">
        <ele>875.633</ele>
        <time>2020-09-02T11:37:12Z</time>
      </trkpt>
      <trkpt lat="44.07215" lon="5.72058">
        <ele>874.686</ele>
        <time>2020-09-02T11:37:13Z</time>
      </trkpt>
      <trkpt lat="44.07206" lon="5.72052">
        <ele>873.995</ele>
        <time>2020-09-02T11:37:14Z</time>
      </trkpt>
      <trkpt lat="44.07196" lon="5.72048">
        <ele>873.249</ele>
        <time>2020-09-02T11:37:15Z</time>
      </trkpt>
      <trkpt lat="44.07191" lon="5.72042">
        <ele>872.823</ele>
        <time>2020-09-02T11:37:16Z</time>
      </trkpt>
      <trkpt lat="44.07184" lon="5.72037">
        <ele>873.308</ele>
        <time>2020-09-02T11:37:17Z</time>
      </trkpt>
      <trkpt lat="44.07177" lon="5.72035">
        <ele>872.837</ele>
        <time>2020-09-02T11:37:18Z</time>
      </trkpt>
      <trkpt lat="44.07169" lon="5.72034">
        <ele>872.446</ele>
        <time>2020-09-02T11:37:19Z</time>
      </trkpt>
      <trkpt lat="44.07161" lon="5.72032">
        <ele>871.666</ele>
        <time>2020-09-02T11:37:20Z</time>
      </trkpt>
      <trkpt lat="44.07152" lon="5.72034">
        <ele>870.543</ele>
        <time>2020-09-02T11:37:21Z</time>
      </trkpt>
      <trkpt lat="44.07146" lon="5.72031">
        <ele>869.484</ele>
        <time>2020-09-02T11:37:22Z</time>
      </trkpt>
      <trkpt lat="44.07138" lon="5.72027">
        <ele>868.552</ele>
        <time>2020-09-02T11:37:23Z</time>
      </trkpt>
      <trkpt lat="44.0713" lon="5.7202">
        <ele>868.638</ele>
        <time>2020-09-02T11:37:24Z</time>
      </trkpt>
      <trkpt lat="44.07123" lon="5.72013">
        <ele>867.851</ele>
        <time>2020-09-02T11:37:25Z</time>
      </trkpt>
      <trkpt lat="44.07116" lon="5.72008">
        <ele>866.455</ele>
        <time>2020-09-02T11:37:26Z</time>
      </trkpt>
      <trkpt lat="44.07108" lon="5.72005">
        <ele>865.307</ele>
        <time>2020-09-02T11:37:27Z</time>
      </trkpt>
      <trkpt lat="44.071" lon="5.72003">
        <ele>864.717</ele>
        <time>2020-09-02T11:37:28Z</time>
      </trkpt>
      <trkpt lat="44.07092" lon="5.72002">
        <ele>864.208</ele>
        <time>2020-09-02T11:37:29Z</time>
      </trkpt>
      <trkpt lat="44.07084" lon="5.71998">
        <ele>863.633</ele>
        <time>2020-09-02T11:37:30Z</time>
      </trkpt>
      <trkpt lat="44.07077" lon="5.71996">
        <ele>862.492</ele>
        <time>2020-09-02T11:37:31Z</time>
      </trkpt>
      <trkpt lat="44.07069" lon="5.71992">
        <ele>861.782</ele>
        <time>2020-09-02T11:37:32Z</time>
      </trkpt>
      <trkpt lat="44.07062" lon="5.7199">
        <ele>861.169</ele>
        <time>2020-09-02T11:37:33Z</time>
      </trkpt>
      <trkpt lat="44.07055" lon="5.71986">
        <ele>860.22</ele>
        <time>2020-09-02T11:37:34Z</time>
      </trkpt>
      <trkpt lat="44.07048" lon="5.71982">
        <ele>859.988</ele>
        <time>2020-09-02T11:37:35Z</time>
      </trkpt>
      <trkpt lat="44.07041" lon="5.71978">
        <ele>859.154</ele>
        <time>2020-09-02T11:37:36Z</time>
      </trkpt>
      <trkpt lat="44.07035" lon="5.71972">
        <ele>857.787</ele>
        <time>2020-09-02T11:37:37Z</time>
      </trkpt>
      <trkpt lat="44.0703" lon="5.71965">
        <ele>857.036</ele>
        <time>2020-09-02T11:37:38Z</time>
      </trkpt>
      <trkpt lat="44.07026" lon="5.71956">
        <ele>856.317</ele>
        <time>2020-09-02T11:37:39Z</time>
      </trkpt>
      <trkpt lat="44.07022" lon="5.71948">
        <ele>856.018</ele>
        <time>2020-09-02T11:37:40Z</time>
      </trkpt>
      <trkpt lat="44.07017" lon="5.7194">
        <ele>856.308</ele>
        <time>2020-09-02T11:37:41Z</time>
      </trkpt>
      <trkpt lat="44.07012" lon="5.71934">
        <ele>855.771</ele>
        <time>2020-09-02T11:37:42Z</time>
      </trkpt>
      <trkpt lat="44.07005" lon="5.71931">
        <ele>855.91</ele>
        <time>2020-09-02T11:37:43Z</time>
      </trkpt>
      <trkpt lat="44.06998" lon="5.71931">
        <ele>856.45</ele>
        <time>2020-09-02T11:37:44Z</time>
      </trkpt>
      <trkpt lat="44.06989" lon="5.7193">
        <ele>855.177</ele>
        <time>2020-09-02T11:37:45Z</time>
      </trkpt>
      <trkpt lat="44.06981" lon="5.71929">
        <ele>854.538</ele>
        <time>2020-09-02T11:37:46Z</time>
      </trkpt>
      <trkpt lat="44.06973" lon="5.71926">
        <ele>853.966</ele>
        <time>2020-09-02T11:37:47Z</time>
      </trkpt>
      <trkpt lat="44.06964" lon="5.71924">
        <ele>853.032</ele>
        <time>2020-09-02T11:37:48Z</time>
      </trkpt>
      <trkpt lat="44.06957" lon="5.71924">
        <ele>851.675</ele>
        <time>2020-09-02T11:37:49Z</time>
      </trkpt>
      <trkpt lat="44.06948" lon="5.71921">
        <ele>850.937</ele>
        <time>2020-09-02T11:37:50Z</time>
      </trkpt>
      <trkpt lat="44.0694" lon="5.71915">
        <ele>849.549</ele>
        <time>2020-09-02T11:37:51Z</time>
      </trkpt>
      <trkpt lat="44.06932" lon="5.71912">
        <ele>849.313</ele>
        <time>2020-09-02T11:37:52Z</time>
      </trkpt>
      <trkpt lat="44.06925" lon="5.71908">
        <ele>849.008</ele>
        <time>2020-09-02T11:37:53Z</time>
      </trkpt>
      <trkpt lat="44.06916" lon="5.71905">
        <ele>848.761</ele>
        <time>2020-09-02T11:37:54Z</time>
      </trkpt>
      <trkpt lat="44.06909" lon="5.719">
        <ele>848.69</ele>
        <time>2020-09-02T11:37:55Z</time>
      </trkpt>
      <trkpt lat="44.06902" lon="5.71895">
        <ele>848.58</ele>
        <time>2020-09-02T11:37:56Z</time>
      </trkpt>
      <trkpt lat="44.06895" lon="5.71891">
        <ele>848.547</ele>
        <time>2020-09-02T11:37:57Z</time>
      </trkpt>
      <trkpt lat="44.06886" lon="5.71887">
        <ele>848.448</ele>
        <time>2020-09-02T11:37:58Z</time>
      </trkpt>
      <trkpt lat="44.06876" lon="5.71887">
        <ele>848.146</ele>
        <time>2020-09-02T11:37:59Z</time>
      </trkpt>
      <trkpt lat="44.06868" lon="5.71887">
        <ele>847.542</ele>
        <time>2020-09-02T11:38:00Z</time>
      </trkpt>
      <trkpt lat="44.06859" lon="5.71888">
        <ele>846.725</ele>
        <time>2020-09-02T11:38:01Z</time>
      </trkpt>
      <trkpt lat="44.06851" lon="5.71888">
        <ele>846.073</ele>
        <time>2020-09-02T11:38:02Z</time>
      </trkpt>
      <trkpt lat="44.06843" lon="5.71887">
        <ele>844.585</ele>
        <time>2020-09-02T11:38:03Z</time>
      </trkpt>
      <trkpt lat="44.06833" lon="5.71887">
        <ele>844.313</ele>
        <time>2020-09-02T11:38:04Z</time>
      </trkpt>
      <trkpt lat="44.06825" lon="5.71884">
        <ele>843.708</ele>
        <time>2020-09-02T11:38:05Z</time>
      </trkpt>
      <trkpt lat="44.06816" lon="5.71881">
        <ele>843.255</ele>
        <time>2020-09-02T11:38:06Z</time>
      </trkpt>
      <trkpt lat="44.06807" lon="5.71876">
        <ele>842.874</ele>
        <time>2020-09-02T11:38:07Z</time>
      </trkpt>
      <trkpt lat="44.06797" lon="5.71871">
        <ele>842.724</ele>
        <time>2020-09-02T11:38:08Z</time>
      </trkpt>
      <trkpt lat="44.06786" lon="5.71866">
        <ele>842.121</ele>
        <time>2020-09-02T11:38:09Z</time>
      </trkpt>
      <trkpt lat="44.06776" lon="5.71862">
        <ele>841.472</ele>
        <time>2020-09-02T11:38:10Z</time>
      </trkpt>
      <trkpt lat="44.06765" lon="5.71858">
        <ele>840.88</ele>
        <time>2020-09-02T11:38:11Z</time>
      </trkpt>
      <trkpt lat="44.06755" lon="5.71856">
        <ele>840.856</ele>
        <time>2020-09-02T11:38:12Z</time>
      </trkpt>
      <trkpt lat="44.06745" lon="5.71855">
        <ele>840.639</ele>
        <time>2020-09-02T11:38:13Z</time>
      </trkpt>
      <trkpt lat="44.06737" lon="5.71851">
        <ele>840.256</ele>
        <time>2020-09-02T11:38:14Z</time>
      </trkpt>
      <trkpt lat="44.06727" lon="5.71847">
        <ele>839.459</ele>
        <time>2020-09-02T11:38:15Z</time>
      </trkpt>
      <trkpt lat="44.06718" lon="5.71841">
        <ele>838.714</ele>
        <time>2020-09-02T11:38:16Z</time>
      </trkpt>
      <trkpt lat="44.06708" lon="5.71834">
        <ele>838.508</ele>
        <time>2020-09-02T11:38:17Z</time>
      </trkpt>
      <trkpt lat="44.06698" lon="5.71824">
        <ele>838.293</ele>
        <time>2020-09-02T11:38:18Z</time>
      </trkpt>
      <trkpt lat="44.06688" lon="5.71815">
        <ele>838.092</ele>
        <time>2020-09-02T11:38:19Z</time>
      </trkpt>
      <trkpt lat="44.06678" lon="5.71806">
        <ele>838.062</ele>
        <time>2020-09-02T11:38:20Z</time>
      </trkpt>
      <trkpt lat="44.06668" lon="5.71796">
        <ele>837.999</ele>
        <time>2020-09-02T11:38:21Z</time>
      </trkpt>
      <trkpt lat="44.06657" lon="5.71787">
        <ele>837.48</ele>
        <time>2020-09-02T11:38:22Z</time>
      </trkpt>
      <trkpt lat="44.06648" lon="5.71777">
        <ele>837.348</ele>
        <time>2020-09-02T11:38:23Z</time>
      </trkpt>
      <trkpt lat="44.0664" lon="5.71768">
        <ele>837.244</ele>
        <time>2020-09-02T11:38:24Z</time>
      </trkpt>
      <trkpt lat="44.06631" lon="5.71759">
        <ele>837.237</ele>
        <time>2020-09-02T11:38:25Z</time>
      </trkpt>
      <trkpt lat="44.06623" lon="5.71748">
        <ele>837.137</ele>
        <time>2020-09-02T11:38:26Z</time>
      </trkpt>
      <trkpt lat="44.06616" lon="5.7174">
        <ele>836.849</ele>
        <time>2020-09-02T11:38:27Z</time>
      </trkpt>
      <trkpt lat="44.0661" lon="5.71733">
        <ele>837.013</ele>
        <time>2020-09-02T11:38:28Z</time>
      </trkpt>
      <trkpt lat="44.06604" lon="5.71729">
        <ele>836.708</ele>
        <time>2020-09-02T11:38:29Z</time>
      </trkpt>
      <trkpt lat="44.06597" lon="5.71725">
        <ele>836.661</ele>
        <time>2020-09-02T11:38:30Z</time>
      </trkpt>
      <trkpt lat="44.06591" lon="5.71723">
        <ele>835.89</ele>
        <time>2020-09-02T11:38:31Z</time>
      </trkpt>
      <trkpt lat="44.06583" lon="5.7172">
        <ele>835.95</ele>
        <time>2020-09-02T11:38:32Z</time>
      </trkpt>
      <trkpt lat="44.06576" lon="5.71718">
        <ele>835.477</ele>
        <time>2020-09-02T11:38:33Z</time>
      </trkpt>
      <trkpt lat="44.06568" lon="5.71714">
        <ele>834.768</ele>
        <time>2020-09-02T11:38:34Z</time>
      </trkpt>
      <trkpt lat="44.0656" lon="5.7171">
        <ele>834.286</ele>
        <time>2020-09-02T11:38:35Z</time>
      </trkpt>
      <trkpt lat="44.06553" lon="5.71706">
        <ele>833.922</ele>
        <time>2020-09-02T11:38:36Z</time>
      </trkpt>
      <trkpt lat="44.06545" lon="5.71702">
        <ele>833.445</ele>
        <time>2020-09-02T11:38:37Z</time>
      </trkpt>
      <trkpt lat="44.06537" lon="5.717">
        <ele>833.061</ele>
        <time>2020-09-02T11:38:38Z</time>
      </trkpt>
      <trkpt lat="44.06528" lon="5.71698">
        <ele>832.221</ele>
        <time>2020-09-02T11:38:39Z</time>
      </trkpt>
      <trkpt lat="44.06519" lon="5.71695">
        <ele>831.713</ele>
        <time>2020-09-02T11:38:40Z</time>
      </trkpt>
      <trkpt lat="44.06509" lon="5.71693">
        <ele>830.808</ele>
        <time>2020-09-02T11:38:41Z</time>
      </trkpt>
      <trkpt lat="44.06498" lon="5.71689">
        <ele>830.144</ele>
        <time>2020-09-02T11:38:42Z</time>
      </trkpt>
      <trkpt lat="44.06488" lon="5.71685">
        <ele>829.543</ele>
        <time>2020-09-02T11:38:43Z</time>
      </trkpt>
      <trkpt lat="44.06479" lon="5.71681">
        <ele>828.713</ele>
        <time>2020-09-02T11:38:44Z</time>
      </trkpt>
      <trkpt lat="44.06471" lon="5.71676">
        <ele>828.07</ele>
        <time>2020-09-02T11:38:45Z</time>
      </trkpt>
      <trkpt lat="44.06463" lon="5.71673">
        <ele>827.581</ele>
        <time>2020-09-02T11:38:46Z</time>
      </trkpt>
      <trkpt lat="44.06455" lon="5.7167">
        <ele>826.829</ele>
        <time>2020-09-02T11:38:47Z</time>
      </trkpt>
      <trkpt lat="44.06448" lon="5.71666">
        <ele>826.495</ele>
        <time>2020-09-02T11:38:48Z</time>
      </trkpt>
      <trkpt lat="44.06441" lon="5.71662">
        <ele>826.458</ele>
        <time>2020-09-02T11:38:49Z</time>
      </trkpt>
      <trkpt lat="44.06434" lon="5.71659">
        <ele>826.044</ele>
        <time>2020-09-02T11:38:50Z</time>
      </trkpt>
      <trkpt lat="44.06428" lon="5.71657">
        <ele>825.405</ele>
        <time>2020-09-02T11:38:51Z</time>
      </trkpt>
      <trkpt lat="44.06422" lon="5.71655">
        <ele>824.615</ele>
        <time>2020-09-02T11:38:52Z</time>
      </trkpt>
      <trkpt lat="44.06415" lon="5.71653">
        <ele>823.508</ele>
        <time>2020-09-02T11:38:53Z</time>
      </trkpt>
      <trkpt lat="44.06407" lon="5.7165">
        <ele>823.242</ele>
        <time>2020-09-02T11:38:54Z</time>
      </trkpt>
      <trkpt lat="44.064" lon="5.71647">
        <ele>823.481</ele>
        <time>2020-09-02T11:38:55Z</time>
      </trkpt>
      <trkpt lat="44.06393" lon="5.71643">
        <ele>822.741</ele>
        <time>2020-09-02T11:38:56Z</time>
      </trkpt>
      <trkpt lat="44.06386" lon="5.7164">
        <ele>822.378</ele>
        <time>2020-09-02T11:38:57Z</time>
      </trkpt>
      <trkpt lat="44.06379" lon="5.71636">
        <ele>821.889</ele>
        <time>2020-09-02T11:38:58Z</time>
      </trkpt>
      <trkpt lat="44.06372" lon="5.71633">
        <ele>821.427</ele>
        <time>2020-09-02T11:38:59Z</time>
      </trkpt>
      <trkpt lat="44.06365" lon="5.7163">
        <ele>820.823</ele>
        <time>2020-09-02T11:39:00Z</time>
      </trkpt>
      <trkpt lat="44.06358" lon="5.71627">
        <ele>820.626</ele>
        <time>2020-09-02T11:39:01Z</time>
      </trkpt>
      <trkpt lat="44.06351" lon="5.71624">
        <ele>820.381</ele>
        <time>2020-09-02T11:39:02Z</time>
      </trkpt>
      <trkpt lat="44.06345" lon="5.71622">
        <ele>819.761</ele>
        <time>2020-09-02T11:39:03Z</time>
      </trkpt>
      <trkpt lat="44.0634" lon="5.71621">
        <ele>819.217</ele>
        <time>2020-09-02T11:39:04Z</time>
      </trkpt>
      <trkpt lat="44.06334" lon="5.71618">
        <ele>818.508</ele>
        <time>2020-09-02T11:39:06Z</time>
      </trkpt>
      <trkpt lat="44.06328" lon="5.71622">
        <ele>818.086</ele>
        <time>2020-09-02T11:39:09Z</time>
      </trkpt>
      <trkpt lat="44.06333" lon="5.71632">
        <ele>819.135</ele>
        <time>2020-09-02T11:39:12Z</time>
      </trkpt>
      <trkpt lat="44.06336" lon="5.71638">
        <ele>819.055</ele>
        <time>2020-09-02T11:39:13Z</time>
      </trkpt>
      <trkpt lat="44.0634" lon="5.71644">
        <ele>819.282</ele>
        <time>2020-09-02T11:39:14Z</time>
      </trkpt>
      <trkpt lat="44.06344" lon="5.71652">
        <ele>819.573</ele>
        <time>2020-09-02T11:39:15Z</time>
      </trkpt>
      <trkpt lat="44.06348" lon="5.71661">
        <ele>819.851</ele>
        <time>2020-09-02T11:39:16Z</time>
      </trkpt>
      <trkpt lat="44.06353" lon="5.7167">
        <ele>819.667</ele>
        <time>2020-09-02T11:39:17Z</time>
      </trkpt>
      <trkpt lat="44.06359" lon="5.7168">
        <ele>819.06</ele>
        <time>2020-09-02T11:39:18Z</time>
      </trkpt>
      <trkpt lat="44.06366" lon="5.7169">
        <ele>819.019</ele>
        <time>2020-09-02T11:39:19Z</time>
      </trkpt>
      <trkpt lat="44.06373" lon="5.717">
        <ele>818.809</ele>
        <time>2020-09-02T11:39:20Z</time>
      </trkpt>
      <trkpt lat="44.06381" lon="5.71711">
        <ele>818.419</ele>
        <time>2020-09-02T11:39:21Z</time>
      </trkpt>
      <trkpt lat="44.06389" lon="5.71721">
        <ele>817.808</ele>
        <time>2020-09-02T11:39:22Z</time>
      </trkpt>
      <trkpt lat="44.06398" lon="5.7173">
        <ele>817.929</ele>
        <time>2020-09-02T11:39:23Z</time>
      </trkpt>
      <trkpt lat="44.06407" lon="5.71741">
        <ele>817.688</ele>
        <time>2020-09-02T11:39:24Z</time>
      </trkpt>
      <trkpt lat="44.06416" lon="5.71751">
        <ele>817.748</ele>
        <time>2020-09-02T11:39:25Z</time>
      </trkpt>
      <trkpt lat="44.06425" lon="5.71763">
        <ele>817.995</ele>
        <time>2020-09-02T11:39:26Z</time>
      </trkpt>
      <trkpt lat="44.06434" lon="5.71774">
        <ele>817.976</ele>
        <time>2020-09-02T11:39:27Z</time>
      </trkpt>
      <trkpt lat="44.06442" lon="5.71785">
        <ele>817.794</ele>
        <time>2020-09-02T11:39:28Z</time>
      </trkpt>
      <trkpt lat="44.06452" lon="5.71797">
        <ele>818.17</ele>
        <time>2020-09-02T11:39:29Z</time>
      </trkpt>
      <trkpt lat="44.06461" lon="5.7181">
        <ele>818.493</ele>
        <time>2020-09-02T11:39:30Z</time>
      </trkpt>
      <trkpt lat="44.0647" lon="5.71821">
        <ele>818.884</ele>
        <time>2020-09-02T11:39:31Z</time>
      </trkpt>
      <trkpt lat="44.06478" lon="5.71835">
        <ele>819.507</ele>
        <time>2020-09-02T11:39:32Z</time>
      </trkpt>
      <trkpt lat="44.06483" lon="5.7185">
        <ele>820.517</ele>
        <time>2020-09-02T11:39:33Z</time>
      </trkpt>
      <trkpt lat="44.06485" lon="5.71867">
        <ele>822.208</ele>
        <time>2020-09-02T11:39:34Z</time>
      </trkpt>
      <trkpt lat="44.06486" lon="5.71883">
        <ele>823.316</ele>
        <time>2020-09-02T11:39:35Z</time>
      </trkpt>
      <trkpt lat="44.06484" lon="5.719">
        <ele>824.935</ele>
        <time>2020-09-02T11:39:36Z</time>
      </trkpt>
      <trkpt lat="44.06485" lon="5.71917">
        <ele>825.465</ele>
        <time>2020-09-02T11:39:37Z</time>
      </trkpt>
      <trkpt lat="44.06487" lon="5.71934">
        <ele>826.432</ele>
        <time>2020-09-02T11:39:38Z</time>
      </trkpt>
      <trkpt lat="44.0649" lon="5.71952">
        <ele>827.473</ele>
        <time>2020-09-02T11:39:39Z</time>
      </trkpt>
      <trkpt lat="44.06492" lon="5.7197">
        <ele>828.321</ele>
        <time>2020-09-02T11:39:40Z</time>
      </trkpt>
      <trkpt lat="44.06494" lon="5.71988">
        <ele>829.067</ele>
        <time>2020-09-02T11:39:41Z</time>
      </trkpt>
      <trkpt lat="44.06495" lon="5.72008">
        <ele>829.61</ele>
        <time>2020-09-02T11:39:42Z</time>
      </trkpt>
      <trkpt lat="44.06494" lon="5.72029">
        <ele>830.866</ele>
        <time>2020-09-02T11:39:43Z</time>
      </trkpt>
      <trkpt lat="44.06492" lon="5.72049">
        <ele>831.429</ele>
        <time>2020-09-02T11:39:44Z</time>
      </trkpt>
      <trkpt lat="44.06491" lon="5.72068">
        <ele>832.421</ele>
        <time>2020-09-02T11:39:45Z</time>
      </trkpt>
      <trkpt lat="44.06492" lon="5.72084">
        <ele>833.308</ele>
        <time>2020-09-02T11:39:46Z</time>
      </trkpt>
      <trkpt lat="44.06495" lon="5.72097">
        <ele>834.524</ele>
        <time>2020-09-02T11:39:47Z</time>
      </trkpt>
      <trkpt lat="44.06497" lon="5.72105">
        <ele>834.943</ele>
        <time>2020-09-02T11:39:48Z</time>
      </trkpt>
      <trkpt lat="44.06498" lon="5.72111">
        <ele>835.543</ele>
        <time>2020-09-02T11:39:49Z</time>
      </trkpt>
      <trkpt lat="44.06499" lon="5.72118">
        <ele>835.29</ele>
        <time>2020-09-02T11:39:50Z</time>
      </trkpt>
      <trkpt lat="44.06499" lon="5.72128">
        <ele>835.731</ele>
        <time>2020-09-02T11:39:51Z</time>
      </trkpt>
      <trkpt lat="44.06496" lon="5.72137">
        <ele>835.859</ele>
        <time>2020-09-02T11:39:52Z</time>
      </trkpt>
      <trkpt lat="44.06491" lon="5.72148">
        <ele>835.855</ele>
        <time>2020-09-02T11:39:53Z</time>
      </trkpt>
      <trkpt lat="44.06484" lon="5.72157">
        <ele>836.078</ele>
        <time>2020-09-02T11:39:54Z</time>
      </trkpt>
      <trkpt lat="44.06476" lon="5.72165">
        <ele>836.291</ele>
        <time>2020-09-02T11:39:55Z</time>
      </trkpt>
      <trkpt lat="44.06467" lon="5.72174">
        <ele>836.281</ele>
        <time>2020-09-02T11:39:56Z</time>
      </trkpt>
      <trkpt lat="44.06459" lon="5.72185">
        <ele>836.619</ele>
        <time>2020-09-02T11:39:57Z</time>
      </trkpt>
      <trkpt lat="44.06449" lon="5.72193">
        <ele>836.808</ele>
        <time>2020-09-02T11:39:58Z</time>
      </trkpt>
      <trkpt lat="44.06439" lon="5.72202">
        <ele>837.647</ele>
        <time>2020-09-02T11:39:59Z</time>
      </trkpt>
      <trkpt lat="44.06429" lon="5.72209">
        <ele>838.156</ele>
        <time>2020-09-02T11:40:00Z</time>
      </trkpt>
      <trkpt lat="44.06421" lon="5.72215">
        <ele>838.756</ele>
        <time>2020-09-02T11:40:01Z</time>
      </trkpt>
      <trkpt lat="44.06415" lon="5.72222">
        <ele>839.283</ele>
        <time>2020-09-02T11:40:02Z</time>
      </trkpt>
      <trkpt lat="44.0641" lon="5.72229">
        <ele>838.924</ele>
        <time>2020-09-02T11:40:03Z</time>
      </trkpt>
      <trkpt lat="44.0641" lon="5.72237">
        <ele>839.182</ele>
        <time>2020-09-02T11:40:04Z</time>
      </trkpt>
      <trkpt lat="44.06409" lon="5.72245">
        <ele>838.948</ele>
        <time>2020-09-02T11:40:05Z</time>
      </trkpt>
      <trkpt lat="44.06412" lon="5.72254">
        <ele>839.331</ele>
        <time>2020-09-02T11:40:06Z</time>
      </trkpt>
      <trkpt lat="44.06425" lon="5.72265">
        <ele>838.981</ele>
        <time>2020-09-02T11:40:07Z</time>
      </trkpt>
      <trkpt lat="44.06433" lon="5.72276">
        <ele>839.761</ele>
        <time>2020-09-02T11:40:08Z</time>
      </trkpt>
      <trkpt lat="44.0644" lon="5.72289">
        <ele>840.317</ele>
        <time>2020-09-02T11:40:09Z</time>
      </trkpt>
      <trkpt lat="44.06446" lon="5.72304">
        <ele>841.408</ele>
        <time>2020-09-02T11:40:10Z</time>
      </trkpt>
      <trkpt lat="44.06451" lon="5.7232">
        <ele>842.426</ele>
        <time>2020-09-02T11:40:11Z</time>
      </trkpt>
      <trkpt lat="44.06458" lon="5.72337">
        <ele>843.485</ele>
        <time>2020-09-02T11:40:12Z</time>
      </trkpt>
      <trkpt lat="44.06466" lon="5.72353">
        <ele>844.435</ele>
        <time>2020-09-02T11:40:13Z</time>
      </trkpt>
      <trkpt lat="44.06475" lon="5.72367">
        <ele>845.672</ele>
        <time>2020-09-02T11:40:14Z</time>
      </trkpt>
      <trkpt lat="44.06484" lon="5.72381">
        <ele>846.013</ele>
        <time>2020-09-02T11:40:15Z</time>
      </trkpt>
      <trkpt lat="44.06494" lon="5.72394">
        <ele>846.891</ele>
        <time>2020-09-02T11:40:16Z</time>
      </trkpt>
      <trkpt lat="44.06503" lon="5.72407">
        <ele>847.677</ele>
        <time>2020-09-02T11:40:17Z</time>
      </trkpt>
      <trkpt lat="44.0651" lon="5.7242">
        <ele>848.47</ele>
        <time>2020-09-02T11:40:18Z</time>
      </trkpt>
      <trkpt lat="44.06516" lon="5.72434">
        <ele>849.348</ele>
        <time>2020-09-02T11:40:19Z</time>
      </trkpt>
      <trkpt lat="44.06521" lon="5.72449">
        <ele>850.261</ele>
        <time>2020-09-02T11:40:20Z</time>
      </trkpt>
      <trkpt lat="44.06526" lon="5.72463">
        <ele>851.217</ele>
        <time>2020-09-02T11:40:21Z</time>
      </trkpt>
      <trkpt lat="44.06532" lon="5.72478">
        <ele>852.408</ele>
        <time>2020-09-02T11:40:22Z</time>
      </trkpt>
      <trkpt lat="44.06537" lon="5.72494">
        <ele>852.922</ele>
        <time>2020-09-02T11:40:23Z</time>
      </trkpt>
      <trkpt lat="44.06542" lon="5.72511">
        <ele>853.781</ele>
        <time>2020-09-02T11:40:24Z</time>
      </trkpt>
      <trkpt lat="44.06546" lon="5.72528">
        <ele>854.221</ele>
        <time>2020-09-02T11:40:25Z</time>
      </trkpt>
      <trkpt lat="44.06551" lon="5.72545">
        <ele>855.078</ele>
        <time>2020-09-02T11:40:26Z</time>
      </trkpt>
      <trkpt lat="44.06556" lon="5.72561">
        <ele>856.169</ele>
        <time>2020-09-02T11:40:27Z</time>
      </trkpt>
      <trkpt lat="44.06562" lon="5.72577">
        <ele>856.727</ele>
        <time>2020-09-02T11:40:28Z</time>
      </trkpt>
      <trkpt lat="44.06569" lon="5.72592">
        <ele>857.193</ele>
        <time>2020-09-02T11:40:29Z</time>
      </trkpt>
      <trkpt lat="44.06576" lon="5.72606">
        <ele>858.026</ele>
        <time>2020-09-02T11:40:30Z</time>
      </trkpt>
      <trkpt lat="44.06583" lon="5.72618">
        <ele>858.441</ele>
        <time>2020-09-02T11:40:31Z</time>
      </trkpt>
      <trkpt lat="44.06591" lon="5.72629">
        <ele>858.081</ele>
        <time>2020-09-02T11:40:32Z</time>
      </trkpt>
      <trkpt lat="44.06598" lon="5.72639">
        <ele>857.609</ele>
        <time>2020-09-02T11:40:33Z</time>
      </trkpt>
      <trkpt lat="44.06605" lon="5.72649">
        <ele>857.508</ele>
        <time>2020-09-02T11:40:34Z</time>
      </trkpt>
      <trkpt lat="44.06613" lon="5.72662">
        <ele>856.822</ele>
        <time>2020-09-02T11:40:35Z</time>
      </trkpt>
      <trkpt lat="44.06621" lon="5.72676">
        <ele>857.311</ele>
        <time>2020-09-02T11:40:36Z</time>
      </trkpt>
      <trkpt lat="44.06628" lon="5.72691">
        <ele>857.451</ele>
        <time>2020-09-02T11:40:37Z</time>
      </trkpt>
      <trkpt lat="44.06635" lon="5.72707">
        <ele>857.148</ele>
        <time>2020-09-02T11:40:38Z</time>
      </trkpt>
      <trkpt lat="44.06641" lon="5.72722">
        <ele>856.919</ele>
        <time>2020-09-02T11:40:39Z</time>
      </trkpt>
      <trkpt lat="44.06649" lon="5.72738">
        <ele>856.557</ele>
        <time>2020-09-02T11:40:40Z</time>
      </trkpt>
      <trkpt lat="44.06654" lon="5.72751">
        <ele>856.443</ele>
        <time>2020-09-02T11:40:41Z</time>
      </trkpt>
      <trkpt lat="44.06662" lon="5.7276">
        <ele>855.966</ele>
        <time>2020-09-02T11:40:42Z</time>
      </trkpt>
      <trkpt lat="44.06673" lon="5.72764">
        <ele>855.818</ele>
        <time>2020-09-02T11:40:43Z</time>
      </trkpt>
      <trkpt lat="44.06682" lon="5.72769">
        <ele>856.598</ele>
        <time>2020-09-02T11:40:44Z</time>
      </trkpt>
      <trkpt lat="44.06693" lon="5.72773">
        <ele>856.117</ele>
        <time>2020-09-02T11:40:45Z</time>
      </trkpt>
      <trkpt lat="44.06705" lon="5.72778">
        <ele>855.808</ele>
        <time>2020-09-02T11:40:46Z</time>
      </trkpt>
      <trkpt lat="44.06717" lon="5.72782">
        <ele>855.869</ele>
        <time>2020-09-02T11:40:47Z</time>
      </trkpt>
      <trkpt lat="44.06727" lon="5.72784">
        <ele>856.278</ele>
        <time>2020-09-02T11:40:48Z</time>
      </trkpt>
      <trkpt lat="44.06737" lon="5.72785">
        <ele>855.648</ele>
        <time>2020-09-02T11:40:49Z</time>
      </trkpt>
      <trkpt lat="44.06746" lon="5.72785">
        <ele>855.775</ele>
        <time>2020-09-02T11:40:50Z</time>
      </trkpt>
      <trkpt lat="44.06755" lon="5.72783">
        <ele>856.436</ele>
        <time>2020-09-02T11:40:51Z</time>
      </trkpt>
      <trkpt lat="44.06764" lon="5.72781">
        <ele>856.454</ele>
        <time>2020-09-02T11:40:52Z</time>
      </trkpt>
      <trkpt lat="44.06773" lon="5.72779">
        <ele>856.07</ele>
        <time>2020-09-02T11:40:53Z</time>
      </trkpt>
      <trkpt lat="44.06781" lon="5.72779">
        <ele>856.733</ele>
        <time>2020-09-02T11:40:54Z</time>
      </trkpt>
      <trkpt lat="44.06789" lon="5.72782">
        <ele>856.655</ele>
        <time>2020-09-02T11:40:55Z</time>
      </trkpt>
      <trkpt lat="44.06796" lon="5.72787">
        <ele>857.007</ele>
        <time>2020-09-02T11:40:56Z</time>
      </trkpt>
      <trkpt lat="44.06802" lon="5.72792">
        <ele>857.717</ele>
        <time>2020-09-02T11:40:57Z</time>
      </trkpt>
      <trkpt lat="44.06808" lon="5.72798">
        <ele>858.708</ele>
        <time>2020-09-02T11:40:58Z</time>
      </trkpt>
      <trkpt lat="44.06814" lon="5.72804">
        <ele>859.323</ele>
        <time>2020-09-02T11:40:59Z</time>
      </trkpt>
      <trkpt lat="44.06828" lon="5.72805">
        <ele>858.592</ele>
        <time>2020-09-02T11:41:01Z</time>
      </trkpt>
      <trkpt lat="44.06838" lon="5.72805">
        <ele>858.572</ele>
        <time>2020-09-02T11:41:02Z</time>
      </trkpt>
      <trkpt lat="44.06848" lon="5.72805">
        <ele>858.759</ele>
        <time>2020-09-02T11:41:03Z</time>
      </trkpt>
      <trkpt lat="44.06856" lon="5.72804">
        <ele>859.33</ele>
        <time>2020-09-02T11:41:04Z</time>
      </trkpt>
      <trkpt lat="44.06866" lon="5.72799">
        <ele>859.158</ele>
        <time>2020-09-02T11:41:05Z</time>
      </trkpt>
      <trkpt lat="44.06876" lon="5.72793">
        <ele>859.764</ele>
        <time>2020-09-02T11:41:06Z</time>
      </trkpt>
      <trkpt lat="44.06886" lon="5.72781">
        <ele>860.747</ele>
        <time>2020-09-02T11:41:07Z</time>
      </trkpt>
      <trkpt lat="44.06894" lon="5.7277">
        <ele>861.582</ele>
        <time>2020-09-02T11:41:08Z</time>
      </trkpt>
      <trkpt lat="44.06902" lon="5.72762">
        <ele>862.543</ele>
        <time>2020-09-02T11:41:09Z</time>
      </trkpt>
      <trkpt lat="44.06912" lon="5.72753">
        <ele>862.517</ele>
        <time>2020-09-02T11:41:10Z</time>
      </trkpt>
      <trkpt lat="44.06919" lon="5.72748">
        <ele>862.808</ele>
        <time>2020-09-02T11:41:11Z</time>
      </trkpt>
      <trkpt lat="44.06928" lon="5.72746">
        <ele>863.196</ele>
        <time>2020-09-02T11:41:12Z</time>
      </trkpt>
      <trkpt lat="44.06937" lon="5.72745">
        <ele>864.455</ele>
        <time>2020-09-02T11:41:13Z</time>
      </trkpt>
      <trkpt lat="44.06946" lon="5.72744">
        <ele>864.865</ele>
        <time>2020-09-02T11:41:14Z</time>
      </trkpt>
      <trkpt lat="44.06956" lon="5.72746">
        <ele>865.132</ele>
        <time>2020-09-02T11:41:15Z</time>
      </trkpt>
      <trkpt lat="44.06967" lon="5.72748">
        <ele>865.723</ele>
        <time>2020-09-02T11:41:16Z</time>
      </trkpt>
      <trkpt lat="44.06979" lon="5.72753">
        <ele>866.141</ele>
        <time>2020-09-02T11:41:17Z</time>
      </trkpt>
      <trkpt lat="44.0699" lon="5.7276">
        <ele>866.397</ele>
        <time>2020-09-02T11:41:18Z</time>
      </trkpt>
      <trkpt lat="44.07" lon="5.72767">
        <ele>865.77</ele>
        <time>2020-09-02T11:41:19Z</time>
      </trkpt>
      <trkpt lat="44.07011" lon="5.72772">
        <ele>865.191</ele>
        <time>2020-09-02T11:41:20Z</time>
      </trkpt>
      <trkpt lat="44.07021" lon="5.72777">
        <ele>865.781</ele>
        <time>2020-09-02T11:41:21Z</time>
      </trkpt>
      <trkpt lat="44.0703" lon="5.72783">
        <ele>866.219</ele>
        <time>2020-09-02T11:41:22Z</time>
      </trkpt>
      <trkpt lat="44.07039" lon="5.72788">
        <ele>866.508</ele>
        <time>2020-09-02T11:41:23Z</time>
      </trkpt>
      <trkpt lat="44.07048" lon="5.72793">
        <ele>866.967</ele>
        <time>2020-09-02T11:41:24Z</time>
      </trkpt>
      <trkpt lat="44.07058" lon="5.72795">
        <ele>867.626</ele>
        <time>2020-09-02T11:41:25Z</time>
      </trkpt>
      <trkpt lat="44.07067" lon="5.72794">
        <ele>868.036</ele>
        <time>2020-09-02T11:41:26Z</time>
      </trkpt>
      <trkpt lat="44.07079" lon="5.72794">
        <ele>868.723</ele>
        <time>2020-09-02T11:41:27Z</time>
      </trkpt>
      <trkpt lat="44.0709" lon="5.72796">
        <ele>869.164</ele>
        <time>2020-09-02T11:41:28Z</time>
      </trkpt>
      <trkpt lat="44.07102" lon="5.72799">
        <ele>868.612</ele>
        <time>2020-09-02T11:41:29Z</time>
      </trkpt>
      <trkpt lat="44.07114" lon="5.72803">
        <ele>869.818</ele>
        <time>2020-09-02T11:41:30Z</time>
      </trkpt>
      <trkpt lat="44.07125" lon="5.72808">
        <ele>871.671</ele>
        <time>2020-09-02T11:41:31Z</time>
      </trkpt>
      <trkpt lat="44.07137" lon="5.72813">
        <ele>872.619</ele>
        <time>2020-09-02T11:41:32Z</time>
      </trkpt>
      <trkpt lat="44.07149" lon="5.72818">
        <ele>873.109</ele>
        <time>2020-09-02T11:41:33Z</time>
      </trkpt>
      <trkpt lat="44.07162" lon="5.72823">
        <ele>873.419</ele>
        <time>2020-09-02T11:41:34Z</time>
      </trkpt>
      <trkpt lat="44.07174" lon="5.72827">
        <ele>873.908</ele>
        <time>2020-09-02T11:41:35Z</time>
      </trkpt>
      <trkpt lat="44.07184" lon="5.72831">
        <ele>874.699</ele>
        <time>2020-09-02T11:41:36Z</time>
      </trkpt>
      <trkpt lat="44.07196" lon="5.72834">
        <ele>875.668</ele>
        <time>2020-09-02T11:41:37Z</time>
      </trkpt>
      <trkpt lat="44.07208" lon="5.72836">
        <ele>876.098</ele>
        <time>2020-09-02T11:41:38Z</time>
      </trkpt>
      <trkpt lat="44.07219" lon="5.72838">
        <ele>876.435</ele>
        <time>2020-09-02T11:41:39Z</time>
      </trkpt>
      <trkpt lat="44.07229" lon="5.72838">
        <ele>877.256</ele>
        <time>2020-09-02T11:41:40Z</time>
      </trkpt>
      <trkpt lat="44.0724" lon="5.72839">
        <ele>877.694</ele>
        <time>2020-09-02T11:41:41Z</time>
      </trkpt>
      <trkpt lat="44.07251" lon="5.72841">
        <ele>878.66</ele>
        <time>2020-09-02T11:41:42Z</time>
      </trkpt>
      <trkpt lat="44.07262" lon="5.72843">
        <ele>879.543</ele>
        <time>2020-09-02T11:41:43Z</time>
      </trkpt>
      <trkpt lat="44.07273" lon="5.72845">
        <ele>880.457</ele>
        <time>2020-09-02T11:41:44Z</time>
      </trkpt>
      <trkpt lat="44.07285" lon="5.72846">
        <ele>881.6</ele>
        <time>2020-09-02T11:41:45Z</time>
      </trkpt>
      <trkpt lat="44.07298" lon="5.72847">
        <ele>882.32</ele>
        <time>2020-09-02T11:41:46Z</time>
      </trkpt>
      <trkpt lat="44.07311" lon="5.7285">
        <ele>882.908</ele>
        <time>2020-09-02T11:41:47Z</time>
      </trkpt>
      <trkpt lat="44.07324" lon="5.72852">
        <ele>883.043</ele>
        <time>2020-09-02T11:41:48Z</time>
      </trkpt>
      <trkpt lat="44.07336" lon="5.72853">
        <ele>882.592</ele>
        <time>2020-09-02T11:41:49Z</time>
      </trkpt>
      <trkpt lat="44.07348" lon="5.72854">
        <ele>882.572</ele>
        <time>2020-09-02T11:41:50Z</time>
      </trkpt>
      <trkpt lat="44.0736" lon="5.72855">
        <ele>883.049</ele>
        <time>2020-09-02T11:41:51Z</time>
      </trkpt>
      <trkpt lat="44.0737" lon="5.72857">
        <ele>884.05</ele>
        <time>2020-09-02T11:41:52Z</time>
      </trkpt>
      <trkpt lat="44.07381" lon="5.72862">
        <ele>882.958</ele>
        <time>2020-09-02T11:41:53Z</time>
      </trkpt>
      <trkpt lat="44.07393" lon="5.72865">
        <ele>883.984</ele>
        <time>2020-09-02T11:41:54Z</time>
      </trkpt>
      <trkpt lat="44.07405" lon="5.72868">
        <ele>884.797</ele>
        <time>2020-09-02T11:41:55Z</time>
      </trkpt>
      <trkpt lat="44.07419" lon="5.7287">
        <ele>885.466</ele>
        <time>2020-09-02T11:41:56Z</time>
      </trkpt>
      <trkpt lat="44.0743" lon="5.72871">
        <ele>885.729</ele>
        <time>2020-09-02T11:41:57Z</time>
      </trkpt>
      <trkpt lat="44.0744" lon="5.72875">
        <ele>886.521</ele>
        <time>2020-09-02T11:41:58Z</time>
      </trkpt>
      <trkpt lat="44.0745" lon="5.72878">
        <ele>887.908</ele>
        <time>2020-09-02T11:41:59Z</time>
      </trkpt>
      <trkpt lat="44.0746" lon="5.72882">
        <ele>888.864</ele>
        <time>2020-09-02T11:42:00Z</time>
      </trkpt>
      <trkpt lat="44.0747" lon="5.72886">
        <ele>889.013</ele>
        <time>2020-09-02T11:42:01Z</time>
      </trkpt>
      <trkpt lat="44.07478" lon="5.72893">
        <ele>889.223</ele>
        <time>2020-09-02T11:42:02Z</time>
      </trkpt>
      <trkpt lat="44.07486" lon="5.729">
        <ele>889.94</ele>
        <time>2020-09-02T11:42:03Z</time>
      </trkpt>
      <trkpt lat="44.07493" lon="5.72912">
        <ele>891.211</ele>
        <time>2020-09-02T11:42:04Z</time>
      </trkpt>
      <trkpt lat="44.07502" lon="5.72922">
        <ele>892.329</ele>
        <time>2020-09-02T11:42:05Z</time>
      </trkpt>
      <trkpt lat="44.07511" lon="5.72932">
        <ele>893.095</ele>
        <time>2020-09-02T11:42:06Z</time>
      </trkpt>
      <trkpt lat="44.07523" lon="5.7294">
        <ele>893.228</ele>
        <time>2020-09-02T11:42:07Z</time>
      </trkpt>
      <trkpt lat="44.07531" lon="5.72949">
        <ele>894.918</ele>
        <time>2020-09-02T11:42:08Z</time>
      </trkpt>
      <trkpt lat="44.0754" lon="5.72956">
        <ele>895.498</ele>
        <time>2020-09-02T11:42:09Z</time>
      </trkpt>
      <trkpt lat="44.07546" lon="5.72963">
        <ele>895.317</ele>
        <time>2020-09-02T11:42:10Z</time>
      </trkpt>
      <trkpt lat="44.07552" lon="5.72968">
        <ele>895.408</ele>
        <time>2020-09-02T11:42:11Z</time>
      </trkpt>
      <trkpt lat="44.07558" lon="5.72976">
        <ele>895.629</ele>
        <time>2020-09-02T11:42:12Z</time>
      </trkpt>
      <trkpt lat="44.07563" lon="5.72986">
        <ele>896.028</ele>
        <time>2020-09-02T11:42:13Z</time>
      </trkpt>
      <trkpt lat="44.07569" lon="5.72996">
        <ele>896.128</ele>
        <time>2020-09-02T11:42:14Z</time>
      </trkpt>
      <trkpt lat="44.07575" lon="5.73005">
        <ele>895.685</ele>
        <time>2020-09-02T11:42:15Z</time>
      </trkpt>
      <trkpt lat="44.07583" lon="5.73012">
        <ele>895.496</ele>
        <time>2020-09-02T11:42:16Z</time>
      </trkpt>
      <trkpt lat="44.07592" lon="5.73019">
        <ele>896.144</ele>
        <time>2020-09-02T11:42:17Z</time>
      </trkpt>
      <trkpt lat="44.07601" lon="5.73025">
        <ele>896.95</ele>
        <time>2020-09-02T11:42:18Z</time>
      </trkpt>
      <trkpt lat="44.07606" lon="5.73038">
        <ele>897.323</ele>
        <time>2020-09-02T11:42:19Z</time>
      </trkpt>
      <trkpt lat="44.07612" lon="5.7305">
        <ele>898.252</ele>
        <time>2020-09-02T11:42:20Z</time>
      </trkpt>
      <trkpt lat="44.07621" lon="5.73062">
        <ele>898.153</ele>
        <time>2020-09-02T11:42:21Z</time>
      </trkpt>
      <trkpt lat="44.07628" lon="5.73075">
        <ele>899.008</ele>
        <time>2020-09-02T11:42:22Z</time>
      </trkpt>
      <trkpt lat="44.07638" lon="5.73087">
        <ele>898.508</ele>
        <time>2020-09-02T11:42:23Z</time>
      </trkpt>
      <trkpt lat="44.07645" lon="5.731">
        <ele>899.383</ele>
        <time>2020-09-02T11:42:24Z</time>
      </trkpt>
      <trkpt lat="44.07653" lon="5.73107">
        <ele>899.612</ele>
        <time>2020-09-02T11:42:25Z</time>
      </trkpt>
      <trkpt lat="44.07659" lon="5.73117">
        <ele>900.732</ele>
        <time>2020-09-02T11:42:26Z</time>
      </trkpt>
      <trkpt lat="44.07667" lon="5.73128">
        <ele>901.419</ele>
        <time>2020-09-02T11:42:27Z</time>
      </trkpt>
      <trkpt lat="44.07678" lon="5.73138">
        <ele>901.62</ele>
        <time>2020-09-02T11:42:28Z</time>
      </trkpt>
      <trkpt lat="44.07689" lon="5.73147">
        <ele>902.128</ele>
        <time>2020-09-02T11:42:29Z</time>
      </trkpt>
      <trkpt lat="44.077" lon="5.73154">
        <ele>901.944</ele>
        <time>2020-09-02T11:42:30Z</time>
      </trkpt>
      <trkpt lat="44.07712" lon="5.7316">
        <ele>901.027</ele>
        <time>2020-09-02T11:42:31Z</time>
      </trkpt>
      <trkpt lat="44.07722" lon="5.73164">
        <ele>900.527</ele>
        <time>2020-09-02T11:42:32Z</time>
      </trkpt>
      <trkpt lat="44.07731" lon="5.73168">
        <ele>901.168</ele>
        <time>2020-09-02T11:42:33Z</time>
      </trkpt>
      <trkpt lat="44.07742" lon="5.73169">
        <ele>900.914</ele>
        <time>2020-09-02T11:42:34Z</time>
      </trkpt>
      <trkpt lat="44.07752" lon="5.7317">
        <ele>900.808</ele>
        <time>2020-09-02T11:42:35Z</time>
      </trkpt>
      <trkpt lat="44.07762" lon="5.73172">
        <ele>900.94</ele>
        <time>2020-09-02T11:42:36Z</time>
      </trkpt>
      <trkpt lat="44.07772" lon="5.73174">
        <ele>901.669</ele>
        <time>2020-09-02T11:42:37Z</time>
      </trkpt>
      <trkpt lat="44.07783" lon="5.73176">
        <ele>902.869</ele>
        <time>2020-09-02T11:42:38Z</time>
      </trkpt>
      <trkpt lat="44.07794" lon="5.73176">
        <ele>903.726</ele>
        <time>2020-09-02T11:42:39Z</time>
      </trkpt>
      <trkpt lat="44.07805" lon="5.73176">
        <ele>904.557</ele>
        <time>2020-09-02T11:42:40Z</time>
      </trkpt>
      <trkpt lat="44.07817" lon="5.73175">
        <ele>905.535</ele>
        <time>2020-09-02T11:42:41Z</time>
      </trkpt>
      <trkpt lat="44.07828" lon="5.73174">
        <ele>905.221</ele>
        <time>2020-09-02T11:42:42Z</time>
      </trkpt>
      <trkpt lat="44.07839" lon="5.73173">
        <ele>905.484</ele>
        <time>2020-09-02T11:42:43Z</time>
      </trkpt>
      <trkpt lat="44.0785" lon="5.73172">
        <ele>905.741</ele>
        <time>2020-09-02T11:42:44Z</time>
      </trkpt>
      <trkpt lat="44.07861" lon="5.73173">
        <ele>907.181</ele>
        <time>2020-09-02T11:42:45Z</time>
      </trkpt>
      <trkpt lat="44.07873" lon="5.73174">
        <ele>907.509</ele>
        <time>2020-09-02T11:42:46Z</time>
      </trkpt>
      <trkpt lat="44.07884" lon="5.73176">
        <ele>908.308</ele>
        <time>2020-09-02T11:42:47Z</time>
      </trkpt>
      <trkpt lat="44.07894" lon="5.73175">
        <ele>908.742</ele>
        <time>2020-09-02T11:42:48Z</time>
      </trkpt>
      <trkpt lat="44.07903" lon="5.73175">
        <ele>908.851</ele>
        <time>2020-09-02T11:42:49Z</time>
      </trkpt>
      <trkpt lat="44.07911" lon="5.73173">
        <ele>908.611</ele>
        <time>2020-09-02T11:42:50Z</time>
      </trkpt>
      <trkpt lat="44.07919" lon="5.73174">
        <ele>909.698</ele>
        <time>2020-09-02T11:42:51Z</time>
      </trkpt>
      <trkpt lat="44.07931" lon="5.73173">
        <ele>909.989</ele>
        <time>2020-09-02T11:42:52Z</time>
      </trkpt>
      <trkpt lat="44.07942" lon="5.73176">
        <ele>910.827</ele>
        <time>2020-09-02T11:42:53Z</time>
      </trkpt>
      <trkpt lat="44.07952" lon="5.73179">
        <ele>912.233</ele>
        <time>2020-09-02T11:42:54Z</time>
      </trkpt>
      <trkpt lat="44.07962" lon="5.73182">
        <ele>913.956</ele>
        <time>2020-09-02T11:42:55Z</time>
      </trkpt>
      <trkpt lat="44.07972" lon="5.73186">
        <ele>915.594</ele>
        <time>2020-09-02T11:42:56Z</time>
      </trkpt>
      <trkpt lat="44.07982" lon="5.73188">
        <ele>915.957</ele>
        <time>2020-09-02T11:42:57Z</time>
      </trkpt>
      <trkpt lat="44.07993" lon="5.73194">
        <ele>917.722</ele>
        <time>2020-09-02T11:42:58Z</time>
      </trkpt>
      <trkpt lat="44.08003" lon="5.73195">
        <ele>918.108</ele>
        <time>2020-09-02T11:42:59Z</time>
      </trkpt>
      <trkpt lat="44.08014" lon="5.73198">
        <ele>918.247</ele>
        <time>2020-09-02T11:43:00Z</time>
      </trkpt>
      <trkpt lat="44.08024" lon="5.73201">
        <ele>918.626</ele>
        <time>2020-09-02T11:43:01Z</time>
      </trkpt>
      <trkpt lat="44.08033" lon="5.73204">
        <ele>919.566</ele>
        <time>2020-09-02T11:43:02Z</time>
      </trkpt>
      <trkpt lat="44.08045" lon="5.73209">
        <ele>920.563</ele>
        <time>2020-09-02T11:43:03Z</time>
      </trkpt>
      <trkpt lat="44.08056" lon="5.73215">
        <ele>921.394</ele>
        <time>2020-09-02T11:43:04Z</time>
      </trkpt>
      <trkpt lat="44.08067" lon="5.7322">
        <ele>923.062</ele>
        <time>2020-09-02T11:43:05Z</time>
      </trkpt>
      <trkpt lat="44.08079" lon="5.73226">
        <ele>923.238</ele>
        <time>2020-09-02T11:43:06Z</time>
      </trkpt>
      <trkpt lat="44.08088" lon="5.73229">
        <ele>923.631</ele>
        <time>2020-09-02T11:43:07Z</time>
      </trkpt>
      <trkpt lat="44.08097" lon="5.73235">
        <ele>923.744</ele>
        <time>2020-09-02T11:43:08Z</time>
      </trkpt>
      <trkpt lat="44.08105" lon="5.73239">
        <ele>924.705</ele>
        <time>2020-09-02T11:43:09Z</time>
      </trkpt>
      <trkpt lat="44.08113" lon="5.7324">
        <ele>925.115</ele>
        <time>2020-09-02T11:43:10Z</time>
      </trkpt>
      <trkpt lat="44.08122" lon="5.7324">
        <ele>926.008</ele>
        <time>2020-09-02T11:43:11Z</time>
      </trkpt>
      <trkpt lat="44.08129" lon="5.73241">
        <ele>926.352</ele>
        <time>2020-09-02T11:43:12Z</time>
      </trkpt>
      <trkpt lat="44.08137" lon="5.73247">
        <ele>926.071</ele>
        <time>2020-09-02T11:43:13Z</time>
      </trkpt>
      <trkpt lat="44.08147" lon="5.73254">
        <ele>925.771</ele>
        <time>2020-09-02T11:43:14Z</time>
      </trkpt>
      <trkpt lat="44.08158" lon="5.73265">
        <ele>925.638</ele>
        <time>2020-09-02T11:43:15Z</time>
      </trkpt>
      <trkpt lat="44.08167" lon="5.73273">
        <ele>927.529</ele>
        <time>2020-09-02T11:43:16Z</time>
      </trkpt>
      <trkpt lat="44.08176" lon="5.73282">
        <ele>929.847</ele>
        <time>2020-09-02T11:43:17Z</time>
      </trkpt>
      <trkpt lat="44.08185" lon="5.73291">
        <ele>930.833</ele>
        <time>2020-09-02T11:43:18Z</time>
      </trkpt>
      <trkpt lat="44.08193" lon="5.73302">
        <ele>931.916</ele>
        <time>2020-09-02T11:43:19Z</time>
      </trkpt>
      <trkpt lat="44.08202" lon="5.7331">
        <ele>932.435</ele>
        <time>2020-09-02T11:43:20Z</time>
      </trkpt>
      <trkpt lat="44.08209" lon="5.73315">
        <ele>932.586</ele>
        <time>2020-09-02T11:43:21Z</time>
      </trkpt>
      <trkpt lat="44.08217" lon="5.7332">
        <ele>933.614</ele>
        <time>2020-09-02T11:43:22Z</time>
      </trkpt>
      <trkpt lat="44.08221" lon="5.73325">
        <ele>935.308</ele>
        <time>2020-09-02T11:43:23Z</time>
      </trkpt>
      <trkpt lat="44.08227" lon="5.73331">
        <ele>936.081</ele>
        <time>2020-09-02T11:43:24Z</time>
      </trkpt>
      <trkpt lat="44.08228" lon="5.73341">
        <ele>937.45</ele>
        <time>2020-09-02T11:43:25Z</time>
      </trkpt>
      <trkpt lat="44.08226" lon="5.73354">
        <ele>937.87</ele>
        <time>2020-09-02T11:43:26Z</time>
      </trkpt>
      <trkpt lat="44.08224" lon="5.73365">
        <ele>937.617</ele>
        <time>2020-09-02T11:43:27Z</time>
      </trkpt>
      <trkpt lat="44.0822" lon="5.73379">
        <ele>938.668</ele>
        <time>2020-09-02T11:43:28Z</time>
      </trkpt>
      <trkpt lat="44.08215" lon="5.7339">
        <ele>939.696</ele>
        <time>2020-09-02T11:43:29Z</time>
      </trkpt>
      <trkpt lat="44.08213" lon="5.73402">
        <ele>940.042</ele>
        <time>2020-09-02T11:43:30Z</time>
      </trkpt>
      <trkpt lat="44.08213" lon="5.73415">
        <ele>940.555</ele>
        <time>2020-09-02T11:43:31Z</time>
      </trkpt>
      <trkpt lat="44.08212" lon="5.73426">
        <ele>941.333</ele>
        <time>2020-09-02T11:43:32Z</time>
      </trkpt>
      <trkpt lat="44.08211" lon="5.73438">
        <ele>941.923</ele>
        <time>2020-09-02T11:43:33Z</time>
      </trkpt>
      <trkpt lat="44.0821" lon="5.73451">
        <ele>941.715</ele>
        <time>2020-09-02T11:43:34Z</time>
      </trkpt>
      <trkpt lat="44.08211" lon="5.73464">
        <ele>941.908</ele>
        <time>2020-09-02T11:43:35Z</time>
      </trkpt>
      <trkpt lat="44.08211" lon="5.73479">
        <ele>942.121</ele>
        <time>2020-09-02T11:43:36Z</time>
      </trkpt>
      <trkpt lat="44.08213" lon="5.73493">
        <ele>942.67</ele>
        <time>2020-09-02T11:43:37Z</time>
      </trkpt>
      <trkpt lat="44.08214" lon="5.73505">
        <ele>943.76</ele>
        <time>2020-09-02T11:43:38Z</time>
      </trkpt>
      <trkpt lat="44.08215" lon="5.73517">
        <ele>944.467</ele>
        <time>2020-09-02T11:43:39Z</time>
      </trkpt>
      <trkpt lat="44.0822" lon="5.73522">
        <ele>945.038</ele>
        <time>2020-09-02T11:43:40Z</time>
      </trkpt>
      <trkpt lat="44.08223" lon="5.73529">
        <ele>944.846</ele>
        <time>2020-09-02T11:43:41Z</time>
      </trkpt>
      <trkpt lat="44.08228" lon="5.73537">
        <ele>944.712</ele>
        <time>2020-09-02T11:43:42Z</time>
      </trkpt>
      <trkpt lat="44.08234" lon="5.73546">
        <ele>944.425</ele>
        <time>2020-09-02T11:43:43Z</time>
      </trkpt>
      <trkpt lat="44.08239" lon="5.73554">
        <ele>944.641</ele>
        <time>2020-09-02T11:43:44Z</time>
      </trkpt>
      <trkpt lat="44.08243" lon="5.7356">
        <ele>944.481</ele>
        <time>2020-09-02T11:43:45Z</time>
      </trkpt>
      <trkpt lat="44.08248" lon="5.73567">
        <ele>944.609</ele>
        <time>2020-09-02T11:43:46Z</time>
      </trkpt>
      <trkpt lat="44.08252" lon="5.73572">
        <ele>944.508</ele>
        <time>2020-09-02T11:43:47Z</time>
      </trkpt>
      <trkpt lat="44.08255" lon="5.73577">
        <ele>943.682</ele>
        <time>2020-09-02T11:43:48Z</time>
      </trkpt>
      <trkpt lat="44.08259" lon="5.73581">
        <ele>943.351</ele>
        <time>2020-09-02T11:43:49Z</time>
      </trkpt>
      <trkpt lat="44.08267" lon="5.73588">
        <ele>943.261</ele>
        <time>2020-09-02T11:43:51Z</time>
      </trkpt>
      <trkpt lat="44.08269" lon="5.73593">
        <ele>943.438</ele>
        <time>2020-09-02T11:43:53Z</time>
      </trkpt>
      <trkpt lat="44.08265" lon="5.73595">
        <ele>943.369</ele>
        <time>2020-09-02T11:43:54Z</time>
      </trkpt>
      <trkpt lat="44.08259" lon="5.73591">
        <ele>944.787</ele>
        <time>2020-09-02T11:43:56Z</time>
      </trkpt>
      <trkpt lat="44.08252" lon="5.73585">
        <ele>945.273</ele>
        <time>2020-09-02T11:43:58Z</time>
      </trkpt>
      <trkpt lat="44.08248" lon="5.73581">
        <ele>945.686</ele>
        <time>2020-09-02T11:43:59Z</time>
      </trkpt>
      <trkpt lat="44.08243" lon="5.73576">
        <ele>946.125</ele>
        <time>2020-09-02T11:44:00Z</time>
      </trkpt>
      <trkpt lat="44.08239" lon="5.7357">
        <ele>946.926</ele>
        <time>2020-09-02T11:44:01Z</time>
      </trkpt>
      <trkpt lat="44.08233" lon="5.73563">
        <ele>947.308</ele>
        <time>2020-09-02T11:44:02Z</time>
      </trkpt>
      <trkpt lat="44.08227" lon="5.73557">
        <ele>947.108</ele>
        <time>2020-09-02T11:44:03Z</time>
      </trkpt>
      <trkpt lat="44.08222" lon="5.73551">
        <ele>947.96</ele>
        <time>2020-09-02T11:44:04Z</time>
      </trkpt>
      <trkpt lat="44.08215" lon="5.73544">
        <ele>948.719</ele>
        <time>2020-09-02T11:44:05Z</time>
      </trkpt>
      <trkpt lat="44.0821" lon="5.73537">
        <ele>949.829</ele>
        <time>2020-09-02T11:44:06Z</time>
      </trkpt>
      <trkpt lat="44.08204" lon="5.73529">
        <ele>950.326</ele>
        <time>2020-09-02T11:44:07Z</time>
      </trkpt>
      <trkpt lat="44.08199" lon="5.73522">
        <ele>951.227</ele>
        <time>2020-09-02T11:44:08Z</time>
      </trkpt>
      <trkpt lat="44.08194" lon="5.73514">
        <ele>952.065</ele>
        <time>2020-09-02T11:44:09Z</time>
      </trkpt>
      <trkpt lat="44.08189" lon="5.73504">
        <ele>952.181</ele>
        <time>2020-09-02T11:44:10Z</time>
      </trkpt>
      <trkpt lat="44.08186" lon="5.73494">
        <ele>952.734</ele>
        <time>2020-09-02T11:44:11Z</time>
      </trkpt>
      <trkpt lat="44.08183" lon="5.73482">
        <ele>952.369</ele>
        <time>2020-09-02T11:44:12Z</time>
      </trkpt>
      <trkpt lat="44.0818" lon="5.7347">
        <ele>951.404</ele>
        <time>2020-09-02T11:44:13Z</time>
      </trkpt>
      <trkpt lat="44.08178" lon="5.7346">
        <ele>952.624</ele>
        <time>2020-09-02T11:44:14Z</time>
      </trkpt>
      <trkpt lat="44.08176" lon="5.73449">
        <ele>950.908</ele>
        <time>2020-09-02T11:44:15Z</time>
      </trkpt>
      <trkpt lat="44.08174" lon="5.7344">
        <ele>950.824</ele>
        <time>2020-09-02T11:44:16Z</time>
      </trkpt>
      <trkpt lat="44.08173" lon="5.73434">
        <ele>950.723</ele>
        <time>2020-09-02T11:44:17Z</time>
      </trkpt>
      <trkpt lat="44.08168" lon="5.73425">
        <ele>952.613</ele>
        <time>2020-09-02T11:44:19Z</time>
      </trkpt>
      <trkpt lat="44.08162" lon="5.73425">
        <ele>952.89</ele>
        <time>2020-09-02T11:44:22Z</time>
      </trkpt>
      <trkpt lat="44.08158" lon="5.73432">
        <ele>953.311</ele>
        <time>2020-09-02T11:44:24Z</time>
      </trkpt>
      <trkpt lat="44.08158" lon="5.73442">
        <ele>954.129</ele>
        <time>2020-09-02T11:44:26Z</time>
      </trkpt>
      <trkpt lat="44.08157" lon="5.73449">
        <ele>955.915</ele>
        <time>2020-09-02T11:45:43Z</time>
      </trkpt>
      <trkpt lat="44.08159" lon="5.73457">
        <ele>954.858</ele>
        <time>2020-09-02T11:45:44Z</time>
      </trkpt>
      <trkpt lat="44.08158" lon="5.7347">
        <ele>955.982</ele>
        <time>2020-09-02T11:45:46Z</time>
      </trkpt>
      <trkpt lat="44.08156" lon="5.73478">
        <ele>956.243</ele>
        <time>2020-09-02T11:45:47Z</time>
      </trkpt>
      <trkpt lat="44.08155" lon="5.73485">
        <ele>956.917</ele>
        <time>2020-09-02T11:45:48Z</time>
      </trkpt>
      <trkpt lat="44.08154" lon="5.73491">
        <ele>957.808</ele>
        <time>2020-09-02T11:45:49Z</time>
      </trkpt>
      <trkpt lat="44.08151" lon="5.73498">
        <ele>958.366</ele>
        <time>2020-09-02T11:45:50Z</time>
      </trkpt>
      <trkpt lat="44.0815" lon="5.73509">
        <ele>961.235</ele>
        <time>2020-09-02T11:45:52Z</time>
      </trkpt>
      <trkpt lat="44.08151" lon="5.73516">
        <ele>962.275</ele>
        <time>2020-09-02T11:45:53Z</time>
      </trkpt>
      <trkpt lat="44.08149" lon="5.73528">
        <ele>965.422</ele>
        <time>2020-09-02T11:45:55Z</time>
      </trkpt>
      <trkpt lat="44.08152" lon="5.73541">
        <ele>966.053</ele>
        <time>2020-09-02T11:45:57Z</time>
      </trkpt>
      <trkpt lat="44.08154" lon="5.73547">
        <ele>967.281</ele>
        <time>2020-09-02T11:45:58Z</time>
      </trkpt>
      <trkpt lat="44.08157" lon="5.73553">
        <ele>968.227</ele>
        <time>2020-09-02T11:45:59Z</time>
      </trkpt>
      <trkpt lat="44.08162" lon="5.73564">
        <ele>970.48</ele>
        <time>2020-09-02T11:46:01Z</time>
      </trkpt>
      <trkpt lat="44.08164" lon="5.7357">
        <ele>971.538</ele>
        <time>2020-09-02T11:46:02Z</time>
      </trkpt>
      <trkpt lat="44.08167" lon="5.73576">
        <ele>972.07</ele>
        <time>2020-09-02T11:46:03Z</time>
      </trkpt>
      <trkpt lat="44.0817" lon="5.73583">
        <ele>972.517</ele>
        <time>2020-09-02T11:46:04Z</time>
      </trkpt>
      <trkpt lat="44.08172" lon="5.73589">
        <ele>973.308</ele>
        <time>2020-09-02T11:46:05Z</time>
      </trkpt>
      <trkpt lat="44.08174" lon="5.73594">
        <ele>974.571</ele>
        <time>2020-09-02T11:46:06Z</time>
      </trkpt>
      <trkpt lat="44.08175" lon="5.73601">
        <ele>976.06</ele>
        <time>2020-09-02T11:46:08Z</time>
      </trkpt>
      <trkpt lat="44.08179" lon="5.7361">
        <ele>976.94</ele>
        <time>2020-09-02T11:46:09Z</time>
      </trkpt>
      <trkpt lat="44.08179" lon="5.73616">
        <ele>978.247</ele>
        <time>2020-09-02T11:46:10Z</time>
      </trkpt>
      <trkpt lat="44.0818" lon="5.73626">
        <ele>978.848</ele>
        <time>2020-09-02T11:46:11Z</time>
      </trkpt>
      <trkpt lat="44.08179" lon="5.73637">
        <ele>979.286</ele>
        <time>2020-09-02T11:46:12Z</time>
      </trkpt>
      <trkpt lat="44.08178" lon="5.73648">
        <ele>979.832</ele>
        <time>2020-09-02T11:46:13Z</time>
      </trkpt>
      <trkpt lat="44.08176" lon="5.73656">
        <ele>982.085</ele>
        <time>2020-09-02T11:46:14Z</time>
      </trkpt>
      <trkpt lat="44.08176" lon="5.73663">
        <ele>982.614</ele>
        <time>2020-09-02T11:46:15Z</time>
      </trkpt>
      <trkpt lat="44.08176" lon="5.73671">
        <ele>983.754</ele>
        <time>2020-09-02T11:46:16Z</time>
      </trkpt>
      <trkpt lat="44.08174" lon="5.73686">
        <ele>986.009</ele>
        <time>2020-09-02T11:46:18Z</time>
      </trkpt>
      <trkpt lat="44.08173" lon="5.73694">
        <ele>987.308</ele>
        <time>2020-09-02T11:46:19Z</time>
      </trkpt>
      <trkpt lat="44.08171" lon="5.73702">
        <ele>987.719</ele>
        <time>2020-09-02T11:46:20Z</time>
      </trkpt>
      <trkpt lat="44.08172" lon="5.73713">
        <ele>992.428</ele>
        <time>2020-09-02T11:46:22Z</time>
      </trkpt>
      <trkpt lat="44.08171" lon="5.73726">
        <ele>994.598</ele>
        <time>2020-09-02T11:46:24Z</time>
      </trkpt>
      <trkpt lat="44.08172" lon="5.73733">
        <ele>995.615</ele>
        <time>2020-09-02T11:46:25Z</time>
      </trkpt>
      <trkpt lat="44.08174" lon="5.73741">
        <ele>997.726</ele>
        <time>2020-09-02T11:46:26Z</time>
      </trkpt>
      <trkpt lat="44.08174" lon="5.73754">
        <ele>998.994</ele>
        <time>2020-09-02T11:46:27Z</time>
      </trkpt>
      <trkpt lat="44.08175" lon="5.7376">
        <ele>998.12</ele>
        <time>2020-09-02T11:46:28Z</time>
      </trkpt>
      <trkpt lat="44.08173" lon="5.73769">
        <ele>998.923</ele>
        <time>2020-09-02T11:46:29Z</time>
      </trkpt>
      <trkpt lat="44.08174" lon="5.73778">
        <ele>999.858</ele>
        <time>2020-09-02T11:46:30Z</time>
      </trkpt>
      <trkpt lat="44.08176" lon="5.73786">
        <ele>1001.652</ele>
        <time>2020-09-02T11:46:31Z</time>
      </trkpt>
      <trkpt lat="44.08177" lon="5.73796">
        <ele>1002.117</ele>
        <time>2020-09-02T11:46:32Z</time>
      </trkpt>
      <trkpt lat="44.08177" lon="5.73805">
        <ele>1003.008</ele>
        <time>2020-09-02T11:46:33Z</time>
      </trkpt>
      <trkpt lat="44.0818" lon="5.73815">
        <ele>1003.393</ele>
        <time>2020-09-02T11:46:34Z</time>
      </trkpt>
      <trkpt lat="44.08178" lon="5.73823">
        <ele>1006.222</ele>
        <time>2020-09-02T11:46:35Z</time>
      </trkpt>
      <trkpt lat="44.08179" lon="5.73829">
        <ele>1006.762</ele>
        <time>2020-09-02T11:46:36Z</time>
      </trkpt>
      <trkpt lat="44.08178" lon="5.73838">
        <ele>1009.289</ele>
        <time>2020-09-02T11:46:37Z</time>
      </trkpt>
      <trkpt lat="44.0818" lon="5.73847">
        <ele>1008.74</ele>
        <time>2020-09-02T11:46:38Z</time>
      </trkpt>
      <trkpt lat="44.0818" lon="5.73857">
        <ele>1012.218</ele>
        <time>2020-09-02T11:46:39Z</time>
      </trkpt>
      <trkpt lat="44.0818" lon="5.73866">
        <ele>1013.014</ele>
        <time>2020-09-02T11:46:40Z</time>
      </trkpt>
      <trkpt lat="44.0818" lon="5.73877">
        <ele>1014.427</ele>
        <time>2020-09-02T11:46:41Z</time>
      </trkpt>
      <trkpt lat="44.08177" lon="5.73886">
        <ele>1015.856</ele>
        <time>2020-09-02T11:46:42Z</time>
      </trkpt>
      <trkpt lat="44.08177" lon="5.73892">
        <ele>1016.259</ele>
        <time>2020-09-02T11:46:43Z</time>
      </trkpt>
      <trkpt lat="44.08178" lon="5.73899">
        <ele>1019.214</ele>
        <time>2020-09-02T11:46:44Z</time>
      </trkpt>
      <trkpt lat="44.08179" lon="5.73907">
        <ele>1020.508</ele>
        <time>2020-09-02T11:46:45Z</time>
      </trkpt>
      <trkpt lat="44.0818" lon="5.73916">
        <ele>1021.513</ele>
        <time>2020-09-02T11:46:46Z</time>
      </trkpt>
      <trkpt lat="44.08179" lon="5.73924">
        <ele>1021.722</ele>
        <time>2020-09-02T11:46:47Z</time>
      </trkpt>
      <trkpt lat="44.08179" lon="5.73933">
        <ele>1024.482</ele>
        <time>2020-09-02T11:46:48Z</time>
      </trkpt>
      <trkpt lat="44.0818" lon="5.73941">
        <ele>1025.919</ele>
        <time>2020-09-02T11:46:49Z</time>
      </trkpt>
      <trkpt lat="44.0818" lon="5.73949">
        <ele>1026.23</ele>
        <time>2020-09-02T11:46:50Z</time>
      </trkpt>
      <trkpt lat="44.08179" lon="5.73957">
        <ele>1027.248</ele>
        <time>2020-09-02T11:46:51Z</time>
      </trkpt>
      <trkpt lat="44.08178" lon="5.73964">
        <ele>1029.164</ele>
        <time>2020-09-02T11:46:52Z</time>
      </trkpt>
      <trkpt lat="44.0818" lon="5.73972">
        <ele>1030.437</ele>
        <time>2020-09-02T11:46:53Z</time>
      </trkpt>
      <trkpt lat="44.08181" lon="5.73979">
        <ele>1032.859</ele>
        <time>2020-09-02T11:46:54Z</time>
      </trkpt>
      <trkpt lat="44.08182" lon="5.73987">
        <ele>1032.903</ele>
        <time>2020-09-02T11:46:55Z</time>
      </trkpt>
      <trkpt lat="44.08185" lon="5.73995">
        <ele>1034.123</ele>
        <time>2020-09-02T11:46:56Z</time>
      </trkpt>
      <trkpt lat="44.08188" lon="5.74004">
        <ele>1034.308</ele>
        <time>2020-09-02T11:46:57Z</time>
      </trkpt>
      <trkpt lat="44.0819" lon="5.74011">
        <ele>1034.473</ele>
        <time>2020-09-02T11:46:58Z</time>
      </trkpt>
      <trkpt lat="44.0819" lon="5.74019">
        <ele>1035.312</ele>
        <time>2020-09-02T11:46:59Z</time>
      </trkpt>
      <trkpt lat="44.08192" lon="5.74027">
        <ele>1036.222</ele>
        <time>2020-09-02T11:47:00Z</time>
      </trkpt>
      <trkpt lat="44.08195" lon="5.74033">
        <ele>1037.159</ele>
        <time>2020-09-02T11:47:01Z</time>
      </trkpt>
      <trkpt lat="44.08199" lon="5.7404">
        <ele>1037.56</ele>
        <time>2020-09-02T11:47:02Z</time>
      </trkpt>
      <trkpt lat="44.08201" lon="5.74048">
        <ele>1037.388</ele>
        <time>2020-09-02T11:47:03Z</time>
      </trkpt>
      <trkpt lat="44.08204" lon="5.74057">
        <ele>1038.734</ele>
        <time>2020-09-02T11:47:04Z</time>
      </trkpt>
      <trkpt lat="44.08207" lon="5.74065">
        <ele>1039.037</ele>
        <time>2020-09-02T11:47:05Z</time>
      </trkpt>
      <trkpt lat="44.08208" lon="5.74074">
        <ele>1039.795</ele>
        <time>2020-09-02T11:47:06Z</time>
      </trkpt>
      <trkpt lat="44.08211" lon="5.74081">
        <ele>1041.149</ele>
        <time>2020-09-02T11:47:07Z</time>
      </trkpt>
      <trkpt lat="44.08213" lon="5.74087">
        <ele>1042.723</ele>
        <time>2020-09-02T11:47:08Z</time>
      </trkpt>
      <trkpt lat="44.08215" lon="5.74094">
        <ele>1043.408</ele>
        <time>2020-09-02T11:47:09Z</time>
      </trkpt>
      <trkpt lat="44.08218" lon="5.74101">
        <ele>1044.517</ele>
        <time>2020-09-02T11:47:10Z</time>
      </trkpt>
      <trkpt lat="44.0822" lon="5.74108">
        <ele>1045.556</ele>
        <time>2020-09-02T11:47:11Z</time>
      </trkpt>
      <trkpt lat="44.08223" lon="5.74116">
        <ele>1046.456</ele>
        <time>2020-09-02T11:47:12Z</time>
      </trkpt>
      <trkpt lat="44.08225" lon="5.74124">
        <ele>1047.513</ele>
        <time>2020-09-02T11:47:13Z</time>
      </trkpt>
      <trkpt lat="44.08226" lon="5.74131">
        <ele>1049.184</ele>
        <time>2020-09-02T11:47:14Z</time>
      </trkpt>
      <trkpt lat="44.08226" lon="5.74137">
        <ele>1049.962</ele>
        <time>2020-09-02T11:47:15Z</time>
      </trkpt>
      <trkpt lat="44.08226" lon="5.74144">
        <ele>1051.178</ele>
        <time>2020-09-02T11:47:16Z</time>
      </trkpt>
      <trkpt lat="44.08227" lon="5.74152">
        <ele>1052.591</ele>
        <time>2020-09-02T11:47:17Z</time>
      </trkpt>
      <trkpt lat="44.08226" lon="5.7416">
        <ele>1053.072</ele>
        <time>2020-09-02T11:47:18Z</time>
      </trkpt>
      <trkpt lat="44.08225" lon="5.74167">
        <ele>1053.213</ele>
        <time>2020-09-02T11:47:19Z</time>
      </trkpt>
      <trkpt lat="44.08224" lon="5.74174">
        <ele>1054.114</ele>
        <time>2020-09-02T11:47:20Z</time>
      </trkpt>
      <trkpt lat="44.08221" lon="5.74182">
        <ele>1053.708</ele>
        <time>2020-09-02T11:47:21Z</time>
      </trkpt>
      <trkpt lat="44.08218" lon="5.74189">
        <ele>1054.545</ele>
        <time>2020-09-02T11:47:22Z</time>
      </trkpt>
      <trkpt lat="44.08214" lon="5.74195">
        <ele>1054.874</ele>
        <time>2020-09-02T11:47:23Z</time>
      </trkpt>
      <trkpt lat="44.08209" lon="5.74202">
        <ele>1055.014</ele>
        <time>2020-09-02T11:47:24Z</time>
      </trkpt>
      <trkpt lat="44.08206" lon="5.74208">
        <ele>1055.961</ele>
        <time>2020-09-02T11:47:25Z</time>
      </trkpt>
      <trkpt lat="44.08203" lon="5.74214">
        <ele>1056.622</ele>
        <time>2020-09-02T11:47:26Z</time>
      </trkpt>
      <trkpt lat="44.08198" lon="5.74225">
        <ele>1056.26</ele>
        <time>2020-09-02T11:47:28Z</time>
      </trkpt>
      <trkpt lat="44.08195" lon="5.74231">
        <ele>1056.776</ele>
        <time>2020-09-02T11:47:29Z</time>
      </trkpt>
      <trkpt lat="44.08192" lon="5.7424">
        <ele>1056.899</ele>
        <time>2020-09-02T11:47:30Z</time>
      </trkpt>
      <trkpt lat="44.08188" lon="5.74246">
        <ele>1058.171</ele>
        <time>2020-09-02T11:47:31Z</time>
      </trkpt>
      <trkpt lat="44.08184" lon="5.74254">
        <ele>1059.041</ele>
        <time>2020-09-02T11:47:32Z</time>
      </trkpt>
      <trkpt lat="44.0818" lon="5.74262">
        <ele>1060.115</ele>
        <time>2020-09-02T11:47:33Z</time>
      </trkpt>
      <trkpt lat="44.08176" lon="5.7427">
        <ele>1061.908</ele>
        <time>2020-09-02T11:47:34Z</time>
      </trkpt>
      <trkpt lat="44.08173" lon="5.74277">
        <ele>1062.475</ele>
        <time>2020-09-02T11:47:35Z</time>
      </trkpt>
      <trkpt lat="44.08171" lon="5.74285">
        <ele>1063.184</ele>
        <time>2020-09-02T11:47:36Z</time>
      </trkpt>
      <trkpt lat="44.08169" lon="5.74291">
        <ele>1062.494</ele>
        <time>2020-09-02T11:47:37Z</time>
      </trkpt>
      <trkpt lat="44.08167" lon="5.74297">
        <ele>1062.441</ele>
        <time>2020-09-02T11:47:38Z</time>
      </trkpt>
      <trkpt lat="44.08164" lon="5.74303">
        <ele>1062.862</ele>
        <time>2020-09-02T11:47:39Z</time>
      </trkpt>
      <trkpt lat="44.08161" lon="5.74308">
        <ele>1062.79</ele>
        <time>2020-09-02T11:47:40Z</time>
      </trkpt>
      <trkpt lat="44.08155" lon="5.74313">
        <ele>1063.016</ele>
        <time>2020-09-02T11:47:41Z</time>
      </trkpt>
      <trkpt lat="44.08152" lon="5.74319">
        <ele>1065.489</ele>
        <time>2020-09-02T11:47:42Z</time>
      </trkpt>
      <trkpt lat="44.08145" lon="5.7433">
        <ele>1070.216</ele>
        <time>2020-09-02T11:47:44Z</time>
      </trkpt>
      <trkpt lat="44.08142" lon="5.74337">
        <ele>1071.476</ele>
        <time>2020-09-02T11:47:45Z</time>
      </trkpt>
      <trkpt lat="44.08139" lon="5.74343">
        <ele>1072.213</ele>
        <time>2020-09-02T11:47:46Z</time>
      </trkpt>
      <trkpt lat="44.08134" lon="5.74354">
        <ele>1073.208</ele>
        <time>2020-09-02T11:47:47Z</time>
      </trkpt>
      <trkpt lat="44.0813" lon="5.7436">
        <ele>1075.579</ele>
        <time>2020-09-02T11:47:48Z</time>
      </trkpt>
      <trkpt lat="44.08125" lon="5.74365">
        <ele>1076.188</ele>
        <time>2020-09-02T11:47:49Z</time>
      </trkpt>
      <trkpt lat="44.08121" lon="5.74369">
        <ele>1078.318</ele>
        <time>2020-09-02T11:47:50Z</time>
      </trkpt>
      <trkpt lat="44.08118" lon="5.74373">
        <ele>1080.395</ele>
        <time>2020-09-02T11:47:51Z</time>
      </trkpt>
      <trkpt lat="44.0811" lon="5.7438">
        <ele>1083.616</ele>
        <time>2020-09-02T11:47:53Z</time>
      </trkpt>
      <trkpt lat="44.08105" lon="5.74382">
        <ele>1084.754</ele>
        <time>2020-09-02T11:47:54Z</time>
      </trkpt>
      <trkpt lat="44.081" lon="5.74385">
        <ele>1086.76</ele>
        <time>2020-09-02T11:47:55Z</time>
      </trkpt>
      <trkpt lat="44.08094" lon="5.7439">
        <ele>1089.093</ele>
        <time>2020-09-02T11:47:57Z</time>
      </trkpt>
      <trkpt lat="44.08087" lon="5.74392">
        <ele>1089.669</ele>
        <time>2020-09-02T11:47:58Z</time>
      </trkpt>
      <trkpt lat="44.08076" lon="5.74393">
        <ele>1090.504</ele>
        <time>2020-09-02T11:47:59Z</time>
      </trkpt>
      <trkpt lat="44.08071" lon="5.74392">
        <ele>1092.424</ele>
        <time>2020-09-02T11:48:00Z</time>
      </trkpt>
      <trkpt lat="44.08066" lon="5.74392">
        <ele>1093.308</ele>
        <time>2020-09-02T11:48:01Z</time>
      </trkpt>
      <trkpt lat="44.08056" lon="5.74393">
        <ele>1094.924</ele>
        <time>2020-09-02T11:48:03Z</time>
      </trkpt>
      <trkpt lat="44.08049" lon="5.74398">
        <ele>1095.923</ele>
        <time>2020-09-02T11:48:04Z</time>
      </trkpt>
      <trkpt lat="44.08044" lon="5.74405">
        <ele>1097.973</ele>
        <time>2020-09-02T11:48:06Z</time>
      </trkpt>
      <trkpt lat="44.0804" lon="5.74409">
        <ele>1098.56</ele>
        <time>2020-09-02T11:48:08Z</time>
      </trkpt>
      <trkpt lat="44.08032" lon="5.74411">
        <ele>1098.781</ele>
        <time>2020-09-02T11:48:09Z</time>
      </trkpt>
      <trkpt lat="44.08027" lon="5.74411">
        <ele>1099.199</ele>
        <time>2020-09-02T11:48:10Z</time>
      </trkpt>
      <trkpt lat="44.08018" lon="5.74412">
        <ele>1099.445</ele>
        <time>2020-09-02T11:48:12Z</time>
      </trkpt>
      <trkpt lat="44.08013" lon="5.74413">
        <ele>1100.138</ele>
        <time>2020-09-02T11:48:13Z</time>
      </trkpt>
      <trkpt lat="44.08009" lon="5.74416">
        <ele>1100.239</ele>
        <time>2020-09-02T11:48:14Z</time>
      </trkpt>
      <trkpt lat="44.08004" lon="5.74418">
        <ele>1101.001</ele>
        <time>2020-09-02T11:48:15Z</time>
      </trkpt>
      <trkpt lat="44.08002" lon="5.74425">
        <ele>1101.221</ele>
        <time>2020-09-02T11:48:16Z</time>
      </trkpt>
      <trkpt lat="44.07995" lon="5.74431">
        <ele>1101.608</ele>
        <time>2020-09-02T11:48:18Z</time>
      </trkpt>
      <trkpt lat="44.07985" lon="5.74433">
        <ele>1102.661</ele>
        <time>2020-09-02T11:48:20Z</time>
      </trkpt>
      <trkpt lat="44.07981" lon="5.7444">
        <ele>1102.79</ele>
        <time>2020-09-02T11:48:22Z</time>
      </trkpt>
      <trkpt lat="44.07981" lon="5.74449">
        <ele>1102.87</ele>
        <time>2020-09-02T11:48:24Z</time>
      </trkpt>
      <trkpt lat="44.07981" lon="5.74461">
        <ele>1104.377</ele>
        <time>2020-09-02T11:48:26Z</time>
      </trkpt>
      <trkpt lat="44.07985" lon="5.74469">
        <ele>1105.348</ele>
        <time>2020-09-02T11:48:28Z</time>
      </trkpt>
      <trkpt lat="44.07993" lon="5.74474">
        <ele>1106.076</ele>
        <time>2020-09-02T11:48:30Z</time>
      </trkpt>
      <trkpt lat="44.07998" lon="5.74484">
        <ele>1106.912</ele>
        <time>2020-09-02T11:48:32Z</time>
      </trkpt>
      <trkpt lat="44.08001" lon="5.74495">
        <ele>1109.435</ele>
        <time>2020-09-02T11:48:34Z</time>
      </trkpt>
      <trkpt lat="44.07998" lon="5.74508">
        <ele>1110.345</ele>
        <time>2020-09-02T11:48:36Z</time>
      </trkpt>
      <trkpt lat="44.07994" lon="5.74521">
        <ele>1112.747</ele>
        <time>2020-09-02T11:48:38Z</time>
      </trkpt>
      <trkpt lat="44.07991" lon="5.74528">
        <ele>1114.311</ele>
        <time>2020-09-02T11:48:39Z</time>
      </trkpt>
      <trkpt lat="44.07987" lon="5.74534">
        <ele>1116.408</ele>
        <time>2020-09-02T11:48:40Z</time>
      </trkpt>
      <trkpt lat="44.07984" lon="5.74542">
        <ele>1116.842</ele>
        <time>2020-09-02T11:48:41Z</time>
      </trkpt>
      <trkpt lat="44.0798" lon="5.74548">
        <ele>1116.811</ele>
        <time>2020-09-02T11:48:42Z</time>
      </trkpt>
      <trkpt lat="44.07976" lon="5.74554">
        <ele>1118.141</ele>
        <time>2020-09-02T11:48:43Z</time>
      </trkpt>
      <trkpt lat="44.07973" lon="5.7456">
        <ele>1118.368</ele>
        <time>2020-09-02T11:48:44Z</time>
      </trkpt>
      <trkpt lat="44.0797" lon="5.74567">
        <ele>1119.629</ele>
        <time>2020-09-02T11:48:45Z</time>
      </trkpt>
      <trkpt lat="44.07968" lon="5.74573">
        <ele>1120.867</ele>
        <time>2020-09-02T11:48:46Z</time>
      </trkpt>
      <trkpt lat="44.07965" lon="5.74578">
        <ele>1121.833</ele>
        <time>2020-09-02T11:48:47Z</time>
      </trkpt>
      <trkpt lat="44.07961" lon="5.74582">
        <ele>1123.416</ele>
        <time>2020-09-02T11:48:48Z</time>
      </trkpt>
      <trkpt lat="44.07956" lon="5.74588">
        <ele>1125.316</ele>
        <time>2020-09-02T11:48:49Z</time>
      </trkpt>
      <trkpt lat="44.07952" lon="5.74594">
        <ele>1126.376</ele>
        <time>2020-09-02T11:48:50Z</time>
      </trkpt>
      <trkpt lat="44.07947" lon="5.74601">
        <ele>1128.413</ele>
        <time>2020-09-02T11:48:51Z</time>
      </trkpt>
      <trkpt lat="44.07943" lon="5.74606">
        <ele>1129.408</ele>
        <time>2020-09-02T11:48:52Z</time>
      </trkpt>
      <trkpt lat="44.07937" lon="5.74611">
        <ele>1131.589</ele>
        <time>2020-09-02T11:48:53Z</time>
      </trkpt>
      <trkpt lat="44.07932" lon="5.74617">
        <ele>1133.338</ele>
        <time>2020-09-02T11:48:54Z</time>
      </trkpt>
      <trkpt lat="44.07929" lon="5.74625">
        <ele>1134.658</ele>
        <time>2020-09-02T11:48:55Z</time>
      </trkpt>
      <trkpt lat="44.07925" lon="5.74631">
        <ele>1136.225</ele>
        <time>2020-09-02T11:48:56Z</time>
      </trkpt>
      <trkpt lat="44.0792" lon="5.74637">
        <ele>1136.186</ele>
        <time>2020-09-02T11:48:57Z</time>
      </trkpt>
      <trkpt lat="44.07915" lon="5.74641">
        <ele>1138.984</ele>
        <time>2020-09-02T11:48:58Z</time>
      </trkpt>
      <trkpt lat="44.07913" lon="5.74649">
        <ele>1141.09</ele>
        <time>2020-09-02T11:49:00Z</time>
      </trkpt>
      <trkpt lat="44.0791" lon="5.7466">
        <ele>1143.913</ele>
        <time>2020-09-02T11:49:02Z</time>
      </trkpt>
      <trkpt lat="44.07905" lon="5.74665">
        <ele>1146.873</ele>
        <time>2020-09-02T11:49:04Z</time>
      </trkpt>
      <trkpt lat="44.07901" lon="5.7467">
        <ele>1148.385</ele>
        <time>2020-09-02T11:49:05Z</time>
      </trkpt>
      <trkpt lat="44.07893" lon="5.74678">
        <ele>1148.113</ele>
        <time>2020-09-02T11:49:07Z</time>
      </trkpt>
      <trkpt lat="44.07889" lon="5.74684">
        <ele>1149.108</ele>
        <time>2020-09-02T11:49:08Z</time>
      </trkpt>
      <trkpt lat="44.07886" lon="5.74689">
        <ele>1149.235</ele>
        <time>2020-09-02T11:49:09Z</time>
      </trkpt>
      <trkpt lat="44.07883" lon="5.74694">
        <ele>1149.714</ele>
        <time>2020-09-02T11:49:10Z</time>
      </trkpt>
      <trkpt lat="44.0788" lon="5.747">
        <ele>1150.074</ele>
        <time>2020-09-02T11:49:11Z</time>
      </trkpt>
      <trkpt lat="44.07876" lon="5.74706">
        <ele>1150.761</ele>
        <time>2020-09-02T11:49:12Z</time>
      </trkpt>
      <trkpt lat="44.07872" lon="5.74712">
        <ele>1151.422</ele>
        <time>2020-09-02T11:49:13Z</time>
      </trkpt>
      <trkpt lat="44.07868" lon="5.74718">
        <ele>1151.44</ele>
        <time>2020-09-02T11:49:14Z</time>
      </trkpt>
      <trkpt lat="44.07865" lon="5.74723">
        <ele>1151.696</ele>
        <time>2020-09-02T11:49:15Z</time>
      </trkpt>
      <trkpt lat="44.07862" lon="5.74729">
        <ele>1152.819</ele>
        <time>2020-09-02T11:49:16Z</time>
      </trkpt>
      <trkpt lat="44.07859" lon="5.74736">
        <ele>1153.542</ele>
        <time>2020-09-02T11:49:17Z</time>
      </trkpt>
      <trkpt lat="44.07854" lon="5.7474">
        <ele>1154.122</ele>
        <time>2020-09-02T11:49:18Z</time>
      </trkpt>
      <trkpt lat="44.07851" lon="5.74746">
        <ele>1155.314</ele>
        <time>2020-09-02T11:49:19Z</time>
      </trkpt>
      <trkpt lat="44.07848" lon="5.74757">
        <ele>1159.708</ele>
        <time>2020-09-02T11:49:21Z</time>
      </trkpt>
      <trkpt lat="44.07845" lon="5.74761">
        <ele>1160.942</ele>
        <time>2020-09-02T11:49:22Z</time>
      </trkpt>
      <trkpt lat="44.07839" lon="5.74774">
        <ele>1162.811</ele>
        <time>2020-09-02T11:49:24Z</time>
      </trkpt>
      <trkpt lat="44.07835" lon="5.74786">
        <ele>1160.941</ele>
        <time>2020-09-02T11:49:26Z</time>
      </trkpt>
      <trkpt lat="44.07832" lon="5.74794">
        <ele>1160.548</ele>
        <time>2020-09-02T11:49:27Z</time>
      </trkpt>
      <trkpt lat="44.07828" lon="5.748">
        <ele>1161.029</ele>
        <time>2020-09-02T11:49:28Z</time>
      </trkpt>
      <trkpt lat="44.07826" lon="5.74808">
        <ele>1162.027</ele>
        <time>2020-09-02T11:49:29Z</time>
      </trkpt>
      <trkpt lat="44.07824" lon="5.74814">
        <ele>1163.393</ele>
        <time>2020-09-02T11:49:30Z</time>
      </trkpt>
      <trkpt lat="44.07822" lon="5.74821">
        <ele>1164.116</ele>
        <time>2020-09-02T11:49:31Z</time>
      </trkpt>
      <trkpt lat="44.0782" lon="5.74827">
        <ele>1166.758</ele>
        <time>2020-09-02T11:49:32Z</time>
      </trkpt>
      <trkpt lat="44.07818" lon="5.74834">
        <ele>1168.452</ele>
        <time>2020-09-02T11:49:33Z</time>
      </trkpt>
      <trkpt lat="44.07818" lon="5.74841">
        <ele>1168.317</ele>
        <time>2020-09-02T11:49:34Z</time>
      </trkpt>
      <trkpt lat="44.07816" lon="5.74848">
        <ele>1171.308</ele>
        <time>2020-09-02T11:49:35Z</time>
      </trkpt>
      <trkpt lat="44.07814" lon="5.7486">
        <ele>1174.153</ele>
        <time>2020-09-02T11:49:37Z</time>
      </trkpt>
      <trkpt lat="44.07812" lon="5.74866">
        <ele>1175.642</ele>
        <time>2020-09-02T11:49:38Z</time>
      </trkpt>
      <trkpt lat="44.07811" lon="5.74873">
        <ele>1177.172</ele>
        <time>2020-09-02T11:49:39Z</time>
      </trkpt>
      <trkpt lat="44.07806" lon="5.74884">
        <ele>1179.689</ele>
        <time>2020-09-02T11:49:41Z</time>
      </trkpt>
      <trkpt lat="44.07802" lon="5.74893">
        <ele>1185.26</ele>
        <time>2020-09-02T11:49:43Z</time>
      </trkpt>
      <trkpt lat="44.07798" lon="5.74904">
        <ele>1187.648</ele>
        <time>2020-09-02T11:49:45Z</time>
      </trkpt>
      <trkpt lat="44.07797" lon="5.7491">
        <ele>1188.984</ele>
        <time>2020-09-02T11:49:46Z</time>
      </trkpt>
      <trkpt lat="44.07795" lon="5.74922">
        <ele>1190.977</ele>
        <time>2020-09-02T11:49:48Z</time>
      </trkpt>
      <trkpt lat="44.07794" lon="5.74932">
        <ele>1191.364</ele>
        <time>2020-09-02T11:49:50Z</time>
      </trkpt>
      <trkpt lat="44.07793" lon="5.74943">
        <ele>1194.306</ele>
        <time>2020-09-02T11:49:52Z</time>
      </trkpt>
      <trkpt lat="44.07789" lon="5.74948">
        <ele>1196.416</ele>
        <time>2020-09-02T11:49:53Z</time>
      </trkpt>
      <trkpt lat="44.07785" lon="5.74955">
        <ele>1197.808</ele>
        <time>2020-09-02T11:49:54Z</time>
      </trkpt>
      <trkpt lat="44.07784" lon="5.74962">
        <ele>1205.374</ele>
        <time>2020-09-02T11:49:55Z</time>
      </trkpt>
      <trkpt lat="44.07783" lon="5.7497">
        <ele>1206.343</ele>
        <time>2020-09-02T11:49:56Z</time>
      </trkpt>
      <trkpt lat="44.07782" lon="5.74977">
        <ele>1208.283</ele>
        <time>2020-09-02T11:49:57Z</time>
      </trkpt>
      <trkpt lat="44.07779" lon="5.74983">
        <ele>1209.62</ele>
        <time>2020-09-02T11:49:58Z</time>
      </trkpt>
      <trkpt lat="44.07772" lon="5.7499">
        <ele>1210.891</ele>
        <time>2020-09-02T11:50:00Z</time>
      </trkpt>
      <trkpt lat="44.07767" lon="5.74994">
        <ele>1210.949</ele>
        <time>2020-09-02T11:50:01Z</time>
      </trkpt>
      <trkpt lat="44.07763" lon="5.74998">
        <ele>1211.315</ele>
        <time>2020-09-02T11:50:02Z</time>
      </trkpt>
      <trkpt lat="44.07759" lon="5.75002">
        <ele>1211.538</ele>
        <time>2020-09-02T11:50:03Z</time>
      </trkpt>
      <trkpt lat="44.07752" lon="5.75007">
        <ele>1211.914</ele>
        <time>2020-09-02T11:50:04Z</time>
      </trkpt>
      <trkpt lat="44.07747" lon="5.75012">
        <ele>1211.854</ele>
        <time>2020-09-02T11:50:05Z</time>
      </trkpt>
      <trkpt lat="44.07741" lon="5.75013">
        <ele>1211.509</ele>
        <time>2020-09-02T11:50:06Z</time>
      </trkpt>
      <trkpt lat="44.07735" lon="5.75018">
        <ele>1211.108</ele>
        <time>2020-09-02T11:50:08Z</time>
      </trkpt>
      <trkpt lat="44.07729" lon="5.75028">
        <ele>1211.669</ele>
        <time>2020-09-02T11:50:10Z</time>
      </trkpt>
      <trkpt lat="44.07725" lon="5.75033">
        <ele>1212.038</ele>
        <time>2020-09-02T11:50:11Z</time>
      </trkpt>
      <trkpt lat="44.0772" lon="5.75037">
        <ele>1211.648</ele>
        <time>2020-09-02T11:50:12Z</time>
      </trkpt>
      <trkpt lat="44.07716" lon="5.75045">
        <ele>1212.095</ele>
        <time>2020-09-02T11:50:14Z</time>
      </trkpt>
      <trkpt lat="44.07713" lon="5.75052">
        <ele>1211.016</ele>
        <time>2020-09-02T11:50:15Z</time>
      </trkpt>
      <trkpt lat="44.07711" lon="5.75059">
        <ele>1211.364</ele>
        <time>2020-09-02T11:50:16Z</time>
      </trkpt>
      <trkpt lat="44.07704" lon="5.75063">
        <ele>1212.68</ele>
        <time>2020-09-02T11:50:17Z</time>
      </trkpt>
      <trkpt lat="44.077" lon="5.75066">
        <ele>1213.043</ele>
        <time>2020-09-02T11:50:18Z</time>
      </trkpt>
      <trkpt lat="44.07693" lon="5.75071">
        <ele>1213.083</ele>
        <time>2020-09-02T11:50:20Z</time>
      </trkpt>
      <trkpt lat="44.07688" lon="5.75077">
        <ele>1211.725</ele>
        <time>2020-09-02T11:50:22Z</time>
      </trkpt>
      <trkpt lat="44.07689" lon="5.75083">
        <ele>1212.717</ele>
        <time>2020-09-02T11:50:24Z</time>
      </trkpt>
      <trkpt lat="44.07694" lon="5.75091">
        <ele>1213.108</ele>
        <time>2020-09-02T11:50:26Z</time>
      </trkpt>
      <trkpt lat="44.07697" lon="5.75096">
        <ele>1213.656</ele>
        <time>2020-09-02T11:50:27Z</time>
      </trkpt>
      <trkpt lat="44.07703" lon="5.75105">
        <ele>1215.015</ele>
        <time>2020-09-02T11:50:29Z</time>
      </trkpt>
      <trkpt lat="44.07705" lon="5.7511">
        <ele>1215.735</ele>
        <time>2020-09-02T11:50:30Z</time>
      </trkpt>
      <trkpt lat="44.07707" lon="5.75116">
        <ele>1215.752</ele>
        <time>2020-09-02T11:50:31Z</time>
      </trkpt>
      <trkpt lat="44.0771" lon="5.75122">
        <ele>1216.453</ele>
        <time>2020-09-02T11:50:32Z</time>
      </trkpt>
      <trkpt lat="44.07714" lon="5.75128">
        <ele>1216.451</ele>
        <time>2020-09-02T11:50:33Z</time>
      </trkpt>
      <trkpt lat="44.07718" lon="5.75134">
        <ele>1217.297</ele>
        <time>2020-09-02T11:50:34Z</time>
      </trkpt>
      <trkpt lat="44.07721" lon="5.7514">
        <ele>1217.19</ele>
        <time>2020-09-02T11:50:35Z</time>
      </trkpt>
      <trkpt lat="44.07725" lon="5.75148">
        <ele>1217.692</ele>
        <time>2020-09-02T11:50:36Z</time>
      </trkpt>
      <trkpt lat="44.07728" lon="5.75153">
        <ele>1217.073</ele>
        <time>2020-09-02T11:50:37Z</time>
      </trkpt>
      <trkpt lat="44.0773" lon="5.75159">
        <ele>1217.32</ele>
        <time>2020-09-02T11:50:38Z</time>
      </trkpt>
      <trkpt lat="44.07733" lon="5.75167">
        <ele>1218.108</ele>
        <time>2020-09-02T11:50:39Z</time>
      </trkpt>
      <trkpt lat="44.07737" lon="5.75176">
        <ele>1216.717</ele>
        <time>2020-09-02T11:50:40Z</time>
      </trkpt>
      <trkpt lat="44.07739" lon="5.75181">
        <ele>1217.526</ele>
        <time>2020-09-02T11:50:41Z</time>
      </trkpt>
      <trkpt lat="44.07743" lon="5.75187">
        <ele>1218.336</ele>
        <time>2020-09-02T11:50:42Z</time>
      </trkpt>
      <trkpt lat="44.07747" lon="5.75191">
        <ele>1218.853</ele>
        <time>2020-09-02T11:50:43Z</time>
      </trkpt>
      <trkpt lat="44.07751" lon="5.75196">
        <ele>1218.844</ele>
        <time>2020-09-02T11:50:44Z</time>
      </trkpt>
      <trkpt lat="44.07755" lon="5.75201">
        <ele>1219.742</ele>
        <time>2020-09-02T11:50:45Z</time>
      </trkpt>
      <trkpt lat="44.07757" lon="5.75207">
        <ele>1220.138</ele>
        <time>2020-09-02T11:50:46Z</time>
      </trkpt>
      <trkpt lat="44.07762" lon="5.7521">
        <ele>1220.351</ele>
        <time>2020-09-02T11:50:47Z</time>
      </trkpt>
      <trkpt lat="44.07767" lon="5.75215">
        <ele>1219.855</ele>
        <time>2020-09-02T11:50:48Z</time>
      </trkpt>
      <trkpt lat="44.07771" lon="5.75218">
        <ele>1220.507</ele>
        <time>2020-09-02T11:50:49Z</time>
      </trkpt>
      <trkpt lat="44.07774" lon="5.75223">
        <ele>1221.217</ele>
        <time>2020-09-02T11:50:50Z</time>
      </trkpt>
      <trkpt lat="44.07777" lon="5.75228">
        <ele>1220.608</ele>
        <time>2020-09-02T11:50:51Z</time>
      </trkpt>
      <trkpt lat="44.07779" lon="5.75234">
        <ele>1220.613</ele>
        <time>2020-09-02T11:50:52Z</time>
      </trkpt>
      <trkpt lat="44.07782" lon="5.75245">
        <ele>1219.932</ele>
        <time>2020-09-02T11:50:53Z</time>
      </trkpt>
      <trkpt lat="44.07786" lon="5.75251">
        <ele>1219.232</ele>
        <time>2020-09-02T11:50:54Z</time>
      </trkpt>
      <trkpt lat="44.07791" lon="5.75259">
        <ele>1218.279</ele>
        <time>2020-09-02T11:50:55Z</time>
      </trkpt>
      <trkpt lat="44.07796" lon="5.75268">
        <ele>1218.34</ele>
        <time>2020-09-02T11:50:56Z</time>
      </trkpt>
      <trkpt lat="44.07801" lon="5.75275">
        <ele>1219.348</ele>
        <time>2020-09-02T11:50:58Z</time>
      </trkpt>
      <trkpt lat="44.07805" lon="5.75281">
        <ele>1219.084</ele>
        <time>2020-09-02T11:50:59Z</time>
      </trkpt>
      <trkpt lat="44.07811" lon="5.75288">
        <ele>1220.257</ele>
        <time>2020-09-02T11:51:00Z</time>
      </trkpt>
      <trkpt lat="44.0782" lon="5.75292">
        <ele>1223.487</ele>
        <time>2020-09-02T11:51:02Z</time>
      </trkpt>
      <trkpt lat="44.07825" lon="5.75297">
        <ele>1224.242</ele>
        <time>2020-09-02T11:51:03Z</time>
      </trkpt>
      <trkpt lat="44.07827" lon="5.75304">
        <ele>1226.026</ele>
        <time>2020-09-02T11:51:04Z</time>
      </trkpt>
      <trkpt lat="44.07829" lon="5.75312">
        <ele>1227.408</ele>
        <time>2020-09-02T11:51:05Z</time>
      </trkpt>
      <trkpt lat="44.07831" lon="5.75318">
        <ele>1227.816</ele>
        <time>2020-09-02T11:51:06Z</time>
      </trkpt>
      <trkpt lat="44.07829" lon="5.75327">
        <ele>1227.995</ele>
        <time>2020-09-02T11:51:07Z</time>
      </trkpt>
      <trkpt lat="44.07829" lon="5.75334">
        <ele>1228.215</ele>
        <time>2020-09-02T11:51:08Z</time>
      </trkpt>
      <trkpt lat="44.07825" lon="5.75347">
        <ele>1228.962</ele>
        <time>2020-09-02T11:51:10Z</time>
      </trkpt>
      <trkpt lat="44.07823" lon="5.75354">
        <ele>1229.273</ele>
        <time>2020-09-02T11:51:11Z</time>
      </trkpt>
      <trkpt lat="44.07821" lon="5.75363">
        <ele>1229.551</ele>
        <time>2020-09-02T11:51:12Z</time>
      </trkpt>
      <trkpt lat="44.07817" lon="5.75371">
        <ele>1228.537</ele>
        <time>2020-09-02T11:51:13Z</time>
      </trkpt>
      <trkpt lat="44.07812" lon="5.75378">
        <ele>1227.42</ele>
        <time>2020-09-02T11:51:14Z</time>
      </trkpt>
      <trkpt lat="44.07807" lon="5.75386">
        <ele>1226.448</ele>
        <time>2020-09-02T11:51:15Z</time>
      </trkpt>
      <trkpt lat="44.07801" lon="5.75393">
        <ele>1225.961</ele>
        <time>2020-09-02T11:51:16Z</time>
      </trkpt>
      <trkpt lat="44.07796" lon="5.75402">
        <ele>1225.717</ele>
        <time>2020-09-02T11:51:17Z</time>
      </trkpt>
      <trkpt lat="44.07791" lon="5.75411">
        <ele>1225.308</ele>
        <time>2020-09-02T11:51:18Z</time>
      </trkpt>
      <trkpt lat="44.07786" lon="5.75422">
        <ele>1223.742</ele>
        <time>2020-09-02T11:51:19Z</time>
      </trkpt>
      <trkpt lat="44.0778" lon="5.75431">
        <ele>1222.211</ele>
        <time>2020-09-02T11:51:20Z</time>
      </trkpt>
      <trkpt lat="44.07775" lon="5.75439">
        <ele>1220.651</ele>
        <time>2020-09-02T11:51:21Z</time>
      </trkpt>
      <trkpt lat="44.07769" lon="5.75448">
        <ele>1219.098</ele>
        <time>2020-09-02T11:51:22Z</time>
      </trkpt>
      <trkpt lat="44.07763" lon="5.75457">
        <ele>1218.459</ele>
        <time>2020-09-02T11:51:23Z</time>
      </trkpt>
      <trkpt lat="44.07757" lon="5.75466">
        <ele>1216.547</ele>
        <time>2020-09-02T11:51:24Z</time>
      </trkpt>
      <trkpt lat="44.07751" lon="5.75475">
        <ele>1215.543</ele>
        <time>2020-09-02T11:51:25Z</time>
      </trkpt>
      <trkpt lat="44.07744" lon="5.75483">
        <ele>1213.976</ele>
        <time>2020-09-02T11:51:26Z</time>
      </trkpt>
      <trkpt lat="44.07737" lon="5.7549">
        <ele>1212.822</ele>
        <time>2020-09-02T11:51:27Z</time>
      </trkpt>
      <trkpt lat="44.07731" lon="5.75497">
        <ele>1212.062</ele>
        <time>2020-09-02T11:51:28Z</time>
      </trkpt>
      <trkpt lat="44.07726" lon="5.75506">
        <ele>1210.508</ele>
        <time>2020-09-02T11:51:29Z</time>
      </trkpt>
      <trkpt lat="44.07722" lon="5.75516">
        <ele>1208.608</ele>
        <time>2020-09-02T11:51:30Z</time>
      </trkpt>
      <trkpt lat="44.07719" lon="5.75526">
        <ele>1207.68</ele>
        <time>2020-09-02T11:51:31Z</time>
      </trkpt>
      <trkpt lat="44.07715" lon="5.75536">
        <ele>1206.589</ele>
        <time>2020-09-02T11:51:32Z</time>
      </trkpt>
      <trkpt lat="44.07711" lon="5.75547">
        <ele>1205.929</ele>
        <time>2020-09-02T11:51:33Z</time>
      </trkpt>
      <trkpt lat="44.07708" lon="5.75558">
        <ele>1204.826</ele>
        <time>2020-09-02T11:51:34Z</time>
      </trkpt>
      <trkpt lat="44.07705" lon="5.75569">
        <ele>1204.327</ele>
        <time>2020-09-02T11:51:35Z</time>
      </trkpt>
      <trkpt lat="44.07704" lon="5.75579">
        <ele>1204.195</ele>
        <time>2020-09-02T11:51:36Z</time>
      </trkpt>
      <trkpt lat="44.07702" lon="5.7559">
        <ele>1203.151</ele>
        <time>2020-09-02T11:51:37Z</time>
      </trkpt>
      <trkpt lat="44.077" lon="5.75602">
        <ele>1201.854</ele>
        <time>2020-09-02T11:51:38Z</time>
      </trkpt>
      <trkpt lat="44.07696" lon="5.75613">
        <ele>1201.558</ele>
        <time>2020-09-02T11:51:39Z</time>
      </trkpt>
      <trkpt lat="44.07692" lon="5.75624">
        <ele>1199.452</ele>
        <time>2020-09-02T11:51:40Z</time>
      </trkpt>
      <trkpt lat="44.07687" lon="5.75634">
        <ele>1198.217</ele>
        <time>2020-09-02T11:51:41Z</time>
      </trkpt>
      <trkpt lat="44.07683" lon="5.75644">
        <ele>1197.508</ele>
        <time>2020-09-02T11:51:42Z</time>
      </trkpt>
      <trkpt lat="44.07679" lon="5.75653">
        <ele>1196.383</ele>
        <time>2020-09-02T11:51:43Z</time>
      </trkpt>
      <trkpt lat="44.07674" lon="5.75662">
        <ele>1195.352</ele>
        <time>2020-09-02T11:51:44Z</time>
      </trkpt>
      <trkpt lat="44.07668" lon="5.7567">
        <ele>1194.762</ele>
        <time>2020-09-02T11:51:45Z</time>
      </trkpt>
      <trkpt lat="44.07661" lon="5.75677">
        <ele>1193.629</ele>
        <time>2020-09-02T11:51:46Z</time>
      </trkpt>
      <trkpt lat="44.07654" lon="5.75684">
        <ele>1192.33</ele>
        <time>2020-09-02T11:51:47Z</time>
      </trkpt>
      <trkpt lat="44.0765" lon="5.75693">
        <ele>1192.178</ele>
        <time>2020-09-02T11:51:48Z</time>
      </trkpt>
      <trkpt lat="44.07645" lon="5.75703">
        <ele>1190.054</ele>
        <time>2020-09-02T11:51:49Z</time>
      </trkpt>
      <trkpt lat="44.0764" lon="5.75714">
        <ele>1189.587</ele>
        <time>2020-09-02T11:51:50Z</time>
      </trkpt>
      <trkpt lat="44.07635" lon="5.75724">
        <ele>1188.592</ele>
        <time>2020-09-02T11:51:51Z</time>
      </trkpt>
      <trkpt lat="44.0763" lon="5.75735">
        <ele>1187.673</ele>
        <time>2020-09-02T11:51:52Z</time>
      </trkpt>
      <trkpt lat="44.07624" lon="5.75746">
        <ele>1187.22</ele>
        <time>2020-09-02T11:51:53Z</time>
      </trkpt>
      <trkpt lat="44.07618" lon="5.75754">
        <ele>1185.408</ele>
        <time>2020-09-02T11:51:54Z</time>
      </trkpt>
      <trkpt lat="44.07612" lon="5.75762">
        <ele>1184.917</ele>
        <time>2020-09-02T11:51:55Z</time>
      </trkpt>
      <trkpt lat="44.07604" lon="5.75767">
        <ele>1182.876</ele>
        <time>2020-09-02T11:51:56Z</time>
      </trkpt>
      <trkpt lat="44.07596" lon="5.75774">
        <ele>1181.246</ele>
        <time>2020-09-02T11:51:57Z</time>
      </trkpt>
      <trkpt lat="44.07588" lon="5.75781">
        <ele>1181.363</ele>
        <time>2020-09-02T11:51:58Z</time>
      </trkpt>
      <trkpt lat="44.07581" lon="5.75787">
        <ele>1181.874</ele>
        <time>2020-09-02T11:51:59Z</time>
      </trkpt>
      <trkpt lat="44.07574" lon="5.75795">
        <ele>1181.372</ele>
        <time>2020-09-02T11:52:00Z</time>
      </trkpt>
      <trkpt lat="44.07567" lon="5.75803">
        <ele>1180.858</ele>
        <time>2020-09-02T11:52:01Z</time>
      </trkpt>
      <trkpt lat="44.07561" lon="5.75811">
        <ele>1178.931</ele>
        <time>2020-09-02T11:52:02Z</time>
      </trkpt>
      <trkpt lat="44.07552" lon="5.75816">
        <ele>1178.041</ele>
        <time>2020-09-02T11:52:03Z</time>
      </trkpt>
      <trkpt lat="44.07542" lon="5.75821">
        <ele>1176.581</ele>
        <time>2020-09-02T11:52:04Z</time>
      </trkpt>
      <trkpt lat="44.07534" lon="5.75827">
        <ele>1175.809</ele>
        <time>2020-09-02T11:52:05Z</time>
      </trkpt>
      <trkpt lat="44.07526" lon="5.75834">
        <ele>1174.708</ele>
        <time>2020-09-02T11:52:06Z</time>
      </trkpt>
      <trkpt lat="44.07518" lon="5.75842">
        <ele>1173.172</ele>
        <time>2020-09-02T11:52:07Z</time>
      </trkpt>
      <trkpt lat="44.07511" lon="5.75849">
        <ele>1171.141</ele>
        <time>2020-09-02T11:52:08Z</time>
      </trkpt>
      <trkpt lat="44.07504" lon="5.75855">
        <ele>1170.581</ele>
        <time>2020-09-02T11:52:09Z</time>
      </trkpt>
      <trkpt lat="44.07496" lon="5.75859">
        <ele>1169.528</ele>
        <time>2020-09-02T11:52:10Z</time>
      </trkpt>
      <trkpt lat="44.07488" lon="5.75864">
        <ele>1168.299</ele>
        <time>2020-09-02T11:52:11Z</time>
      </trkpt>
      <trkpt lat="44.0748" lon="5.75869">
        <ele>1167.087</ele>
        <time>2020-09-02T11:52:12Z</time>
      </trkpt>
      <trkpt lat="44.07472" lon="5.75875">
        <ele>1165.183</ele>
        <time>2020-09-02T11:52:13Z</time>
      </trkpt>
      <trkpt lat="44.07465" lon="5.75881">
        <ele>1164.266</ele>
        <time>2020-09-02T11:52:14Z</time>
      </trkpt>
      <trkpt lat="44.07457" lon="5.75887">
        <ele>1163.489</ele>
        <time>2020-09-02T11:52:15Z</time>
      </trkpt>
      <trkpt lat="44.07448" lon="5.75892">
        <ele>1161.506</ele>
        <time>2020-09-02T11:52:16Z</time>
      </trkpt>
      <trkpt lat="44.0744" lon="5.75896">
        <ele>1160.026</ele>
        <time>2020-09-02T11:52:17Z</time>
      </trkpt>
      <trkpt lat="44.07431" lon="5.75902">
        <ele>1159.008</ele>
        <time>2020-09-02T11:52:18Z</time>
      </trkpt>
      <trkpt lat="44.07423" lon="5.75909">
        <ele>1157.356</ele>
        <time>2020-09-02T11:52:19Z</time>
      </trkpt>
      <trkpt lat="44.07415" lon="5.75914">
        <ele>1156.465</ele>
        <time>2020-09-02T11:52:20Z</time>
      </trkpt>
      <trkpt lat="44.07407" lon="5.75919">
        <ele>1155.355</ele>
        <time>2020-09-02T11:52:21Z</time>
      </trkpt>
      <trkpt lat="44.074" lon="5.75923">
        <ele>1153.622</ele>
        <time>2020-09-02T11:52:22Z</time>
      </trkpt>
      <trkpt lat="44.07393" lon="5.75928">
        <ele>1153.493</ele>
        <time>2020-09-02T11:52:23Z</time>
      </trkpt>
      <trkpt lat="44.07387" lon="5.75934">
        <ele>1152.581</ele>
        <time>2020-09-02T11:52:24Z</time>
      </trkpt>
      <trkpt lat="44.07382" lon="5.75942">
        <ele>1151.167</ele>
        <time>2020-09-02T11:52:25Z</time>
      </trkpt>
      <trkpt lat="44.07378" lon="5.75949">
        <ele>1150.58</ele>
        <time>2020-09-02T11:52:26Z</time>
      </trkpt>
      <trkpt lat="44.07373" lon="5.75957">
        <ele>1149.958</ele>
        <time>2020-09-02T11:52:27Z</time>
      </trkpt>
      <trkpt lat="44.07369" lon="5.75964">
        <ele>1148.752</ele>
        <time>2020-09-02T11:52:28Z</time>
      </trkpt>
      <trkpt lat="44.07364" lon="5.75969">
        <ele>1148.217</ele>
        <time>2020-09-02T11:52:29Z</time>
      </trkpt>
      <trkpt lat="44.07359" lon="5.75972">
        <ele>1145.708</ele>
        <time>2020-09-02T11:52:30Z</time>
      </trkpt>
      <trkpt lat="44.07353" lon="5.75976">
        <ele>1144.633</ele>
        <time>2020-09-02T11:52:31Z</time>
      </trkpt>
      <trkpt lat="44.07347" lon="5.7598">
        <ele>1144.022</ele>
        <time>2020-09-02T11:52:32Z</time>
      </trkpt>
      <trkpt lat="44.0734" lon="5.75983">
        <ele>1143.682</ele>
        <time>2020-09-02T11:52:33Z</time>
      </trkpt>
      <trkpt lat="44.07335" lon="5.75985">
        <ele>1143.239</ele>
        <time>2020-09-02T11:52:34Z</time>
      </trkpt>
      <trkpt lat="44.07329" lon="5.75983">
        <ele>1143.07</ele>
        <time>2020-09-02T11:52:35Z</time>
      </trkpt>
      <trkpt lat="44.07324" lon="5.75981">
        <ele>1142.838</ele>
        <time>2020-09-02T11:52:36Z</time>
      </trkpt>
      <trkpt lat="44.07318" lon="5.75983">
        <ele>1142.764</ele>
        <time>2020-09-02T11:52:37Z</time>
      </trkpt>
      <trkpt lat="44.07312" lon="5.75986">
        <ele>1142.727</ele>
        <time>2020-09-02T11:52:38Z</time>
      </trkpt>
      <trkpt lat="44.07307" lon="5.75989">
        <ele>1142.428</ele>
        <time>2020-09-02T11:52:39Z</time>
      </trkpt>
      <trkpt lat="44.07302" lon="5.75992">
        <ele>1141.389</ele>
        <time>2020-09-02T11:52:40Z</time>
      </trkpt>
      <trkpt lat="44.07295" lon="5.75996">
        <ele>1139.817</ele>
        <time>2020-09-02T11:52:42Z</time>
      </trkpt>
      <trkpt lat="44.07293" lon="5.76003">
        <ele>1139.408</ele>
        <time>2020-09-02T11:52:44Z</time>
      </trkpt>
      <trkpt lat="44.07296" lon="5.76008">
        <ele>1137.61</ele>
        <time>2020-09-02T11:52:46Z</time>
      </trkpt>
      <trkpt lat="44.073" lon="5.76011">
        <ele>1137.939</ele>
        <time>2020-09-02T11:52:48Z</time>
      </trkpt>
      <trkpt lat="44.07307" lon="5.76016">
        <ele>1137.299</ele>
        <time>2020-09-02T11:52:50Z</time>
      </trkpt>
      <trkpt lat="44.07312" lon="5.76018">
        <ele>1137.156</ele>
        <time>2020-09-02T11:52:51Z</time>
      </trkpt>
      <trkpt lat="44.07318" lon="5.76022">
        <ele>1135.827</ele>
        <time>2020-09-02T11:52:52Z</time>
      </trkpt>
      <trkpt lat="44.07322" lon="5.76026">
        <ele>1136.255</ele>
        <time>2020-09-02T11:52:53Z</time>
      </trkpt>
      <trkpt lat="44.0733" lon="5.76033">
        <ele>1135.631</ele>
        <time>2020-09-02T11:52:54Z</time>
      </trkpt>
      <trkpt lat="44.07338" lon="5.7604">
        <ele>1135.394</ele>
        <time>2020-09-02T11:52:55Z</time>
      </trkpt>
      <trkpt lat="44.07345" lon="5.76045">
        <ele>1134.634</ele>
        <time>2020-09-02T11:52:56Z</time>
      </trkpt>
      <trkpt lat="44.07353" lon="5.76049">
        <ele>1135.255</ele>
        <time>2020-09-02T11:52:57Z</time>
      </trkpt>
      <trkpt lat="44.07362" lon="5.76053">
        <ele>1135.51</ele>
        <time>2020-09-02T11:52:58Z</time>
      </trkpt>
      <trkpt lat="44.07371" lon="5.76058">
        <ele>1135.708</ele>
        <time>2020-09-02T11:52:59Z</time>
      </trkpt>
      <trkpt lat="44.0738" lon="5.76063">
        <ele>1135.361</ele>
        <time>2020-09-02T11:53:00Z</time>
      </trkpt>
      <trkpt lat="44.0739" lon="5.76069">
        <ele>1134.71</ele>
        <time>2020-09-02T11:53:01Z</time>
      </trkpt>
      <trkpt lat="44.074" lon="5.76075">
        <ele>1134.88</ele>
        <time>2020-09-02T11:53:02Z</time>
      </trkpt>
      <trkpt lat="44.0741" lon="5.76079">
        <ele>1135.087</ele>
        <time>2020-09-02T11:53:03Z</time>
      </trkpt>
      <trkpt lat="44.07419" lon="5.76083">
        <ele>1134.768</ele>
        <time>2020-09-02T11:53:04Z</time>
      </trkpt>
      <trkpt lat="44.07429" lon="5.76086">
        <ele>1134.176</ele>
        <time>2020-09-02T11:53:05Z</time>
      </trkpt>
      <trkpt lat="44.07439" lon="5.76089">
        <ele>1133.472</ele>
        <time>2020-09-02T11:53:06Z</time>
      </trkpt>
      <trkpt lat="44.0745" lon="5.76095">
        <ele>1133.475</ele>
        <time>2020-09-02T11:53:07Z</time>
      </trkpt>
      <trkpt lat="44.07461" lon="5.76101">
        <ele>1133.493</ele>
        <time>2020-09-02T11:53:08Z</time>
      </trkpt>
      <trkpt lat="44.07471" lon="5.76106">
        <ele>1132.465</ele>
        <time>2020-09-02T11:53:09Z</time>
      </trkpt>
      <trkpt lat="44.07481" lon="5.76109">
        <ele>1131.921</ele>
        <time>2020-09-02T11:53:10Z</time>
      </trkpt>
      <trkpt lat="44.07494" lon="5.76113">
        <ele>1131.808</ele>
        <time>2020-09-02T11:53:11Z</time>
      </trkpt>
      <trkpt lat="44.07504" lon="5.76115">
        <ele>1131.067</ele>
        <time>2020-09-02T11:53:12Z</time>
      </trkpt>
      <trkpt lat="44.07517" lon="5.76116">
        <ele>1130.886</ele>
        <time>2020-09-02T11:53:13Z</time>
      </trkpt>
      <trkpt lat="44.07529" lon="5.76116">
        <ele>1131.256</ele>
        <time>2020-09-02T11:53:14Z</time>
      </trkpt>
      <trkpt lat="44.0754" lon="5.76117">
        <ele>1130.983</ele>
        <time>2020-09-02T11:53:15Z</time>
      </trkpt>
      <trkpt lat="44.07552" lon="5.76118">
        <ele>1131.224</ele>
        <time>2020-09-02T11:53:16Z</time>
      </trkpt>
      <trkpt lat="44.07565" lon="5.7612">
        <ele>1130.772</ele>
        <time>2020-09-02T11:53:17Z</time>
      </trkpt>
      <trkpt lat="44.07576" lon="5.76123">
        <ele>1129.998</ele>
        <time>2020-09-02T11:53:18Z</time>
      </trkpt>
      <trkpt lat="44.07586" lon="5.76124">
        <ele>1128.651</ele>
        <time>2020-09-02T11:53:19Z</time>
      </trkpt>
      <trkpt lat="44.07597" lon="5.76122">
        <ele>1127.814</ele>
        <time>2020-09-02T11:53:20Z</time>
      </trkpt>
      <trkpt lat="44.07606" lon="5.76118">
        <ele>1127.254</ele>
        <time>2020-09-02T11:53:21Z</time>
      </trkpt>
      <trkpt lat="44.07617" lon="5.76112">
        <ele>1127.509</ele>
        <time>2020-09-02T11:53:22Z</time>
      </trkpt>
      <trkpt lat="44.07628" lon="5.76104">
        <ele>1127.608</ele>
        <time>2020-09-02T11:53:23Z</time>
      </trkpt>
      <trkpt lat="44.07639" lon="5.76097">
        <ele>1127.739</ele>
        <time>2020-09-02T11:53:24Z</time>
      </trkpt>
      <trkpt lat="44.0765" lon="5.76088">
        <ele>1127.968</ele>
        <time>2020-09-02T11:53:25Z</time>
      </trkpt>
      <trkpt lat="44.0766" lon="5.76081">
        <ele>1129.468</ele>
        <time>2020-09-02T11:53:26Z</time>
      </trkpt>
      <trkpt lat="44.07668" lon="5.76075">
        <ele>1130.475</ele>
        <time>2020-09-02T11:53:27Z</time>
      </trkpt>
      <trkpt lat="44.07676" lon="5.7607">
        <ele>1131.226</ele>
        <time>2020-09-02T11:53:28Z</time>
      </trkpt>
      <trkpt lat="44.07682" lon="5.76067">
        <ele>1131.774</ele>
        <time>2020-09-02T11:53:29Z</time>
      </trkpt>
      <trkpt lat="44.07688" lon="5.76064">
        <ele>1132.01</ele>
        <time>2020-09-02T11:53:30Z</time>
      </trkpt>
      <trkpt lat="44.07687" lon="5.76078">
        <ele>1132.783</ele>
        <time>2020-09-02T11:53:31Z</time>
      </trkpt>
      <trkpt lat="44.0769" lon="5.76085">
        <ele>1133.043</ele>
        <time>2020-09-02T11:53:32Z</time>
      </trkpt>
      <trkpt lat="44.07691" lon="5.76097">
        <ele>1133.164</ele>
        <time>2020-09-02T11:53:33Z</time>
      </trkpt>
      <trkpt lat="44.07677" lon="5.76106">
        <ele>1133.91</ele>
        <time>2020-09-02T11:53:34Z</time>
      </trkpt>
      <trkpt lat="44.07669" lon="5.76114">
        <ele>1134.908</ele>
        <time>2020-09-02T11:53:35Z</time>
      </trkpt>
      <trkpt lat="44.07664" lon="5.76127">
        <ele>1132.952</ele>
        <time>2020-09-02T11:53:36Z</time>
      </trkpt>
      <trkpt lat="44.07659" lon="5.76138">
        <ele>1131.791</ele>
        <time>2020-09-02T11:53:37Z</time>
      </trkpt>
      <trkpt lat="44.07655" lon="5.76148">
        <ele>1131.221</ele>
        <time>2020-09-02T11:53:38Z</time>
      </trkpt>
      <trkpt lat="44.07652" lon="5.76158">
        <ele>1130.578</ele>
        <time>2020-09-02T11:53:39Z</time>
      </trkpt>
      <trkpt lat="44.0765" lon="5.7617">
        <ele>1131.139</ele>
        <time>2020-09-02T11:53:40Z</time>
      </trkpt>
      <trkpt lat="44.07649" lon="5.76183">
        <ele>1131.537</ele>
        <time>2020-09-02T11:53:41Z</time>
      </trkpt>
      <trkpt lat="44.07648" lon="5.76196">
        <ele>1131.453</ele>
        <time>2020-09-02T11:53:42Z</time>
      </trkpt>
      <trkpt lat="44.07645" lon="5.7621">
        <ele>1131.446</ele>
        <time>2020-09-02T11:53:43Z</time>
      </trkpt>
      <trkpt lat="44.07641" lon="5.76224">
        <ele>1132.039</ele>
        <time>2020-09-02T11:53:44Z</time>
      </trkpt>
      <trkpt lat="44.07637" lon="5.76238">
        <ele>1133.001</ele>
        <time>2020-09-02T11:53:45Z</time>
      </trkpt>
      <trkpt lat="44.07633" lon="5.76252">
        <ele>1133.021</ele>
        <time>2020-09-02T11:53:46Z</time>
      </trkpt>
      <trkpt lat="44.07629" lon="5.76265">
        <ele>1132.708</ele>
        <time>2020-09-02T11:53:47Z</time>
      </trkpt>
      <trkpt lat="44.07626" lon="5.76278">
        <ele>1132.971</ele>
        <time>2020-09-02T11:53:48Z</time>
      </trkpt>
      <trkpt lat="44.07623" lon="5.76292">
        <ele>1133.28</ele>
        <time>2020-09-02T11:53:49Z</time>
      </trkpt>
      <trkpt lat="44.07622" lon="5.76304">
        <ele>1133.74</ele>
        <time>2020-09-02T11:53:50Z</time>
      </trkpt>
      <trkpt lat="44.07624" lon="5.76317">
        <ele>1133.897</ele>
        <time>2020-09-02T11:53:51Z</time>
      </trkpt>
      <trkpt lat="44.07626" lon="5.7633">
        <ele>1134.058</ele>
        <time>2020-09-02T11:53:52Z</time>
      </trkpt>
      <trkpt lat="44.07631" lon="5.76343">
        <ele>1133.976</ele>
        <time>2020-09-02T11:53:53Z</time>
      </trkpt>
      <trkpt lat="44.07635" lon="5.76357">
        <ele>1134.762</ele>
        <time>2020-09-02T11:53:54Z</time>
      </trkpt>
      <trkpt lat="44.07638" lon="5.76372">
        <ele>1135.025</ele>
        <time>2020-09-02T11:53:55Z</time>
      </trkpt>
      <trkpt lat="44.07642" lon="5.76385">
        <ele>1135.318</ele>
        <time>2020-09-02T11:53:56Z</time>
      </trkpt>
      <trkpt lat="44.07647" lon="5.76396">
        <ele>1135.698</ele>
        <time>2020-09-02T11:53:57Z</time>
      </trkpt>
      <trkpt lat="44.07652" lon="5.76408">
        <ele>1134.417</ele>
        <time>2020-09-02T11:53:58Z</time>
      </trkpt>
      <trkpt lat="44.07658" lon="5.76419">
        <ele>1133.708</ele>
        <time>2020-09-02T11:53:59Z</time>
      </trkpt>
      <trkpt lat="44.07664" lon="5.7643">
        <ele>1133.469</ele>
        <time>2020-09-02T11:54:00Z</time>
      </trkpt>
      <trkpt lat="44.07672" lon="5.76433">
        <ele>1132.338</ele>
        <time>2020-09-02T11:54:02Z</time>
      </trkpt>
      <trkpt lat="44.07678" lon="5.76435">
        <ele>1132.578</ele>
        <time>2020-09-02T11:54:03Z</time>
      </trkpt>
      <trkpt lat="44.07685" lon="5.76436">
        <ele>1132.935</ele>
        <time>2020-09-02T11:54:04Z</time>
      </trkpt>
      <trkpt lat="44.07693" lon="5.76436">
        <ele>1133.036</ele>
        <time>2020-09-02T11:54:05Z</time>
      </trkpt>
      <trkpt lat="44.07703" lon="5.76435">
        <ele>1133.294</ele>
        <time>2020-09-02T11:54:06Z</time>
      </trkpt>
      <trkpt lat="44.07713" lon="5.76434">
        <ele>1133.23</ele>
        <time>2020-09-02T11:54:07Z</time>
      </trkpt>
      <trkpt lat="44.07723" lon="5.7643">
        <ele>1133.283</ele>
        <time>2020-09-02T11:54:08Z</time>
      </trkpt>
      <trkpt lat="44.07732" lon="5.76427">
        <ele>1133.528</ele>
        <time>2020-09-02T11:54:09Z</time>
      </trkpt>
      <trkpt lat="44.0774" lon="5.76419">
        <ele>1133.789</ele>
        <time>2020-09-02T11:54:10Z</time>
      </trkpt>
      <trkpt lat="44.07749" lon="5.76412">
        <ele>1134.917</ele>
        <time>2020-09-02T11:54:11Z</time>
      </trkpt>
      <trkpt lat="44.07757" lon="5.76407">
        <ele>1137.108</ele>
        <time>2020-09-02T11:54:12Z</time>
      </trkpt>
      <trkpt lat="44.07763" lon="5.76403">
        <ele>1137.75</ele>
        <time>2020-09-02T11:54:13Z</time>
      </trkpt>
      <trkpt lat="44.07769" lon="5.76405">
        <ele>1138.249</ele>
        <time>2020-09-02T11:54:14Z</time>
      </trkpt>
      <trkpt lat="44.07774" lon="5.76408">
        <ele>1138.869</ele>
        <time>2020-09-02T11:54:15Z</time>
      </trkpt>
      <trkpt lat="44.07776" lon="5.76415">
        <ele>1139.366</ele>
        <time>2020-09-02T11:54:16Z</time>
      </trkpt>
      <trkpt lat="44.07776" lon="5.76422">
        <ele>1139.837</ele>
        <time>2020-09-02T11:54:17Z</time>
      </trkpt>
      <trkpt lat="44.07774" lon="5.76429">
        <ele>1140.155</ele>
        <time>2020-09-02T11:54:18Z</time>
      </trkpt>
      <trkpt lat="44.07771" lon="5.7644">
        <ele>1140.141</ele>
        <time>2020-09-02T11:54:19Z</time>
      </trkpt>
      <trkpt lat="44.07768" lon="5.76453">
        <ele>1139.264</ele>
        <time>2020-09-02T11:54:20Z</time>
      </trkpt>
      <trkpt lat="44.07765" lon="5.76466">
        <ele>1138.935</ele>
        <time>2020-09-02T11:54:21Z</time>
      </trkpt>
      <trkpt lat="44.07761" lon="5.76478">
        <ele>1138.386</ele>
        <time>2020-09-02T11:54:22Z</time>
      </trkpt>
      <trkpt lat="44.07759" lon="5.76489">
        <ele>1138.614</ele>
        <time>2020-09-02T11:54:23Z</time>
      </trkpt>
      <trkpt lat="44.07758" lon="5.76499">
        <ele>1138.408</ele>
        <time>2020-09-02T11:54:24Z</time>
      </trkpt>
      <trkpt lat="44.07758" lon="5.76509">
        <ele>1138.021</ele>
        <time>2020-09-02T11:54:25Z</time>
      </trkpt>
      <trkpt lat="44.07759" lon="5.76521">
        <ele>1138.42</ele>
        <time>2020-09-02T11:54:26Z</time>
      </trkpt>
      <trkpt lat="44.07762" lon="5.76533">
        <ele>1138.18</ele>
        <time>2020-09-02T11:54:27Z</time>
      </trkpt>
      <trkpt lat="44.07765" lon="5.76544">
        <ele>1138.357</ele>
        <time>2020-09-02T11:54:28Z</time>
      </trkpt>
      <trkpt lat="44.07772" lon="5.76554">
        <ele>1138.278</ele>
        <time>2020-09-02T11:54:29Z</time>
      </trkpt>
      <trkpt lat="44.07779" lon="5.76566">
        <ele>1138.896</ele>
        <time>2020-09-02T11:54:30Z</time>
      </trkpt>
      <trkpt lat="44.07787" lon="5.76577">
        <ele>1139.432</ele>
        <time>2020-09-02T11:54:31Z</time>
      </trkpt>
      <trkpt lat="44.07793" lon="5.76591">
        <ele>1140.465</ele>
        <time>2020-09-02T11:54:32Z</time>
      </trkpt>
      <trkpt lat="44.078" lon="5.76604">
        <ele>1140.513</ele>
        <time>2020-09-02T11:54:33Z</time>
      </trkpt>
      <trkpt lat="44.07806" lon="5.7662">
        <ele>1141.343</ele>
        <time>2020-09-02T11:54:34Z</time>
      </trkpt>
      <trkpt lat="44.07812" lon="5.76634">
        <ele>1142.507</ele>
        <time>2020-09-02T11:54:35Z</time>
      </trkpt>
      <trkpt lat="44.0782" lon="5.76647">
        <ele>1142.108</ele>
        <time>2020-09-02T11:54:36Z</time>
      </trkpt>
      <trkpt lat="44.07828" lon="5.76661">
        <ele>1142.059</ele>
        <time>2020-09-02T11:54:37Z</time>
      </trkpt>
      <trkpt lat="44.07835" lon="5.76677">
        <ele>1143.138</ele>
        <time>2020-09-02T11:54:38Z</time>
      </trkpt>
      <trkpt lat="44.07843" lon="5.76692">
        <ele>1144.158</ele>
        <time>2020-09-02T11:54:39Z</time>
      </trkpt>
      <trkpt lat="44.0785" lon="5.76707">
        <ele>1144.795</ele>
        <time>2020-09-02T11:54:40Z</time>
      </trkpt>
      <trkpt lat="44.07858" lon="5.76721">
        <ele>1145.846</ele>
        <time>2020-09-02T11:54:41Z</time>
      </trkpt>
      <trkpt lat="44.07865" lon="5.76737">
        <ele>1146.674</ele>
        <time>2020-09-02T11:54:42Z</time>
      </trkpt>
      <trkpt lat="44.07873" lon="5.76752">
        <ele>1147.69</ele>
        <time>2020-09-02T11:54:43Z</time>
      </trkpt>
      <trkpt lat="44.0788" lon="5.76764">
        <ele>1148.543</ele>
        <time>2020-09-02T11:54:44Z</time>
      </trkpt>
      <trkpt lat="44.07887" lon="5.76775">
        <ele>1149.857</ele>
        <time>2020-09-02T11:54:45Z</time>
      </trkpt>
      <trkpt lat="44.07893" lon="5.76784">
        <ele>1151.1</ele>
        <time>2020-09-02T11:54:46Z</time>
      </trkpt>
      <trkpt lat="44.07899" lon="5.76794">
        <ele>1151.92</ele>
        <time>2020-09-02T11:54:47Z</time>
      </trkpt>
      <trkpt lat="44.07904" lon="5.76803">
        <ele>1152.408</ele>
        <time>2020-09-02T11:54:48Z</time>
      </trkpt>
      <trkpt lat="44.07909" lon="5.76812">
        <ele>1153.093</ele>
        <time>2020-09-02T11:54:49Z</time>
      </trkpt>
      <trkpt lat="44.07913" lon="5.76815">
        <ele>1154.062</ele>
        <time>2020-09-02T11:54:50Z</time>
      </trkpt>
      <trkpt lat="44.07919" lon="5.76821">
        <ele>1154.382</ele>
        <time>2020-09-02T11:54:51Z</time>
      </trkpt>
      <trkpt lat="44.07923" lon="5.76826">
        <ele>1154.839</ele>
        <time>2020-09-02T11:54:52Z</time>
      </trkpt>
      <trkpt lat="44.07927" lon="5.76833">
        <ele>1154.82</ele>
        <time>2020-09-02T11:54:53Z</time>
      </trkpt>
      <trkpt lat="44.0793" lon="5.76844">
        <ele>1155.928</ele>
        <time>2020-09-02T11:54:54Z</time>
      </trkpt>
      <trkpt lat="44.07932" lon="5.76856">
        <ele>1156.634</ele>
        <time>2020-09-02T11:54:55Z</time>
      </trkpt>
      <trkpt lat="44.07934" lon="5.76868">
        <ele>1157.037</ele>
        <time>2020-09-02T11:54:56Z</time>
      </trkpt>
      <trkpt lat="44.07937" lon="5.76878">
        <ele>1157.494</ele>
        <time>2020-09-02T11:54:57Z</time>
      </trkpt>
      <trkpt lat="44.07939" lon="5.76889">
        <ele>1158.157</ele>
        <time>2020-09-02T11:54:58Z</time>
      </trkpt>
      <trkpt lat="44.07942" lon="5.76899">
        <ele>1158.922</ele>
        <time>2020-09-02T11:54:59Z</time>
      </trkpt>
      <trkpt lat="44.07947" lon="5.76909">
        <ele>1159.508</ele>
        <time>2020-09-02T11:55:00Z</time>
      </trkpt>
      <trkpt lat="44.07952" lon="5.76917">
        <ele>1159.137</ele>
        <time>2020-09-02T11:55:01Z</time>
      </trkpt>
      <trkpt lat="44.07959" lon="5.76924">
        <ele>1159.126</ele>
        <time>2020-09-02T11:55:02Z</time>
      </trkpt>
      <trkpt lat="44.07964" lon="5.76929">
        <ele>1159.656</ele>
        <time>2020-09-02T11:55:03Z</time>
      </trkpt>
      <trkpt lat="44.0797" lon="5.76933">
        <ele>1160.453</ele>
        <time>2020-09-02T11:55:04Z</time>
      </trkpt>
      <trkpt lat="44.07979" lon="5.76939">
        <ele>1161.044</ele>
        <time>2020-09-02T11:55:06Z</time>
      </trkpt>
      <trkpt lat="44.07984" lon="5.76943">
        <ele>1161.382</ele>
        <time>2020-09-02T11:55:07Z</time>
      </trkpt>
      <trkpt lat="44.07992" lon="5.76945">
        <ele>1162.078</ele>
        <time>2020-09-02T11:55:08Z</time>
      </trkpt>
      <trkpt lat="44.07999" lon="5.7695">
        <ele>1161.421</ele>
        <time>2020-09-02T11:55:09Z</time>
      </trkpt>
      <trkpt lat="44.08006" lon="5.76954">
        <ele>1161.566</ele>
        <time>2020-09-02T11:55:10Z</time>
      </trkpt>
      <trkpt lat="44.0801" lon="5.76956">
        <ele>1162.129</ele>
        <time>2020-09-02T11:55:11Z</time>
      </trkpt>
      <trkpt lat="44.08016" lon="5.76958">
        <ele>1162.221</ele>
        <time>2020-09-02T11:55:12Z</time>
      </trkpt>
      <trkpt lat="44.08023" lon="5.76958">
        <ele>1161.908</ele>
        <time>2020-09-02T11:55:13Z</time>
      </trkpt>
      <trkpt lat="44.08029" lon="5.76958">
        <ele>1162.034</ele>
        <time>2020-09-02T11:55:14Z</time>
      </trkpt>
      <trkpt lat="44.08037" lon="5.76957">
        <ele>1162.043</ele>
        <time>2020-09-02T11:55:15Z</time>
      </trkpt>
      <trkpt lat="44.08043" lon="5.76955">
        <ele>1161.793</ele>
        <time>2020-09-02T11:55:16Z</time>
      </trkpt>
      <trkpt lat="44.0805" lon="5.76951">
        <ele>1161.96</ele>
        <time>2020-09-02T11:55:17Z</time>
      </trkpt>
      <trkpt lat="44.08056" lon="5.76949">
        <ele>1161.911</ele>
        <time>2020-09-02T11:55:18Z</time>
      </trkpt>
      <trkpt lat="44.08063" lon="5.76946">
        <ele>1161.439</ele>
        <time>2020-09-02T11:55:19Z</time>
      </trkpt>
      <trkpt lat="44.08069" lon="5.76941">
        <ele>1161.255</ele>
        <time>2020-09-02T11:55:20Z</time>
      </trkpt>
      <trkpt lat="44.08076" lon="5.76936">
        <ele>1160.418</ele>
        <time>2020-09-02T11:55:21Z</time>
      </trkpt>
      <trkpt lat="44.08086" lon="5.76934">
        <ele>1158.952</ele>
        <time>2020-09-02T11:55:22Z</time>
      </trkpt>
      <trkpt lat="44.08092" lon="5.76928">
        <ele>1158.253</ele>
        <time>2020-09-02T11:55:23Z</time>
      </trkpt>
      <trkpt lat="44.08099" lon="5.76921">
        <ele>1157.808</ele>
        <time>2020-09-02T11:55:24Z</time>
      </trkpt>
      <trkpt lat="44.08107" lon="5.76912">
        <ele>1157.508</ele>
        <time>2020-09-02T11:55:25Z</time>
      </trkpt>
      <trkpt lat="44.08113" lon="5.76903">
        <ele>1157.693</ele>
        <time>2020-09-02T11:55:26Z</time>
      </trkpt>
      <trkpt lat="44.08117" lon="5.76893">
        <ele>1157.992</ele>
        <time>2020-09-02T11:55:27Z</time>
      </trkpt>
      <trkpt lat="44.0812" lon="5.76882">
        <ele>1158.372</ele>
        <time>2020-09-02T11:55:28Z</time>
      </trkpt>
      <trkpt lat="44.08123" lon="5.76874">
        <ele>1158.229</ele>
        <time>2020-09-02T11:55:29Z</time>
      </trkpt>
      <trkpt lat="44.08126" lon="5.76869">
        <ele>1158.34</ele>
        <time>2020-09-02T11:55:30Z</time>
      </trkpt>
      <trkpt lat="44.0813" lon="5.76866">
        <ele>1159.018</ele>
        <time>2020-09-02T11:55:31Z</time>
      </trkpt>
      <trkpt lat="44.08135" lon="5.76869">
        <ele>1160.264</ele>
        <time>2020-09-02T11:55:32Z</time>
      </trkpt>
      <trkpt lat="44.08138" lon="5.76874">
        <ele>1160.287</ele>
        <time>2020-09-02T11:55:33Z</time>
      </trkpt>
      <trkpt lat="44.08142" lon="5.76884">
        <ele>1160.426</ele>
        <time>2020-09-02T11:55:34Z</time>
      </trkpt>
      <trkpt lat="44.08144" lon="5.76897">
        <ele>1158.147</ele>
        <time>2020-09-02T11:55:35Z</time>
      </trkpt>
      <trkpt lat="44.08147" lon="5.76908">
        <ele>1157.011</ele>
        <time>2020-09-02T11:55:36Z</time>
      </trkpt>
      <trkpt lat="44.08149" lon="5.76919">
        <ele>1155.908</ele>
        <time>2020-09-02T11:55:37Z</time>
      </trkpt>
      <trkpt lat="44.08149" lon="5.7693">
        <ele>1155.57</ele>
        <time>2020-09-02T11:55:38Z</time>
      </trkpt>
      <trkpt lat="44.0815" lon="5.76943">
        <ele>1155.159</ele>
        <time>2020-09-02T11:55:39Z</time>
      </trkpt>
      <trkpt lat="44.08151" lon="5.76955">
        <ele>1154.399</ele>
        <time>2020-09-02T11:55:40Z</time>
      </trkpt>
      <trkpt lat="44.08152" lon="5.76963">
        <ele>1153.796</ele>
        <time>2020-09-02T11:55:41Z</time>
      </trkpt>
      <trkpt lat="44.08153" lon="5.7697">
        <ele>1153.357</ele>
        <time>2020-09-02T11:55:42Z</time>
      </trkpt>
      <trkpt lat="44.08156" lon="5.76975">
        <ele>1153.575</ele>
        <time>2020-09-02T11:55:43Z</time>
      </trkpt>
      <trkpt lat="44.08163" lon="5.7698">
        <ele>1151.941</ele>
        <time>2020-09-02T11:55:45Z</time>
      </trkpt>
      <trkpt lat="44.08168" lon="5.76982">
        <ele>1151.514</ele>
        <time>2020-09-02T11:55:46Z</time>
      </trkpt>
      <trkpt lat="44.08176" lon="5.76979">
        <ele>1150.833</ele>
        <time>2020-09-02T11:55:47Z</time>
      </trkpt>
      <trkpt lat="44.08185" lon="5.76975">
        <ele>1150.223</ele>
        <time>2020-09-02T11:55:48Z</time>
      </trkpt>
      <trkpt lat="44.08194" lon="5.7697">
        <ele>1150.115</ele>
        <time>2020-09-02T11:55:49Z</time>
      </trkpt>
      <trkpt lat="44.08202" lon="5.76965">
        <ele>1149.508</ele>
        <time>2020-09-02T11:55:50Z</time>
      </trkpt>
      <trkpt lat="44.08211" lon="5.76961">
        <ele>1147.911</ele>
        <time>2020-09-02T11:55:51Z</time>
      </trkpt>
      <trkpt lat="44.08218" lon="5.76956">
        <ele>1147.71</ele>
        <time>2020-09-02T11:55:52Z</time>
      </trkpt>
      <trkpt lat="44.08226" lon="5.76951">
        <ele>1147.85</ele>
        <time>2020-09-02T11:55:53Z</time>
      </trkpt>
      <trkpt lat="44.08232" lon="5.76947">
        <ele>1148.557</ele>
        <time>2020-09-02T11:55:54Z</time>
      </trkpt>
      <trkpt lat="44.0824" lon="5.76942">
        <ele>1149.278</ele>
        <time>2020-09-02T11:55:55Z</time>
      </trkpt>
      <trkpt lat="44.08246" lon="5.7694">
        <ele>1149.746</ele>
        <time>2020-09-02T11:55:56Z</time>
      </trkpt>
      <trkpt lat="44.08252" lon="5.76941">
        <ele>1150.782</ele>
        <time>2020-09-02T11:55:57Z</time>
      </trkpt>
      <trkpt lat="44.08258" lon="5.76942">
        <ele>1150.525</ele>
        <time>2020-09-02T11:55:58Z</time>
      </trkpt>
      <trkpt lat="44.08261" lon="5.76947">
        <ele>1150.127</ele>
        <time>2020-09-02T11:55:59Z</time>
      </trkpt>
      <trkpt lat="44.08262" lon="5.7696">
        <ele>1148.368</ele>
        <time>2020-09-02T11:56:01Z</time>
      </trkpt>
      <trkpt lat="44.0826" lon="5.76968">
        <ele>1147.214</ele>
        <time>2020-09-02T11:56:02Z</time>
      </trkpt>
      <trkpt lat="44.08258" lon="5.76975">
        <ele>1147.108</ele>
        <time>2020-09-02T11:56:03Z</time>
      </trkpt>
      <trkpt lat="44.08254" lon="5.76984">
        <ele>1143.97</ele>
        <time>2020-09-02T11:56:05Z</time>
      </trkpt>
      <trkpt lat="44.08247" lon="5.76988">
        <ele>1142.339</ele>
        <time>2020-09-02T11:56:07Z</time>
      </trkpt>
      <trkpt lat="44.08242" lon="5.76992">
        <ele>1141.499</ele>
        <time>2020-09-02T11:56:08Z</time>
      </trkpt>
      <trkpt lat="44.08238" lon="5.76998">
        <ele>1141.326</ele>
        <time>2020-09-02T11:56:09Z</time>
      </trkpt>
      <trkpt lat="44.08234" lon="5.77004">
        <ele>1141.167</ele>
        <time>2020-09-02T11:56:10Z</time>
      </trkpt>
      <trkpt lat="44.08229" lon="5.77013">
        <ele>1140.365</ele>
        <time>2020-09-02T11:56:11Z</time>
      </trkpt>
      <trkpt lat="44.08225" lon="5.77022">
        <ele>1139.731</ele>
        <time>2020-09-02T11:56:12Z</time>
      </trkpt>
      <trkpt lat="44.08221" lon="5.77033">
        <ele>1138.354</ele>
        <time>2020-09-02T11:56:13Z</time>
      </trkpt>
      <trkpt lat="44.08216" lon="5.77043">
        <ele>1137.752</ele>
        <time>2020-09-02T11:56:14Z</time>
      </trkpt>
      <trkpt lat="44.08211" lon="5.77053">
        <ele>1136.953</ele>
        <time>2020-09-02T11:56:15Z</time>
      </trkpt>
      <trkpt lat="44.08206" lon="5.7706">
        <ele>1135.708</ele>
        <time>2020-09-02T11:56:16Z</time>
      </trkpt>
      <trkpt lat="44.08201" lon="5.77068">
        <ele>1135.308</ele>
        <time>2020-09-02T11:56:17Z</time>
      </trkpt>
      <trkpt lat="44.08194" lon="5.77073">
        <ele>1134.413</ele>
        <time>2020-09-02T11:56:18Z</time>
      </trkpt>
      <trkpt lat="44.08187" lon="5.77079">
        <ele>1134.482</ele>
        <time>2020-09-02T11:56:19Z</time>
      </trkpt>
      <trkpt lat="44.08179" lon="5.77085">
        <ele>1133.832</ele>
        <time>2020-09-02T11:56:20Z</time>
      </trkpt>
      <trkpt lat="44.08172" lon="5.77093">
        <ele>1133.479</ele>
        <time>2020-09-02T11:56:21Z</time>
      </trkpt>
      <trkpt lat="44.08168" lon="5.77102">
        <ele>1133.25</ele>
        <time>2020-09-02T11:56:22Z</time>
      </trkpt>
      <trkpt lat="44.08165" lon="5.77112">
        <ele>1131.858</ele>
        <time>2020-09-02T11:56:23Z</time>
      </trkpt>
      <trkpt lat="44.08164" lon="5.77122">
        <ele>1129.534</ele>
        <time>2020-09-02T11:56:24Z</time>
      </trkpt>
      <trkpt lat="44.0816" lon="5.77133">
        <ele>1129.137</ele>
        <time>2020-09-02T11:56:25Z</time>
      </trkpt>
      <trkpt lat="44.08157" lon="5.77143">
        <ele>1128.516</ele>
        <time>2020-09-02T11:56:26Z</time>
      </trkpt>
      <trkpt lat="44.08152" lon="5.77152">
        <ele>1127.476</ele>
        <time>2020-09-02T11:56:27Z</time>
      </trkpt>
      <trkpt lat="44.08147" lon="5.77163">
        <ele>1126.613</ele>
        <time>2020-09-02T11:56:28Z</time>
      </trkpt>
      <trkpt lat="44.08139" lon="5.77171">
        <ele>1126.508</ele>
        <time>2020-09-02T11:56:29Z</time>
      </trkpt>
      <trkpt lat="44.08134" lon="5.77178">
        <ele>1124.169</ele>
        <time>2020-09-02T11:56:30Z</time>
      </trkpt>
      <trkpt lat="44.08126" lon="5.77185">
        <ele>1122.048</ele>
        <time>2020-09-02T11:56:31Z</time>
      </trkpt>
      <trkpt lat="44.08121" lon="5.77195">
        <ele>1121.948</ele>
        <time>2020-09-02T11:56:32Z</time>
      </trkpt>
      <trkpt lat="44.08117" lon="5.77206">
        <ele>1121.025</ele>
        <time>2020-09-02T11:56:33Z</time>
      </trkpt>
      <trkpt lat="44.08112" lon="5.77217">
        <ele>1120.356</ele>
        <time>2020-09-02T11:56:34Z</time>
      </trkpt>
      <trkpt lat="44.08109" lon="5.77227">
        <ele>1118.664</ele>
        <time>2020-09-02T11:56:35Z</time>
      </trkpt>
      <trkpt lat="44.08106" lon="5.77238">
        <ele>1117.94</ele>
        <time>2020-09-02T11:56:36Z</time>
      </trkpt>
      <trkpt lat="44.08101" lon="5.77249">
        <ele>1117.133</ele>
        <time>2020-09-02T11:56:37Z</time>
      </trkpt>
      <trkpt lat="44.08098" lon="5.77261">
        <ele>1116.643</ele>
        <time>2020-09-02T11:56:38Z</time>
      </trkpt>
      <trkpt lat="44.08094" lon="5.77271">
        <ele>1115.764</ele>
        <time>2020-09-02T11:56:39Z</time>
      </trkpt>
      <trkpt lat="44.08089" lon="5.77282">
        <ele>1115.31</ele>
        <time>2020-09-02T11:56:40Z</time>
      </trkpt>
      <trkpt lat="44.08085" lon="5.77294">
        <ele>1113.908</ele>
        <time>2020-09-02T11:56:41Z</time>
      </trkpt>
      <trkpt lat="44.08079" lon="5.77306">
        <ele>1113.032</ele>
        <time>2020-09-02T11:56:42Z</time>
      </trkpt>
      <trkpt lat="44.08072" lon="5.77318">
        <ele>1112.631</ele>
        <time>2020-09-02T11:56:43Z</time>
      </trkpt>
      <trkpt lat="44.08065" lon="5.77328">
        <ele>1112.621</ele>
        <time>2020-09-02T11:56:44Z</time>
      </trkpt>
      <trkpt lat="44.08058" lon="5.77339">
        <ele>1111.228</ele>
        <time>2020-09-02T11:56:45Z</time>
      </trkpt>
      <trkpt lat="44.0805" lon="5.77349">
        <ele>1110.219</ele>
        <time>2020-09-02T11:56:46Z</time>
      </trkpt>
      <trkpt lat="44.0804" lon="5.77357">
        <ele>1109.577</ele>
        <time>2020-09-02T11:56:47Z</time>
      </trkpt>
      <trkpt lat="44.0803" lon="5.77365">
        <ele>1108.633</ele>
        <time>2020-09-02T11:56:48Z</time>
      </trkpt>
      <trkpt lat="44.0802" lon="5.7737">
        <ele>1108.496</ele>
        <time>2020-09-02T11:56:49Z</time>
      </trkpt>
      <trkpt lat="44.08008" lon="5.77372">
        <ele>1107.471</ele>
        <time>2020-09-02T11:56:50Z</time>
      </trkpt>
      <trkpt lat="44.07998" lon="5.77371">
        <ele>1106.441</ele>
        <time>2020-09-02T11:56:51Z</time>
      </trkpt>
      <trkpt lat="44.07987" lon="5.7737">
        <ele>1104.915</ele>
        <time>2020-09-02T11:56:52Z</time>
      </trkpt>
      <trkpt lat="44.07977" lon="5.7737">
        <ele>1103.508</ele>
        <time>2020-09-02T11:56:53Z</time>
      </trkpt>
      <trkpt lat="44.07967" lon="5.7737">
        <ele>1103.075</ele>
        <time>2020-09-02T11:56:54Z</time>
      </trkpt>
      <trkpt lat="44.07956" lon="5.77371">
        <ele>1100.924</ele>
        <time>2020-09-02T11:56:55Z</time>
      </trkpt>
      <trkpt lat="44.07947" lon="5.77372">
        <ele>1100.324</ele>
        <time>2020-09-02T11:56:56Z</time>
      </trkpt>
      <trkpt lat="44.07938" lon="5.77374">
        <ele>1099.531</ele>
        <time>2020-09-02T11:56:57Z</time>
      </trkpt>
      <trkpt lat="44.07928" lon="5.77378">
        <ele>1099.162</ele>
        <time>2020-09-02T11:56:58Z</time>
      </trkpt>
      <trkpt lat="44.07919" lon="5.77382">
        <ele>1098.21</ele>
        <time>2020-09-02T11:56:59Z</time>
      </trkpt>
      <trkpt lat="44.0791" lon="5.77387">
        <ele>1097.666</ele>
        <time>2020-09-02T11:57:00Z</time>
      </trkpt>
      <trkpt lat="44.07901" lon="5.77392">
        <ele>1096.929</ele>
        <time>2020-09-02T11:57:01Z</time>
      </trkpt>
      <trkpt lat="44.07893" lon="5.77398">
        <ele>1096.431</ele>
        <time>2020-09-02T11:57:02Z</time>
      </trkpt>
      <trkpt lat="44.07885" lon="5.77401">
        <ele>1096.461</ele>
        <time>2020-09-02T11:57:03Z</time>
      </trkpt>
      <trkpt lat="44.07876" lon="5.77408">
        <ele>1095.407</ele>
        <time>2020-09-02T11:57:04Z</time>
      </trkpt>
      <trkpt lat="44.07869" lon="5.77416">
        <ele>1094.908</ele>
        <time>2020-09-02T11:57:05Z</time>
      </trkpt>
      <trkpt lat="44.07861" lon="5.77423">
        <ele>1094.391</ele>
        <time>2020-09-02T11:57:06Z</time>
      </trkpt>
      <trkpt lat="44.07854" lon="5.7743">
        <ele>1093.76</ele>
        <time>2020-09-02T11:57:07Z</time>
      </trkpt>
      <trkpt lat="44.07846" lon="5.77436">
        <ele>1093.24</ele>
        <time>2020-09-02T11:57:08Z</time>
      </trkpt>
      <trkpt lat="44.07839" lon="5.77441">
        <ele>1091.917</ele>
        <time>2020-09-02T11:57:09Z</time>
      </trkpt>
      <trkpt lat="44.07831" lon="5.77447">
        <ele>1091.698</ele>
        <time>2020-09-02T11:57:10Z</time>
      </trkpt>
      <trkpt lat="44.07823" lon="5.77456">
        <ele>1090.466</ele>
        <time>2020-09-02T11:57:11Z</time>
      </trkpt>
      <trkpt lat="44.07817" lon="5.77464">
        <ele>1089.872</ele>
        <time>2020-09-02T11:57:12Z</time>
      </trkpt>
      <trkpt lat="44.07812" lon="5.77474">
        <ele>1089.285</ele>
        <time>2020-09-02T11:57:13Z</time>
      </trkpt>
      <trkpt lat="44.07807" lon="5.77486">
        <ele>1087.875</ele>
        <time>2020-09-02T11:57:14Z</time>
      </trkpt>
      <trkpt lat="44.07803" lon="5.77497">
        <ele>1086.928</ele>
        <time>2020-09-02T11:57:15Z</time>
      </trkpt>
      <trkpt lat="44.07797" lon="5.77505">
        <ele>1083.62</ele>
        <time>2020-09-02T11:57:16Z</time>
      </trkpt>
      <trkpt lat="44.07794" lon="5.77517">
        <ele>1081.908</ele>
        <time>2020-09-02T11:57:17Z</time>
      </trkpt>
      <trkpt lat="44.07792" lon="5.77528">
        <ele>1080.795</ele>
        <time>2020-09-02T11:57:18Z</time>
      </trkpt>
      <trkpt lat="44.07789" lon="5.77539">
        <ele>1080.434</ele>
        <time>2020-09-02T11:57:19Z</time>
      </trkpt>
      <trkpt lat="44.07786" lon="5.77551">
        <ele>1079.024</ele>
        <time>2020-09-02T11:57:20Z</time>
      </trkpt>
      <trkpt lat="44.07784" lon="5.77563">
        <ele>1078.281</ele>
        <time>2020-09-02T11:57:21Z</time>
      </trkpt>
      <trkpt lat="44.07783" lon="5.77574">
        <ele>1077.172</ele>
        <time>2020-09-02T11:57:22Z</time>
      </trkpt>
      <trkpt lat="44.07782" lon="5.77585">
        <ele>1076.49</ele>
        <time>2020-09-02T11:57:23Z</time>
      </trkpt>
      <trkpt lat="44.07784" lon="5.77597">
        <ele>1075.036</ele>
        <time>2020-09-02T11:57:24Z</time>
      </trkpt>
      <trkpt lat="44.07785" lon="5.77609">
        <ele>1074.629</ele>
        <time>2020-09-02T11:57:25Z</time>
      </trkpt>
      <trkpt lat="44.07786" lon="5.77621">
        <ele>1073.692</ele>
        <time>2020-09-02T11:57:26Z</time>
      </trkpt>
      <trkpt lat="44.07784" lon="5.77637">
        <ele>1073.573</ele>
        <time>2020-09-02T11:57:27Z</time>
      </trkpt>
      <trkpt lat="44.07784" lon="5.77651">
        <ele>1072.52</ele>
        <time>2020-09-02T11:57:28Z</time>
      </trkpt>
      <trkpt lat="44.07784" lon="5.77666">
        <ele>1070.608</ele>
        <time>2020-09-02T11:57:29Z</time>
      </trkpt>
      <trkpt lat="44.07782" lon="5.77679">
        <ele>1069.487</ele>
        <time>2020-09-02T11:57:30Z</time>
      </trkpt>
      <trkpt lat="44.0778" lon="5.77692">
        <ele>1068.586</ele>
        <time>2020-09-02T11:57:31Z</time>
      </trkpt>
      <trkpt lat="44.07779" lon="5.77705">
        <ele>1067.016</ele>
        <time>2020-09-02T11:57:32Z</time>
      </trkpt>
      <trkpt lat="44.07777" lon="5.77714">
        <ele>1066.943</ele>
        <time>2020-09-02T11:57:33Z</time>
      </trkpt>
      <trkpt lat="44.07778" lon="5.77723">
        <ele>1066.024</ele>
        <time>2020-09-02T11:57:34Z</time>
      </trkpt>
      <trkpt lat="44.07776" lon="5.77732">
        <ele>1065.772</ele>
        <time>2020-09-02T11:57:35Z</time>
      </trkpt>
      <trkpt lat="44.07774" lon="5.7774">
        <ele>1065.518</ele>
        <time>2020-09-02T11:57:36Z</time>
      </trkpt>
      <trkpt lat="44.0777" lon="5.77747">
        <ele>1065.111</ele>
        <time>2020-09-02T11:57:37Z</time>
      </trkpt>
      <trkpt lat="44.07765" lon="5.77754">
        <ele>1064.418</ele>
        <time>2020-09-02T11:57:38Z</time>
      </trkpt>
      <trkpt lat="44.07759" lon="5.7776">
        <ele>1063.598</ele>
        <time>2020-09-02T11:57:39Z</time>
      </trkpt>
      <trkpt lat="44.0775" lon="5.77766">
        <ele>1061.917</ele>
        <time>2020-09-02T11:57:40Z</time>
      </trkpt>
      <trkpt lat="44.07743" lon="5.77773">
        <ele>1060.608</ele>
        <time>2020-09-02T11:57:41Z</time>
      </trkpt>
      <trkpt lat="44.07736" lon="5.77779">
        <ele>1060.469</ele>
        <time>2020-09-02T11:57:42Z</time>
      </trkpt>
      <trkpt lat="44.0773" lon="5.77786">
        <ele>1059.818</ele>
        <time>2020-09-02T11:57:43Z</time>
      </trkpt>
      <trkpt lat="44.07727" lon="5.77796">
        <ele>1059.168</ele>
        <time>2020-09-02T11:57:44Z</time>
      </trkpt>
      <trkpt lat="44.07725" lon="5.77807">
        <ele>1057.455</ele>
        <time>2020-09-02T11:57:45Z</time>
      </trkpt>
      <trkpt lat="44.07722" lon="5.77817">
        <ele>1055.836</ele>
        <time>2020-09-02T11:57:46Z</time>
      </trkpt>
      <trkpt lat="44.07718" lon="5.77827">
        <ele>1055.494</ele>
        <time>2020-09-02T11:57:47Z</time>
      </trkpt>
      <trkpt lat="44.07713" lon="5.77838">
        <ele>1054.65</ele>
        <time>2020-09-02T11:57:48Z</time>
      </trkpt>
      <trkpt lat="44.07706" lon="5.77845">
        <ele>1053.743</ele>
        <time>2020-09-02T11:57:49Z</time>
      </trkpt>
      <trkpt lat="44.07698" lon="5.77852">
        <ele>1053.241</ele>
        <time>2020-09-02T11:57:50Z</time>
      </trkpt>
      <trkpt lat="44.0769" lon="5.77859">
        <ele>1052.881</ele>
        <time>2020-09-02T11:57:51Z</time>
      </trkpt>
      <trkpt lat="44.0768" lon="5.7787">
        <ele>1050.909</ele>
        <time>2020-09-02T11:57:52Z</time>
      </trkpt>
      <trkpt lat="44.07673" lon="5.77881">
        <ele>1050.408</ele>
        <time>2020-09-02T11:57:53Z</time>
      </trkpt>
      <trkpt lat="44.07666" lon="5.77892">
        <ele>1049.052</ele>
        <time>2020-09-02T11:57:54Z</time>
      </trkpt>
      <trkpt lat="44.07658" lon="5.779">
        <ele>1046.941</ele>
        <time>2020-09-02T11:57:55Z</time>
      </trkpt>
      <trkpt lat="44.07652" lon="5.77909">
        <ele>1045.791</ele>
        <time>2020-09-02T11:57:56Z</time>
      </trkpt>
      <trkpt lat="44.07646" lon="5.77917">
        <ele>1044.548</ele>
        <time>2020-09-02T11:57:57Z</time>
      </trkpt>
      <trkpt lat="44.07639" lon="5.77924">
        <ele>1043.879</ele>
        <time>2020-09-02T11:57:58Z</time>
      </trkpt>
      <trkpt lat="44.07633" lon="5.7793">
        <ele>1043.577</ele>
        <time>2020-09-02T11:57:59Z</time>
      </trkpt>
      <trkpt lat="44.07626" lon="5.77936">
        <ele>1042.463</ele>
        <time>2020-09-02T11:58:00Z</time>
      </trkpt>
      <trkpt lat="44.0762" lon="5.77944">
        <ele>1041.566</ele>
        <time>2020-09-02T11:58:01Z</time>
      </trkpt>
      <trkpt lat="44.07615" lon="5.77952">
        <ele>1040.593</ele>
        <time>2020-09-02T11:58:02Z</time>
      </trkpt>
      <trkpt lat="44.07609" lon="5.77959">
        <ele>1039.265</ele>
        <time>2020-09-02T11:58:03Z</time>
      </trkpt>
      <trkpt lat="44.07603" lon="5.77965">
        <ele>1038.021</ele>
        <time>2020-09-02T11:58:04Z</time>
      </trkpt>
      <trkpt lat="44.07598" lon="5.77971">
        <ele>1036.508</ele>
        <time>2020-09-02T11:58:05Z</time>
      </trkpt>
      <trkpt lat="44.07591" lon="5.77978">
        <ele>1035.977</ele>
        <time>2020-09-02T11:58:06Z</time>
      </trkpt>
      <trkpt lat="44.07587" lon="5.77988">
        <ele>1033.516</ele>
        <time>2020-09-02T11:58:07Z</time>
      </trkpt>
      <trkpt lat="44.07583" lon="5.77997">
        <ele>1032.876</ele>
        <time>2020-09-02T11:58:08Z</time>
      </trkpt>
      <trkpt lat="44.07578" lon="5.78007">
        <ele>1032.463</ele>
        <time>2020-09-02T11:58:09Z</time>
      </trkpt>
      <trkpt lat="44.07573" lon="5.78016">
        <ele>1031.394</ele>
        <time>2020-09-02T11:58:10Z</time>
      </trkpt>
      <trkpt lat="44.07568" lon="5.78027">
        <ele>1030.332</ele>
        <time>2020-09-02T11:58:11Z</time>
      </trkpt>
      <trkpt lat="44.0756" lon="5.78035">
        <ele>1029.748</ele>
        <time>2020-09-02T11:58:12Z</time>
      </trkpt>
      <trkpt lat="44.07553" lon="5.78045">
        <ele>1028.341</ele>
        <time>2020-09-02T11:58:13Z</time>
      </trkpt>
      <trkpt lat="44.07547" lon="5.78055">
        <ele>1026.978</ele>
        <time>2020-09-02T11:58:14Z</time>
      </trkpt>
      <trkpt lat="44.0754" lon="5.78063">
        <ele>1026.533</ele>
        <time>2020-09-02T11:58:15Z</time>
      </trkpt>
      <trkpt lat="44.07535" lon="5.78072">
        <ele>1025.726</ele>
        <time>2020-09-02T11:58:16Z</time>
      </trkpt>
      <trkpt lat="44.07529" lon="5.78083">
        <ele>1024.608</ele>
        <time>2020-09-02T11:58:17Z</time>
      </trkpt>
      <trkpt lat="44.07524" lon="5.78095">
        <ele>1022.785</ele>
        <time>2020-09-02T11:58:18Z</time>
      </trkpt>
      <trkpt lat="44.07519" lon="5.78106">
        <ele>1022.164</ele>
        <time>2020-09-02T11:58:19Z</time>
      </trkpt>
      <trkpt lat="44.07513" lon="5.78117">
        <ele>1021.914</ele>
        <time>2020-09-02T11:58:20Z</time>
      </trkpt>
      <trkpt lat="44.07508" lon="5.78129">
        <ele>1021.281</ele>
        <time>2020-09-02T11:58:21Z</time>
      </trkpt>
      <trkpt lat="44.07503" lon="5.78141">
        <ele>1020.122</ele>
        <time>2020-09-02T11:58:22Z</time>
      </trkpt>
      <trkpt lat="44.07497" lon="5.78153">
        <ele>1018.86</ele>
        <time>2020-09-02T11:58:23Z</time>
      </trkpt>
      <trkpt lat="44.07493" lon="5.78164">
        <ele>1017.586</ele>
        <time>2020-09-02T11:58:24Z</time>
      </trkpt>
      <trkpt lat="44.0749" lon="5.78176">
        <ele>1014.959</ele>
        <time>2020-09-02T11:58:25Z</time>
      </trkpt>
      <trkpt lat="44.07485" lon="5.78186">
        <ele>1014.829</ele>
        <time>2020-09-02T11:58:26Z</time>
      </trkpt>
      <trkpt lat="44.0748" lon="5.78197">
        <ele>1013.8</ele>
        <time>2020-09-02T11:58:27Z</time>
      </trkpt>
      <trkpt lat="44.07477" lon="5.78206">
        <ele>1012.82</ele>
        <time>2020-09-02T11:58:28Z</time>
      </trkpt>
      <trkpt lat="44.07472" lon="5.78216">
        <ele>1011.908</ele>
        <time>2020-09-02T11:58:29Z</time>
      </trkpt>
      <trkpt lat="44.07465" lon="5.78222">
        <ele>1010.89</ele>
        <time>2020-09-02T11:58:30Z</time>
      </trkpt>
      <trkpt lat="44.07456" lon="5.78227">
        <ele>1009.259</ele>
        <time>2020-09-02T11:58:31Z</time>
      </trkpt>
      <trkpt lat="44.07448" lon="5.78232">
        <ele>1008.019</ele>
        <time>2020-09-02T11:58:32Z</time>
      </trkpt>
      <trkpt lat="44.0744" lon="5.78236">
        <ele>1006.696</ele>
        <time>2020-09-02T11:58:33Z</time>
      </trkpt>
      <trkpt lat="44.07432" lon="5.78242">
        <ele>1005.417</ele>
        <time>2020-09-02T11:58:34Z</time>
      </trkpt>
      <trkpt lat="44.07425" lon="5.78249">
        <ele>1004.495</ele>
        <time>2020-09-02T11:58:35Z</time>
      </trkpt>
      <trkpt lat="44.07417" lon="5.78258">
        <ele>1003.341</ele>
        <time>2020-09-02T11:58:36Z</time>
      </trkpt>
      <trkpt lat="44.07411" lon="5.78268">
        <ele>1002.514</ele>
        <time>2020-09-02T11:58:37Z</time>
      </trkpt>
      <trkpt lat="44.07404" lon="5.78277">
        <ele>1002.048</ele>
        <time>2020-09-02T11:58:38Z</time>
      </trkpt>
      <trkpt lat="44.07397" lon="5.78287">
        <ele>1001.261</ele>
        <time>2020-09-02T11:58:39Z</time>
      </trkpt>
      <trkpt lat="44.0739" lon="5.78296">
        <ele>999.917</ele>
        <time>2020-09-02T11:58:40Z</time>
      </trkpt>
      <trkpt lat="44.07382" lon="5.78304">
        <ele>999.308</ele>
        <time>2020-09-02T11:58:41Z</time>
      </trkpt>
      <trkpt lat="44.07373" lon="5.78312">
        <ele>999.042</ele>
        <time>2020-09-02T11:58:42Z</time>
      </trkpt>
      <trkpt lat="44.07362" lon="5.78317">
        <ele>998.791</ele>
        <time>2020-09-02T11:58:43Z</time>
      </trkpt>
      <trkpt lat="44.07351" lon="5.78321">
        <ele>997.881</ele>
        <time>2020-09-02T11:58:44Z</time>
      </trkpt>
      <trkpt lat="44.07341" lon="5.78326">
        <ele>997.648</ele>
        <time>2020-09-02T11:58:45Z</time>
      </trkpt>
      <trkpt lat="44.07331" lon="5.78333">
        <ele>996.429</ele>
        <time>2020-09-02T11:58:46Z</time>
      </trkpt>
      <trkpt lat="44.07321" lon="5.78342">
        <ele>996.447</ele>
        <time>2020-09-02T11:58:47Z</time>
      </trkpt>
      <trkpt lat="44.07312" lon="5.7835">
        <ele>995.893</ele>
        <time>2020-09-02T11:58:48Z</time>
      </trkpt>
      <trkpt lat="44.07302" lon="5.78358">
        <ele>994.716</ele>
        <time>2020-09-02T11:58:49Z</time>
      </trkpt>
      <trkpt lat="44.07293" lon="5.78365">
        <ele>993.444</ele>
        <time>2020-09-02T11:58:50Z</time>
      </trkpt>
      <trkpt lat="44.07286" lon="5.78373">
        <ele>992.505</ele>
        <time>2020-09-02T11:58:51Z</time>
      </trkpt>
      <trkpt lat="44.07277" lon="5.78379">
        <ele>991.715</ele>
        <time>2020-09-02T11:58:52Z</time>
      </trkpt>
      <trkpt lat="44.0727" lon="5.78385">
        <ele>989.708</ele>
        <time>2020-09-02T11:58:53Z</time>
      </trkpt>
      <trkpt lat="44.07261" lon="5.78391">
        <ele>988.212</ele>
        <time>2020-09-02T11:58:54Z</time>
      </trkpt>
      <trkpt lat="44.07251" lon="5.78395">
        <ele>987.491</ele>
        <time>2020-09-02T11:58:55Z</time>
      </trkpt>
      <trkpt lat="44.0724" lon="5.784">
        <ele>985.861</ele>
        <time>2020-09-02T11:58:56Z</time>
      </trkpt>
      <trkpt lat="44.0723" lon="5.78405">
        <ele>984.968</ele>
        <time>2020-09-02T11:58:57Z</time>
      </trkpt>
      <trkpt lat="44.0722" lon="5.78411">
        <ele>983.889</ele>
        <time>2020-09-02T11:58:58Z</time>
      </trkpt>
      <trkpt lat="44.07209" lon="5.78418">
        <ele>983.557</ele>
        <time>2020-09-02T11:58:59Z</time>
      </trkpt>
      <trkpt lat="44.07199" lon="5.78424">
        <ele>982.493</ele>
        <time>2020-09-02T11:59:00Z</time>
      </trkpt>
      <trkpt lat="44.07188" lon="5.7843">
        <ele>981.536</ele>
        <time>2020-09-02T11:59:01Z</time>
      </trkpt>
      <trkpt lat="44.07182" lon="5.78436">
        <ele>980.893</ele>
        <time>2020-09-02T11:59:02Z</time>
      </trkpt>
      <trkpt lat="44.07174" lon="5.7844">
        <ele>980.665</ele>
        <time>2020-09-02T11:59:03Z</time>
      </trkpt>
      <trkpt lat="44.07165" lon="5.78444">
        <ele>979.621</ele>
        <time>2020-09-02T11:59:04Z</time>
      </trkpt>
      <trkpt lat="44.07156" lon="5.78447">
        <ele>978.708</ele>
        <time>2020-09-02T11:59:05Z</time>
      </trkpt>
      <trkpt lat="44.07148" lon="5.78452">
        <ele>977.597</ele>
        <time>2020-09-02T11:59:06Z</time>
      </trkpt>
      <trkpt lat="44.0714" lon="5.78458">
        <ele>976.726</ele>
        <time>2020-09-02T11:59:07Z</time>
      </trkpt>
      <trkpt lat="44.07133" lon="5.78466">
        <ele>974.716</ele>
        <time>2020-09-02T11:59:08Z</time>
      </trkpt>
      <trkpt lat="44.07125" lon="5.78473">
        <ele>973.623</ele>
        <time>2020-09-02T11:59:09Z</time>
      </trkpt>
      <trkpt lat="44.07115" lon="5.78479">
        <ele>971.894</ele>
        <time>2020-09-02T11:59:10Z</time>
      </trkpt>
      <trkpt lat="44.07105" lon="5.78486">
        <ele>970.422</ele>
        <time>2020-09-02T11:59:11Z</time>
      </trkpt>
      <trkpt lat="44.07094" lon="5.78493">
        <ele>968.888</ele>
        <time>2020-09-02T11:59:12Z</time>
      </trkpt>
      <trkpt lat="44.07084" lon="5.785">
        <ele>968.121</ele>
        <time>2020-09-02T11:59:13Z</time>
      </trkpt>
      <trkpt lat="44.07073" lon="5.78506">
        <ele>967.276</ele>
        <time>2020-09-02T11:59:14Z</time>
      </trkpt>
      <trkpt lat="44.07063" lon="5.78512">
        <ele>966.49</ele>
        <time>2020-09-02T11:59:15Z</time>
      </trkpt>
      <trkpt lat="44.07053" lon="5.78517">
        <ele>965.319</ele>
        <time>2020-09-02T11:59:16Z</time>
      </trkpt>
      <trkpt lat="44.07042" lon="5.78522">
        <ele>964.108</ele>
        <time>2020-09-02T11:59:17Z</time>
      </trkpt>
      <trkpt lat="44.07031" lon="5.78525">
        <ele>963.455</ele>
        <time>2020-09-02T11:59:18Z</time>
      </trkpt>
      <trkpt lat="44.07018" lon="5.78527">
        <ele>962.364</ele>
        <time>2020-09-02T11:59:19Z</time>
      </trkpt>
      <trkpt lat="44.07006" lon="5.78528">
        <ele>961.594</ele>
        <time>2020-09-02T11:59:20Z</time>
      </trkpt>
      <trkpt lat="44.06995" lon="5.78528">
        <ele>960.691</ele>
        <time>2020-09-02T11:59:21Z</time>
      </trkpt>
      <trkpt lat="44.06983" lon="5.78529">
        <ele>959.622</ele>
        <time>2020-09-02T11:59:22Z</time>
      </trkpt>
      <trkpt lat="44.06972" lon="5.7853">
        <ele>958.61</ele>
        <time>2020-09-02T11:59:23Z</time>
      </trkpt>
      <trkpt lat="44.06962" lon="5.78533">
        <ele>957.876</ele>
        <time>2020-09-02T11:59:24Z</time>
      </trkpt>
      <trkpt lat="44.06951" lon="5.78536">
        <ele>957.019</ele>
        <time>2020-09-02T11:59:25Z</time>
      </trkpt>
      <trkpt lat="44.0694" lon="5.78538">
        <ele>956.133</ele>
        <time>2020-09-02T11:59:26Z</time>
      </trkpt>
      <trkpt lat="44.06929" lon="5.7854">
        <ele>955.423</ele>
        <time>2020-09-02T11:59:27Z</time>
      </trkpt>
      <trkpt lat="44.06919" lon="5.78543">
        <ele>953.915</ele>
        <time>2020-09-02T11:59:28Z</time>
      </trkpt>
      <trkpt lat="44.06909" lon="5.78549">
        <ele>952.208</ele>
        <time>2020-09-02T11:59:29Z</time>
      </trkpt>
      <trkpt lat="44.06899" lon="5.78558">
        <ele>951.031</ele>
        <time>2020-09-02T11:59:30Z</time>
      </trkpt>
      <trkpt lat="44.06889" lon="5.78566">
        <ele>950.55</ele>
        <time>2020-09-02T11:59:31Z</time>
      </trkpt>
      <trkpt lat="44.06879" lon="5.78574">
        <ele>949.46</ele>
        <time>2020-09-02T11:59:32Z</time>
      </trkpt>
      <trkpt lat="44.06868" lon="5.78583">
        <ele>948.377</ele>
        <time>2020-09-02T11:59:33Z</time>
      </trkpt>
      <trkpt lat="44.06857" lon="5.78592">
        <ele>946.038</ele>
        <time>2020-09-02T11:59:34Z</time>
      </trkpt>
      <trkpt lat="44.06847" lon="5.78599">
        <ele>944.846</ele>
        <time>2020-09-02T11:59:35Z</time>
      </trkpt>
      <trkpt lat="44.06837" lon="5.78607">
        <ele>944.362</ele>
        <time>2020-09-02T11:59:36Z</time>
      </trkpt>
      <trkpt lat="44.0683" lon="5.78615">
        <ele>941.945</ele>
        <time>2020-09-02T11:59:37Z</time>
      </trkpt>
      <trkpt lat="44.06821" lon="5.78624">
        <ele>941.246</ele>
        <time>2020-09-02T11:59:38Z</time>
      </trkpt>
      <trkpt lat="44.06813" lon="5.78634">
        <ele>941.088</ele>
        <time>2020-09-02T11:59:39Z</time>
      </trkpt>
      <trkpt lat="44.06803" lon="5.78642">
        <ele>940.416</ele>
        <time>2020-09-02T11:59:40Z</time>
      </trkpt>
      <trkpt lat="44.06794" lon="5.78649">
        <ele>939.808</ele>
        <time>2020-09-02T11:59:41Z</time>
      </trkpt>
      <trkpt lat="44.06783" lon="5.78653">
        <ele>939.012</ele>
        <time>2020-09-02T11:59:42Z</time>
      </trkpt>
      <trkpt lat="44.06772" lon="5.78655">
        <ele>938.081</ele>
        <time>2020-09-02T11:59:43Z</time>
      </trkpt>
      <trkpt lat="44.06762" lon="5.78655">
        <ele>936.311</ele>
        <time>2020-09-02T11:59:44Z</time>
      </trkpt>
      <trkpt lat="44.06753" lon="5.78652">
        <ele>935.728</ele>
        <time>2020-09-02T11:59:45Z</time>
      </trkpt>
      <trkpt lat="44.06745" lon="5.78649">
        <ele>934.769</ele>
        <time>2020-09-02T11:59:46Z</time>
      </trkpt>
      <trkpt lat="44.06735" lon="5.7865">
        <ele>934.187</ele>
        <time>2020-09-02T11:59:47Z</time>
      </trkpt>
      <trkpt lat="44.06725" lon="5.78651">
        <ele>934.043</ele>
        <time>2020-09-02T11:59:48Z</time>
      </trkpt>
      <trkpt lat="44.06715" lon="5.78656">
        <ele>933.856</ele>
        <time>2020-09-02T11:59:49Z</time>
      </trkpt>
      <trkpt lat="44.06707" lon="5.78663">
        <ele>933.422</ele>
        <time>2020-09-02T11:59:50Z</time>
      </trkpt>
      <trkpt lat="44.06697" lon="5.7867">
        <ele>932.962</ele>
        <time>2020-09-02T11:59:51Z</time>
      </trkpt>
      <trkpt lat="44.06689" lon="5.78679">
        <ele>932.608</ele>
        <time>2020-09-02T11:59:52Z</time>
      </trkpt>
      <trkpt lat="44.0668" lon="5.78684">
        <ele>931.708</ele>
        <time>2020-09-02T11:59:53Z</time>
      </trkpt>
      <trkpt lat="44.0667" lon="5.78688">
        <ele>931.53</ele>
        <time>2020-09-02T11:59:54Z</time>
      </trkpt>
      <trkpt lat="44.06659" lon="5.78693">
        <ele>931.729</ele>
        <time>2020-09-02T11:59:55Z</time>
      </trkpt>
      <trkpt lat="44.06647" lon="5.78696">
        <ele>930.979</ele>
        <time>2020-09-02T11:59:56Z</time>
      </trkpt>
      <trkpt lat="44.06635" lon="5.78701">
        <ele>929.796</ele>
        <time>2020-09-02T11:59:57Z</time>
      </trkpt>
      <trkpt lat="44.06623" lon="5.78707">
        <ele>928.877</ele>
        <time>2020-09-02T11:59:58Z</time>
      </trkpt>
      <trkpt lat="44.06612" lon="5.78715">
        <ele>928.335</ele>
        <time>2020-09-02T11:59:59Z</time>
      </trkpt>
      <trkpt lat="44.06601" lon="5.78723">
        <ele>927.791</ele>
        <time>2020-09-02T12:00:00Z</time>
      </trkpt>
      <trkpt lat="44.06591" lon="5.7873">
        <ele>926.814</ele>
        <time>2020-09-02T12:00:01Z</time>
      </trkpt>
      <trkpt lat="44.0658" lon="5.78736">
        <ele>925.318</ele>
        <time>2020-09-02T12:00:02Z</time>
      </trkpt>
      <trkpt lat="44.06568" lon="5.78741">
        <ele>924.298</ele>
        <time>2020-09-02T12:00:03Z</time>
      </trkpt>
      <trkpt lat="44.06557" lon="5.78745">
        <ele>923.417</ele>
        <time>2020-09-02T12:00:04Z</time>
      </trkpt>
      <trkpt lat="44.06547" lon="5.78748">
        <ele>922.908</ele>
        <time>2020-09-02T12:00:05Z</time>
      </trkpt>
      <trkpt lat="44.06538" lon="5.78751">
        <ele>922.159</ele>
        <time>2020-09-02T12:00:06Z</time>
      </trkpt>
      <trkpt lat="44.0653" lon="5.78756">
        <ele>921.238</ele>
        <time>2020-09-02T12:00:07Z</time>
      </trkpt>
      <trkpt lat="44.06524" lon="5.78763">
        <ele>920.668</ele>
        <time>2020-09-02T12:00:08Z</time>
      </trkpt>
      <trkpt lat="44.06517" lon="5.78771">
        <ele>920.245</ele>
        <time>2020-09-02T12:00:09Z</time>
      </trkpt>
      <trkpt lat="44.06511" lon="5.7878">
        <ele>919.156</ele>
        <time>2020-09-02T12:00:10Z</time>
      </trkpt>
      <trkpt lat="44.06505" lon="5.78787">
        <ele>918.714</ele>
        <time>2020-09-02T12:00:11Z</time>
      </trkpt>
      <trkpt lat="44.06498" lon="5.78793">
        <ele>917.76</ele>
        <time>2020-09-02T12:00:12Z</time>
      </trkpt>
      <trkpt lat="44.06489" lon="5.78799">
        <ele>916.883</ele>
        <time>2020-09-02T12:00:13Z</time>
      </trkpt>
      <trkpt lat="44.0648" lon="5.78803">
        <ele>916.623</ele>
        <time>2020-09-02T12:00:14Z</time>
      </trkpt>
      <trkpt lat="44.06472" lon="5.78807">
        <ele>915.983</ele>
        <time>2020-09-02T12:00:15Z</time>
      </trkpt>
      <trkpt lat="44.06464" lon="5.78811">
        <ele>915.711</ele>
        <time>2020-09-02T12:00:16Z</time>
      </trkpt>
      <trkpt lat="44.06459" lon="5.78815">
        <ele>914.808</ele>
        <time>2020-09-02T12:00:17Z</time>
      </trkpt>
      <trkpt lat="44.06454" lon="5.78818">
        <ele>914.13</ele>
        <time>2020-09-02T12:00:18Z</time>
      </trkpt>
      <trkpt lat="44.06449" lon="5.78822">
        <ele>912.459</ele>
        <time>2020-09-02T12:00:20Z</time>
      </trkpt>
      <trkpt lat="44.06444" lon="5.78826">
        <ele>911.569</ele>
        <time>2020-09-02T12:00:22Z</time>
      </trkpt>
      <trkpt lat="44.06438" lon="5.78831">
        <ele>910.026</ele>
        <time>2020-09-02T12:00:24Z</time>
      </trkpt>
      <trkpt lat="44.06431" lon="5.78834">
        <ele>909.297</ele>
        <time>2020-09-02T12:00:26Z</time>
      </trkpt>
      <trkpt lat="44.06425" lon="5.78838">
        <ele>909.045</ele>
        <time>2020-09-02T12:00:28Z</time>
      </trkpt>
      <trkpt lat="44.06419" lon="5.7884">
        <ele>908.791</ele>
        <time>2020-09-02T12:00:29Z</time>
      </trkpt>
      <trkpt lat="44.06412" lon="5.78841">
        <ele>908.374</ele>
        <time>2020-09-02T12:00:30Z</time>
      </trkpt>
      <trkpt lat="44.06405" lon="5.78844">
        <ele>907.985</ele>
        <time>2020-09-02T12:00:31Z</time>
      </trkpt>
      <trkpt lat="44.06399" lon="5.78846">
        <ele>907.389</ele>
        <time>2020-09-02T12:00:32Z</time>
      </trkpt>
      <trkpt lat="44.06392" lon="5.78848">
        <ele>907.217</ele>
        <time>2020-09-02T12:00:33Z</time>
      </trkpt>
      <trkpt lat="44.06385" lon="5.78849">
        <ele>907.408</ele>
        <time>2020-09-02T12:00:34Z</time>
      </trkpt>
      <trkpt lat="44.06379" lon="5.78849">
        <ele>907.326</ele>
        <time>2020-09-02T12:00:35Z</time>
      </trkpt>
      <trkpt lat="44.06372" lon="5.78849">
        <ele>906.615</ele>
        <time>2020-09-02T12:00:36Z</time>
      </trkpt>
      <trkpt lat="44.06367" lon="5.78851">
        <ele>906.425</ele>
        <time>2020-09-02T12:00:37Z</time>
      </trkpt>
      <trkpt lat="44.0636" lon="5.78852">
        <ele>905.262</ele>
        <time>2020-09-02T12:00:38Z</time>
      </trkpt>
      <trkpt lat="44.06353" lon="5.78853">
        <ele>904.473</ele>
        <time>2020-09-02T12:00:39Z</time>
      </trkpt>
      <trkpt lat="44.06345" lon="5.78855">
        <ele>904.061</ele>
        <time>2020-09-02T12:00:40Z</time>
      </trkpt>
      <trkpt lat="44.06338" lon="5.78856">
        <ele>903.697</ele>
        <time>2020-09-02T12:00:41Z</time>
      </trkpt>
      <trkpt lat="44.0633" lon="5.78858">
        <ele>903.38</ele>
        <time>2020-09-02T12:00:42Z</time>
      </trkpt>
      <trkpt lat="44.06322" lon="5.7886">
        <ele>902.327</ele>
        <time>2020-09-02T12:00:43Z</time>
      </trkpt>
      <trkpt lat="44.06314" lon="5.7886">
        <ele>902.168</ele>
        <time>2020-09-02T12:00:44Z</time>
      </trkpt>
      <trkpt lat="44.06308" lon="5.78862">
        <ele>901.414</ele>
        <time>2020-09-02T12:00:45Z</time>
      </trkpt>
      <trkpt lat="44.06302" lon="5.78864">
        <ele>901.408</ele>
        <time>2020-09-02T12:00:46Z</time>
      </trkpt>
      <trkpt lat="44.06295" lon="5.78863">
        <ele>901.29</ele>
        <time>2020-09-02T12:00:47Z</time>
      </trkpt>
      <trkpt lat="44.06286" lon="5.78864">
        <ele>900.219</ele>
        <time>2020-09-02T12:00:48Z</time>
      </trkpt>
      <trkpt lat="44.06277" lon="5.78865">
        <ele>899.929</ele>
        <time>2020-09-02T12:00:49Z</time>
      </trkpt>
      <trkpt lat="44.06267" lon="5.78866">
        <ele>898.996</ele>
        <time>2020-09-02T12:00:50Z</time>
      </trkpt>
      <trkpt lat="44.06257" lon="5.78868">
        <ele>898.397</ele>
        <time>2020-09-02T12:00:51Z</time>
      </trkpt>
      <trkpt lat="44.06248" lon="5.7887">
        <ele>897.825</ele>
        <time>2020-09-02T12:00:52Z</time>
      </trkpt>
      <trkpt lat="44.06239" lon="5.78872">
        <ele>897.821</ele>
        <time>2020-09-02T12:00:53Z</time>
      </trkpt>
      <trkpt lat="44.0623" lon="5.78875">
        <ele>897.714</ele>
        <time>2020-09-02T12:00:54Z</time>
      </trkpt>
      <trkpt lat="44.06223" lon="5.78882">
        <ele>897.596</ele>
        <time>2020-09-02T12:00:55Z</time>
      </trkpt>
      <trkpt lat="44.06215" lon="5.78888">
        <ele>897.131</ele>
        <time>2020-09-02T12:00:56Z</time>
      </trkpt>
      <trkpt lat="44.06207" lon="5.78891">
        <ele>895.924</ele>
        <time>2020-09-02T12:00:57Z</time>
      </trkpt>
      <trkpt lat="44.062" lon="5.78896">
        <ele>895.108</ele>
        <time>2020-09-02T12:00:58Z</time>
      </trkpt>
      <trkpt lat="44.0619" lon="5.78899">
        <ele>894.187</ele>
        <time>2020-09-02T12:00:59Z</time>
      </trkpt>
      <trkpt lat="44.06181" lon="5.78898">
        <ele>893.246</ele>
        <time>2020-09-02T12:01:00Z</time>
      </trkpt>
      <trkpt lat="44.06172" lon="5.78897">
        <ele>893.186</ele>
        <time>2020-09-02T12:01:01Z</time>
      </trkpt>
      <trkpt lat="44.06163" lon="5.78896">
        <ele>893.153</ele>
        <time>2020-09-02T12:01:02Z</time>
      </trkpt>
      <trkpt lat="44.06156" lon="5.78896">
        <ele>892.654</ele>
        <time>2020-09-02T12:01:03Z</time>
      </trkpt>
      <trkpt lat="44.06149" lon="5.78896">
        <ele>892.112</ele>
        <time>2020-09-02T12:01:04Z</time>
      </trkpt>
      <trkpt lat="44.06142" lon="5.78898">
        <ele>890.878</ele>
        <time>2020-09-02T12:01:05Z</time>
      </trkpt>
      <trkpt lat="44.06135" lon="5.789">
        <ele>889.931</ele>
        <time>2020-09-02T12:01:06Z</time>
      </trkpt>
      <trkpt lat="44.06128" lon="5.78899">
        <ele>888.999</ele>
        <time>2020-09-02T12:01:07Z</time>
      </trkpt>
      <trkpt lat="44.06121" lon="5.78896">
        <ele>888.807</ele>
        <time>2020-09-02T12:01:08Z</time>
      </trkpt>
      <trkpt lat="44.06115" lon="5.78895">
        <ele>888.927</ele>
        <time>2020-09-02T12:01:09Z</time>
      </trkpt>
      <trkpt lat="44.0611" lon="5.78894">
        <ele>887.708</ele>
        <time>2020-09-02T12:01:10Z</time>
      </trkpt>
      <trkpt lat="44.06104" lon="5.78893">
        <ele>887.257</ele>
        <time>2020-09-02T12:01:11Z</time>
      </trkpt>
      <trkpt lat="44.06097" lon="5.78892">
        <ele>886.066</ele>
        <time>2020-09-02T12:01:12Z</time>
      </trkpt>
      <trkpt lat="44.0609" lon="5.78891">
        <ele>885.436</ele>
        <time>2020-09-02T12:01:13Z</time>
      </trkpt>
      <trkpt lat="44.06084" lon="5.78892">
        <ele>884.713</ele>
        <time>2020-09-02T12:01:14Z</time>
      </trkpt>
      <trkpt lat="44.06079" lon="5.78892">
        <ele>884.444</ele>
        <time>2020-09-02T12:01:15Z</time>
      </trkpt>
      <trkpt lat="44.06072" lon="5.78894">
        <ele>881.992</ele>
        <time>2020-09-02T12:01:17Z</time>
      </trkpt>
      <trkpt lat="44.06068" lon="5.78897">
        <ele>882.488</ele>
        <time>2020-09-02T12:01:26Z</time>
      </trkpt>
      <trkpt lat="44.06064" lon="5.78899">
        <ele>880.221</ele>
        <time>2020-09-02T12:01:58Z</time>
      </trkpt>
      <trkpt lat="44.06069" lon="5.78902">
        <ele>879.876</ele>
        <time>2020-09-02T12:02:50Z</time>
      </trkpt>
      <trkpt lat="44.0607" lon="5.78896">
        <ele>880.79</ele>
        <time>2020-09-02T12:04:07Z</time>
      </trkpt>
      <trkpt lat="44.06072" lon="5.78889">
        <ele>884.419</ele>
        <time>2020-09-02T12:04:32Z</time>
      </trkpt>
      <trkpt lat="44.0606" lon="5.78893">
        <ele>883.908</ele>
        <time>2020-09-02T12:05:32Z</time>
      </trkpt>
      <trkpt lat="44.06064" lon="5.78896">
        <ele>883.755</ele>
        <time>2020-09-02T12:08:23Z</time>
      </trkpt>
      <trkpt lat="44.0606" lon="5.78899">
        <ele>884.424</ele>
        <time>2020-09-02T12:08:37Z</time>
      </trkpt>
      <trkpt lat="44.06054" lon="5.78901">
        <ele>884.584</ele>
        <time>2020-09-02T12:08:39Z</time>
      </trkpt>
      <trkpt lat="44.06049" lon="5.78901">
        <ele>884.431</ele>
        <time>2020-09-02T12:08:40Z</time>
      </trkpt>
      <trkpt lat="44.0604" lon="5.78898">
        <ele>884.782</ele>
        <time>2020-09-02T12:08:41Z</time>
      </trkpt>
      <trkpt lat="44.06031" lon="5.78894">
        <ele>883.59</ele>
        <time>2020-09-02T12:08:42Z</time>
      </trkpt>
      <trkpt lat="44.06023" lon="5.78895">
        <ele>881.736</ele>
        <time>2020-09-02T12:08:43Z</time>
      </trkpt>
      <trkpt lat="44.06017" lon="5.78893">
        <ele>881.019</ele>
        <time>2020-09-02T12:08:44Z</time>
      </trkpt>
      <trkpt lat="44.0601" lon="5.78893">
        <ele>880.932</ele>
        <time>2020-09-02T12:08:45Z</time>
      </trkpt>
      <trkpt lat="44.06003" lon="5.78891">
        <ele>879.992</ele>
        <time>2020-09-02T12:08:46Z</time>
      </trkpt>
      <trkpt lat="44.05995" lon="5.78893">
        <ele>879.611</ele>
        <time>2020-09-02T12:08:47Z</time>
      </trkpt>
      <trkpt lat="44.05984" lon="5.78893">
        <ele>877.108</ele>
        <time>2020-09-02T12:08:49Z</time>
      </trkpt>
      <trkpt lat="44.05974" lon="5.78892">
        <ele>875.441</ele>
        <time>2020-09-02T12:08:51Z</time>
      </trkpt>
      <trkpt lat="44.05968" lon="5.78891">
        <ele>874.02</ele>
        <time>2020-09-02T12:08:52Z</time>
      </trkpt>
      <trkpt lat="44.05964" lon="5.78891">
        <ele>872.14</ele>
        <time>2020-09-02T12:08:53Z</time>
      </trkpt>
      <trkpt lat="44.05958" lon="5.78891">
        <ele>871.547</ele>
        <time>2020-09-02T12:08:54Z</time>
      </trkpt>
      <trkpt lat="44.05952" lon="5.7889">
        <ele>871.228</ele>
        <time>2020-09-02T12:08:55Z</time>
      </trkpt>
      <trkpt lat="44.05947" lon="5.7889">
        <ele>870.626</ele>
        <time>2020-09-02T12:08:56Z</time>
      </trkpt>
      <trkpt lat="44.05941" lon="5.78889">
        <ele>870.232</ele>
        <time>2020-09-02T12:08:57Z</time>
      </trkpt>
      <trkpt lat="44.05933" lon="5.78889">
        <ele>867.985</ele>
        <time>2020-09-02T12:08:58Z</time>
      </trkpt>
      <trkpt lat="44.05925" lon="5.78888">
        <ele>867.222</ele>
        <time>2020-09-02T12:08:59Z</time>
      </trkpt>
      <trkpt lat="44.05917" lon="5.78887">
        <ele>866.462</ele>
        <time>2020-09-02T12:09:00Z</time>
      </trkpt>
      <trkpt lat="44.05909" lon="5.78888">
        <ele>865.708</ele>
        <time>2020-09-02T12:09:01Z</time>
      </trkpt>
      <trkpt lat="44.059" lon="5.7889">
        <ele>865.208</ele>
        <time>2020-09-02T12:09:02Z</time>
      </trkpt>
      <trkpt lat="44.05891" lon="5.7889">
        <ele>864.54</ele>
        <time>2020-09-02T12:09:03Z</time>
      </trkpt>
      <trkpt lat="44.05881" lon="5.7889">
        <ele>864.289</ele>
        <time>2020-09-02T12:09:04Z</time>
      </trkpt>
      <trkpt lat="44.05873" lon="5.78891">
        <ele>863.379</ele>
        <time>2020-09-02T12:09:05Z</time>
      </trkpt>
      <trkpt lat="44.05866" lon="5.7889">
        <ele>862.096</ele>
        <time>2020-09-02T12:09:06Z</time>
      </trkpt>
      <trkpt lat="44.05857" lon="5.78886">
        <ele>860.217</ele>
        <time>2020-09-02T12:09:08Z</time>
      </trkpt>
      <trkpt lat="44.05851" lon="5.78886">
        <ele>859.655</ele>
        <time>2020-09-02T12:09:09Z</time>
      </trkpt>
      <trkpt lat="44.05845" lon="5.78886">
        <ele>859.321</ele>
        <time>2020-09-02T12:09:10Z</time>
      </trkpt>
      <trkpt lat="44.0584" lon="5.78886">
        <ele>858.864</ele>
        <time>2020-09-02T12:09:11Z</time>
      </trkpt>
      <trkpt lat="44.05835" lon="5.78886">
        <ele>858.462</ele>
        <time>2020-09-02T12:09:12Z</time>
      </trkpt>
      <trkpt lat="44.0583" lon="5.78886">
        <ele>858.083</ele>
        <time>2020-09-02T12:09:13Z</time>
      </trkpt>
      <trkpt lat="44.05824" lon="5.78886">
        <ele>857.611</ele>
        <time>2020-09-02T12:09:14Z</time>
      </trkpt>
      <trkpt lat="44.05818" lon="5.78886">
        <ele>857.208</ele>
        <time>2020-09-02T12:09:15Z</time>
      </trkpt>
      <trkpt lat="44.05813" lon="5.78885">
        <ele>856.934</ele>
        <time>2020-09-02T12:09:16Z</time>
      </trkpt>
      <trkpt lat="44.05805" lon="5.78885">
        <ele>855.853</ele>
        <time>2020-09-02T12:09:18Z</time>
      </trkpt>
      <trkpt lat="44.058" lon="5.78884">
        <ele>854.483</ele>
        <time>2020-09-02T12:09:21Z</time>
      </trkpt>
      <trkpt lat="44.05795" lon="5.78879">
        <ele>852.23</ele>
        <time>2020-09-02T12:09:29Z</time>
      </trkpt>
      <trkpt lat="44.05787" lon="5.7888">
        <ele>851.311</ele>
        <time>2020-09-02T12:09:31Z</time>
      </trkpt>
      <trkpt lat="44.05778" lon="5.78885">
        <ele>851.359</ele>
        <time>2020-09-02T12:09:33Z</time>
      </trkpt>
      <trkpt lat="44.05774" lon="5.78889">
        <ele>850.925</ele>
        <time>2020-09-02T12:09:34Z</time>
      </trkpt>
      <trkpt lat="44.05767" lon="5.78891">
        <ele>849.388</ele>
        <time>2020-09-02T12:09:35Z</time>
      </trkpt>
      <trkpt lat="44.05761" lon="5.78893">
        <ele>848.544</ele>
        <time>2020-09-02T12:09:36Z</time>
      </trkpt>
      <trkpt lat="44.05754" lon="5.78895">
        <ele>848.405</ele>
        <time>2020-09-02T12:09:37Z</time>
      </trkpt>
      <trkpt lat="44.05747" lon="5.78897">
        <ele>847.615</ele>
        <time>2020-09-02T12:09:38Z</time>
      </trkpt>
      <trkpt lat="44.0574" lon="5.78898">
        <ele>847.208</ele>
        <time>2020-09-02T12:09:39Z</time>
      </trkpt>
      <trkpt lat="44.05734" lon="5.789">
        <ele>846.482</ele>
        <time>2020-09-02T12:09:40Z</time>
      </trkpt>
      <trkpt lat="44.05729" lon="5.78902">
        <ele>845.621</ele>
        <time>2020-09-02T12:09:41Z</time>
      </trkpt>
      <trkpt lat="44.05723" lon="5.78903">
        <ele>845.271</ele>
        <time>2020-09-02T12:09:42Z</time>
      </trkpt>
      <trkpt lat="44.05718" lon="5.78903">
        <ele>844.678</ele>
        <time>2020-09-02T12:09:43Z</time>
      </trkpt>
      <trkpt lat="44.05714" lon="5.78904">
        <ele>844.319</ele>
        <time>2020-09-02T12:09:44Z</time>
      </trkpt>
      <trkpt lat="44.05709" lon="5.78904">
        <ele>843.757</ele>
        <time>2020-09-02T12:09:45Z</time>
      </trkpt>
      <trkpt lat="44.05701" lon="5.78904">
        <ele>843.443</ele>
        <time>2020-09-02T12:09:46Z</time>
      </trkpt>
      <trkpt lat="44.05694" lon="5.78902">
        <ele>843.236</ele>
        <time>2020-09-02T12:09:47Z</time>
      </trkpt>
      <trkpt lat="44.05688" lon="5.78896">
        <ele>843.387</ele>
        <time>2020-09-02T12:09:48Z</time>
      </trkpt>
      <trkpt lat="44.05683" lon="5.78886">
        <ele>842.842</ele>
        <time>2020-09-02T12:09:49Z</time>
      </trkpt>
      <trkpt lat="44.05681" lon="5.78875">
        <ele>842.326</ele>
        <time>2020-09-02T12:09:50Z</time>
      </trkpt>
      <trkpt lat="44.05679" lon="5.78863">
        <ele>842.108</ele>
        <time>2020-09-02T12:09:51Z</time>
      </trkpt>
      <trkpt lat="44.05677" lon="5.78851">
        <ele>841.246</ele>
        <time>2020-09-02T12:09:52Z</time>
      </trkpt>
      <trkpt lat="44.05675" lon="5.7884">
        <ele>840.325</ele>
        <time>2020-09-02T12:09:53Z</time>
      </trkpt>
      <trkpt lat="44.05674" lon="5.78829">
        <ele>839.915</ele>
        <time>2020-09-02T12:09:54Z</time>
      </trkpt>
      <trkpt lat="44.05673" lon="5.78817">
        <ele>839.732</ele>
        <time>2020-09-02T12:09:55Z</time>
      </trkpt>
      <trkpt lat="44.05671" lon="5.78807">
        <ele>837.793</ele>
        <time>2020-09-02T12:09:56Z</time>
      </trkpt>
      <trkpt lat="44.0567" lon="5.78796">
        <ele>836.931</ele>
        <time>2020-09-02T12:09:57Z</time>
      </trkpt>
      <trkpt lat="44.05669" lon="5.78785">
        <ele>836.357</ele>
        <time>2020-09-02T12:09:58Z</time>
      </trkpt>
      <trkpt lat="44.05668" lon="5.78776">
        <ele>835.97</ele>
        <time>2020-09-02T12:09:59Z</time>
      </trkpt>
      <trkpt lat="44.05668" lon="5.78766">
        <ele>835.466</ele>
        <time>2020-09-02T12:10:00Z</time>
      </trkpt>
      <trkpt lat="44.05667" lon="5.78756">
        <ele>834.929</ele>
        <time>2020-09-02T12:10:01Z</time>
      </trkpt>
      <trkpt lat="44.05666" lon="5.78745">
        <ele>833.621</ele>
        <time>2020-09-02T12:10:03Z</time>
      </trkpt>
      <trkpt lat="44.05665" lon="5.78739">
        <ele>833.408</ele>
        <time>2020-09-02T12:10:06Z</time>
      </trkpt>
      <trkpt lat="44.05661" lon="5.78737">
        <ele>832.664</ele>
        <time>2020-09-02T12:10:41Z</time>
      </trkpt>
      <trkpt lat="44.05656" lon="5.78742">
        <ele>831.753</ele>
        <time>2020-09-02T12:10:45Z</time>
      </trkpt>
      <trkpt lat="44.05658" lon="5.78752">
        <ele>832.593</ele>
        <time>2020-09-02T12:10:47Z</time>
      </trkpt>
      <trkpt lat="44.0566" lon="5.78758">
        <ele>832.84</ele>
        <time>2020-09-02T12:10:49Z</time>
      </trkpt>
      <trkpt lat="44.05663" lon="5.78768">
        <ele>832.131</ele>
        <time>2020-09-02T12:10:58Z</time>
      </trkpt>
      <trkpt lat="44.05664" lon="5.78777">
        <ele>832.129</ele>
        <time>2020-09-02T12:10:59Z</time>
      </trkpt>
      <trkpt lat="44.05666" lon="5.78785">
        <ele>832.265</ele>
        <time>2020-09-02T12:11:00Z</time>
      </trkpt>
      <trkpt lat="44.05668" lon="5.78796">
        <ele>832.838</ele>
        <time>2020-09-02T12:11:01Z</time>
      </trkpt>
      <trkpt lat="44.05669" lon="5.78807">
        <ele>833.455</ele>
        <time>2020-09-02T12:11:02Z</time>
      </trkpt>
      <trkpt lat="44.0567" lon="5.7882">
        <ele>833.807</ele>
        <time>2020-09-02T12:11:03Z</time>
      </trkpt>
      <trkpt lat="44.05672" lon="5.78833">
        <ele>833.817</ele>
        <time>2020-09-02T12:11:04Z</time>
      </trkpt>
      <trkpt lat="44.05674" lon="5.78847">
        <ele>834.608</ele>
        <time>2020-09-02T12:11:05Z</time>
      </trkpt>
      <trkpt lat="44.05676" lon="5.78862">
        <ele>835.333</ele>
        <time>2020-09-02T12:11:06Z</time>
      </trkpt>
      <trkpt lat="44.05678" lon="5.78875">
        <ele>835.962</ele>
        <time>2020-09-02T12:11:07Z</time>
      </trkpt>
      <trkpt lat="44.0568" lon="5.78887">
        <ele>836.382</ele>
        <time>2020-09-02T12:11:08Z</time>
      </trkpt>
      <trkpt lat="44.05685" lon="5.78897">
        <ele>836.989</ele>
        <time>2020-09-02T12:11:09Z</time>
      </trkpt>
      <trkpt lat="44.0569" lon="5.78903">
        <ele>837.05</ele>
        <time>2020-09-02T12:11:10Z</time>
      </trkpt>
      <trkpt lat="44.05696" lon="5.78905">
        <ele>837.778</ele>
        <time>2020-09-02T12:11:11Z</time>
      </trkpt>
      <trkpt lat="44.05703" lon="5.78906">
        <ele>838.254</ele>
        <time>2020-09-02T12:11:12Z</time>
      </trkpt>
      <trkpt lat="44.05709" lon="5.78905">
        <ele>838.247</ele>
        <time>2020-09-02T12:11:13Z</time>
      </trkpt>
      <trkpt lat="44.05714" lon="5.78904">
        <ele>839.071</ele>
        <time>2020-09-02T12:11:14Z</time>
      </trkpt>
      <trkpt lat="44.0572" lon="5.78903">
        <ele>839.541</ele>
        <time>2020-09-02T12:11:15Z</time>
      </trkpt>
      <trkpt lat="44.05727" lon="5.78902">
        <ele>839.615</ele>
        <time>2020-09-02T12:11:16Z</time>
      </trkpt>
      <trkpt lat="44.05734" lon="5.78899">
        <ele>839.508</ele>
        <time>2020-09-02T12:11:17Z</time>
      </trkpt>
      <trkpt lat="44.05741" lon="5.78899">
        <ele>839.085</ele>
        <time>2020-09-02T12:11:18Z</time>
      </trkpt>
      <trkpt lat="44.05745" lon="5.789">
        <ele>840.014</ele>
        <time>2020-09-02T12:11:19Z</time>
      </trkpt>
      <trkpt lat="44.0575" lon="5.78904">
        <ele>840.654</ele>
        <time>2020-09-02T12:11:20Z</time>
      </trkpt>
      <trkpt lat="44.05754" lon="5.78916">
        <ele>841.551</ele>
        <time>2020-09-02T12:11:22Z</time>
      </trkpt>
      <trkpt lat="44.05758" lon="5.78923">
        <ele>841.222</ele>
        <time>2020-09-02T12:11:23Z</time>
      </trkpt>
      <trkpt lat="44.0576" lon="5.78933">
        <ele>840.84</ele>
        <time>2020-09-02T12:11:24Z</time>
      </trkpt>
      <trkpt lat="44.05763" lon="5.78945">
        <ele>841.046</ele>
        <time>2020-09-02T12:11:25Z</time>
      </trkpt>
      <trkpt lat="44.05766" lon="5.78955">
        <ele>841.759</ele>
        <time>2020-09-02T12:11:26Z</time>
      </trkpt>
      <trkpt lat="44.0577" lon="5.78968">
        <ele>842.182</ele>
        <time>2020-09-02T12:11:27Z</time>
      </trkpt>
      <trkpt lat="44.05774" lon="5.78982">
        <ele>843.043</ele>
        <time>2020-09-02T12:11:28Z</time>
      </trkpt>
      <trkpt lat="44.05778" lon="5.78996">
        <ele>843.717</ele>
        <time>2020-09-02T12:11:29Z</time>
      </trkpt>
      <trkpt lat="44.05783" lon="5.7901">
        <ele>844.108</ele>
        <time>2020-09-02T12:11:30Z</time>
      </trkpt>
      <trkpt lat="44.05787" lon="5.79027">
        <ele>844.696</ele>
        <time>2020-09-02T12:11:31Z</time>
      </trkpt>
      <trkpt lat="44.05791" lon="5.79042">
        <ele>845.215</ele>
        <time>2020-09-02T12:11:32Z</time>
      </trkpt>
      <trkpt lat="44.05795" lon="5.79054">
        <ele>845.945</ele>
        <time>2020-09-02T12:11:33Z</time>
      </trkpt>
      <trkpt lat="44.05797" lon="5.79064">
        <ele>845.412</ele>
        <time>2020-09-02T12:11:34Z</time>
      </trkpt>
      <trkpt lat="44.05793" lon="5.79074">
        <ele>846.093</ele>
        <time>2020-09-02T12:11:36Z</time>
      </trkpt>
      <trkpt lat="44.05787" lon="5.79078">
        <ele>846.071</ele>
        <time>2020-09-02T12:11:37Z</time>
      </trkpt>
      <trkpt lat="44.0578" lon="5.79082">
        <ele>845.597</ele>
        <time>2020-09-02T12:11:38Z</time>
      </trkpt>
      <trkpt lat="44.0577" lon="5.79087">
        <ele>844.55</ele>
        <time>2020-09-02T12:11:39Z</time>
      </trkpt>
      <trkpt lat="44.05759" lon="5.79093">
        <ele>843.425</ele>
        <time>2020-09-02T12:11:40Z</time>
      </trkpt>
      <trkpt lat="44.05747" lon="5.79098">
        <ele>842.326</ele>
        <time>2020-09-02T12:11:41Z</time>
      </trkpt>
      <trkpt lat="44.05735" lon="5.79104">
        <ele>840.108</ele>
        <time>2020-09-02T12:11:42Z</time>
      </trkpt>
      <trkpt lat="44.05724" lon="5.7911">
        <ele>838.608</ele>
        <time>2020-09-02T12:11:43Z</time>
      </trkpt>
      <trkpt lat="44.05712" lon="5.79116">
        <ele>836.95</ele>
        <time>2020-09-02T12:11:44Z</time>
      </trkpt>
      <trkpt lat="44.05701" lon="5.79123">
        <ele>835.369</ele>
        <time>2020-09-02T12:11:45Z</time>
      </trkpt>
      <trkpt lat="44.05689" lon="5.79129">
        <ele>834.889</ele>
        <time>2020-09-02T12:11:46Z</time>
      </trkpt>
      <trkpt lat="44.05677" lon="5.79135">
        <ele>833.416</ele>
        <time>2020-09-02T12:11:47Z</time>
      </trkpt>
      <trkpt lat="44.05667" lon="5.79139">
        <ele>832.237</ele>
        <time>2020-09-02T12:11:48Z</time>
      </trkpt>
      <trkpt lat="44.0566" lon="5.79144">
        <ele>832.795</ele>
        <time>2020-09-02T12:11:49Z</time>
      </trkpt>
      <trkpt lat="44.05655" lon="5.79151">
        <ele>833.061</ele>
        <time>2020-09-02T12:11:51Z</time>
      </trkpt>
      <trkpt lat="44.05657" lon="5.79157">
        <ele>832.664</ele>
        <time>2020-09-02T12:11:52Z</time>
      </trkpt>
      <trkpt lat="44.0566" lon="5.79167">
        <ele>832.998</ele>
        <time>2020-09-02T12:11:53Z</time>
      </trkpt>
      <trkpt lat="44.05664" lon="5.79178">
        <ele>833.615</ele>
        <time>2020-09-02T12:11:54Z</time>
      </trkpt>
      <trkpt lat="44.05668" lon="5.79192">
        <ele>833.526</ele>
        <time>2020-09-02T12:11:55Z</time>
      </trkpt>
      <trkpt lat="44.05671" lon="5.79206">
        <ele>833.208</ele>
        <time>2020-09-02T12:11:56Z</time>
      </trkpt>
      <trkpt lat="44.05675" lon="5.7922">
        <ele>833.657</ele>
        <time>2020-09-02T12:11:57Z</time>
      </trkpt>
      <trkpt lat="44.05678" lon="5.79235">
        <ele>833.946</ele>
        <time>2020-09-02T12:11:58Z</time>
      </trkpt>
      <trkpt lat="44.05681" lon="5.79251">
        <ele>833.766</ele>
        <time>2020-09-02T12:11:59Z</time>
      </trkpt>
      <trkpt lat="44.05685" lon="5.79266">
        <ele>833.613</ele>
        <time>2020-09-02T12:12:00Z</time>
      </trkpt>
      <trkpt lat="44.0569" lon="5.79282">
        <ele>833.424</ele>
        <time>2020-09-02T12:12:01Z</time>
      </trkpt>
      <trkpt lat="44.05694" lon="5.79298">
        <ele>833.512</ele>
        <time>2020-09-02T12:12:02Z</time>
      </trkpt>
      <trkpt lat="44.057" lon="5.79316">
        <ele>832.638</ele>
        <time>2020-09-02T12:12:03Z</time>
      </trkpt>
      <trkpt lat="44.05705" lon="5.79334">
        <ele>832.331</ele>
        <time>2020-09-02T12:12:04Z</time>
      </trkpt>
      <trkpt lat="44.0571" lon="5.79351">
        <ele>831.661</ele>
        <time>2020-09-02T12:12:05Z</time>
      </trkpt>
      <trkpt lat="44.05714" lon="5.79366">
        <ele>831.421</ele>
        <time>2020-09-02T12:12:06Z</time>
      </trkpt>
      <trkpt lat="44.05717" lon="5.79378">
        <ele>832.013</ele>
        <time>2020-09-02T12:12:07Z</time>
      </trkpt>
      <trkpt lat="44.05721" lon="5.7939">
        <ele>832.508</ele>
        <time>2020-09-02T12:12:08Z</time>
      </trkpt>
      <trkpt lat="44.05724" lon="5.79401">
        <ele>832.364</ele>
        <time>2020-09-02T12:12:09Z</time>
      </trkpt>
      <trkpt lat="44.05726" lon="5.79411">
        <ele>831.463</ele>
        <time>2020-09-02T12:12:10Z</time>
      </trkpt>
      <trkpt lat="44.05729" lon="5.79421">
        <ele>831.223</ele>
        <time>2020-09-02T12:12:11Z</time>
      </trkpt>
      <trkpt lat="44.05731" lon="5.79431">
        <ele>830.88</ele>
        <time>2020-09-02T12:12:12Z</time>
      </trkpt>
      <trkpt lat="44.05734" lon="5.79441">
        <ele>830.711</ele>
        <time>2020-09-02T12:12:13Z</time>
      </trkpt>
      <trkpt lat="44.05738" lon="5.79454">
        <ele>831.029</ele>
        <time>2020-09-02T12:12:14Z</time>
      </trkpt>
      <trkpt lat="44.05742" lon="5.79468">
        <ele>829.975</ele>
        <time>2020-09-02T12:12:15Z</time>
      </trkpt>
      <trkpt lat="44.05747" lon="5.79484">
        <ele>828.568</ele>
        <time>2020-09-02T12:12:16Z</time>
      </trkpt>
      <trkpt lat="44.05752" lon="5.79501">
        <ele>827.672</ele>
        <time>2020-09-02T12:12:17Z</time>
      </trkpt>
      <trkpt lat="44.05757" lon="5.79519">
        <ele>825.713</ele>
        <time>2020-09-02T12:12:18Z</time>
      </trkpt>
      <trkpt lat="44.05763" lon="5.79536">
        <ele>824.614</ele>
        <time>2020-09-02T12:12:19Z</time>
      </trkpt>
      <trkpt lat="44.05766" lon="5.79554">
        <ele>824.408</ele>
        <time>2020-09-02T12:12:20Z</time>
      </trkpt>
      <trkpt lat="44.05771" lon="5.79571">
        <ele>822.935</ele>
        <time>2020-09-02T12:12:21Z</time>
      </trkpt>
      <trkpt lat="44.05773" lon="5.79589">
        <ele>821.864</ele>
        <time>2020-09-02T12:12:22Z</time>
      </trkpt>
      <trkpt lat="44.05777" lon="5.79605">
        <ele>821.484</ele>
        <time>2020-09-02T12:12:23Z</time>
      </trkpt>
      <trkpt lat="44.05781" lon="5.79623">
        <ele>820.231</ele>
        <time>2020-09-02T12:12:24Z</time>
      </trkpt>
      <trkpt lat="44.05785" lon="5.7964">
        <ele>820.072</ele>
        <time>2020-09-02T12:12:25Z</time>
      </trkpt>
      <trkpt lat="44.05789" lon="5.79656">
        <ele>820.53</ele>
        <time>2020-09-02T12:12:26Z</time>
      </trkpt>
      <trkpt lat="44.05793" lon="5.79671">
        <ele>819.986</ele>
        <time>2020-09-02T12:12:27Z</time>
      </trkpt>
      <trkpt lat="44.05797" lon="5.79686">
        <ele>819.179</ele>
        <time>2020-09-02T12:12:28Z</time>
      </trkpt>
      <trkpt lat="44.058" lon="5.797">
        <ele>819.174</ele>
        <time>2020-09-02T12:12:29Z</time>
      </trkpt>
      <trkpt lat="44.05803" lon="5.79712">
        <ele>818.056</ele>
        <time>2020-09-02T12:12:30Z</time>
      </trkpt>
      <trkpt lat="44.05806" lon="5.79725">
        <ele>817.321</ele>
        <time>2020-09-02T12:12:31Z</time>
      </trkpt>
      <trkpt lat="44.05811" lon="5.79736">
        <ele>817.108</ele>
        <time>2020-09-02T12:12:32Z</time>
      </trkpt>
      <trkpt lat="44.05813" lon="5.79749">
        <ele>817.035</ele>
        <time>2020-09-02T12:12:33Z</time>
      </trkpt>
      <trkpt lat="44.05821" lon="5.79755">
        <ele>813.394</ele>
        <time>2020-09-02T12:12:34Z</time>
      </trkpt>
      <trkpt lat="44.05825" lon="5.79765">
        <ele>812.714</ele>
        <time>2020-09-02T12:12:35Z</time>
      </trkpt>
      <trkpt lat="44.05828" lon="5.79775">
        <ele>812.771</ele>
        <time>2020-09-02T12:12:36Z</time>
      </trkpt>
      <trkpt lat="44.05831" lon="5.79785">
        <ele>812.512</ele>
        <time>2020-09-02T12:12:37Z</time>
      </trkpt>
      <trkpt lat="44.05833" lon="5.79791">
        <ele>812.76</ele>
        <time>2020-09-02T12:12:38Z</time>
      </trkpt>
      <trkpt lat="44.05834" lon="5.79798">
        <ele>813.066</ele>
        <time>2020-09-02T12:12:39Z</time>
      </trkpt>
      <trkpt lat="44.05839" lon="5.79803">
        <ele>812.389</ele>
        <time>2020-09-02T12:12:41Z</time>
      </trkpt>
      <trkpt lat="44.05844" lon="5.79809">
        <ele>813.275</ele>
        <time>2020-09-02T12:12:43Z</time>
      </trkpt>
      <trkpt lat="44.05847" lon="5.79814">
        <ele>812.528</ele>
        <time>2020-09-02T12:12:45Z</time>
      </trkpt>
      <trkpt lat="44.05853" lon="5.79814">
        <ele>811.92</ele>
        <time>2020-09-02T12:12:46Z</time>
      </trkpt>
      <trkpt lat="44.05857" lon="5.79817">
        <ele>810.608</ele>
        <time>2020-09-02T12:12:47Z</time>
      </trkpt>
      <trkpt lat="44.05861" lon="5.7982">
        <ele>811.215</ele>
        <time>2020-09-02T12:12:48Z</time>
      </trkpt>
      <trkpt lat="44.05868" lon="5.79824">
        <ele>811.454</ele>
        <time>2020-09-02T12:12:50Z</time>
      </trkpt>
      <trkpt lat="44.05869" lon="5.79831">
        <ele>811.984</ele>
        <time>2020-09-02T12:12:52Z</time>
      </trkpt>
      <trkpt lat="44.05865" lon="5.79835">
        <ele>813.281</ele>
        <time>2020-09-02T12:13:14Z</time>
      </trkpt>
      <trkpt lat="44.0586" lon="5.79841">
        <ele>812.442</ele>
        <time>2020-09-02T12:13:16Z</time>
      </trkpt>
      <trkpt lat="44.05848" lon="5.79848">
        <ele>810.91</ele>
        <time>2020-09-02T12:13:18Z</time>
      </trkpt>
      <trkpt lat="44.05843" lon="5.79849">
        <ele>809.916</ele>
        <time>2020-09-02T12:13:19Z</time>
      </trkpt>
      <trkpt lat="44.05836" lon="5.79847">
        <ele>808.539</ele>
        <time>2020-09-02T12:13:20Z</time>
      </trkpt>
      <trkpt lat="44.05829" lon="5.79848">
        <ele>807.291</ele>
        <time>2020-09-02T12:13:21Z</time>
      </trkpt>
      <trkpt lat="44.05821" lon="5.79848">
        <ele>806.481</ele>
        <time>2020-09-02T12:13:22Z</time>
      </trkpt>
      <trkpt lat="44.05814" lon="5.79848">
        <ele>805.719</ele>
        <time>2020-09-02T12:13:23Z</time>
      </trkpt>
      <trkpt lat="44.05808" lon="5.79848">
        <ele>805.108</ele>
        <time>2020-09-02T12:13:24Z</time>
      </trkpt>
      <trkpt lat="44.05798" lon="5.79839">
        <ele>804.147</ele>
        <time>2020-09-02T12:13:26Z</time>
      </trkpt>
      <trkpt lat="44.05792" lon="5.79834">
        <ele>804.986</ele>
        <time>2020-09-02T12:13:27Z</time>
      </trkpt>
      <trkpt lat="44.05786" lon="5.79829">
        <ele>804.336</ele>
        <time>2020-09-02T12:13:28Z</time>
      </trkpt>
      <trkpt lat="44.05781" lon="5.79825">
        <ele>804.293</ele>
        <time>2020-09-02T12:13:29Z</time>
      </trkpt>
      <trkpt lat="44.05775" lon="5.79822">
        <ele>804.494</ele>
        <time>2020-09-02T12:13:30Z</time>
      </trkpt>
      <trkpt lat="44.05768" lon="5.79818">
        <ele>805.162</ele>
        <time>2020-09-02T12:13:31Z</time>
      </trkpt>
      <trkpt lat="44.05762" lon="5.79813">
        <ele>805.538</ele>
        <time>2020-09-02T12:13:32Z</time>
      </trkpt>
      <trkpt lat="44.05754" lon="5.79808">
        <ele>805.881</ele>
        <time>2020-09-02T12:13:33Z</time>
      </trkpt>
      <trkpt lat="44.05745" lon="5.79801">
        <ele>805.998</ele>
        <time>2020-09-02T12:13:34Z</time>
      </trkpt>
      <trkpt lat="44.05736" lon="5.79792">
        <ele>805.215</ele>
        <time>2020-09-02T12:13:35Z</time>
      </trkpt>
      <trkpt lat="44.05726" lon="5.79781">
        <ele>804.526</ele>
        <time>2020-09-02T12:13:36Z</time>
      </trkpt>
      <trkpt lat="44.05717" lon="5.79771">
        <ele>804.108</ele>
        <time>2020-09-02T12:13:37Z</time>
      </trkpt>
      <trkpt lat="44.05707" lon="5.79761">
        <ele>804.457</ele>
        <time>2020-09-02T12:13:38Z</time>
      </trkpt>
      <trkpt lat="44.05698" lon="5.79753">
        <ele>804.326</ele>
        <time>2020-09-02T12:13:39Z</time>
      </trkpt>
      <trkpt lat="44.05689" lon="5.79744">
        <ele>804.936</ele>
        <time>2020-09-02T12:13:40Z</time>
      </trkpt>
      <trkpt lat="44.05681" lon="5.79736">
        <ele>805.323</ele>
        <time>2020-09-02T12:13:41Z</time>
      </trkpt>
      <trkpt lat="44.05672" lon="5.79729">
        <ele>805.314</ele>
        <time>2020-09-02T12:13:42Z</time>
      </trkpt>
      <trkpt lat="44.05662" lon="5.79723">
        <ele>804.822</ele>
        <time>2020-09-02T12:13:43Z</time>
      </trkpt>
      <trkpt lat="44.0565" lon="5.79719">
        <ele>804.778</ele>
        <time>2020-09-02T12:13:44Z</time>
      </trkpt>
      <trkpt lat="44.05638" lon="5.79717">
        <ele>804.291</ele>
        <time>2020-09-02T12:13:45Z</time>
      </trkpt>
      <trkpt lat="44.05626" lon="5.79714">
        <ele>803.598</ele>
        <time>2020-09-02T12:13:46Z</time>
      </trkpt>
      <trkpt lat="44.05614" lon="5.79711">
        <ele>803.415</ele>
        <time>2020-09-02T12:13:47Z</time>
      </trkpt>
      <trkpt lat="44.05604" lon="5.79707">
        <ele>803.526</ele>
        <time>2020-09-02T12:13:48Z</time>
      </trkpt>
      <trkpt lat="44.05593" lon="5.79702">
        <ele>803.108</ele>
        <time>2020-09-02T12:13:49Z</time>
      </trkpt>
      <trkpt lat="44.05584" lon="5.79694">
        <ele>803.437</ele>
        <time>2020-09-02T12:13:50Z</time>
      </trkpt>
      <trkpt lat="44.05575" lon="5.79684">
        <ele>803.816</ele>
        <time>2020-09-02T12:13:51Z</time>
      </trkpt>
      <trkpt lat="44.05566" lon="5.79672">
        <ele>803.546</ele>
        <time>2020-09-02T12:13:52Z</time>
      </trkpt>
      <trkpt lat="44.0556" lon="5.79661">
        <ele>803.343</ele>
        <time>2020-09-02T12:13:53Z</time>
      </trkpt>
      <trkpt lat="44.05554" lon="5.79651">
        <ele>803.444</ele>
        <time>2020-09-02T12:13:54Z</time>
      </trkpt>
      <trkpt lat="44.05549" lon="5.79639">
        <ele>803.012</ele>
        <time>2020-09-02T12:13:55Z</time>
      </trkpt>
      <trkpt lat="44.05543" lon="5.79628">
        <ele>802.548</ele>
        <time>2020-09-02T12:13:56Z</time>
      </trkpt>
      <trkpt lat="44.05535" lon="5.79617">
        <ele>801.951</ele>
        <time>2020-09-02T12:13:57Z</time>
      </trkpt>
      <trkpt lat="44.05528" lon="5.79605">
        <ele>801.328</ele>
        <time>2020-09-02T12:13:58Z</time>
      </trkpt>
      <trkpt lat="44.05521" lon="5.79595">
        <ele>800.789</ele>
        <time>2020-09-02T12:13:59Z</time>
      </trkpt>
      <trkpt lat="44.05515" lon="5.79586">
        <ele>800.717</ele>
        <time>2020-09-02T12:14:00Z</time>
      </trkpt>
      <trkpt lat="44.05509" lon="5.79579">
        <ele>801.308</ele>
        <time>2020-09-02T12:14:01Z</time>
      </trkpt>
      <trkpt lat="44.05504" lon="5.79572">
        <ele>801.17</ele>
        <time>2020-09-02T12:14:02Z</time>
      </trkpt>
      <trkpt lat="44.05499" lon="5.79565">
        <ele>801.259</ele>
        <time>2020-09-02T12:14:03Z</time>
      </trkpt>
      <trkpt lat="44.05494" lon="5.79559">
        <ele>800.969</ele>
        <time>2020-09-02T12:14:04Z</time>
      </trkpt>
      <trkpt lat="44.05489" lon="5.79552">
        <ele>801.116</ele>
        <time>2020-09-02T12:14:05Z</time>
      </trkpt>
      <trkpt lat="44.05484" lon="5.79545">
        <ele>800.417</ele>
        <time>2020-09-02T12:14:06Z</time>
      </trkpt>
      <trkpt lat="44.05479" lon="5.79538">
        <ele>799.895</ele>
        <time>2020-09-02T12:14:07Z</time>
      </trkpt>
      <trkpt lat="44.05475" lon="5.79533">
        <ele>799.511</ele>
        <time>2020-09-02T12:14:08Z</time>
      </trkpt>
      <trkpt lat="44.05469" lon="5.79529">
        <ele>799.054</ele>
        <time>2020-09-02T12:14:09Z</time>
      </trkpt>
      <trkpt lat="44.05461" lon="5.79524">
        <ele>798.831</ele>
        <time>2020-09-02T12:14:10Z</time>
      </trkpt>
      <trkpt lat="44.05452" lon="5.7952">
        <ele>798.161</ele>
        <time>2020-09-02T12:14:11Z</time>
      </trkpt>
      <trkpt lat="44.05447" lon="5.79515">
        <ele>797.307</ele>
        <time>2020-09-02T12:14:12Z</time>
      </trkpt>
      <trkpt lat="44.05441" lon="5.79511">
        <ele>796.408</ele>
        <time>2020-09-02T12:14:13Z</time>
      </trkpt>
      <trkpt lat="44.05437" lon="5.79506">
        <ele>795.621</ele>
        <time>2020-09-02T12:14:14Z</time>
      </trkpt>
      <trkpt lat="44.0543" lon="5.795">
        <ele>794.52</ele>
        <time>2020-09-02T12:14:15Z</time>
      </trkpt>
      <trkpt lat="44.05425" lon="5.79495">
        <ele>794.54</ele>
        <time>2020-09-02T12:14:16Z</time>
      </trkpt>
      <trkpt lat="44.05419" lon="5.7949">
        <ele>793.497</ele>
        <time>2020-09-02T12:14:17Z</time>
      </trkpt>
      <trkpt lat="44.05414" lon="5.79485">
        <ele>791.688</ele>
        <time>2020-09-02T12:14:18Z</time>
      </trkpt>
      <trkpt lat="44.05408" lon="5.7948">
        <ele>791.076</ele>
        <time>2020-09-02T12:14:19Z</time>
      </trkpt>
      <trkpt lat="44.05402" lon="5.79474">
        <ele>789.952</ele>
        <time>2020-09-02T12:14:20Z</time>
      </trkpt>
      <trkpt lat="44.05397" lon="5.79467">
        <ele>789.815</ele>
        <time>2020-09-02T12:14:21Z</time>
      </trkpt>
      <trkpt lat="44.05392" lon="5.79458">
        <ele>789.658</ele>
        <time>2020-09-02T12:14:22Z</time>
      </trkpt>
      <trkpt lat="44.05387" lon="5.79446">
        <ele>789.052</ele>
        <time>2020-09-02T12:14:23Z</time>
      </trkpt>
      <trkpt lat="44.05383" lon="5.79436">
        <ele>788.817</ele>
        <time>2020-09-02T12:14:24Z</time>
      </trkpt>
      <trkpt lat="44.05378" lon="5.79429">
        <ele>789.208</ele>
        <time>2020-09-02T12:14:25Z</time>
      </trkpt>
      <trkpt lat="44.05374" lon="5.7942">
        <ele>788.143</ele>
        <time>2020-09-02T12:14:26Z</time>
      </trkpt>
      <trkpt lat="44.05369" lon="5.79413">
        <ele>787.932</ele>
        <time>2020-09-02T12:14:27Z</time>
      </trkpt>
      <trkpt lat="44.05366" lon="5.79403">
        <ele>786.642</ele>
        <time>2020-09-02T12:14:28Z</time>
      </trkpt>
      <trkpt lat="44.05364" lon="5.79394">
        <ele>785.969</ele>
        <time>2020-09-02T12:14:29Z</time>
      </trkpt>
      <trkpt lat="44.05362" lon="5.79384">
        <ele>785.37</ele>
        <time>2020-09-02T12:14:30Z</time>
      </trkpt>
      <trkpt lat="44.05359" lon="5.79378">
        <ele>785.258</ele>
        <time>2020-09-02T12:14:31Z</time>
      </trkpt>
      <trkpt lat="44.05356" lon="5.79371">
        <ele>784.754</ele>
        <time>2020-09-02T12:14:32Z</time>
      </trkpt>
      <trkpt lat="44.05351" lon="5.79366">
        <ele>784.427</ele>
        <time>2020-09-02T12:14:33Z</time>
      </trkpt>
      <trkpt lat="44.05344" lon="5.79361">
        <ele>783.628</ele>
        <time>2020-09-02T12:14:34Z</time>
      </trkpt>
      <trkpt lat="44.05337" lon="5.79356">
        <ele>783.189</ele>
        <time>2020-09-02T12:14:35Z</time>
      </trkpt>
      <trkpt lat="44.05331" lon="5.79351">
        <ele>783.117</ele>
        <time>2020-09-02T12:14:36Z</time>
      </trkpt>
      <trkpt lat="44.05324" lon="5.79347">
        <ele>782.308</ele>
        <time>2020-09-02T12:14:37Z</time>
      </trkpt>
      <trkpt lat="44.05315" lon="5.79342">
        <ele>781.31</ele>
        <time>2020-09-02T12:14:38Z</time>
      </trkpt>
      <trkpt lat="44.05306" lon="5.79338">
        <ele>781.499</ele>
        <time>2020-09-02T12:14:39Z</time>
      </trkpt>
      <trkpt lat="44.05298" lon="5.79335">
        <ele>780.679</ele>
        <time>2020-09-02T12:14:40Z</time>
      </trkpt>
      <trkpt lat="44.05292" lon="5.79332">
        <ele>779.296</ele>
        <time>2020-09-02T12:14:41Z</time>
      </trkpt>
      <trkpt lat="44.05286" lon="5.79326">
        <ele>779.187</ele>
        <time>2020-09-02T12:14:42Z</time>
      </trkpt>
      <trkpt lat="44.05278" lon="5.79318">
        <ele>778.325</ele>
        <time>2020-09-02T12:14:43Z</time>
      </trkpt>
      <trkpt lat="44.05273" lon="5.79307">
        <ele>776.321</ele>
        <time>2020-09-02T12:14:44Z</time>
      </trkpt>
      <trkpt lat="44.05267" lon="5.79301">
        <ele>775.424</ele>
        <time>2020-09-02T12:14:45Z</time>
      </trkpt>
      <trkpt lat="44.05261" lon="5.79294">
        <ele>775.442</ele>
        <time>2020-09-02T12:14:46Z</time>
      </trkpt>
      <trkpt lat="44.05255" lon="5.79287">
        <ele>775.322</ele>
        <time>2020-09-02T12:14:47Z</time>
      </trkpt>
      <trkpt lat="44.05249" lon="5.79284">
        <ele>775.414</ele>
        <time>2020-09-02T12:14:48Z</time>
      </trkpt>
      <trkpt lat="44.05241" lon="5.79279">
        <ele>774.808</ele>
        <time>2020-09-02T12:14:49Z</time>
      </trkpt>
      <trkpt lat="44.05237" lon="5.79272">
        <ele>772.642</ele>
        <time>2020-09-02T12:14:50Z</time>
      </trkpt>
      <trkpt lat="44.05231" lon="5.79267">
        <ele>772.471</ele>
        <time>2020-09-02T12:14:51Z</time>
      </trkpt>
      <trkpt lat="44.05225" lon="5.7926">
        <ele>771.841</ele>
        <time>2020-09-02T12:14:52Z</time>
      </trkpt>
      <trkpt lat="44.05219" lon="5.79253">
        <ele>771.468</ele>
        <time>2020-09-02T12:14:53Z</time>
      </trkpt>
      <trkpt lat="44.05213" lon="5.79245">
        <ele>771.779</ele>
        <time>2020-09-02T12:14:54Z</time>
      </trkpt>
      <trkpt lat="44.0521" lon="5.79235">
        <ele>769.797</ele>
        <time>2020-09-02T12:14:55Z</time>
      </trkpt>
      <trkpt lat="44.05206" lon="5.79226">
        <ele>769.073</ele>
        <time>2020-09-02T12:14:56Z</time>
      </trkpt>
      <trkpt lat="44.05204" lon="5.79215">
        <ele>767.816</ele>
        <time>2020-09-02T12:14:57Z</time>
      </trkpt>
      <trkpt lat="44.05201" lon="5.79206">
        <ele>767.488</ele>
        <time>2020-09-02T12:14:58Z</time>
      </trkpt>
      <trkpt lat="44.05198" lon="5.79196">
        <ele>767.224</ele>
        <time>2020-09-02T12:14:59Z</time>
      </trkpt>
      <trkpt lat="44.05196" lon="5.79185">
        <ele>767.426</ele>
        <time>2020-09-02T12:15:00Z</time>
      </trkpt>
      <trkpt lat="44.05194" lon="5.79175">
        <ele>767.208</ele>
        <time>2020-09-02T12:15:01Z</time>
      </trkpt>
      <trkpt lat="44.05193" lon="5.79164">
        <ele>766.986</ele>
        <time>2020-09-02T12:15:02Z</time>
      </trkpt>
      <trkpt lat="44.0519" lon="5.79153">
        <ele>766.915</ele>
        <time>2020-09-02T12:15:03Z</time>
      </trkpt>
      <trkpt lat="44.05187" lon="5.79144">
        <ele>766.285</ele>
        <time>2020-09-02T12:15:04Z</time>
      </trkpt>
      <trkpt lat="44.05183" lon="5.79133">
        <ele>765.792</ele>
        <time>2020-09-02T12:15:05Z</time>
      </trkpt>
      <trkpt lat="44.0518" lon="5.79124">
        <ele>765.413</ele>
        <time>2020-09-02T12:15:06Z</time>
      </trkpt>
      <trkpt lat="44.05179" lon="5.79114">
        <ele>765.031</ele>
        <time>2020-09-02T12:15:07Z</time>
      </trkpt>
      <trkpt lat="44.05176" lon="5.79106">
        <ele>765.297</ele>
        <time>2020-09-02T12:15:08Z</time>
      </trkpt>
      <trkpt lat="44.05171" lon="5.79098">
        <ele>764.31</ele>
        <time>2020-09-02T12:15:09Z</time>
      </trkpt>
      <trkpt lat="44.05165" lon="5.7909">
        <ele>763.935</ele>
        <time>2020-09-02T12:15:10Z</time>
      </trkpt>
      <trkpt lat="44.0516" lon="5.79079">
        <ele>764.586</ele>
        <time>2020-09-02T12:15:11Z</time>
      </trkpt>
      <trkpt lat="44.05154" lon="5.79071">
        <ele>764.514</ele>
        <time>2020-09-02T12:15:12Z</time>
      </trkpt>
      <trkpt lat="44.05149" lon="5.79062">
        <ele>764.608</ele>
        <time>2020-09-02T12:15:13Z</time>
      </trkpt>
      <trkpt lat="44.05143" lon="5.79054">
        <ele>765.071</ele>
        <time>2020-09-02T12:15:14Z</time>
      </trkpt>
      <trkpt lat="44.05139" lon="5.79045">
        <ele>764.64</ele>
        <time>2020-09-02T12:15:15Z</time>
      </trkpt>
      <trkpt lat="44.05134" lon="5.79037">
        <ele>764.61</ele>
        <time>2020-09-02T12:15:16Z</time>
      </trkpt>
      <trkpt lat="44.05129" lon="5.7903">
        <ele>764.757</ele>
        <time>2020-09-02T12:15:17Z</time>
      </trkpt>
      <trkpt lat="44.05126" lon="5.79024">
        <ele>765.048</ele>
        <time>2020-09-02T12:15:18Z</time>
      </trkpt>
      <trkpt lat="44.05123" lon="5.79018">
        <ele>764.476</ele>
        <time>2020-09-02T12:15:19Z</time>
      </trkpt>
      <trkpt lat="44.05116" lon="5.79012">
        <ele>764.512</ele>
        <time>2020-09-02T12:15:21Z</time>
      </trkpt>
      <trkpt lat="44.0511" lon="5.7901">
        <ele>765.325</ele>
        <time>2020-09-02T12:15:22Z</time>
      </trkpt>
      <trkpt lat="44.05104" lon="5.79011">
        <ele>764.782</ele>
        <time>2020-09-02T12:15:23Z</time>
      </trkpt>
      <trkpt lat="44.05097" lon="5.79013">
        <ele>764.043</ele>
        <time>2020-09-02T12:15:24Z</time>
      </trkpt>
      <trkpt lat="44.05089" lon="5.79015">
        <ele>763.217</ele>
        <time>2020-09-02T12:15:25Z</time>
      </trkpt>
      <trkpt lat="44.05081" lon="5.79018">
        <ele>761.408</ele>
        <time>2020-09-02T12:15:26Z</time>
      </trkpt>
      <trkpt lat="44.05073" lon="5.79019">
        <ele>759.926</ele>
        <time>2020-09-02T12:15:27Z</time>
      </trkpt>
      <trkpt lat="44.05065" lon="5.79021">
        <ele>757.525</ele>
        <time>2020-09-02T12:15:28Z</time>
      </trkpt>
      <trkpt lat="44.05056" lon="5.79023">
        <ele>756.885</ele>
        <time>2020-09-02T12:15:29Z</time>
      </trkpt>
      <trkpt lat="44.05048" lon="5.79024">
        <ele>756.492</ele>
        <time>2020-09-02T12:15:30Z</time>
      </trkpt>
      <trkpt lat="44.05039" lon="5.79027">
        <ele>755.353</ele>
        <time>2020-09-02T12:15:31Z</time>
      </trkpt>
      <trkpt lat="44.0503" lon="5.79029">
        <ele>754.521</ele>
        <time>2020-09-02T12:15:32Z</time>
      </trkpt>
      <trkpt lat="44.05022" lon="5.79029">
        <ele>752.127</ele>
        <time>2020-09-02T12:15:33Z</time>
      </trkpt>
      <trkpt lat="44.05014" lon="5.79031">
        <ele>751.24</ele>
        <time>2020-09-02T12:15:34Z</time>
      </trkpt>
      <trkpt lat="44.05006" lon="5.79031">
        <ele>751.196</ele>
        <time>2020-09-02T12:15:35Z</time>
      </trkpt>
      <trkpt lat="44.04998" lon="5.79031">
        <ele>749.431</ele>
        <time>2020-09-02T12:15:36Z</time>
      </trkpt>
      <trkpt lat="44.04991" lon="5.79032">
        <ele>748.424</ele>
        <time>2020-09-02T12:15:37Z</time>
      </trkpt>
      <trkpt lat="44.04984" lon="5.79032">
        <ele>748.108</ele>
        <time>2020-09-02T12:15:38Z</time>
      </trkpt>
      <trkpt lat="44.04976" lon="5.79032">
        <ele>747.997</ele>
        <time>2020-09-02T12:15:39Z</time>
      </trkpt>
      <trkpt lat="44.0497" lon="5.79034">
        <ele>747.086</ele>
        <time>2020-09-02T12:15:40Z</time>
      </trkpt>
      <trkpt lat="44.04962" lon="5.79036">
        <ele>746.326</ele>
        <time>2020-09-02T12:15:41Z</time>
      </trkpt>
      <trkpt lat="44.04954" lon="5.79038">
        <ele>745.353</ele>
        <time>2020-09-02T12:15:42Z</time>
      </trkpt>
      <trkpt lat="44.04945" lon="5.79042">
        <ele>742.994</ele>
        <time>2020-09-02T12:15:43Z</time>
      </trkpt>
      <trkpt lat="44.04937" lon="5.79045">
        <ele>742.572</ele>
        <time>2020-09-02T12:15:44Z</time>
      </trkpt>
      <trkpt lat="44.04927" lon="5.79049">
        <ele>741.058</ele>
        <time>2020-09-02T12:15:45Z</time>
      </trkpt>
      <trkpt lat="44.04918" lon="5.79052">
        <ele>740.861</ele>
        <time>2020-09-02T12:15:46Z</time>
      </trkpt>
      <trkpt lat="44.04909" lon="5.79057">
        <ele>741.081</ele>
        <time>2020-09-02T12:15:47Z</time>
      </trkpt>
      <trkpt lat="44.049" lon="5.79061">
        <ele>740.061</ele>
        <time>2020-09-02T12:15:48Z</time>
      </trkpt>
      <trkpt lat="44.0489" lon="5.79063">
        <ele>738.817</ele>
        <time>2020-09-02T12:15:49Z</time>
      </trkpt>
      <trkpt lat="44.04882" lon="5.79065">
        <ele>737.808</ele>
        <time>2020-09-02T12:15:50Z</time>
      </trkpt>
      <trkpt lat="44.04876" lon="5.79067">
        <ele>737.476</ele>
        <time>2020-09-02T12:15:51Z</time>
      </trkpt>
      <trkpt lat="44.0487" lon="5.79069">
        <ele>737.315</ele>
        <time>2020-09-02T12:15:52Z</time>
      </trkpt>
      <trkpt lat="44.04864" lon="5.7907">
        <ele>736.915</ele>
        <time>2020-09-02T12:15:53Z</time>
      </trkpt>
      <trkpt lat="44.04858" lon="5.79071">
        <ele>735.392</ele>
        <time>2020-09-02T12:15:54Z</time>
      </trkpt>
      <trkpt lat="44.04849" lon="5.79074">
        <ele>734.263</ele>
        <time>2020-09-02T12:15:55Z</time>
      </trkpt>
      <trkpt lat="44.0484" lon="5.79077">
        <ele>733.311</ele>
        <time>2020-09-02T12:15:56Z</time>
      </trkpt>
      <trkpt lat="44.04829" lon="5.79081">
        <ele>731.917</ele>
        <time>2020-09-02T12:15:57Z</time>
      </trkpt>
      <trkpt lat="44.04817" lon="5.79085">
        <ele>730.76</ele>
        <time>2020-09-02T12:15:58Z</time>
      </trkpt>
      <trkpt lat="44.04805" lon="5.79089">
        <ele>730.651</ele>
        <time>2020-09-02T12:15:59Z</time>
      </trkpt>
      <trkpt lat="44.04794" lon="5.79095">
        <ele>730.101</ele>
        <time>2020-09-02T12:16:00Z</time>
      </trkpt>
      <trkpt lat="44.04784" lon="5.79099">
        <ele>729.311</ele>
        <time>2020-09-02T12:16:01Z</time>
      </trkpt>
      <trkpt lat="44.04775" lon="5.79102">
        <ele>728.408</ele>
        <time>2020-09-02T12:16:02Z</time>
      </trkpt>
      <trkpt lat="44.04766" lon="5.79105">
        <ele>726.573</ele>
        <time>2020-09-02T12:16:03Z</time>
      </trkpt>
      <trkpt lat="44.04759" lon="5.79105">
        <ele>725.932</ele>
        <time>2020-09-02T12:16:04Z</time>
      </trkpt>
      <trkpt lat="44.04753" lon="5.79105">
        <ele>725.562</ele>
        <time>2020-09-02T12:16:05Z</time>
      </trkpt>
      <trkpt lat="44.04746" lon="5.79103">
        <ele>724.429</ele>
        <time>2020-09-02T12:16:06Z</time>
      </trkpt>
      <trkpt lat="44.04737" lon="5.791">
        <ele>723.86</ele>
        <time>2020-09-02T12:16:07Z</time>
      </trkpt>
      <trkpt lat="44.04727" lon="5.79095">
        <ele>722.258</ele>
        <time>2020-09-02T12:16:08Z</time>
      </trkpt>
      <trkpt lat="44.04716" lon="5.7909">
        <ele>721.224</ele>
        <time>2020-09-02T12:16:09Z</time>
      </trkpt>
      <trkpt lat="44.04705" lon="5.79083">
        <ele>719.557</ele>
        <time>2020-09-02T12:16:10Z</time>
      </trkpt>
      <trkpt lat="44.04694" lon="5.79075">
        <ele>718.959</ele>
        <time>2020-09-02T12:16:11Z</time>
      </trkpt>
      <trkpt lat="44.04684" lon="5.79068">
        <ele>717.803</ele>
        <time>2020-09-02T12:16:12Z</time>
      </trkpt>
      <trkpt lat="44.04674" lon="5.79061">
        <ele>715.423</ele>
        <time>2020-09-02T12:16:13Z</time>
      </trkpt>
      <trkpt lat="44.04664" lon="5.79053">
        <ele>715.108</ele>
        <time>2020-09-02T12:16:14Z</time>
      </trkpt>
      <trkpt lat="44.04655" lon="5.79044">
        <ele>714.053</ele>
        <time>2020-09-02T12:16:15Z</time>
      </trkpt>
      <trkpt lat="44.04645" lon="5.79034">
        <ele>713.462</ele>
        <time>2020-09-02T12:16:16Z</time>
      </trkpt>
      <trkpt lat="44.04635" lon="5.79024">
        <ele>713.192</ele>
        <time>2020-09-02T12:16:17Z</time>
      </trkpt>
      <trkpt lat="44.04625" lon="5.79014">
        <ele>712.769</ele>
        <time>2020-09-02T12:16:18Z</time>
      </trkpt>
      <trkpt lat="44.04614" lon="5.79003">
        <ele>711.01</ele>
        <time>2020-09-02T12:16:19Z</time>
      </trkpt>
      <trkpt lat="44.04603" lon="5.78994">
        <ele>710.528</ele>
        <time>2020-09-02T12:16:20Z</time>
      </trkpt>
      <trkpt lat="44.04592" lon="5.78986">
        <ele>710.544</ele>
        <time>2020-09-02T12:16:21Z</time>
      </trkpt>
      <trkpt lat="44.04581" lon="5.78981">
        <ele>709.747</ele>
        <time>2020-09-02T12:16:22Z</time>
      </trkpt>
      <trkpt lat="44.04574" lon="5.78977">
        <ele>709.098</ele>
        <time>2020-09-02T12:16:23Z</time>
      </trkpt>
      <trkpt lat="44.04567" lon="5.78974">
        <ele>708.615</ele>
        <time>2020-09-02T12:16:24Z</time>
      </trkpt>
      <trkpt lat="44.04562" lon="5.78972">
        <ele>708.326</ele>
        <time>2020-09-02T12:16:25Z</time>
      </trkpt>
      <trkpt lat="44.04555" lon="5.78968">
        <ele>707.908</ele>
        <time>2020-09-02T12:16:27Z</time>
      </trkpt>
      <trkpt lat="44.04554" lon="5.78961">
        <ele>707.547</ele>
        <time>2020-09-02T12:16:29Z</time>
      </trkpt>
      <trkpt lat="44.04558" lon="5.78945">
        <ele>706.936</ele>
        <time>2020-09-02T12:16:31Z</time>
      </trkpt>
      <trkpt lat="44.0456" lon="5.78936">
        <ele>707.136</ele>
        <time>2020-09-02T12:16:32Z</time>
      </trkpt>
      <trkpt lat="44.04563" lon="5.78926">
        <ele>707.423</ele>
        <time>2020-09-02T12:16:33Z</time>
      </trkpt>
      <trkpt lat="44.04565" lon="5.78915">
        <ele>707.624</ele>
        <time>2020-09-02T12:16:34Z</time>
      </trkpt>
      <trkpt lat="44.04568" lon="5.78903">
        <ele>707.392</ele>
        <time>2020-09-02T12:16:35Z</time>
      </trkpt>
      <trkpt lat="44.04571" lon="5.7889">
        <ele>707.128</ele>
        <time>2020-09-02T12:16:36Z</time>
      </trkpt>
      <trkpt lat="44.04574" lon="5.78877">
        <ele>708.061</ele>
        <time>2020-09-02T12:16:37Z</time>
      </trkpt>
      <trkpt lat="44.04578" lon="5.78862">
        <ele>708.748</ele>
        <time>2020-09-02T12:16:38Z</time>
      </trkpt>
      <trkpt lat="44.0458" lon="5.78849">
        <ele>708.861</ele>
        <time>2020-09-02T12:16:39Z</time>
      </trkpt>
      <trkpt lat="44.0458" lon="5.78837">
        <ele>707.617</ele>
        <time>2020-09-02T12:16:40Z</time>
      </trkpt>
      <trkpt lat="44.04579" lon="5.78824">
        <ele>707.808</ele>
        <time>2020-09-02T12:16:41Z</time>
      </trkpt>
      <trkpt lat="44.04578" lon="5.7881">
        <ele>707.562</ele>
        <time>2020-09-02T12:16:42Z</time>
      </trkpt>
      <trkpt lat="44.04577" lon="5.78795">
        <ele>707.341</ele>
        <time>2020-09-02T12:16:43Z</time>
      </trkpt>
      <trkpt lat="44.04576" lon="5.78781">
        <ele>706.941</ele>
        <time>2020-09-02T12:16:44Z</time>
      </trkpt>
      <trkpt lat="44.04575" lon="5.78766">
        <ele>707.298</ele>
        <time>2020-09-02T12:16:45Z</time>
      </trkpt>
      <trkpt lat="44.04574" lon="5.7875">
        <ele>706.719</ele>
        <time>2020-09-02T12:16:46Z</time>
      </trkpt>
      <trkpt lat="44.04573" lon="5.78733">
        <ele>706.787</ele>
        <time>2020-09-02T12:16:47Z</time>
      </trkpt>
      <trkpt lat="44.04571" lon="5.78717">
        <ele>706.913</ele>
        <time>2020-09-02T12:16:48Z</time>
      </trkpt>
      <trkpt lat="44.0457" lon="5.78698">
        <ele>706.616</ele>
        <time>2020-09-02T12:16:49Z</time>
      </trkpt>
      <trkpt lat="44.04568" lon="5.7868">
        <ele>707.053</ele>
        <time>2020-09-02T12:16:50Z</time>
      </trkpt>
      <trkpt lat="44.04566" lon="5.78662">
        <ele>706.604</ele>
        <time>2020-09-02T12:16:51Z</time>
      </trkpt>
      <trkpt lat="44.04565" lon="5.78642">
        <ele>706.614</ele>
        <time>2020-09-02T12:16:52Z</time>
      </trkpt>
      <trkpt lat="44.04563" lon="5.78624">
        <ele>705.708</ele>
        <time>2020-09-02T12:16:53Z</time>
      </trkpt>
      <trkpt lat="44.04562" lon="5.78605">
        <ele>704.953</ele>
        <time>2020-09-02T12:16:54Z</time>
      </trkpt>
      <trkpt lat="44.0456" lon="5.78587">
        <ele>704.412</ele>
        <time>2020-09-02T12:16:55Z</time>
      </trkpt>
      <trkpt lat="44.04558" lon="5.78568">
        <ele>703.862</ele>
        <time>2020-09-02T12:16:56Z</time>
      </trkpt>
      <trkpt lat="44.04557" lon="5.7855">
        <ele>703.319</ele>
        <time>2020-09-02T12:16:57Z</time>
      </trkpt>
      <trkpt lat="44.04556" lon="5.78532">
        <ele>702.85</ele>
        <time>2020-09-02T12:16:58Z</time>
      </trkpt>
      <trkpt lat="44.04555" lon="5.78515">
        <ele>702.348</ele>
        <time>2020-09-02T12:16:59Z</time>
      </trkpt>
      <trkpt lat="44.04554" lon="5.78498">
        <ele>701.794</ele>
        <time>2020-09-02T12:17:00Z</time>
      </trkpt>
      <trkpt lat="44.04553" lon="5.78481">
        <ele>700.137</ele>
        <time>2020-09-02T12:17:01Z</time>
      </trkpt>
      <trkpt lat="44.04552" lon="5.78466">
        <ele>699.094</ele>
        <time>2020-09-02T12:17:02Z</time>
      </trkpt>
      <trkpt lat="44.04551" lon="5.78452">
        <ele>698.357</ele>
        <time>2020-09-02T12:17:03Z</time>
      </trkpt>
      <trkpt lat="44.0455" lon="5.78439">
        <ele>698.722</ele>
        <time>2020-09-02T12:17:04Z</time>
      </trkpt>
      <trkpt lat="44.0455" lon="5.78426">
        <ele>698.608</ele>
        <time>2020-09-02T12:17:05Z</time>
      </trkpt>
      <trkpt lat="44.04549" lon="5.78415">
        <ele>698.557</ele>
        <time>2020-09-02T12:17:06Z</time>
      </trkpt>
      <trkpt lat="44.04548" lon="5.78404">
        <ele>698.226</ele>
        <time>2020-09-02T12:17:07Z</time>
      </trkpt>
      <trkpt lat="44.04547" lon="5.78395">
        <ele>698.036</ele>
        <time>2020-09-02T12:17:08Z</time>
      </trkpt>
      <trkpt lat="44.04547" lon="5.78389">
        <ele>697.693</ele>
        <time>2020-09-02T12:17:09Z</time>
      </trkpt>
      <trkpt lat="44.04547" lon="5.7838">
        <ele>698.134</ele>
        <time>2020-09-02T12:17:11Z</time>
      </trkpt>
      <trkpt lat="44.04543" lon="5.78372">
        <ele>698.572</ele>
        <time>2020-09-02T12:17:23Z</time>
      </trkpt>
      <trkpt lat="44.04543" lon="5.78364">
        <ele>698.438</ele>
        <time>2020-09-02T12:17:24Z</time>
      </trkpt>
      <trkpt lat="44.04543" lon="5.78356">
        <ele>698.991</ele>
        <time>2020-09-02T12:17:25Z</time>
      </trkpt>
      <trkpt lat="44.04543" lon="5.78348">
        <ele>699.012</ele>
        <time>2020-09-02T12:17:26Z</time>
      </trkpt>
      <trkpt lat="44.04544" lon="5.78336">
        <ele>699.232</ele>
        <time>2020-09-02T12:17:27Z</time>
      </trkpt>
      <trkpt lat="44.04544" lon="5.78324">
        <ele>698.605</ele>
        <time>2020-09-02T12:17:28Z</time>
      </trkpt>
      <trkpt lat="44.04544" lon="5.78313">
        <ele>698.608</ele>
        <time>2020-09-02T12:17:29Z</time>
      </trkpt>
      <trkpt lat="44.04545" lon="5.78304">
        <ele>699.259</ele>
        <time>2020-09-02T12:17:30Z</time>
      </trkpt>
      <trkpt lat="44.04545" lon="5.78295">
        <ele>699.268</ele>
        <time>2020-09-02T12:17:31Z</time>
      </trkpt>
      <trkpt lat="44.04545" lon="5.78286">
        <ele>699.198</ele>
        <time>2020-09-02T12:17:32Z</time>
      </trkpt>
      <trkpt lat="44.04546" lon="5.78275">
        <ele>698.985</ele>
        <time>2020-09-02T12:17:33Z</time>
      </trkpt>
      <trkpt lat="44.04546" lon="5.78265">
        <ele>698.976</ele>
        <time>2020-09-02T12:17:34Z</time>
      </trkpt>
      <trkpt lat="44.04547" lon="5.78253">
        <ele>698.474</ele>
        <time>2020-09-02T12:17:35Z</time>
      </trkpt>
      <trkpt lat="44.04547" lon="5.78242">
        <ele>697.95</ele>
        <time>2020-09-02T12:17:36Z</time>
      </trkpt>
      <trkpt lat="44.04547" lon="5.78233">
        <ele>697.443</ele>
        <time>2020-09-02T12:17:37Z</time>
      </trkpt>
      <trkpt lat="44.04547" lon="5.78223">
        <ele>697.776</ele>
        <time>2020-09-02T12:17:38Z</time>
      </trkpt>
      <trkpt lat="44.04548" lon="5.78212">
        <ele>697.49</ele>
        <time>2020-09-02T12:17:39Z</time>
      </trkpt>
      <trkpt lat="44.04548" lon="5.78201">
        <ele>697.519</ele>
        <time>2020-09-02T12:17:40Z</time>
      </trkpt>
      <trkpt lat="44.04548" lon="5.78189">
        <ele>697.508</ele>
        <time>2020-09-02T12:17:41Z</time>
      </trkpt>
      <trkpt lat="44.04548" lon="5.78178">
        <ele>697.065</ele>
        <time>2020-09-02T12:17:42Z</time>
      </trkpt>
      <trkpt lat="44.04548" lon="5.78165">
        <ele>696.964</ele>
        <time>2020-09-02T12:17:43Z</time>
      </trkpt>
      <trkpt lat="44.04549" lon="5.78153">
        <ele>697.174</ele>
        <time>2020-09-02T12:17:44Z</time>
      </trkpt>
      <trkpt lat="44.04548" lon="5.78141">
        <ele>696.771</ele>
        <time>2020-09-02T12:17:45Z</time>
      </trkpt>
      <trkpt lat="44.04548" lon="5.78129">
        <ele>696.052</ele>
        <time>2020-09-02T12:17:46Z</time>
      </trkpt>
      <trkpt lat="44.04549" lon="5.78118">
        <ele>695.79</ele>
        <time>2020-09-02T12:17:47Z</time>
      </trkpt>
      <trkpt lat="44.0455" lon="5.78108">
        <ele>695.216</ele>
        <time>2020-09-02T12:17:48Z</time>
      </trkpt>
      <trkpt lat="44.0455" lon="5.78098">
        <ele>694.619</ele>
        <time>2020-09-02T12:17:49Z</time>
      </trkpt>
      <trkpt lat="44.04551" lon="5.78091">
        <ele>695.065</ele>
        <time>2020-09-02T12:17:50Z</time>
      </trkpt>
      <trkpt lat="44.04548" lon="5.78078">
        <ele>695.368</ele>
        <time>2020-09-02T12:17:52Z</time>
      </trkpt>
      <trkpt lat="44.04548" lon="5.78072">
        <ele>695.614</ele>
        <time>2020-09-02T12:17:53Z</time>
      </trkpt>
      <trkpt lat="44.04547" lon="5.78065">
        <ele>695.408</ele>
        <time>2020-09-02T12:17:54Z</time>
      </trkpt>
      <trkpt lat="44.04545" lon="5.78057">
        <ele>695.484</ele>
        <time>2020-09-02T12:17:55Z</time>
      </trkpt>
      <trkpt lat="44.04545" lon="5.78049">
        <ele>695.673</ele>
        <time>2020-09-02T12:17:56Z</time>
      </trkpt>
      <trkpt lat="44.04545" lon="5.7804">
        <ele>695.013</ele>
        <time>2020-09-02T12:17:57Z</time>
      </trkpt>
      <trkpt lat="44.04545" lon="5.78032">
        <ele>695.43</ele>
        <time>2020-09-02T12:17:58Z</time>
      </trkpt>
      <trkpt lat="44.04546" lon="5.78025">
        <ele>695.511</ele>
        <time>2020-09-02T12:17:59Z</time>
      </trkpt>
      <trkpt lat="44.04543" lon="5.7802">
        <ele>695.289</ele>
        <time>2020-09-02T12:18:00Z</time>
      </trkpt>
      <trkpt lat="44.04544" lon="5.78012">
        <ele>694.845</ele>
        <time>2020-09-02T12:18:02Z</time>
      </trkpt>
      <trkpt lat="44.04539" lon="5.78009">
        <ele>694.958</ele>
        <time>2020-09-02T12:18:17Z</time>
      </trkpt>
      <trkpt lat="44.04534" lon="5.78006">
        <ele>694.087</ele>
        <time>2020-09-02T12:18:25Z</time>
      </trkpt>
      <trkpt lat="44.04529" lon="5.78007">
        <ele>694.642</ele>
        <time>2020-09-02T12:18:27Z</time>
      </trkpt>
      <trkpt lat="44.04524" lon="5.78009">
        <ele>695.026</ele>
        <time>2020-09-02T12:18:29Z</time>
      </trkpt>
      <trkpt lat="44.04518" lon="5.78013">
        <ele>694.408</ele>
        <time>2020-09-02T12:18:31Z</time>
      </trkpt>
      <trkpt lat="44.04511" lon="5.78017">
        <ele>693.966</ele>
        <time>2020-09-02T12:18:33Z</time>
      </trkpt>
      <trkpt lat="44.04504" lon="5.7802">
        <ele>693.095</ele>
        <time>2020-09-02T12:18:35Z</time>
      </trkpt>
      <trkpt lat="44.04497" lon="5.78022">
        <ele>692.385</ele>
        <time>2020-09-02T12:18:37Z</time>
      </trkpt>
      <trkpt lat="44.0449" lon="5.78025">
        <ele>692.612</ele>
        <time>2020-09-02T12:18:39Z</time>
      </trkpt>
      <trkpt lat="44.04484" lon="5.78027">
        <ele>693.963</ele>
        <time>2020-09-02T12:18:41Z</time>
      </trkpt>
      <trkpt lat="44.04478" lon="5.78027">
        <ele>694.661</ele>
        <time>2020-09-02T12:18:43Z</time>
      </trkpt>
      <trkpt lat="44.04472" lon="5.78027">
        <ele>694.917</ele>
        <time>2020-09-02T12:18:45Z</time>
      </trkpt>
      <trkpt lat="44.04465" lon="5.7803">
        <ele>694.41</ele>
        <time>2020-09-02T12:18:48Z</time>
      </trkpt>
      <trkpt lat="44.0446" lon="5.78032">
        <ele>693.935</ele>
        <time>2020-09-02T12:18:51Z</time>
      </trkpt>
      <trkpt lat="44.04464" lon="5.78026">
        <ele>685.886</ele>
        <time>2020-09-02T12:23:02Z</time>
      </trkpt>
      <trkpt lat="44.04469" lon="5.78024">
        <ele>686.414</ele>
        <time>2020-09-02T12:23:07Z</time>
      </trkpt>
      <trkpt lat="44.04459" lon="5.78031">
        <ele>686.008</ele>
        <time>2020-09-02T13:48:28Z</time>
      </trkpt>
      <trkpt lat="44.04459" lon="5.78038">
        <ele>686.541</ele>
        <time>2020-09-02T13:48:42Z</time>
      </trkpt>
      <trkpt lat="44.04463" lon="5.78044">
        <ele>686.39</ele>
        <time>2020-09-02T13:48:44Z</time>
      </trkpt>
      <trkpt lat="44.04472" lon="5.78043">
        <ele>686.98</ele>
        <time>2020-09-02T13:48:46Z</time>
      </trkpt>
      <trkpt lat="44.04477" lon="5.78039">
        <ele>687.177</ele>
        <time>2020-09-02T13:48:47Z</time>
      </trkpt>
      <trkpt lat="44.04483" lon="5.78036">
        <ele>687.378</ele>
        <time>2020-09-02T13:48:48Z</time>
      </trkpt>
      <trkpt lat="44.04491" lon="5.78031">
        <ele>687.736</ele>
        <time>2020-09-02T13:48:49Z</time>
      </trkpt>
      <trkpt lat="44.04496" lon="5.7803">
        <ele>688.322</ele>
        <time>2020-09-02T13:48:50Z</time>
      </trkpt>
      <trkpt lat="44.04502" lon="5.78028">
        <ele>688.815</ele>
        <time>2020-09-02T13:48:51Z</time>
      </trkpt>
      <trkpt lat="44.04508" lon="5.78027">
        <ele>689.267</ele>
        <time>2020-09-02T13:48:52Z</time>
      </trkpt>
      <trkpt lat="44.04515" lon="5.78025">
        <ele>689.281</ele>
        <time>2020-09-02T13:48:53Z</time>
      </trkpt>
      <trkpt lat="44.04522" lon="5.78021">
        <ele>688.619</ele>
        <time>2020-09-02T13:48:54Z</time>
      </trkpt>
      <trkpt lat="44.04528" lon="5.78017">
        <ele>689.008</ele>
        <time>2020-09-02T13:48:55Z</time>
      </trkpt>
      <trkpt lat="44.04533" lon="5.78014">
        <ele>689.184</ele>
        <time>2020-09-02T13:48:56Z</time>
      </trkpt>
      <trkpt lat="44.04539" lon="5.78016">
        <ele>689.983</ele>
        <time>2020-09-02T13:48:57Z</time>
      </trkpt>
      <trkpt lat="44.04544" lon="5.78019">
        <ele>690.423</ele>
        <time>2020-09-02T13:48:58Z</time>
      </trkpt>
      <trkpt lat="44.04548" lon="5.78027">
        <ele>691.49</ele>
        <time>2020-09-02T13:49:00Z</time>
      </trkpt>
      <trkpt lat="44.04548" lon="5.78038">
        <ele>692.561</ele>
        <time>2020-09-02T13:49:02Z</time>
      </trkpt>
      <trkpt lat="44.04549" lon="5.7805">
        <ele>693.179</ele>
        <time>2020-09-02T13:49:04Z</time>
      </trkpt>
      <trkpt lat="44.04547" lon="5.78059">
        <ele>694.925</ele>
        <time>2020-09-02T13:49:06Z</time>
      </trkpt>
      <trkpt lat="44.04548" lon="5.78073">
        <ele>695.498</ele>
        <time>2020-09-02T13:49:08Z</time>
      </trkpt>
      <trkpt lat="44.04549" lon="5.78083">
        <ele>696.038</ele>
        <time>2020-09-02T13:49:09Z</time>
      </trkpt>
      <trkpt lat="44.0455" lon="5.78091">
        <ele>695.77</ele>
        <time>2020-09-02T13:49:10Z</time>
      </trkpt>
      <trkpt lat="44.0455" lon="5.781">
        <ele>695.817</ele>
        <time>2020-09-02T13:49:11Z</time>
      </trkpt>
      <trkpt lat="44.04548" lon="5.78109">
        <ele>695.308</ele>
        <time>2020-09-02T13:49:12Z</time>
      </trkpt>
      <trkpt lat="44.04548" lon="5.78118">
        <ele>695.381</ele>
        <time>2020-09-02T13:49:13Z</time>
      </trkpt>
      <trkpt lat="44.04548" lon="5.7813">
        <ele>695.56</ele>
        <time>2020-09-02T13:49:14Z</time>
      </trkpt>
      <trkpt lat="44.04548" lon="5.78142">
        <ele>696.68</ele>
        <time>2020-09-02T13:49:15Z</time>
      </trkpt>
      <trkpt lat="44.04547" lon="5.78154">
        <ele>696.757</ele>
        <time>2020-09-02T13:49:16Z</time>
      </trkpt>
      <trkpt lat="44.04548" lon="5.78166">
        <ele>697.198</ele>
        <time>2020-09-02T13:49:17Z</time>
      </trkpt>
      <trkpt lat="44.04547" lon="5.78181">
        <ele>698.046</ele>
        <time>2020-09-02T13:49:18Z</time>
      </trkpt>
      <trkpt lat="44.04547" lon="5.78197">
        <ele>698.212</ele>
        <time>2020-09-02T13:49:19Z</time>
      </trkpt>
      <trkpt lat="44.04547" lon="5.78214">
        <ele>698.925</ele>
        <time>2020-09-02T13:49:20Z</time>
      </trkpt>
      <trkpt lat="44.04547" lon="5.7823">
        <ele>698.816</ele>
        <time>2020-09-02T13:49:21Z</time>
      </trkpt>
      <trkpt lat="44.04548" lon="5.78245">
        <ele>698.276</ele>
        <time>2020-09-02T13:49:22Z</time>
      </trkpt>
      <trkpt lat="44.04547" lon="5.78259">
        <ele>698.213</ele>
        <time>2020-09-02T13:49:23Z</time>
      </trkpt>
      <trkpt lat="44.04546" lon="5.78271">
        <ele>698.208</ele>
        <time>2020-09-02T13:49:24Z</time>
      </trkpt>
      <trkpt lat="44.04547" lon="5.78284">
        <ele>697.169</ele>
        <time>2020-09-02T13:49:25Z</time>
      </trkpt>
      <trkpt lat="44.04548" lon="5.78295">
        <ele>697.588</ele>
        <time>2020-09-02T13:49:26Z</time>
      </trkpt>
      <trkpt lat="44.04548" lon="5.78306">
        <ele>697.268</ele>
        <time>2020-09-02T13:49:27Z</time>
      </trkpt>
      <trkpt lat="44.04547" lon="5.78317">
        <ele>697.385</ele>
        <time>2020-09-02T13:49:28Z</time>
      </trkpt>
      <trkpt lat="44.04547" lon="5.78328">
        <ele>697.726</ele>
        <time>2020-09-02T13:49:29Z</time>
      </trkpt>
      <trkpt lat="44.04547" lon="5.78336">
        <ele>697.694</ele>
        <time>2020-09-02T13:49:30Z</time>
      </trkpt>
      <trkpt lat="44.04547" lon="5.78343">
        <ele>697.76</ele>
        <time>2020-09-02T13:49:31Z</time>
      </trkpt>
      <trkpt lat="44.04547" lon="5.78352">
        <ele>697.613</ele>
        <time>2020-09-02T13:49:32Z</time>
      </trkpt>
      <trkpt lat="44.04544" lon="5.78365">
        <ele>696.797</ele>
        <time>2020-09-02T13:49:33Z</time>
      </trkpt>
      <trkpt lat="44.04542" lon="5.78375">
        <ele>696.023</ele>
        <time>2020-09-02T13:49:39Z</time>
      </trkpt>
      <trkpt lat="44.04543" lon="5.78384">
        <ele>696.025</ele>
        <time>2020-09-02T13:49:42Z</time>
      </trkpt>
      <trkpt lat="44.04544" lon="5.78391">
        <ele>695.208</ele>
        <time>2020-09-02T13:49:43Z</time>
      </trkpt>
      <trkpt lat="44.04546" lon="5.78399">
        <ele>695.377</ele>
        <time>2020-09-02T13:49:44Z</time>
      </trkpt>
      <trkpt lat="44.04546" lon="5.78412">
        <ele>695.236</ele>
        <time>2020-09-02T13:49:45Z</time>
      </trkpt>
      <trkpt lat="44.04547" lon="5.78425">
        <ele>696.096</ele>
        <time>2020-09-02T13:49:46Z</time>
      </trkpt>
      <trkpt lat="44.04547" lon="5.7844">
        <ele>696.163</ele>
        <time>2020-09-02T13:49:47Z</time>
      </trkpt>
      <trkpt lat="44.04548" lon="5.78456">
        <ele>697.324</ele>
        <time>2020-09-02T13:49:48Z</time>
      </trkpt>
      <trkpt lat="44.04549" lon="5.78474">
        <ele>697.672</ele>
        <time>2020-09-02T13:49:49Z</time>
      </trkpt>
      <trkpt lat="44.04552" lon="5.78494">
        <ele>696.678</ele>
        <time>2020-09-02T13:49:50Z</time>
      </trkpt>
      <trkpt lat="44.04554" lon="5.78515">
        <ele>697.211</ele>
        <time>2020-09-02T13:49:51Z</time>
      </trkpt>
      <trkpt lat="44.04556" lon="5.78537">
        <ele>698.189</ele>
        <time>2020-09-02T13:49:52Z</time>
      </trkpt>
      <trkpt lat="44.04558" lon="5.78559">
        <ele>699.506</ele>
        <time>2020-09-02T13:49:53Z</time>
      </trkpt>
      <trkpt lat="44.04558" lon="5.78582">
        <ele>700.526</ele>
        <time>2020-09-02T13:49:54Z</time>
      </trkpt>
      <trkpt lat="44.0456" lon="5.78605">
        <ele>701.008</ele>
        <time>2020-09-02T13:49:55Z</time>
      </trkpt>
      <trkpt lat="44.04562" lon="5.7863">
        <ele>701.756</ele>
        <time>2020-09-02T13:49:56Z</time>
      </trkpt>
      <trkpt lat="44.04563" lon="5.78655">
        <ele>702.275</ele>
        <time>2020-09-02T13:49:57Z</time>
      </trkpt>
      <trkpt lat="44.04565" lon="5.7868">
        <ele>703.375</ele>
        <time>2020-09-02T13:49:58Z</time>
      </trkpt>
      <trkpt lat="44.04568" lon="5.78704">
        <ele>704.222</ele>
        <time>2020-09-02T13:49:59Z</time>
      </trkpt>
      <trkpt lat="44.04571" lon="5.78728">
        <ele>705.293</ele>
        <time>2020-09-02T13:50:00Z</time>
      </trkpt>
      <trkpt lat="44.04573" lon="5.78752">
        <ele>705.971</ele>
        <time>2020-09-02T13:50:01Z</time>
      </trkpt>
      <trkpt lat="44.04574" lon="5.78775">
        <ele>706.467</ele>
        <time>2020-09-02T13:50:02Z</time>
      </trkpt>
      <trkpt lat="44.04576" lon="5.78798">
        <ele>707.47</ele>
        <time>2020-09-02T13:50:03Z</time>
      </trkpt>
      <trkpt lat="44.04576" lon="5.78819">
        <ele>708.378</ele>
        <time>2020-09-02T13:50:04Z</time>
      </trkpt>
      <trkpt lat="44.04575" lon="5.78841">
        <ele>707.133</ele>
        <time>2020-09-02T13:50:05Z</time>
      </trkpt>
      <trkpt lat="44.04572" lon="5.78861">
        <ele>707.226</ele>
        <time>2020-09-02T13:50:06Z</time>
      </trkpt>
      <trkpt lat="44.04568" lon="5.78882">
        <ele>707.208</ele>
        <time>2020-09-02T13:50:07Z</time>
      </trkpt>
      <trkpt lat="44.04564" lon="5.78903">
        <ele>707.585</ele>
        <time>2020-09-02T13:50:08Z</time>
      </trkpt>
      <trkpt lat="44.04559" lon="5.78924">
        <ele>707.594</ele>
        <time>2020-09-02T13:50:09Z</time>
      </trkpt>
      <trkpt lat="44.04555" lon="5.78946">
        <ele>707.694</ele>
        <time>2020-09-02T13:50:10Z</time>
      </trkpt>
      <trkpt lat="44.0455" lon="5.78968">
        <ele>708.081</ele>
        <time>2020-09-02T13:50:11Z</time>
      </trkpt>
      <trkpt lat="44.04546" lon="5.78991">
        <ele>708.222</ele>
        <time>2020-09-02T13:50:12Z</time>
      </trkpt>
      <trkpt lat="44.04544" lon="5.79013">
        <ele>708.25</ele>
        <time>2020-09-02T13:50:13Z</time>
      </trkpt>
      <trkpt lat="44.04541" lon="5.79036">
        <ele>708.156</ele>
        <time>2020-09-02T13:50:14Z</time>
      </trkpt>
      <trkpt lat="44.04539" lon="5.7906">
        <ele>707.999</ele>
        <time>2020-09-02T13:50:15Z</time>
      </trkpt>
      <trkpt lat="44.04539" lon="5.79083">
        <ele>708.258</ele>
        <time>2020-09-02T13:50:16Z</time>
      </trkpt>
      <trkpt lat="44.04541" lon="5.79105">
        <ele>708.552</ele>
        <time>2020-09-02T13:50:17Z</time>
      </trkpt>
      <trkpt lat="44.04544" lon="5.79128">
        <ele>708.817</ele>
        <time>2020-09-02T13:50:18Z</time>
      </trkpt>
      <trkpt lat="44.04549" lon="5.79149">
        <ele>709.208</ele>
        <time>2020-09-02T13:50:19Z</time>
      </trkpt>
      <trkpt lat="44.04554" lon="5.79172">
        <ele>709.783</ele>
        <time>2020-09-02T13:50:20Z</time>
      </trkpt>
      <trkpt lat="44.0456" lon="5.79193">
        <ele>710.462</ele>
        <time>2020-09-02T13:50:21Z</time>
      </trkpt>
      <trkpt lat="44.04566" lon="5.79215">
        <ele>710.962</ele>
        <time>2020-09-02T13:50:22Z</time>
      </trkpt>
      <trkpt lat="44.04573" lon="5.79237">
        <ele>710.639</ele>
        <time>2020-09-02T13:50:23Z</time>
      </trkpt>
      <trkpt lat="44.04579" lon="5.79259">
        <ele>710.62</ele>
        <time>2020-09-02T13:50:24Z</time>
      </trkpt>
      <trkpt lat="44.04584" lon="5.79283">
        <ele>710.368</ele>
        <time>2020-09-02T13:50:25Z</time>
      </trkpt>
      <trkpt lat="44.04591" lon="5.79307">
        <ele>710.284</ele>
        <time>2020-09-02T13:50:26Z</time>
      </trkpt>
      <trkpt lat="44.04597" lon="5.7933">
        <ele>709.557</ele>
        <time>2020-09-02T13:50:27Z</time>
      </trkpt>
      <trkpt lat="44.04603" lon="5.79354">
        <ele>709.673</ele>
        <time>2020-09-02T13:50:28Z</time>
      </trkpt>
      <trkpt lat="44.04607" lon="5.79377">
        <ele>709.085</ele>
        <time>2020-09-02T13:50:29Z</time>
      </trkpt>
      <trkpt lat="44.0461" lon="5.79401">
        <ele>707.913</ele>
        <time>2020-09-02T13:50:30Z</time>
      </trkpt>
      <trkpt lat="44.04607" lon="5.79424">
        <ele>707.608</ele>
        <time>2020-09-02T13:50:31Z</time>
      </trkpt>
      <trkpt lat="44.04602" lon="5.79447">
        <ele>707.455</ele>
        <time>2020-09-02T13:50:32Z</time>
      </trkpt>
      <trkpt lat="44.04597" lon="5.7947">
        <ele>707.164</ele>
        <time>2020-09-02T13:50:33Z</time>
      </trkpt>
      <trkpt lat="44.04595" lon="5.79495">
        <ele>706.694</ele>
        <time>2020-09-02T13:50:34Z</time>
      </trkpt>
      <trkpt lat="44.04596" lon="5.79519">
        <ele>705.611</ele>
        <time>2020-09-02T13:50:35Z</time>
      </trkpt>
      <trkpt lat="44.04598" lon="5.79544">
        <ele>705.162</ele>
        <time>2020-09-02T13:50:36Z</time>
      </trkpt>
      <trkpt lat="44.04601" lon="5.7957">
        <ele>704.33</ele>
        <time>2020-09-02T13:50:37Z</time>
      </trkpt>
      <trkpt lat="44.04607" lon="5.79595">
        <ele>703.356</ele>
        <time>2020-09-02T13:50:38Z</time>
      </trkpt>
      <trkpt lat="44.04614" lon="5.79621">
        <ele>702.239</ele>
        <time>2020-09-02T13:50:39Z</time>
      </trkpt>
      <trkpt lat="44.04622" lon="5.79649">
        <ele>701.585</ele>
        <time>2020-09-02T13:50:40Z</time>
      </trkpt>
      <trkpt lat="44.04629" lon="5.79675">
        <ele>700.889</ele>
        <time>2020-09-02T13:50:41Z</time>
      </trkpt>
      <trkpt lat="44.04636" lon="5.79703">
        <ele>700.417</ele>
        <time>2020-09-02T13:50:42Z</time>
      </trkpt>
      <trkpt lat="44.04641" lon="5.79731">
        <ele>699.808</ele>
        <time>2020-09-02T13:50:43Z</time>
      </trkpt>
      <trkpt lat="44.04645" lon="5.79761">
        <ele>699.676</ele>
        <time>2020-09-02T13:50:44Z</time>
      </trkpt>
      <trkpt lat="44.0465" lon="5.7979">
        <ele>699.925</ele>
        <time>2020-09-02T13:50:45Z</time>
      </trkpt>
      <trkpt lat="44.04655" lon="5.79819">
        <ele>699.815</ele>
        <time>2020-09-02T13:50:46Z</time>
      </trkpt>
      <trkpt lat="44.0466" lon="5.79848">
        <ele>700.062</ele>
        <time>2020-09-02T13:50:47Z</time>
      </trkpt>
      <trkpt lat="44.04665" lon="5.79876">
        <ele>700.443</ele>
        <time>2020-09-02T13:50:48Z</time>
      </trkpt>
      <trkpt lat="44.04668" lon="5.79903">
        <ele>700.061</ele>
        <time>2020-09-02T13:50:49Z</time>
      </trkpt>
      <trkpt lat="44.04672" lon="5.79932">
        <ele>700.147</ele>
        <time>2020-09-02T13:50:50Z</time>
      </trkpt>
      <trkpt lat="44.04674" lon="5.7996">
        <ele>699.78</ele>
        <time>2020-09-02T13:50:51Z</time>
      </trkpt>
      <trkpt lat="44.04677" lon="5.79988">
        <ele>700.146</ele>
        <time>2020-09-02T13:50:52Z</time>
      </trkpt>
      <trkpt lat="44.04681" lon="5.80016">
        <ele>700.488</ele>
        <time>2020-09-02T13:50:53Z</time>
      </trkpt>
      <trkpt lat="44.04684" lon="5.80043">
        <ele>700.616</ele>
        <time>2020-09-02T13:50:54Z</time>
      </trkpt>
      <trkpt lat="44.04687" lon="5.80071">
        <ele>701.108</ele>
        <time>2020-09-02T13:50:55Z</time>
      </trkpt>
      <trkpt lat="44.0469" lon="5.80099">
        <ele>701.592</ele>
        <time>2020-09-02T13:50:56Z</time>
      </trkpt>
      <trkpt lat="44.04696" lon="5.80127">
        <ele>701.641</ele>
        <time>2020-09-02T13:50:57Z</time>
      </trkpt>
      <trkpt lat="44.04703" lon="5.80154">
        <ele>701.471</ele>
        <time>2020-09-02T13:50:58Z</time>
      </trkpt>
      <trkpt lat="44.0471" lon="5.80182">
        <ele>701.138</ele>
        <time>2020-09-02T13:50:59Z</time>
      </trkpt>
      <trkpt lat="44.04718" lon="5.80209">
        <ele>700.949</ele>
        <time>2020-09-02T13:51:00Z</time>
      </trkpt>
      <trkpt lat="44.04726" lon="5.80235">
        <ele>700.187</ele>
        <time>2020-09-02T13:51:01Z</time>
      </trkpt>
      <trkpt lat="44.04736" lon="5.8026">
        <ele>699.753</ele>
        <time>2020-09-02T13:51:02Z</time>
      </trkpt>
      <trkpt lat="44.04747" lon="5.80282">
        <ele>698.626</ele>
        <time>2020-09-02T13:51:03Z</time>
      </trkpt>
      <trkpt lat="44.04758" lon="5.80304">
        <ele>698.168</ele>
        <time>2020-09-02T13:51:04Z</time>
      </trkpt>
      <trkpt lat="44.04769" lon="5.80324">
        <ele>697.442</ele>
        <time>2020-09-02T13:51:05Z</time>
      </trkpt>
      <trkpt lat="44.04777" lon="5.80346">
        <ele>696.426</ele>
        <time>2020-09-02T13:51:06Z</time>
      </trkpt>
      <trkpt lat="44.04783" lon="5.80371">
        <ele>695.908</ele>
        <time>2020-09-02T13:51:07Z</time>
      </trkpt>
      <trkpt lat="44.04785" lon="5.80397">
        <ele>696.494</ele>
        <time>2020-09-02T13:51:08Z</time>
      </trkpt>
      <trkpt lat="44.04787" lon="5.80424">
        <ele>696.733</ele>
        <time>2020-09-02T13:51:09Z</time>
      </trkpt>
      <trkpt lat="44.04787" lon="5.80449">
        <ele>696.813</ele>
        <time>2020-09-02T13:51:10Z</time>
      </trkpt>
      <trkpt lat="44.0479" lon="5.80472">
        <ele>696.89</ele>
        <time>2020-09-02T13:51:11Z</time>
      </trkpt>
      <trkpt lat="44.04796" lon="5.80493">
        <ele>697.181</ele>
        <time>2020-09-02T13:51:12Z</time>
      </trkpt>
      <trkpt lat="44.04807" lon="5.80515">
        <ele>697.119</ele>
        <time>2020-09-02T13:51:13Z</time>
      </trkpt>
      <trkpt lat="44.04819" lon="5.80533">
        <ele>697.115</ele>
        <time>2020-09-02T13:51:14Z</time>
      </trkpt>
      <trkpt lat="44.0483" lon="5.80552">
        <ele>696.328</ele>
        <time>2020-09-02T13:51:15Z</time>
      </trkpt>
      <trkpt lat="44.04843" lon="5.80568">
        <ele>696.174</ele>
        <time>2020-09-02T13:51:16Z</time>
      </trkpt>
      <trkpt lat="44.04857" lon="5.8058">
        <ele>697.156</ele>
        <time>2020-09-02T13:51:17Z</time>
      </trkpt>
      <trkpt lat="44.04872" lon="5.80592">
        <ele>698.121</ele>
        <time>2020-09-02T13:51:18Z</time>
      </trkpt>
      <trkpt lat="44.04889" lon="5.80603">
        <ele>698.008</ele>
        <time>2020-09-02T13:51:19Z</time>
      </trkpt>
      <trkpt lat="44.04905" lon="5.80614">
        <ele>698.555</ele>
        <time>2020-09-02T13:51:20Z</time>
      </trkpt>
      <trkpt lat="44.04922" lon="5.80626">
        <ele>698.454</ele>
        <time>2020-09-02T13:51:21Z</time>
      </trkpt>
      <trkpt lat="44.04939" lon="5.80636">
        <ele>698.284</ele>
        <time>2020-09-02T13:51:22Z</time>
      </trkpt>
      <trkpt lat="44.04957" lon="5.80645">
        <ele>698.651</ele>
        <time>2020-09-02T13:51:23Z</time>
      </trkpt>
      <trkpt lat="44.04976" lon="5.80652">
        <ele>699.032</ele>
        <time>2020-09-02T13:51:24Z</time>
      </trkpt>
      <trkpt lat="44.04995" lon="5.80661">
        <ele>699.08</ele>
        <time>2020-09-02T13:51:25Z</time>
      </trkpt>
      <trkpt lat="44.05015" lon="5.8067">
        <ele>700.176</ele>
        <time>2020-09-02T13:51:26Z</time>
      </trkpt>
      <trkpt lat="44.05034" lon="5.80682">
        <ele>700.579</ele>
        <time>2020-09-02T13:51:27Z</time>
      </trkpt>
      <trkpt lat="44.05052" lon="5.80696">
        <ele>701.034</ele>
        <time>2020-09-02T13:51:28Z</time>
      </trkpt>
      <trkpt lat="44.05071" lon="5.8071">
        <ele>702.155</ele>
        <time>2020-09-02T13:51:29Z</time>
      </trkpt>
      <trkpt lat="44.0509" lon="5.80724">
        <ele>702.01</ele>
        <time>2020-09-02T13:51:30Z</time>
      </trkpt>
      <trkpt lat="44.05108" lon="5.80738">
        <ele>702.508</ele>
        <time>2020-09-02T13:51:31Z</time>
      </trkpt>
      <trkpt lat="44.05128" lon="5.80752">
        <ele>702.881</ele>
        <time>2020-09-02T13:51:32Z</time>
      </trkpt>
      <trkpt lat="44.05147" lon="5.80765">
        <ele>702.99</ele>
        <time>2020-09-02T13:51:33Z</time>
      </trkpt>
      <trkpt lat="44.05166" lon="5.80779">
        <ele>702.71</ele>
        <time>2020-09-02T13:51:34Z</time>
      </trkpt>
      <trkpt lat="44.05184" lon="5.80792">
        <ele>703.057</ele>
        <time>2020-09-02T13:51:35Z</time>
      </trkpt>
      <trkpt lat="44.05202" lon="5.80805">
        <ele>703.338</ele>
        <time>2020-09-02T13:51:36Z</time>
      </trkpt>
      <trkpt lat="44.05219" lon="5.80818">
        <ele>703.656</ele>
        <time>2020-09-02T13:51:37Z</time>
      </trkpt>
      <trkpt lat="44.05235" lon="5.80833">
        <ele>703.972</ele>
        <time>2020-09-02T13:51:38Z</time>
      </trkpt>
      <trkpt lat="44.05251" lon="5.80852">
        <ele>704.155</ele>
        <time>2020-09-02T13:51:39Z</time>
      </trkpt>
      <trkpt lat="44.05265" lon="5.80872">
        <ele>704.348</ele>
        <time>2020-09-02T13:51:40Z</time>
      </trkpt>
      <trkpt lat="44.0528" lon="5.80893">
        <ele>704.261</ele>
        <time>2020-09-02T13:51:41Z</time>
      </trkpt>
      <trkpt lat="44.05294" lon="5.80912">
        <ele>703.717</ele>
        <time>2020-09-02T13:51:42Z</time>
      </trkpt>
      <trkpt lat="44.0531" lon="5.8093">
        <ele>702.908</ele>
        <time>2020-09-02T13:51:43Z</time>
      </trkpt>
      <trkpt lat="44.05325" lon="5.80949">
        <ele>703.642</ele>
        <time>2020-09-02T13:51:44Z</time>
      </trkpt>
      <trkpt lat="44.0534" lon="5.80967">
        <ele>704.821</ele>
        <time>2020-09-02T13:51:45Z</time>
      </trkpt>
      <trkpt lat="44.05356" lon="5.80983">
        <ele>707.421</ele>
        <time>2020-09-02T13:51:46Z</time>
      </trkpt>
      <trkpt lat="44.0537" lon="5.80999">
        <ele>707.788</ele>
        <time>2020-09-02T13:51:47Z</time>
      </trkpt>
      <trkpt lat="44.05383" lon="5.81016">
        <ele>707.449</ele>
        <time>2020-09-02T13:51:48Z</time>
      </trkpt>
      <trkpt lat="44.05395" lon="5.81035">
        <ele>707.237</ele>
        <time>2020-09-02T13:51:49Z</time>
      </trkpt>
      <trkpt lat="44.05406" lon="5.81052">
        <ele>707.273</ele>
        <time>2020-09-02T13:51:50Z</time>
      </trkpt>
      <trkpt lat="44.05415" lon="5.8107">
        <ele>707.136</ele>
        <time>2020-09-02T13:51:51Z</time>
      </trkpt>
      <trkpt lat="44.05423" lon="5.81087">
        <ele>707.695</ele>
        <time>2020-09-02T13:51:52Z</time>
      </trkpt>
      <trkpt lat="44.05432" lon="5.81101">
        <ele>708.249</ele>
        <time>2020-09-02T13:51:53Z</time>
      </trkpt>
      <trkpt lat="44.05441" lon="5.81115">
        <ele>707.123</ele>
        <time>2020-09-02T13:51:54Z</time>
      </trkpt>
      <trkpt lat="44.05452" lon="5.81127">
        <ele>706.808</ele>
        <time>2020-09-02T13:51:55Z</time>
      </trkpt>
      <trkpt lat="44.05463" lon="5.81137">
        <ele>706.987</ele>
        <time>2020-09-02T13:51:56Z</time>
      </trkpt>
      <trkpt lat="44.05475" lon="5.81147">
        <ele>706.986</ele>
        <time>2020-09-02T13:51:57Z</time>
      </trkpt>
      <trkpt lat="44.05486" lon="5.81158">
        <ele>707.196</ele>
        <time>2020-09-02T13:51:58Z</time>
      </trkpt>
      <trkpt lat="44.05497" lon="5.81172">
        <ele>707.093</ele>
        <time>2020-09-02T13:51:59Z</time>
      </trkpt>
      <trkpt lat="44.05505" lon="5.81186">
        <ele>706.354</ele>
        <time>2020-09-02T13:52:00Z</time>
      </trkpt>
      <trkpt lat="44.05514" lon="5.81203">
        <ele>705.852</ele>
        <time>2020-09-02T13:52:01Z</time>
      </trkpt>
      <trkpt lat="44.0552" lon="5.8122">
        <ele>706.318</ele>
        <time>2020-09-02T13:52:02Z</time>
      </trkpt>
      <trkpt lat="44.05526" lon="5.81238">
        <ele>705.971</ele>
        <time>2020-09-02T13:52:03Z</time>
      </trkpt>
      <trkpt lat="44.0553" lon="5.81256">
        <ele>705.871</ele>
        <time>2020-09-02T13:52:04Z</time>
      </trkpt>
      <trkpt lat="44.05536" lon="5.81272">
        <ele>705.641</ele>
        <time>2020-09-02T13:52:05Z</time>
      </trkpt>
      <trkpt lat="44.05542" lon="5.81288">
        <ele>705.615</ele>
        <time>2020-09-02T13:52:06Z</time>
      </trkpt>
      <trkpt lat="44.0555" lon="5.81303">
        <ele>705.808</ele>
        <time>2020-09-02T13:52:07Z</time>
      </trkpt>
      <trkpt lat="44.05561" lon="5.81317">
        <ele>705.085</ele>
        <time>2020-09-02T13:52:08Z</time>
      </trkpt>
      <trkpt lat="44.0557" lon="5.81329">
        <ele>705.094</ele>
        <time>2020-09-02T13:52:09Z</time>
      </trkpt>
      <trkpt lat="44.05579" lon="5.81341">
        <ele>704.234</ele>
        <time>2020-09-02T13:52:10Z</time>
      </trkpt>
      <trkpt lat="44.05589" lon="5.81354">
        <ele>703.821</ele>
        <time>2020-09-02T13:52:11Z</time>
      </trkpt>
      <trkpt lat="44.05599" lon="5.81369">
        <ele>703.452</ele>
        <time>2020-09-02T13:52:12Z</time>
      </trkpt>
      <trkpt lat="44.05608" lon="5.81382">
        <ele>703.09</ele>
        <time>2020-09-02T13:52:13Z</time>
      </trkpt>
      <trkpt lat="44.05618" lon="5.81397">
        <ele>703.256</ele>
        <time>2020-09-02T13:52:14Z</time>
      </trkpt>
      <trkpt lat="44.05628" lon="5.81412">
        <ele>702.429</ele>
        <time>2020-09-02T13:52:15Z</time>
      </trkpt>
      <trkpt lat="44.05637" lon="5.81424">
        <ele>702.386</ele>
        <time>2020-09-02T13:52:16Z</time>
      </trkpt>
      <trkpt lat="44.05647" lon="5.81436">
        <ele>702.46</ele>
        <time>2020-09-02T13:52:17Z</time>
      </trkpt>
      <trkpt lat="44.05657" lon="5.81447">
        <ele>702.526</ele>
        <time>2020-09-02T13:52:18Z</time>
      </trkpt>
      <trkpt lat="44.05669" lon="5.81457">
        <ele>702.608</ele>
        <time>2020-09-02T13:52:19Z</time>
      </trkpt>
      <trkpt lat="44.05683" lon="5.81466">
        <ele>703.186</ele>
        <time>2020-09-02T13:52:20Z</time>
      </trkpt>
      <trkpt lat="44.05697" lon="5.81473">
        <ele>703.315</ele>
        <time>2020-09-02T13:52:21Z</time>
      </trkpt>
      <trkpt lat="44.05712" lon="5.8148">
        <ele>703.175</ele>
        <time>2020-09-02T13:52:22Z</time>
      </trkpt>
      <trkpt lat="44.05722" lon="5.81494">
        <ele>703.222</ele>
        <time>2020-09-02T13:52:23Z</time>
      </trkpt>
      <trkpt lat="44.05732" lon="5.81511">
        <ele>701.753</ele>
        <time>2020-09-02T13:52:24Z</time>
      </trkpt>
      <trkpt lat="44.05741" lon="5.81531">
        <ele>700.961</ele>
        <time>2020-09-02T13:52:25Z</time>
      </trkpt>
      <trkpt lat="44.05749" lon="5.81553">
        <ele>701.467</ele>
        <time>2020-09-02T13:52:26Z</time>
      </trkpt>
      <trkpt lat="44.05758" lon="5.81575">
        <ele>701.65</ele>
        <time>2020-09-02T13:52:27Z</time>
      </trkpt>
      <trkpt lat="44.05767" lon="5.816">
        <ele>702.198</ele>
        <time>2020-09-02T13:52:28Z</time>
      </trkpt>
      <trkpt lat="44.05776" lon="5.81624">
        <ele>703.415</ele>
        <time>2020-09-02T13:52:29Z</time>
      </trkpt>
      <trkpt lat="44.05785" lon="5.81649">
        <ele>704.626</ele>
        <time>2020-09-02T13:52:30Z</time>
      </trkpt>
      <trkpt lat="44.05795" lon="5.81673">
        <ele>705.808</ele>
        <time>2020-09-02T13:52:31Z</time>
      </trkpt>
      <trkpt lat="44.05804" lon="5.81698">
        <ele>706.017</ele>
        <time>2020-09-02T13:52:32Z</time>
      </trkpt>
      <trkpt lat="44.05815" lon="5.81724">
        <ele>706.516</ele>
        <time>2020-09-02T13:52:33Z</time>
      </trkpt>
      <trkpt lat="44.05824" lon="5.81749">
        <ele>707.936</ele>
        <time>2020-09-02T13:52:34Z</time>
      </trkpt>
      <trkpt lat="44.05834" lon="5.81776">
        <ele>708.173</ele>
        <time>2020-09-02T13:52:35Z</time>
      </trkpt>
      <trkpt lat="44.05842" lon="5.81805">
        <ele>707.994</ele>
        <time>2020-09-02T13:52:36Z</time>
      </trkpt>
      <trkpt lat="44.05851" lon="5.81833">
        <ele>709.482</ele>
        <time>2020-09-02T13:52:37Z</time>
      </trkpt>
      <trkpt lat="44.05859" lon="5.81861">
        <ele>710.148</ele>
        <time>2020-09-02T13:52:38Z</time>
      </trkpt>
      <trkpt lat="44.05867" lon="5.81887">
        <ele>711.841</ele>
        <time>2020-09-02T13:52:39Z</time>
      </trkpt>
      <trkpt lat="44.05875" lon="5.81913">
        <ele>712.686</ele>
        <time>2020-09-02T13:52:40Z</time>
      </trkpt>
      <trkpt lat="44.05883" lon="5.81937">
        <ele>713.86</ele>
        <time>2020-09-02T13:52:41Z</time>
      </trkpt>
      <trkpt lat="44.05891" lon="5.8196">
        <ele>715.626</ele>
        <time>2020-09-02T13:52:42Z</time>
      </trkpt>
      <trkpt lat="44.05899" lon="5.81984">
        <ele>715.608</ele>
        <time>2020-09-02T13:52:43Z</time>
      </trkpt>
      <trkpt lat="44.05907" lon="5.82007">
        <ele>716.046</ele>
        <time>2020-09-02T13:52:44Z</time>
      </trkpt>
      <trkpt lat="44.05916" lon="5.82031">
        <ele>716.195</ele>
        <time>2020-09-02T13:52:45Z</time>
      </trkpt>
      <trkpt lat="44.05924" lon="5.82056">
        <ele>715.985</ele>
        <time>2020-09-02T13:52:46Z</time>
      </trkpt>
      <trkpt lat="44.05933" lon="5.8208">
        <ele>715.842</ele>
        <time>2020-09-02T13:52:47Z</time>
      </trkpt>
      <trkpt lat="44.05941" lon="5.82104">
        <ele>715.833</ele>
        <time>2020-09-02T13:52:48Z</time>
      </trkpt>
      <trkpt lat="44.05948" lon="5.82126">
        <ele>716.541</ele>
        <time>2020-09-02T13:52:49Z</time>
      </trkpt>
      <trkpt lat="44.05957" lon="5.82148">
        <ele>717.187</ele>
        <time>2020-09-02T13:52:50Z</time>
      </trkpt>
      <trkpt lat="44.05965" lon="5.82169">
        <ele>717.34</ele>
        <time>2020-09-02T13:52:51Z</time>
      </trkpt>
      <trkpt lat="44.05974" lon="5.82189">
        <ele>717.286</ele>
        <time>2020-09-02T13:52:52Z</time>
      </trkpt>
      <trkpt lat="44.05983" lon="5.82206">
        <ele>717.56</ele>
        <time>2020-09-02T13:52:53Z</time>
      </trkpt>
      <trkpt lat="44.05997" lon="5.82221">
        <ele>716.826</ele>
        <time>2020-09-02T13:52:54Z</time>
      </trkpt>
      <trkpt lat="44.06005" lon="5.82243">
        <ele>716.008</ele>
        <time>2020-09-02T13:52:55Z</time>
      </trkpt>
      <trkpt lat="44.06011" lon="5.82268">
        <ele>715.766</ele>
        <time>2020-09-02T13:52:56Z</time>
      </trkpt>
      <trkpt lat="44.06016" lon="5.82295">
        <ele>715.875</ele>
        <time>2020-09-02T13:52:57Z</time>
      </trkpt>
      <trkpt lat="44.06018" lon="5.82324">
        <ele>714.955</ele>
        <time>2020-09-02T13:52:58Z</time>
      </trkpt>
      <trkpt lat="44.06023" lon="5.82355">
        <ele>714.452</ele>
        <time>2020-09-02T13:52:59Z</time>
      </trkpt>
      <trkpt lat="44.06027" lon="5.82386">
        <ele>713.793</ele>
        <time>2020-09-02T13:53:00Z</time>
      </trkpt>
      <trkpt lat="44.06032" lon="5.82417">
        <ele>713.361</ele>
        <time>2020-09-02T13:53:01Z</time>
      </trkpt>
      <trkpt lat="44.06037" lon="5.82447">
        <ele>713.437</ele>
        <time>2020-09-02T13:53:02Z</time>
      </trkpt>
      <trkpt lat="44.06043" lon="5.82477">
        <ele>712.76</ele>
        <time>2020-09-02T13:53:03Z</time>
      </trkpt>
      <trkpt lat="44.06048" lon="5.82506">
        <ele>713.048</ele>
        <time>2020-09-02T13:53:04Z</time>
      </trkpt>
      <trkpt lat="44.06054" lon="5.82534">
        <ele>713.461</ele>
        <time>2020-09-02T13:53:05Z</time>
      </trkpt>
      <trkpt lat="44.06058" lon="5.82562">
        <ele>714.417</ele>
        <time>2020-09-02T13:53:06Z</time>
      </trkpt>
      <trkpt lat="44.06063" lon="5.8259">
        <ele>714.508</ele>
        <time>2020-09-02T13:53:07Z</time>
      </trkpt>
      <trkpt lat="44.0607" lon="5.82618">
        <ele>714.652</ele>
        <time>2020-09-02T13:53:08Z</time>
      </trkpt>
      <trkpt lat="44.06076" lon="5.82646">
        <ele>715.021</ele>
        <time>2020-09-02T13:53:09Z</time>
      </trkpt>
      <trkpt lat="44.06082" lon="5.82674">
        <ele>715.171</ele>
        <time>2020-09-02T13:53:10Z</time>
      </trkpt>
      <trkpt lat="44.06088" lon="5.82702">
        <ele>715.348</ele>
        <time>2020-09-02T13:53:11Z</time>
      </trkpt>
      <trkpt lat="44.06095" lon="5.82731">
        <ele>715.569</ele>
        <time>2020-09-02T13:53:12Z</time>
      </trkpt>
      <trkpt lat="44.06102" lon="5.82759">
        <ele>715.347</ele>
        <time>2020-09-02T13:53:13Z</time>
      </trkpt>
      <trkpt lat="44.06109" lon="5.82788">
        <ele>715.473</ele>
        <time>2020-09-02T13:53:14Z</time>
      </trkpt>
      <trkpt lat="44.06115" lon="5.82816">
        <ele>715.356</ele>
        <time>2020-09-02T13:53:15Z</time>
      </trkpt>
      <trkpt lat="44.06121" lon="5.82844">
        <ele>715.531</ele>
        <time>2020-09-02T13:53:16Z</time>
      </trkpt>
      <trkpt lat="44.06127" lon="5.82873">
        <ele>715.761</ele>
        <time>2020-09-02T13:53:17Z</time>
      </trkpt>
      <trkpt lat="44.06134" lon="5.829">
        <ele>715.807</ele>
        <time>2020-09-02T13:53:18Z</time>
      </trkpt>
      <trkpt lat="44.0614" lon="5.82929">
        <ele>715.708</ele>
        <time>2020-09-02T13:53:19Z</time>
      </trkpt>
      <trkpt lat="44.06147" lon="5.82957">
        <ele>715.911</ele>
        <time>2020-09-02T13:53:20Z</time>
      </trkpt>
      <trkpt lat="44.06154" lon="5.82984">
        <ele>715.98</ele>
        <time>2020-09-02T13:53:21Z</time>
      </trkpt>
      <trkpt lat="44.0616" lon="5.83012">
        <ele>715.91</ele>
        <time>2020-09-02T13:53:22Z</time>
      </trkpt>
      <trkpt lat="44.06168" lon="5.83041">
        <ele>715.747</ele>
        <time>2020-09-02T13:53:23Z</time>
      </trkpt>
      <trkpt lat="44.06175" lon="5.83068">
        <ele>714.868</ele>
        <time>2020-09-02T13:53:24Z</time>
      </trkpt>
      <trkpt lat="44.06182" lon="5.83097">
        <ele>714.386</ele>
        <time>2020-09-02T13:53:25Z</time>
      </trkpt>
      <trkpt lat="44.06188" lon="5.83126">
        <ele>713.622</ele>
        <time>2020-09-02T13:53:26Z</time>
      </trkpt>
      <trkpt lat="44.06193" lon="5.83155">
        <ele>713.375</ele>
        <time>2020-09-02T13:53:27Z</time>
      </trkpt>
      <trkpt lat="44.06198" lon="5.83182">
        <ele>712.931</ele>
        <time>2020-09-02T13:53:28Z</time>
      </trkpt>
      <trkpt lat="44.06203" lon="5.83208">
        <ele>712.861</ele>
        <time>2020-09-02T13:53:29Z</time>
      </trkpt>
      <trkpt lat="44.06207" lon="5.83233">
        <ele>712.607</ele>
        <time>2020-09-02T13:53:30Z</time>
      </trkpt>
      <trkpt lat="44.06211" lon="5.83256">
        <ele>713.208</ele>
        <time>2020-09-02T13:53:31Z</time>
      </trkpt>
      <trkpt lat="44.06214" lon="5.83277">
        <ele>713.111</ele>
        <time>2020-09-02T13:53:32Z</time>
      </trkpt>
      <trkpt lat="44.06217" lon="5.83297">
        <ele>712.61</ele>
        <time>2020-09-02T13:53:33Z</time>
      </trkpt>
      <trkpt lat="44.0622" lon="5.83316">
        <ele>712.25</ele>
        <time>2020-09-02T13:53:34Z</time>
      </trkpt>
      <trkpt lat="44.06222" lon="5.83334">
        <ele>711.817</ele>
        <time>2020-09-02T13:53:35Z</time>
      </trkpt>
      <trkpt lat="44.06225" lon="5.83351">
        <ele>711.288</ele>
        <time>2020-09-02T13:53:36Z</time>
      </trkpt>
      <trkpt lat="44.06228" lon="5.83367">
        <ele>711.016</ele>
        <time>2020-09-02T13:53:37Z</time>
      </trkpt>
      <trkpt lat="44.0623" lon="5.83382">
        <ele>710.472</ele>
        <time>2020-09-02T13:53:38Z</time>
      </trkpt>
      <trkpt lat="44.06232" lon="5.83396">
        <ele>710.115</ele>
        <time>2020-09-02T13:53:39Z</time>
      </trkpt>
      <trkpt lat="44.06234" lon="5.8341">
        <ele>710.089</ele>
        <time>2020-09-02T13:53:40Z</time>
      </trkpt>
      <trkpt lat="44.06236" lon="5.83422">
        <ele>710.006</ele>
        <time>2020-09-02T13:53:41Z</time>
      </trkpt>
      <trkpt lat="44.06238" lon="5.83435">
        <ele>709.826</ele>
        <time>2020-09-02T13:53:42Z</time>
      </trkpt>
      <trkpt lat="44.0624" lon="5.83447">
        <ele>709.908</ele>
        <time>2020-09-02T13:53:43Z</time>
      </trkpt>
      <trkpt lat="44.06242" lon="5.83459">
        <ele>710.396</ele>
        <time>2020-09-02T13:53:44Z</time>
      </trkpt>
      <trkpt lat="44.06243" lon="5.8347">
        <ele>710.635</ele>
        <time>2020-09-02T13:53:45Z</time>
      </trkpt>
      <trkpt lat="44.06244" lon="5.83483">
        <ele>710.875</ele>
        <time>2020-09-02T13:53:46Z</time>
      </trkpt>
      <trkpt lat="44.06247" lon="5.83494">
        <ele>711.482</ele>
        <time>2020-09-02T13:53:47Z</time>
      </trkpt>
      <trkpt lat="44.06249" lon="5.83508">
        <ele>711.773</ele>
        <time>2020-09-02T13:53:48Z</time>
      </trkpt>
      <trkpt lat="44.06252" lon="5.8352">
        <ele>712.011</ele>
        <time>2020-09-02T13:53:49Z</time>
      </trkpt>
      <trkpt lat="44.06253" lon="5.83533">
        <ele>712.747</ele>
        <time>2020-09-02T13:53:50Z</time>
      </trkpt>
      <trkpt lat="44.06258" lon="5.83546">
        <ele>712.81</ele>
        <time>2020-09-02T13:53:51Z</time>
      </trkpt>
      <trkpt lat="44.06262" lon="5.83558">
        <ele>713.128</ele>
        <time>2020-09-02T13:53:52Z</time>
      </trkpt>
      <trkpt lat="44.06269" lon="5.83571">
        <ele>713.489</ele>
        <time>2020-09-02T13:53:53Z</time>
      </trkpt>
      <trkpt lat="44.06274" lon="5.83583">
        <ele>713.217</ele>
        <time>2020-09-02T13:53:54Z</time>
      </trkpt>
      <trkpt lat="44.06278" lon="5.83597">
        <ele>713.608</ele>
        <time>2020-09-02T13:53:55Z</time>
      </trkpt>
      <trkpt lat="44.06283" lon="5.83611">
        <ele>713.52</ele>
        <time>2020-09-02T13:53:56Z</time>
      </trkpt>
      <trkpt lat="44.06286" lon="5.83624">
        <ele>713.769</ele>
        <time>2020-09-02T13:53:57Z</time>
      </trkpt>
      <trkpt lat="44.0629" lon="5.83637">
        <ele>713.629</ele>
        <time>2020-09-02T13:53:58Z</time>
      </trkpt>
      <trkpt lat="44.06294" lon="5.8365">
        <ele>713.246</ele>
        <time>2020-09-02T13:53:59Z</time>
      </trkpt>
      <trkpt lat="44.06297" lon="5.83663">
        <ele>713.367</ele>
        <time>2020-09-02T13:54:00Z</time>
      </trkpt>
      <trkpt lat="44.063" lon="5.83677">
        <ele>713.655</ele>
        <time>2020-09-02T13:54:01Z</time>
      </trkpt>
      <trkpt lat="44.06303" lon="5.83691">
        <ele>713.671</ele>
        <time>2020-09-02T13:54:02Z</time>
      </trkpt>
      <trkpt lat="44.06305" lon="5.83706">
        <ele>713.224</ele>
        <time>2020-09-02T13:54:03Z</time>
      </trkpt>
      <trkpt lat="44.06307" lon="5.83722">
        <ele>713.031</ele>
        <time>2020-09-02T13:54:04Z</time>
      </trkpt>
      <trkpt lat="44.06309" lon="5.83739">
        <ele>712.761</ele>
        <time>2020-09-02T13:54:05Z</time>
      </trkpt>
      <trkpt lat="44.0631" lon="5.83758">
        <ele>712.607</ele>
        <time>2020-09-02T13:54:06Z</time>
      </trkpt>
      <trkpt lat="44.06311" lon="5.8378">
        <ele>711.408</ele>
        <time>2020-09-02T13:54:07Z</time>
      </trkpt>
      <trkpt lat="44.06313" lon="5.83799">
        <ele>711.551</ele>
        <time>2020-09-02T13:54:08Z</time>
      </trkpt>
      <trkpt lat="44.06316" lon="5.83817">
        <ele>711.16</ele>
        <time>2020-09-02T13:54:09Z</time>
      </trkpt>
      <trkpt lat="44.0632" lon="5.83834">
        <ele>711.03</ele>
        <time>2020-09-02T13:54:10Z</time>
      </trkpt>
      <trkpt lat="44.06324" lon="5.8385">
        <ele>710.517</ele>
        <time>2020-09-02T13:54:11Z</time>
      </trkpt>
      <trkpt lat="44.06326" lon="5.83867">
        <ele>711.058</ele>
        <time>2020-09-02T13:54:12Z</time>
      </trkpt>
      <trkpt lat="44.06328" lon="5.83883">
        <ele>711.616</ele>
        <time>2020-09-02T13:54:13Z</time>
      </trkpt>
      <trkpt lat="44.0633" lon="5.839">
        <ele>712.782</ele>
        <time>2020-09-02T13:54:14Z</time>
      </trkpt>
      <trkpt lat="44.06331" lon="5.83916">
        <ele>712.945</ele>
        <time>2020-09-02T13:54:15Z</time>
      </trkpt>
      <trkpt lat="44.06331" lon="5.83934">
        <ele>712.896</ele>
        <time>2020-09-02T13:54:16Z</time>
      </trkpt>
      <trkpt lat="44.06328" lon="5.83952">
        <ele>713.031</ele>
        <time>2020-09-02T13:54:17Z</time>
      </trkpt>
      <trkpt lat="44.06325" lon="5.8397">
        <ele>713.824</ele>
        <time>2020-09-02T13:54:18Z</time>
      </trkpt>
      <trkpt lat="44.06323" lon="5.83989">
        <ele>714.008</ele>
        <time>2020-09-02T13:54:19Z</time>
      </trkpt>
      <trkpt lat="44.0632" lon="5.84009">
        <ele>714.147</ele>
        <time>2020-09-02T13:54:20Z</time>
      </trkpt>
      <trkpt lat="44.06317" lon="5.84029">
        <ele>714.156</ele>
        <time>2020-09-02T13:54:21Z</time>
      </trkpt>
      <trkpt lat="44.06316" lon="5.84049">
        <ele>713.936</ele>
        <time>2020-09-02T13:54:22Z</time>
      </trkpt>
      <trkpt lat="44.06313" lon="5.84069">
        <ele>713.283</ele>
        <time>2020-09-02T13:54:23Z</time>
      </trkpt>
      <trkpt lat="44.0631" lon="5.84091">
        <ele>713.114</ele>
        <time>2020-09-02T13:54:24Z</time>
      </trkpt>
      <trkpt lat="44.06308" lon="5.84112">
        <ele>713.712</ele>
        <time>2020-09-02T13:54:25Z</time>
      </trkpt>
      <trkpt lat="44.06305" lon="5.84135">
        <ele>713.778</ele>
        <time>2020-09-02T13:54:26Z</time>
      </trkpt>
      <trkpt lat="44.06301" lon="5.84158">
        <ele>713.191</ele>
        <time>2020-09-02T13:54:27Z</time>
      </trkpt>
      <trkpt lat="44.06296" lon="5.84183">
        <ele>712.661</ele>
        <time>2020-09-02T13:54:28Z</time>
      </trkpt>
      <trkpt lat="44.06291" lon="5.84208">
        <ele>711.921</ele>
        <time>2020-09-02T13:54:29Z</time>
      </trkpt>
      <trkpt lat="44.06285" lon="5.84233">
        <ele>712.313</ele>
        <time>2020-09-02T13:54:30Z</time>
      </trkpt>
      <trkpt lat="44.06279" lon="5.84259">
        <ele>712.108</ele>
        <time>2020-09-02T13:54:31Z</time>
      </trkpt>
      <trkpt lat="44.06274" lon="5.84285">
        <ele>712.034</ele>
        <time>2020-09-02T13:54:32Z</time>
      </trkpt>
      <trkpt lat="44.06269" lon="5.84311">
        <ele>712.473</ele>
        <time>2020-09-02T13:54:33Z</time>
      </trkpt>
      <trkpt lat="44.06264" lon="5.84337">
        <ele>712.163</ele>
        <time>2020-09-02T13:54:34Z</time>
      </trkpt>
      <trkpt lat="44.06258" lon="5.84364">
        <ele>712.27</ele>
        <time>2020-09-02T13:54:35Z</time>
      </trkpt>
      <trkpt lat="44.06254" lon="5.84389">
        <ele>712.471</ele>
        <time>2020-09-02T13:54:36Z</time>
      </trkpt>
      <trkpt lat="44.06252" lon="5.84413">
        <ele>712.239</ele>
        <time>2020-09-02T13:54:37Z</time>
      </trkpt>
      <trkpt lat="44.06252" lon="5.84436">
        <ele>712.575</ele>
        <time>2020-09-02T13:54:38Z</time>
      </trkpt>
      <trkpt lat="44.06256" lon="5.84459">
        <ele>713.318</ele>
        <time>2020-09-02T13:54:39Z</time>
      </trkpt>
      <trkpt lat="44.06263" lon="5.84483">
        <ele>713.823</ele>
        <time>2020-09-02T13:54:40Z</time>
      </trkpt>
      <trkpt lat="44.06271" lon="5.84507">
        <ele>713.883</ele>
        <time>2020-09-02T13:54:41Z</time>
      </trkpt>
      <trkpt lat="44.06279" lon="5.84531">
        <ele>713.711</ele>
        <time>2020-09-02T13:54:42Z</time>
      </trkpt>
      <trkpt lat="44.06288" lon="5.84554">
        <ele>713.208</ele>
        <time>2020-09-02T13:54:43Z</time>
      </trkpt>
      <trkpt lat="44.06297" lon="5.84577">
        <ele>712.59</ele>
        <time>2020-09-02T13:54:44Z</time>
      </trkpt>
      <trkpt lat="44.06305" lon="5.846">
        <ele>713.169</ele>
        <time>2020-09-02T13:54:45Z</time>
      </trkpt>
      <trkpt lat="44.06299" lon="5.84626">
        <ele>713.379</ele>
        <time>2020-09-02T13:54:46Z</time>
      </trkpt>
      <trkpt lat="44.06296" lon="5.84653">
        <ele>713.236</ele>
        <time>2020-09-02T13:54:47Z</time>
      </trkpt>
      <trkpt lat="44.06295" lon="5.84679">
        <ele>712.727</ele>
        <time>2020-09-02T13:54:48Z</time>
      </trkpt>
      <trkpt lat="44.06293" lon="5.84704">
        <ele>713.235</ele>
        <time>2020-09-02T13:54:49Z</time>
      </trkpt>
      <trkpt lat="44.06293" lon="5.8473">
        <ele>713.751</ele>
        <time>2020-09-02T13:54:50Z</time>
      </trkpt>
      <trkpt lat="44.06296" lon="5.84755">
        <ele>713.924</ele>
        <time>2020-09-02T13:54:51Z</time>
      </trkpt>
      <trkpt lat="44.06301" lon="5.84782">
        <ele>713.874</ele>
        <time>2020-09-02T13:54:52Z</time>
      </trkpt>
      <trkpt lat="44.06309" lon="5.84809">
        <ele>713.456</ele>
        <time>2020-09-02T13:54:53Z</time>
      </trkpt>
      <trkpt lat="44.06316" lon="5.84834">
        <ele>711.421</ele>
        <time>2020-09-02T13:54:54Z</time>
      </trkpt>
      <trkpt lat="44.06323" lon="5.8486">
        <ele>711.908</ele>
        <time>2020-09-02T13:54:55Z</time>
      </trkpt>
      <trkpt lat="44.0633" lon="5.84886">
        <ele>712.165</ele>
        <time>2020-09-02T13:54:56Z</time>
      </trkpt>
      <trkpt lat="44.06336" lon="5.84911">
        <ele>712.934</ele>
        <time>2020-09-02T13:54:57Z</time>
      </trkpt>
      <trkpt lat="44.06342" lon="5.84937">
        <ele>712.924</ele>
        <time>2020-09-02T13:54:58Z</time>
      </trkpt>
      <trkpt lat="44.06349" lon="5.84963">
        <ele>713.191</ele>
        <time>2020-09-02T13:54:59Z</time>
      </trkpt>
      <trkpt lat="44.06354" lon="5.8499">
        <ele>713.392</ele>
        <time>2020-09-02T13:55:00Z</time>
      </trkpt>
      <trkpt lat="44.06357" lon="5.85017">
        <ele>713.15</ele>
        <time>2020-09-02T13:55:01Z</time>
      </trkpt>
      <trkpt lat="44.06358" lon="5.85045">
        <ele>713.616</ele>
        <time>2020-09-02T13:55:02Z</time>
      </trkpt>
      <trkpt lat="44.06356" lon="5.85074">
        <ele>713.339</ele>
        <time>2020-09-02T13:55:03Z</time>
      </trkpt>
      <trkpt lat="44.06355" lon="5.85102">
        <ele>713.191</ele>
        <time>2020-09-02T13:55:04Z</time>
      </trkpt>
      <trkpt lat="44.06355" lon="5.85132">
        <ele>712.981</ele>
        <time>2020-09-02T13:55:05Z</time>
      </trkpt>
      <trkpt lat="44.06354" lon="5.85161">
        <ele>712.719</ele>
        <time>2020-09-02T13:55:06Z</time>
      </trkpt>
      <trkpt lat="44.06353" lon="5.8519">
        <ele>712.308</ele>
        <time>2020-09-02T13:55:07Z</time>
      </trkpt>
      <trkpt lat="44.06356" lon="5.85218">
        <ele>711.917</ele>
        <time>2020-09-02T13:55:08Z</time>
      </trkpt>
      <trkpt lat="44.06361" lon="5.85245">
        <ele>711.876</ele>
        <time>2020-09-02T13:55:09Z</time>
      </trkpt>
      <trkpt lat="44.06368" lon="5.85272">
        <ele>712.396</ele>
        <time>2020-09-02T13:55:10Z</time>
      </trkpt>
      <trkpt lat="44.06376" lon="5.853">
        <ele>712.183</ele>
        <time>2020-09-02T13:55:11Z</time>
      </trkpt>
      <trkpt lat="44.06385" lon="5.85328">
        <ele>712.434</ele>
        <time>2020-09-02T13:55:12Z</time>
      </trkpt>
      <trkpt lat="44.06394" lon="5.85354">
        <ele>712.232</ele>
        <time>2020-09-02T13:55:13Z</time>
      </trkpt>
      <trkpt lat="44.06405" lon="5.85379">
        <ele>712.568</ele>
        <time>2020-09-02T13:55:14Z</time>
      </trkpt>
      <trkpt lat="44.06418" lon="5.85403">
        <ele>712.961</ele>
        <time>2020-09-02T13:55:15Z</time>
      </trkpt>
      <trkpt lat="44.06432" lon="5.85426">
        <ele>713.131</ele>
        <time>2020-09-02T13:55:16Z</time>
      </trkpt>
      <trkpt lat="44.06447" lon="5.8545">
        <ele>713.461</ele>
        <time>2020-09-02T13:55:17Z</time>
      </trkpt>
      <trkpt lat="44.06461" lon="5.85473">
        <ele>713.307</ele>
        <time>2020-09-02T13:55:18Z</time>
      </trkpt>
      <trkpt lat="44.06475" lon="5.85496">
        <ele>713.708</ele>
        <time>2020-09-02T13:55:19Z</time>
      </trkpt>
      <trkpt lat="44.06489" lon="5.85521">
        <ele>713.921</ele>
        <time>2020-09-02T13:55:20Z</time>
      </trkpt>
      <trkpt lat="44.065" lon="5.85546">
        <ele>713.65</ele>
        <time>2020-09-02T13:55:21Z</time>
      </trkpt>
      <trkpt lat="44.06509" lon="5.85573">
        <ele>712.66</ele>
        <time>2020-09-02T13:55:22Z</time>
      </trkpt>
      <trkpt lat="44.06518" lon="5.85598">
        <ele>713.067</ele>
        <time>2020-09-02T13:55:23Z</time>
      </trkpt>
      <trkpt lat="44.06528" lon="5.85622">
        <ele>713.498</ele>
        <time>2020-09-02T13:55:24Z</time>
      </trkpt>
      <trkpt lat="44.0654" lon="5.85643">
        <ele>713.456</ele>
        <time>2020-09-02T13:55:25Z</time>
      </trkpt>
      <trkpt lat="44.06553" lon="5.85661">
        <ele>713.792</ele>
        <time>2020-09-02T13:55:26Z</time>
      </trkpt>
      <trkpt lat="44.06564" lon="5.85678">
        <ele>713.775</ele>
        <time>2020-09-02T13:55:27Z</time>
      </trkpt>
      <trkpt lat="44.06574" lon="5.85694">
        <ele>714.065</ele>
        <time>2020-09-02T13:55:28Z</time>
      </trkpt>
      <trkpt lat="44.06582" lon="5.85711">
        <ele>713.568</ele>
        <time>2020-09-02T13:55:29Z</time>
      </trkpt>
      <trkpt lat="44.06589" lon="5.8573">
        <ele>713.114</ele>
        <time>2020-09-02T13:55:30Z</time>
      </trkpt>
      <trkpt lat="44.06593" lon="5.85749">
        <ele>714.108</ele>
        <time>2020-09-02T13:55:31Z</time>
      </trkpt>
      <trkpt lat="44.06593" lon="5.8577">
        <ele>714.474</ele>
        <time>2020-09-02T13:55:32Z</time>
      </trkpt>
      <trkpt lat="44.06589" lon="5.85788">
        <ele>714.023</ele>
        <time>2020-09-02T13:55:33Z</time>
      </trkpt>
      <trkpt lat="44.06582" lon="5.85806">
        <ele>714.113</ele>
        <time>2020-09-02T13:55:34Z</time>
      </trkpt>
      <trkpt lat="44.06576" lon="5.85825">
        <ele>714.32</ele>
        <time>2020-09-02T13:55:35Z</time>
      </trkpt>
      <trkpt lat="44.06572" lon="5.85848">
        <ele>713.911</ele>
        <time>2020-09-02T13:55:36Z</time>
      </trkpt>
      <trkpt lat="44.06569" lon="5.85871">
        <ele>713.539</ele>
        <time>2020-09-02T13:55:37Z</time>
      </trkpt>
      <trkpt lat="44.06568" lon="5.85894">
        <ele>713.195</ele>
        <time>2020-09-02T13:55:38Z</time>
      </trkpt>
      <trkpt lat="44.06569" lon="5.8592">
        <ele>713.098</ele>
        <time>2020-09-02T13:55:39Z</time>
      </trkpt>
      <trkpt lat="44.06569" lon="5.85947">
        <ele>713.877</ele>
        <time>2020-09-02T13:55:40Z</time>
      </trkpt>
      <trkpt lat="44.0657" lon="5.85975">
        <ele>712.661</ele>
        <time>2020-09-02T13:55:41Z</time>
      </trkpt>
      <trkpt lat="44.0657" lon="5.86002">
        <ele>712.927</ele>
        <time>2020-09-02T13:55:42Z</time>
      </trkpt>
      <trkpt lat="44.0657" lon="5.8603">
        <ele>712.208</ele>
        <time>2020-09-02T13:55:43Z</time>
      </trkpt>
      <trkpt lat="44.0657" lon="5.86058">
        <ele>712.465</ele>
        <time>2020-09-02T13:55:44Z</time>
      </trkpt>
      <trkpt lat="44.06567" lon="5.86087">
        <ele>712.194</ele>
        <time>2020-09-02T13:55:45Z</time>
      </trkpt>
      <trkpt lat="44.06563" lon="5.86115">
        <ele>712.474</ele>
        <time>2020-09-02T13:55:46Z</time>
      </trkpt>
      <trkpt lat="44.0656" lon="5.86142">
        <ele>712.611</ele>
        <time>2020-09-02T13:55:47Z</time>
      </trkpt>
      <trkpt lat="44.0656" lon="5.86167">
        <ele>713.382</ele>
        <time>2020-09-02T13:55:48Z</time>
      </trkpt>
      <trkpt lat="44.06564" lon="5.86192">
        <ele>712.81</ele>
        <time>2020-09-02T13:55:49Z</time>
      </trkpt>
      <trkpt lat="44.0657" lon="5.86218">
        <ele>712.586</ele>
        <time>2020-09-02T13:55:50Z</time>
      </trkpt>
      <trkpt lat="44.06577" lon="5.86244">
        <ele>713.089</ele>
        <time>2020-09-02T13:55:51Z</time>
      </trkpt>
      <trkpt lat="44.06582" lon="5.86272">
        <ele>713.398</ele>
        <time>2020-09-02T13:55:52Z</time>
      </trkpt>
      <trkpt lat="44.06585" lon="5.86301">
        <ele>712.915</ele>
        <time>2020-09-02T13:55:53Z</time>
      </trkpt>
      <trkpt lat="44.06588" lon="5.86329">
        <ele>712.926</ele>
        <time>2020-09-02T13:55:54Z</time>
      </trkpt>
      <trkpt lat="44.06586" lon="5.8636">
        <ele>712.408</ele>
        <time>2020-09-02T13:55:55Z</time>
      </trkpt>
      <trkpt lat="44.06587" lon="5.86387">
        <ele>712.337</ele>
        <time>2020-09-02T13:55:56Z</time>
      </trkpt>
      <trkpt lat="44.06592" lon="5.86412">
        <ele>711.976</ele>
        <time>2020-09-02T13:55:57Z</time>
      </trkpt>
      <trkpt lat="44.06598" lon="5.8644">
        <ele>711.926</ele>
        <time>2020-09-02T13:55:58Z</time>
      </trkpt>
      <trkpt lat="44.06604" lon="5.86467">
        <ele>712.253</ele>
        <time>2020-09-02T13:55:59Z</time>
      </trkpt>
      <trkpt lat="44.06607" lon="5.86495">
        <ele>710.614</ele>
        <time>2020-09-02T13:56:00Z</time>
      </trkpt>
      <trkpt lat="44.06606" lon="5.86524">
        <ele>710.512</ele>
        <time>2020-09-02T13:56:01Z</time>
      </trkpt>
      <trkpt lat="44.06603" lon="5.86553">
        <ele>712.338</ele>
        <time>2020-09-02T13:56:02Z</time>
      </trkpt>
      <trkpt lat="44.066" lon="5.86582">
        <ele>712.381</ele>
        <time>2020-09-02T13:56:03Z</time>
      </trkpt>
      <trkpt lat="44.06598" lon="5.8661">
        <ele>712.788</ele>
        <time>2020-09-02T13:56:04Z</time>
      </trkpt>
      <trkpt lat="44.06596" lon="5.86638">
        <ele>712.524</ele>
        <time>2020-09-02T13:56:05Z</time>
      </trkpt>
      <trkpt lat="44.06597" lon="5.86666">
        <ele>712.826</ele>
        <time>2020-09-02T13:56:06Z</time>
      </trkpt>
      <trkpt lat="44.06601" lon="5.86695">
        <ele>712.608</ele>
        <time>2020-09-02T13:56:07Z</time>
      </trkpt>
      <trkpt lat="44.06607" lon="5.86722">
        <ele>711.666</ele>
        <time>2020-09-02T13:56:08Z</time>
      </trkpt>
      <trkpt lat="44.06611" lon="5.86751">
        <ele>711.955</ele>
        <time>2020-09-02T13:56:09Z</time>
      </trkpt>
      <trkpt lat="44.06613" lon="5.86779">
        <ele>711.895</ele>
        <time>2020-09-02T13:56:10Z</time>
      </trkpt>
      <trkpt lat="44.06607" lon="5.86806">
        <ele>711.392</ele>
        <time>2020-09-02T13:56:11Z</time>
      </trkpt>
      <trkpt lat="44.066" lon="5.86832">
        <ele>713.223</ele>
        <time>2020-09-02T13:56:12Z</time>
      </trkpt>
      <trkpt lat="44.06593" lon="5.86858">
        <ele>713.331</ele>
        <time>2020-09-02T13:56:13Z</time>
      </trkpt>
      <trkpt lat="44.06588" lon="5.86886">
        <ele>713.977</ele>
        <time>2020-09-02T13:56:14Z</time>
      </trkpt>
      <trkpt lat="44.06586" lon="5.86914">
        <ele>713.14</ele>
        <time>2020-09-02T13:56:15Z</time>
      </trkpt>
      <trkpt lat="44.06585" lon="5.86944">
        <ele>713.019</ele>
        <time>2020-09-02T13:56:16Z</time>
      </trkpt>
      <trkpt lat="44.06584" lon="5.86973">
        <ele>712.909</ele>
        <time>2020-09-02T13:56:17Z</time>
      </trkpt>
      <trkpt lat="44.06581" lon="5.87003">
        <ele>712.519</ele>
        <time>2020-09-02T13:56:18Z</time>
      </trkpt>
      <trkpt lat="44.06578" lon="5.87033">
        <ele>712.308</ele>
        <time>2020-09-02T13:56:19Z</time>
      </trkpt>
      <trkpt lat="44.06577" lon="5.87062">
        <ele>712.489</ele>
        <time>2020-09-02T13:56:20Z</time>
      </trkpt>
      <trkpt lat="44.06578" lon="5.87089">
        <ele>712.538</ele>
        <time>2020-09-02T13:56:21Z</time>
      </trkpt>
      <trkpt lat="44.06581" lon="5.87114">
        <ele>712.918</ele>
        <time>2020-09-02T13:56:22Z</time>
      </trkpt>
      <trkpt lat="44.06577" lon="5.87138">
        <ele>712.865</ele>
        <time>2020-09-02T13:56:23Z</time>
      </trkpt>
      <trkpt lat="44.06571" lon="5.87162">
        <ele>713.366</ele>
        <time>2020-09-02T13:56:24Z</time>
      </trkpt>
      <trkpt lat="44.06563" lon="5.87187">
        <ele>714.014</ele>
        <time>2020-09-02T13:56:25Z</time>
      </trkpt>
      <trkpt lat="44.06557" lon="5.87213">
        <ele>713.61</ele>
        <time>2020-09-02T13:56:26Z</time>
      </trkpt>
      <trkpt lat="44.06552" lon="5.87241">
        <ele>713.553</ele>
        <time>2020-09-02T13:56:27Z</time>
      </trkpt>
      <trkpt lat="44.06549" lon="5.87269">
        <ele>714.199</ele>
        <time>2020-09-02T13:56:28Z</time>
      </trkpt>
      <trkpt lat="44.06547" lon="5.87296">
        <ele>714.907</ele>
        <time>2020-09-02T13:56:29Z</time>
      </trkpt>
      <trkpt lat="44.06547" lon="5.87322">
        <ele>714.627</ele>
        <time>2020-09-02T13:56:30Z</time>
      </trkpt>
      <trkpt lat="44.06547" lon="5.87348">
        <ele>714.008</ele>
        <time>2020-09-02T13:56:31Z</time>
      </trkpt>
      <trkpt lat="44.06552" lon="5.87374">
        <ele>713.977</ele>
        <time>2020-09-02T13:56:32Z</time>
      </trkpt>
      <trkpt lat="44.06556" lon="5.87398">
        <ele>714.116</ele>
        <time>2020-09-02T13:56:33Z</time>
      </trkpt>
      <trkpt lat="44.06558" lon="5.87421">
        <ele>712.846</ele>
        <time>2020-09-02T13:56:34Z</time>
      </trkpt>
      <trkpt lat="44.06557" lon="5.87444">
        <ele>712.733</ele>
        <time>2020-09-02T13:56:35Z</time>
      </trkpt>
      <trkpt lat="44.06553" lon="5.87465">
        <ele>713.054</ele>
        <time>2020-09-02T13:56:36Z</time>
      </trkpt>
      <trkpt lat="44.06547" lon="5.87487">
        <ele>713.932</ele>
        <time>2020-09-02T13:56:37Z</time>
      </trkpt>
      <trkpt lat="44.06541" lon="5.87509">
        <ele>714.418</ele>
        <time>2020-09-02T13:56:38Z</time>
      </trkpt>
      <trkpt lat="44.06537" lon="5.87529">
        <ele>714.731</ele>
        <time>2020-09-02T13:56:39Z</time>
      </trkpt>
      <trkpt lat="44.0654" lon="5.87549">
        <ele>713.963</ele>
        <time>2020-09-02T13:56:40Z</time>
      </trkpt>
      <trkpt lat="44.06547" lon="5.87567">
        <ele>714.944</ele>
        <time>2020-09-02T13:56:41Z</time>
      </trkpt>
      <trkpt lat="44.06557" lon="5.87582">
        <ele>714.618</ele>
        <time>2020-09-02T13:56:42Z</time>
      </trkpt>
      <trkpt lat="44.06568" lon="5.87596">
        <ele>714.408</ele>
        <time>2020-09-02T13:56:43Z</time>
      </trkpt>
      <trkpt lat="44.06584" lon="5.87605">
        <ele>714.124</ele>
        <time>2020-09-02T13:56:44Z</time>
      </trkpt>
      <trkpt lat="44.066" lon="5.87611">
        <ele>714.093</ele>
        <time>2020-09-02T13:56:45Z</time>
      </trkpt>
      <trkpt lat="44.06617" lon="5.8762">
        <ele>713.243</ele>
        <time>2020-09-02T13:56:46Z</time>
      </trkpt>
      <trkpt lat="44.06632" lon="5.87629">
        <ele>712.59</ele>
        <time>2020-09-02T13:56:47Z</time>
      </trkpt>
      <trkpt lat="44.06646" lon="5.87638">
        <ele>712.041</ele>
        <time>2020-09-02T13:56:48Z</time>
      </trkpt>
      <trkpt lat="44.06654" lon="5.87649">
        <ele>712.569</ele>
        <time>2020-09-02T13:56:49Z</time>
      </trkpt>
      <trkpt lat="44.0666" lon="5.87662">
        <ele>712.235</ele>
        <time>2020-09-02T13:56:50Z</time>
      </trkpt>
      <trkpt lat="44.06661" lon="5.87678">
        <ele>713.048</ele>
        <time>2020-09-02T13:56:51Z</time>
      </trkpt>
      <trkpt lat="44.06657" lon="5.87693">
        <ele>713.344</ele>
        <time>2020-09-02T13:56:52Z</time>
      </trkpt>
      <trkpt lat="44.06649" lon="5.87706">
        <ele>713.505</ele>
        <time>2020-09-02T13:56:53Z</time>
      </trkpt>
      <trkpt lat="44.06639" lon="5.8772">
        <ele>714.015</ele>
        <time>2020-09-02T13:56:54Z</time>
      </trkpt>
      <trkpt lat="44.0663" lon="5.87734">
        <ele>714.108</ele>
        <time>2020-09-02T13:56:55Z</time>
      </trkpt>
      <trkpt lat="44.06622" lon="5.87752">
        <ele>714.762</ele>
        <time>2020-09-02T13:56:56Z</time>
      </trkpt>
      <trkpt lat="44.06613" lon="5.87772">
        <ele>714.721</ele>
        <time>2020-09-02T13:56:57Z</time>
      </trkpt>
      <trkpt lat="44.06605" lon="5.87794">
        <ele>714.821</ele>
        <time>2020-09-02T13:56:58Z</time>
      </trkpt>
      <trkpt lat="44.06596" lon="5.87814">
        <ele>714.848</ele>
        <time>2020-09-02T13:56:59Z</time>
      </trkpt>
      <trkpt lat="44.0659" lon="5.87834">
        <ele>714.459</ele>
        <time>2020-09-02T13:57:00Z</time>
      </trkpt>
      <trkpt lat="44.06585" lon="5.87854">
        <ele>714.467</ele>
        <time>2020-09-02T13:57:01Z</time>
      </trkpt>
      <trkpt lat="44.06588" lon="5.87873">
        <ele>715.313</ele>
        <time>2020-09-02T13:57:02Z</time>
      </trkpt>
      <trkpt lat="44.06589" lon="5.87892">
        <ele>714.296</ele>
        <time>2020-09-02T13:57:03Z</time>
      </trkpt>
      <trkpt lat="44.06587" lon="5.87908">
        <ele>714.026</ele>
        <time>2020-09-02T13:57:04Z</time>
      </trkpt>
      <trkpt lat="44.06582" lon="5.87922">
        <ele>712.247</ele>
        <time>2020-09-02T13:57:05Z</time>
      </trkpt>
      <trkpt lat="44.06575" lon="5.87935">
        <ele>711.311</ele>
        <time>2020-09-02T13:57:06Z</time>
      </trkpt>
      <trkpt lat="44.06566" lon="5.87947">
        <ele>710.908</ele>
        <time>2020-09-02T13:57:07Z</time>
      </trkpt>
      <trkpt lat="44.06548" lon="5.87937">
        <ele>711.86</ele>
        <time>2020-09-02T13:57:08Z</time>
      </trkpt>
      <trkpt lat="44.06535" lon="5.87935">
        <ele>711.579</ele>
        <time>2020-09-02T13:57:09Z</time>
      </trkpt>
      <trkpt lat="44.06519" lon="5.87934">
        <ele>709.869</ele>
        <time>2020-09-02T13:57:10Z</time>
      </trkpt>
      <trkpt lat="44.06504" lon="5.87935">
        <ele>709.716</ele>
        <time>2020-09-02T13:57:11Z</time>
      </trkpt>
      <trkpt lat="44.06488" lon="5.8794">
        <ele>709.847</ele>
        <time>2020-09-02T13:57:12Z</time>
      </trkpt>
      <trkpt lat="44.06473" lon="5.87948">
        <ele>710.095</ele>
        <time>2020-09-02T13:57:13Z</time>
      </trkpt>
      <trkpt lat="44.06461" lon="5.87965">
        <ele>710.821</ele>
        <time>2020-09-02T13:57:14Z</time>
      </trkpt>
      <trkpt lat="44.06449" lon="5.87984">
        <ele>711.114</ele>
        <time>2020-09-02T13:57:15Z</time>
      </trkpt>
      <trkpt lat="44.0644" lon="5.88006">
        <ele>711.518</ele>
        <time>2020-09-02T13:57:16Z</time>
      </trkpt>
      <trkpt lat="44.0643" lon="5.8803">
        <ele>711.898</ele>
        <time>2020-09-02T13:57:17Z</time>
      </trkpt>
      <trkpt lat="44.06421" lon="5.88055">
        <ele>711.617</ele>
        <time>2020-09-02T13:57:18Z</time>
      </trkpt>
      <trkpt lat="44.06412" lon="5.88082">
        <ele>710.908</ele>
        <time>2020-09-02T13:57:19Z</time>
      </trkpt>
      <trkpt lat="44.06402" lon="5.88107">
        <ele>710.359</ele>
        <time>2020-09-02T13:57:20Z</time>
      </trkpt>
      <trkpt lat="44.06392" lon="5.88133">
        <ele>710.168</ele>
        <time>2020-09-02T13:57:21Z</time>
      </trkpt>
      <trkpt lat="44.06381" lon="5.88159">
        <ele>710.598</ele>
        <time>2020-09-02T13:57:22Z</time>
      </trkpt>
      <trkpt lat="44.06366" lon="5.88182">
        <ele>712.455</ele>
        <time>2020-09-02T13:57:23Z</time>
      </trkpt>
      <trkpt lat="44.06353" lon="5.88204">
        <ele>712.466</ele>
        <time>2020-09-02T13:57:24Z</time>
      </trkpt>
      <trkpt lat="44.06343" lon="5.88229">
        <ele>711.424</ele>
        <time>2020-09-02T13:57:25Z</time>
      </trkpt>
      <trkpt lat="44.06335" lon="5.88256">
        <ele>711.76</ele>
        <time>2020-09-02T13:57:26Z</time>
      </trkpt>
      <trkpt lat="44.06327" lon="5.88282">
        <ele>711.963</ele>
        <time>2020-09-02T13:57:27Z</time>
      </trkpt>
      <trkpt lat="44.06321" lon="5.88311">
        <ele>711.753</ele>
        <time>2020-09-02T13:57:28Z</time>
      </trkpt>
      <trkpt lat="44.06315" lon="5.88342">
        <ele>712.704</ele>
        <time>2020-09-02T13:57:29Z</time>
      </trkpt>
      <trkpt lat="44.06309" lon="5.88371">
        <ele>712.814</ele>
        <time>2020-09-02T13:57:30Z</time>
      </trkpt>
      <trkpt lat="44.06303" lon="5.88397">
        <ele>713.108</ele>
        <time>2020-09-02T13:57:31Z</time>
      </trkpt>
      <trkpt lat="44.06297" lon="5.88422">
        <ele>713.393</ele>
        <time>2020-09-02T13:57:32Z</time>
      </trkpt>
      <trkpt lat="44.06292" lon="5.88449">
        <ele>713.622</ele>
        <time>2020-09-02T13:57:33Z</time>
      </trkpt>
      <trkpt lat="44.06291" lon="5.88477">
        <ele>714.412</ele>
        <time>2020-09-02T13:57:34Z</time>
      </trkpt>
      <trkpt lat="44.06292" lon="5.88505">
        <ele>714.599</ele>
        <time>2020-09-02T13:57:35Z</time>
      </trkpt>
      <trkpt lat="44.06296" lon="5.88534">
        <ele>713.95</ele>
        <time>2020-09-02T13:57:36Z</time>
      </trkpt>
      <trkpt lat="44.063" lon="5.88563">
        <ele>714.918</ele>
        <time>2020-09-02T13:57:37Z</time>
      </trkpt>
      <trkpt lat="44.06303" lon="5.88593">
        <ele>713.514</ele>
        <time>2020-09-02T13:57:38Z</time>
      </trkpt>
      <trkpt lat="44.06306" lon="5.8862">
        <ele>713.157</ele>
        <time>2020-09-02T13:57:39Z</time>
      </trkpt>
      <trkpt lat="44.06312" lon="5.88645">
        <ele>713.332</ele>
        <time>2020-09-02T13:57:40Z</time>
      </trkpt>
      <trkpt lat="44.06322" lon="5.88668">
        <ele>712.592</ele>
        <time>2020-09-02T13:57:41Z</time>
      </trkpt>
      <trkpt lat="44.06332" lon="5.88692">
        <ele>712.511</ele>
        <time>2020-09-02T13:57:42Z</time>
      </trkpt>
      <trkpt lat="44.06343" lon="5.88712">
        <ele>712.308</ele>
        <time>2020-09-02T13:57:43Z</time>
      </trkpt>
      <trkpt lat="44.06361" lon="5.88723">
        <ele>711.851</ele>
        <time>2020-09-02T13:57:44Z</time>
      </trkpt>
      <trkpt lat="44.06378" lon="5.88736">
        <ele>712.65</ele>
        <time>2020-09-02T13:57:45Z</time>
      </trkpt>
      <trkpt lat="44.06392" lon="5.88741">
        <ele>713.31</ele>
        <time>2020-09-02T13:57:46Z</time>
      </trkpt>
      <trkpt lat="44.06407" lon="5.88743">
        <ele>714.177</ele>
        <time>2020-09-02T13:57:47Z</time>
      </trkpt>
      <trkpt lat="44.06422" lon="5.88739">
        <ele>714.268</ele>
        <time>2020-09-02T13:57:48Z</time>
      </trkpt>
      <trkpt lat="44.06438" lon="5.88731">
        <ele>714.066</ele>
        <time>2020-09-02T13:57:49Z</time>
      </trkpt>
      <trkpt lat="44.06451" lon="5.88719">
        <ele>713.912</ele>
        <time>2020-09-02T13:57:50Z</time>
      </trkpt>
      <trkpt lat="44.06466" lon="5.88707">
        <ele>714.155</ele>
        <time>2020-09-02T13:57:51Z</time>
      </trkpt>
      <trkpt lat="44.06479" lon="5.88692">
        <ele>714.378</ele>
        <time>2020-09-02T13:57:52Z</time>
      </trkpt>
      <trkpt lat="44.06492" lon="5.88676">
        <ele>714.733</ele>
        <time>2020-09-02T13:57:53Z</time>
      </trkpt>
      <trkpt lat="44.06502" lon="5.88659">
        <ele>715.526</ele>
        <time>2020-09-02T13:57:54Z</time>
      </trkpt>
      <trkpt lat="44.06512" lon="5.88646">
        <ele>715.708</ele>
        <time>2020-09-02T13:57:55Z</time>
      </trkpt>
      <trkpt lat="44.06523" lon="5.88638">
        <ele>716.115</ele>
        <time>2020-09-02T13:57:56Z</time>
      </trkpt>
      <trkpt lat="44.06533" lon="5.88636">
        <ele>716.984</ele>
        <time>2020-09-02T13:57:57Z</time>
      </trkpt>
      <trkpt lat="44.06541" lon="5.88642">
        <ele>716.954</ele>
        <time>2020-09-02T13:57:58Z</time>
      </trkpt>
      <trkpt lat="44.06548" lon="5.88653">
        <ele>715.571</ele>
        <time>2020-09-02T13:57:59Z</time>
      </trkpt>
      <trkpt lat="44.06552" lon="5.8867">
        <ele>717.072</ele>
        <time>2020-09-02T13:58:00Z</time>
      </trkpt>
      <trkpt lat="44.06554" lon="5.88688">
        <ele>717.11</ele>
        <time>2020-09-02T13:58:01Z</time>
      </trkpt>
      <trkpt lat="44.06558" lon="5.88707">
        <ele>716.646</ele>
        <time>2020-09-02T13:58:02Z</time>
      </trkpt>
      <trkpt lat="44.0656" lon="5.88727">
        <ele>717.139</ele>
        <time>2020-09-02T13:58:03Z</time>
      </trkpt>
      <trkpt lat="44.06563" lon="5.88748">
        <ele>716.961</ele>
        <time>2020-09-02T13:58:04Z</time>
      </trkpt>
      <trkpt lat="44.06565" lon="5.88769">
        <ele>716.521</ele>
        <time>2020-09-02T13:58:05Z</time>
      </trkpt>
      <trkpt lat="44.06565" lon="5.88791">
        <ele>715.913</ele>
        <time>2020-09-02T13:58:06Z</time>
      </trkpt>
      <trkpt lat="44.06562" lon="5.88812">
        <ele>715.308</ele>
        <time>2020-09-02T13:58:07Z</time>
      </trkpt>
      <trkpt lat="44.06558" lon="5.88832">
        <ele>715.274</ele>
        <time>2020-09-02T13:58:08Z</time>
      </trkpt>
      <trkpt lat="44.06556" lon="5.88854">
        <ele>714.343</ele>
        <time>2020-09-02T13:58:09Z</time>
      </trkpt>
      <trkpt lat="44.06552" lon="5.88876">
        <ele>714.573</ele>
        <time>2020-09-02T13:58:10Z</time>
      </trkpt>
      <trkpt lat="44.06552" lon="5.88898">
        <ele>713.14</ele>
        <time>2020-09-02T13:58:11Z</time>
      </trkpt>
      <trkpt lat="44.06553" lon="5.88921">
        <ele>712.681</ele>
        <time>2020-09-02T13:58:12Z</time>
      </trkpt>
      <trkpt lat="44.06555" lon="5.88943">
        <ele>712.349</ele>
        <time>2020-09-02T13:58:13Z</time>
      </trkpt>
      <trkpt lat="44.06558" lon="5.88966">
        <ele>712.345</ele>
        <time>2020-09-02T13:58:14Z</time>
      </trkpt>
      <trkpt lat="44.06561" lon="5.88989">
        <ele>712.938</ele>
        <time>2020-09-02T13:58:15Z</time>
      </trkpt>
      <trkpt lat="44.06564" lon="5.89014">
        <ele>711.217</ele>
        <time>2020-09-02T13:58:16Z</time>
      </trkpt>
      <trkpt lat="44.06568" lon="5.89038">
        <ele>711.487</ele>
        <time>2020-09-02T13:58:17Z</time>
      </trkpt>
      <trkpt lat="44.06573" lon="5.89063">
        <ele>711.615</ele>
        <time>2020-09-02T13:58:18Z</time>
      </trkpt>
      <trkpt lat="44.06578" lon="5.89089">
        <ele>711.308</ele>
        <time>2020-09-02T13:58:19Z</time>
      </trkpt>
      <trkpt lat="44.06583" lon="5.89114">
        <ele>711.469</ele>
        <time>2020-09-02T13:58:20Z</time>
      </trkpt>
      <trkpt lat="44.06589" lon="5.89138">
        <ele>712.478</ele>
        <time>2020-09-02T13:58:21Z</time>
      </trkpt>
      <trkpt lat="44.06595" lon="5.89161">
        <ele>713.278</ele>
        <time>2020-09-02T13:58:22Z</time>
      </trkpt>
      <trkpt lat="44.06601" lon="5.89186">
        <ele>713.225</ele>
        <time>2020-09-02T13:58:23Z</time>
      </trkpt>
      <trkpt lat="44.06608" lon="5.89209">
        <ele>712.996</ele>
        <time>2020-09-02T13:58:24Z</time>
      </trkpt>
      <trkpt lat="44.06615" lon="5.89232">
        <ele>713.294</ele>
        <time>2020-09-02T13:58:25Z</time>
      </trkpt>
      <trkpt lat="44.06623" lon="5.89254">
        <ele>712.17</ele>
        <time>2020-09-02T13:58:26Z</time>
      </trkpt>
      <trkpt lat="44.0663" lon="5.89277">
        <ele>712.313</ele>
        <time>2020-09-02T13:58:27Z</time>
      </trkpt>
      <trkpt lat="44.06636" lon="5.89298">
        <ele>711.862</ele>
        <time>2020-09-02T13:58:28Z</time>
      </trkpt>
      <trkpt lat="44.06642" lon="5.89319">
        <ele>712.383</ele>
        <time>2020-09-02T13:58:29Z</time>
      </trkpt>
      <trkpt lat="44.06646" lon="5.89338">
        <ele>711.911</ele>
        <time>2020-09-02T13:58:30Z</time>
      </trkpt>
      <trkpt lat="44.06648" lon="5.8936">
        <ele>712.108</ele>
        <time>2020-09-02T13:58:31Z</time>
      </trkpt>
      <trkpt lat="44.06648" lon="5.89382">
        <ele>711.934</ele>
        <time>2020-09-02T13:58:32Z</time>
      </trkpt>
      <trkpt lat="44.06646" lon="5.89404">
        <ele>711.973</ele>
        <time>2020-09-02T13:58:33Z</time>
      </trkpt>
      <trkpt lat="44.06644" lon="5.89427">
        <ele>711.423</ele>
        <time>2020-09-02T13:58:34Z</time>
      </trkpt>
      <trkpt lat="44.06641" lon="5.89451">
        <ele>711.26</ele>
        <time>2020-09-02T13:58:35Z</time>
      </trkpt>
      <trkpt lat="44.06638" lon="5.89475">
        <ele>711.071</ele>
        <time>2020-09-02T13:58:36Z</time>
      </trkpt>
      <trkpt lat="44.06636" lon="5.895">
        <ele>710.979</ele>
        <time>2020-09-02T13:58:37Z</time>
      </trkpt>
      <trkpt lat="44.06632" lon="5.89525">
        <ele>710.335</ele>
        <time>2020-09-02T13:58:38Z</time>
      </trkpt>
      <trkpt lat="44.0663" lon="5.89551">
        <ele>710.118</ele>
        <time>2020-09-02T13:58:39Z</time>
      </trkpt>
      <trkpt lat="44.06628" lon="5.89575">
        <ele>710.435</ele>
        <time>2020-09-02T13:58:40Z</time>
      </trkpt>
      <trkpt lat="44.06625" lon="5.89598">
        <ele>710.886</ele>
        <time>2020-09-02T13:58:41Z</time>
      </trkpt>
      <trkpt lat="44.06623" lon="5.89618">
        <ele>711.514</ele>
        <time>2020-09-02T13:58:42Z</time>
      </trkpt>
      <trkpt lat="44.06621" lon="5.89637">
        <ele>711.508</ele>
        <time>2020-09-02T13:58:43Z</time>
      </trkpt>
      <trkpt lat="44.06619" lon="5.89655">
        <ele>712.011</ele>
        <time>2020-09-02T13:58:44Z</time>
      </trkpt>
      <trkpt lat="44.06617" lon="5.89673">
        <ele>711.93</ele>
        <time>2020-09-02T13:58:45Z</time>
      </trkpt>
      <trkpt lat="44.06618" lon="5.8969">
        <ele>711.61</ele>
        <time>2020-09-02T13:58:46Z</time>
      </trkpt>
      <trkpt lat="44.06618" lon="5.89708">
        <ele>712.037</ele>
        <time>2020-09-02T13:58:47Z</time>
      </trkpt>
      <trkpt lat="44.06619" lon="5.89725">
        <ele>712.688</ele>
        <time>2020-09-02T13:58:48Z</time>
      </trkpt>
      <trkpt lat="44.06625" lon="5.89736">
        <ele>711.756</ele>
        <time>2020-09-02T13:58:49Z</time>
      </trkpt>
      <trkpt lat="44.0663" lon="5.8975">
        <ele>711.682</ele>
        <time>2020-09-02T13:58:50Z</time>
      </trkpt>
      <trkpt lat="44.06635" lon="5.89765">
        <ele>711.095</ele>
        <time>2020-09-02T13:58:51Z</time>
      </trkpt>
      <trkpt lat="44.0664" lon="5.89779">
        <ele>711.195</ele>
        <time>2020-09-02T13:58:52Z</time>
      </trkpt>
      <trkpt lat="44.06645" lon="5.89792">
        <ele>711.449</ele>
        <time>2020-09-02T13:58:53Z</time>
      </trkpt>
      <trkpt lat="44.0665" lon="5.89804">
        <ele>711.123</ele>
        <time>2020-09-02T13:58:54Z</time>
      </trkpt>
      <trkpt lat="44.06656" lon="5.89814">
        <ele>710.708</ele>
        <time>2020-09-02T13:58:55Z</time>
      </trkpt>
      <trkpt lat="44.06664" lon="5.89821">
        <ele>711.277</ele>
        <time>2020-09-02T13:58:56Z</time>
      </trkpt>
      <trkpt lat="44.06676" lon="5.89822">
        <ele>710.866</ele>
        <time>2020-09-02T13:58:57Z</time>
      </trkpt>
      <trkpt lat="44.06684" lon="5.89827">
        <ele>710.256</ele>
        <time>2020-09-02T13:58:58Z</time>
      </trkpt>
      <trkpt lat="44.06693" lon="5.89829">
        <ele>710.213</ele>
        <time>2020-09-02T13:58:59Z</time>
      </trkpt>
      <trkpt lat="44.06701" lon="5.8983">
        <ele>708.694</ele>
        <time>2020-09-02T13:59:00Z</time>
      </trkpt>
      <trkpt lat="44.06709" lon="5.89832">
        <ele>708.222</ele>
        <time>2020-09-02T13:59:01Z</time>
      </trkpt>
      <trkpt lat="44.06717" lon="5.89833">
        <ele>707.918</ele>
        <time>2020-09-02T13:59:02Z</time>
      </trkpt>
      <trkpt lat="44.06722" lon="5.89834">
        <ele>708.431</ele>
        <time>2020-09-02T13:59:03Z</time>
      </trkpt>
      <trkpt lat="44.06728" lon="5.89835">
        <ele>708.762</ele>
        <time>2020-09-02T13:59:04Z</time>
      </trkpt>
      <trkpt lat="44.06735" lon="5.89835">
        <ele>708.183</ele>
        <time>2020-09-02T13:59:06Z</time>
      </trkpt>
      <trkpt lat="44.06741" lon="5.89835">
        <ele>707.911</ele>
        <time>2020-09-02T13:59:09Z</time>
      </trkpt>
      <trkpt lat="44.06745" lon="5.89833">
        <ele>708.408</ele>
        <time>2020-09-02T13:59:11Z</time>
      </trkpt>
      <trkpt lat="44.06751" lon="5.89834">
        <ele>708.214</ele>
        <time>2020-09-02T13:59:14Z</time>
      </trkpt>
      <trkpt lat="44.06762" lon="5.89835">
        <ele>705.723</ele>
        <time>2020-09-02T13:59:31Z</time>
      </trkpt>
      <trkpt lat="44.06769" lon="5.89835">
        <ele>705.063</ele>
        <time>2020-09-02T13:59:32Z</time>
      </trkpt>
      <trkpt lat="44.06778" lon="5.89833">
        <ele>704.47</ele>
        <time>2020-09-02T13:59:33Z</time>
      </trkpt>
      <trkpt lat="44.06786" lon="5.89832">
        <ele>704.361</ele>
        <time>2020-09-02T13:59:34Z</time>
      </trkpt>
      <trkpt lat="44.06793" lon="5.89836">
        <ele>703.389</ele>
        <time>2020-09-02T13:59:35Z</time>
      </trkpt>
      <trkpt lat="44.06804" lon="5.8984">
        <ele>701.945</ele>
        <time>2020-09-02T13:59:36Z</time>
      </trkpt>
      <trkpt lat="44.06812" lon="5.89845">
        <ele>701.048</ele>
        <time>2020-09-02T13:59:37Z</time>
      </trkpt>
      <trkpt lat="44.0682" lon="5.89851">
        <ele>700.219</ele>
        <time>2020-09-02T13:59:38Z</time>
      </trkpt>
      <trkpt lat="44.0683" lon="5.89858">
        <ele>700.709</ele>
        <time>2020-09-02T13:59:39Z</time>
      </trkpt>
      <trkpt lat="44.06839" lon="5.89868">
        <ele>701.419</ele>
        <time>2020-09-02T13:59:40Z</time>
      </trkpt>
      <trkpt lat="44.06847" lon="5.89879">
        <ele>701.108</ele>
        <time>2020-09-02T13:59:41Z</time>
      </trkpt>
      <trkpt lat="44.06853" lon="5.89894">
        <ele>701.649</ele>
        <time>2020-09-02T13:59:42Z</time>
      </trkpt>
      <trkpt lat="44.06859" lon="5.8991">
        <ele>700.978</ele>
        <time>2020-09-02T13:59:43Z</time>
      </trkpt>
      <trkpt lat="44.06865" lon="5.89927">
        <ele>700.348</ele>
        <time>2020-09-02T13:59:44Z</time>
      </trkpt>
      <trkpt lat="44.06873" lon="5.89943">
        <ele>699.075</ele>
        <time>2020-09-02T13:59:45Z</time>
      </trkpt>
      <trkpt lat="44.06882" lon="5.89955">
        <ele>698.226</ele>
        <time>2020-09-02T13:59:46Z</time>
      </trkpt>
      <trkpt lat="44.06894" lon="5.89965">
        <ele>698.084</ele>
        <time>2020-09-02T13:59:47Z</time>
      </trkpt>
      <trkpt lat="44.06907" lon="5.89974">
        <ele>696.95</ele>
        <time>2020-09-02T13:59:48Z</time>
      </trkpt>
      <trkpt lat="44.06922" lon="5.89984">
        <ele>696.263</ele>
        <time>2020-09-02T13:59:49Z</time>
      </trkpt>
      <trkpt lat="44.06936" lon="5.89994">
        <ele>696.044</ele>
        <time>2020-09-02T13:59:50Z</time>
      </trkpt>
      <trkpt lat="44.06952" lon="5.90005">
        <ele>695.605</ele>
        <time>2020-09-02T13:59:51Z</time>
      </trkpt>
      <trkpt lat="44.06968" lon="5.90015">
        <ele>695.015</ele>
        <time>2020-09-02T13:59:52Z</time>
      </trkpt>
      <trkpt lat="44.06984" lon="5.90026">
        <ele>694.008</ele>
        <time>2020-09-02T13:59:53Z</time>
      </trkpt>
      <trkpt lat="44.07001" lon="5.90036">
        <ele>693.162</ele>
        <time>2020-09-02T13:59:54Z</time>
      </trkpt>
      <trkpt lat="44.07017" lon="5.90047">
        <ele>692.311</ele>
        <time>2020-09-02T13:59:55Z</time>
      </trkpt>
      <trkpt lat="44.07033" lon="5.90057">
        <ele>690.711</ele>
        <time>2020-09-02T13:59:56Z</time>
      </trkpt>
      <trkpt lat="44.07051" lon="5.90068">
        <ele>690.288</ele>
        <time>2020-09-02T13:59:57Z</time>
      </trkpt>
      <trkpt lat="44.07068" lon="5.9008">
        <ele>689.879</ele>
        <time>2020-09-02T13:59:58Z</time>
      </trkpt>
      <trkpt lat="44.07086" lon="5.90091">
        <ele>689.387</ele>
        <time>2020-09-02T13:59:59Z</time>
      </trkpt>
      <trkpt lat="44.07104" lon="5.901">
        <ele>688.323</ele>
        <time>2020-09-02T14:00:00Z</time>
      </trkpt>
      <trkpt lat="44.07124" lon="5.90108">
        <ele>687.556</ele>
        <time>2020-09-02T14:00:01Z</time>
      </trkpt>
      <trkpt lat="44.07144" lon="5.90116">
        <ele>687.547</ele>
        <time>2020-09-02T14:00:02Z</time>
      </trkpt>
      <trkpt lat="44.07165" lon="5.90123">
        <ele>686.029</ele>
        <time>2020-09-02T14:00:03Z</time>
      </trkpt>
      <trkpt lat="44.07185" lon="5.9013">
        <ele>685.021</ele>
        <time>2020-09-02T14:00:04Z</time>
      </trkpt>
      <trkpt lat="44.07205" lon="5.90137">
        <ele>683.608</ele>
        <time>2020-09-02T14:00:05Z</time>
      </trkpt>
      <trkpt lat="44.07225" lon="5.90143">
        <ele>682.642</ele>
        <time>2020-09-02T14:00:06Z</time>
      </trkpt>
      <trkpt lat="44.07243" lon="5.90151">
        <ele>681.761</ele>
        <time>2020-09-02T14:00:07Z</time>
      </trkpt>
      <trkpt lat="44.07261" lon="5.9016">
        <ele>680.461</ele>
        <time>2020-09-02T14:00:08Z</time>
      </trkpt>
      <trkpt lat="44.07277" lon="5.90172">
        <ele>680.098</ele>
        <time>2020-09-02T14:00:09Z</time>
      </trkpt>
      <trkpt lat="44.07293" lon="5.90184">
        <ele>678.529</ele>
        <time>2020-09-02T14:00:10Z</time>
      </trkpt>
      <trkpt lat="44.07307" lon="5.90203">
        <ele>677.747</ele>
        <time>2020-09-02T14:00:11Z</time>
      </trkpt>
      <trkpt lat="44.07322" lon="5.90222">
        <ele>676.613</ele>
        <time>2020-09-02T14:00:12Z</time>
      </trkpt>
      <trkpt lat="44.07338" lon="5.90241">
        <ele>675.836</ele>
        <time>2020-09-02T14:00:13Z</time>
      </trkpt>
      <trkpt lat="44.07353" lon="5.9026">
        <ele>674.769</ele>
        <time>2020-09-02T14:00:14Z</time>
      </trkpt>
      <trkpt lat="44.07368" lon="5.9028">
        <ele>674.104</ele>
        <time>2020-09-02T14:00:15Z</time>
      </trkpt>
      <trkpt lat="44.07383" lon="5.903">
        <ele>673.324</ele>
        <time>2020-09-02T14:00:16Z</time>
      </trkpt>
      <trkpt lat="44.07399" lon="5.90319">
        <ele>672.608</ele>
        <time>2020-09-02T14:00:17Z</time>
      </trkpt>
      <trkpt lat="44.07414" lon="5.90338">
        <ele>672.914</ele>
        <time>2020-09-02T14:00:18Z</time>
      </trkpt>
      <trkpt lat="44.0743" lon="5.90357">
        <ele>672.963</ele>
        <time>2020-09-02T14:00:19Z</time>
      </trkpt>
      <trkpt lat="44.07446" lon="5.90377">
        <ele>672.363</ele>
        <time>2020-09-02T14:00:20Z</time>
      </trkpt>
      <trkpt lat="44.07461" lon="5.90397">
        <ele>671.63</ele>
        <time>2020-09-02T14:00:21Z</time>
      </trkpt>
      <trkpt lat="44.07475" lon="5.90418">
        <ele>671.271</ele>
        <time>2020-09-02T14:00:22Z</time>
      </trkpt>
      <trkpt lat="44.0749" lon="5.9044">
        <ele>670.779</ele>
        <time>2020-09-02T14:00:23Z</time>
      </trkpt>
      <trkpt lat="44.07504" lon="5.90462">
        <ele>670.125</ele>
        <time>2020-09-02T14:00:24Z</time>
      </trkpt>
      <trkpt lat="44.07516" lon="5.90485">
        <ele>670.228</ele>
        <time>2020-09-02T14:00:25Z</time>
      </trkpt>
      <trkpt lat="44.07528" lon="5.90508">
        <ele>669.342</ele>
        <time>2020-09-02T14:00:26Z</time>
      </trkpt>
      <trkpt lat="44.07538" lon="5.90532">
        <ele>669.122</ele>
        <time>2020-09-02T14:00:27Z</time>
      </trkpt>
      <trkpt lat="44.07547" lon="5.90555">
        <ele>669.114</ele>
        <time>2020-09-02T14:00:28Z</time>
      </trkpt>
      <trkpt lat="44.07554" lon="5.90579">
        <ele>669.508</ele>
        <time>2020-09-02T14:00:29Z</time>
      </trkpt>
      <trkpt lat="44.07561" lon="5.90602">
        <ele>669.092</ele>
        <time>2020-09-02T14:00:30Z</time>
      </trkpt>
      <trkpt lat="44.07566" lon="5.90626">
        <ele>668.581</ele>
        <time>2020-09-02T14:00:31Z</time>
      </trkpt>
      <trkpt lat="44.07571" lon="5.90651">
        <ele>668.411</ele>
        <time>2020-09-02T14:00:32Z</time>
      </trkpt>
      <trkpt lat="44.07575" lon="5.90676">
        <ele>668.168</ele>
        <time>2020-09-02T14:00:33Z</time>
      </trkpt>
      <trkpt lat="44.07579" lon="5.90703">
        <ele>667.299</ele>
        <time>2020-09-02T14:00:34Z</time>
      </trkpt>
      <trkpt lat="44.0758" lon="5.9073">
        <ele>666.757</ele>
        <time>2020-09-02T14:00:35Z</time>
      </trkpt>
      <trkpt lat="44.07581" lon="5.90754">
        <ele>666.173</ele>
        <time>2020-09-02T14:00:36Z</time>
      </trkpt>
      <trkpt lat="44.07575" lon="5.90774">
        <ele>665.646</ele>
        <time>2020-09-02T14:00:37Z</time>
      </trkpt>
      <trkpt lat="44.07571" lon="5.90792">
        <ele>664.821</ele>
        <time>2020-09-02T14:00:38Z</time>
      </trkpt>
      <trkpt lat="44.07568" lon="5.90806">
        <ele>665.041</ele>
        <time>2020-09-02T14:00:39Z</time>
      </trkpt>
      <trkpt lat="44.07564" lon="5.9082">
        <ele>664.405</ele>
        <time>2020-09-02T14:00:40Z</time>
      </trkpt>
      <trkpt lat="44.0756" lon="5.90835">
        <ele>663.808</ele>
        <time>2020-09-02T14:00:41Z</time>
      </trkpt>
      <trkpt lat="44.07555" lon="5.90852">
        <ele>663.04</ele>
        <time>2020-09-02T14:00:42Z</time>
      </trkpt>
      <trkpt lat="44.07552" lon="5.90871">
        <ele>662.639</ele>
        <time>2020-09-02T14:00:43Z</time>
      </trkpt>
      <trkpt lat="44.07549" lon="5.90892">
        <ele>661.879</ele>
        <time>2020-09-02T14:00:44Z</time>
      </trkpt>
      <trkpt lat="44.07546" lon="5.90917">
        <ele>660.126</ele>
        <time>2020-09-02T14:00:45Z</time>
      </trkpt>
      <trkpt lat="44.07545" lon="5.90943">
        <ele>658.867</ele>
        <time>2020-09-02T14:00:46Z</time>
      </trkpt>
      <trkpt lat="44.07546" lon="5.90968">
        <ele>657.945</ele>
        <time>2020-09-02T14:00:47Z</time>
      </trkpt>
      <trkpt lat="44.07547" lon="5.90992">
        <ele>656.441</ele>
        <time>2020-09-02T14:00:48Z</time>
      </trkpt>
      <trkpt lat="44.07549" lon="5.91016">
        <ele>655.324</ele>
        <time>2020-09-02T14:00:49Z</time>
      </trkpt>
      <trkpt lat="44.0755" lon="5.9104">
        <ele>654.277</ele>
        <time>2020-09-02T14:00:50Z</time>
      </trkpt>
      <trkpt lat="44.07553" lon="5.91063">
        <ele>653.661</ele>
        <time>2020-09-02T14:00:51Z</time>
      </trkpt>
      <trkpt lat="44.07555" lon="5.91086">
        <ele>652.427</ele>
        <time>2020-09-02T14:00:52Z</time>
      </trkpt>
      <trkpt lat="44.07558" lon="5.91108">
        <ele>651.508</ele>
        <time>2020-09-02T14:00:53Z</time>
      </trkpt>
      <trkpt lat="44.07561" lon="5.9113">
        <ele>650.795</ele>
        <time>2020-09-02T14:00:54Z</time>
      </trkpt>
      <trkpt lat="44.07564" lon="5.91152">
        <ele>650.374</ele>
        <time>2020-09-02T14:00:55Z</time>
      </trkpt>
      <trkpt lat="44.07565" lon="5.91173">
        <ele>649.874</ele>
        <time>2020-09-02T14:00:56Z</time>
      </trkpt>
      <trkpt lat="44.07566" lon="5.91196">
        <ele>649.811</ele>
        <time>2020-09-02T14:00:57Z</time>
      </trkpt>
      <trkpt lat="44.07563" lon="5.91221">
        <ele>648.882</ele>
        <time>2020-09-02T14:00:58Z</time>
      </trkpt>
      <trkpt lat="44.07562" lon="5.91245">
        <ele>649.33</ele>
        <time>2020-09-02T14:00:59Z</time>
      </trkpt>
      <trkpt lat="44.07562" lon="5.91269">
        <ele>648.886</ele>
        <time>2020-09-02T14:01:00Z</time>
      </trkpt>
      <trkpt lat="44.07564" lon="5.91296">
        <ele>648.269</ele>
        <time>2020-09-02T14:01:01Z</time>
      </trkpt>
      <trkpt lat="44.07566" lon="5.91324">
        <ele>647.684</ele>
        <time>2020-09-02T14:01:02Z</time>
      </trkpt>
      <trkpt lat="44.07569" lon="5.91352">
        <ele>646.907</ele>
        <time>2020-09-02T14:01:03Z</time>
      </trkpt>
      <trkpt lat="44.07571" lon="5.91381">
        <ele>646.417</ele>
        <time>2020-09-02T14:01:04Z</time>
      </trkpt>
      <trkpt lat="44.07575" lon="5.91408">
        <ele>644.508</ele>
        <time>2020-09-02T14:01:05Z</time>
      </trkpt>
      <trkpt lat="44.07578" lon="5.91437">
        <ele>643.936</ele>
        <time>2020-09-02T14:01:06Z</time>
      </trkpt>
      <trkpt lat="44.07582" lon="5.91465">
        <ele>643.385</ele>
        <time>2020-09-02T14:01:07Z</time>
      </trkpt>
      <trkpt lat="44.07585" lon="5.91493">
        <ele>642.785</ele>
        <time>2020-09-02T14:01:08Z</time>
      </trkpt>
      <trkpt lat="44.07588" lon="5.91521">
        <ele>642.132</ele>
        <time>2020-09-02T14:01:09Z</time>
      </trkpt>
      <trkpt lat="44.07591" lon="5.91546">
        <ele>640.923</ele>
        <time>2020-09-02T14:01:10Z</time>
      </trkpt>
      <trkpt lat="44.07593" lon="5.91571">
        <ele>639.481</ele>
        <time>2020-09-02T14:01:11Z</time>
      </trkpt>
      <trkpt lat="44.07592" lon="5.91599">
        <ele>637.787</ele>
        <time>2020-09-02T14:01:12Z</time>
      </trkpt>
      <trkpt lat="44.07588" lon="5.91626">
        <ele>636.91</ele>
        <time>2020-09-02T14:01:13Z</time>
      </trkpt>
      <trkpt lat="44.07582" lon="5.91653">
        <ele>635.714</ele>
        <time>2020-09-02T14:01:14Z</time>
      </trkpt>
      <trkpt lat="44.07574" lon="5.9168">
        <ele>634.654</ele>
        <time>2020-09-02T14:01:15Z</time>
      </trkpt>
      <trkpt lat="44.07566" lon="5.91709">
        <ele>634.209</ele>
        <time>2020-09-02T14:01:16Z</time>
      </trkpt>
      <trkpt lat="44.07556" lon="5.91737">
        <ele>633.408</ele>
        <time>2020-09-02T14:01:17Z</time>
      </trkpt>
      <trkpt lat="44.07546" lon="5.91764">
        <ele>633.069</ele>
        <time>2020-09-02T14:01:18Z</time>
      </trkpt>
      <trkpt lat="44.07537" lon="5.91791">
        <ele>633.168</ele>
        <time>2020-09-02T14:01:19Z</time>
      </trkpt>
      <trkpt lat="44.07529" lon="5.91817">
        <ele>632.298</ele>
        <time>2020-09-02T14:01:20Z</time>
      </trkpt>
      <trkpt lat="44.0752" lon="5.91844">
        <ele>630.095</ele>
        <time>2020-09-02T14:01:21Z</time>
      </trkpt>
      <trkpt lat="44.07513" lon="5.9187">
        <ele>628.126</ele>
        <time>2020-09-02T14:01:22Z</time>
      </trkpt>
      <trkpt lat="44.07507" lon="5.91895">
        <ele>626.274</ele>
        <time>2020-09-02T14:01:23Z</time>
      </trkpt>
      <trkpt lat="44.07501" lon="5.91919">
        <ele>625.07</ele>
        <time>2020-09-02T14:01:24Z</time>
      </trkpt>
      <trkpt lat="44.07494" lon="5.91939">
        <ele>624.163</ele>
        <time>2020-09-02T14:01:25Z</time>
      </trkpt>
      <trkpt lat="44.07484" lon="5.91954">
        <ele>623.628</ele>
        <time>2020-09-02T14:01:26Z</time>
      </trkpt>
      <trkpt lat="44.07475" lon="5.91967">
        <ele>622.789</ele>
        <time>2020-09-02T14:01:27Z</time>
      </trkpt>
      <trkpt lat="44.07463" lon="5.91979">
        <ele>622.117</ele>
        <time>2020-09-02T14:01:28Z</time>
      </trkpt>
      <trkpt lat="44.07447" lon="5.91992">
        <ele>621.408</ele>
        <time>2020-09-02T14:01:29Z</time>
      </trkpt>
      <trkpt lat="44.07432" lon="5.9201">
        <ele>620.13</ele>
        <time>2020-09-02T14:01:30Z</time>
      </trkpt>
      <trkpt lat="44.07417" lon="5.92029">
        <ele>619.399</ele>
        <time>2020-09-02T14:01:31Z</time>
      </trkpt>
      <trkpt lat="44.07404" lon="5.92049">
        <ele>618.019</ele>
        <time>2020-09-02T14:01:32Z</time>
      </trkpt>
      <trkpt lat="44.07392" lon="5.92069">
        <ele>617.386</ele>
        <time>2020-09-02T14:01:33Z</time>
      </trkpt>
      <trkpt lat="44.07381" lon="5.92088">
        <ele>616.587</ele>
        <time>2020-09-02T14:01:34Z</time>
      </trkpt>
      <trkpt lat="44.07372" lon="5.92107">
        <ele>614.885</ele>
        <time>2020-09-02T14:01:35Z</time>
      </trkpt>
      <trkpt lat="44.07366" lon="5.92125">
        <ele>613.761</ele>
        <time>2020-09-02T14:01:36Z</time>
      </trkpt>
      <trkpt lat="44.07361" lon="5.92141">
        <ele>613.034</ele>
        <time>2020-09-02T14:01:37Z</time>
      </trkpt>
      <trkpt lat="44.07352" lon="5.92152">
        <ele>612.558</ele>
        <time>2020-09-02T14:01:38Z</time>
      </trkpt>
      <trkpt lat="44.0734" lon="5.92161">
        <ele>612.452</ele>
        <time>2020-09-02T14:01:39Z</time>
      </trkpt>
      <trkpt lat="44.07328" lon="5.92172">
        <ele>611.717</ele>
        <time>2020-09-02T14:01:40Z</time>
      </trkpt>
      <trkpt lat="44.07315" lon="5.92186">
        <ele>610.908</ele>
        <time>2020-09-02T14:01:41Z</time>
      </trkpt>
      <trkpt lat="44.07302" lon="5.92202">
        <ele>610.373</ele>
        <time>2020-09-02T14:01:42Z</time>
      </trkpt>
      <trkpt lat="44.07289" lon="5.9222">
        <ele>610.142</ele>
        <time>2020-09-02T14:01:43Z</time>
      </trkpt>
      <trkpt lat="44.07277" lon="5.9224">
        <ele>609.742</ele>
        <time>2020-09-02T14:01:44Z</time>
      </trkpt>
      <trkpt lat="44.07266" lon="5.92262">
        <ele>608.789</ele>
        <time>2020-09-02T14:01:45Z</time>
      </trkpt>
      <trkpt lat="44.07255" lon="5.92285">
        <ele>607.87</ele>
        <time>2020-09-02T14:01:46Z</time>
      </trkpt>
      <trkpt lat="44.07245" lon="5.92308">
        <ele>606.998</ele>
        <time>2020-09-02T14:01:47Z</time>
      </trkpt>
      <trkpt lat="44.07235" lon="5.92331">
        <ele>605.934</ele>
        <time>2020-09-02T14:01:48Z</time>
      </trkpt>
      <trkpt lat="44.07227" lon="5.92352">
        <ele>604.767</ele>
        <time>2020-09-02T14:01:49Z</time>
      </trkpt>
      <trkpt lat="44.07217" lon="5.92372">
        <ele>603.838</ele>
        <time>2020-09-02T14:01:50Z</time>
      </trkpt>
      <trkpt lat="44.07205" lon="5.92389">
        <ele>602.97</ele>
        <time>2020-09-02T14:01:51Z</time>
      </trkpt>
      <trkpt lat="44.07192" lon="5.92407">
        <ele>601.917</ele>
        <time>2020-09-02T14:01:52Z</time>
      </trkpt>
      <trkpt lat="44.07179" lon="5.92424">
        <ele>600.908</ele>
        <time>2020-09-02T14:01:53Z</time>
      </trkpt>
      <trkpt lat="44.07166" lon="5.92439">
        <ele>599.921</ele>
        <time>2020-09-02T14:01:54Z</time>
      </trkpt>
      <trkpt lat="44.07151" lon="5.92449">
        <ele>599.22</ele>
        <time>2020-09-02T14:01:55Z</time>
      </trkpt>
      <trkpt lat="44.07134" lon="5.92457">
        <ele>598.73</ele>
        <time>2020-09-02T14:01:56Z</time>
      </trkpt>
      <trkpt lat="44.07117" lon="5.92465">
        <ele>597.277</ele>
        <time>2020-09-02T14:01:57Z</time>
      </trkpt>
      <trkpt lat="44.07099" lon="5.92476">
        <ele>596.858</ele>
        <time>2020-09-02T14:01:58Z</time>
      </trkpt>
      <trkpt lat="44.07081" lon="5.92488">
        <ele>595.846</ele>
        <time>2020-09-02T14:01:59Z</time>
      </trkpt>
      <trkpt lat="44.07063" lon="5.925">
        <ele>595.152</ele>
        <time>2020-09-02T14:02:00Z</time>
      </trkpt>
      <trkpt lat="44.07046" lon="5.92511">
        <ele>594.225</ele>
        <time>2020-09-02T14:02:01Z</time>
      </trkpt>
      <trkpt lat="44.07029" lon="5.9252">
        <ele>593.646</ele>
        <time>2020-09-02T14:02:02Z</time>
      </trkpt>
      <trkpt lat="44.07012" lon="5.92528">
        <ele>592.788</ele>
        <time>2020-09-02T14:02:03Z</time>
      </trkpt>
      <trkpt lat="44.06995" lon="5.92534">
        <ele>591.616</ele>
        <time>2020-09-02T14:02:04Z</time>
      </trkpt>
      <trkpt lat="44.06979" lon="5.92538">
        <ele>590.508</ele>
        <time>2020-09-02T14:02:05Z</time>
      </trkpt>
      <trkpt lat="44.06962" lon="5.92539">
        <ele>589.772</ele>
        <time>2020-09-02T14:02:06Z</time>
      </trkpt>
      <trkpt lat="44.06946" lon="5.92538">
        <ele>588.241</ele>
        <time>2020-09-02T14:02:07Z</time>
      </trkpt>
      <trkpt lat="44.06931" lon="5.92535">
        <ele>586.811</ele>
        <time>2020-09-02T14:02:08Z</time>
      </trkpt>
      <trkpt lat="44.06917" lon="5.92533">
        <ele>585.528</ele>
        <time>2020-09-02T14:02:09Z</time>
      </trkpt>
      <trkpt lat="44.06902" lon="5.92534">
        <ele>584.039</ele>
        <time>2020-09-02T14:02:10Z</time>
      </trkpt>
      <trkpt lat="44.06888" lon="5.92536">
        <ele>583.687</ele>
        <time>2020-09-02T14:02:11Z</time>
      </trkpt>
      <trkpt lat="44.06874" lon="5.92547">
        <ele>582.643</ele>
        <time>2020-09-02T14:02:12Z</time>
      </trkpt>
      <trkpt lat="44.06861" lon="5.92563">
        <ele>581.486</ele>
        <time>2020-09-02T14:02:13Z</time>
      </trkpt>
      <trkpt lat="44.06848" lon="5.92577">
        <ele>580.423</ele>
        <time>2020-09-02T14:02:14Z</time>
      </trkpt>
      <trkpt lat="44.06834" lon="5.92591">
        <ele>580.083</ele>
        <time>2020-09-02T14:02:15Z</time>
      </trkpt>
      <trkpt lat="44.0682" lon="5.92603">
        <ele>579.011</ele>
        <time>2020-09-02T14:02:16Z</time>
      </trkpt>
      <trkpt lat="44.06806" lon="5.92615">
        <ele>578.508</ele>
        <time>2020-09-02T14:02:17Z</time>
      </trkpt>
      <trkpt lat="44.06791" lon="5.92626">
        <ele>577.56</ele>
        <time>2020-09-02T14:02:18Z</time>
      </trkpt>
      <trkpt lat="44.06777" lon="5.92639">
        <ele>576.679</ele>
        <time>2020-09-02T14:02:19Z</time>
      </trkpt>
      <trkpt lat="44.06763" lon="5.92652">
        <ele>575.999</ele>
        <time>2020-09-02T14:02:20Z</time>
      </trkpt>
      <trkpt lat="44.0675" lon="5.92666">
        <ele>575.966</ele>
        <time>2020-09-02T14:02:21Z</time>
      </trkpt>
      <trkpt lat="44.06738" lon="5.92681">
        <ele>575.297</ele>
        <time>2020-09-02T14:02:22Z</time>
      </trkpt>
      <trkpt lat="44.06728" lon="5.92699">
        <ele>574.115</ele>
        <time>2020-09-02T14:02:23Z</time>
      </trkpt>
      <trkpt lat="44.06718" lon="5.9272">
        <ele>573.441</ele>
        <time>2020-09-02T14:02:24Z</time>
      </trkpt>
      <trkpt lat="44.06708" lon="5.92742">
        <ele>572.434</ele>
        <time>2020-09-02T14:02:25Z</time>
      </trkpt>
      <trkpt lat="44.06698" lon="5.92766">
        <ele>571.614</ele>
        <time>2020-09-02T14:02:26Z</time>
      </trkpt>
      <trkpt lat="44.06688" lon="5.92789">
        <ele>570.954</ele>
        <time>2020-09-02T14:02:27Z</time>
      </trkpt>
      <trkpt lat="44.06677" lon="5.92814">
        <ele>570.009</ele>
        <time>2020-09-02T14:02:28Z</time>
      </trkpt>
      <trkpt lat="44.06665" lon="5.92838">
        <ele>569.308</ele>
        <time>2020-09-02T14:02:29Z</time>
      </trkpt>
      <trkpt lat="44.06654" lon="5.92863">
        <ele>568.619</ele>
        <time>2020-09-02T14:02:30Z</time>
      </trkpt>
      <trkpt lat="44.06644" lon="5.92887">
        <ele>567.648</ele>
        <time>2020-09-02T14:02:31Z</time>
      </trkpt>
      <trkpt lat="44.06636" lon="5.9291">
        <ele>566.968</ele>
        <time>2020-09-02T14:02:32Z</time>
      </trkpt>
      <trkpt lat="44.06631" lon="5.9293">
        <ele>566.575</ele>
        <time>2020-09-02T14:02:33Z</time>
      </trkpt>
      <trkpt lat="44.0663" lon="5.92948">
        <ele>566.216</ele>
        <time>2020-09-02T14:02:34Z</time>
      </trkpt>
      <trkpt lat="44.06628" lon="5.92962">
        <ele>566.194</ele>
        <time>2020-09-02T14:02:35Z</time>
      </trkpt>
      <trkpt lat="44.06622" lon="5.92972">
        <ele>565.78</ele>
        <time>2020-09-02T14:02:36Z</time>
      </trkpt>
      <trkpt lat="44.06616" lon="5.92981">
        <ele>565.443</ele>
        <time>2020-09-02T14:02:37Z</time>
      </trkpt>
      <trkpt lat="44.06602" lon="5.92987">
        <ele>564.393</ele>
        <time>2020-09-02T14:02:38Z</time>
      </trkpt>
      <trkpt lat="44.06588" lon="5.92996">
        <ele>563.765</ele>
        <time>2020-09-02T14:02:39Z</time>
      </trkpt>
      <trkpt lat="44.06575" lon="5.93009">
        <ele>562.721</ele>
        <time>2020-09-02T14:02:40Z</time>
      </trkpt>
      <trkpt lat="44.06562" lon="5.93023">
        <ele>562.008</ele>
        <time>2020-09-02T14:02:41Z</time>
      </trkpt>
      <trkpt lat="44.06549" lon="5.9304">
        <ele>561.587</ele>
        <time>2020-09-02T14:02:42Z</time>
      </trkpt>
      <trkpt lat="44.06537" lon="5.93058">
        <ele>561.246</ele>
        <time>2020-09-02T14:02:43Z</time>
      </trkpt>
      <trkpt lat="44.06525" lon="5.93079">
        <ele>560.576</ele>
        <time>2020-09-02T14:02:44Z</time>
      </trkpt>
      <trkpt lat="44.06515" lon="5.93103">
        <ele>560.363</ele>
        <time>2020-09-02T14:02:45Z</time>
      </trkpt>
      <trkpt lat="44.06507" lon="5.93128">
        <ele>560.054</ele>
        <time>2020-09-02T14:02:46Z</time>
      </trkpt>
      <trkpt lat="44.06497" lon="5.93153">
        <ele>559.592</ele>
        <time>2020-09-02T14:02:47Z</time>
      </trkpt>
      <trkpt lat="44.06486" lon="5.93177">
        <ele>559.018</ele>
        <time>2020-09-02T14:02:48Z</time>
      </trkpt>
      <trkpt lat="44.06474" lon="5.93199">
        <ele>558.411</ele>
        <time>2020-09-02T14:02:49Z</time>
      </trkpt>
      <trkpt lat="44.0646" lon="5.93219">
        <ele>558.195</ele>
        <time>2020-09-02T14:02:50Z</time>
      </trkpt>
      <trkpt lat="44.06445" lon="5.93237">
        <ele>558.249</ele>
        <time>2020-09-02T14:02:51Z</time>
      </trkpt>
      <trkpt lat="44.06429" lon="5.93254">
        <ele>558.023</ele>
        <time>2020-09-02T14:02:52Z</time>
      </trkpt>
      <trkpt lat="44.06415" lon="5.93271">
        <ele>557.808</ele>
        <time>2020-09-02T14:02:53Z</time>
      </trkpt>
      <trkpt lat="44.06403" lon="5.93287">
        <ele>557.617</ele>
        <time>2020-09-02T14:02:54Z</time>
      </trkpt>
      <trkpt lat="44.06395" lon="5.93301">
        <ele>557.736</ele>
        <time>2020-09-02T14:02:55Z</time>
      </trkpt>
      <trkpt lat="44.0639" lon="5.93313">
        <ele>557.436</ele>
        <time>2020-09-02T14:02:56Z</time>
      </trkpt>
      <trkpt lat="44.06391" lon="5.93326">
        <ele>556.943</ele>
        <time>2020-09-02T14:02:57Z</time>
      </trkpt>
      <trkpt lat="44.06397" lon="5.93338">
        <ele>556.474</ele>
        <time>2020-09-02T14:02:58Z</time>
      </trkpt>
      <trkpt lat="44.06403" lon="5.93349">
        <ele>555.922</ele>
        <time>2020-09-02T14:02:59Z</time>
      </trkpt>
      <trkpt lat="44.0641" lon="5.93359">
        <ele>555.388</ele>
        <time>2020-09-02T14:03:00Z</time>
      </trkpt>
      <trkpt lat="44.06421" lon="5.93364">
        <ele>554.981</ele>
        <time>2020-09-02T14:03:01Z</time>
      </trkpt>
      <trkpt lat="44.06438" lon="5.93363">
        <ele>554.576</ele>
        <time>2020-09-02T14:03:02Z</time>
      </trkpt>
      <trkpt lat="44.06448" lon="5.93367">
        <ele>554.59</ele>
        <time>2020-09-02T14:03:03Z</time>
      </trkpt>
      <trkpt lat="44.06456" lon="5.93372">
        <ele>554.719</ele>
        <time>2020-09-02T14:03:04Z</time>
      </trkpt>
      <trkpt lat="44.06459" lon="5.93379">
        <ele>555.008</ele>
        <time>2020-09-02T14:03:05Z</time>
      </trkpt>
      <trkpt lat="44.06456" lon="5.93389">
        <ele>555.695</ele>
        <time>2020-09-02T14:03:06Z</time>
      </trkpt>
      <trkpt lat="44.06451" lon="5.93398">
        <ele>554.534</ele>
        <time>2020-09-02T14:03:07Z</time>
      </trkpt>
      <trkpt lat="44.06443" lon="5.93405">
        <ele>554.334</ele>
        <time>2020-09-02T14:03:08Z</time>
      </trkpt>
      <trkpt lat="44.06423" lon="5.93403">
        <ele>555.111</ele>
        <time>2020-09-02T14:03:09Z</time>
      </trkpt>
      <trkpt lat="44.06409" lon="5.93408">
        <ele>555.242</ele>
        <time>2020-09-02T14:03:10Z</time>
      </trkpt>
      <trkpt lat="44.06394" lon="5.93416">
        <ele>555.09</ele>
        <time>2020-09-02T14:03:11Z</time>
      </trkpt>
      <trkpt lat="44.06382" lon="5.93426">
        <ele>554.386</ele>
        <time>2020-09-02T14:03:12Z</time>
      </trkpt>
      <trkpt lat="44.06369" lon="5.93441">
        <ele>553.769</ele>
        <time>2020-09-02T14:03:13Z</time>
      </trkpt>
      <trkpt lat="44.06356" lon="5.93457">
        <ele>552.683</ele>
        <time>2020-09-02T14:03:14Z</time>
      </trkpt>
      <trkpt lat="44.06343" lon="5.93474">
        <ele>551.725</ele>
        <time>2020-09-02T14:03:15Z</time>
      </trkpt>
      <trkpt lat="44.06332" lon="5.93491">
        <ele>551.217</ele>
        <time>2020-09-02T14:03:16Z</time>
      </trkpt>
      <trkpt lat="44.06321" lon="5.93507">
        <ele>550.208</ele>
        <time>2020-09-02T14:03:17Z</time>
      </trkpt>
      <trkpt lat="44.06314" lon="5.93525">
        <ele>549.796</ele>
        <time>2020-09-02T14:03:18Z</time>
      </trkpt>
      <trkpt lat="44.06309" lon="5.93543">
        <ele>548.915</ele>
        <time>2020-09-02T14:03:19Z</time>
      </trkpt>
      <trkpt lat="44.06308" lon="5.93561">
        <ele>548.015</ele>
        <time>2020-09-02T14:03:20Z</time>
      </trkpt>
      <trkpt lat="44.06311" lon="5.93578">
        <ele>547.112</ele>
        <time>2020-09-02T14:03:21Z</time>
      </trkpt>
      <trkpt lat="44.06316" lon="5.93593">
        <ele>546.913</ele>
        <time>2020-09-02T14:03:22Z</time>
      </trkpt>
      <trkpt lat="44.06319" lon="5.93609">
        <ele>546.391</ele>
        <time>2020-09-02T14:03:23Z</time>
      </trkpt>
      <trkpt lat="44.06318" lon="5.93626">
        <ele>546.037</ele>
        <time>2020-09-02T14:03:24Z</time>
      </trkpt>
      <trkpt lat="44.06315" lon="5.93641">
        <ele>546.14</ele>
        <time>2020-09-02T14:03:25Z</time>
      </trkpt>
      <trkpt lat="44.06305" lon="5.93652">
        <ele>547.017</ele>
        <time>2020-09-02T14:03:26Z</time>
      </trkpt>
      <trkpt lat="44.06296" lon="5.93662">
        <ele>546.987</ele>
        <time>2020-09-02T14:03:27Z</time>
      </trkpt>
      <trkpt lat="44.06282" lon="5.93669">
        <ele>546.715</ele>
        <time>2020-09-02T14:03:28Z</time>
      </trkpt>
      <trkpt lat="44.06269" lon="5.9368">
        <ele>546.108</ele>
        <time>2020-09-02T14:03:29Z</time>
      </trkpt>
      <trkpt lat="44.06258" lon="5.93693">
        <ele>544.959</ele>
        <time>2020-09-02T14:03:30Z</time>
      </trkpt>
      <trkpt lat="44.06245" lon="5.93707">
        <ele>544.288</ele>
        <time>2020-09-02T14:03:31Z</time>
      </trkpt>
      <trkpt lat="44.06232" lon="5.93722">
        <ele>543.248</ele>
        <time>2020-09-02T14:03:32Z</time>
      </trkpt>
      <trkpt lat="44.06218" lon="5.93739">
        <ele>542.485</ele>
        <time>2020-09-02T14:03:33Z</time>
      </trkpt>
      <trkpt lat="44.06204" lon="5.93755">
        <ele>540.726</ele>
        <time>2020-09-02T14:03:34Z</time>
      </trkpt>
      <trkpt lat="44.06189" lon="5.93771">
        <ele>539.764</ele>
        <time>2020-09-02T14:03:35Z</time>
      </trkpt>
      <trkpt lat="44.06175" lon="5.93788">
        <ele>538.79</ele>
        <time>2020-09-02T14:03:36Z</time>
      </trkpt>
      <trkpt lat="44.0616" lon="5.93806">
        <ele>537.683</ele>
        <time>2020-09-02T14:03:37Z</time>
      </trkpt>
      <trkpt lat="44.06145" lon="5.93826">
        <ele>535.879</ele>
        <time>2020-09-02T14:03:38Z</time>
      </trkpt>
      <trkpt lat="44.0613" lon="5.93846">
        <ele>534.905</ele>
        <time>2020-09-02T14:03:39Z</time>
      </trkpt>
      <trkpt lat="44.06116" lon="5.93866">
        <ele>534.025</ele>
        <time>2020-09-02T14:03:40Z</time>
      </trkpt>
      <trkpt lat="44.06102" lon="5.93887">
        <ele>532.308</ele>
        <time>2020-09-02T14:03:41Z</time>
      </trkpt>
      <trkpt lat="44.06088" lon="5.93908">
        <ele>531.745</ele>
        <time>2020-09-02T14:03:42Z</time>
      </trkpt>
      <trkpt lat="44.06077" lon="5.93927">
        <ele>529.144</ele>
        <time>2020-09-02T14:03:43Z</time>
      </trkpt>
      <trkpt lat="44.06064" lon="5.93945">
        <ele>528.334</ele>
        <time>2020-09-02T14:03:44Z</time>
      </trkpt>
      <trkpt lat="44.06051" lon="5.9396">
        <ele>527.441</ele>
        <time>2020-09-02T14:03:45Z</time>
      </trkpt>
      <trkpt lat="44.06039" lon="5.93973">
        <ele>526.592</ele>
        <time>2020-09-02T14:03:46Z</time>
      </trkpt>
      <trkpt lat="44.0603" lon="5.93985">
        <ele>526.04</ele>
        <time>2020-09-02T14:03:47Z</time>
      </trkpt>
      <trkpt lat="44.06025" lon="5.93997">
        <ele>524.566</ele>
        <time>2020-09-02T14:03:48Z</time>
      </trkpt>
      <trkpt lat="44.06025" lon="5.9401">
        <ele>524.099</ele>
        <time>2020-09-02T14:03:49Z</time>
      </trkpt>
      <trkpt lat="44.06029" lon="5.94021">
        <ele>523.699</ele>
        <time>2020-09-02T14:03:50Z</time>
      </trkpt>
      <trkpt lat="44.06037" lon="5.94028">
        <ele>523.407</ele>
        <time>2020-09-02T14:03:51Z</time>
      </trkpt>
      <trkpt lat="44.06047" lon="5.9403">
        <ele>523.027</ele>
        <time>2020-09-02T14:03:52Z</time>
      </trkpt>
      <trkpt lat="44.0606" lon="5.9403">
        <ele>522.608</ele>
        <time>2020-09-02T14:03:53Z</time>
      </trkpt>
      <trkpt lat="44.06074" lon="5.94028">
        <ele>521.757</ele>
        <time>2020-09-02T14:03:54Z</time>
      </trkpt>
      <trkpt lat="44.0609" lon="5.94026">
        <ele>521.066</ele>
        <time>2020-09-02T14:03:55Z</time>
      </trkpt>
      <trkpt lat="44.06107" lon="5.94023">
        <ele>520.256</ele>
        <time>2020-09-02T14:03:56Z</time>
      </trkpt>
      <trkpt lat="44.06124" lon="5.94019">
        <ele>519.643</ele>
        <time>2020-09-02T14:03:57Z</time>
      </trkpt>
      <trkpt lat="44.06143" lon="5.94017">
        <ele>519.024</ele>
        <time>2020-09-02T14:03:58Z</time>
      </trkpt>
      <trkpt lat="44.06161" lon="5.94019">
        <ele>517.942</ele>
        <time>2020-09-02T14:03:59Z</time>
      </trkpt>
      <trkpt lat="44.06182" lon="5.94022">
        <ele>517.088</ele>
        <time>2020-09-02T14:04:00Z</time>
      </trkpt>
      <trkpt lat="44.06202" lon="5.94024">
        <ele>516.491</ele>
        <time>2020-09-02T14:04:01Z</time>
      </trkpt>
      <trkpt lat="44.06223" lon="5.94026">
        <ele>515.818</ele>
        <time>2020-09-02T14:04:02Z</time>
      </trkpt>
      <trkpt lat="44.06242" lon="5.94027">
        <ele>514.898</ele>
        <time>2020-09-02T14:04:03Z</time>
      </trkpt>
      <trkpt lat="44.06262" lon="5.94029">
        <ele>513.817</ele>
        <time>2020-09-02T14:04:04Z</time>
      </trkpt>
      <trkpt lat="44.06281" lon="5.94026">
        <ele>512.708</ele>
        <time>2020-09-02T14:04:05Z</time>
      </trkpt>
      <trkpt lat="44.06301" lon="5.94023">
        <ele>511.929</ele>
        <time>2020-09-02T14:04:06Z</time>
      </trkpt>
      <trkpt lat="44.06319" lon="5.94016">
        <ele>511.738</ele>
        <time>2020-09-02T14:04:07Z</time>
      </trkpt>
      <trkpt lat="44.06338" lon="5.94003">
        <ele>511.448</ele>
        <time>2020-09-02T14:04:08Z</time>
      </trkpt>
      <trkpt lat="44.06353" lon="5.93992">
        <ele>509.425</ele>
        <time>2020-09-02T14:04:09Z</time>
      </trkpt>
      <trkpt lat="44.06368" lon="5.9398">
        <ele>509.386</ele>
        <time>2020-09-02T14:04:10Z</time>
      </trkpt>
      <trkpt lat="44.06382" lon="5.93969">
        <ele>509.054</ele>
        <time>2020-09-02T14:04:11Z</time>
      </trkpt>
      <trkpt lat="44.06396" lon="5.93963">
        <ele>509.11</ele>
        <time>2020-09-02T14:04:12Z</time>
      </trkpt>
      <trkpt lat="44.0641" lon="5.93958">
        <ele>509.463</ele>
        <time>2020-09-02T14:04:13Z</time>
      </trkpt>
      <trkpt lat="44.06423" lon="5.93953">
        <ele>509.521</ele>
        <time>2020-09-02T14:04:14Z</time>
      </trkpt>
      <trkpt lat="44.06432" lon="5.93959">
        <ele>509.141</ele>
        <time>2020-09-02T14:04:15Z</time>
      </trkpt>
      <trkpt lat="44.06439" lon="5.93963">
        <ele>508.805</ele>
        <time>2020-09-02T14:04:16Z</time>
      </trkpt>
      <trkpt lat="44.06443" lon="5.93972">
        <ele>508.408</ele>
        <time>2020-09-02T14:04:17Z</time>
      </trkpt>
      <trkpt lat="44.06441" lon="5.93982">
        <ele>507.87</ele>
        <time>2020-09-02T14:04:18Z</time>
      </trkpt>
      <trkpt lat="44.06435" lon="5.93988">
        <ele>507.599</ele>
        <time>2020-09-02T14:04:19Z</time>
      </trkpt>
      <trkpt lat="44.06426" lon="5.93992">
        <ele>507.199</ele>
        <time>2020-09-02T14:04:20Z</time>
      </trkpt>
      <trkpt lat="44.06415" lon="5.93991">
        <ele>506.016</ele>
        <time>2020-09-02T14:04:21Z</time>
      </trkpt>
      <trkpt lat="44.06403" lon="5.93991">
        <ele>504.747</ele>
        <time>2020-09-02T14:04:22Z</time>
      </trkpt>
      <trkpt lat="44.0639" lon="5.93993">
        <ele>504.475</ele>
        <time>2020-09-02T14:04:23Z</time>
      </trkpt>
      <trkpt lat="44.06376" lon="5.93996">
        <ele>503.711</ele>
        <time>2020-09-02T14:04:24Z</time>
      </trkpt>
      <trkpt lat="44.06362" lon="5.94005">
        <ele>503.424</ele>
        <time>2020-09-02T14:04:25Z</time>
      </trkpt>
      <trkpt lat="44.06348" lon="5.94014">
        <ele>502.994</ele>
        <time>2020-09-02T14:04:26Z</time>
      </trkpt>
      <trkpt lat="44.06334" lon="5.94025">
        <ele>501.657</ele>
        <time>2020-09-02T14:04:27Z</time>
      </trkpt>
      <trkpt lat="44.06321" lon="5.94034">
        <ele>500.722</ele>
        <time>2020-09-02T14:04:28Z</time>
      </trkpt>
      <trkpt lat="44.06308" lon="5.94043">
        <ele>499.808</ele>
        <time>2020-09-02T14:04:29Z</time>
      </trkpt>
      <trkpt lat="44.06295" lon="5.94052">
        <ele>499.537</ele>
        <time>2020-09-02T14:04:30Z</time>
      </trkpt>
      <trkpt lat="44.06281" lon="5.94058">
        <ele>498.926</ele>
        <time>2020-09-02T14:04:31Z</time>
      </trkpt>
      <trkpt lat="44.06267" lon="5.94065">
        <ele>498.796</ele>
        <time>2020-09-02T14:04:32Z</time>
      </trkpt>
      <trkpt lat="44.06251" lon="5.94068">
        <ele>497.743</ele>
        <time>2020-09-02T14:04:33Z</time>
      </trkpt>
      <trkpt lat="44.06235" lon="5.94071">
        <ele>496.934</ele>
        <time>2020-09-02T14:04:34Z</time>
      </trkpt>
      <trkpt lat="44.06218" lon="5.94075">
        <ele>495.852</ele>
        <time>2020-09-02T14:04:35Z</time>
      </trkpt>
      <trkpt lat="44.06201" lon="5.94078">
        <ele>494.348</ele>
        <time>2020-09-02T14:04:36Z</time>
      </trkpt>
      <trkpt lat="44.06184" lon="5.9408">
        <ele>493.331</ele>
        <time>2020-09-02T14:04:37Z</time>
      </trkpt>
      <trkpt lat="44.06167" lon="5.94085">
        <ele>492.288</ele>
        <time>2020-09-02T14:04:38Z</time>
      </trkpt>
      <trkpt lat="44.0615" lon="5.94092">
        <ele>491.624</ele>
        <time>2020-09-02T14:04:39Z</time>
      </trkpt>
      <trkpt lat="44.06133" lon="5.941">
        <ele>490.726</ele>
        <time>2020-09-02T14:04:40Z</time>
      </trkpt>
      <trkpt lat="44.06117" lon="5.94108">
        <ele>489.808</ele>
        <time>2020-09-02T14:04:41Z</time>
      </trkpt>
      <trkpt lat="44.061" lon="5.94114">
        <ele>488.266</ele>
        <time>2020-09-02T14:04:42Z</time>
      </trkpt>
      <trkpt lat="44.06083" lon="5.9412">
        <ele>487.325</ele>
        <time>2020-09-02T14:04:43Z</time>
      </trkpt>
      <trkpt lat="44.06065" lon="5.94124">
        <ele>486.395</ele>
        <time>2020-09-02T14:04:44Z</time>
      </trkpt>
      <trkpt lat="44.06047" lon="5.94129">
        <ele>485.712</ele>
        <time>2020-09-02T14:04:45Z</time>
      </trkpt>
      <trkpt lat="44.06029" lon="5.94134">
        <ele>485.063</ele>
        <time>2020-09-02T14:04:46Z</time>
      </trkpt>
      <trkpt lat="44.06011" lon="5.94138">
        <ele>483.921</ele>
        <time>2020-09-02T14:04:47Z</time>
      </trkpt>
      <trkpt lat="44.05993" lon="5.9414">
        <ele>482.597</ele>
        <time>2020-09-02T14:04:48Z</time>
      </trkpt>
      <trkpt lat="44.05975" lon="5.94141">
        <ele>481.94</ele>
        <time>2020-09-02T14:04:49Z</time>
      </trkpt>
      <trkpt lat="44.0596" lon="5.94137">
        <ele>480.159</ele>
        <time>2020-09-02T14:04:50Z</time>
      </trkpt>
      <trkpt lat="44.05948" lon="5.94132">
        <ele>478.903</ele>
        <time>2020-09-02T14:04:51Z</time>
      </trkpt>
      <trkpt lat="44.05938" lon="5.94122">
        <ele>477.823</ele>
        <time>2020-09-02T14:04:52Z</time>
      </trkpt>
      <trkpt lat="44.05931" lon="5.94109">
        <ele>476.908</ele>
        <time>2020-09-02T14:04:53Z</time>
      </trkpt>
      <trkpt lat="44.0593" lon="5.94093">
        <ele>476.573</ele>
        <time>2020-09-02T14:04:54Z</time>
      </trkpt>
      <trkpt lat="44.05929" lon="5.9408">
        <ele>476.662</ele>
        <time>2020-09-02T14:04:55Z</time>
      </trkpt>
      <trkpt lat="44.05928" lon="5.94071">
        <ele>476.572</ele>
        <time>2020-09-02T14:04:56Z</time>
      </trkpt>
      <trkpt lat="44.05925" lon="5.94062">
        <ele>476.679</ele>
        <time>2020-09-02T14:04:57Z</time>
      </trkpt>
      <trkpt lat="44.05915" lon="5.94066">
        <ele>475.44</ele>
        <time>2020-09-02T14:04:59Z</time>
      </trkpt>
      <trkpt lat="44.05912" lon="5.94074">
        <ele>474.668</ele>
        <time>2020-09-02T14:05:00Z</time>
      </trkpt>
      <trkpt lat="44.05909" lon="5.94084">
        <ele>474.084</ele>
        <time>2020-09-02T14:05:01Z</time>
      </trkpt>
      <trkpt lat="44.05907" lon="5.94095">
        <ele>473.047</ele>
        <time>2020-09-02T14:05:02Z</time>
      </trkpt>
      <trkpt lat="44.05904" lon="5.94107">
        <ele>472.357</ele>
        <time>2020-09-02T14:05:03Z</time>
      </trkpt>
      <trkpt lat="44.059" lon="5.94119">
        <ele>471.9</ele>
        <time>2020-09-02T14:05:04Z</time>
      </trkpt>
      <trkpt lat="44.05894" lon="5.9413">
        <ele>470.52</ele>
        <time>2020-09-02T14:05:05Z</time>
      </trkpt>
      <trkpt lat="44.05886" lon="5.94141">
        <ele>469.208</ele>
        <time>2020-09-02T14:05:06Z</time>
      </trkpt>
      <trkpt lat="44.05876" lon="5.94151">
        <ele>467.963</ele>
        <time>2020-09-02T14:05:07Z</time>
      </trkpt>
      <trkpt lat="44.05864" lon="5.94162">
        <ele>466.632</ele>
        <time>2020-09-02T14:05:08Z</time>
      </trkpt>
      <trkpt lat="44.05851" lon="5.94174">
        <ele>464.952</ele>
        <time>2020-09-02T14:05:09Z</time>
      </trkpt>
      <trkpt lat="44.05838" lon="5.94186">
        <ele>463.559</ele>
        <time>2020-09-02T14:05:10Z</time>
      </trkpt>
      <trkpt lat="44.05824" lon="5.94196">
        <ele>461.07</ele>
        <time>2020-09-02T14:05:11Z</time>
      </trkpt>
      <trkpt lat="44.05808" lon="5.94207">
        <ele>459.248</ele>
        <time>2020-09-02T14:05:12Z</time>
      </trkpt>
      <trkpt lat="44.05791" lon="5.94218">
        <ele>457.474</ele>
        <time>2020-09-02T14:05:13Z</time>
      </trkpt>
      <trkpt lat="44.05774" lon="5.9423">
        <ele>455.347</ele>
        <time>2020-09-02T14:05:14Z</time>
      </trkpt>
      <trkpt lat="44.05758" lon="5.94243">
        <ele>454.628</ele>
        <time>2020-09-02T14:05:15Z</time>
      </trkpt>
      <trkpt lat="44.05741" lon="5.94258">
        <ele>454.289</ele>
        <time>2020-09-02T14:05:16Z</time>
      </trkpt>
      <trkpt lat="44.05726" lon="5.94271">
        <ele>454.017</ele>
        <time>2020-09-02T14:05:17Z</time>
      </trkpt>
      <trkpt lat="44.05711" lon="5.94283">
        <ele>453.908</ele>
        <time>2020-09-02T14:05:18Z</time>
      </trkpt>
      <trkpt lat="44.05698" lon="5.94296">
        <ele>454.12</ele>
        <time>2020-09-02T14:05:19Z</time>
      </trkpt>
      <trkpt lat="44.05687" lon="5.94311">
        <ele>454.449</ele>
        <time>2020-09-02T14:05:20Z</time>
      </trkpt>
      <trkpt lat="44.05678" lon="5.94328">
        <ele>454.349</ele>
        <time>2020-09-02T14:05:21Z</time>
      </trkpt>
      <trkpt lat="44.05673" lon="5.94348">
        <ele>454.296</ele>
        <time>2020-09-02T14:05:22Z</time>
      </trkpt>
      <trkpt lat="44.05671" lon="5.9437">
        <ele>453.637</ele>
        <time>2020-09-02T14:05:23Z</time>
      </trkpt>
      <trkpt lat="44.05672" lon="5.94394">
        <ele>453.095</ele>
        <time>2020-09-02T14:05:24Z</time>
      </trkpt>
      <trkpt lat="44.05674" lon="5.94419">
        <ele>452.291</ele>
        <time>2020-09-02T14:05:25Z</time>
      </trkpt>
      <trkpt lat="44.05675" lon="5.94446">
        <ele>451.394</ele>
        <time>2020-09-02T14:05:26Z</time>
      </trkpt>
      <trkpt lat="44.05677" lon="5.94474">
        <ele>450.472</ele>
        <time>2020-09-02T14:05:27Z</time>
      </trkpt>
      <trkpt lat="44.05678" lon="5.94503">
        <ele>450.113</ele>
        <time>2020-09-02T14:05:28Z</time>
      </trkpt>
      <trkpt lat="44.05681" lon="5.94533">
        <ele>448.714</ele>
        <time>2020-09-02T14:05:29Z</time>
      </trkpt>
      <trkpt lat="44.05684" lon="5.94561">
        <ele>448.408</ele>
        <time>2020-09-02T14:05:30Z</time>
      </trkpt>
      <trkpt lat="44.05687" lon="5.94588">
        <ele>448.465</ele>
        <time>2020-09-02T14:05:31Z</time>
      </trkpt>
      <trkpt lat="44.05691" lon="5.94612">
        <ele>448.264</ele>
        <time>2020-09-02T14:05:32Z</time>
      </trkpt>
      <trkpt lat="44.05694" lon="5.94635">
        <ele>447.434</ele>
        <time>2020-09-02T14:05:33Z</time>
      </trkpt>
      <trkpt lat="44.05696" lon="5.94657">
        <ele>446.841</ele>
        <time>2020-09-02T14:05:34Z</time>
      </trkpt>
      <trkpt lat="44.05694" lon="5.94679">
        <ele>445.942</ele>
        <time>2020-09-02T14:05:35Z</time>
      </trkpt>
      <trkpt lat="44.05689" lon="5.94701">
        <ele>445.91</ele>
        <time>2020-09-02T14:05:36Z</time>
      </trkpt>
      <trkpt lat="44.05682" lon="5.94723">
        <ele>446.176</ele>
        <time>2020-09-02T14:05:37Z</time>
      </trkpt>
      <trkpt lat="44.05675" lon="5.94747">
        <ele>445.759</ele>
        <time>2020-09-02T14:05:38Z</time>
      </trkpt>
      <trkpt lat="44.05668" lon="5.94769">
        <ele>445.641</ele>
        <time>2020-09-02T14:05:39Z</time>
      </trkpt>
      <trkpt lat="44.05661" lon="5.9479">
        <ele>444.781</ele>
        <time>2020-09-02T14:05:40Z</time>
      </trkpt>
      <trkpt lat="44.05653" lon="5.94809">
        <ele>444.409</ele>
        <time>2020-09-02T14:05:41Z</time>
      </trkpt>
      <trkpt lat="44.05643" lon="5.94826">
        <ele>444.008</ele>
        <time>2020-09-02T14:05:42Z</time>
      </trkpt>
      <trkpt lat="44.0563" lon="5.9484">
        <ele>443.622</ele>
        <time>2020-09-02T14:05:43Z</time>
      </trkpt>
      <trkpt lat="44.05614" lon="5.9485">
        <ele>443.051</ele>
        <time>2020-09-02T14:05:44Z</time>
      </trkpt>
      <trkpt lat="44.05598" lon="5.94857">
        <ele>442.491</ele>
        <time>2020-09-02T14:05:45Z</time>
      </trkpt>
      <trkpt lat="44.05579" lon="5.94857">
        <ele>441.818</ele>
        <time>2020-09-02T14:05:46Z</time>
      </trkpt>
      <trkpt lat="44.0556" lon="5.94856">
        <ele>441.879</ele>
        <time>2020-09-02T14:05:47Z</time>
      </trkpt>
      <trkpt lat="44.05541" lon="5.94853">
        <ele>441.767</ele>
        <time>2020-09-02T14:05:48Z</time>
      </trkpt>
      <trkpt lat="44.05521" lon="5.94852">
        <ele>441.513</ele>
        <time>2020-09-02T14:05:49Z</time>
      </trkpt>
      <trkpt lat="44.05502" lon="5.94853">
        <ele>441.796</ele>
        <time>2020-09-02T14:05:50Z</time>
      </trkpt>
      <trkpt lat="44.05482" lon="5.94858">
        <ele>441.399</ele>
        <time>2020-09-02T14:05:51Z</time>
      </trkpt>
      <trkpt lat="44.05461" lon="5.94868">
        <ele>441.007</ele>
        <time>2020-09-02T14:05:52Z</time>
      </trkpt>
      <trkpt lat="44.05445" lon="5.94881">
        <ele>440.227</ele>
        <time>2020-09-02T14:05:53Z</time>
      </trkpt>
      <trkpt lat="44.05426" lon="5.94899">
        <ele>441.408</ele>
        <time>2020-09-02T14:05:54Z</time>
      </trkpt>
      <trkpt lat="44.05408" lon="5.94912">
        <ele>440.977</ele>
        <time>2020-09-02T14:05:55Z</time>
      </trkpt>
      <trkpt lat="44.05389" lon="5.94925">
        <ele>441.396</ele>
        <time>2020-09-02T14:05:56Z</time>
      </trkpt>
      <trkpt lat="44.05371" lon="5.94937">
        <ele>441.156</ele>
        <time>2020-09-02T14:05:57Z</time>
      </trkpt>
      <trkpt lat="44.05351" lon="5.94948">
        <ele>441.023</ele>
        <time>2020-09-02T14:05:58Z</time>
      </trkpt>
      <trkpt lat="44.05332" lon="5.94957">
        <ele>440.374</ele>
        <time>2020-09-02T14:05:59Z</time>
      </trkpt>
      <trkpt lat="44.05311" lon="5.94964">
        <ele>439.932</ele>
        <time>2020-09-02T14:06:00Z</time>
      </trkpt>
      <trkpt lat="44.05291" lon="5.94969">
        <ele>438.028</ele>
        <time>2020-09-02T14:06:01Z</time>
      </trkpt>
      <trkpt lat="44.0527" lon="5.94975">
        <ele>436.931</ele>
        <time>2020-09-02T14:06:02Z</time>
      </trkpt>
      <trkpt lat="44.0525" lon="5.94981">
        <ele>436.045</ele>
        <time>2020-09-02T14:06:03Z</time>
      </trkpt>
      <trkpt lat="44.05229" lon="5.94988">
        <ele>435.347</ele>
        <time>2020-09-02T14:06:04Z</time>
      </trkpt>
      <trkpt lat="44.05209" lon="5.94997">
        <ele>434.711</ele>
        <time>2020-09-02T14:06:05Z</time>
      </trkpt>
      <trkpt lat="44.05189" lon="5.95008">
        <ele>434.208</ele>
        <time>2020-09-02T14:06:06Z</time>
      </trkpt>
      <trkpt lat="44.0517" lon="5.9502">
        <ele>433.672</ele>
        <time>2020-09-02T14:06:07Z</time>
      </trkpt>
      <trkpt lat="44.0515" lon="5.95033">
        <ele>433.131</ele>
        <time>2020-09-02T14:06:08Z</time>
      </trkpt>
      <trkpt lat="44.05131" lon="5.95044">
        <ele>432.921</ele>
        <time>2020-09-02T14:06:09Z</time>
      </trkpt>
      <trkpt lat="44.05111" lon="5.95056">
        <ele>432.138</ele>
        <time>2020-09-02T14:06:10Z</time>
      </trkpt>
      <trkpt lat="44.05092" lon="5.95065">
        <ele>431.459</ele>
        <time>2020-09-02T14:06:11Z</time>
      </trkpt>
      <trkpt lat="44.05072" lon="5.95076">
        <ele>431.227</ele>
        <time>2020-09-02T14:06:12Z</time>
      </trkpt>
      <trkpt lat="44.05052" lon="5.95087">
        <ele>430.823</ele>
        <time>2020-09-02T14:06:13Z</time>
      </trkpt>
      <trkpt lat="44.05034" lon="5.95101">
        <ele>430.676</ele>
        <time>2020-09-02T14:06:14Z</time>
      </trkpt>
      <trkpt lat="44.05016" lon="5.95115">
        <ele>430.438</ele>
        <time>2020-09-02T14:06:15Z</time>
      </trkpt>
      <trkpt lat="44.04999" lon="5.9513">
        <ele>430.77</ele>
        <time>2020-09-02T14:06:16Z</time>
      </trkpt>
      <trkpt lat="44.04981" lon="5.95144">
        <ele>430.917</ele>
        <time>2020-09-02T14:06:17Z</time>
      </trkpt>
      <trkpt lat="44.04965" lon="5.95159">
        <ele>431.708</ele>
        <time>2020-09-02T14:06:18Z</time>
      </trkpt>
      <trkpt lat="44.04947" lon="5.95171">
        <ele>432.061</ele>
        <time>2020-09-02T14:06:19Z</time>
      </trkpt>
      <trkpt lat="44.04928" lon="5.95182">
        <ele>432.57</ele>
        <time>2020-09-02T14:06:20Z</time>
      </trkpt>
      <trkpt lat="44.04909" lon="5.95191">
        <ele>432.67</ele>
        <time>2020-09-02T14:06:21Z</time>
      </trkpt>
      <trkpt lat="44.0489" lon="5.952">
        <ele>432.217</ele>
        <time>2020-09-02T14:06:22Z</time>
      </trkpt>
      <trkpt lat="44.0487" lon="5.95206">
        <ele>432.058</ele>
        <time>2020-09-02T14:06:23Z</time>
      </trkpt>
      <trkpt lat="44.04849" lon="5.95213">
        <ele>432.366</ele>
        <time>2020-09-02T14:06:24Z</time>
      </trkpt>
      <trkpt lat="44.04829" lon="5.95216">
        <ele>432.612</ele>
        <time>2020-09-02T14:06:25Z</time>
      </trkpt>
      <trkpt lat="44.04809" lon="5.95212">
        <ele>432.725</ele>
        <time>2020-09-02T14:06:26Z</time>
      </trkpt>
      <trkpt lat="44.04789" lon="5.95209">
        <ele>433.398</ele>
        <time>2020-09-02T14:06:27Z</time>
      </trkpt>
      <trkpt lat="44.04769" lon="5.95205">
        <ele>431.815</ele>
        <time>2020-09-02T14:06:28Z</time>
      </trkpt>
      <trkpt lat="44.04749" lon="5.95206">
        <ele>432.626</ele>
        <time>2020-09-02T14:06:29Z</time>
      </trkpt>
      <trkpt lat="44.0473" lon="5.95207">
        <ele>432.008</ele>
        <time>2020-09-02T14:06:30Z</time>
      </trkpt>
      <trkpt lat="44.04712" lon="5.95208">
        <ele>432.597</ele>
        <time>2020-09-02T14:06:31Z</time>
      </trkpt>
      <trkpt lat="44.04693" lon="5.9521">
        <ele>432.466</ele>
        <time>2020-09-02T14:06:32Z</time>
      </trkpt>
      <trkpt lat="44.04675" lon="5.95218">
        <ele>432.586</ele>
        <time>2020-09-02T14:06:33Z</time>
      </trkpt>
      <trkpt lat="44.04663" lon="5.95231">
        <ele>431.283</ele>
        <time>2020-09-02T14:06:34Z</time>
      </trkpt>
      <trkpt lat="44.04649" lon="5.95245">
        <ele>430.774</ele>
        <time>2020-09-02T14:06:35Z</time>
      </trkpt>
      <trkpt lat="44.04634" lon="5.9526">
        <ele>428.062</ele>
        <time>2020-09-02T14:06:36Z</time>
      </trkpt>
      <trkpt lat="44.04621" lon="5.95277">
        <ele>427.248</ele>
        <time>2020-09-02T14:06:37Z</time>
      </trkpt>
      <trkpt lat="44.04608" lon="5.95292">
        <ele>425.251</ele>
        <time>2020-09-02T14:06:38Z</time>
      </trkpt>
      <trkpt lat="44.04595" lon="5.95307">
        <ele>423.863</ele>
        <time>2020-09-02T14:06:39Z</time>
      </trkpt>
      <trkpt lat="44.04583" lon="5.95319">
        <ele>422.044</ele>
        <time>2020-09-02T14:06:40Z</time>
      </trkpt>
      <trkpt lat="44.04572" lon="5.9533">
        <ele>420.518</ele>
        <time>2020-09-02T14:06:41Z</time>
      </trkpt>
      <trkpt lat="44.04559" lon="5.95335">
        <ele>419.908</ele>
        <time>2020-09-02T14:06:42Z</time>
      </trkpt>
      <trkpt lat="44.04545" lon="5.95338">
        <ele>419.234</ele>
        <time>2020-09-02T14:06:43Z</time>
      </trkpt>
      <trkpt lat="44.04529" lon="5.95335">
        <ele>418.353</ele>
        <time>2020-09-02T14:06:44Z</time>
      </trkpt>
      <trkpt lat="44.04514" lon="5.95331">
        <ele>418.443</ele>
        <time>2020-09-02T14:06:45Z</time>
      </trkpt>
      <trkpt lat="44.045" lon="5.95327">
        <ele>418.54</ele>
        <time>2020-09-02T14:06:46Z</time>
      </trkpt>
      <trkpt lat="44.04487" lon="5.95323">
        <ele>419.171</ele>
        <time>2020-09-02T14:06:47Z</time>
      </trkpt>
      <trkpt lat="44.04476" lon="5.95323">
        <ele>419.389</ele>
        <time>2020-09-02T14:06:48Z</time>
      </trkpt>
      <trkpt lat="44.04465" lon="5.95324">
        <ele>419.535</ele>
        <time>2020-09-02T14:06:49Z</time>
      </trkpt>
      <trkpt lat="44.04455" lon="5.95324">
        <ele>419.658</ele>
        <time>2020-09-02T14:06:50Z</time>
      </trkpt>
      <trkpt lat="44.04447" lon="5.95328">
        <ele>419.643</ele>
        <time>2020-09-02T14:06:51Z</time>
      </trkpt>
      <trkpt lat="44.04441" lon="5.95331">
        <ele>419.664</ele>
        <time>2020-09-02T14:06:52Z</time>
      </trkpt>
      <trkpt lat="44.04434" lon="5.95335">
        <ele>419.21</ele>
        <time>2020-09-02T14:06:54Z</time>
      </trkpt>
      <trkpt lat="44.0443" lon="5.95342">
        <ele>419.808</ele>
        <time>2020-09-02T14:06:57Z</time>
      </trkpt>
      <trkpt lat="44.04431" lon="5.95353">
        <ele>419.362</ele>
        <time>2020-09-02T14:06:59Z</time>
      </trkpt>
      <trkpt lat="44.04433" lon="5.9536">
        <ele>419.351</ele>
        <time>2020-09-02T14:07:00Z</time>
      </trkpt>
      <trkpt lat="44.04436" lon="5.95367">
        <ele>418.831</ele>
        <time>2020-09-02T14:07:01Z</time>
      </trkpt>
      <trkpt lat="44.04439" lon="5.95373">
        <ele>418.228</ele>
        <time>2020-09-02T14:07:02Z</time>
      </trkpt>
      <trkpt lat="44.04443" lon="5.95379">
        <ele>417.419</ele>
        <time>2020-09-02T14:07:03Z</time>
      </trkpt>
      <trkpt lat="44.04444" lon="5.95385">
        <ele>417.117</ele>
        <time>2020-09-02T14:07:04Z</time>
      </trkpt>
      <trkpt lat="44.04446" lon="5.95393">
        <ele>416.753</ele>
        <time>2020-09-02T14:07:05Z</time>
      </trkpt>
      <trkpt lat="44.04448" lon="5.95399">
        <ele>416.496</ele>
        <time>2020-09-02T14:07:06Z</time>
      </trkpt>
      <trkpt lat="44.04449" lon="5.95405">
        <ele>416.537</ele>
        <time>2020-09-02T14:07:07Z</time>
      </trkpt>
      <trkpt lat="44.04452" lon="5.95412">
        <ele>417.049</ele>
        <time>2020-09-02T14:07:08Z</time>
      </trkpt>
      <trkpt lat="44.04454" lon="5.95419">
        <ele>416.913</ele>
        <time>2020-09-02T14:07:09Z</time>
      </trkpt>
      <trkpt lat="44.04456" lon="5.95427">
        <ele>416.908</ele>
        <time>2020-09-02T14:07:10Z</time>
      </trkpt>
      <trkpt lat="44.04458" lon="5.95437">
        <ele>417.281</ele>
        <time>2020-09-02T14:07:12Z</time>
      </trkpt>
      <trkpt lat="44.04458" lon="5.95444">
        <ele>417.15</ele>
        <time>2020-09-02T14:07:14Z</time>
      </trkpt>
      <trkpt lat="44.04455" lon="5.9545">
        <ele>416.79</ele>
        <time>2020-09-02T14:07:17Z</time>
      </trkpt>
      <trkpt lat="44.04452" lon="5.95457">
        <ele>416.377</ele>
        <time>2020-09-02T14:07:19Z</time>
      </trkpt>
      <trkpt lat="44.04447" lon="5.95462">
        <ele>415.848</ele>
        <time>2020-09-02T14:07:20Z</time>
      </trkpt>
      <trkpt lat="44.04443" lon="5.95468">
        <ele>415.536</ele>
        <time>2020-09-02T14:07:21Z</time>
      </trkpt>
      <trkpt lat="44.04438" lon="5.95475">
        <ele>415.692</ele>
        <time>2020-09-02T14:07:22Z</time>
      </trkpt>
      <trkpt lat="44.04432" lon="5.95482">
        <ele>415.985</ele>
        <time>2020-09-02T14:07:23Z</time>
      </trkpt>
      <trkpt lat="44.04425" lon="5.9549">
        <ele>415.619</ele>
        <time>2020-09-02T14:07:24Z</time>
      </trkpt>
      <trkpt lat="44.04419" lon="5.95498">
        <ele>415.209</ele>
        <time>2020-09-02T14:07:25Z</time>
      </trkpt>
      <trkpt lat="44.04412" lon="5.95507">
        <ele>415.319</ele>
        <time>2020-09-02T14:07:26Z</time>
      </trkpt>
      <trkpt lat="44.04404" lon="5.95516">
        <ele>415.008</ele>
        <time>2020-09-02T14:07:27Z</time>
      </trkpt>
      <trkpt lat="44.04397" lon="5.95525">
        <ele>414.619</ele>
        <time>2020-09-02T14:07:28Z</time>
      </trkpt>
      <trkpt lat="44.04389" lon="5.95534">
        <ele>414.638</ele>
        <time>2020-09-02T14:07:29Z</time>
      </trkpt>
      <trkpt lat="44.04383" lon="5.95542">
        <ele>413.668</ele>
        <time>2020-09-02T14:07:30Z</time>
      </trkpt>
      <trkpt lat="44.04375" lon="5.9555">
        <ele>413.535</ele>
        <time>2020-09-02T14:07:31Z</time>
      </trkpt>
      <trkpt lat="44.04367" lon="5.95557">
        <ele>413.166</ele>
        <time>2020-09-02T14:07:32Z</time>
      </trkpt>
      <trkpt lat="44.04359" lon="5.95564">
        <ele>412.974</ele>
        <time>2020-09-02T14:07:33Z</time>
      </trkpt>
      <trkpt lat="44.04352" lon="5.95573">
        <ele>412.12</ele>
        <time>2020-09-02T14:07:34Z</time>
      </trkpt>
      <trkpt lat="44.04344" lon="5.9558">
        <ele>412.043</ele>
        <time>2020-09-02T14:07:35Z</time>
      </trkpt>
      <trkpt lat="44.04336" lon="5.95589">
        <ele>412.427</ele>
        <time>2020-09-02T14:07:36Z</time>
      </trkpt>
      <trkpt lat="44.04328" lon="5.95598">
        <ele>411.868</ele>
        <time>2020-09-02T14:07:37Z</time>
      </trkpt>
      <trkpt lat="44.0432" lon="5.95605">
        <ele>411.914</ele>
        <time>2020-09-02T14:07:38Z</time>
      </trkpt>
      <trkpt lat="44.04311" lon="5.95613">
        <ele>411.908</ele>
        <time>2020-09-02T14:07:39Z</time>
      </trkpt>
      <trkpt lat="44.04304" lon="5.95621">
        <ele>411.69</ele>
        <time>2020-09-02T14:07:40Z</time>
      </trkpt>
      <trkpt lat="44.04295" lon="5.9563">
        <ele>411.369</ele>
        <time>2020-09-02T14:07:41Z</time>
      </trkpt>
      <trkpt lat="44.04288" lon="5.95638">
        <ele>410.929</ele>
        <time>2020-09-02T14:07:42Z</time>
      </trkpt>
      <trkpt lat="44.04279" lon="5.95647">
        <ele>411.266</ele>
        <time>2020-09-02T14:07:43Z</time>
      </trkpt>
      <trkpt lat="44.04271" lon="5.95656">
        <ele>410.797</ele>
        <time>2020-09-02T14:07:44Z</time>
      </trkpt>
      <trkpt lat="44.04262" lon="5.95665">
        <ele>410.995</ele>
        <time>2020-09-02T14:07:45Z</time>
      </trkpt>
      <trkpt lat="44.04253" lon="5.95675">
        <ele>410.751</ele>
        <time>2020-09-02T14:07:46Z</time>
      </trkpt>
      <trkpt lat="44.04245" lon="5.95683">
        <ele>410.594</ele>
        <time>2020-09-02T14:07:47Z</time>
      </trkpt>
      <trkpt lat="44.04236" lon="5.95692">
        <ele>410.238</ele>
        <time>2020-09-02T14:07:48Z</time>
      </trkpt>
      <trkpt lat="44.04227" lon="5.95702">
        <ele>409.87</ele>
        <time>2020-09-02T14:07:49Z</time>
      </trkpt>
      <trkpt lat="44.04217" lon="5.95712">
        <ele>409.317</ele>
        <time>2020-09-02T14:07:50Z</time>
      </trkpt>
      <trkpt lat="44.04208" lon="5.95722">
        <ele>409.208</ele>
        <time>2020-09-02T14:07:51Z</time>
      </trkpt>
      <trkpt lat="44.04199" lon="5.95732">
        <ele>409.271</ele>
        <time>2020-09-02T14:07:52Z</time>
      </trkpt>
      <trkpt lat="44.04189" lon="5.95743">
        <ele>409.59</ele>
        <time>2020-09-02T14:07:53Z</time>
      </trkpt>
      <trkpt lat="44.04179" lon="5.95753">
        <ele>409.91</ele>
        <time>2020-09-02T14:07:54Z</time>
      </trkpt>
      <trkpt lat="44.0417" lon="5.95762">
        <ele>409.557</ele>
        <time>2020-09-02T14:07:55Z</time>
      </trkpt>
      <trkpt lat="44.04161" lon="5.95772">
        <ele>408.618</ele>
        <time>2020-09-02T14:07:56Z</time>
      </trkpt>
      <trkpt lat="44.04151" lon="5.95782">
        <ele>408.316</ele>
        <time>2020-09-02T14:07:57Z</time>
      </trkpt>
      <trkpt lat="44.04141" lon="5.95792">
        <ele>407.852</ele>
        <time>2020-09-02T14:07:58Z</time>
      </trkpt>
      <trkpt lat="44.04132" lon="5.95802">
        <ele>407.545</ele>
        <time>2020-09-02T14:07:59Z</time>
      </trkpt>
      <trkpt lat="44.04123" lon="5.95812">
        <ele>407.184</ele>
        <time>2020-09-02T14:08:00Z</time>
      </trkpt>
      <trkpt lat="44.04113" lon="5.95823">
        <ele>407.207</ele>
        <time>2020-09-02T14:08:01Z</time>
      </trkpt>
      <trkpt lat="44.04105" lon="5.95832">
        <ele>406.817</ele>
        <time>2020-09-02T14:08:02Z</time>
      </trkpt>
      <trkpt lat="44.04097" lon="5.9584">
        <ele>407.108</ele>
        <time>2020-09-02T14:08:03Z</time>
      </trkpt>
      <trkpt lat="44.04089" lon="5.95848">
        <ele>406.456</ele>
        <time>2020-09-02T14:08:04Z</time>
      </trkpt>
      <trkpt lat="44.04082" lon="5.95856">
        <ele>406.425</ele>
        <time>2020-09-02T14:08:05Z</time>
      </trkpt>
      <trkpt lat="44.04075" lon="5.95862">
        <ele>406.325</ele>
        <time>2020-09-02T14:08:06Z</time>
      </trkpt>
      <trkpt lat="44.04068" lon="5.95868">
        <ele>406.362</ele>
        <time>2020-09-02T14:08:07Z</time>
      </trkpt>
      <trkpt lat="44.04062" lon="5.95872">
        <ele>406.423</ele>
        <time>2020-09-02T14:08:08Z</time>
      </trkpt>
      <trkpt lat="44.04056" lon="5.95872">
        <ele>406.151</ele>
        <time>2020-09-02T14:08:09Z</time>
      </trkpt>
      <trkpt lat="44.0405" lon="5.9587">
        <ele>406.117</ele>
        <time>2020-09-02T14:08:10Z</time>
      </trkpt>
      <trkpt lat="44.04046" lon="5.95867">
        <ele>406.18</ele>
        <time>2020-09-02T14:08:11Z</time>
      </trkpt>
      <trkpt lat="44.04039" lon="5.95865">
        <ele>405.673</ele>
        <time>2020-09-02T14:08:13Z</time>
      </trkpt>
      <trkpt lat="44.04035" lon="5.95869">
        <ele>404.285</ele>
        <time>2020-09-02T14:09:00Z</time>
      </trkpt>
      <trkpt lat="44.04029" lon="5.95873">
        <ele>404.313</ele>
        <time>2020-09-02T14:09:02Z</time>
      </trkpt>
      <trkpt lat="44.04025" lon="5.95877">
        <ele>404.208</ele>
        <time>2020-09-02T14:09:03Z</time>
      </trkpt>
      <trkpt lat="44.04021" lon="5.95883">
        <ele>404.265</ele>
        <time>2020-09-02T14:09:04Z</time>
      </trkpt>
      <trkpt lat="44.04018" lon="5.9589">
        <ele>404.254</ele>
        <time>2020-09-02T14:09:05Z</time>
      </trkpt>
      <trkpt lat="44.04018" lon="5.95903">
        <ele>404.094</ele>
        <time>2020-09-02T14:09:06Z</time>
      </trkpt>
      <trkpt lat="44.04016" lon="5.95914">
        <ele>403.091</ele>
        <time>2020-09-02T14:09:07Z</time>
      </trkpt>
      <trkpt lat="44.04011" lon="5.95926">
        <ele>402.742</ele>
        <time>2020-09-02T14:09:08Z</time>
      </trkpt>
      <trkpt lat="44.04003" lon="5.95938">
        <ele>402.43</ele>
        <time>2020-09-02T14:09:09Z</time>
      </trkpt>
      <trkpt lat="44.03995" lon="5.95949">
        <ele>402.426</ele>
        <time>2020-09-02T14:09:10Z</time>
      </trkpt>
      <trkpt lat="44.03985" lon="5.9596">
        <ele>402.789</ele>
        <time>2020-09-02T14:09:11Z</time>
      </trkpt>
      <trkpt lat="44.03974" lon="5.9597">
        <ele>402.383</ele>
        <time>2020-09-02T14:09:12Z</time>
      </trkpt>
      <trkpt lat="44.03964" lon="5.95981">
        <ele>402.325</ele>
        <time>2020-09-02T14:09:13Z</time>
      </trkpt>
      <trkpt lat="44.03953" lon="5.95992">
        <ele>402.017</ele>
        <time>2020-09-02T14:09:14Z</time>
      </trkpt>
      <trkpt lat="44.03943" lon="5.96004">
        <ele>401.608</ele>
        <time>2020-09-02T14:09:15Z</time>
      </trkpt>
      <trkpt lat="44.03933" lon="5.96015">
        <ele>401.646</ele>
        <time>2020-09-02T14:09:16Z</time>
      </trkpt>
      <trkpt lat="44.03923" lon="5.96026">
        <ele>402.135</ele>
        <time>2020-09-02T14:09:17Z</time>
      </trkpt>
      <trkpt lat="44.03912" lon="5.96039">
        <ele>402.645</ele>
        <time>2020-09-02T14:09:18Z</time>
      </trkpt>
      <trkpt lat="44.039" lon="5.96049">
        <ele>401.632</ele>
        <time>2020-09-02T14:09:19Z</time>
      </trkpt>
      <trkpt lat="44.03889" lon="5.9606">
        <ele>401.673</ele>
        <time>2020-09-02T14:09:20Z</time>
      </trkpt>
      <trkpt lat="44.03879" lon="5.96071">
        <ele>402.041</ele>
        <time>2020-09-02T14:09:21Z</time>
      </trkpt>
      <trkpt lat="44.03868" lon="5.96082">
        <ele>401.937</ele>
        <time>2020-09-02T14:09:22Z</time>
      </trkpt>
      <trkpt lat="44.03857" lon="5.96092">
        <ele>401.34</ele>
        <time>2020-09-02T14:09:23Z</time>
      </trkpt>
      <trkpt lat="44.03847" lon="5.96103">
        <ele>400.586</ele>
        <time>2020-09-02T14:09:24Z</time>
      </trkpt>
      <trkpt lat="44.03838" lon="5.96112">
        <ele>400.56</ele>
        <time>2020-09-02T14:09:25Z</time>
      </trkpt>
      <trkpt lat="44.0383" lon="5.96121">
        <ele>400.126</ele>
        <time>2020-09-02T14:09:26Z</time>
      </trkpt>
      <trkpt lat="44.03821" lon="5.96128">
        <ele>400.008</ele>
        <time>2020-09-02T14:09:27Z</time>
      </trkpt>
      <trkpt lat="44.03812" lon="5.96133">
        <ele>399.856</ele>
        <time>2020-09-02T14:09:28Z</time>
      </trkpt>
      <trkpt lat="44.03803" lon="5.96135">
        <ele>399.465</ele>
        <time>2020-09-02T14:09:29Z</time>
      </trkpt>
      <trkpt lat="44.03793" lon="5.96135">
        <ele>399.665</ele>
        <time>2020-09-02T14:09:30Z</time>
      </trkpt>
      <trkpt lat="44.03784" lon="5.96136">
        <ele>399.212</ele>
        <time>2020-09-02T14:09:31Z</time>
      </trkpt>
      <trkpt lat="44.03775" lon="5.96142">
        <ele>399.223</ele>
        <time>2020-09-02T14:09:32Z</time>
      </trkpt>
      <trkpt lat="44.03769" lon="5.96152">
        <ele>399.361</ele>
        <time>2020-09-02T14:09:33Z</time>
      </trkpt>
      <trkpt lat="44.03763" lon="5.96164">
        <ele>399.197</ele>
        <time>2020-09-02T14:09:34Z</time>
      </trkpt>
      <trkpt lat="44.03761" lon="5.96177">
        <ele>399.88</ele>
        <time>2020-09-02T14:09:35Z</time>
      </trkpt>
      <trkpt lat="44.03759" lon="5.96191">
        <ele>399.829</ele>
        <time>2020-09-02T14:09:36Z</time>
      </trkpt>
      <trkpt lat="44.03754" lon="5.96205">
        <ele>399.6</ele>
        <time>2020-09-02T14:09:37Z</time>
      </trkpt>
      <trkpt lat="44.03748" lon="5.96219">
        <ele>400.02</ele>
        <time>2020-09-02T14:09:38Z</time>
      </trkpt>
      <trkpt lat="44.03739" lon="5.96231">
        <ele>400.008</ele>
        <time>2020-09-02T14:09:39Z</time>
      </trkpt>
      <trkpt lat="44.03729" lon="5.96246">
        <ele>401.02</ele>
        <time>2020-09-02T14:09:40Z</time>
      </trkpt>
      <trkpt lat="44.0372" lon="5.9626">
        <ele>400.849</ele>
        <time>2020-09-02T14:09:41Z</time>
      </trkpt>
      <trkpt lat="44.0371" lon="5.96275">
        <ele>401.299</ele>
        <time>2020-09-02T14:09:42Z</time>
      </trkpt>
      <trkpt lat="44.037" lon="5.9629">
        <ele>401.726</ele>
        <time>2020-09-02T14:09:43Z</time>
      </trkpt>
      <trkpt lat="44.0369" lon="5.96304">
        <ele>401.987</ele>
        <time>2020-09-02T14:09:44Z</time>
      </trkpt>
      <trkpt lat="44.0368" lon="5.96318">
        <ele>401.355</ele>
        <time>2020-09-02T14:09:45Z</time>
      </trkpt>
      <trkpt lat="44.0367" lon="5.96334">
        <ele>400.891</ele>
        <time>2020-09-02T14:09:46Z</time>
      </trkpt>
      <trkpt lat="44.03659" lon="5.9635">
        <ele>401.214</ele>
        <time>2020-09-02T14:09:47Z</time>
      </trkpt>
      <trkpt lat="44.03647" lon="5.96367">
        <ele>400.684</ele>
        <time>2020-09-02T14:09:48Z</time>
      </trkpt>
      <trkpt lat="44.03635" lon="5.96385">
        <ele>400.407</ele>
        <time>2020-09-02T14:09:49Z</time>
      </trkpt>
      <trkpt lat="44.03622" lon="5.96403">
        <ele>400.017</ele>
        <time>2020-09-02T14:09:50Z</time>
      </trkpt>
      <trkpt lat="44.03611" lon="5.96421">
        <ele>399.008</ele>
        <time>2020-09-02T14:09:51Z</time>
      </trkpt>
      <trkpt lat="44.03599" lon="5.96438">
        <ele>398.526</ele>
        <time>2020-09-02T14:09:52Z</time>
      </trkpt>
      <trkpt lat="44.03586" lon="5.96456">
        <ele>398.865</ele>
        <time>2020-09-02T14:09:53Z</time>
      </trkpt>
      <trkpt lat="44.03574" lon="5.96474">
        <ele>398.745</ele>
        <time>2020-09-02T14:09:54Z</time>
      </trkpt>
      <trkpt lat="44.03562" lon="5.96491">
        <ele>398.732</ele>
        <time>2020-09-02T14:09:55Z</time>
      </trkpt>
      <trkpt lat="44.03552" lon="5.96507">
        <ele>399.073</ele>
        <time>2020-09-02T14:09:56Z</time>
      </trkpt>
      <trkpt lat="44.03541" lon="5.96523">
        <ele>399.231</ele>
        <time>2020-09-02T14:09:57Z</time>
      </trkpt>
      <trkpt lat="44.0353" lon="5.96538">
        <ele>399.677</ele>
        <time>2020-09-02T14:09:58Z</time>
      </trkpt>
      <trkpt lat="44.03518" lon="5.96553">
        <ele>400.52</ele>
        <time>2020-09-02T14:09:59Z</time>
      </trkpt>
      <trkpt lat="44.03506" lon="5.9657">
        <ele>400.659</ele>
        <time>2020-09-02T14:10:00Z</time>
      </trkpt>
      <trkpt lat="44.03495" lon="5.96588">
        <ele>401.203</ele>
        <time>2020-09-02T14:10:01Z</time>
      </trkpt>
      <trkpt lat="44.03482" lon="5.96607">
        <ele>401.723</ele>
        <time>2020-09-02T14:10:02Z</time>
      </trkpt>
      <trkpt lat="44.03469" lon="5.96625">
        <ele>401.708</ele>
        <time>2020-09-02T14:10:03Z</time>
      </trkpt>
      <trkpt lat="44.03457" lon="5.96643">
        <ele>401.153</ele>
        <time>2020-09-02T14:10:04Z</time>
      </trkpt>
      <trkpt lat="44.03445" lon="5.96661">
        <ele>401.012</ele>
        <time>2020-09-02T14:10:05Z</time>
      </trkpt>
      <trkpt lat="44.03433" lon="5.96678">
        <ele>400.762</ele>
        <time>2020-09-02T14:10:06Z</time>
      </trkpt>
      <trkpt lat="44.0342" lon="5.96696">
        <ele>401.439</ele>
        <time>2020-09-02T14:10:07Z</time>
      </trkpt>
      <trkpt lat="44.03408" lon="5.96715">
        <ele>401.78</ele>
        <time>2020-09-02T14:10:08Z</time>
      </trkpt>
      <trkpt lat="44.03395" lon="5.96733">
        <ele>401.168</ele>
        <time>2020-09-02T14:10:09Z</time>
      </trkpt>
      <trkpt lat="44.03382" lon="5.96752">
        <ele>401.334</ele>
        <time>2020-09-02T14:10:10Z</time>
      </trkpt>
      <trkpt lat="44.03369" lon="5.9677">
        <ele>401.497</ele>
        <time>2020-09-02T14:10:11Z</time>
      </trkpt>
      <trkpt lat="44.03357" lon="5.9679">
        <ele>401.567</ele>
        <time>2020-09-02T14:10:12Z</time>
      </trkpt>
      <trkpt lat="44.03344" lon="5.96809">
        <ele>401.281</ele>
        <time>2020-09-02T14:10:13Z</time>
      </trkpt>
      <trkpt lat="44.03331" lon="5.96828">
        <ele>401.519</ele>
        <time>2020-09-02T14:10:14Z</time>
      </trkpt>
      <trkpt lat="44.03318" lon="5.96846">
        <ele>401.508</ele>
        <time>2020-09-02T14:10:15Z</time>
      </trkpt>
      <trkpt lat="44.03306" lon="5.96863">
        <ele>401.784</ele>
        <time>2020-09-02T14:10:16Z</time>
      </trkpt>
      <trkpt lat="44.03294" lon="5.9688">
        <ele>401.583</ele>
        <time>2020-09-02T14:10:17Z</time>
      </trkpt>
      <trkpt lat="44.03283" lon="5.96897">
        <ele>401.853</ele>
        <time>2020-09-02T14:10:18Z</time>
      </trkpt>
      <trkpt lat="44.03271" lon="5.96913">
        <ele>401.59</ele>
        <time>2020-09-02T14:10:19Z</time>
      </trkpt>
      <trkpt lat="44.03259" lon="5.9693">
        <ele>401.591</ele>
        <time>2020-09-02T14:10:20Z</time>
      </trkpt>
      <trkpt lat="44.03248" lon="5.96946">
        <ele>401.329</ele>
        <time>2020-09-02T14:10:21Z</time>
      </trkpt>
      <trkpt lat="44.03239" lon="5.96961">
        <ele>401.485</ele>
        <time>2020-09-02T14:10:22Z</time>
      </trkpt>
      <trkpt lat="44.03228" lon="5.96976">
        <ele>401.958</ele>
        <time>2020-09-02T14:10:23Z</time>
      </trkpt>
      <trkpt lat="44.03219" lon="5.96991">
        <ele>401.911</ele>
        <time>2020-09-02T14:10:24Z</time>
      </trkpt>
      <trkpt lat="44.0321" lon="5.97004">
        <ele>401.921</ele>
        <time>2020-09-02T14:10:25Z</time>
      </trkpt>
      <trkpt lat="44.032" lon="5.97019">
        <ele>401.703</ele>
        <time>2020-09-02T14:10:26Z</time>
      </trkpt>
      <trkpt lat="44.03191" lon="5.97032">
        <ele>401.708</ele>
        <time>2020-09-02T14:10:27Z</time>
      </trkpt>
      <trkpt lat="44.03181" lon="5.97045">
        <ele>402.099</ele>
        <time>2020-09-02T14:10:28Z</time>
      </trkpt>
      <trkpt lat="44.03172" lon="5.97059">
        <ele>402.298</ele>
        <time>2020-09-02T14:10:29Z</time>
      </trkpt>
      <trkpt lat="44.03162" lon="5.97071">
        <ele>401.958</ele>
        <time>2020-09-02T14:10:30Z</time>
      </trkpt>
      <trkpt lat="44.03153" lon="5.97085">
        <ele>402.185</ele>
        <time>2020-09-02T14:10:31Z</time>
      </trkpt>
      <trkpt lat="44.03145" lon="5.97097">
        <ele>401.746</ele>
        <time>2020-09-02T14:10:32Z</time>
      </trkpt>
      <trkpt lat="44.03136" lon="5.9711">
        <ele>401.794</ele>
        <time>2020-09-02T14:10:33Z</time>
      </trkpt>
      <trkpt lat="44.0313" lon="5.97119">
        <ele>402.16</ele>
        <time>2020-09-02T14:10:34Z</time>
      </trkpt>
      <trkpt lat="44.03124" lon="5.97127">
        <ele>402.253</ele>
        <time>2020-09-02T14:10:35Z</time>
      </trkpt>
      <trkpt lat="44.03119" lon="5.97136">
        <ele>402.054</ele>
        <time>2020-09-02T14:10:36Z</time>
      </trkpt>
      <trkpt lat="44.03115" lon="5.97143">
        <ele>402.456</ele>
        <time>2020-09-02T14:10:37Z</time>
      </trkpt>
      <trkpt lat="44.03111" lon="5.97148">
        <ele>402.011</ele>
        <time>2020-09-02T14:10:38Z</time>
      </trkpt>
      <trkpt lat="44.03108" lon="5.97153">
        <ele>402.808</ele>
        <time>2020-09-02T14:10:39Z</time>
      </trkpt>
      <trkpt lat="44.03105" lon="5.97158">
        <ele>403.133</ele>
        <time>2020-09-02T14:10:41Z</time>
      </trkpt>
      <trkpt lat="44.03104" lon="5.97165">
        <ele>401.792</ele>
        <time>2020-09-02T14:11:10Z</time>
      </trkpt>
      <trkpt lat="44.03106" lon="5.97157">
        <ele>399.292</ele>
        <time>2020-09-02T14:11:37Z</time>
      </trkpt>
      <trkpt lat="44.03106" lon="5.97168">
        <ele>403.199</ele>
        <time>2020-09-02T14:12:30Z</time>
      </trkpt>
      <trkpt lat="44.03102" lon="5.97174">
        <ele>403.74</ele>
        <time>2020-09-02T14:12:47Z</time>
      </trkpt>
      <trkpt lat="44.03098" lon="5.97181">
        <ele>403.558</ele>
        <time>2020-09-02T14:12:48Z</time>
      </trkpt>
      <trkpt lat="44.03092" lon="5.97192">
        <ele>404.184</ele>
        <time>2020-09-02T14:12:49Z</time>
      </trkpt>
      <trkpt lat="44.03087" lon="5.972">
        <ele>404.337</ele>
        <time>2020-09-02T14:12:50Z</time>
      </trkpt>
      <trkpt lat="44.03082" lon="5.97208">
        <ele>404.058</ele>
        <time>2020-09-02T14:12:51Z</time>
      </trkpt>
      <trkpt lat="44.03078" lon="5.97217">
        <ele>404.052</ele>
        <time>2020-09-02T14:12:52Z</time>
      </trkpt>
      <trkpt lat="44.03073" lon="5.97227">
        <ele>404.017</ele>
        <time>2020-09-02T14:12:53Z</time>
      </trkpt>
      <trkpt lat="44.03066" lon="5.97237">
        <ele>402.708</ele>
        <time>2020-09-02T14:12:54Z</time>
      </trkpt>
      <trkpt lat="44.03061" lon="5.97247">
        <ele>402.573</ele>
        <time>2020-09-02T14:12:55Z</time>
      </trkpt>
      <trkpt lat="44.03055" lon="5.97257">
        <ele>401.872</ele>
        <time>2020-09-02T14:12:56Z</time>
      </trkpt>
      <trkpt lat="44.0305" lon="5.97268">
        <ele>402.142</ele>
        <time>2020-09-02T14:12:57Z</time>
      </trkpt>
      <trkpt lat="44.03045" lon="5.97279">
        <ele>402.399</ele>
        <time>2020-09-02T14:12:58Z</time>
      </trkpt>
      <trkpt lat="44.0304" lon="5.97289">
        <ele>403.08</ele>
        <time>2020-09-02T14:12:59Z</time>
      </trkpt>
      <trkpt lat="44.03035" lon="5.97298">
        <ele>402.988</ele>
        <time>2020-09-02T14:13:00Z</time>
      </trkpt>
      <trkpt lat="44.0303" lon="5.9731">
        <ele>403.374</ele>
        <time>2020-09-02T14:13:01Z</time>
      </trkpt>
      <trkpt lat="44.03025" lon="5.97322">
        <ele>403.857</ele>
        <time>2020-09-02T14:13:02Z</time>
      </trkpt>
      <trkpt lat="44.0302" lon="5.97333">
        <ele>404.412</ele>
        <time>2020-09-02T14:13:03Z</time>
      </trkpt>
      <trkpt lat="44.03015" lon="5.97344">
        <ele>404.332</ele>
        <time>2020-09-02T14:13:04Z</time>
      </trkpt>
      <trkpt lat="44.03011" lon="5.97354">
        <ele>405.005</ele>
        <time>2020-09-02T14:13:05Z</time>
      </trkpt>
      <trkpt lat="44.03007" lon="5.97365">
        <ele>405.508</ele>
        <time>2020-09-02T14:13:06Z</time>
      </trkpt>
      <trkpt lat="44.03002" lon="5.97376">
        <ele>405.769</ele>
        <time>2020-09-02T14:13:07Z</time>
      </trkpt>
      <trkpt lat="44.02998" lon="5.97387">
        <ele>406.228</ele>
        <time>2020-09-02T14:13:08Z</time>
      </trkpt>
      <trkpt lat="44.02992" lon="5.97397">
        <ele>406.548</ele>
        <time>2020-09-02T14:13:09Z</time>
      </trkpt>
      <trkpt lat="44.02989" lon="5.97407">
        <ele>407.035</ele>
        <time>2020-09-02T14:13:10Z</time>
      </trkpt>
      <trkpt lat="44.02986" lon="5.97417">
        <ele>407.486</ele>
        <time>2020-09-02T14:13:11Z</time>
      </trkpt>
      <trkpt lat="44.02983" lon="5.97428">
        <ele>407.734</ele>
        <time>2020-09-02T14:13:12Z</time>
      </trkpt>
      <trkpt lat="44.0298" lon="5.97438">
        <ele>408.41</ele>
        <time>2020-09-02T14:13:13Z</time>
      </trkpt>
      <trkpt lat="44.02977" lon="5.9745">
        <ele>408.893</ele>
        <time>2020-09-02T14:13:14Z</time>
      </trkpt>
      <trkpt lat="44.02974" lon="5.9746">
        <ele>409.195</ele>
        <time>2020-09-02T14:13:15Z</time>
      </trkpt>
      <trkpt lat="44.0297" lon="5.97469">
        <ele>410.149</ele>
        <time>2020-09-02T14:13:16Z</time>
      </trkpt>
      <trkpt lat="44.02965" lon="5.97478">
        <ele>410.923</ele>
        <time>2020-09-02T14:13:17Z</time>
      </trkpt>
      <trkpt lat="44.02962" lon="5.97488">
        <ele>411.308</ele>
        <time>2020-09-02T14:13:18Z</time>
      </trkpt>
      <trkpt lat="44.02959" lon="5.97498">
        <ele>411.847</ele>
        <time>2020-09-02T14:13:19Z</time>
      </trkpt>
      <trkpt lat="44.02954" lon="5.97506">
        <ele>413.166</ele>
        <time>2020-09-02T14:13:20Z</time>
      </trkpt>
      <trkpt lat="44.02952" lon="5.97514">
        <ele>413.366</ele>
        <time>2020-09-02T14:13:21Z</time>
      </trkpt>
      <trkpt lat="44.02948" lon="5.97522">
        <ele>414.073</ele>
        <time>2020-09-02T14:13:22Z</time>
      </trkpt>
      <trkpt lat="44.02946" lon="5.9753">
        <ele>414.434</ele>
        <time>2020-09-02T14:13:23Z</time>
      </trkpt>
      <trkpt lat="44.02944" lon="5.97537">
        <ele>415.682</ele>
        <time>2020-09-02T14:13:24Z</time>
      </trkpt>
      <trkpt lat="44.02942" lon="5.97544">
        <ele>416.268</ele>
        <time>2020-09-02T14:13:25Z</time>
      </trkpt>
      <trkpt lat="44.0294" lon="5.97552">
        <ele>416.071</ele>
        <time>2020-09-02T14:13:26Z</time>
      </trkpt>
      <trkpt lat="44.02937" lon="5.97559">
        <ele>416.276</ele>
        <time>2020-09-02T14:13:27Z</time>
      </trkpt>
      <trkpt lat="44.02933" lon="5.97565">
        <ele>416.79</ele>
        <time>2020-09-02T14:13:28Z</time>
      </trkpt>
      <trkpt lat="44.02929" lon="5.97572">
        <ele>417.019</ele>
        <time>2020-09-02T14:13:29Z</time>
      </trkpt>
      <trkpt lat="44.02926" lon="5.97579">
        <ele>417.108</ele>
        <time>2020-09-02T14:13:30Z</time>
      </trkpt>
      <trkpt lat="44.02923" lon="5.97588">
        <ele>417.535</ele>
        <time>2020-09-02T14:13:31Z</time>
      </trkpt>
      <trkpt lat="44.0292" lon="5.97598">
        <ele>418.044</ele>
        <time>2020-09-02T14:13:32Z</time>
      </trkpt>
      <trkpt lat="44.02917" lon="5.97608">
        <ele>418.194</ele>
        <time>2020-09-02T14:13:33Z</time>
      </trkpt>
      <trkpt lat="44.02913" lon="5.97618">
        <ele>418.841</ele>
        <time>2020-09-02T14:13:34Z</time>
      </trkpt>
      <trkpt lat="44.0291" lon="5.97627">
        <ele>419.462</ele>
        <time>2020-09-02T14:13:35Z</time>
      </trkpt>
      <trkpt lat="44.02907" lon="5.97636">
        <ele>420.71</ele>
        <time>2020-09-02T14:13:36Z</time>
      </trkpt>
      <trkpt lat="44.02902" lon="5.97645">
        <ele>421.136</ele>
        <time>2020-09-02T14:13:37Z</time>
      </trkpt>
      <trkpt lat="44.02899" lon="5.97656">
        <ele>421.469</ele>
        <time>2020-09-02T14:13:38Z</time>
      </trkpt>
      <trkpt lat="44.02895" lon="5.97665">
        <ele>422.043</ele>
        <time>2020-09-02T14:13:39Z</time>
      </trkpt>
      <trkpt lat="44.02895" lon="5.97675">
        <ele>423.264</ele>
        <time>2020-09-02T14:13:40Z</time>
      </trkpt>
      <trkpt lat="44.02892" lon="5.97685">
        <ele>423.61</ele>
        <time>2020-09-02T14:13:41Z</time>
      </trkpt>
      <trkpt lat="44.02888" lon="5.97695">
        <ele>424.208</ele>
        <time>2020-09-02T14:13:42Z</time>
      </trkpt>
      <trkpt lat="44.02884" lon="5.97705">
        <ele>424.722</ele>
        <time>2020-09-02T14:13:43Z</time>
      </trkpt>
      <trkpt lat="44.02879" lon="5.97714">
        <ele>425.121</ele>
        <time>2020-09-02T14:13:44Z</time>
      </trkpt>
      <trkpt lat="44.02873" lon="5.97724">
        <ele>424.981</ele>
        <time>2020-09-02T14:13:45Z</time>
      </trkpt>
      <trkpt lat="44.02869" lon="5.97733">
        <ele>425.478</ele>
        <time>2020-09-02T14:13:46Z</time>
      </trkpt>
      <trkpt lat="44.02865" lon="5.97743">
        <ele>426.249</ele>
        <time>2020-09-02T14:13:47Z</time>
      </trkpt>
      <trkpt lat="44.02861" lon="5.97753">
        <ele>426.727</ele>
        <time>2020-09-02T14:13:48Z</time>
      </trkpt>
      <trkpt lat="44.02853" lon="5.97764">
        <ele>427.763</ele>
        <time>2020-09-02T14:13:49Z</time>
      </trkpt>
      <trkpt lat="44.02852" lon="5.97775">
        <ele>428.686</ele>
        <time>2020-09-02T14:13:50Z</time>
      </trkpt>
      <trkpt lat="44.02849" lon="5.97789">
        <ele>429.567</ele>
        <time>2020-09-02T14:13:51Z</time>
      </trkpt>
      <trkpt lat="44.02847" lon="5.978">
        <ele>430.181</ele>
        <time>2020-09-02T14:13:52Z</time>
      </trkpt>
      <trkpt lat="44.02846" lon="5.97813">
        <ele>431.819</ele>
        <time>2020-09-02T14:13:53Z</time>
      </trkpt>
      <trkpt lat="44.02844" lon="5.97825">
        <ele>432.708</ele>
        <time>2020-09-02T14:13:54Z</time>
      </trkpt>
      <trkpt lat="44.02841" lon="5.97837">
        <ele>433.954</ele>
        <time>2020-09-02T14:13:55Z</time>
      </trkpt>
      <trkpt lat="44.02839" lon="5.97848">
        <ele>434.843</ele>
        <time>2020-09-02T14:13:56Z</time>
      </trkpt>
      <trkpt lat="44.02839" lon="5.97861">
        <ele>435.123</ele>
        <time>2020-09-02T14:13:57Z</time>
      </trkpt>
      <trkpt lat="44.02839" lon="5.97873">
        <ele>435.51</ele>
        <time>2020-09-02T14:13:58Z</time>
      </trkpt>
      <trkpt lat="44.02838" lon="5.97886">
        <ele>435.621</ele>
        <time>2020-09-02T14:13:59Z</time>
      </trkpt>
      <trkpt lat="44.02838" lon="5.97901">
        <ele>435.139</ele>
        <time>2020-09-02T14:14:00Z</time>
      </trkpt>
      <trkpt lat="44.02838" lon="5.97914">
        <ele>435.315</ele>
        <time>2020-09-02T14:14:01Z</time>
      </trkpt>
      <trkpt lat="44.02837" lon="5.97928">
        <ele>435.678</ele>
        <time>2020-09-02T14:14:02Z</time>
      </trkpt>
      <trkpt lat="44.02837" lon="5.9794">
        <ele>436.289</ele>
        <time>2020-09-02T14:14:03Z</time>
      </trkpt>
      <trkpt lat="44.02837" lon="5.97952">
        <ele>436.606</ele>
        <time>2020-09-02T14:14:04Z</time>
      </trkpt>
      <trkpt lat="44.02838" lon="5.97962">
        <ele>436.926</ele>
        <time>2020-09-02T14:14:05Z</time>
      </trkpt>
      <trkpt lat="44.02838" lon="5.9797">
        <ele>437.308</ele>
        <time>2020-09-02T14:14:06Z</time>
      </trkpt>
      <trkpt lat="44.0284" lon="5.97979">
        <ele>437.486</ele>
        <time>2020-09-02T14:14:07Z</time>
      </trkpt>
      <trkpt lat="44.0284" lon="5.97988">
        <ele>437.975</ele>
        <time>2020-09-02T14:14:08Z</time>
      </trkpt>
      <trkpt lat="44.02841" lon="5.97998">
        <ele>438.865</ele>
        <time>2020-09-02T14:14:09Z</time>
      </trkpt>
      <trkpt lat="44.02842" lon="5.98008">
        <ele>439.562</ele>
        <time>2020-09-02T14:14:10Z</time>
      </trkpt>
      <trkpt lat="44.02842" lon="5.98018">
        <ele>439.823</ele>
        <time>2020-09-02T14:14:11Z</time>
      </trkpt>
      <trkpt lat="44.02841" lon="5.98026">
        <ele>440.411</ele>
        <time>2020-09-02T14:14:12Z</time>
      </trkpt>
      <trkpt lat="44.02841" lon="5.98033">
        <ele>440.227</ele>
        <time>2020-09-02T14:14:13Z</time>
      </trkpt>
      <trkpt lat="44.02839" lon="5.98041">
        <ele>441.12</ele>
        <time>2020-09-02T14:14:14Z</time>
      </trkpt>
      <trkpt lat="44.02837" lon="5.98049">
        <ele>441.738</ele>
        <time>2020-09-02T14:14:15Z</time>
      </trkpt>
      <trkpt lat="44.02835" lon="5.98058">
        <ele>442.27</ele>
        <time>2020-09-02T14:14:16Z</time>
      </trkpt>
      <trkpt lat="44.02832" lon="5.98067">
        <ele>443.817</ele>
        <time>2020-09-02T14:14:17Z</time>
      </trkpt>
      <trkpt lat="44.02829" lon="5.98078">
        <ele>444.308</ele>
        <time>2020-09-02T14:14:18Z</time>
      </trkpt>
      <trkpt lat="44.02827" lon="5.98091">
        <ele>444.971</ele>
        <time>2020-09-02T14:14:19Z</time>
      </trkpt>
      <trkpt lat="44.02829" lon="5.98103">
        <ele>446.62</ele>
        <time>2020-09-02T14:14:20Z</time>
      </trkpt>
      <trkpt lat="44.02829" lon="5.98116">
        <ele>449.21</ele>
        <time>2020-09-02T14:14:21Z</time>
      </trkpt>
      <trkpt lat="44.02831" lon="5.98129">
        <ele>452.437</ele>
        <time>2020-09-02T14:14:22Z</time>
      </trkpt>
      <trkpt lat="44.02832" lon="5.98143">
        <ele>454.338</ele>
        <time>2020-09-02T14:14:23Z</time>
      </trkpt>
      <trkpt lat="44.02833" lon="5.98156">
        <ele>454.856</ele>
        <time>2020-09-02T14:14:24Z</time>
      </trkpt>
      <trkpt lat="44.02836" lon="5.98168">
        <ele>455.362</ele>
        <time>2020-09-02T14:14:25Z</time>
      </trkpt>
      <trkpt lat="44.02839" lon="5.98181">
        <ele>455.785</ele>
        <time>2020-09-02T14:14:26Z</time>
      </trkpt>
      <trkpt lat="44.02843" lon="5.98192">
        <ele>457.244</ele>
        <time>2020-09-02T14:14:27Z</time>
      </trkpt>
      <trkpt lat="44.02847" lon="5.98203">
        <ele>457.905</ele>
        <time>2020-09-02T14:14:28Z</time>
      </trkpt>
      <trkpt lat="44.0285" lon="5.98214">
        <ele>457.415</ele>
        <time>2020-09-02T14:14:29Z</time>
      </trkpt>
      <trkpt lat="44.02851" lon="5.98226">
        <ele>457.908</ele>
        <time>2020-09-02T14:14:30Z</time>
      </trkpt>
      <trkpt lat="44.02854" lon="5.98237">
        <ele>458.382</ele>
        <time>2020-09-02T14:14:31Z</time>
      </trkpt>
      <trkpt lat="44.02854" lon="5.9825">
        <ele>458.711</ele>
        <time>2020-09-02T14:14:32Z</time>
      </trkpt>
      <trkpt lat="44.02856" lon="5.98263">
        <ele>459.351</ele>
        <time>2020-09-02T14:14:33Z</time>
      </trkpt>
      <trkpt lat="44.02856" lon="5.98278">
        <ele>460.478</ele>
        <time>2020-09-02T14:14:34Z</time>
      </trkpt>
      <trkpt lat="44.02858" lon="5.9829">
        <ele>462.249</ele>
        <time>2020-09-02T14:14:35Z</time>
      </trkpt>
      <trkpt lat="44.02859" lon="5.98303">
        <ele>463.827</ele>
        <time>2020-09-02T14:14:36Z</time>
      </trkpt>
      <trkpt lat="44.02861" lon="5.98315">
        <ele>464.853</ele>
        <time>2020-09-02T14:14:37Z</time>
      </trkpt>
      <trkpt lat="44.02862" lon="5.98324">
        <ele>465.336</ele>
        <time>2020-09-02T14:14:38Z</time>
      </trkpt>
      <trkpt lat="44.02863" lon="5.98334">
        <ele>465.812</ele>
        <time>2020-09-02T14:14:39Z</time>
      </trkpt>
      <trkpt lat="44.02864" lon="5.98345">
        <ele>466.532</ele>
        <time>2020-09-02T14:14:40Z</time>
      </trkpt>
      <trkpt lat="44.02864" lon="5.98357">
        <ele>467.405</ele>
        <time>2020-09-02T14:14:41Z</time>
      </trkpt>
      <trkpt lat="44.02865" lon="5.98369">
        <ele>469.008</ele>
        <time>2020-09-02T14:14:42Z</time>
      </trkpt>
      <trkpt lat="44.02866" lon="5.98379">
        <ele>469.939</ele>
        <time>2020-09-02T14:14:43Z</time>
      </trkpt>
      <trkpt lat="44.02867" lon="5.98388">
        <ele>471.668</ele>
        <time>2020-09-02T14:14:44Z</time>
      </trkpt>
      <trkpt lat="44.02869" lon="5.98398">
        <ele>473.298</ele>
        <time>2020-09-02T14:14:45Z</time>
      </trkpt>
      <trkpt lat="44.02871" lon="5.98409">
        <ele>474.535</ele>
        <time>2020-09-02T14:14:46Z</time>
      </trkpt>
      <trkpt lat="44.02869" lon="5.98418">
        <ele>475.426</ele>
        <time>2020-09-02T14:14:47Z</time>
      </trkpt>
      <trkpt lat="44.02869" lon="5.98428">
        <ele>476.054</ele>
        <time>2020-09-02T14:14:48Z</time>
      </trkpt>
      <trkpt lat="44.02869" lon="5.98438">
        <ele>476.23</ele>
        <time>2020-09-02T14:14:49Z</time>
      </trkpt>
      <trkpt lat="44.02869" lon="5.98447">
        <ele>477.193</ele>
        <time>2020-09-02T14:14:50Z</time>
      </trkpt>
      <trkpt lat="44.02872" lon="5.98457">
        <ele>477.426</ele>
        <time>2020-09-02T14:14:51Z</time>
      </trkpt>
      <trkpt lat="44.02874" lon="5.98468">
        <ele>477.747</ele>
        <time>2020-09-02T14:14:52Z</time>
      </trkpt>
      <trkpt lat="44.02877" lon="5.98481">
        <ele>476.711</ele>
        <time>2020-09-02T14:14:53Z</time>
      </trkpt>
      <trkpt lat="44.0288" lon="5.98492">
        <ele>476.508</ele>
        <time>2020-09-02T14:14:54Z</time>
      </trkpt>
      <trkpt lat="44.02882" lon="5.98502">
        <ele>475.94</ele>
        <time>2020-09-02T14:14:55Z</time>
      </trkpt>
      <trkpt lat="44.02883" lon="5.98511">
        <ele>475.399</ele>
        <time>2020-09-02T14:14:56Z</time>
      </trkpt>
      <trkpt lat="44.02883" lon="5.98519">
        <ele>475.659</ele>
        <time>2020-09-02T14:14:57Z</time>
      </trkpt>
      <trkpt lat="44.02886" lon="5.98524">
        <ele>475.676</ele>
        <time>2020-09-02T14:14:59Z</time>
      </trkpt>
      <trkpt lat="44.02888" lon="5.98537">
        <ele>475.497</ele>
        <time>2020-09-02T14:15:02Z</time>
      </trkpt>
      <trkpt lat="44.02889" lon="5.98544">
        <ele>475.325</ele>
        <time>2020-09-02T14:15:03Z</time>
      </trkpt>
      <trkpt lat="44.02892" lon="5.98552">
        <ele>475.981</ele>
        <time>2020-09-02T14:15:04Z</time>
      </trkpt>
      <trkpt lat="44.02894" lon="5.98561">
        <ele>475.384</ele>
        <time>2020-09-02T14:15:05Z</time>
      </trkpt>
      <trkpt lat="44.02895" lon="5.98569">
        <ele>475.114</ele>
        <time>2020-09-02T14:15:06Z</time>
      </trkpt>
      <trkpt lat="44.02896" lon="5.98578">
        <ele>475.654</ele>
        <time>2020-09-02T14:15:07Z</time>
      </trkpt>
      <trkpt lat="44.02896" lon="5.98588">
        <ele>475.909</ele>
        <time>2020-09-02T14:15:08Z</time>
      </trkpt>
      <trkpt lat="44.02896" lon="5.98599">
        <ele>476.108</ele>
        <time>2020-09-02T14:15:09Z</time>
      </trkpt>
      <trkpt lat="44.02895" lon="5.9861">
        <ele>476.289</ele>
        <time>2020-09-02T14:15:10Z</time>
      </trkpt>
      <trkpt lat="44.02894" lon="5.98621">
        <ele>476.218</ele>
        <time>2020-09-02T14:15:11Z</time>
      </trkpt>
      <trkpt lat="44.02895" lon="5.98632">
        <ele>476.498</ele>
        <time>2020-09-02T14:15:12Z</time>
      </trkpt>
      <trkpt lat="44.02894" lon="5.98643">
        <ele>476.855</ele>
        <time>2020-09-02T14:15:13Z</time>
      </trkpt>
      <trkpt lat="44.02895" lon="5.98656">
        <ele>476.616</ele>
        <time>2020-09-02T14:15:14Z</time>
      </trkpt>
      <trkpt lat="44.02896" lon="5.98667">
        <ele>476.824</ele>
        <time>2020-09-02T14:15:15Z</time>
      </trkpt>
      <trkpt lat="44.02897" lon="5.98677">
        <ele>477.11</ele>
        <time>2020-09-02T14:15:16Z</time>
      </trkpt>
      <trkpt lat="44.02898" lon="5.98688">
        <ele>477.783</ele>
        <time>2020-09-02T14:15:17Z</time>
      </trkpt>
      <trkpt lat="44.02899" lon="5.98698">
        <ele>478.237</ele>
        <time>2020-09-02T14:15:18Z</time>
      </trkpt>
      <trkpt lat="44.02901" lon="5.98711">
        <ele>479.049</ele>
        <time>2020-09-02T14:15:19Z</time>
      </trkpt>
      <trkpt lat="44.02901" lon="5.98722">
        <ele>480.213</ele>
        <time>2020-09-02T14:15:20Z</time>
      </trkpt>
      <trkpt lat="44.029" lon="5.98735">
        <ele>480.108</ele>
        <time>2020-09-02T14:15:21Z</time>
      </trkpt>
      <trkpt lat="44.02898" lon="5.98748">
        <ele>480.681</ele>
        <time>2020-09-02T14:15:22Z</time>
      </trkpt>
      <trkpt lat="44.02897" lon="5.98762">
        <ele>481.99</ele>
        <time>2020-09-02T14:15:23Z</time>
      </trkpt>
      <trkpt lat="44.02896" lon="5.98775">
        <ele>482.75</ele>
        <time>2020-09-02T14:15:24Z</time>
      </trkpt>
      <trkpt lat="44.02895" lon="5.98788">
        <ele>483.237</ele>
        <time>2020-09-02T14:15:25Z</time>
      </trkpt>
      <trkpt lat="44.02894" lon="5.98801">
        <ele>483.848</ele>
        <time>2020-09-02T14:15:26Z</time>
      </trkpt>
      <trkpt lat="44.02888" lon="5.98815">
        <ele>484.796</ele>
        <time>2020-09-02T14:15:27Z</time>
      </trkpt>
      <trkpt lat="44.02887" lon="5.98827">
        <ele>485.162</ele>
        <time>2020-09-02T14:15:28Z</time>
      </trkpt>
      <trkpt lat="44.02887" lon="5.9884">
        <ele>485.565</ele>
        <time>2020-09-02T14:15:29Z</time>
      </trkpt>
      <trkpt lat="44.02886" lon="5.98851">
        <ele>486.162</ele>
        <time>2020-09-02T14:15:30Z</time>
      </trkpt>
      <trkpt lat="44.02886" lon="5.98864">
        <ele>486.383</ele>
        <time>2020-09-02T14:15:31Z</time>
      </trkpt>
      <trkpt lat="44.02887" lon="5.98873">
        <ele>487.411</ele>
        <time>2020-09-02T14:15:32Z</time>
      </trkpt>
      <trkpt lat="44.02885" lon="5.98884">
        <ele>488.108</ele>
        <time>2020-09-02T14:15:33Z</time>
      </trkpt>
      <trkpt lat="44.02884" lon="5.98895">
        <ele>489.014</ele>
        <time>2020-09-02T14:15:34Z</time>
      </trkpt>
      <trkpt lat="44.02883" lon="5.98906">
        <ele>490.763</ele>
        <time>2020-09-02T14:15:35Z</time>
      </trkpt>
      <trkpt lat="44.0288" lon="5.98915">
        <ele>492.323</ele>
        <time>2020-09-02T14:15:36Z</time>
      </trkpt>
      <trkpt lat="44.02878" lon="5.98924">
        <ele>493.34</ele>
        <time>2020-09-02T14:15:37Z</time>
      </trkpt>
      <trkpt lat="44.02881" lon="5.98937">
        <ele>493.961</ele>
        <time>2020-09-02T14:15:38Z</time>
      </trkpt>
      <trkpt lat="44.02882" lon="5.98945">
        <ele>493.539</ele>
        <time>2020-09-02T14:15:39Z</time>
      </trkpt>
      <trkpt lat="44.02884" lon="5.98956">
        <ele>493.875</ele>
        <time>2020-09-02T14:15:40Z</time>
      </trkpt>
      <trkpt lat="44.02887" lon="5.98967">
        <ele>494.148</ele>
        <time>2020-09-02T14:15:41Z</time>
      </trkpt>
      <trkpt lat="44.02889" lon="5.98977">
        <ele>494.288</ele>
        <time>2020-09-02T14:15:42Z</time>
      </trkpt>
      <trkpt lat="44.0289" lon="5.98989">
        <ele>493.924</ele>
        <time>2020-09-02T14:15:43Z</time>
      </trkpt>
      <trkpt lat="44.02891" lon="5.98998">
        <ele>494.326</ele>
        <time>2020-09-02T14:15:44Z</time>
      </trkpt>
      <trkpt lat="44.0289" lon="5.99008">
        <ele>495.108</ele>
        <time>2020-09-02T14:15:45Z</time>
      </trkpt>
      <trkpt lat="44.02889" lon="5.99019">
        <ele>495.946</ele>
        <time>2020-09-02T14:15:46Z</time>
      </trkpt>
      <trkpt lat="44.0289" lon="5.99029">
        <ele>496.695</ele>
        <time>2020-09-02T14:15:47Z</time>
      </trkpt>
      <trkpt lat="44.02892" lon="5.99041">
        <ele>497.125</ele>
        <time>2020-09-02T14:15:48Z</time>
      </trkpt>
      <trkpt lat="44.02895" lon="5.99052">
        <ele>498.152</ele>
        <time>2020-09-02T14:15:49Z</time>
      </trkpt>
      <trkpt lat="44.02898" lon="5.99065">
        <ele>498.853</ele>
        <time>2020-09-02T14:15:50Z</time>
      </trkpt>
      <trkpt lat="44.029" lon="5.99076">
        <ele>499.841</ele>
        <time>2020-09-02T14:15:51Z</time>
      </trkpt>
      <trkpt lat="44.02903" lon="5.99088">
        <ele>500.987</ele>
        <time>2020-09-02T14:15:52Z</time>
      </trkpt>
      <trkpt lat="44.02904" lon="5.99099">
        <ele>501.89</ele>
        <time>2020-09-02T14:15:53Z</time>
      </trkpt>
      <trkpt lat="44.02907" lon="5.99112">
        <ele>502.366</ele>
        <time>2020-09-02T14:15:54Z</time>
      </trkpt>
      <trkpt lat="44.02908" lon="5.99126">
        <ele>503.029</ele>
        <time>2020-09-02T14:15:55Z</time>
      </trkpt>
      <trkpt lat="44.02911" lon="5.99138">
        <ele>503.821</ele>
        <time>2020-09-02T14:15:56Z</time>
      </trkpt>
      <trkpt lat="44.02913" lon="5.99151">
        <ele>504.408</ele>
        <time>2020-09-02T14:15:57Z</time>
      </trkpt>
      <trkpt lat="44.02915" lon="5.99162">
        <ele>504.844</ele>
        <time>2020-09-02T14:15:58Z</time>
      </trkpt>
      <trkpt lat="44.02915" lon="5.99172">
        <ele>504.373</ele>
        <time>2020-09-02T14:15:59Z</time>
      </trkpt>
      <trkpt lat="44.02918" lon="5.99182">
        <ele>504.983</ele>
        <time>2020-09-02T14:16:00Z</time>
      </trkpt>
      <trkpt lat="44.02921" lon="5.99191">
        <ele>505.22</ele>
        <time>2020-09-02T14:16:01Z</time>
      </trkpt>
      <trkpt lat="44.02922" lon="5.99201">
        <ele>506.361</ele>
        <time>2020-09-02T14:16:02Z</time>
      </trkpt>
      <trkpt lat="44.02925" lon="5.99211">
        <ele>506.859</ele>
        <time>2020-09-02T14:16:03Z</time>
      </trkpt>
      <trkpt lat="44.02927" lon="5.99225">
        <ele>507.495</ele>
        <time>2020-09-02T14:16:04Z</time>
      </trkpt>
      <trkpt lat="44.02923" lon="5.99237">
        <ele>508.598</ele>
        <time>2020-09-02T14:16:05Z</time>
      </trkpt>
      <trkpt lat="44.02925" lon="5.99249">
        <ele>509.374</ele>
        <time>2020-09-02T14:16:06Z</time>
      </trkpt>
      <trkpt lat="44.02926" lon="5.99261">
        <ele>509.656</ele>
        <time>2020-09-02T14:16:07Z</time>
      </trkpt>
      <trkpt lat="44.02928" lon="5.99271">
        <ele>510.021</ele>
        <time>2020-09-02T14:16:08Z</time>
      </trkpt>
      <trkpt lat="44.02928" lon="5.99278">
        <ele>510.908</ele>
        <time>2020-09-02T14:16:09Z</time>
      </trkpt>
      <trkpt lat="44.02925" lon="5.99288">
        <ele>513.065</ele>
        <time>2020-09-02T14:16:10Z</time>
      </trkpt>
      <trkpt lat="44.02923" lon="5.99298">
        <ele>513.674</ele>
        <time>2020-09-02T14:16:11Z</time>
      </trkpt>
      <trkpt lat="44.02919" lon="5.99308">
        <ele>515.154</ele>
        <time>2020-09-02T14:16:12Z</time>
      </trkpt>
      <trkpt lat="44.02915" lon="5.99316">
        <ele>516.721</ele>
        <time>2020-09-02T14:16:13Z</time>
      </trkpt>
      <trkpt lat="44.02912" lon="5.99326">
        <ele>516.932</ele>
        <time>2020-09-02T14:16:14Z</time>
      </trkpt>
      <trkpt lat="44.02909" lon="5.99337">
        <ele>517.55</ele>
        <time>2020-09-02T14:16:15Z</time>
      </trkpt>
      <trkpt lat="44.02911" lon="5.99347">
        <ele>518.186</ele>
        <time>2020-09-02T14:16:16Z</time>
      </trkpt>
      <trkpt lat="44.02909" lon="5.99359">
        <ele>517.649</ele>
        <time>2020-09-02T14:16:17Z</time>
      </trkpt>
      <trkpt lat="44.02908" lon="5.99369">
        <ele>517.027</ele>
        <time>2020-09-02T14:16:18Z</time>
      </trkpt>
      <trkpt lat="44.02907" lon="5.99379">
        <ele>517.068</ele>
        <time>2020-09-02T14:16:19Z</time>
      </trkpt>
      <trkpt lat="44.02905" lon="5.99391">
        <ele>517.514</ele>
        <time>2020-09-02T14:16:20Z</time>
      </trkpt>
      <trkpt lat="44.02899" lon="5.994">
        <ele>517.808</ele>
        <time>2020-09-02T14:16:21Z</time>
      </trkpt>
      <trkpt lat="44.02891" lon="5.99408">
        <ele>518.37</ele>
        <time>2020-09-02T14:16:22Z</time>
      </trkpt>
      <trkpt lat="44.0289" lon="5.99417">
        <ele>518.769</ele>
        <time>2020-09-02T14:16:23Z</time>
      </trkpt>
      <trkpt lat="44.02887" lon="5.99429">
        <ele>520.959</ele>
        <time>2020-09-02T14:16:24Z</time>
      </trkpt>
      <trkpt lat="44.02882" lon="5.99439">
        <ele>519.786</ele>
        <time>2020-09-02T14:16:25Z</time>
      </trkpt>
      <trkpt lat="44.02881" lon="5.9945">
        <ele>518.087</ele>
        <time>2020-09-02T14:16:26Z</time>
      </trkpt>
      <trkpt lat="44.02882" lon="5.99463">
        <ele>518.435</ele>
        <time>2020-09-02T14:16:27Z</time>
      </trkpt>
      <trkpt lat="44.02882" lon="5.99476">
        <ele>519.791</ele>
        <time>2020-09-02T14:16:28Z</time>
      </trkpt>
      <trkpt lat="44.02883" lon="5.99487">
        <ele>526.284</ele>
        <time>2020-09-02T14:16:29Z</time>
      </trkpt>
      <trkpt lat="44.02885" lon="5.99499">
        <ele>523.465</ele>
        <time>2020-09-02T14:16:30Z</time>
      </trkpt>
      <trkpt lat="44.02889" lon="5.99507">
        <ele>524.168</ele>
        <time>2020-09-02T14:16:31Z</time>
      </trkpt>
      <trkpt lat="44.02894" lon="5.99516">
        <ele>528.614</ele>
        <time>2020-09-02T14:16:32Z</time>
      </trkpt>
      <trkpt lat="44.02898" lon="5.99525">
        <ele>527.608</ele>
        <time>2020-09-02T14:16:33Z</time>
      </trkpt>
      <trkpt lat="44.02902" lon="5.99536">
        <ele>527.724</ele>
        <time>2020-09-02T14:16:34Z</time>
      </trkpt>
      <trkpt lat="44.02907" lon="5.99545">
        <ele>527.583</ele>
        <time>2020-09-02T14:16:35Z</time>
      </trkpt>
      <trkpt lat="44.02911" lon="5.99556">
        <ele>528.123</ele>
        <time>2020-09-02T14:16:36Z</time>
      </trkpt>
      <trkpt lat="44.02916" lon="5.99565">
        <ele>528.98</ele>
        <time>2020-09-02T14:16:37Z</time>
      </trkpt>
      <trkpt lat="44.02918" lon="5.99576">
        <ele>528.731</ele>
        <time>2020-09-02T14:16:38Z</time>
      </trkpt>
      <trkpt lat="44.02918" lon="5.99587">
        <ele>528.599</ele>
        <time>2020-09-02T14:16:39Z</time>
      </trkpt>
      <trkpt lat="44.02915" lon="5.99597">
        <ele>528.425</ele>
        <time>2020-09-02T14:16:40Z</time>
      </trkpt>
      <trkpt lat="44.02912" lon="5.99604">
        <ele>529.228</ele>
        <time>2020-09-02T14:16:41Z</time>
      </trkpt>
      <trkpt lat="44.0291" lon="5.99612">
        <ele>529.955</ele>
        <time>2020-09-02T14:16:42Z</time>
      </trkpt>
      <trkpt lat="44.02909" lon="5.99622">
        <ele>530.107</ele>
        <time>2020-09-02T14:16:43Z</time>
      </trkpt>
      <trkpt lat="44.02909" lon="5.99634">
        <ele>530.517</ele>
        <time>2020-09-02T14:16:44Z</time>
      </trkpt>
      <trkpt lat="44.02912" lon="5.99645">
        <ele>530.708</ele>
        <time>2020-09-02T14:16:45Z</time>
      </trkpt>
      <trkpt lat="44.02914" lon="5.99657">
        <ele>533.223</ele>
        <time>2020-09-02T14:16:46Z</time>
      </trkpt>
      <trkpt lat="44.02917" lon="5.99668">
        <ele>534.622</ele>
        <time>2020-09-02T14:16:47Z</time>
      </trkpt>
      <trkpt lat="44.02919" lon="5.9968">
        <ele>534.522</ele>
        <time>2020-09-02T14:16:48Z</time>
      </trkpt>
      <trkpt lat="44.02921" lon="5.99688">
        <ele>534.689</ele>
        <time>2020-09-02T14:16:49Z</time>
      </trkpt>
      <trkpt lat="44.02922" lon="5.99696">
        <ele>535.41</ele>
        <time>2020-09-02T14:16:50Z</time>
      </trkpt>
      <trkpt lat="44.02922" lon="5.99707">
        <ele>535.658</ele>
        <time>2020-09-02T14:16:51Z</time>
      </trkpt>
      <trkpt lat="44.02922" lon="5.99718">
        <ele>535.914</ele>
        <time>2020-09-02T14:16:52Z</time>
      </trkpt>
      <trkpt lat="44.02924" lon="5.99732">
        <ele>538.937</ele>
        <time>2020-09-02T14:16:53Z</time>
      </trkpt>
      <trkpt lat="44.02924" lon="5.99745">
        <ele>539.849</ele>
        <time>2020-09-02T14:16:54Z</time>
      </trkpt>
      <trkpt lat="44.02923" lon="5.99753">
        <ele>541.102</ele>
        <time>2020-09-02T14:16:55Z</time>
      </trkpt>
      <trkpt lat="44.02923" lon="5.99763">
        <ele>542.222</ele>
        <time>2020-09-02T14:16:56Z</time>
      </trkpt>
      <trkpt lat="44.02924" lon="5.99775">
        <ele>542.408</ele>
        <time>2020-09-02T14:16:57Z</time>
      </trkpt>
      <trkpt lat="44.02926" lon="5.99787">
        <ele>543.062</ele>
        <time>2020-09-02T14:16:58Z</time>
      </trkpt>
      <trkpt lat="44.02928" lon="5.99799">
        <ele>544.251</ele>
        <time>2020-09-02T14:16:59Z</time>
      </trkpt>
      <trkpt lat="44.0293" lon="5.99809">
        <ele>546.091</ele>
        <time>2020-09-02T14:17:00Z</time>
      </trkpt>
      <trkpt lat="44.02932" lon="5.99819">
        <ele>546.568</ele>
        <time>2020-09-02T14:17:01Z</time>
      </trkpt>
      <trkpt lat="44.02935" lon="5.99831">
        <ele>546.859</ele>
        <time>2020-09-02T14:17:02Z</time>
      </trkpt>
      <trkpt lat="44.02938" lon="5.99841">
        <ele>546.547</ele>
        <time>2020-09-02T14:17:03Z</time>
      </trkpt>
      <trkpt lat="44.02941" lon="5.9985">
        <ele>546.383</ele>
        <time>2020-09-02T14:17:04Z</time>
      </trkpt>
      <trkpt lat="44.02944" lon="5.99861">
        <ele>546.386</ele>
        <time>2020-09-02T14:17:05Z</time>
      </trkpt>
      <trkpt lat="44.02945" lon="5.99872">
        <ele>546.513</ele>
        <time>2020-09-02T14:17:06Z</time>
      </trkpt>
      <trkpt lat="44.02943" lon="5.99884">
        <ele>547.243</ele>
        <time>2020-09-02T14:17:07Z</time>
      </trkpt>
      <trkpt lat="44.02942" lon="5.99896">
        <ele>547.607</ele>
        <time>2020-09-02T14:17:08Z</time>
      </trkpt>
      <trkpt lat="44.0294" lon="5.99905">
        <ele>548.408</ele>
        <time>2020-09-02T14:17:09Z</time>
      </trkpt>
      <trkpt lat="44.0294" lon="5.99917">
        <ele>548.789</ele>
        <time>2020-09-02T14:17:10Z</time>
      </trkpt>
      <trkpt lat="44.0294" lon="5.99928">
        <ele>550.328</ele>
        <time>2020-09-02T14:17:11Z</time>
      </trkpt>
      <trkpt lat="44.02941" lon="5.9994">
        <ele>550.858</ele>
        <time>2020-09-02T14:17:12Z</time>
      </trkpt>
      <trkpt lat="44.02942" lon="5.99953">
        <ele>551.565</ele>
        <time>2020-09-02T14:17:13Z</time>
      </trkpt>
      <trkpt lat="44.02943" lon="5.99966">
        <ele>552.346</ele>
        <time>2020-09-02T14:17:14Z</time>
      </trkpt>
      <trkpt lat="44.02944" lon="5.9998">
        <ele>552.764</ele>
        <time>2020-09-02T14:17:15Z</time>
      </trkpt>
      <trkpt lat="44.02946" lon="5.9999">
        <ele>552.17</ele>
        <time>2020-09-02T14:17:16Z</time>
      </trkpt>
      <trkpt lat="44.02945" lon="6.00001">
        <ele>552.233</ele>
        <time>2020-09-02T14:17:17Z</time>
      </trkpt>
      <trkpt lat="44.02942" lon="6.0001">
        <ele>553.531</ele>
        <time>2020-09-02T14:17:18Z</time>
      </trkpt>
      <trkpt lat="44.02938" lon="6.00016">
        <ele>554.961</ele>
        <time>2020-09-02T14:17:19Z</time>
      </trkpt>
      <trkpt lat="44.02936" lon="6.00025">
        <ele>555.707</ele>
        <time>2020-09-02T14:17:20Z</time>
      </trkpt>
      <trkpt lat="44.02932" lon="6.00036">
        <ele>556.908</ele>
        <time>2020-09-02T14:17:21Z</time>
      </trkpt>
      <trkpt lat="44.02929" lon="6.00047">
        <ele>558.221</ele>
        <time>2020-09-02T14:17:22Z</time>
      </trkpt>
      <trkpt lat="44.02925" lon="6.00059">
        <ele>558.71</ele>
        <time>2020-09-02T14:17:23Z</time>
      </trkpt>
      <trkpt lat="44.02924" lon="6.00071">
        <ele>561.58</ele>
        <time>2020-09-02T14:17:24Z</time>
      </trkpt>
      <trkpt lat="44.02924" lon="6.00083">
        <ele>563.347</ele>
        <time>2020-09-02T14:17:25Z</time>
      </trkpt>
      <trkpt lat="44.02925" lon="6.00095">
        <ele>563.948</ele>
        <time>2020-09-02T14:17:26Z</time>
      </trkpt>
      <trkpt lat="44.02926" lon="6.00109">
        <ele>564.416</ele>
        <time>2020-09-02T14:17:27Z</time>
      </trkpt>
      <trkpt lat="44.02926" lon="6.00122">
        <ele>565.312</ele>
        <time>2020-09-02T14:17:28Z</time>
      </trkpt>
      <trkpt lat="44.02926" lon="6.00135">
        <ele>566.555</ele>
        <time>2020-09-02T14:17:29Z</time>
      </trkpt>
      <trkpt lat="44.02924" lon="6.00146">
        <ele>566.127</ele>
        <time>2020-09-02T14:17:30Z</time>
      </trkpt>
      <trkpt lat="44.02922" lon="6.00158">
        <ele>565.368</ele>
        <time>2020-09-02T14:17:31Z</time>
      </trkpt>
      <trkpt lat="44.02921" lon="6.00173">
        <ele>566.114</ele>
        <time>2020-09-02T14:17:32Z</time>
      </trkpt>
      <trkpt lat="44.02919" lon="6.00184">
        <ele>564.608</ele>
        <time>2020-09-02T14:17:33Z</time>
      </trkpt>
      <trkpt lat="44.02917" lon="6.00196">
        <ele>564.16</ele>
        <time>2020-09-02T14:17:34Z</time>
      </trkpt>
      <trkpt lat="44.02916" lon="6.00211">
        <ele>564.889</ele>
        <time>2020-09-02T14:17:35Z</time>
      </trkpt>
      <trkpt lat="44.02915" lon="6.00227">
        <ele>565.689</ele>
        <time>2020-09-02T14:17:36Z</time>
      </trkpt>
      <trkpt lat="44.02912" lon="6.00241">
        <ele>565.336</ele>
        <time>2020-09-02T14:17:37Z</time>
      </trkpt>
      <trkpt lat="44.0291" lon="6.00252">
        <ele>565.727</ele>
        <time>2020-09-02T14:17:38Z</time>
      </trkpt>
      <trkpt lat="44.02909" lon="6.00262">
        <ele>567.115</ele>
        <time>2020-09-02T14:17:39Z</time>
      </trkpt>
      <trkpt lat="44.02908" lon="6.00274">
        <ele>567.781</ele>
        <time>2020-09-02T14:17:40Z</time>
      </trkpt>
      <trkpt lat="44.02907" lon="6.00283">
        <ele>568.564</ele>
        <time>2020-09-02T14:17:41Z</time>
      </trkpt>
      <trkpt lat="44.02904" lon="6.00293">
        <ele>568.959</ele>
        <time>2020-09-02T14:17:42Z</time>
      </trkpt>
      <trkpt lat="44.02901" lon="6.00303">
        <ele>569.803</ele>
        <time>2020-09-02T14:17:43Z</time>
      </trkpt>
      <trkpt lat="44.02899" lon="6.00312">
        <ele>569.923</ele>
        <time>2020-09-02T14:17:44Z</time>
      </trkpt>
      <trkpt lat="44.02896" lon="6.00322">
        <ele>569.708</ele>
        <time>2020-09-02T14:17:45Z</time>
      </trkpt>
      <trkpt lat="44.02894" lon="6.00333">
        <ele>569.253</ele>
        <time>2020-09-02T14:17:46Z</time>
      </trkpt>
      <trkpt lat="44.02894" lon="6.00342">
        <ele>572.512</ele>
        <time>2020-09-02T14:17:47Z</time>
      </trkpt>
      <trkpt lat="44.02898" lon="6.00355">
        <ele>574.152</ele>
        <time>2020-09-02T14:17:48Z</time>
      </trkpt>
      <trkpt lat="44.029" lon="6.00366">
        <ele>573.979</ele>
        <time>2020-09-02T14:17:49Z</time>
      </trkpt>
      <trkpt lat="44.02901" lon="6.00379">
        <ele>574.59</ele>
        <time>2020-09-02T14:17:50Z</time>
      </trkpt>
      <trkpt lat="44.02904" lon="6.00391">
        <ele>574.878</ele>
        <time>2020-09-02T14:17:51Z</time>
      </trkpt>
      <trkpt lat="44.02906" lon="6.00404">
        <ele>575.194</ele>
        <time>2020-09-02T14:17:52Z</time>
      </trkpt>
      <trkpt lat="44.02901" lon="6.00417">
        <ele>574.387</ele>
        <time>2020-09-02T14:17:53Z</time>
      </trkpt>
      <trkpt lat="44.02902" lon="6.00429">
        <ele>575.078</ele>
        <time>2020-09-02T14:17:54Z</time>
      </trkpt>
      <trkpt lat="44.02903" lon="6.00441">
        <ele>576.133</ele>
        <time>2020-09-02T14:17:55Z</time>
      </trkpt>
      <trkpt lat="44.02903" lon="6.00453">
        <ele>576.926</ele>
        <time>2020-09-02T14:17:56Z</time>
      </trkpt>
      <trkpt lat="44.02903" lon="6.00467">
        <ele>576.508</ele>
        <time>2020-09-02T14:17:57Z</time>
      </trkpt>
      <trkpt lat="44.02902" lon="6.00476">
        <ele>578.165</ele>
        <time>2020-09-02T14:17:58Z</time>
      </trkpt>
      <trkpt lat="44.02903" lon="6.00487">
        <ele>579.674</ele>
        <time>2020-09-02T14:17:59Z</time>
      </trkpt>
      <trkpt lat="44.02903" lon="6.00497">
        <ele>580.184</ele>
        <time>2020-09-02T14:18:00Z</time>
      </trkpt>
      <trkpt lat="44.02902" lon="6.00508">
        <ele>581.091</ele>
        <time>2020-09-02T14:18:01Z</time>
      </trkpt>
      <trkpt lat="44.029" lon="6.00518">
        <ele>582.652</ele>
        <time>2020-09-02T14:18:02Z</time>
      </trkpt>
      <trkpt lat="44.02898" lon="6.00525">
        <ele>584.21</ele>
        <time>2020-09-02T14:18:03Z</time>
      </trkpt>
      <trkpt lat="44.02897" lon="6.00534">
        <ele>585.266</ele>
        <time>2020-09-02T14:18:04Z</time>
      </trkpt>
      <trkpt lat="44.02897" lon="6.00541">
        <ele>586.169</ele>
        <time>2020-09-02T14:18:05Z</time>
      </trkpt>
      <trkpt lat="44.02896" lon="6.00547">
        <ele>589.494</ele>
        <time>2020-09-02T14:18:06Z</time>
      </trkpt>
      <trkpt lat="44.029" lon="6.00551">
        <ele>589.657</ele>
        <time>2020-09-02T14:18:09Z</time>
      </trkpt>
      <trkpt lat="44.02904" lon="6.00547">
        <ele>589.822</ele>
        <time>2020-09-02T14:18:12Z</time>
      </trkpt>
      <trkpt lat="44.02897" lon="6.00544">
        <ele>590.508</ele>
        <time>2020-09-02T14:18:18Z</time>
      </trkpt>
      <trkpt lat="44.02901" lon="6.0055">
        <ele>592.367</ele>
        <time>2020-09-02T14:18:40Z</time>
      </trkpt>
      <trkpt lat="44.029" lon="6.00561">
        <ele>592.236</ele>
        <time>2020-09-02T14:18:43Z</time>
      </trkpt>
      <trkpt lat="44.02898" lon="6.0057">
        <ele>592.956</ele>
        <time>2020-09-02T14:18:44Z</time>
      </trkpt>
      <trkpt lat="44.02896" lon="6.00578">
        <ele>593.113</ele>
        <time>2020-09-02T14:18:45Z</time>
      </trkpt>
      <trkpt lat="44.02894" lon="6.00586">
        <ele>593.154</ele>
        <time>2020-09-02T14:18:46Z</time>
      </trkpt>
      <trkpt lat="44.02891" lon="6.00595">
        <ele>593.262</ele>
        <time>2020-09-02T14:18:47Z</time>
      </trkpt>
      <trkpt lat="44.02889" lon="6.00605">
        <ele>593.998</ele>
        <time>2020-09-02T14:18:48Z</time>
      </trkpt>
      <trkpt lat="44.02886" lon="6.00616">
        <ele>594.351</ele>
        <time>2020-09-02T14:18:49Z</time>
      </trkpt>
      <trkpt lat="44.02883" lon="6.00627">
        <ele>594.817</ele>
        <time>2020-09-02T14:18:50Z</time>
      </trkpt>
      <trkpt lat="44.02878" lon="6.00638">
        <ele>595.787</ele>
        <time>2020-09-02T14:18:51Z</time>
      </trkpt>
      <trkpt lat="44.02875" lon="6.00649">
        <ele>596.115</ele>
        <time>2020-09-02T14:18:52Z</time>
      </trkpt>
      <trkpt lat="44.02873" lon="6.00661">
        <ele>596.408</ele>
        <time>2020-09-02T14:18:53Z</time>
      </trkpt>
      <trkpt lat="44.02873" lon="6.00671">
        <ele>597.479</ele>
        <time>2020-09-02T14:18:54Z</time>
      </trkpt>
      <trkpt lat="44.0287" lon="6.00681">
        <ele>599.538</ele>
        <time>2020-09-02T14:18:55Z</time>
      </trkpt>
      <trkpt lat="44.02868" lon="6.00692">
        <ele>600.328</ele>
        <time>2020-09-02T14:18:56Z</time>
      </trkpt>
      <trkpt lat="44.02863" lon="6.00699">
        <ele>600.735</ele>
        <time>2020-09-02T14:18:57Z</time>
      </trkpt>
      <trkpt lat="44.02859" lon="6.00706">
        <ele>601.236</ele>
        <time>2020-09-02T14:18:58Z</time>
      </trkpt>
      <trkpt lat="44.02853" lon="6.00712">
        <ele>601.284</ele>
        <time>2020-09-02T14:18:59Z</time>
      </trkpt>
      <trkpt lat="44.02848" lon="6.0072">
        <ele>601.99</ele>
        <time>2020-09-02T14:19:00Z</time>
      </trkpt>
      <trkpt lat="44.02843" lon="6.00729">
        <ele>602.893</ele>
        <time>2020-09-02T14:19:01Z</time>
      </trkpt>
      <trkpt lat="44.0284" lon="6.00739">
        <ele>605.324</ele>
        <time>2020-09-02T14:19:02Z</time>
      </trkpt>
      <trkpt lat="44.02836" lon="6.00749">
        <ele>606.004</ele>
        <time>2020-09-02T14:19:03Z</time>
      </trkpt>
      <trkpt lat="44.02838" lon="6.00765">
        <ele>605.814</ele>
        <time>2020-09-02T14:19:04Z</time>
      </trkpt>
      <trkpt lat="44.02837" lon="6.00777">
        <ele>606.108</ele>
        <time>2020-09-02T14:19:05Z</time>
      </trkpt>
      <trkpt lat="44.02835" lon="6.00789">
        <ele>606.01</ele>
        <time>2020-09-02T14:19:06Z</time>
      </trkpt>
      <trkpt lat="44.02835" lon="6.00799">
        <ele>605.859</ele>
        <time>2020-09-02T14:19:07Z</time>
      </trkpt>
      <trkpt lat="44.02835" lon="6.00809">
        <ele>606.279</ele>
        <time>2020-09-02T14:19:08Z</time>
      </trkpt>
      <trkpt lat="44.02836" lon="6.00821">
        <ele>606.396</ele>
        <time>2020-09-02T14:19:09Z</time>
      </trkpt>
      <trkpt lat="44.02836" lon="6.00833">
        <ele>606.757</ele>
        <time>2020-09-02T14:19:10Z</time>
      </trkpt>
      <trkpt lat="44.02836" lon="6.00846">
        <ele>607.595</ele>
        <time>2020-09-02T14:19:11Z</time>
      </trkpt>
      <trkpt lat="44.02834" lon="6.00859">
        <ele>608.481</ele>
        <time>2020-09-02T14:19:12Z</time>
      </trkpt>
      <trkpt lat="44.02832" lon="6.00871">
        <ele>608.994</ele>
        <time>2020-09-02T14:19:13Z</time>
      </trkpt>
      <trkpt lat="44.02828" lon="6.00879">
        <ele>609.736</ele>
        <time>2020-09-02T14:19:14Z</time>
      </trkpt>
      <trkpt lat="44.02827" lon="6.00892">
        <ele>610.717</ele>
        <time>2020-09-02T14:19:15Z</time>
      </trkpt>
      <trkpt lat="44.02824" lon="6.00903">
        <ele>611.518</ele>
        <time>2020-09-02T14:19:16Z</time>
      </trkpt>
      <trkpt lat="44.0282" lon="6.00916">
        <ele>612.208</ele>
        <time>2020-09-02T14:19:17Z</time>
      </trkpt>
      <trkpt lat="44.02814" lon="6.00928">
        <ele>613.131</ele>
        <time>2020-09-02T14:19:18Z</time>
      </trkpt>
      <trkpt lat="44.02809" lon="6.0094">
        <ele>614.32</ele>
        <time>2020-09-02T14:19:19Z</time>
      </trkpt>
      <trkpt lat="44.02806" lon="6.00954">
        <ele>615.51</ele>
        <time>2020-09-02T14:19:20Z</time>
      </trkpt>
      <trkpt lat="44.02801" lon="6.00965">
        <ele>616.547</ele>
        <time>2020-09-02T14:19:21Z</time>
      </trkpt>
      <trkpt lat="44.02797" lon="6.00977">
        <ele>617.898</ele>
        <time>2020-09-02T14:19:22Z</time>
      </trkpt>
      <trkpt lat="44.02794" lon="6.00991">
        <ele>619.696</ele>
        <time>2020-09-02T14:19:23Z</time>
      </trkpt>
      <trkpt lat="44.02791" lon="6.01002">
        <ele>620.932</ele>
        <time>2020-09-02T14:19:24Z</time>
      </trkpt>
      <trkpt lat="44.02789" lon="6.01016">
        <ele>621.845</ele>
        <time>2020-09-02T14:19:25Z</time>
      </trkpt>
      <trkpt lat="44.02787" lon="6.01027">
        <ele>623.835</ele>
        <time>2020-09-02T14:19:26Z</time>
      </trkpt>
      <trkpt lat="44.02787" lon="6.01043">
        <ele>625.986</ele>
        <time>2020-09-02T14:19:27Z</time>
      </trkpt>
      <trkpt lat="44.02785" lon="6.01054">
        <ele>626.314</ele>
        <time>2020-09-02T14:19:28Z</time>
      </trkpt>
      <trkpt lat="44.02783" lon="6.01065">
        <ele>626.708</ele>
        <time>2020-09-02T14:19:29Z</time>
      </trkpt>
      <trkpt lat="44.02779" lon="6.01074">
        <ele>626.581</ele>
        <time>2020-09-02T14:19:30Z</time>
      </trkpt>
      <trkpt lat="44.02776" lon="6.01079">
        <ele>629.03</ele>
        <time>2020-09-02T14:19:31Z</time>
      </trkpt>
      <trkpt lat="44.02771" lon="6.01088">
        <ele>629.57</ele>
        <time>2020-09-02T14:19:32Z</time>
      </trkpt>
      <trkpt lat="44.02762" lon="6.01099">
        <ele>629.257</ele>
        <time>2020-09-02T14:19:33Z</time>
      </trkpt>
      <trkpt lat="44.02756" lon="6.01108">
        <ele>629.178</ele>
        <time>2020-09-02T14:19:34Z</time>
      </trkpt>
      <trkpt lat="44.02752" lon="6.01119">
        <ele>629.736</ele>
        <time>2020-09-02T14:19:35Z</time>
      </trkpt>
      <trkpt lat="44.02743" lon="6.01128">
        <ele>630.492</ele>
        <time>2020-09-02T14:19:36Z</time>
      </trkpt>
      <trkpt lat="44.02738" lon="6.01137">
        <ele>631.235</ele>
        <time>2020-09-02T14:19:37Z</time>
      </trkpt>
      <trkpt lat="44.02733" lon="6.01146">
        <ele>632.095</ele>
        <time>2020-09-02T14:19:38Z</time>
      </trkpt>
      <trkpt lat="44.02727" lon="6.01152">
        <ele>632.549</ele>
        <time>2020-09-02T14:19:39Z</time>
      </trkpt>
      <trkpt lat="44.02723" lon="6.01161">
        <ele>633.723</ele>
        <time>2020-09-02T14:19:40Z</time>
      </trkpt>
      <trkpt lat="44.02718" lon="6.01168">
        <ele>633.808</ele>
        <time>2020-09-02T14:19:41Z</time>
      </trkpt>
      <trkpt lat="44.02715" lon="6.01179">
        <ele>634.197</ele>
        <time>2020-09-02T14:19:42Z</time>
      </trkpt>
      <trkpt lat="44.02711" lon="6.01189">
        <ele>635.286</ele>
        <time>2020-09-02T14:19:43Z</time>
      </trkpt>
      <trkpt lat="44.02708" lon="6.012">
        <ele>635.876</ele>
        <time>2020-09-02T14:19:44Z</time>
      </trkpt>
      <trkpt lat="44.02703" lon="6.01211">
        <ele>637.963</ele>
        <time>2020-09-02T14:19:45Z</time>
      </trkpt>
      <trkpt lat="44.02699" lon="6.01223">
        <ele>637.984</ele>
        <time>2020-09-02T14:19:46Z</time>
      </trkpt>
      <trkpt lat="44.02693" lon="6.01231">
        <ele>639.162</ele>
        <time>2020-09-02T14:19:47Z</time>
      </trkpt>
      <trkpt lat="44.02687" lon="6.01243">
        <ele>639.298</ele>
        <time>2020-09-02T14:19:48Z</time>
      </trkpt>
      <trkpt lat="44.02682" lon="6.0125">
        <ele>641.091</ele>
        <time>2020-09-02T14:19:49Z</time>
      </trkpt>
      <trkpt lat="44.02677" lon="6.0126">
        <ele>640.436</ele>
        <time>2020-09-02T14:19:50Z</time>
      </trkpt>
      <trkpt lat="44.02672" lon="6.01271">
        <ele>641.917</ele>
        <time>2020-09-02T14:19:51Z</time>
      </trkpt>
      <trkpt lat="44.02667" lon="6.01281">
        <ele>642.918</ele>
        <time>2020-09-02T14:19:52Z</time>
      </trkpt>
      <trkpt lat="44.02661" lon="6.01291">
        <ele>643.308</ele>
        <time>2020-09-02T14:19:53Z</time>
      </trkpt>
      <trkpt lat="44.02653" lon="6.01296">
        <ele>643.851</ele>
        <time>2020-09-02T14:19:54Z</time>
      </trkpt>
      <trkpt lat="44.02648" lon="6.01305">
        <ele>645.24</ele>
        <time>2020-09-02T14:19:55Z</time>
      </trkpt>
      <trkpt lat="44.02641" lon="6.01314">
        <ele>646.83</ele>
        <time>2020-09-02T14:19:56Z</time>
      </trkpt>
      <trkpt lat="44.02632" lon="6.01318">
        <ele>647.027</ele>
        <time>2020-09-02T14:19:57Z</time>
      </trkpt>
      <trkpt lat="44.02625" lon="6.01323">
        <ele>647.828</ele>
        <time>2020-09-02T14:19:58Z</time>
      </trkpt>
      <trkpt lat="44.02617" lon="6.01329">
        <ele>649.036</ele>
        <time>2020-09-02T14:19:59Z</time>
      </trkpt>
      <trkpt lat="44.0261" lon="6.01336">
        <ele>649.132</ele>
        <time>2020-09-02T14:20:00Z</time>
      </trkpt>
      <trkpt lat="44.02601" lon="6.01342">
        <ele>649.425</ele>
        <time>2020-09-02T14:20:01Z</time>
      </trkpt>
      <trkpt lat="44.02594" lon="6.01347">
        <ele>651.963</ele>
        <time>2020-09-02T14:20:02Z</time>
      </trkpt>
      <trkpt lat="44.02586" lon="6.01351">
        <ele>652.444</ele>
        <time>2020-09-02T14:20:03Z</time>
      </trkpt>
      <trkpt lat="44.02578" lon="6.01356">
        <ele>652.818</ele>
        <time>2020-09-02T14:20:04Z</time>
      </trkpt>
      <trkpt lat="44.02569" lon="6.01357">
        <ele>654.108</ele>
        <time>2020-09-02T14:20:05Z</time>
      </trkpt>
      <trkpt lat="44.02562" lon="6.01356">
        <ele>655.374</ele>
        <time>2020-09-02T14:20:06Z</time>
      </trkpt>
      <trkpt lat="44.02554" lon="6.01355">
        <ele>656.063</ele>
        <time>2020-09-02T14:20:07Z</time>
      </trkpt>
      <trkpt lat="44.0255" lon="6.01362">
        <ele>657.593</ele>
        <time>2020-09-02T14:20:08Z</time>
      </trkpt>
      <trkpt lat="44.02545" lon="6.01368">
        <ele>658.43</ele>
        <time>2020-09-02T14:20:09Z</time>
      </trkpt>
      <trkpt lat="44.02541" lon="6.01374">
        <ele>659.011</ele>
        <time>2020-09-02T14:20:10Z</time>
      </trkpt>
      <trkpt lat="44.02537" lon="6.0138">
        <ele>659.689</ele>
        <time>2020-09-02T14:20:11Z</time>
      </trkpt>
      <trkpt lat="44.02531" lon="6.01386">
        <ele>660.325</ele>
        <time>2020-09-02T14:20:12Z</time>
      </trkpt>
      <trkpt lat="44.02525" lon="6.01391">
        <ele>661.248</ele>
        <time>2020-09-02T14:20:13Z</time>
      </trkpt>
      <trkpt lat="44.0252" lon="6.01396">
        <ele>661.125</ele>
        <time>2020-09-02T14:20:14Z</time>
      </trkpt>
      <trkpt lat="44.02515" lon="6.01402">
        <ele>663.226</ele>
        <time>2020-09-02T14:20:15Z</time>
      </trkpt>
      <trkpt lat="44.0251" lon="6.0141">
        <ele>663.108</ele>
        <time>2020-09-02T14:20:16Z</time>
      </trkpt>
      <trkpt lat="44.02505" lon="6.01419">
        <ele>663.308</ele>
        <time>2020-09-02T14:20:17Z</time>
      </trkpt>
      <trkpt lat="44.025" lon="6.01426">
        <ele>663.69</ele>
        <time>2020-09-02T14:20:18Z</time>
      </trkpt>
      <trkpt lat="44.02493" lon="6.01433">
        <ele>663.389</ele>
        <time>2020-09-02T14:20:19Z</time>
      </trkpt>
      <trkpt lat="44.02488" lon="6.0144">
        <ele>662.569</ele>
        <time>2020-09-02T14:20:20Z</time>
      </trkpt>
      <trkpt lat="44.02482" lon="6.01448">
        <ele>663.996</ele>
        <time>2020-09-02T14:20:21Z</time>
      </trkpt>
      <trkpt lat="44.02478" lon="6.01454">
        <ele>664.867</ele>
        <time>2020-09-02T14:20:22Z</time>
      </trkpt>
      <trkpt lat="44.02474" lon="6.01461">
        <ele>665.795</ele>
        <time>2020-09-02T14:20:23Z</time>
      </trkpt>
      <trkpt lat="44.0247" lon="6.01469">
        <ele>668.271</ele>
        <time>2020-09-02T14:20:24Z</time>
      </trkpt>
      <trkpt lat="44.02464" lon="6.01472">
        <ele>669.534</ele>
        <time>2020-09-02T14:20:25Z</time>
      </trkpt>
      <trkpt lat="44.02459" lon="6.01478">
        <ele>670.957</ele>
        <time>2020-09-02T14:20:26Z</time>
      </trkpt>
      <trkpt lat="44.02454" lon="6.01484">
        <ele>672.2</ele>
        <time>2020-09-02T14:20:27Z</time>
      </trkpt>
      <trkpt lat="44.0245" lon="6.01492">
        <ele>671.82</ele>
        <time>2020-09-02T14:20:28Z</time>
      </trkpt>
      <trkpt lat="44.02447" lon="6.015">
        <ele>673.808</ele>
        <time>2020-09-02T14:20:29Z</time>
      </trkpt>
      <trkpt lat="44.02444" lon="6.01509">
        <ele>674.493</ele>
        <time>2020-09-02T14:20:30Z</time>
      </trkpt>
      <trkpt lat="44.02442" lon="6.01518">
        <ele>675.182</ele>
        <time>2020-09-02T14:20:31Z</time>
      </trkpt>
      <trkpt lat="44.0244" lon="6.01526">
        <ele>675.972</ele>
        <time>2020-09-02T14:20:32Z</time>
      </trkpt>
      <trkpt lat="44.02436" lon="6.01531">
        <ele>676.279</ele>
        <time>2020-09-02T14:20:33Z</time>
      </trkpt>
      <trkpt lat="44.0243" lon="6.01538">
        <ele>679.33</ele>
        <time>2020-09-02T14:20:34Z</time>
      </trkpt>
      <trkpt lat="44.02425" lon="6.01545">
        <ele>678.818</ele>
        <time>2020-09-02T14:20:35Z</time>
      </trkpt>
      <trkpt lat="44.02421" lon="6.01553">
        <ele>678.534</ele>
        <time>2020-09-02T14:20:36Z</time>
      </trkpt>
      <trkpt lat="44.02416" lon="6.01559">
        <ele>678.877</ele>
        <time>2020-09-02T14:20:37Z</time>
      </trkpt>
      <trkpt lat="44.02417" lon="6.01568">
        <ele>680.162</ele>
        <time>2020-09-02T14:20:38Z</time>
      </trkpt>
      <trkpt lat="44.02415" lon="6.01577">
        <ele>681.083</ele>
        <time>2020-09-02T14:20:39Z</time>
      </trkpt>
      <trkpt lat="44.02413" lon="6.01586">
        <ele>681.511</ele>
        <time>2020-09-02T14:20:40Z</time>
      </trkpt>
      <trkpt lat="44.02411" lon="6.01594">
        <ele>681.508</ele>
        <time>2020-09-02T14:20:41Z</time>
      </trkpt>
      <trkpt lat="44.02411" lon="6.01604">
        <ele>683.074</ele>
        <time>2020-09-02T14:20:42Z</time>
      </trkpt>
      <trkpt lat="44.0241" lon="6.01613">
        <ele>684.693</ele>
        <time>2020-09-02T14:20:43Z</time>
      </trkpt>
      <trkpt lat="44.02409" lon="6.01623">
        <ele>686.613</ele>
        <time>2020-09-02T14:20:44Z</time>
      </trkpt>
      <trkpt lat="44.02403" lon="6.0163">
        <ele>688.44</ele>
        <time>2020-09-02T14:20:45Z</time>
      </trkpt>
      <trkpt lat="44.02402" lon="6.0164">
        <ele>689.551</ele>
        <time>2020-09-02T14:20:46Z</time>
      </trkpt>
      <trkpt lat="44.02401" lon="6.01651">
        <ele>691.379</ele>
        <time>2020-09-02T14:20:47Z</time>
      </trkpt>
      <trkpt lat="44.024" lon="6.01661">
        <ele>691.535</ele>
        <time>2020-09-02T14:20:48Z</time>
      </trkpt>
      <trkpt lat="44.02401" lon="6.0167">
        <ele>692.518</ele>
        <time>2020-09-02T14:20:49Z</time>
      </trkpt>
      <trkpt lat="44.02395" lon="6.0168">
        <ele>693.676</ele>
        <time>2020-09-02T14:20:50Z</time>
      </trkpt>
      <trkpt lat="44.02394" lon="6.01689">
        <ele>694.49</ele>
        <time>2020-09-02T14:20:51Z</time>
      </trkpt>
      <trkpt lat="44.02392" lon="6.01695">
        <ele>694.619</ele>
        <time>2020-09-02T14:20:52Z</time>
      </trkpt>
      <trkpt lat="44.02388" lon="6.01703">
        <ele>695.808</ele>
        <time>2020-09-02T14:20:53Z</time>
      </trkpt>
      <trkpt lat="44.02385" lon="6.01712">
        <ele>696.355</ele>
        <time>2020-09-02T14:20:54Z</time>
      </trkpt>
      <trkpt lat="44.02382" lon="6.01717">
        <ele>697.814</ele>
        <time>2020-09-02T14:20:55Z</time>
      </trkpt>
      <trkpt lat="44.02379" lon="6.01725">
        <ele>699.144</ele>
        <time>2020-09-02T14:20:56Z</time>
      </trkpt>
      <trkpt lat="44.02372" lon="6.01731">
        <ele>700.111</ele>
        <time>2020-09-02T14:20:57Z</time>
      </trkpt>
      <trkpt lat="44.02369" lon="6.01738">
        <ele>701.072</ele>
        <time>2020-09-02T14:20:58Z</time>
      </trkpt>
      <trkpt lat="44.02367" lon="6.01744">
        <ele>701.72</ele>
        <time>2020-09-02T14:20:59Z</time>
      </trkpt>
      <trkpt lat="44.02365" lon="6.0175">
        <ele>702.026</ele>
        <time>2020-09-02T14:21:00Z</time>
      </trkpt>
      <trkpt lat="44.02365" lon="6.01762">
        <ele>702.349</ele>
        <time>2020-09-02T14:21:02Z</time>
      </trkpt>
      <trkpt lat="44.02365" lon="6.0177">
        <ele>702.334</ele>
        <time>2020-09-02T14:21:03Z</time>
      </trkpt>
      <trkpt lat="44.02365" lon="6.01778">
        <ele>702.755</ele>
        <time>2020-09-02T14:21:04Z</time>
      </trkpt>
      <trkpt lat="44.02358" lon="6.01784">
        <ele>703.11</ele>
        <time>2020-09-02T14:21:05Z</time>
      </trkpt>
      <trkpt lat="44.02358" lon="6.01795">
        <ele>705.808</ele>
        <time>2020-09-02T14:21:06Z</time>
      </trkpt>
      <trkpt lat="44.0236" lon="6.01805">
        <ele>707.051</ele>
        <time>2020-09-02T14:21:07Z</time>
      </trkpt>
      <trkpt lat="44.02359" lon="6.01813">
        <ele>707.06</ele>
        <time>2020-09-02T14:21:08Z</time>
      </trkpt>
      <trkpt lat="44.02359" lon="6.01823">
        <ele>707.28</ele>
        <time>2020-09-02T14:21:09Z</time>
      </trkpt>
      <trkpt lat="44.02359" lon="6.01833">
        <ele>707.377</ele>
        <time>2020-09-02T14:21:10Z</time>
      </trkpt>
      <trkpt lat="44.02361" lon="6.01845">
        <ele>706.568</ele>
        <time>2020-09-02T14:21:11Z</time>
      </trkpt>
      <trkpt lat="44.0236" lon="6.01857">
        <ele>707.086</ele>
        <time>2020-09-02T14:21:12Z</time>
      </trkpt>
      <trkpt lat="44.02357" lon="6.01868">
        <ele>707.122</ele>
        <time>2020-09-02T14:21:13Z</time>
      </trkpt>
      <trkpt lat="44.02357" lon="6.01877">
        <ele>708.665</ele>
        <time>2020-09-02T14:21:14Z</time>
      </trkpt>
      <trkpt lat="44.02357" lon="6.01886">
        <ele>710.249</ele>
        <time>2020-09-02T14:21:15Z</time>
      </trkpt>
      <trkpt lat="44.02355" lon="6.01896">
        <ele>711.302</ele>
        <time>2020-09-02T14:21:16Z</time>
      </trkpt>
      <trkpt lat="44.02355" lon="6.01907">
        <ele>712.222</ele>
        <time>2020-09-02T14:21:17Z</time>
      </trkpt>
      <trkpt lat="44.02354" lon="6.01925">
        <ele>712.708</ele>
        <time>2020-09-02T14:21:18Z</time>
      </trkpt>
      <trkpt lat="44.02354" lon="6.01937">
        <ele>714.672</ele>
        <time>2020-09-02T14:21:19Z</time>
      </trkpt>
      <trkpt lat="44.02357" lon="6.0195">
        <ele>714.311</ele>
        <time>2020-09-02T14:21:20Z</time>
      </trkpt>
      <trkpt lat="44.0236" lon="6.01962">
        <ele>718.561</ele>
        <time>2020-09-02T14:21:21Z</time>
      </trkpt>
      <trkpt lat="44.02362" lon="6.01971">
        <ele>719.458</ele>
        <time>2020-09-02T14:21:22Z</time>
      </trkpt>
      <trkpt lat="44.02363" lon="6.0198">
        <ele>721.289</ele>
        <time>2020-09-02T14:21:23Z</time>
      </trkpt>
      <trkpt lat="44.02362" lon="6.0199">
        <ele>722.137</ele>
        <time>2020-09-02T14:21:24Z</time>
      </trkpt>
      <trkpt lat="44.02362" lon="6.01999">
        <ele>723.933</ele>
        <time>2020-09-02T14:21:25Z</time>
      </trkpt>
      <trkpt lat="44.02361" lon="6.02009">
        <ele>726.496</ele>
        <time>2020-09-02T14:21:26Z</time>
      </trkpt>
      <trkpt lat="44.02358" lon="6.02022">
        <ele>728.345</ele>
        <time>2020-09-02T14:21:27Z</time>
      </trkpt>
      <trkpt lat="44.02357" lon="6.02033">
        <ele>729.947</ele>
        <time>2020-09-02T14:21:28Z</time>
      </trkpt>
      <trkpt lat="44.02355" lon="6.02043">
        <ele>731.811</ele>
        <time>2020-09-02T14:21:29Z</time>
      </trkpt>
      <trkpt lat="44.02348" lon="6.02045">
        <ele>734.208</ele>
        <time>2020-09-02T14:21:30Z</time>
      </trkpt>
      <trkpt lat="44.02344" lon="6.02052">
        <ele>734.572</ele>
        <time>2020-09-02T14:21:31Z</time>
      </trkpt>
      <trkpt lat="44.02339" lon="6.02059">
        <ele>735.091</ele>
        <time>2020-09-02T14:21:32Z</time>
      </trkpt>
      <trkpt lat="44.02336" lon="6.02067">
        <ele>736.521</ele>
        <time>2020-09-02T14:21:33Z</time>
      </trkpt>
      <trkpt lat="44.02332" lon="6.02073">
        <ele>736.728</ele>
        <time>2020-09-02T14:21:34Z</time>
      </trkpt>
      <trkpt lat="44.02327" lon="6.02079">
        <ele>736.169</ele>
        <time>2020-09-02T14:21:35Z</time>
      </trkpt>
      <trkpt lat="44.02321" lon="6.02084">
        <ele>737.227</ele>
        <time>2020-09-02T14:21:36Z</time>
      </trkpt>
      <trkpt lat="44.02314" lon="6.02083">
        <ele>737.763</ele>
        <time>2020-09-02T14:21:37Z</time>
      </trkpt>
      <trkpt lat="44.02307" lon="6.02087">
        <ele>739.376</ele>
        <time>2020-09-02T14:21:38Z</time>
      </trkpt>
      <trkpt lat="44.02301" lon="6.02091">
        <ele>740.949</ele>
        <time>2020-09-02T14:21:39Z</time>
      </trkpt>
      <trkpt lat="44.02297" lon="6.02096">
        <ele>741.902</ele>
        <time>2020-09-02T14:21:40Z</time>
      </trkpt>
      <trkpt lat="44.02289" lon="6.02099">
        <ele>743.522</ele>
        <time>2020-09-02T14:21:41Z</time>
      </trkpt>
      <trkpt lat="44.02282" lon="6.02104">
        <ele>745.908</ele>
        <time>2020-09-02T14:21:42Z</time>
      </trkpt>
      <trkpt lat="44.02273" lon="6.02102">
        <ele>747.652</ele>
        <time>2020-09-02T14:21:43Z</time>
      </trkpt>
      <trkpt lat="44.02265" lon="6.02101">
        <ele>749.051</ele>
        <time>2020-09-02T14:21:44Z</time>
      </trkpt>
      <trkpt lat="44.02257" lon="6.02104">
        <ele>749.761</ele>
        <time>2020-09-02T14:21:45Z</time>
      </trkpt>
      <trkpt lat="44.02251" lon="6.02108">
        <ele>750.348</ele>
        <time>2020-09-02T14:21:46Z</time>
      </trkpt>
      <trkpt lat="44.02244" lon="6.02114">
        <ele>751.579</ele>
        <time>2020-09-02T14:21:47Z</time>
      </trkpt>
      <trkpt lat="44.02236" lon="6.0212">
        <ele>752.017</ele>
        <time>2020-09-02T14:21:48Z</time>
      </trkpt>
      <trkpt lat="44.02226" lon="6.0213">
        <ele>753.033</ele>
        <time>2020-09-02T14:21:49Z</time>
      </trkpt>
      <trkpt lat="44.02217" lon="6.02137">
        <ele>755.636</ele>
        <time>2020-09-02T14:21:50Z</time>
      </trkpt>
      <trkpt lat="44.02206" lon="6.02148">
        <ele>756.184</ele>
        <time>2020-09-02T14:21:51Z</time>
      </trkpt>
      <trkpt lat="44.02196" lon="6.02153">
        <ele>756.407</ele>
        <time>2020-09-02T14:21:52Z</time>
      </trkpt>
      <trkpt lat="44.0219" lon="6.0216">
        <ele>757.417</ele>
        <time>2020-09-02T14:21:53Z</time>
      </trkpt>
      <trkpt lat="44.02185" lon="6.02166">
        <ele>758.508</ele>
        <time>2020-09-02T14:21:54Z</time>
      </trkpt>
      <trkpt lat="44.02179" lon="6.02172">
        <ele>760.286</ele>
        <time>2020-09-02T14:21:55Z</time>
      </trkpt>
      <trkpt lat="44.02181" lon="6.0218">
        <ele>762.515</ele>
        <time>2020-09-02T14:21:56Z</time>
      </trkpt>
      <trkpt lat="44.02179" lon="6.02187">
        <ele>763.955</ele>
        <time>2020-09-02T14:21:57Z</time>
      </trkpt>
      <trkpt lat="44.02175" lon="6.02194">
        <ele>766.452</ele>
        <time>2020-09-02T14:21:58Z</time>
      </trkpt>
      <trkpt lat="44.02174" lon="6.02207">
        <ele>767.623</ele>
        <time>2020-09-02T14:21:59Z</time>
      </trkpt>
      <trkpt lat="44.0217" lon="6.02215">
        <ele>768.991</ele>
        <time>2020-09-02T14:22:00Z</time>
      </trkpt>
      <trkpt lat="44.02168" lon="6.02224">
        <ele>770.877</ele>
        <time>2020-09-02T14:22:01Z</time>
      </trkpt>
      <trkpt lat="44.02164" lon="6.02233">
        <ele>771.98</ele>
        <time>2020-09-02T14:22:02Z</time>
      </trkpt>
      <trkpt lat="44.02161" lon="6.02242">
        <ele>772.928</ele>
        <time>2020-09-02T14:22:03Z</time>
      </trkpt>
      <trkpt lat="44.02162" lon="6.0225">
        <ele>773.989</ele>
        <time>2020-09-02T14:22:04Z</time>
      </trkpt>
      <trkpt lat="44.02162" lon="6.0226">
        <ele>776.217</ele>
        <time>2020-09-02T14:22:05Z</time>
      </trkpt>
      <trkpt lat="44.02163" lon="6.02268">
        <ele>777.508</ele>
        <time>2020-09-02T14:22:06Z</time>
      </trkpt>
      <trkpt lat="44.02158" lon="6.02278">
        <ele>778.52</ele>
        <time>2020-09-02T14:22:07Z</time>
      </trkpt>
      <trkpt lat="44.02158" lon="6.02285">
        <ele>778.899</ele>
        <time>2020-09-02T14:22:08Z</time>
      </trkpt>
      <trkpt lat="44.02158" lon="6.02295">
        <ele>780.769</ele>
        <time>2020-09-02T14:22:09Z</time>
      </trkpt>
      <trkpt lat="44.02157" lon="6.02305">
        <ele>782.716</ele>
        <time>2020-09-02T14:22:10Z</time>
      </trkpt>
      <trkpt lat="44.02156" lon="6.02316">
        <ele>784.537</ele>
        <time>2020-09-02T14:22:11Z</time>
      </trkpt>
      <trkpt lat="44.02155" lon="6.02326">
        <ele>787.385</ele>
        <time>2020-09-02T14:22:12Z</time>
      </trkpt>
      <trkpt lat="44.02156" lon="6.02333">
        <ele>788.661</ele>
        <time>2020-09-02T14:22:13Z</time>
      </trkpt>
      <trkpt lat="44.02155" lon="6.02343">
        <ele>790.054</ele>
        <time>2020-09-02T14:22:14Z</time>
      </trkpt>
      <trkpt lat="44.02152" lon="6.0235">
        <ele>793.666</ele>
        <time>2020-09-02T14:22:16Z</time>
      </trkpt>
      <trkpt lat="44.02147" lon="6.02353">
        <ele>795.329</ele>
        <time>2020-09-02T14:22:18Z</time>
      </trkpt>
      <trkpt lat="44.0214" lon="6.02356">
        <ele>791.921</ele>
        <time>2020-09-02T14:22:25Z</time>
      </trkpt>
      <trkpt lat="44.02134" lon="6.02362">
        <ele>792.408</ele>
        <time>2020-09-02T14:22:27Z</time>
      </trkpt>
      <trkpt lat="44.02131" lon="6.02367">
        <ele>792.954</ele>
        <time>2020-09-02T14:22:28Z</time>
      </trkpt>
      <trkpt lat="44.02127" lon="6.02372">
        <ele>793.063</ele>
        <time>2020-09-02T14:22:29Z</time>
      </trkpt>
      <trkpt lat="44.02122" lon="6.02377">
        <ele>794.343</ele>
        <time>2020-09-02T14:22:30Z</time>
      </trkpt>
      <trkpt lat="44.02117" lon="6.02385">
        <ele>797.32</ele>
        <time>2020-09-02T14:22:31Z</time>
      </trkpt>
      <trkpt lat="44.02111" lon="6.02395">
        <ele>797.841</ele>
        <time>2020-09-02T14:22:32Z</time>
      </trkpt>
      <trkpt lat="44.02107" lon="6.02405">
        <ele>798.349</ele>
        <time>2020-09-02T14:22:33Z</time>
      </trkpt>
      <trkpt lat="44.02103" lon="6.02414">
        <ele>799.485</ele>
        <time>2020-09-02T14:22:34Z</time>
      </trkpt>
      <trkpt lat="44.02098" lon="6.02424">
        <ele>800.828</ele>
        <time>2020-09-02T14:22:35Z</time>
      </trkpt>
      <trkpt lat="44.02092" lon="6.02435">
        <ele>802.328</ele>
        <time>2020-09-02T14:22:36Z</time>
      </trkpt>
      <trkpt lat="44.02087" lon="6.02446">
        <ele>803.989</ele>
        <time>2020-09-02T14:22:37Z</time>
      </trkpt>
      <trkpt lat="44.02081" lon="6.02458">
        <ele>806.417</ele>
        <time>2020-09-02T14:22:38Z</time>
      </trkpt>
      <trkpt lat="44.02075" lon="6.02469">
        <ele>808.408</ele>
        <time>2020-09-02T14:22:39Z</time>
      </trkpt>
      <trkpt lat="44.02067" lon="6.02478">
        <ele>810.14</ele>
        <time>2020-09-02T14:22:40Z</time>
      </trkpt>
      <trkpt lat="44.0206" lon="6.02485">
        <ele>811.569</ele>
        <time>2020-09-02T14:22:41Z</time>
      </trkpt>
      <trkpt lat="44.02051" lon="6.02491">
        <ele>813.559</ele>
        <time>2020-09-02T14:22:42Z</time>
      </trkpt>
      <trkpt lat="44.02043" lon="6.02496">
        <ele>815.676</ele>
        <time>2020-09-02T14:22:43Z</time>
      </trkpt>
      <trkpt lat="44.02036" lon="6.02499">
        <ele>818.177</ele>
        <time>2020-09-02T14:22:44Z</time>
      </trkpt>
      <trkpt lat="44.02032" lon="6.02504">
        <ele>819.625</ele>
        <time>2020-09-02T14:22:45Z</time>
      </trkpt>
      <trkpt lat="44.02027" lon="6.02508">
        <ele>820.731</ele>
        <time>2020-09-02T14:22:46Z</time>
      </trkpt>
      <trkpt lat="44.02023" lon="6.02512">
        <ele>821.324</ele>
        <time>2020-09-02T14:22:47Z</time>
      </trkpt>
      <trkpt lat="44.02019" lon="6.02515">
        <ele>821.987</ele>
        <time>2020-09-02T14:22:48Z</time>
      </trkpt>
      <trkpt lat="44.02014" lon="6.0252">
        <ele>823.242</ele>
        <time>2020-09-02T14:22:49Z</time>
      </trkpt>
      <trkpt lat="44.02007" lon="6.0252">
        <ele>824.126</ele>
        <time>2020-09-02T14:22:51Z</time>
      </trkpt>
      <trkpt lat="44.02004" lon="6.02514">
        <ele>825.808</ele>
        <time>2020-09-02T14:25:23Z</time>
      </trkpt>
      <trkpt lat="44.02003" lon="6.02502">
        <ele>825.126</ele>
        <time>2020-09-02T14:25:25Z</time>
      </trkpt>
      <trkpt lat="44.02003" lon="6.02493">
        <ele>825.445</ele>
        <time>2020-09-02T14:25:27Z</time>
      </trkpt>
      <trkpt lat="44.02001" lon="6.0248">
        <ele>826.215</ele>
        <time>2020-09-02T14:25:29Z</time>
      </trkpt>
      <trkpt lat="44.01999" lon="6.02474">
        <ele>827.042</ele>
        <time>2020-09-02T14:25:30Z</time>
      </trkpt>
      <trkpt lat="44.01995" lon="6.02463">
        <ele>827.333</ele>
        <time>2020-09-02T14:25:32Z</time>
      </trkpt>
      <trkpt lat="44.01993" lon="6.02455">
        <ele>827.691</ele>
        <time>2020-09-02T14:25:34Z</time>
      </trkpt>
      <trkpt lat="44.01989" lon="6.0245">
        <ele>828.227</ele>
        <time>2020-09-02T14:25:46Z</time>
      </trkpt>
      <trkpt lat="44.01984" lon="6.02446">
        <ele>828.73</ele>
        <time>2020-09-02T14:25:47Z</time>
      </trkpt>
      <trkpt lat="44.0198" lon="6.0244">
        <ele>829.341</ele>
        <time>2020-09-02T14:25:48Z</time>
      </trkpt>
      <trkpt lat="44.01975" lon="6.02434">
        <ele>829.881</ele>
        <time>2020-09-02T14:25:49Z</time>
      </trkpt>
      <trkpt lat="44.01967" lon="6.02428">
        <ele>830.009</ele>
        <time>2020-09-02T14:25:50Z</time>
      </trkpt>
      <trkpt lat="44.01959" lon="6.02421">
        <ele>830.208</ele>
        <time>2020-09-02T14:25:51Z</time>
      </trkpt>
      <trkpt lat="44.0195" lon="6.02413">
        <ele>830.122</ele>
        <time>2020-09-02T14:25:52Z</time>
      </trkpt>
      <trkpt lat="44.01939" lon="6.02405">
        <ele>829.121</ele>
        <time>2020-09-02T14:25:53Z</time>
      </trkpt>
      <trkpt lat="44.01928" lon="6.02394">
        <ele>828.851</ele>
        <time>2020-09-02T14:25:54Z</time>
      </trkpt>
      <trkpt lat="44.01917" lon="6.02382">
        <ele>828.778</ele>
        <time>2020-09-02T14:25:55Z</time>
      </trkpt>
      <trkpt lat="44.01907" lon="6.0237">
        <ele>828.339</ele>
        <time>2020-09-02T14:25:56Z</time>
      </trkpt>
      <trkpt lat="44.01897" lon="6.02357">
        <ele>828.197</ele>
        <time>2020-09-02T14:25:57Z</time>
      </trkpt>
      <trkpt lat="44.01889" lon="6.02345">
        <ele>828.333</ele>
        <time>2020-09-02T14:25:58Z</time>
      </trkpt>
      <trkpt lat="44.0188" lon="6.02331">
        <ele>828.186</ele>
        <time>2020-09-02T14:25:59Z</time>
      </trkpt>
      <trkpt lat="44.0187" lon="6.02318">
        <ele>827.547</ele>
        <time>2020-09-02T14:26:00Z</time>
      </trkpt>
      <trkpt lat="44.01862" lon="6.02304">
        <ele>827.529</ele>
        <time>2020-09-02T14:26:01Z</time>
      </trkpt>
      <trkpt lat="44.01855" lon="6.02291">
        <ele>826.721</ele>
        <time>2020-09-02T14:26:02Z</time>
      </trkpt>
      <trkpt lat="44.01849" lon="6.02275">
        <ele>826.908</ele>
        <time>2020-09-02T14:26:03Z</time>
      </trkpt>
      <trkpt lat="44.01843" lon="6.0226">
        <ele>827.152</ele>
        <time>2020-09-02T14:26:04Z</time>
      </trkpt>
      <trkpt lat="44.01836" lon="6.02245">
        <ele>827.011</ele>
        <time>2020-09-02T14:26:05Z</time>
      </trkpt>
      <trkpt lat="44.01828" lon="6.02228">
        <ele>826.651</ele>
        <time>2020-09-02T14:26:06Z</time>
      </trkpt>
      <trkpt lat="44.0182" lon="6.02213">
        <ele>826.368</ele>
        <time>2020-09-02T14:26:07Z</time>
      </trkpt>
      <trkpt lat="44.01811" lon="6.022">
        <ele>826.179</ele>
        <time>2020-09-02T14:26:08Z</time>
      </trkpt>
      <trkpt lat="44.01802" lon="6.02188">
        <ele>824.817</ele>
        <time>2020-09-02T14:26:09Z</time>
      </trkpt>
      <trkpt lat="44.01791" lon="6.02179">
        <ele>823.283</ele>
        <time>2020-09-02T14:26:10Z</time>
      </trkpt>
      <trkpt lat="44.01778" lon="6.02171">
        <ele>822.876</ele>
        <time>2020-09-02T14:26:11Z</time>
      </trkpt>
      <trkpt lat="44.01766" lon="6.02163">
        <ele>822.479</ele>
        <time>2020-09-02T14:26:12Z</time>
      </trkpt>
      <trkpt lat="44.01755" lon="6.02156">
        <ele>822.505</ele>
        <time>2020-09-02T14:26:13Z</time>
      </trkpt>
      <trkpt lat="44.01747" lon="6.02149">
        <ele>822.525</ele>
        <time>2020-09-02T14:26:14Z</time>
      </trkpt>
      <trkpt lat="44.01741" lon="6.02143">
        <ele>822.708</ele>
        <time>2020-09-02T14:26:15Z</time>
      </trkpt>
      <trkpt lat="44.01737" lon="6.02137">
        <ele>822.725</ele>
        <time>2020-09-02T14:26:16Z</time>
      </trkpt>
      <trkpt lat="44.01734" lon="6.02131">
        <ele>822.214</ele>
        <time>2020-09-02T14:26:17Z</time>
      </trkpt>
      <trkpt lat="44.01732" lon="6.02125">
        <ele>822.194</ele>
        <time>2020-09-02T14:26:19Z</time>
      </trkpt>
      <trkpt lat="44.01732" lon="6.02114">
        <ele>824.311</ele>
        <time>2020-09-02T14:27:30Z</time>
      </trkpt>
      <trkpt lat="44.01731" lon="6.02107">
        <ele>824.292</ele>
        <time>2020-09-02T14:27:31Z</time>
      </trkpt>
      <trkpt lat="44.01731" lon="6.02097">
        <ele>823.75</ele>
        <time>2020-09-02T14:27:32Z</time>
      </trkpt>
      <trkpt lat="44.0173" lon="6.02086">
        <ele>824.236</ele>
        <time>2020-09-02T14:27:33Z</time>
      </trkpt>
      <trkpt lat="44.0173" lon="6.02076">
        <ele>823.969</ele>
        <time>2020-09-02T14:27:34Z</time>
      </trkpt>
      <trkpt lat="44.01731" lon="6.02066">
        <ele>823.236</ele>
        <time>2020-09-02T14:27:35Z</time>
      </trkpt>
      <trkpt lat="44.01733" lon="6.02057">
        <ele>823.017</ele>
        <time>2020-09-02T14:27:36Z</time>
      </trkpt>
      <trkpt lat="44.01734" lon="6.02046">
        <ele>822.818</ele>
        <time>2020-09-02T14:27:37Z</time>
      </trkpt>
      <trkpt lat="44.01735" lon="6.02035">
        <ele>823.108</ele>
        <time>2020-09-02T14:27:38Z</time>
      </trkpt>
      <trkpt lat="44.01736" lon="6.02023">
        <ele>823.491</ele>
        <time>2020-09-02T14:27:39Z</time>
      </trkpt>
      <trkpt lat="44.01738" lon="6.02013">
        <ele>823.85</ele>
        <time>2020-09-02T14:27:40Z</time>
      </trkpt>
      <trkpt lat="44.0174" lon="6.02002">
        <ele>824.06</ele>
        <time>2020-09-02T14:27:41Z</time>
      </trkpt>
      <trkpt lat="44.01741" lon="6.01991">
        <ele>824.347</ele>
        <time>2020-09-02T14:27:42Z</time>
      </trkpt>
      <trkpt lat="44.01743" lon="6.01982">
        <ele>824.148</ele>
        <time>2020-09-02T14:27:43Z</time>
      </trkpt>
      <trkpt lat="44.01747" lon="6.01972">
        <ele>823.926</ele>
        <time>2020-09-02T14:27:44Z</time>
      </trkpt>
      <trkpt lat="44.01751" lon="6.01964">
        <ele>824.022</ele>
        <time>2020-09-02T14:27:45Z</time>
      </trkpt>
      <trkpt lat="44.01755" lon="6.01956">
        <ele>824.755</ele>
        <time>2020-09-02T14:27:46Z</time>
      </trkpt>
      <trkpt lat="44.01758" lon="6.01948">
        <ele>825.093</ele>
        <time>2020-09-02T14:27:47Z</time>
      </trkpt>
      <trkpt lat="44.01761" lon="6.01941">
        <ele>825.265</ele>
        <time>2020-09-02T14:27:48Z</time>
      </trkpt>
      <trkpt lat="44.01763" lon="6.01935">
        <ele>825.121</ele>
        <time>2020-09-02T14:27:49Z</time>
      </trkpt>
      <trkpt lat="44.01765" lon="6.01928">
        <ele>824.808</ele>
        <time>2020-09-02T14:27:50Z</time>
      </trkpt>
      <trkpt lat="44.01766" lon="6.01922">
        <ele>824.677</ele>
        <time>2020-09-02T14:27:51Z</time>
      </trkpt>
      <trkpt lat="44.01766" lon="6.01914">
        <ele>824.686</ele>
        <time>2020-09-02T14:27:52Z</time>
      </trkpt>
      <trkpt lat="44.01767" lon="6.01904">
        <ele>824.076</ele>
        <time>2020-09-02T14:27:53Z</time>
      </trkpt>
      <trkpt lat="44.01767" lon="6.01892">
        <ele>823.943</ele>
        <time>2020-09-02T14:27:54Z</time>
      </trkpt>
      <trkpt lat="44.01766" lon="6.01877">
        <ele>823.364</ele>
        <time>2020-09-02T14:27:55Z</time>
      </trkpt>
      <trkpt lat="44.01764" lon="6.01861">
        <ele>822.822</ele>
        <time>2020-09-02T14:27:56Z</time>
      </trkpt>
      <trkpt lat="44.01762" lon="6.01844">
        <ele>822.248</ele>
        <time>2020-09-02T14:27:57Z</time>
      </trkpt>
      <trkpt lat="44.0176" lon="6.01827">
        <ele>821.341</ele>
        <time>2020-09-02T14:27:58Z</time>
      </trkpt>
      <trkpt lat="44.01758" lon="6.01808">
        <ele>820.239</ele>
        <time>2020-09-02T14:27:59Z</time>
      </trkpt>
      <trkpt lat="44.01756" lon="6.01791">
        <ele>819.201</ele>
        <time>2020-09-02T14:28:00Z</time>
      </trkpt>
      <trkpt lat="44.01754" lon="6.01774">
        <ele>818.321</ele>
        <time>2020-09-02T14:28:01Z</time>
      </trkpt>
      <trkpt lat="44.01753" lon="6.01755">
        <ele>818.008</ele>
        <time>2020-09-02T14:28:02Z</time>
      </trkpt>
      <trkpt lat="44.01753" lon="6.01739">
        <ele>817.161</ele>
        <time>2020-09-02T14:28:03Z</time>
      </trkpt>
      <trkpt lat="44.01755" lon="6.01723">
        <ele>816.02</ele>
        <time>2020-09-02T14:28:04Z</time>
      </trkpt>
      <trkpt lat="44.0176" lon="6.01708">
        <ele>815.37</ele>
        <time>2020-09-02T14:28:05Z</time>
      </trkpt>
      <trkpt lat="44.01765" lon="6.01691">
        <ele>813.447</ele>
        <time>2020-09-02T14:28:06Z</time>
      </trkpt>
      <trkpt lat="44.01771" lon="6.01675">
        <ele>812.188</ele>
        <time>2020-09-02T14:28:07Z</time>
      </trkpt>
      <trkpt lat="44.01775" lon="6.01656">
        <ele>811.776</ele>
        <time>2020-09-02T14:28:08Z</time>
      </trkpt>
      <trkpt lat="44.01778" lon="6.01638">
        <ele>811.382</ele>
        <time>2020-09-02T14:28:09Z</time>
      </trkpt>
      <trkpt lat="44.01779" lon="6.01619">
        <ele>810.945</ele>
        <time>2020-09-02T14:28:10Z</time>
      </trkpt>
      <trkpt lat="44.01778" lon="6.01601">
        <ele>810.743</ele>
        <time>2020-09-02T14:28:11Z</time>
      </trkpt>
      <trkpt lat="44.01776" lon="6.01582">
        <ele>810.864</ele>
        <time>2020-09-02T14:28:12Z</time>
      </trkpt>
      <trkpt lat="44.01774" lon="6.01563">
        <ele>811.11</ele>
        <time>2020-09-02T14:28:13Z</time>
      </trkpt>
      <trkpt lat="44.01772" lon="6.01544">
        <ele>811.608</ele>
        <time>2020-09-02T14:28:14Z</time>
      </trkpt>
      <trkpt lat="44.01771" lon="6.01526">
        <ele>812.682</ele>
        <time>2020-09-02T14:28:15Z</time>
      </trkpt>
      <trkpt lat="44.0177" lon="6.01507">
        <ele>813.691</ele>
        <time>2020-09-02T14:28:16Z</time>
      </trkpt>
      <trkpt lat="44.0177" lon="6.0149">
        <ele>814.971</ele>
        <time>2020-09-02T14:28:17Z</time>
      </trkpt>
      <trkpt lat="44.0177" lon="6.01472">
        <ele>816.188</ele>
        <time>2020-09-02T14:28:18Z</time>
      </trkpt>
      <trkpt lat="44.0177" lon="6.01455">
        <ele>817.659</ele>
        <time>2020-09-02T14:28:19Z</time>
      </trkpt>
      <trkpt lat="44.01769" lon="6.01437">
        <ele>817.787</ele>
        <time>2020-09-02T14:28:20Z</time>
      </trkpt>
      <trkpt lat="44.01767" lon="6.0142">
        <ele>818.293</ele>
        <time>2020-09-02T14:28:21Z</time>
      </trkpt>
      <trkpt lat="44.01762" lon="6.01402">
        <ele>818.296</ele>
        <time>2020-09-02T14:28:22Z</time>
      </trkpt>
      <trkpt lat="44.01756" lon="6.01386">
        <ele>818.144</ele>
        <time>2020-09-02T14:28:23Z</time>
      </trkpt>
      <trkpt lat="44.01749" lon="6.01371">
        <ele>817.705</ele>
        <time>2020-09-02T14:28:24Z</time>
      </trkpt>
      <trkpt lat="44.01742" lon="6.01358">
        <ele>817.815</ele>
        <time>2020-09-02T14:28:25Z</time>
      </trkpt>
      <trkpt lat="44.01737" lon="6.01344">
        <ele>818.008</ele>
        <time>2020-09-02T14:28:26Z</time>
      </trkpt>
      <trkpt lat="44.01735" lon="6.01328">
        <ele>818.142</ele>
        <time>2020-09-02T14:28:27Z</time>
      </trkpt>
      <trkpt lat="44.01734" lon="6.0131">
        <ele>818.391</ele>
        <time>2020-09-02T14:28:28Z</time>
      </trkpt>
      <trkpt lat="44.01734" lon="6.0129">
        <ele>818.831</ele>
        <time>2020-09-02T14:28:29Z</time>
      </trkpt>
      <trkpt lat="44.01732" lon="6.0127">
        <ele>818.838</ele>
        <time>2020-09-02T14:28:30Z</time>
      </trkpt>
      <trkpt lat="44.01731" lon="6.01249">
        <ele>818.749</ele>
        <time>2020-09-02T14:28:31Z</time>
      </trkpt>
      <trkpt lat="44.01731" lon="6.01228">
        <ele>818.557</ele>
        <time>2020-09-02T14:28:32Z</time>
      </trkpt>
      <trkpt lat="44.01732" lon="6.01207">
        <ele>818.393</ele>
        <time>2020-09-02T14:28:33Z</time>
      </trkpt>
      <trkpt lat="44.01733" lon="6.01185">
        <ele>817.816</ele>
        <time>2020-09-02T14:28:34Z</time>
      </trkpt>
      <trkpt lat="44.01734" lon="6.01162">
        <ele>817.352</ele>
        <time>2020-09-02T14:28:35Z</time>
      </trkpt>
      <trkpt lat="44.01736" lon="6.01139">
        <ele>816.953</ele>
        <time>2020-09-02T14:28:36Z</time>
      </trkpt>
      <trkpt lat="44.01739" lon="6.01116">
        <ele>816.208</ele>
        <time>2020-09-02T14:28:37Z</time>
      </trkpt>
      <trkpt lat="44.01741" lon="6.01093">
        <ele>815.208</ele>
        <time>2020-09-02T14:28:38Z</time>
      </trkpt>
      <trkpt lat="44.01742" lon="6.01071">
        <ele>814.343</ele>
        <time>2020-09-02T14:28:39Z</time>
      </trkpt>
      <trkpt lat="44.01743" lon="6.0105">
        <ele>812.892</ele>
        <time>2020-09-02T14:28:40Z</time>
      </trkpt>
      <trkpt lat="44.01745" lon="6.01031">
        <ele>812.432</ele>
        <time>2020-09-02T14:28:41Z</time>
      </trkpt>
      <trkpt lat="44.01746" lon="6.01013">
        <ele>812.229</ele>
        <time>2020-09-02T14:28:42Z</time>
      </trkpt>
      <trkpt lat="44.01748" lon="6.00995">
        <ele>811.66</ele>
        <time>2020-09-02T14:28:43Z</time>
      </trkpt>
      <trkpt lat="44.01749" lon="6.00979">
        <ele>811.718</ele>
        <time>2020-09-02T14:28:44Z</time>
      </trkpt>
      <trkpt lat="44.0175" lon="6.00964">
        <ele>812.044</ele>
        <time>2020-09-02T14:28:45Z</time>
      </trkpt>
      <trkpt lat="44.01748" lon="6.0095">
        <ele>812.057</ele>
        <time>2020-09-02T14:28:46Z</time>
      </trkpt>
      <trkpt lat="44.01745" lon="6.00936">
        <ele>811.569</ele>
        <time>2020-09-02T14:28:47Z</time>
      </trkpt>
      <trkpt lat="44.0174" lon="6.00923">
        <ele>811.304</ele>
        <time>2020-09-02T14:28:48Z</time>
      </trkpt>
      <trkpt lat="44.01734" lon="6.0091">
        <ele>810.724</ele>
        <time>2020-09-02T14:28:49Z</time>
      </trkpt>
      <trkpt lat="44.01724" lon="6.00896">
        <ele>809.808</ele>
        <time>2020-09-02T14:28:50Z</time>
      </trkpt>
      <trkpt lat="44.01715" lon="6.00883">
        <ele>809.574</ele>
        <time>2020-09-02T14:28:51Z</time>
      </trkpt>
      <trkpt lat="44.01705" lon="6.00868">
        <ele>809.723</ele>
        <time>2020-09-02T14:28:52Z</time>
      </trkpt>
      <trkpt lat="44.01694" lon="6.00853">
        <ele>809.773</ele>
        <time>2020-09-02T14:28:53Z</time>
      </trkpt>
      <trkpt lat="44.01682" lon="6.00839">
        <ele>809.76</ele>
        <time>2020-09-02T14:28:54Z</time>
      </trkpt>
      <trkpt lat="44.0167" lon="6.00824">
        <ele>809.921</ele>
        <time>2020-09-02T14:28:55Z</time>
      </trkpt>
      <trkpt lat="44.0166" lon="6.00807">
        <ele>810.119</ele>
        <time>2020-09-02T14:28:56Z</time>
      </trkpt>
      <trkpt lat="44.0165" lon="6.0079">
        <ele>810.795</ele>
        <time>2020-09-02T14:28:57Z</time>
      </trkpt>
      <trkpt lat="44.01641" lon="6.00774">
        <ele>811.058</ele>
        <time>2020-09-02T14:28:58Z</time>
      </trkpt>
      <trkpt lat="44.01632" lon="6.00759">
        <ele>810.866</ele>
        <time>2020-09-02T14:28:59Z</time>
      </trkpt>
      <trkpt lat="44.01622" lon="6.00744">
        <ele>810.629</ele>
        <time>2020-09-02T14:29:00Z</time>
      </trkpt>
      <trkpt lat="44.01612" lon="6.0073">
        <ele>810.421</ele>
        <time>2020-09-02T14:29:01Z</time>
      </trkpt>
      <trkpt lat="44.01602" lon="6.00716">
        <ele>808.908</ele>
        <time>2020-09-02T14:29:02Z</time>
      </trkpt>
      <trkpt lat="44.01594" lon="6.00701">
        <ele>808.514</ele>
        <time>2020-09-02T14:29:03Z</time>
      </trkpt>
      <trkpt lat="44.01585" lon="6.00685">
        <ele>808.573</ele>
        <time>2020-09-02T14:29:04Z</time>
      </trkpt>
      <trkpt lat="44.01577" lon="6.00667">
        <ele>808.363</ele>
        <time>2020-09-02T14:29:05Z</time>
      </trkpt>
      <trkpt lat="44.0157" lon="6.00648">
        <ele>807.35</ele>
        <time>2020-09-02T14:29:06Z</time>
      </trkpt>
      <trkpt lat="44.01562" lon="6.0063">
        <ele>806.841</ele>
        <time>2020-09-02T14:29:07Z</time>
      </trkpt>
      <trkpt lat="44.01554" lon="6.00614">
        <ele>807.079</ele>
        <time>2020-09-02T14:29:08Z</time>
      </trkpt>
      <trkpt lat="44.01545" lon="6.00601">
        <ele>806.785</ele>
        <time>2020-09-02T14:29:09Z</time>
      </trkpt>
      <trkpt lat="44.01534" lon="6.00588">
        <ele>806.538</ele>
        <time>2020-09-02T14:29:10Z</time>
      </trkpt>
      <trkpt lat="44.01523" lon="6.00577">
        <ele>806.521</ele>
        <time>2020-09-02T14:29:11Z</time>
      </trkpt>
      <trkpt lat="44.01509" lon="6.00569">
        <ele>806.941</ele>
        <time>2020-09-02T14:29:12Z</time>
      </trkpt>
      <trkpt lat="44.01495" lon="6.00562">
        <ele>806.905</ele>
        <time>2020-09-02T14:29:13Z</time>
      </trkpt>
      <trkpt lat="44.01482" lon="6.00554">
        <ele>807.108</ele>
        <time>2020-09-02T14:29:14Z</time>
      </trkpt>
      <trkpt lat="44.0147" lon="6.00547">
        <ele>807.12</ele>
        <time>2020-09-02T14:29:15Z</time>
      </trkpt>
      <trkpt lat="44.01461" lon="6.00538">
        <ele>806.179</ele>
        <time>2020-09-02T14:29:16Z</time>
      </trkpt>
      <trkpt lat="44.01454" lon="6.00528">
        <ele>805.179</ele>
        <time>2020-09-02T14:29:17Z</time>
      </trkpt>
      <trkpt lat="44.01448" lon="6.00516">
        <ele>805.236</ele>
        <time>2020-09-02T14:29:18Z</time>
      </trkpt>
      <trkpt lat="44.01444" lon="6.00502">
        <ele>805.097</ele>
        <time>2020-09-02T14:29:19Z</time>
      </trkpt>
      <trkpt lat="44.01443" lon="6.00486">
        <ele>805.195</ele>
        <time>2020-09-02T14:29:20Z</time>
      </trkpt>
      <trkpt lat="44.01443" lon="6.00472">
        <ele>804.141</ele>
        <time>2020-09-02T14:29:21Z</time>
      </trkpt>
      <trkpt lat="44.01445" lon="6.00457">
        <ele>803.924</ele>
        <time>2020-09-02T14:29:22Z</time>
      </trkpt>
      <trkpt lat="44.01448" lon="6.0044">
        <ele>802.819</ele>
        <time>2020-09-02T14:29:23Z</time>
      </trkpt>
      <trkpt lat="44.01451" lon="6.00423">
        <ele>801.509</ele>
        <time>2020-09-02T14:29:24Z</time>
      </trkpt>
      <trkpt lat="44.01453" lon="6.00408">
        <ele>799.719</ele>
        <time>2020-09-02T14:29:25Z</time>
      </trkpt>
      <trkpt lat="44.01455" lon="6.00393">
        <ele>798.608</ele>
        <time>2020-09-02T14:29:26Z</time>
      </trkpt>
      <trkpt lat="44.01455" lon="6.00378">
        <ele>797.489</ele>
        <time>2020-09-02T14:29:27Z</time>
      </trkpt>
      <trkpt lat="44.01454" lon="6.00362">
        <ele>796.488</ele>
        <time>2020-09-02T14:29:28Z</time>
      </trkpt>
      <trkpt lat="44.0145" lon="6.00346">
        <ele>795.368</ele>
        <time>2020-09-02T14:29:29Z</time>
      </trkpt>
      <trkpt lat="44.01446" lon="6.00329">
        <ele>794.795</ele>
        <time>2020-09-02T14:29:30Z</time>
      </trkpt>
      <trkpt lat="44.01437" lon="6.00314">
        <ele>793.476</ele>
        <time>2020-09-02T14:29:31Z</time>
      </trkpt>
      <trkpt lat="44.01429" lon="6.00299">
        <ele>792.654</ele>
        <time>2020-09-02T14:29:32Z</time>
      </trkpt>
      <trkpt lat="44.01418" lon="6.00285">
        <ele>792.16</ele>
        <time>2020-09-02T14:29:33Z</time>
      </trkpt>
      <trkpt lat="44.01406" lon="6.00271">
        <ele>790.973</ele>
        <time>2020-09-02T14:29:34Z</time>
      </trkpt>
      <trkpt lat="44.01396" lon="6.00257">
        <ele>790.068</ele>
        <time>2020-09-02T14:29:35Z</time>
      </trkpt>
      <trkpt lat="44.01385" lon="6.00244">
        <ele>789.442</ele>
        <time>2020-09-02T14:29:36Z</time>
      </trkpt>
      <trkpt lat="44.01375" lon="6.00232">
        <ele>789.026</ele>
        <time>2020-09-02T14:29:37Z</time>
      </trkpt>
      <trkpt lat="44.01364" lon="6.0022">
        <ele>789.508</ele>
        <time>2020-09-02T14:29:38Z</time>
      </trkpt>
      <trkpt lat="44.01353" lon="6.00208">
        <ele>790.364</ele>
        <time>2020-09-02T14:29:39Z</time>
      </trkpt>
      <trkpt lat="44.01344" lon="6.00196">
        <ele>790.653</ele>
        <time>2020-09-02T14:29:40Z</time>
      </trkpt>
      <trkpt lat="44.01334" lon="6.00184">
        <ele>791.663</ele>
        <time>2020-09-02T14:29:41Z</time>
      </trkpt>
      <trkpt lat="44.01327" lon="6.00172">
        <ele>792.18</ele>
        <time>2020-09-02T14:29:42Z</time>
      </trkpt>
      <trkpt lat="44.0132" lon="6.0016">
        <ele>792.071</ele>
        <time>2020-09-02T14:29:43Z</time>
      </trkpt>
      <trkpt lat="44.01315" lon="6.00148">
        <ele>791.789</ele>
        <time>2020-09-02T14:29:44Z</time>
      </trkpt>
      <trkpt lat="44.0131" lon="6.00137">
        <ele>791.425</ele>
        <time>2020-09-02T14:29:45Z</time>
      </trkpt>
      <trkpt lat="44.01305" lon="6.00128">
        <ele>791.398</ele>
        <time>2020-09-02T14:29:46Z</time>
      </trkpt>
      <trkpt lat="44.01298" lon="6.0012">
        <ele>790.799</ele>
        <time>2020-09-02T14:29:47Z</time>
      </trkpt>
      <trkpt lat="44.01292" lon="6.00112">
        <ele>790.407</ele>
        <time>2020-09-02T14:29:48Z</time>
      </trkpt>
      <trkpt lat="44.01285" lon="6.00104">
        <ele>790.027</ele>
        <time>2020-09-02T14:29:49Z</time>
      </trkpt>
      <trkpt lat="44.01279" lon="6.00095">
        <ele>788.808</ele>
        <time>2020-09-02T14:29:50Z</time>
      </trkpt>
      <trkpt lat="44.01272" lon="6.00088">
        <ele>788.277</ele>
        <time>2020-09-02T14:29:51Z</time>
      </trkpt>
      <trkpt lat="44.01264" lon="6.00082">
        <ele>787.546</ele>
        <time>2020-09-02T14:29:52Z</time>
      </trkpt>
      <trkpt lat="44.01255" lon="6.00077">
        <ele>787.146</ele>
        <time>2020-09-02T14:29:53Z</time>
      </trkpt>
      <trkpt lat="44.01247" lon="6.00072">
        <ele>786.663</ele>
        <time>2020-09-02T14:29:54Z</time>
      </trkpt>
      <trkpt lat="44.01237" lon="6.00071">
        <ele>784.924</ele>
        <time>2020-09-02T14:29:55Z</time>
      </trkpt>
      <trkpt lat="44.01229" lon="6.0007">
        <ele>783.822</ele>
        <time>2020-09-02T14:29:56Z</time>
      </trkpt>
      <trkpt lat="44.01219" lon="6.00071">
        <ele>783.328</ele>
        <time>2020-09-02T14:29:57Z</time>
      </trkpt>
      <trkpt lat="44.01211" lon="6.00072">
        <ele>783.121</ele>
        <time>2020-09-02T14:29:58Z</time>
      </trkpt>
      <trkpt lat="44.01202" lon="6.00072">
        <ele>782.237</ele>
        <time>2020-09-02T14:29:59Z</time>
      </trkpt>
      <trkpt lat="44.01195" lon="6.00071">
        <ele>781.849</ele>
        <time>2020-09-02T14:30:00Z</time>
      </trkpt>
      <trkpt lat="44.01189" lon="6.00068">
        <ele>781.213</ele>
        <time>2020-09-02T14:30:01Z</time>
      </trkpt>
      <trkpt lat="44.01183" lon="6.00064">
        <ele>781.308</ele>
        <time>2020-09-02T14:30:02Z</time>
      </trkpt>
      <trkpt lat="44.01179" lon="6.00062">
        <ele>780.951</ele>
        <time>2020-09-02T14:30:03Z</time>
      </trkpt>
      <trkpt lat="44.01171" lon="6.0006">
        <ele>780.53</ele>
        <time>2020-09-02T14:30:05Z</time>
      </trkpt>
      <trkpt lat="44.01165" lon="6.00056">
        <ele>780.09</ele>
        <time>2020-09-02T14:30:21Z</time>
      </trkpt>
      <trkpt lat="44.0116" lon="6.00053">
        <ele>780.187</ele>
        <time>2020-09-02T14:30:22Z</time>
      </trkpt>
      <trkpt lat="44.01155" lon="6.0005">
        <ele>780.518</ele>
        <time>2020-09-02T14:30:23Z</time>
      </trkpt>
      <trkpt lat="44.01148" lon="6.00047">
        <ele>780.976</ele>
        <time>2020-09-02T14:30:24Z</time>
      </trkpt>
      <trkpt lat="44.01141" lon="6.00042">
        <ele>781.362</ele>
        <time>2020-09-02T14:30:25Z</time>
      </trkpt>
      <trkpt lat="44.01134" lon="6.00037">
        <ele>781.995</ele>
        <time>2020-09-02T14:30:26Z</time>
      </trkpt>
      <trkpt lat="44.01125" lon="6.00032">
        <ele>782.112</ele>
        <time>2020-09-02T14:30:27Z</time>
      </trkpt>
      <trkpt lat="44.01116" lon="6.00026">
        <ele>782.232</ele>
        <time>2020-09-02T14:30:28Z</time>
      </trkpt>
      <trkpt lat="44.01107" lon="6.00021">
        <ele>782.805</ele>
        <time>2020-09-02T14:30:29Z</time>
      </trkpt>
      <trkpt lat="44.01098" lon="6.00018">
        <ele>783.408</ele>
        <time>2020-09-02T14:30:30Z</time>
      </trkpt>
      <trkpt lat="44.01089" lon="6.00016">
        <ele>783.639</ele>
        <time>2020-09-02T14:30:31Z</time>
      </trkpt>
      <trkpt lat="44.0108" lon="6.00014">
        <ele>783.888</ele>
        <time>2020-09-02T14:30:32Z</time>
      </trkpt>
      <trkpt lat="44.0107" lon="6.00012">
        <ele>783.898</ele>
        <time>2020-09-02T14:30:33Z</time>
      </trkpt>
      <trkpt lat="44.0106" lon="6.00009">
        <ele>783.245</ele>
        <time>2020-09-02T14:30:34Z</time>
      </trkpt>
      <trkpt lat="44.0105" lon="6.00007">
        <ele>783.096</ele>
        <time>2020-09-02T14:30:35Z</time>
      </trkpt>
      <trkpt lat="44.0104" lon="6.00006">
        <ele>782.834</ele>
        <time>2020-09-02T14:30:36Z</time>
      </trkpt>
      <trkpt lat="44.01031" lon="6.00006">
        <ele>782.73</ele>
        <time>2020-09-02T14:30:37Z</time>
      </trkpt>
      <trkpt lat="44.01022" lon="6.00006">
        <ele>782.323</ele>
        <time>2020-09-02T14:30:38Z</time>
      </trkpt>
      <trkpt lat="44.01015" lon="6.00006">
        <ele>782.387</ele>
        <time>2020-09-02T14:30:39Z</time>
      </trkpt>
      <trkpt lat="44.01008" lon="6.00007">
        <ele>781.942</ele>
        <time>2020-09-02T14:30:40Z</time>
      </trkpt>
      <trkpt lat="44.00999" lon="6.00007">
        <ele>781.726</ele>
        <time>2020-09-02T14:30:41Z</time>
      </trkpt>
      <trkpt lat="44.0099" lon="6.00008">
        <ele>781.108</ele>
        <time>2020-09-02T14:30:42Z</time>
      </trkpt>
      <trkpt lat="44.00978" lon="6.00007">
        <ele>780.496</ele>
        <time>2020-09-02T14:30:43Z</time>
      </trkpt>
      <trkpt lat="44.00967" lon="6.00006">
        <ele>780.355</ele>
        <time>2020-09-02T14:30:44Z</time>
      </trkpt>
      <trkpt lat="44.00954" lon="6.00004">
        <ele>780.275</ele>
        <time>2020-09-02T14:30:45Z</time>
      </trkpt>
      <trkpt lat="44.00941" lon="6.00002">
        <ele>780.152</ele>
        <time>2020-09-02T14:30:46Z</time>
      </trkpt>
      <trkpt lat="44.00928" lon="6.00002">
        <ele>780.683</ele>
        <time>2020-09-02T14:30:47Z</time>
      </trkpt>
      <trkpt lat="44.00915" lon="6.00004">
        <ele>781.171</ele>
        <time>2020-09-02T14:30:48Z</time>
      </trkpt>
      <trkpt lat="44.00902" lon="6.00007">
        <ele>781.067</ele>
        <time>2020-09-02T14:30:49Z</time>
      </trkpt>
      <trkpt lat="44.00892" lon="6.00008">
        <ele>780.74</ele>
        <time>2020-09-02T14:30:50Z</time>
      </trkpt>
      <trkpt lat="44.00883" lon="6.00008">
        <ele>780.338</ele>
        <time>2020-09-02T14:30:51Z</time>
      </trkpt>
      <trkpt lat="44.00874" lon="6.00007">
        <ele>779.77</ele>
        <time>2020-09-02T14:30:52Z</time>
      </trkpt>
      <trkpt lat="44.00863" lon="6.00003">
        <ele>779.017</ele>
        <time>2020-09-02T14:30:53Z</time>
      </trkpt>
      <trkpt lat="44.00852" lon="5.99996">
        <ele>778.008</ele>
        <time>2020-09-02T14:30:54Z</time>
      </trkpt>
      <trkpt lat="44.00839" lon="5.99989">
        <ele>777.141</ele>
        <time>2020-09-02T14:30:55Z</time>
      </trkpt>
      <trkpt lat="44.00827" lon="5.99985">
        <ele>775.84</ele>
        <time>2020-09-02T14:30:56Z</time>
      </trkpt>
      <trkpt lat="44.00814" lon="5.99982">
        <ele>775.09</ele>
        <time>2020-09-02T14:30:57Z</time>
      </trkpt>
      <trkpt lat="44.008" lon="5.99981">
        <ele>774.357</ele>
        <time>2020-09-02T14:30:58Z</time>
      </trkpt>
      <trkpt lat="44.00787" lon="5.99979">
        <ele>772.988</ele>
        <time>2020-09-02T14:30:59Z</time>
      </trkpt>
      <trkpt lat="44.00774" lon="5.99976">
        <ele>772.126</ele>
        <time>2020-09-02T14:31:00Z</time>
      </trkpt>
      <trkpt lat="44.00761" lon="5.99974">
        <ele>771.742</ele>
        <time>2020-09-02T14:31:01Z</time>
      </trkpt>
      <trkpt lat="44.00748" lon="5.99974">
        <ele>771.195</ele>
        <time>2020-09-02T14:31:02Z</time>
      </trkpt>
      <trkpt lat="44.00736" lon="5.99974">
        <ele>770.689</ele>
        <time>2020-09-02T14:31:03Z</time>
      </trkpt>
      <trkpt lat="44.00726" lon="5.99973">
        <ele>770.106</ele>
        <time>2020-09-02T14:31:04Z</time>
      </trkpt>
      <trkpt lat="44.00716" lon="5.99968">
        <ele>769.726</ele>
        <time>2020-09-02T14:31:05Z</time>
      </trkpt>
      <trkpt lat="44.00707" lon="5.99958">
        <ele>768.608</ele>
        <time>2020-09-02T14:31:06Z</time>
      </trkpt>
      <trkpt lat="44.00698" lon="5.99945">
        <ele>768.226</ele>
        <time>2020-09-02T14:31:07Z</time>
      </trkpt>
      <trkpt lat="44.00688" lon="5.99933">
        <ele>767.685</ele>
        <time>2020-09-02T14:31:08Z</time>
      </trkpt>
      <trkpt lat="44.00679" lon="5.9992">
        <ele>767.385</ele>
        <time>2020-09-02T14:31:09Z</time>
      </trkpt>
      <trkpt lat="44.00669" lon="5.99906">
        <ele>765.942</ele>
        <time>2020-09-02T14:31:10Z</time>
      </trkpt>
      <trkpt lat="44.00658" lon="5.99889">
        <ele>764.953</ele>
        <time>2020-09-02T14:31:11Z</time>
      </trkpt>
      <trkpt lat="44.00648" lon="5.99873">
        <ele>764.371</ele>
        <time>2020-09-02T14:31:12Z</time>
      </trkpt>
      <trkpt lat="44.00638" lon="5.99857">
        <ele>762.037</ele>
        <time>2020-09-02T14:31:13Z</time>
      </trkpt>
      <trkpt lat="44.00628" lon="5.99841">
        <ele>761.48</ele>
        <time>2020-09-02T14:31:14Z</time>
      </trkpt>
      <trkpt lat="44.0062" lon="5.99826">
        <ele>760.245</ele>
        <time>2020-09-02T14:31:15Z</time>
      </trkpt>
      <trkpt lat="44.00613" lon="5.99812">
        <ele>759.647</ele>
        <time>2020-09-02T14:31:16Z</time>
      </trkpt>
      <trkpt lat="44.00612" lon="5.99796">
        <ele>759.311</ele>
        <time>2020-09-02T14:31:17Z</time>
      </trkpt>
      <trkpt lat="44.00611" lon="5.9978">
        <ele>759.608</ele>
        <time>2020-09-02T14:31:18Z</time>
      </trkpt>
      <trkpt lat="44.00607" lon="5.99766">
        <ele>759.182</ele>
        <time>2020-09-02T14:31:19Z</time>
      </trkpt>
      <trkpt lat="44.00601" lon="5.99753">
        <ele>759.561</ele>
        <time>2020-09-02T14:31:20Z</time>
      </trkpt>
      <trkpt lat="44.00593" lon="5.99743">
        <ele>760.071</ele>
        <time>2020-09-02T14:31:21Z</time>
      </trkpt>
      <trkpt lat="44.00584" lon="5.99733">
        <ele>760.428</ele>
        <time>2020-09-02T14:31:22Z</time>
      </trkpt>
      <trkpt lat="44.00572" lon="5.99729">
        <ele>760.789</ele>
        <time>2020-09-02T14:31:23Z</time>
      </trkpt>
      <trkpt lat="44.00559" lon="5.99727">
        <ele>761.177</ele>
        <time>2020-09-02T14:31:24Z</time>
      </trkpt>
      <trkpt lat="44.00545" lon="5.99726">
        <ele>760.663</ele>
        <time>2020-09-02T14:31:25Z</time>
      </trkpt>
      <trkpt lat="44.00531" lon="5.99726">
        <ele>760.716</ele>
        <time>2020-09-02T14:31:26Z</time>
      </trkpt>
      <trkpt lat="44.00518" lon="5.99724">
        <ele>760.163</ele>
        <time>2020-09-02T14:31:27Z</time>
      </trkpt>
      <trkpt lat="44.00505" lon="5.99719">
        <ele>759.844</ele>
        <time>2020-09-02T14:31:28Z</time>
      </trkpt>
      <trkpt lat="44.00493" lon="5.99712">
        <ele>759.718</ele>
        <time>2020-09-02T14:31:29Z</time>
      </trkpt>
      <trkpt lat="44.00482" lon="5.99705">
        <ele>759.608</ele>
        <time>2020-09-02T14:31:30Z</time>
      </trkpt>
      <trkpt lat="44.00472" lon="5.997">
        <ele>759.644</ele>
        <time>2020-09-02T14:31:31Z</time>
      </trkpt>
      <trkpt lat="44.00463" lon="5.99699">
        <ele>759.083</ele>
        <time>2020-09-02T14:31:32Z</time>
      </trkpt>
      <trkpt lat="44.00452" lon="5.99698">
        <ele>757.983</ele>
        <time>2020-09-02T14:31:33Z</time>
      </trkpt>
      <trkpt lat="44.0044" lon="5.99699">
        <ele>756.72</ele>
        <time>2020-09-02T14:31:34Z</time>
      </trkpt>
      <trkpt lat="44.00427" lon="5.99701">
        <ele>756.091</ele>
        <time>2020-09-02T14:31:35Z</time>
      </trkpt>
      <trkpt lat="44.00414" lon="5.99706">
        <ele>755.419</ele>
        <time>2020-09-02T14:31:36Z</time>
      </trkpt>
      <trkpt lat="44.00401" lon="5.99709">
        <ele>754.745</ele>
        <time>2020-09-02T14:31:37Z</time>
      </trkpt>
      <trkpt lat="44.00387" lon="5.9971">
        <ele>753.758</ele>
        <time>2020-09-02T14:31:38Z</time>
      </trkpt>
      <trkpt lat="44.00374" lon="5.9971">
        <ele>753.565</ele>
        <time>2020-09-02T14:31:39Z</time>
      </trkpt>
      <trkpt lat="44.00359" lon="5.99708">
        <ele>753.168</ele>
        <time>2020-09-02T14:31:40Z</time>
      </trkpt>
      <trkpt lat="44.00345" lon="5.99707">
        <ele>753.014</ele>
        <time>2020-09-02T14:31:41Z</time>
      </trkpt>
      <trkpt lat="44.0033" lon="5.99707">
        <ele>753.708</ele>
        <time>2020-09-02T14:31:42Z</time>
      </trkpt>
      <trkpt lat="44.00316" lon="5.99707">
        <ele>755.034</ele>
        <time>2020-09-02T14:31:43Z</time>
      </trkpt>
      <trkpt lat="44.00303" lon="5.99706">
        <ele>755.873</ele>
        <time>2020-09-02T14:31:44Z</time>
      </trkpt>
      <trkpt lat="44.0029" lon="5.99704">
        <ele>757.313</ele>
        <time>2020-09-02T14:31:45Z</time>
      </trkpt>
      <trkpt lat="44.00278" lon="5.99701">
        <ele>758.86</ele>
        <time>2020-09-02T14:31:46Z</time>
      </trkpt>
      <trkpt lat="44.00264" lon="5.99696">
        <ele>759.971</ele>
        <time>2020-09-02T14:31:47Z</time>
      </trkpt>
      <trkpt lat="44.00251" lon="5.99692">
        <ele>760.319</ele>
        <time>2020-09-02T14:31:48Z</time>
      </trkpt>
      <trkpt lat="44.00237" lon="5.99689">
        <ele>760.495</ele>
        <time>2020-09-02T14:31:49Z</time>
      </trkpt>
      <trkpt lat="44.00223" lon="5.99688">
        <ele>760.398</ele>
        <time>2020-09-02T14:31:50Z</time>
      </trkpt>
      <trkpt lat="44.00209" lon="5.99684">
        <ele>760.336</ele>
        <time>2020-09-02T14:31:51Z</time>
      </trkpt>
      <trkpt lat="44.00195" lon="5.9968">
        <ele>760.317</ele>
        <time>2020-09-02T14:31:52Z</time>
      </trkpt>
      <trkpt lat="44.00182" lon="5.99675">
        <ele>760.218</ele>
        <time>2020-09-02T14:31:53Z</time>
      </trkpt>
      <trkpt lat="44.00169" lon="5.99669">
        <ele>760.408</ele>
        <time>2020-09-02T14:31:54Z</time>
      </trkpt>
      <trkpt lat="44.00158" lon="5.99665">
        <ele>760.241</ele>
        <time>2020-09-02T14:31:55Z</time>
      </trkpt>
      <trkpt lat="44.00147" lon="5.9966">
        <ele>759.92</ele>
        <time>2020-09-02T14:31:56Z</time>
      </trkpt>
      <trkpt lat="44.00137" lon="5.99655">
        <ele>759.79</ele>
        <time>2020-09-02T14:31:57Z</time>
      </trkpt>
      <trkpt lat="44.00127" lon="5.9965">
        <ele>759.517</ele>
        <time>2020-09-02T14:31:58Z</time>
      </trkpt>
      <trkpt lat="44.00116" lon="5.99646">
        <ele>759.138</ele>
        <time>2020-09-02T14:31:59Z</time>
      </trkpt>
      <trkpt lat="44.00104" lon="5.99641">
        <ele>758.676</ele>
        <time>2020-09-02T14:32:00Z</time>
      </trkpt>
      <trkpt lat="44.00091" lon="5.99636">
        <ele>758.342</ele>
        <time>2020-09-02T14:32:01Z</time>
      </trkpt>
      <trkpt lat="44.00078" lon="5.9963">
        <ele>758.155</ele>
        <time>2020-09-02T14:32:02Z</time>
      </trkpt>
      <trkpt lat="44.00065" lon="5.99624">
        <ele>757.678</ele>
        <time>2020-09-02T14:32:03Z</time>
      </trkpt>
      <trkpt lat="44.00052" lon="5.99615">
        <ele>757.733</ele>
        <time>2020-09-02T14:32:04Z</time>
      </trkpt>
      <trkpt lat="44.0004" lon="5.99603">
        <ele>757.226</ele>
        <time>2020-09-02T14:32:05Z</time>
      </trkpt>
      <trkpt lat="44.00027" lon="5.99593">
        <ele>757.008</ele>
        <time>2020-09-02T14:32:06Z</time>
      </trkpt>
      <trkpt lat="44.00014" lon="5.99583">
        <ele>756.175</ele>
        <time>2020-09-02T14:32:07Z</time>
      </trkpt>
      <trkpt lat="44.00001" lon="5.99576">
        <ele>755.944</ele>
        <time>2020-09-02T14:32:08Z</time>
      </trkpt>
      <trkpt lat="43.99987" lon="5.99569">
        <ele>756.114</ele>
        <time>2020-09-02T14:32:09Z</time>
      </trkpt>
      <trkpt lat="43.99972" lon="5.99561">
        <ele>755.831</ele>
        <time>2020-09-02T14:32:10Z</time>
      </trkpt>
      <trkpt lat="43.99958" lon="5.99558">
        <ele>755.632</ele>
        <time>2020-09-02T14:32:11Z</time>
      </trkpt>
      <trkpt lat="43.99943" lon="5.99555">
        <ele>755.11</ele>
        <time>2020-09-02T14:32:12Z</time>
      </trkpt>
      <trkpt lat="43.99929" lon="5.99552">
        <ele>754.856</ele>
        <time>2020-09-02T14:32:13Z</time>
      </trkpt>
      <trkpt lat="43.99916" lon="5.99549">
        <ele>754.779</ele>
        <time>2020-09-02T14:32:14Z</time>
      </trkpt>
      <trkpt lat="43.99901" lon="5.99543">
        <ele>754.397</ele>
        <time>2020-09-02T14:32:15Z</time>
      </trkpt>
      <trkpt lat="43.99886" lon="5.99537">
        <ele>754.323</ele>
        <time>2020-09-02T14:32:16Z</time>
      </trkpt>
      <trkpt lat="43.99873" lon="5.99529">
        <ele>753.825</ele>
        <time>2020-09-02T14:32:17Z</time>
      </trkpt>
      <trkpt lat="43.99858" lon="5.99521">
        <ele>753.308</ele>
        <time>2020-09-02T14:32:18Z</time>
      </trkpt>
      <trkpt lat="43.99844" lon="5.99513">
        <ele>753.497</ele>
        <time>2020-09-02T14:32:19Z</time>
      </trkpt>
      <trkpt lat="43.99831" lon="5.99505">
        <ele>753.486</ele>
        <time>2020-09-02T14:32:20Z</time>
      </trkpt>
      <trkpt lat="43.99818" lon="5.99498">
        <ele>753.936</ele>
        <time>2020-09-02T14:32:21Z</time>
      </trkpt>
      <trkpt lat="43.99807" lon="5.99492">
        <ele>754.183</ele>
        <time>2020-09-02T14:32:22Z</time>
      </trkpt>
      <trkpt lat="43.99794" lon="5.99485">
        <ele>753.664</ele>
        <time>2020-09-02T14:32:23Z</time>
      </trkpt>
      <trkpt lat="43.99782" lon="5.99479">
        <ele>753.482</ele>
        <time>2020-09-02T14:32:24Z</time>
      </trkpt>
      <trkpt lat="43.9977" lon="5.99473">
        <ele>753.188</ele>
        <time>2020-09-02T14:32:25Z</time>
      </trkpt>
      <trkpt lat="43.99757" lon="5.99468">
        <ele>752.641</ele>
        <time>2020-09-02T14:32:26Z</time>
      </trkpt>
      <trkpt lat="43.99745" lon="5.99463">
        <ele>752.231</ele>
        <time>2020-09-02T14:32:27Z</time>
      </trkpt>
      <trkpt lat="43.99733" lon="5.9946">
        <ele>752.061</ele>
        <time>2020-09-02T14:32:28Z</time>
      </trkpt>
      <trkpt lat="43.99721" lon="5.99455">
        <ele>751.707</ele>
        <time>2020-09-02T14:32:29Z</time>
      </trkpt>
      <trkpt lat="43.99709" lon="5.99453">
        <ele>751.308</ele>
        <time>2020-09-02T14:32:30Z</time>
      </trkpt>
      <trkpt lat="43.99697" lon="5.99448">
        <ele>750.631</ele>
        <time>2020-09-02T14:32:31Z</time>
      </trkpt>
      <trkpt lat="43.99685" lon="5.99444">
        <ele>750.15</ele>
        <time>2020-09-02T14:32:32Z</time>
      </trkpt>
      <trkpt lat="43.99675" lon="5.9944">
        <ele>750.18</ele>
        <time>2020-09-02T14:32:33Z</time>
      </trkpt>
      <trkpt lat="43.99664" lon="5.99437">
        <ele>749.977</ele>
        <time>2020-09-02T14:32:34Z</time>
      </trkpt>
      <trkpt lat="43.99654" lon="5.99434">
        <ele>749.818</ele>
        <time>2020-09-02T14:32:35Z</time>
      </trkpt>
      <trkpt lat="43.99643" lon="5.99431">
        <ele>750.036</ele>
        <time>2020-09-02T14:32:36Z</time>
      </trkpt>
      <trkpt lat="43.99632" lon="5.99427">
        <ele>749.952</ele>
        <time>2020-09-02T14:32:37Z</time>
      </trkpt>
      <trkpt lat="43.99621" lon="5.99423">
        <ele>750.055</ele>
        <time>2020-09-02T14:32:38Z</time>
      </trkpt>
      <trkpt lat="43.99609" lon="5.99418">
        <ele>750.176</ele>
        <time>2020-09-02T14:32:39Z</time>
      </trkpt>
      <trkpt lat="43.99596" lon="5.99413">
        <ele>749.99</ele>
        <time>2020-09-02T14:32:40Z</time>
      </trkpt>
      <trkpt lat="43.99583" lon="5.99408">
        <ele>749.119</ele>
        <time>2020-09-02T14:32:41Z</time>
      </trkpt>
      <trkpt lat="43.9957" lon="5.99403">
        <ele>749.108</ele>
        <time>2020-09-02T14:32:42Z</time>
      </trkpt>
      <trkpt lat="43.99557" lon="5.99399">
        <ele>749.035</ele>
        <time>2020-09-02T14:32:43Z</time>
      </trkpt>
      <trkpt lat="43.99543" lon="5.99395">
        <ele>748.874</ele>
        <time>2020-09-02T14:32:44Z</time>
      </trkpt>
      <trkpt lat="43.9953" lon="5.9939">
        <ele>748.794</ele>
        <time>2020-09-02T14:32:45Z</time>
      </trkpt>
      <trkpt lat="43.99516" lon="5.99386">
        <ele>748.591</ele>
        <time>2020-09-02T14:32:46Z</time>
      </trkpt>
      <trkpt lat="43.99503" lon="5.99383">
        <ele>748.292</ele>
        <time>2020-09-02T14:32:47Z</time>
      </trkpt>
      <trkpt lat="43.9949" lon="5.99376">
        <ele>748.14</ele>
        <time>2020-09-02T14:32:48Z</time>
      </trkpt>
      <trkpt lat="43.99477" lon="5.99368">
        <ele>747.516</ele>
        <time>2020-09-02T14:32:49Z</time>
      </trkpt>
      <trkpt lat="43.99464" lon="5.99361">
        <ele>746.939</ele>
        <time>2020-09-02T14:32:50Z</time>
      </trkpt>
      <trkpt lat="43.99452" lon="5.99354">
        <ele>746.736</ele>
        <time>2020-09-02T14:32:51Z</time>
      </trkpt>
      <trkpt lat="43.99439" lon="5.99345">
        <ele>746.417</ele>
        <time>2020-09-02T14:32:52Z</time>
      </trkpt>
      <trkpt lat="43.99428" lon="5.99336">
        <ele>746.518</ele>
        <time>2020-09-02T14:32:53Z</time>
      </trkpt>
      <trkpt lat="43.99418" lon="5.9933">
        <ele>746.308</ele>
        <time>2020-09-02T14:32:54Z</time>
      </trkpt>
      <trkpt lat="43.99407" lon="5.99322">
        <ele>746.371</ele>
        <time>2020-09-02T14:32:55Z</time>
      </trkpt>
      <trkpt lat="43.99396" lon="5.99313">
        <ele>746.74</ele>
        <time>2020-09-02T14:32:56Z</time>
      </trkpt>
      <trkpt lat="43.99384" lon="5.99304">
        <ele>746.95</ele>
        <time>2020-09-02T14:32:57Z</time>
      </trkpt>
      <trkpt lat="43.99373" lon="5.99294">
        <ele>746.897</ele>
        <time>2020-09-02T14:32:58Z</time>
      </trkpt>
      <trkpt lat="43.99361" lon="5.99283">
        <ele>746.888</ele>
        <time>2020-09-02T14:32:59Z</time>
      </trkpt>
      <trkpt lat="43.99349" lon="5.99272">
        <ele>747.086</ele>
        <time>2020-09-02T14:33:00Z</time>
      </trkpt>
      <trkpt lat="43.99337" lon="5.99261">
        <ele>746.832</ele>
        <time>2020-09-02T14:33:01Z</time>
      </trkpt>
      <trkpt lat="43.99324" lon="5.99249">
        <ele>746.765</ele>
        <time>2020-09-02T14:33:02Z</time>
      </trkpt>
      <trkpt lat="43.99313" lon="5.99236">
        <ele>746.454</ele>
        <time>2020-09-02T14:33:03Z</time>
      </trkpt>
      <trkpt lat="43.99302" lon="5.99224">
        <ele>746.056</ele>
        <time>2020-09-02T14:33:04Z</time>
      </trkpt>
      <trkpt lat="43.99294" lon="5.99213">
        <ele>744.511</ele>
        <time>2020-09-02T14:33:05Z</time>
      </trkpt>
      <trkpt lat="43.99285" lon="5.99203">
        <ele>744.208</ele>
        <time>2020-09-02T14:33:06Z</time>
      </trkpt>
      <trkpt lat="43.99278" lon="5.99194">
        <ele>743.843</ele>
        <time>2020-09-02T14:33:07Z</time>
      </trkpt>
      <trkpt lat="43.9927" lon="5.99184">
        <ele>744.312</ele>
        <time>2020-09-02T14:33:08Z</time>
      </trkpt>
      <trkpt lat="43.99262" lon="5.99175">
        <ele>744.272</ele>
        <time>2020-09-02T14:33:09Z</time>
      </trkpt>
      <trkpt lat="43.99253" lon="5.99165">
        <ele>744.149</ele>
        <time>2020-09-02T14:33:10Z</time>
      </trkpt>
      <trkpt lat="43.99243" lon="5.99157">
        <ele>744.77</ele>
        <time>2020-09-02T14:33:11Z</time>
      </trkpt>
      <trkpt lat="43.99233" lon="5.99148">
        <ele>744.828</ele>
        <time>2020-09-02T14:33:12Z</time>
      </trkpt>
      <trkpt lat="43.99224" lon="5.99137">
        <ele>744.984</ele>
        <time>2020-09-02T14:33:13Z</time>
      </trkpt>
      <trkpt lat="43.99215" lon="5.99127">
        <ele>745.277</ele>
        <time>2020-09-02T14:33:14Z</time>
      </trkpt>
      <trkpt lat="43.99207" lon="5.99115">
        <ele>745.692</ele>
        <time>2020-09-02T14:33:15Z</time>
      </trkpt>
      <trkpt lat="43.992" lon="5.99103">
        <ele>746.473</ele>
        <time>2020-09-02T14:33:16Z</time>
      </trkpt>
      <trkpt lat="43.99192" lon="5.9909">
        <ele>746.62</ele>
        <time>2020-09-02T14:33:17Z</time>
      </trkpt>
      <trkpt lat="43.99185" lon="5.99077">
        <ele>746.708</ele>
        <time>2020-09-02T14:33:18Z</time>
      </trkpt>
      <trkpt lat="43.99178" lon="5.9906">
        <ele>747.297</ele>
        <time>2020-09-02T14:33:19Z</time>
      </trkpt>
      <trkpt lat="43.9917" lon="5.99045">
        <ele>747.226</ele>
        <time>2020-09-02T14:33:20Z</time>
      </trkpt>
      <trkpt lat="43.99162" lon="5.99028">
        <ele>746.956</ele>
        <time>2020-09-02T14:33:21Z</time>
      </trkpt>
      <trkpt lat="43.99154" lon="5.99012">
        <ele>746.793</ele>
        <time>2020-09-02T14:33:22Z</time>
      </trkpt>
      <trkpt lat="43.99145" lon="5.98995">
        <ele>745.864</ele>
        <time>2020-09-02T14:33:23Z</time>
      </trkpt>
      <trkpt lat="43.99136" lon="5.98978">
        <ele>745.312</ele>
        <time>2020-09-02T14:33:24Z</time>
      </trkpt>
      <trkpt lat="43.9913" lon="5.98962">
        <ele>744.848</ele>
        <time>2020-09-02T14:33:25Z</time>
      </trkpt>
      <trkpt lat="43.99124" lon="5.98946">
        <ele>744.111</ele>
        <time>2020-09-02T14:33:26Z</time>
      </trkpt>
      <trkpt lat="43.99119" lon="5.98932">
        <ele>743.847</ele>
        <time>2020-09-02T14:33:27Z</time>
      </trkpt>
      <trkpt lat="43.99113" lon="5.98919">
        <ele>743.429</ele>
        <time>2020-09-02T14:33:28Z</time>
      </trkpt>
      <trkpt lat="43.99106" lon="5.98906">
        <ele>743.121</ele>
        <time>2020-09-02T14:33:29Z</time>
      </trkpt>
      <trkpt lat="43.99098" lon="5.98894">
        <ele>742.708</ele>
        <time>2020-09-02T14:33:30Z</time>
      </trkpt>
      <trkpt lat="43.99092" lon="5.98883">
        <ele>742.212</ele>
        <time>2020-09-02T14:33:31Z</time>
      </trkpt>
      <trkpt lat="43.99086" lon="5.98872">
        <ele>741.941</ele>
        <time>2020-09-02T14:33:32Z</time>
      </trkpt>
      <trkpt lat="43.99083" lon="5.9886">
        <ele>741.561</ele>
        <time>2020-09-02T14:33:33Z</time>
      </trkpt>
      <trkpt lat="43.99079" lon="5.98846">
        <ele>741.138</ele>
        <time>2020-09-02T14:33:34Z</time>
      </trkpt>
      <trkpt lat="43.99076" lon="5.98832">
        <ele>740.719</ele>
        <time>2020-09-02T14:33:35Z</time>
      </trkpt>
      <trkpt lat="43.99071" lon="5.98816">
        <ele>740.657</ele>
        <time>2020-09-02T14:33:36Z</time>
      </trkpt>
      <trkpt lat="43.99065" lon="5.98799">
        <ele>740.513</ele>
        <time>2020-09-02T14:33:37Z</time>
      </trkpt>
      <trkpt lat="43.99057" lon="5.98782">
        <ele>740.546</ele>
        <time>2020-09-02T14:33:38Z</time>
      </trkpt>
      <trkpt lat="43.99049" lon="5.98765">
        <ele>739.712</ele>
        <time>2020-09-02T14:33:39Z</time>
      </trkpt>
      <trkpt lat="43.99041" lon="5.9875">
        <ele>739.532</ele>
        <time>2020-09-02T14:33:40Z</time>
      </trkpt>
      <trkpt lat="43.99035" lon="5.98738">
        <ele>739.605</ele>
        <time>2020-09-02T14:33:41Z</time>
      </trkpt>
      <trkpt lat="43.99028" lon="5.98728">
        <ele>739.608</ele>
        <time>2020-09-02T14:33:42Z</time>
      </trkpt>
      <trkpt lat="43.9902" lon="5.9872">
        <ele>739.539</ele>
        <time>2020-09-02T14:33:43Z</time>
      </trkpt>
      <trkpt lat="43.99009" lon="5.98714">
        <ele>739.628</ele>
        <time>2020-09-02T14:33:44Z</time>
      </trkpt>
      <trkpt lat="43.98998" lon="5.98707">
        <ele>739.268</ele>
        <time>2020-09-02T14:33:45Z</time>
      </trkpt>
      <trkpt lat="43.98985" lon="5.98703">
        <ele>739.125</ele>
        <time>2020-09-02T14:33:46Z</time>
      </trkpt>
      <trkpt lat="43.98972" lon="5.987">
        <ele>738.936</ele>
        <time>2020-09-02T14:33:47Z</time>
      </trkpt>
      <trkpt lat="43.98959" lon="5.98697">
        <ele>738.814</ele>
        <time>2020-09-02T14:33:48Z</time>
      </trkpt>
      <trkpt lat="43.98946" lon="5.98693">
        <ele>738.66</ele>
        <time>2020-09-02T14:33:49Z</time>
      </trkpt>
      <trkpt lat="43.98933" lon="5.98689">
        <ele>738.683</ele>
        <time>2020-09-02T14:33:50Z</time>
      </trkpt>
      <trkpt lat="43.9892" lon="5.98685">
        <ele>738.819</ele>
        <time>2020-09-02T14:33:51Z</time>
      </trkpt>
      <trkpt lat="43.98906" lon="5.98681">
        <ele>738.709</ele>
        <time>2020-09-02T14:33:52Z</time>
      </trkpt>
      <trkpt lat="43.98893" lon="5.98678">
        <ele>738.719</ele>
        <time>2020-09-02T14:33:53Z</time>
      </trkpt>
      <trkpt lat="43.9888" lon="5.98674">
        <ele>738.608</ele>
        <time>2020-09-02T14:33:54Z</time>
      </trkpt>
      <trkpt lat="43.98868" lon="5.98669">
        <ele>738.799</ele>
        <time>2020-09-02T14:33:55Z</time>
      </trkpt>
      <trkpt lat="43.98855" lon="5.98663">
        <ele>738.778</ele>
        <time>2020-09-02T14:33:56Z</time>
      </trkpt>
      <trkpt lat="43.98842" lon="5.98656">
        <ele>738.168</ele>
        <time>2020-09-02T14:33:57Z</time>
      </trkpt>
      <trkpt lat="43.98829" lon="5.98649">
        <ele>738.075</ele>
        <time>2020-09-02T14:33:58Z</time>
      </trkpt>
      <trkpt lat="43.98816" lon="5.98643">
        <ele>737.946</ele>
        <time>2020-09-02T14:33:59Z</time>
      </trkpt>
      <trkpt lat="43.98802" lon="5.98637">
        <ele>737.474</ele>
        <time>2020-09-02T14:34:00Z</time>
      </trkpt>
      <trkpt lat="43.98788" lon="5.98632">
        <ele>736.87</ele>
        <time>2020-09-02T14:34:01Z</time>
      </trkpt>
      <trkpt lat="43.98774" lon="5.98626">
        <ele>736.353</ele>
        <time>2020-09-02T14:34:02Z</time>
      </trkpt>
      <trkpt lat="43.98762" lon="5.98621">
        <ele>736.147</ele>
        <time>2020-09-02T14:34:03Z</time>
      </trkpt>
      <trkpt lat="43.98749" lon="5.98617">
        <ele>736.229</ele>
        <time>2020-09-02T14:34:04Z</time>
      </trkpt>
      <trkpt lat="43.98737" lon="5.98612">
        <ele>735.921</ele>
        <time>2020-09-02T14:34:05Z</time>
      </trkpt>
      <trkpt lat="43.98725" lon="5.98608">
        <ele>735.608</ele>
        <time>2020-09-02T14:34:06Z</time>
      </trkpt>
      <trkpt lat="43.98712" lon="5.98606">
        <ele>735.242</ele>
        <time>2020-09-02T14:34:07Z</time>
      </trkpt>
      <trkpt lat="43.98699" lon="5.98607">
        <ele>734.861</ele>
        <time>2020-09-02T14:34:08Z</time>
      </trkpt>
      <trkpt lat="43.98685" lon="5.98606">
        <ele>734.571</ele>
        <time>2020-09-02T14:34:09Z</time>
      </trkpt>
      <trkpt lat="43.98673" lon="5.98605">
        <ele>734.518</ele>
        <time>2020-09-02T14:34:10Z</time>
      </trkpt>
      <trkpt lat="43.9866" lon="5.98602">
        <ele>734.329</ele>
        <time>2020-09-02T14:34:11Z</time>
      </trkpt>
      <trkpt lat="43.98647" lon="5.98602">
        <ele>734.347</ele>
        <time>2020-09-02T14:34:12Z</time>
      </trkpt>
      <trkpt lat="43.98634" lon="5.98603">
        <ele>734.183</ele>
        <time>2020-09-02T14:34:13Z</time>
      </trkpt>
      <trkpt lat="43.98621" lon="5.98605">
        <ele>733.966</ele>
        <time>2020-09-02T14:34:14Z</time>
      </trkpt>
      <trkpt lat="43.98607" lon="5.98607">
        <ele>733.721</ele>
        <time>2020-09-02T14:34:15Z</time>
      </trkpt>
      <trkpt lat="43.98593" lon="5.98608">
        <ele>733.541</ele>
        <time>2020-09-02T14:34:16Z</time>
      </trkpt>
      <trkpt lat="43.98579" lon="5.98608">
        <ele>733.405</ele>
        <time>2020-09-02T14:34:17Z</time>
      </trkpt>
      <trkpt lat="43.98565" lon="5.98608">
        <ele>733.208</ele>
        <time>2020-09-02T14:34:18Z</time>
      </trkpt>
      <trkpt lat="43.98552" lon="5.98609">
        <ele>733.13</ele>
        <time>2020-09-02T14:34:19Z</time>
      </trkpt>
      <trkpt lat="43.98539" lon="5.9861">
        <ele>732.839</ele>
        <time>2020-09-02T14:34:20Z</time>
      </trkpt>
      <trkpt lat="43.98527" lon="5.9861">
        <ele>732.219</ele>
        <time>2020-09-02T14:34:21Z</time>
      </trkpt>
      <trkpt lat="43.98516" lon="5.9861">
        <ele>732.026</ele>
        <time>2020-09-02T14:34:22Z</time>
      </trkpt>
      <trkpt lat="43.98505" lon="5.98609">
        <ele>731.927</ele>
        <time>2020-09-02T14:34:23Z</time>
      </trkpt>
      <trkpt lat="43.98496" lon="5.98607">
        <ele>731.895</ele>
        <time>2020-09-02T14:34:24Z</time>
      </trkpt>
      <trkpt lat="43.9849" lon="5.98607">
        <ele>731.621</ele>
        <time>2020-09-02T14:34:25Z</time>
      </trkpt>
      <trkpt lat="43.98486" lon="5.98607">
        <ele>731.544</ele>
        <time>2020-09-02T14:34:26Z</time>
      </trkpt>
      <trkpt lat="43.98481" lon="5.9861">
        <ele>731.514</ele>
        <time>2020-09-02T14:34:27Z</time>
      </trkpt>
      <trkpt lat="43.98474" lon="5.98611">
        <ele>730.954</ele>
        <time>2020-09-02T14:34:29Z</time>
      </trkpt>
      <trkpt lat="43.98467" lon="5.98612">
        <ele>730.509</ele>
        <time>2020-09-02T14:34:31Z</time>
      </trkpt>
      <trkpt lat="43.9846" lon="5.98612">
        <ele>729.508</ele>
        <time>2020-09-02T14:34:33Z</time>
      </trkpt>
      <trkpt lat="43.98452" lon="5.98612">
        <ele>729.319</ele>
        <time>2020-09-02T14:34:35Z</time>
      </trkpt>
      <trkpt lat="43.98447" lon="5.98612">
        <ele>729.388</ele>
        <time>2020-09-02T14:34:36Z</time>
      </trkpt>
      <trkpt lat="43.9844" lon="5.98611">
        <ele>728.898</ele>
        <time>2020-09-02T14:34:37Z</time>
      </trkpt>
      <trkpt lat="43.98433" lon="5.98609">
        <ele>728.665</ele>
        <time>2020-09-02T14:34:38Z</time>
      </trkpt>
      <trkpt lat="43.98426" lon="5.98602">
        <ele>728.486</ele>
        <time>2020-09-02T14:34:39Z</time>
      </trkpt>
      <trkpt lat="43.98418" lon="5.98592">
        <ele>728.544</ele>
        <time>2020-09-02T14:34:40Z</time>
      </trkpt>
      <trkpt lat="43.98411" lon="5.98581">
        <ele>728.37</ele>
        <time>2020-09-02T14:34:41Z</time>
      </trkpt>
      <trkpt lat="43.98405" lon="5.98569">
        <ele>727.943</ele>
        <time>2020-09-02T14:34:42Z</time>
      </trkpt>
      <trkpt lat="43.98399" lon="5.98555">
        <ele>727.753</ele>
        <time>2020-09-02T14:34:43Z</time>
      </trkpt>
      <trkpt lat="43.98392" lon="5.9854">
        <ele>727.404</ele>
        <time>2020-09-02T14:34:44Z</time>
      </trkpt>
      <trkpt lat="43.98386" lon="5.98525">
        <ele>727.314</ele>
        <time>2020-09-02T14:34:45Z</time>
      </trkpt>
      <trkpt lat="43.98381" lon="5.98511">
        <ele>726.608</ele>
        <time>2020-09-02T14:34:46Z</time>
      </trkpt>
      <trkpt lat="43.98376" lon="5.98496">
        <ele>726.353</ele>
        <time>2020-09-02T14:34:47Z</time>
      </trkpt>
      <trkpt lat="43.98371" lon="5.98482">
        <ele>726.172</ele>
        <time>2020-09-02T14:34:48Z</time>
      </trkpt>
      <trkpt lat="43.98367" lon="5.9847">
        <ele>725.982</ele>
        <time>2020-09-02T14:34:49Z</time>
      </trkpt>
      <trkpt lat="43.98363" lon="5.98456">
        <ele>726.359</ele>
        <time>2020-09-02T14:34:50Z</time>
      </trkpt>
      <trkpt lat="43.98359" lon="5.98441">
        <ele>725.72</ele>
        <time>2020-09-02T14:34:51Z</time>
      </trkpt>
      <trkpt lat="43.98355" lon="5.98429">
        <ele>724.968</ele>
        <time>2020-09-02T14:34:52Z</time>
      </trkpt>
      <trkpt lat="43.9835" lon="5.98419">
        <ele>724.974</ele>
        <time>2020-09-02T14:34:53Z</time>
      </trkpt>
      <trkpt lat="43.98344" lon="5.98409">
        <ele>724.817</ele>
        <time>2020-09-02T14:34:54Z</time>
      </trkpt>
      <trkpt lat="43.98337" lon="5.98396">
        <ele>724.213</ele>
        <time>2020-09-02T14:34:55Z</time>
      </trkpt>
      <trkpt lat="43.9833" lon="5.98384">
        <ele>723.943</ele>
        <time>2020-09-02T14:34:56Z</time>
      </trkpt>
      <trkpt lat="43.98322" lon="5.98373">
        <ele>723.307</ele>
        <time>2020-09-02T14:34:57Z</time>
      </trkpt>
      <trkpt lat="43.98313" lon="5.98363">
        <ele>723.008</ele>
        <time>2020-09-02T14:34:58Z</time>
      </trkpt>
      <trkpt lat="43.98303" lon="5.98355">
        <ele>723.029</ele>
        <time>2020-09-02T14:34:59Z</time>
      </trkpt>
      <trkpt lat="43.98293" lon="5.98346">
        <ele>723.038</ele>
        <time>2020-09-02T14:35:00Z</time>
      </trkpt>
      <trkpt lat="43.98282" lon="5.98338">
        <ele>722.918</ele>
        <time>2020-09-02T14:35:01Z</time>
      </trkpt>
      <trkpt lat="43.9827" lon="5.98331">
        <ele>723.125</ele>
        <time>2020-09-02T14:35:02Z</time>
      </trkpt>
      <trkpt lat="43.98257" lon="5.98321">
        <ele>723.086</ele>
        <time>2020-09-02T14:35:03Z</time>
      </trkpt>
      <trkpt lat="43.98243" lon="5.98312">
        <ele>722.884</ele>
        <time>2020-09-02T14:35:04Z</time>
      </trkpt>
      <trkpt lat="43.9823" lon="5.98303">
        <ele>722.77</ele>
        <time>2020-09-02T14:35:05Z</time>
      </trkpt>
      <trkpt lat="43.98217" lon="5.98294">
        <ele>722.483</ele>
        <time>2020-09-02T14:35:06Z</time>
      </trkpt>
      <trkpt lat="43.98206" lon="5.98286">
        <ele>722.765</ele>
        <time>2020-09-02T14:35:07Z</time>
      </trkpt>
      <trkpt lat="43.98195" lon="5.98279">
        <ele>723.168</ele>
        <time>2020-09-02T14:35:08Z</time>
      </trkpt>
      <trkpt lat="43.98185" lon="5.98272">
        <ele>722.914</ele>
        <time>2020-09-02T14:35:09Z</time>
      </trkpt>
      <trkpt lat="43.98176" lon="5.98267">
        <ele>722.008</ele>
        <time>2020-09-02T14:35:10Z</time>
      </trkpt>
      <trkpt lat="43.98166" lon="5.98263">
        <ele>721.444</ele>
        <time>2020-09-02T14:35:11Z</time>
      </trkpt>
      <trkpt lat="43.98157" lon="5.9826">
        <ele>721.493</ele>
        <time>2020-09-02T14:35:12Z</time>
      </trkpt>
      <trkpt lat="43.98148" lon="5.98257">
        <ele>721.113</ele>
        <time>2020-09-02T14:35:13Z</time>
      </trkpt>
      <trkpt lat="43.98138" lon="5.98254">
        <ele>721.07</ele>
        <time>2020-09-02T14:35:14Z</time>
      </trkpt>
      <trkpt lat="43.98127" lon="5.98253">
        <ele>720.971</ele>
        <time>2020-09-02T14:35:15Z</time>
      </trkpt>
      <trkpt lat="43.98116" lon="5.98251">
        <ele>721.039</ele>
        <time>2020-09-02T14:35:16Z</time>
      </trkpt>
      <trkpt lat="43.98103" lon="5.98249">
        <ele>720.615</ele>
        <time>2020-09-02T14:35:17Z</time>
      </trkpt>
      <trkpt lat="43.9809" lon="5.98246">
        <ele>719.938</ele>
        <time>2020-09-02T14:35:18Z</time>
      </trkpt>
      <trkpt lat="43.98075" lon="5.98243">
        <ele>719.095</ele>
        <time>2020-09-02T14:35:19Z</time>
      </trkpt>
      <trkpt lat="43.98059" lon="5.98236">
        <ele>718.549</ele>
        <time>2020-09-02T14:35:20Z</time>
      </trkpt>
      <trkpt lat="43.98044" lon="5.98231">
        <ele>717.723</ele>
        <time>2020-09-02T14:35:21Z</time>
      </trkpt>
      <trkpt lat="43.9803" lon="5.98225">
        <ele>717.108</ele>
        <time>2020-09-02T14:35:22Z</time>
      </trkpt>
      <trkpt lat="43.98016" lon="5.9822">
        <ele>717.167</ele>
        <time>2020-09-02T14:35:23Z</time>
      </trkpt>
      <trkpt lat="43.98003" lon="5.98217">
        <ele>716.836</ele>
        <time>2020-09-02T14:35:24Z</time>
      </trkpt>
      <trkpt lat="43.97992" lon="5.98214">
        <ele>716.276</ele>
        <time>2020-09-02T14:35:25Z</time>
      </trkpt>
      <trkpt lat="43.97981" lon="5.98211">
        <ele>715.813</ele>
        <time>2020-09-02T14:35:26Z</time>
      </trkpt>
      <trkpt lat="43.9797" lon="5.9821">
        <ele>715.614</ele>
        <time>2020-09-02T14:35:27Z</time>
      </trkpt>
      <trkpt lat="43.9796" lon="5.98211">
        <ele>715.412</ele>
        <time>2020-09-02T14:35:28Z</time>
      </trkpt>
      <trkpt lat="43.97948" lon="5.98211">
        <ele>715.558</ele>
        <time>2020-09-02T14:35:29Z</time>
      </trkpt>
      <trkpt lat="43.97936" lon="5.98212">
        <ele>714.971</ele>
        <time>2020-09-02T14:35:30Z</time>
      </trkpt>
      <trkpt lat="43.97923" lon="5.98212">
        <ele>714.596</ele>
        <time>2020-09-02T14:35:31Z</time>
      </trkpt>
      <trkpt lat="43.9791" lon="5.98212">
        <ele>714.031</ele>
        <time>2020-09-02T14:35:32Z</time>
      </trkpt>
      <trkpt lat="43.97896" lon="5.9821">
        <ele>713.924</ele>
        <time>2020-09-02T14:35:33Z</time>
      </trkpt>
      <trkpt lat="43.97883" lon="5.98207">
        <ele>713.708</ele>
        <time>2020-09-02T14:35:34Z</time>
      </trkpt>
      <trkpt lat="43.97869" lon="5.98203">
        <ele>713.057</ele>
        <time>2020-09-02T14:35:35Z</time>
      </trkpt>
      <trkpt lat="43.97855" lon="5.982">
        <ele>712.776</ele>
        <time>2020-09-02T14:35:36Z</time>
      </trkpt>
      <trkpt lat="43.9784" lon="5.98195">
        <ele>711.886</ele>
        <time>2020-09-02T14:35:37Z</time>
      </trkpt>
      <trkpt lat="43.97826" lon="5.98189">
        <ele>710.693</ele>
        <time>2020-09-02T14:35:38Z</time>
      </trkpt>
      <trkpt lat="43.97812" lon="5.9818">
        <ele>710.524</ele>
        <time>2020-09-02T14:35:39Z</time>
      </trkpt>
      <trkpt lat="43.97798" lon="5.98172">
        <ele>710.212</ele>
        <time>2020-09-02T14:35:40Z</time>
      </trkpt>
      <trkpt lat="43.97786" lon="5.98164">
        <ele>710.058</ele>
        <time>2020-09-02T14:35:41Z</time>
      </trkpt>
      <trkpt lat="43.97774" lon="5.98157">
        <ele>709.641</ele>
        <time>2020-09-02T14:35:42Z</time>
      </trkpt>
      <trkpt lat="43.97762" lon="5.98149">
        <ele>709.186</ele>
        <time>2020-09-02T14:35:43Z</time>
      </trkpt>
      <trkpt lat="43.9775" lon="5.98141">
        <ele>709.16</ele>
        <time>2020-09-02T14:35:44Z</time>
      </trkpt>
      <trkpt lat="43.97737" lon="5.98133">
        <ele>708.226</ele>
        <time>2020-09-02T14:35:45Z</time>
      </trkpt>
      <trkpt lat="43.97724" lon="5.98124">
        <ele>708.308</ele>
        <time>2020-09-02T14:35:46Z</time>
      </trkpt>
      <trkpt lat="43.9771" lon="5.98117">
        <ele>708.016</ele>
        <time>2020-09-02T14:35:47Z</time>
      </trkpt>
      <trkpt lat="43.97696" lon="5.9811">
        <ele>707.345</ele>
        <time>2020-09-02T14:35:48Z</time>
      </trkpt>
      <trkpt lat="43.97683" lon="5.98103">
        <ele>706.995</ele>
        <time>2020-09-02T14:35:49Z</time>
      </trkpt>
      <trkpt lat="43.97668" lon="5.98096">
        <ele>706.852</ele>
        <time>2020-09-02T14:35:50Z</time>
      </trkpt>
      <trkpt lat="43.97654" lon="5.98092">
        <ele>706.173</ele>
        <time>2020-09-02T14:35:51Z</time>
      </trkpt>
      <trkpt lat="43.9764" lon="5.98087">
        <ele>705.461</ele>
        <time>2020-09-02T14:35:52Z</time>
      </trkpt>
      <trkpt lat="43.97625" lon="5.98082">
        <ele>704.957</ele>
        <time>2020-09-02T14:35:53Z</time>
      </trkpt>
      <trkpt lat="43.9761" lon="5.98077">
        <ele>704.71</ele>
        <time>2020-09-02T14:35:54Z</time>
      </trkpt>
      <trkpt lat="43.97595" lon="5.98072">
        <ele>704.379</ele>
        <time>2020-09-02T14:35:55Z</time>
      </trkpt>
      <trkpt lat="43.9758" lon="5.98068">
        <ele>704.005</ele>
        <time>2020-09-02T14:35:56Z</time>
      </trkpt>
      <trkpt lat="43.97566" lon="5.98064">
        <ele>703.925</ele>
        <time>2020-09-02T14:35:57Z</time>
      </trkpt>
      <trkpt lat="43.97552" lon="5.9806">
        <ele>703.408</ele>
        <time>2020-09-02T14:35:58Z</time>
      </trkpt>
      <trkpt lat="43.97538" lon="5.98056">
        <ele>702.995</ele>
        <time>2020-09-02T14:35:59Z</time>
      </trkpt>
      <trkpt lat="43.97524" lon="5.98055">
        <ele>702.114</ele>
        <time>2020-09-02T14:36:00Z</time>
      </trkpt>
      <trkpt lat="43.97511" lon="5.98054">
        <ele>701.934</ele>
        <time>2020-09-02T14:36:01Z</time>
      </trkpt>
      <trkpt lat="43.97497" lon="5.98054">
        <ele>701.761</ele>
        <time>2020-09-02T14:36:02Z</time>
      </trkpt>
      <trkpt lat="43.97482" lon="5.98058">
        <ele>701.962</ele>
        <time>2020-09-02T14:36:03Z</time>
      </trkpt>
      <trkpt lat="43.97466" lon="5.98058">
        <ele>700.89</ele>
        <time>2020-09-02T14:36:04Z</time>
      </trkpt>
      <trkpt lat="43.97451" lon="5.98059">
        <ele>699.926</ele>
        <time>2020-09-02T14:36:05Z</time>
      </trkpt>
      <trkpt lat="43.97435" lon="5.9806">
        <ele>698.949</ele>
        <time>2020-09-02T14:36:06Z</time>
      </trkpt>
      <trkpt lat="43.97419" lon="5.98061">
        <ele>698.486</ele>
        <time>2020-09-02T14:36:07Z</time>
      </trkpt>
      <trkpt lat="43.97404" lon="5.9806">
        <ele>697.56</ele>
        <time>2020-09-02T14:36:08Z</time>
      </trkpt>
      <trkpt lat="43.97389" lon="5.9806">
        <ele>697.326</ele>
        <time>2020-09-02T14:36:09Z</time>
      </trkpt>
      <trkpt lat="43.97375" lon="5.98057">
        <ele>697.008</ele>
        <time>2020-09-02T14:36:10Z</time>
      </trkpt>
      <trkpt lat="43.97362" lon="5.98052">
        <ele>696.926</ele>
        <time>2020-09-02T14:36:11Z</time>
      </trkpt>
      <trkpt lat="43.97347" lon="5.98045">
        <ele>696.215</ele>
        <time>2020-09-02T14:36:12Z</time>
      </trkpt>
      <trkpt lat="43.97333" lon="5.98036">
        <ele>695.585</ele>
        <time>2020-09-02T14:36:13Z</time>
      </trkpt>
      <trkpt lat="43.97319" lon="5.98028">
        <ele>695.352</ele>
        <time>2020-09-02T14:36:14Z</time>
      </trkpt>
      <trkpt lat="43.97305" lon="5.98017">
        <ele>695.233</ele>
        <time>2020-09-02T14:36:15Z</time>
      </trkpt>
      <trkpt lat="43.97291" lon="5.98005">
        <ele>694.761</ele>
        <time>2020-09-02T14:36:16Z</time>
      </trkpt>
      <trkpt lat="43.97278" lon="5.97992">
        <ele>694.437</ele>
        <time>2020-09-02T14:36:17Z</time>
      </trkpt>
      <trkpt lat="43.97265" lon="5.97978">
        <ele>694.45</ele>
        <time>2020-09-02T14:36:18Z</time>
      </trkpt>
      <trkpt lat="43.97253" lon="5.97965">
        <ele>694.257</ele>
        <time>2020-09-02T14:36:19Z</time>
      </trkpt>
      <trkpt lat="43.97239" lon="5.97951">
        <ele>693.6</ele>
        <time>2020-09-02T14:36:20Z</time>
      </trkpt>
      <trkpt lat="43.97225" lon="5.97938">
        <ele>693.32</ele>
        <time>2020-09-02T14:36:21Z</time>
      </trkpt>
      <trkpt lat="43.9721" lon="5.97926">
        <ele>693.108</ele>
        <time>2020-09-02T14:36:22Z</time>
      </trkpt>
      <trkpt lat="43.97196" lon="5.97915">
        <ele>693.033</ele>
        <time>2020-09-02T14:36:23Z</time>
      </trkpt>
      <trkpt lat="43.97181" lon="5.97906">
        <ele>692.692</ele>
        <time>2020-09-02T14:36:24Z</time>
      </trkpt>
      <trkpt lat="43.97167" lon="5.97896">
        <ele>692.642</ele>
        <time>2020-09-02T14:36:25Z</time>
      </trkpt>
      <trkpt lat="43.97151" lon="5.97891">
        <ele>691.919</ele>
        <time>2020-09-02T14:36:26Z</time>
      </trkpt>
      <trkpt lat="43.97136" lon="5.97888">
        <ele>690.66</ele>
        <time>2020-09-02T14:36:27Z</time>
      </trkpt>
      <trkpt lat="43.97118" lon="5.97883">
        <ele>690.488</ele>
        <time>2020-09-02T14:36:28Z</time>
      </trkpt>
      <trkpt lat="43.971" lon="5.97878">
        <ele>689.834</ele>
        <time>2020-09-02T14:36:29Z</time>
      </trkpt>
      <trkpt lat="43.97082" lon="5.97871">
        <ele>689.287</ele>
        <time>2020-09-02T14:36:30Z</time>
      </trkpt>
      <trkpt lat="43.97065" lon="5.97867">
        <ele>688.899</ele>
        <time>2020-09-02T14:36:31Z</time>
      </trkpt>
      <trkpt lat="43.97048" lon="5.97862">
        <ele>688.207</ele>
        <time>2020-09-02T14:36:32Z</time>
      </trkpt>
      <trkpt lat="43.97031" lon="5.97858">
        <ele>687.727</ele>
        <time>2020-09-02T14:36:33Z</time>
      </trkpt>
      <trkpt lat="43.97014" lon="5.97855">
        <ele>687.508</ele>
        <time>2020-09-02T14:36:34Z</time>
      </trkpt>
      <trkpt lat="43.96998" lon="5.97852">
        <ele>686.577</ele>
        <time>2020-09-02T14:36:35Z</time>
      </trkpt>
      <trkpt lat="43.96981" lon="5.97847">
        <ele>685.126</ele>
        <time>2020-09-02T14:36:36Z</time>
      </trkpt>
      <trkpt lat="43.96963" lon="5.97841">
        <ele>684.426</ele>
        <time>2020-09-02T14:36:37Z</time>
      </trkpt>
      <trkpt lat="43.96946" lon="5.97836">
        <ele>683.423</ele>
        <time>2020-09-02T14:36:38Z</time>
      </trkpt>
      <trkpt lat="43.96929" lon="5.9783">
        <ele>683.264</ele>
        <time>2020-09-02T14:36:39Z</time>
      </trkpt>
      <trkpt lat="43.96912" lon="5.97823">
        <ele>682.872</ele>
        <time>2020-09-02T14:36:40Z</time>
      </trkpt>
      <trkpt lat="43.96896" lon="5.97816">
        <ele>682.558</ele>
        <time>2020-09-02T14:36:41Z</time>
      </trkpt>
      <trkpt lat="43.9688" lon="5.97808">
        <ele>681.691</ele>
        <time>2020-09-02T14:36:42Z</time>
      </trkpt>
      <trkpt lat="43.96866" lon="5.97803">
        <ele>681.527</ele>
        <time>2020-09-02T14:36:43Z</time>
      </trkpt>
      <trkpt lat="43.96854" lon="5.97801">
        <ele>681.768</ele>
        <time>2020-09-02T14:36:44Z</time>
      </trkpt>
      <trkpt lat="43.96842" lon="5.978">
        <ele>681.314</ele>
        <time>2020-09-02T14:36:45Z</time>
      </trkpt>
      <trkpt lat="43.96831" lon="5.97798">
        <ele>680.508</ele>
        <time>2020-09-02T14:36:46Z</time>
      </trkpt>
      <trkpt lat="43.9682" lon="5.97795">
        <ele>680.56</ele>
        <time>2020-09-02T14:36:47Z</time>
      </trkpt>
      <trkpt lat="43.96808" lon="5.9779">
        <ele>680.249</ele>
        <time>2020-09-02T14:36:48Z</time>
      </trkpt>
      <trkpt lat="43.96798" lon="5.97784">
        <ele>680.079</ele>
        <time>2020-09-02T14:36:49Z</time>
      </trkpt>
      <trkpt lat="43.96789" lon="5.97776">
        <ele>680.316</ele>
        <time>2020-09-02T14:36:50Z</time>
      </trkpt>
      <trkpt lat="43.9678" lon="5.9777">
        <ele>680.027</ele>
        <time>2020-09-02T14:36:51Z</time>
      </trkpt>
      <trkpt lat="43.96771" lon="5.97765">
        <ele>680.165</ele>
        <time>2020-09-02T14:36:52Z</time>
      </trkpt>
      <trkpt lat="43.96763" lon="5.97763">
        <ele>680.281</ele>
        <time>2020-09-02T14:36:53Z</time>
      </trkpt>
      <trkpt lat="43.96754" lon="5.97761">
        <ele>679.754</ele>
        <time>2020-09-02T14:36:54Z</time>
      </trkpt>
      <trkpt lat="43.96746" lon="5.97757">
        <ele>679.399</ele>
        <time>2020-09-02T14:36:55Z</time>
      </trkpt>
      <trkpt lat="43.96736" lon="5.97752">
        <ele>679.607</ele>
        <time>2020-09-02T14:36:56Z</time>
      </trkpt>
      <trkpt lat="43.96728" lon="5.97745">
        <ele>679.327</ele>
        <time>2020-09-02T14:36:57Z</time>
      </trkpt>
      <trkpt lat="43.9672" lon="5.97736">
        <ele>679.408</ele>
        <time>2020-09-02T14:36:58Z</time>
      </trkpt>
      <trkpt lat="43.96711" lon="5.97727">
        <ele>679.357</ele>
        <time>2020-09-02T14:36:59Z</time>
      </trkpt>
      <trkpt lat="43.96702" lon="5.97717">
        <ele>679.056</ele>
        <time>2020-09-02T14:37:00Z</time>
      </trkpt>
      <trkpt lat="43.96693" lon="5.97707">
        <ele>678.726</ele>
        <time>2020-09-02T14:37:01Z</time>
      </trkpt>
      <trkpt lat="43.96683" lon="5.97694">
        <ele>678.673</ele>
        <time>2020-09-02T14:37:02Z</time>
      </trkpt>
      <trkpt lat="43.96676" lon="5.97683">
        <ele>678.424</ele>
        <time>2020-09-02T14:37:03Z</time>
      </trkpt>
      <trkpt lat="43.96668" lon="5.97672">
        <ele>678.742</ele>
        <time>2020-09-02T14:37:04Z</time>
      </trkpt>
      <trkpt lat="43.96662" lon="5.97661">
        <ele>678.548</ele>
        <time>2020-09-02T14:37:05Z</time>
      </trkpt>
      <trkpt lat="43.96655" lon="5.97651">
        <ele>678.481</ele>
        <time>2020-09-02T14:37:06Z</time>
      </trkpt>
      <trkpt lat="43.96649" lon="5.97644">
        <ele>677.928</ele>
        <time>2020-09-02T14:37:07Z</time>
      </trkpt>
      <trkpt lat="43.9664" lon="5.97638">
        <ele>677.689</ele>
        <time>2020-09-02T14:37:08Z</time>
      </trkpt>
      <trkpt lat="43.96631" lon="5.97632">
        <ele>677.417</ele>
        <time>2020-09-02T14:37:09Z</time>
      </trkpt>
      <trkpt lat="43.96621" lon="5.97625">
        <ele>677.108</ele>
        <time>2020-09-02T14:37:10Z</time>
      </trkpt>
      <trkpt lat="43.9661" lon="5.9762">
        <ele>677.38</ele>
        <time>2020-09-02T14:37:11Z</time>
      </trkpt>
      <trkpt lat="43.96597" lon="5.97617">
        <ele>677.489</ele>
        <time>2020-09-02T14:37:12Z</time>
      </trkpt>
      <trkpt lat="43.96583" lon="5.97614">
        <ele>678.229</ele>
        <time>2020-09-02T14:37:13Z</time>
      </trkpt>
      <trkpt lat="43.96568" lon="5.97609">
        <ele>677.486</ele>
        <time>2020-09-02T14:37:14Z</time>
      </trkpt>
      <trkpt lat="43.96553" lon="5.97607">
        <ele>677.597</ele>
        <time>2020-09-02T14:37:15Z</time>
      </trkpt>
      <trkpt lat="43.96538" lon="5.97601">
        <ele>676.455</ele>
        <time>2020-09-02T14:37:16Z</time>
      </trkpt>
      <trkpt lat="43.96524" lon="5.97596">
        <ele>676.641</ele>
        <time>2020-09-02T14:37:17Z</time>
      </trkpt>
      <trkpt lat="43.9651" lon="5.97591">
        <ele>676.394</ele>
        <time>2020-09-02T14:37:18Z</time>
      </trkpt>
      <trkpt lat="43.96495" lon="5.97583">
        <ele>676.578</ele>
        <time>2020-09-02T14:37:19Z</time>
      </trkpt>
      <trkpt lat="43.96482" lon="5.97573">
        <ele>676.233</ele>
        <time>2020-09-02T14:37:20Z</time>
      </trkpt>
      <trkpt lat="43.9647" lon="5.97563">
        <ele>675.426</ele>
        <time>2020-09-02T14:37:21Z</time>
      </trkpt>
      <trkpt lat="43.96459" lon="5.97555">
        <ele>675.108</ele>
        <time>2020-09-02T14:37:22Z</time>
      </trkpt>
      <trkpt lat="43.96448" lon="5.97548">
        <ele>674.875</ele>
        <time>2020-09-02T14:37:23Z</time>
      </trkpt>
      <trkpt lat="43.96439" lon="5.97546">
        <ele>674.444</ele>
        <time>2020-09-02T14:37:24Z</time>
      </trkpt>
      <trkpt lat="43.96428" lon="5.97556">
        <ele>673.774</ele>
        <time>2020-09-02T14:37:25Z</time>
      </trkpt>
      <trkpt lat="43.96417" lon="5.97559">
        <ele>673.611</ele>
        <time>2020-09-02T14:37:26Z</time>
      </trkpt>
      <trkpt lat="43.96404" lon="5.97565">
        <ele>673.462</ele>
        <time>2020-09-02T14:37:27Z</time>
      </trkpt>
      <trkpt lat="43.96393" lon="5.9757">
        <ele>673.43</ele>
        <time>2020-09-02T14:37:28Z</time>
      </trkpt>
      <trkpt lat="43.96381" lon="5.97573">
        <ele>673.376</ele>
        <time>2020-09-02T14:37:29Z</time>
      </trkpt>
      <trkpt lat="43.9637" lon="5.97578">
        <ele>673.499</ele>
        <time>2020-09-02T14:37:30Z</time>
      </trkpt>
      <trkpt lat="43.96359" lon="5.97583">
        <ele>673.685</ele>
        <time>2020-09-02T14:37:31Z</time>
      </trkpt>
      <trkpt lat="43.96348" lon="5.97587">
        <ele>673.889</ele>
        <time>2020-09-02T14:37:32Z</time>
      </trkpt>
      <trkpt lat="43.96335" lon="5.97593">
        <ele>673.717</ele>
        <time>2020-09-02T14:37:33Z</time>
      </trkpt>
      <trkpt lat="43.96322" lon="5.97598">
        <ele>673.508</ele>
        <time>2020-09-02T14:37:34Z</time>
      </trkpt>
      <trkpt lat="43.9631" lon="5.97602">
        <ele>673.616</ele>
        <time>2020-09-02T14:37:35Z</time>
      </trkpt>
      <trkpt lat="43.96299" lon="5.97608">
        <ele>673.595</ele>
        <time>2020-09-02T14:37:36Z</time>
      </trkpt>
      <trkpt lat="43.96289" lon="5.97612">
        <ele>673.655</ele>
        <time>2020-09-02T14:37:37Z</time>
      </trkpt>
      <trkpt lat="43.96281" lon="5.97616">
        <ele>673.392</ele>
        <time>2020-09-02T14:37:38Z</time>
      </trkpt>
      <trkpt lat="43.96273" lon="5.97619">
        <ele>673.483</ele>
        <time>2020-09-02T14:37:39Z</time>
      </trkpt>
      <trkpt lat="43.96264" lon="5.9762">
        <ele>673.651</ele>
        <time>2020-09-02T14:37:40Z</time>
      </trkpt>
      <trkpt lat="43.96255" lon="5.97615">
        <ele>673.417</ele>
        <time>2020-09-02T14:37:41Z</time>
      </trkpt>
      <trkpt lat="43.96246" lon="5.97609">
        <ele>673.68</ele>
        <time>2020-09-02T14:37:42Z</time>
      </trkpt>
      <trkpt lat="43.96237" lon="5.97602">
        <ele>673.548</ele>
        <time>2020-09-02T14:37:43Z</time>
      </trkpt>
      <trkpt lat="43.96228" lon="5.97594">
        <ele>673.661</ele>
        <time>2020-09-02T14:37:44Z</time>
      </trkpt>
      <trkpt lat="43.96219" lon="5.97586">
        <ele>673.817</ele>
        <time>2020-09-02T14:37:45Z</time>
      </trkpt>
      <trkpt lat="43.9621" lon="5.97577">
        <ele>673.608</ele>
        <time>2020-09-02T14:37:46Z</time>
      </trkpt>
      <trkpt lat="43.96202" lon="5.97569">
        <ele>673.242</ele>
        <time>2020-09-02T14:37:47Z</time>
      </trkpt>
      <trkpt lat="43.96193" lon="5.9756">
        <ele>673.031</ele>
        <time>2020-09-02T14:37:48Z</time>
      </trkpt>
      <trkpt lat="43.96184" lon="5.9755">
        <ele>672.531</ele>
        <time>2020-09-02T14:37:49Z</time>
      </trkpt>
      <trkpt lat="43.96174" lon="5.97539">
        <ele>671.968</ele>
        <time>2020-09-02T14:37:50Z</time>
      </trkpt>
      <trkpt lat="43.96165" lon="5.9753">
        <ele>671.289</ele>
        <time>2020-09-02T14:37:51Z</time>
      </trkpt>
      <trkpt lat="43.96156" lon="5.97521">
        <ele>671.017</ele>
        <time>2020-09-02T14:37:52Z</time>
      </trkpt>
      <trkpt lat="43.96146" lon="5.97514">
        <ele>670.513</ele>
        <time>2020-09-02T14:37:53Z</time>
      </trkpt>
      <trkpt lat="43.96135" lon="5.97509">
        <ele>669.986</ele>
        <time>2020-09-02T14:37:54Z</time>
      </trkpt>
      <trkpt lat="43.96124" lon="5.97507">
        <ele>668.979</ele>
        <time>2020-09-02T14:37:55Z</time>
      </trkpt>
      <trkpt lat="43.96112" lon="5.97506">
        <ele>669.105</ele>
        <time>2020-09-02T14:37:56Z</time>
      </trkpt>
      <trkpt lat="43.961" lon="5.97504">
        <ele>668.325</ele>
        <time>2020-09-02T14:37:57Z</time>
      </trkpt>
      <trkpt lat="43.96089" lon="5.97505">
        <ele>667.608</ele>
        <time>2020-09-02T14:37:58Z</time>
      </trkpt>
      <trkpt lat="43.96076" lon="5.97507">
        <ele>666.995</ele>
        <time>2020-09-02T14:37:59Z</time>
      </trkpt>
      <trkpt lat="43.96063" lon="5.97511">
        <ele>666.784</ele>
        <time>2020-09-02T14:38:00Z</time>
      </trkpt>
      <trkpt lat="43.9605" lon="5.97517">
        <ele>666.634</ele>
        <time>2020-09-02T14:38:01Z</time>
      </trkpt>
      <trkpt lat="43.96038" lon="5.97523">
        <ele>666.111</ele>
        <time>2020-09-02T14:38:02Z</time>
      </trkpt>
      <trkpt lat="43.96025" lon="5.97531">
        <ele>665.592</ele>
        <time>2020-09-02T14:38:03Z</time>
      </trkpt>
      <trkpt lat="43.96012" lon="5.9754">
        <ele>665.08</ele>
        <time>2020-09-02T14:38:04Z</time>
      </trkpt>
      <trkpt lat="43.96" lon="5.97549">
        <ele>665.076</ele>
        <time>2020-09-02T14:38:05Z</time>
      </trkpt>
      <trkpt lat="43.95988" lon="5.97557">
        <ele>664.499</ele>
        <time>2020-09-02T14:38:06Z</time>
      </trkpt>
      <trkpt lat="43.95977" lon="5.97564">
        <ele>664.168</ele>
        <time>2020-09-02T14:38:07Z</time>
      </trkpt>
      <trkpt lat="43.95971" lon="5.97569">
        <ele>663.542</ele>
        <time>2020-09-02T14:38:08Z</time>
      </trkpt>
      <trkpt lat="43.95967" lon="5.97571">
        <ele>663.826</ele>
        <time>2020-09-02T14:38:15Z</time>
      </trkpt>
      <trkpt lat="43.95962" lon="5.97568">
        <ele>666.008</ele>
        <time>2020-09-02T14:38:54Z</time>
      </trkpt>
      <trkpt lat="43.95959" lon="5.97563">
        <ele>665.264</ele>
        <time>2020-09-02T14:39:12Z</time>
      </trkpt>
      <trkpt lat="43.95953" lon="5.97565">
        <ele>662.913</ele>
        <time>2020-09-02T14:39:13Z</time>
      </trkpt>
      <trkpt lat="43.95948" lon="5.97563">
        <ele>662.393</ele>
        <time>2020-09-02T14:39:14Z</time>
      </trkpt>
      <trkpt lat="43.95941" lon="5.9756">
        <ele>661.27</ele>
        <time>2020-09-02T14:39:15Z</time>
      </trkpt>
      <trkpt lat="43.95933" lon="5.97558">
        <ele>661.381</ele>
        <time>2020-09-02T14:39:16Z</time>
      </trkpt>
      <trkpt lat="43.95925" lon="5.97557">
        <ele>660.989</ele>
        <time>2020-09-02T14:39:17Z</time>
      </trkpt>
      <trkpt lat="43.95917" lon="5.97558">
        <ele>660.155</ele>
        <time>2020-09-02T14:39:18Z</time>
      </trkpt>
      <trkpt lat="43.9591" lon="5.97556">
        <ele>660.268</ele>
        <time>2020-09-02T14:39:19Z</time>
      </trkpt>
      <trkpt lat="43.95902" lon="5.97553">
        <ele>659.537</ele>
        <time>2020-09-02T14:39:20Z</time>
      </trkpt>
      <trkpt lat="43.95893" lon="5.97548">
        <ele>658.649</ele>
        <time>2020-09-02T14:39:21Z</time>
      </trkpt>
      <trkpt lat="43.95886" lon="5.97548">
        <ele>657.313</ele>
        <time>2020-09-02T14:39:22Z</time>
      </trkpt>
      <trkpt lat="43.95877" lon="5.97545">
        <ele>656.208</ele>
        <time>2020-09-02T14:39:23Z</time>
      </trkpt>
      <trkpt lat="43.95868" lon="5.97544">
        <ele>655.941</ele>
        <time>2020-09-02T14:39:24Z</time>
      </trkpt>
      <trkpt lat="43.95859" lon="5.97541">
        <ele>655.37</ele>
        <time>2020-09-02T14:39:25Z</time>
      </trkpt>
      <trkpt lat="43.95852" lon="5.97539">
        <ele>654.83</ele>
        <time>2020-09-02T14:39:26Z</time>
      </trkpt>
      <trkpt lat="43.95844" lon="5.97537">
        <ele>654.077</ele>
        <time>2020-09-02T14:39:27Z</time>
      </trkpt>
      <trkpt lat="43.95836" lon="5.97536">
        <ele>653.298</ele>
        <time>2020-09-02T14:39:28Z</time>
      </trkpt>
      <trkpt lat="43.95829" lon="5.97536">
        <ele>652.496</ele>
        <time>2020-09-02T14:39:29Z</time>
      </trkpt>
      <trkpt lat="43.95822" lon="5.97536">
        <ele>651.532</ele>
        <time>2020-09-02T14:39:30Z</time>
      </trkpt>
      <trkpt lat="43.95815" lon="5.97536">
        <ele>650.985</ele>
        <time>2020-09-02T14:39:31Z</time>
      </trkpt>
      <trkpt lat="43.95809" lon="5.97538">
        <ele>650.176</ele>
        <time>2020-09-02T14:39:32Z</time>
      </trkpt>
      <trkpt lat="43.95804" lon="5.97539">
        <ele>650.29</ele>
        <time>2020-09-02T14:39:33Z</time>
      </trkpt>
      <trkpt lat="43.95799" lon="5.97546">
        <ele>649.719</ele>
        <time>2020-09-02T14:39:34Z</time>
      </trkpt>
      <trkpt lat="43.95795" lon="5.97555">
        <ele>649.308</ele>
        <time>2020-09-02T14:39:35Z</time>
      </trkpt>
      <trkpt lat="43.95791" lon="5.97564">
        <ele>648.825</ele>
        <time>2020-09-02T14:39:36Z</time>
      </trkpt>
      <trkpt lat="43.95787" lon="5.97574">
        <ele>649.294</ele>
        <time>2020-09-02T14:39:37Z</time>
      </trkpt>
      <trkpt lat="43.95784" lon="5.97583">
        <ele>648.874</ele>
        <time>2020-09-02T14:39:38Z</time>
      </trkpt>
      <trkpt lat="43.95778" lon="5.97589">
        <ele>648.671</ele>
        <time>2020-09-02T14:39:39Z</time>
      </trkpt>
      <trkpt lat="43.95772" lon="5.97591">
        <ele>647.772</ele>
        <time>2020-09-02T14:39:40Z</time>
      </trkpt>
      <trkpt lat="43.95765" lon="5.97592">
        <ele>647.32</ele>
        <time>2020-09-02T14:39:41Z</time>
      </trkpt>
      <trkpt lat="43.95755" lon="5.97591">
        <ele>646.796</ele>
        <time>2020-09-02T14:39:42Z</time>
      </trkpt>
      <trkpt lat="43.95745" lon="5.97588">
        <ele>645.529</ele>
        <time>2020-09-02T14:39:43Z</time>
      </trkpt>
      <trkpt lat="43.95734" lon="5.97584">
        <ele>644.842</ele>
        <time>2020-09-02T14:39:44Z</time>
      </trkpt>
      <trkpt lat="43.95724" lon="5.97582">
        <ele>643.322</ele>
        <time>2020-09-02T14:39:45Z</time>
      </trkpt>
      <trkpt lat="43.95715" lon="5.97582">
        <ele>642.014</ele>
        <time>2020-09-02T14:39:46Z</time>
      </trkpt>
      <trkpt lat="43.95706" lon="5.97582">
        <ele>641.008</ele>
        <time>2020-09-02T14:39:47Z</time>
      </trkpt>
      <trkpt lat="43.95696" lon="5.97581">
        <ele>640.232</ele>
        <time>2020-09-02T14:39:48Z</time>
      </trkpt>
      <trkpt lat="43.95689" lon="5.97582">
        <ele>638.541</ele>
        <time>2020-09-02T14:39:49Z</time>
      </trkpt>
      <trkpt lat="43.95681" lon="5.97584">
        <ele>637.621</ele>
        <time>2020-09-02T14:39:50Z</time>
      </trkpt>
      <trkpt lat="43.95673" lon="5.97584">
        <ele>636.828</ele>
        <time>2020-09-02T14:39:51Z</time>
      </trkpt>
      <trkpt lat="43.95666" lon="5.97587">
        <ele>636.179</ele>
        <time>2020-09-02T14:39:52Z</time>
      </trkpt>
      <trkpt lat="43.95658" lon="5.97593">
        <ele>635.797</ele>
        <time>2020-09-02T14:39:53Z</time>
      </trkpt>
      <trkpt lat="43.9565" lon="5.97598">
        <ele>635.813</ele>
        <time>2020-09-02T14:39:54Z</time>
      </trkpt>
      <trkpt lat="43.95643" lon="5.97607">
        <ele>634.856</ele>
        <time>2020-09-02T14:39:55Z</time>
      </trkpt>
      <trkpt lat="43.95633" lon="5.97614">
        <ele>634.064</ele>
        <time>2020-09-02T14:39:56Z</time>
      </trkpt>
      <trkpt lat="43.95622" lon="5.97619">
        <ele>633.706</ele>
        <time>2020-09-02T14:39:57Z</time>
      </trkpt>
      <trkpt lat="43.95612" lon="5.97625">
        <ele>633.616</ele>
        <time>2020-09-02T14:39:58Z</time>
      </trkpt>
      <trkpt lat="43.95601" lon="5.97631">
        <ele>634.008</ele>
        <time>2020-09-02T14:39:59Z</time>
      </trkpt>
      <trkpt lat="43.95591" lon="5.97636">
        <ele>633.524</ele>
        <time>2020-09-02T14:40:00Z</time>
      </trkpt>
      <trkpt lat="43.9558" lon="5.9764">
        <ele>633.053</ele>
        <time>2020-09-02T14:40:01Z</time>
      </trkpt>
      <trkpt lat="43.95569" lon="5.97643">
        <ele>631.623</ele>
        <time>2020-09-02T14:40:02Z</time>
      </trkpt>
      <trkpt lat="43.95559" lon="5.97646">
        <ele>631.13</ele>
        <time>2020-09-02T14:40:03Z</time>
      </trkpt>
      <trkpt lat="43.95548" lon="5.9765">
        <ele>630.211</ele>
        <time>2020-09-02T14:40:04Z</time>
      </trkpt>
      <trkpt lat="43.95537" lon="5.97655">
        <ele>629.729</ele>
        <time>2020-09-02T14:40:05Z</time>
      </trkpt>
      <trkpt lat="43.95525" lon="5.97659">
        <ele>629.455</ele>
        <time>2020-09-02T14:40:06Z</time>
      </trkpt>
      <trkpt lat="43.95515" lon="5.97663">
        <ele>628.758</ele>
        <time>2020-09-02T14:40:07Z</time>
      </trkpt>
      <trkpt lat="43.95504" lon="5.97667">
        <ele>627.547</ele>
        <time>2020-09-02T14:40:08Z</time>
      </trkpt>
      <trkpt lat="43.95494" lon="5.9767">
        <ele>626.729</ele>
        <time>2020-09-02T14:40:09Z</time>
      </trkpt>
      <trkpt lat="43.95483" lon="5.97673">
        <ele>626.421</ele>
        <time>2020-09-02T14:40:10Z</time>
      </trkpt>
      <trkpt lat="43.95475" lon="5.97677">
        <ele>625.008</ele>
        <time>2020-09-02T14:40:11Z</time>
      </trkpt>
      <trkpt lat="43.95466" lon="5.97677">
        <ele>624.412</ele>
        <time>2020-09-02T14:40:12Z</time>
      </trkpt>
      <trkpt lat="43.95456" lon="5.97675">
        <ele>624.491</ele>
        <time>2020-09-02T14:40:13Z</time>
      </trkpt>
      <trkpt lat="43.95447" lon="5.97671">
        <ele>623.961</ele>
        <time>2020-09-02T14:40:14Z</time>
      </trkpt>
      <trkpt lat="43.95437" lon="5.97667">
        <ele>623.258</ele>
        <time>2020-09-02T14:40:15Z</time>
      </trkpt>
      <trkpt lat="43.95429" lon="5.97666">
        <ele>621.879</ele>
        <time>2020-09-02T14:40:16Z</time>
      </trkpt>
      <trkpt lat="43.9542" lon="5.97663">
        <ele>620.957</ele>
        <time>2020-09-02T14:40:17Z</time>
      </trkpt>
      <trkpt lat="43.95411" lon="5.97661">
        <ele>620.473</ele>
        <time>2020-09-02T14:40:18Z</time>
      </trkpt>
      <trkpt lat="43.95403" lon="5.97661">
        <ele>619.466</ele>
        <time>2020-09-02T14:40:19Z</time>
      </trkpt>
      <trkpt lat="43.95395" lon="5.97661">
        <ele>618.985</ele>
        <time>2020-09-02T14:40:20Z</time>
      </trkpt>
      <trkpt lat="43.95387" lon="5.97663">
        <ele>618.789</ele>
        <time>2020-09-02T14:40:21Z</time>
      </trkpt>
      <trkpt lat="43.95379" lon="5.97669">
        <ele>618.217</ele>
        <time>2020-09-02T14:40:22Z</time>
      </trkpt>
      <trkpt lat="43.9537" lon="5.97674">
        <ele>617.808</ele>
        <time>2020-09-02T14:40:23Z</time>
      </trkpt>
      <trkpt lat="43.95362" lon="5.97676">
        <ele>618.096</ele>
        <time>2020-09-02T14:40:24Z</time>
      </trkpt>
      <trkpt lat="43.95353" lon="5.97677">
        <ele>617.795</ele>
        <time>2020-09-02T14:40:25Z</time>
      </trkpt>
      <trkpt lat="43.95341" lon="5.97676">
        <ele>616.975</ele>
        <time>2020-09-02T14:40:26Z</time>
      </trkpt>
      <trkpt lat="43.95331" lon="5.97673">
        <ele>615.782</ele>
        <time>2020-09-02T14:40:27Z</time>
      </trkpt>
      <trkpt lat="43.95323" lon="5.97672">
        <ele>613.983</ele>
        <time>2020-09-02T14:40:28Z</time>
      </trkpt>
      <trkpt lat="43.95314" lon="5.97667">
        <ele>613.261</ele>
        <time>2020-09-02T14:40:29Z</time>
      </trkpt>
      <trkpt lat="43.95303" lon="5.9766">
        <ele>612.267</ele>
        <time>2020-09-02T14:40:30Z</time>
      </trkpt>
      <trkpt lat="43.95293" lon="5.9765">
        <ele>612.58</ele>
        <time>2020-09-02T14:40:31Z</time>
      </trkpt>
      <trkpt lat="43.95284" lon="5.97642">
        <ele>611.436</ele>
        <time>2020-09-02T14:40:32Z</time>
      </trkpt>
      <trkpt lat="43.95274" lon="5.97631">
        <ele>609.917</ele>
        <time>2020-09-02T14:40:33Z</time>
      </trkpt>
      <trkpt lat="43.95266" lon="5.97622">
        <ele>607.918</ele>
        <time>2020-09-02T14:40:34Z</time>
      </trkpt>
      <trkpt lat="43.9526" lon="5.97613">
        <ele>607.708</ele>
        <time>2020-09-02T14:40:35Z</time>
      </trkpt>
      <trkpt lat="43.95254" lon="5.97604">
        <ele>607.171</ele>
        <time>2020-09-02T14:40:36Z</time>
      </trkpt>
      <trkpt lat="43.95248" lon="5.97594">
        <ele>606.36</ele>
        <time>2020-09-02T14:40:37Z</time>
      </trkpt>
      <trkpt lat="43.95248" lon="5.9758">
        <ele>603.73</ele>
        <time>2020-09-02T14:40:38Z</time>
      </trkpt>
      <trkpt lat="43.95246" lon="5.97568">
        <ele>602.777</ele>
        <time>2020-09-02T14:40:39Z</time>
      </trkpt>
      <trkpt lat="43.95242" lon="5.97554">
        <ele>602.418</ele>
        <time>2020-09-02T14:40:40Z</time>
      </trkpt>
      <trkpt lat="43.95233" lon="5.97546">
        <ele>602.366</ele>
        <time>2020-09-02T14:40:41Z</time>
      </trkpt>
      <trkpt lat="43.95224" lon="5.97539">
        <ele>601.652</ele>
        <time>2020-09-02T14:40:42Z</time>
      </trkpt>
      <trkpt lat="43.95218" lon="5.97533">
        <ele>599.185</ele>
        <time>2020-09-02T14:40:43Z</time>
      </trkpt>
      <trkpt lat="43.9521" lon="5.97527">
        <ele>597.325</ele>
        <time>2020-09-02T14:40:44Z</time>
      </trkpt>
      <trkpt lat="43.95201" lon="5.97523">
        <ele>597.626</ele>
        <time>2020-09-02T14:40:45Z</time>
      </trkpt>
      <trkpt lat="43.95192" lon="5.97518">
        <ele>598.008</ele>
        <time>2020-09-02T14:40:46Z</time>
      </trkpt>
      <trkpt lat="43.95181" lon="5.97525">
        <ele>598.208</ele>
        <time>2020-09-02T14:40:47Z</time>
      </trkpt>
      <trkpt lat="43.9517" lon="5.97526">
        <ele>597.94</ele>
        <time>2020-09-02T14:40:48Z</time>
      </trkpt>
      <trkpt lat="43.95159" lon="5.97528">
        <ele>596.179</ele>
        <time>2020-09-02T14:40:49Z</time>
      </trkpt>
      <trkpt lat="43.95149" lon="5.97531">
        <ele>595.949</ele>
        <time>2020-09-02T14:40:50Z</time>
      </trkpt>
      <trkpt lat="43.9514" lon="5.97532">
        <ele>595.486</ele>
        <time>2020-09-02T14:40:51Z</time>
      </trkpt>
      <trkpt lat="43.95131" lon="5.97532">
        <ele>594.927</ele>
        <time>2020-09-02T14:40:52Z</time>
      </trkpt>
      <trkpt lat="43.95121" lon="5.97531">
        <ele>594.935</ele>
        <time>2020-09-02T14:40:53Z</time>
      </trkpt>
      <trkpt lat="43.95112" lon="5.9753">
        <ele>593.481</ele>
        <time>2020-09-02T14:40:54Z</time>
      </trkpt>
      <trkpt lat="43.95103" lon="5.97528">
        <ele>593.184</ele>
        <time>2020-09-02T14:40:55Z</time>
      </trkpt>
      <trkpt lat="43.95093" lon="5.9753">
        <ele>593.764</ele>
        <time>2020-09-02T14:40:56Z</time>
      </trkpt>
      <trkpt lat="43.95085" lon="5.9753">
        <ele>592.806</ele>
        <time>2020-09-02T14:40:57Z</time>
      </trkpt>
      <trkpt lat="43.95077" lon="5.97527">
        <ele>592.616</ele>
        <time>2020-09-02T14:40:58Z</time>
      </trkpt>
      <trkpt lat="43.95068" lon="5.97525">
        <ele>592.208</ele>
        <time>2020-09-02T14:40:59Z</time>
      </trkpt>
      <trkpt lat="43.95058" lon="5.97525">
        <ele>592.084</ele>
        <time>2020-09-02T14:41:00Z</time>
      </trkpt>
      <trkpt lat="43.95049" lon="5.97532">
        <ele>591.533</ele>
        <time>2020-09-02T14:41:01Z</time>
      </trkpt>
      <trkpt lat="43.9504" lon="5.97538">
        <ele>591.243</ele>
        <time>2020-09-02T14:41:02Z</time>
      </trkpt>
      <trkpt lat="43.95031" lon="5.97546">
        <ele>590.95</ele>
        <time>2020-09-02T14:41:03Z</time>
      </trkpt>
      <trkpt lat="43.95023" lon="5.97552">
        <ele>589.921</ele>
        <time>2020-09-02T14:41:04Z</time>
      </trkpt>
      <trkpt lat="43.95014" lon="5.97556">
        <ele>589.499</ele>
        <time>2020-09-02T14:41:05Z</time>
      </trkpt>
      <trkpt lat="43.95004" lon="5.97561">
        <ele>589.125</ele>
        <time>2020-09-02T14:41:06Z</time>
      </trkpt>
      <trkpt lat="43.94994" lon="5.97566">
        <ele>588.968</ele>
        <time>2020-09-02T14:41:07Z</time>
      </trkpt>
      <trkpt lat="43.94985" lon="5.97575">
        <ele>588.316</ele>
        <time>2020-09-02T14:41:08Z</time>
      </trkpt>
      <trkpt lat="43.94975" lon="5.97582">
        <ele>587.276</ele>
        <time>2020-09-02T14:41:09Z</time>
      </trkpt>
      <trkpt lat="43.94966" lon="5.97589">
        <ele>585.613</ele>
        <time>2020-09-02T14:41:10Z</time>
      </trkpt>
      <trkpt lat="43.94957" lon="5.97595">
        <ele>585.208</ele>
        <time>2020-09-02T14:41:11Z</time>
      </trkpt>
      <trkpt lat="43.9495" lon="5.97603">
        <ele>583.619</ele>
        <time>2020-09-02T14:41:12Z</time>
      </trkpt>
      <trkpt lat="43.94941" lon="5.97607">
        <ele>583.258</ele>
        <time>2020-09-02T14:41:13Z</time>
      </trkpt>
      <trkpt lat="43.94932" lon="5.97612">
        <ele>581.758</ele>
        <time>2020-09-02T14:41:14Z</time>
      </trkpt>
      <trkpt lat="43.94924" lon="5.97618">
        <ele>581.145</ele>
        <time>2020-09-02T14:41:15Z</time>
      </trkpt>
      <trkpt lat="43.94916" lon="5.97624">
        <ele>580.586</ele>
        <time>2020-09-02T14:41:16Z</time>
      </trkpt>
      <trkpt lat="43.94907" lon="5.97628">
        <ele>580.264</ele>
        <time>2020-09-02T14:41:17Z</time>
      </trkpt>
      <trkpt lat="43.94898" lon="5.97633">
        <ele>578.61</ele>
        <time>2020-09-02T14:41:18Z</time>
      </trkpt>
      <trkpt lat="43.94889" lon="5.97635">
        <ele>578.123</ele>
        <time>2020-09-02T14:41:19Z</time>
      </trkpt>
      <trkpt lat="43.94879" lon="5.9764">
        <ele>577.299</ele>
        <time>2020-09-02T14:41:20Z</time>
      </trkpt>
      <trkpt lat="43.94871" lon="5.97642">
        <ele>576.207</ele>
        <time>2020-09-02T14:41:21Z</time>
      </trkpt>
      <trkpt lat="43.94864" lon="5.97646">
        <ele>575.827</ele>
        <time>2020-09-02T14:41:22Z</time>
      </trkpt>
      <trkpt lat="43.94852" lon="5.97643">
        <ele>574.708</ele>
        <time>2020-09-02T14:41:23Z</time>
      </trkpt>
      <trkpt lat="43.94841" lon="5.97643">
        <ele>574.327</ele>
        <time>2020-09-02T14:41:24Z</time>
      </trkpt>
      <trkpt lat="43.9483" lon="5.97639">
        <ele>573.676</ele>
        <time>2020-09-02T14:41:25Z</time>
      </trkpt>
      <trkpt lat="43.94819" lon="5.97639">
        <ele>572.746</ele>
        <time>2020-09-02T14:41:26Z</time>
      </trkpt>
      <trkpt lat="43.94808" lon="5.97639">
        <ele>571.443</ele>
        <time>2020-09-02T14:41:27Z</time>
      </trkpt>
      <trkpt lat="43.94798" lon="5.97638">
        <ele>570.484</ele>
        <time>2020-09-02T14:41:28Z</time>
      </trkpt>
      <trkpt lat="43.94788" lon="5.97634">
        <ele>569.282</ele>
        <time>2020-09-02T14:41:29Z</time>
      </trkpt>
      <trkpt lat="43.94779" lon="5.97629">
        <ele>568.328</ele>
        <time>2020-09-02T14:41:30Z</time>
      </trkpt>
      <trkpt lat="43.9477" lon="5.97624">
        <ele>566.751</ele>
        <time>2020-09-02T14:41:31Z</time>
      </trkpt>
      <trkpt lat="43.94762" lon="5.97621">
        <ele>565.732</ele>
        <time>2020-09-02T14:41:32Z</time>
      </trkpt>
      <trkpt lat="43.94756" lon="5.97618">
        <ele>564.392</ele>
        <time>2020-09-02T14:41:33Z</time>
      </trkpt>
      <trkpt lat="43.9475" lon="5.97615">
        <ele>563.111</ele>
        <time>2020-09-02T14:41:34Z</time>
      </trkpt>
      <trkpt lat="43.94741" lon="5.97615">
        <ele>562.408</ele>
        <time>2020-09-02T14:41:35Z</time>
      </trkpt>
      <trkpt lat="43.94732" lon="5.97616">
        <ele>561.851</ele>
        <time>2020-09-02T14:41:36Z</time>
      </trkpt>
      <trkpt lat="43.94722" lon="5.97616">
        <ele>561.66</ele>
        <time>2020-09-02T14:41:37Z</time>
      </trkpt>
      <trkpt lat="43.94713" lon="5.97617">
        <ele>561.58</ele>
        <time>2020-09-02T14:41:38Z</time>
      </trkpt>
      <trkpt lat="43.94704" lon="5.97618">
        <ele>561.047</ele>
        <time>2020-09-02T14:41:39Z</time>
      </trkpt>
      <trkpt lat="43.94696" lon="5.9762">
        <ele>560.578</ele>
        <time>2020-09-02T14:41:40Z</time>
      </trkpt>
      <trkpt lat="43.94688" lon="5.97624">
        <ele>559.496</ele>
        <time>2020-09-02T14:41:41Z</time>
      </trkpt>
      <trkpt lat="43.94681" lon="5.97627">
        <ele>558.722</ele>
        <time>2020-09-02T14:41:42Z</time>
      </trkpt>
      <trkpt lat="43.94674" lon="5.97633">
        <ele>557.975</ele>
        <time>2020-09-02T14:41:43Z</time>
      </trkpt>
      <trkpt lat="43.94668" lon="5.9764">
        <ele>557.287</ele>
        <time>2020-09-02T14:41:44Z</time>
      </trkpt>
      <trkpt lat="43.94664" lon="5.97648">
        <ele>555.942</ele>
        <time>2020-09-02T14:41:45Z</time>
      </trkpt>
      <trkpt lat="43.94657" lon="5.97658">
        <ele>555.726</ele>
        <time>2020-09-02T14:41:46Z</time>
      </trkpt>
      <trkpt lat="43.94651" lon="5.97667">
        <ele>555.108</ele>
        <time>2020-09-02T14:41:47Z</time>
      </trkpt>
      <trkpt lat="43.94643" lon="5.97678">
        <ele>554.016</ele>
        <time>2020-09-02T14:41:48Z</time>
      </trkpt>
      <trkpt lat="43.94633" lon="5.97688">
        <ele>552.575</ele>
        <time>2020-09-02T14:41:49Z</time>
      </trkpt>
      <trkpt lat="43.94623" lon="5.97697">
        <ele>550.215</ele>
        <time>2020-09-02T14:41:50Z</time>
      </trkpt>
      <trkpt lat="43.94613" lon="5.97706">
        <ele>548.582</ele>
        <time>2020-09-02T14:41:51Z</time>
      </trkpt>
      <trkpt lat="43.94602" lon="5.97714">
        <ele>546.693</ele>
        <time>2020-09-02T14:41:52Z</time>
      </trkpt>
      <trkpt lat="43.9459" lon="5.97722">
        <ele>544.831</ele>
        <time>2020-09-02T14:41:53Z</time>
      </trkpt>
      <trkpt lat="43.9458" lon="5.97729">
        <ele>542.927</ele>
        <time>2020-09-02T14:41:54Z</time>
      </trkpt>
      <trkpt lat="43.94568" lon="5.97733">
        <ele>543.07</ele>
        <time>2020-09-02T14:41:55Z</time>
      </trkpt>
      <trkpt lat="43.94558" lon="5.97738">
        <ele>541.861</ele>
        <time>2020-09-02T14:41:56Z</time>
      </trkpt>
      <trkpt lat="43.94547" lon="5.97745">
        <ele>540.521</ele>
        <time>2020-09-02T14:41:57Z</time>
      </trkpt>
      <trkpt lat="43.94536" lon="5.97752">
        <ele>539.513</ele>
        <time>2020-09-02T14:41:58Z</time>
      </trkpt>
      <trkpt lat="43.94526" lon="5.97761">
        <ele>538.308</ele>
        <time>2020-09-02T14:41:59Z</time>
      </trkpt>
      <trkpt lat="43.94517" lon="5.97769">
        <ele>537.114</ele>
        <time>2020-09-02T14:42:00Z</time>
      </trkpt>
      <trkpt lat="43.94508" lon="5.97776">
        <ele>536.353</ele>
        <time>2020-09-02T14:42:01Z</time>
      </trkpt>
      <trkpt lat="43.94498" lon="5.9778">
        <ele>535.693</ele>
        <time>2020-09-02T14:42:02Z</time>
      </trkpt>
      <trkpt lat="43.94488" lon="5.97784">
        <ele>535.03</ele>
        <time>2020-09-02T14:42:03Z</time>
      </trkpt>
      <trkpt lat="43.94479" lon="5.97789">
        <ele>533.661</ele>
        <time>2020-09-02T14:42:04Z</time>
      </trkpt>
      <trkpt lat="43.94468" lon="5.9779">
        <ele>533.449</ele>
        <time>2020-09-02T14:42:05Z</time>
      </trkpt>
      <trkpt lat="43.94455" lon="5.97791">
        <ele>533.045</ele>
        <time>2020-09-02T14:42:06Z</time>
      </trkpt>
      <trkpt lat="43.94442" lon="5.97789">
        <ele>532.088</ele>
        <time>2020-09-02T14:42:07Z</time>
      </trkpt>
      <trkpt lat="43.94431" lon="5.97789">
        <ele>531.477</ele>
        <time>2020-09-02T14:42:08Z</time>
      </trkpt>
      <trkpt lat="43.94419" lon="5.9779">
        <ele>530.661</ele>
        <time>2020-09-02T14:42:09Z</time>
      </trkpt>
      <trkpt lat="43.94408" lon="5.9779">
        <ele>530.027</ele>
        <time>2020-09-02T14:42:10Z</time>
      </trkpt>
      <trkpt lat="43.94397" lon="5.97794">
        <ele>528.308</ele>
        <time>2020-09-02T14:42:11Z</time>
      </trkpt>
      <trkpt lat="43.94384" lon="5.97798">
        <ele>526.545</ele>
        <time>2020-09-02T14:42:12Z</time>
      </trkpt>
      <trkpt lat="43.94372" lon="5.97801">
        <ele>525.274</ele>
        <time>2020-09-02T14:42:13Z</time>
      </trkpt>
      <trkpt lat="43.94358" lon="5.97803">
        <ele>524.284</ele>
        <time>2020-09-02T14:42:14Z</time>
      </trkpt>
      <trkpt lat="43.94345" lon="5.97804">
        <ele>523.161</ele>
        <time>2020-09-02T14:42:15Z</time>
      </trkpt>
      <trkpt lat="43.94334" lon="5.97807">
        <ele>521.832</ele>
        <time>2020-09-02T14:42:16Z</time>
      </trkpt>
      <trkpt lat="43.94322" lon="5.97808">
        <ele>521.45</ele>
        <time>2020-09-02T14:42:17Z</time>
      </trkpt>
      <trkpt lat="43.9431" lon="5.97809">
        <ele>521.186</ele>
        <time>2020-09-02T14:42:18Z</time>
      </trkpt>
      <trkpt lat="43.94298" lon="5.97808">
        <ele>521.149</ele>
        <time>2020-09-02T14:42:19Z</time>
      </trkpt>
      <trkpt lat="43.94286" lon="5.97806">
        <ele>520.322</ele>
        <time>2020-09-02T14:42:20Z</time>
      </trkpt>
      <trkpt lat="43.94276" lon="5.97805">
        <ele>519.062</ele>
        <time>2020-09-02T14:42:21Z</time>
      </trkpt>
      <trkpt lat="43.94265" lon="5.97804">
        <ele>518.408</ele>
        <time>2020-09-02T14:42:22Z</time>
      </trkpt>
      <trkpt lat="43.94254" lon="5.97803">
        <ele>518.008</ele>
        <time>2020-09-02T14:42:23Z</time>
      </trkpt>
      <trkpt lat="43.94244" lon="5.97803">
        <ele>517.13</ele>
        <time>2020-09-02T14:42:24Z</time>
      </trkpt>
      <trkpt lat="43.94234" lon="5.97802">
        <ele>516.429</ele>
        <time>2020-09-02T14:42:25Z</time>
      </trkpt>
      <trkpt lat="43.94223" lon="5.97801">
        <ele>515.129</ele>
        <time>2020-09-02T14:42:26Z</time>
      </trkpt>
      <trkpt lat="43.94215" lon="5.97804">
        <ele>514.146</ele>
        <time>2020-09-02T14:42:27Z</time>
      </trkpt>
      <trkpt lat="43.94208" lon="5.97808">
        <ele>513.157</ele>
        <time>2020-09-02T14:42:28Z</time>
      </trkpt>
      <trkpt lat="43.942" lon="5.9781">
        <ele>512.435</ele>
        <time>2020-09-02T14:42:29Z</time>
      </trkpt>
      <trkpt lat="43.94192" lon="5.97812">
        <ele>511.541</ele>
        <time>2020-09-02T14:42:30Z</time>
      </trkpt>
      <trkpt lat="43.94185" lon="5.97816">
        <ele>510.754</ele>
        <time>2020-09-02T14:42:31Z</time>
      </trkpt>
      <trkpt lat="43.94178" lon="5.9782">
        <ele>510.337</ele>
        <time>2020-09-02T14:42:32Z</time>
      </trkpt>
      <trkpt lat="43.94172" lon="5.97823">
        <ele>509.849</ele>
        <time>2020-09-02T14:42:33Z</time>
      </trkpt>
      <trkpt lat="43.94165" lon="5.97826">
        <ele>509.713</ele>
        <time>2020-09-02T14:42:34Z</time>
      </trkpt>
      <trkpt lat="43.94158" lon="5.9783">
        <ele>508.508</ele>
        <time>2020-09-02T14:42:35Z</time>
      </trkpt>
      <trkpt lat="43.94152" lon="5.97833">
        <ele>507.781</ele>
        <time>2020-09-02T14:42:36Z</time>
      </trkpt>
      <trkpt lat="43.94148" lon="5.97836">
        <ele>507.28</ele>
        <time>2020-09-02T14:42:37Z</time>
      </trkpt>
      <trkpt lat="43.94143" lon="5.9784">
        <ele>506.77</ele>
        <time>2020-09-02T14:42:38Z</time>
      </trkpt>
      <trkpt lat="43.94137" lon="5.97844">
        <ele>506.237</ele>
        <time>2020-09-02T14:42:39Z</time>
      </trkpt>
      <trkpt lat="43.9413" lon="5.97848">
        <ele>505.818</ele>
        <time>2020-09-02T14:42:40Z</time>
      </trkpt>
      <trkpt lat="43.94122" lon="5.97852">
        <ele>505.326</ele>
        <time>2020-09-02T14:42:41Z</time>
      </trkpt>
      <trkpt lat="43.94114" lon="5.97856">
        <ele>504.972</ele>
        <time>2020-09-02T14:42:42Z</time>
      </trkpt>
      <trkpt lat="43.94108" lon="5.9786">
        <ele>504.075</ele>
        <time>2020-09-02T14:42:43Z</time>
      </trkpt>
      <trkpt lat="43.94101" lon="5.97864">
        <ele>503.194</ele>
        <time>2020-09-02T14:42:44Z</time>
      </trkpt>
      <trkpt lat="43.94093" lon="5.97868">
        <ele>502.857</ele>
        <time>2020-09-02T14:42:45Z</time>
      </trkpt>
      <trkpt lat="43.94087" lon="5.97873">
        <ele>502.222</ele>
        <time>2020-09-02T14:42:46Z</time>
      </trkpt>
      <trkpt lat="43.94079" lon="5.97877">
        <ele>501.708</ele>
        <time>2020-09-02T14:42:47Z</time>
      </trkpt>
      <trkpt lat="43.94071" lon="5.97882">
        <ele>501.187</ele>
        <time>2020-09-02T14:42:48Z</time>
      </trkpt>
      <trkpt lat="43.94064" lon="5.97881">
        <ele>499.596</ele>
        <time>2020-09-02T14:42:49Z</time>
      </trkpt>
      <trkpt lat="43.94058" lon="5.97885">
        <ele>498.816</ele>
        <time>2020-09-02T14:42:50Z</time>
      </trkpt>
      <trkpt lat="43.94051" lon="5.97887">
        <ele>498.953</ele>
        <time>2020-09-02T14:42:51Z</time>
      </trkpt>
      <trkpt lat="43.94047" lon="5.97892">
        <ele>497.054</ele>
        <time>2020-09-02T14:42:52Z</time>
      </trkpt>
      <trkpt lat="43.94041" lon="5.97895">
        <ele>496.972</ele>
        <time>2020-09-02T14:42:53Z</time>
      </trkpt>
      <trkpt lat="43.94034" lon="5.97899">
        <ele>496.638</ele>
        <time>2020-09-02T14:42:54Z</time>
      </trkpt>
      <trkpt lat="43.94028" lon="5.97904">
        <ele>496.231</ele>
        <time>2020-09-02T14:42:55Z</time>
      </trkpt>
      <trkpt lat="43.94023" lon="5.97908">
        <ele>495.673</ele>
        <time>2020-09-02T14:42:56Z</time>
      </trkpt>
      <trkpt lat="43.94017" lon="5.97911">
        <ele>495.585</ele>
        <time>2020-09-02T14:42:57Z</time>
      </trkpt>
      <trkpt lat="43.94012" lon="5.97917">
        <ele>494.813</ele>
        <time>2020-09-02T14:42:58Z</time>
      </trkpt>
      <trkpt lat="43.94007" lon="5.9792">
        <ele>494.008</ele>
        <time>2020-09-02T14:42:59Z</time>
      </trkpt>
      <trkpt lat="43.94002" lon="5.97924">
        <ele>493.275</ele>
        <time>2020-09-02T14:43:00Z</time>
      </trkpt>
      <trkpt lat="43.93997" lon="5.97927">
        <ele>492.944</ele>
        <time>2020-09-02T14:43:01Z</time>
      </trkpt>
      <trkpt lat="43.93991" lon="5.97931">
        <ele>492.864</ele>
        <time>2020-09-02T14:43:02Z</time>
      </trkpt>
      <trkpt lat="43.93986" lon="5.97933">
        <ele>492.231</ele>
        <time>2020-09-02T14:43:03Z</time>
      </trkpt>
      <trkpt lat="43.93981" lon="5.97938">
        <ele>491.532</ele>
        <time>2020-09-02T14:43:04Z</time>
      </trkpt>
      <trkpt lat="43.93974" lon="5.97939">
        <ele>490.99</ele>
        <time>2020-09-02T14:43:05Z</time>
      </trkpt>
      <trkpt lat="43.93968" lon="5.97942">
        <ele>490.666</ele>
        <time>2020-09-02T14:43:06Z</time>
      </trkpt>
      <trkpt lat="43.93962" lon="5.97944">
        <ele>489.569</ele>
        <time>2020-09-02T14:43:07Z</time>
      </trkpt>
      <trkpt lat="43.93957" lon="5.97946">
        <ele>488.436</ele>
        <time>2020-09-02T14:43:08Z</time>
      </trkpt>
      <trkpt lat="43.93951" lon="5.97948">
        <ele>487.617</ele>
        <time>2020-09-02T14:43:09Z</time>
      </trkpt>
      <trkpt lat="43.93944" lon="5.97947">
        <ele>486.918</ele>
        <time>2020-09-02T14:43:10Z</time>
      </trkpt>
      <trkpt lat="43.93937" lon="5.97948">
        <ele>485.708</ele>
        <time>2020-09-02T14:43:11Z</time>
      </trkpt>
      <trkpt lat="43.93932" lon="5.97948">
        <ele>484.621</ele>
        <time>2020-09-02T14:43:12Z</time>
      </trkpt>
      <trkpt lat="43.93927" lon="5.97952">
        <ele>483.46</ele>
        <time>2020-09-02T14:43:13Z</time>
      </trkpt>
      <trkpt lat="43.9392" lon="5.97953">
        <ele>482.76</ele>
        <time>2020-09-02T14:43:14Z</time>
      </trkpt>
      <trkpt lat="43.93914" lon="5.97955">
        <ele>481.477</ele>
        <time>2020-09-02T14:43:15Z</time>
      </trkpt>
      <trkpt lat="43.93907" lon="5.97957">
        <ele>480.838</ele>
        <time>2020-09-02T14:43:16Z</time>
      </trkpt>
      <trkpt lat="43.939" lon="5.97959">
        <ele>480.526</ele>
        <time>2020-09-02T14:43:17Z</time>
      </trkpt>
      <trkpt lat="43.93893" lon="5.97961">
        <ele>480.382</ele>
        <time>2020-09-02T14:43:18Z</time>
      </trkpt>
      <trkpt lat="43.93887" lon="5.97963">
        <ele>479.725</ele>
        <time>2020-09-02T14:43:19Z</time>
      </trkpt>
      <trkpt lat="43.93882" lon="5.97965">
        <ele>478.887</ele>
        <time>2020-09-02T14:43:20Z</time>
      </trkpt>
      <trkpt lat="43.93876" lon="5.97966">
        <ele>477.842</ele>
        <time>2020-09-02T14:43:21Z</time>
      </trkpt>
      <trkpt lat="43.93869" lon="5.97967">
        <ele>476.626</ele>
        <time>2020-09-02T14:43:22Z</time>
      </trkpt>
      <trkpt lat="43.93863" lon="5.97968">
        <ele>476.408</ele>
        <time>2020-09-02T14:43:23Z</time>
      </trkpt>
      <trkpt lat="43.93858" lon="5.9797">
        <ele>475.386</ele>
        <time>2020-09-02T14:43:24Z</time>
      </trkpt>
      <trkpt lat="43.93852" lon="5.97973">
        <ele>474.535</ele>
        <time>2020-09-02T14:43:25Z</time>
      </trkpt>
      <trkpt lat="43.93845" lon="5.97976">
        <ele>473.925</ele>
        <time>2020-09-02T14:43:26Z</time>
      </trkpt>
      <trkpt lat="43.93839" lon="5.97978">
        <ele>473.112</ele>
        <time>2020-09-02T14:43:27Z</time>
      </trkpt>
      <trkpt lat="43.93833" lon="5.97981">
        <ele>471.693</ele>
        <time>2020-09-02T14:43:28Z</time>
      </trkpt>
      <trkpt lat="43.93826" lon="5.97984">
        <ele>471.241</ele>
        <time>2020-09-02T14:43:29Z</time>
      </trkpt>
      <trkpt lat="43.9382" lon="5.97987">
        <ele>470.697</ele>
        <time>2020-09-02T14:43:30Z</time>
      </trkpt>
      <trkpt lat="43.93813" lon="5.97988">
        <ele>470.84</ele>
        <time>2020-09-02T14:43:31Z</time>
      </trkpt>
      <trkpt lat="43.93809" lon="5.9799">
        <ele>470.628</ele>
        <time>2020-09-02T14:43:32Z</time>
      </trkpt>
      <trkpt lat="43.93804" lon="5.97993">
        <ele>469.589</ele>
        <time>2020-09-02T14:43:34Z</time>
      </trkpt>
      <trkpt lat="43.93799" lon="5.97996">
        <ele>469.617</ele>
        <time>2020-09-02T14:43:36Z</time>
      </trkpt>
      <trkpt lat="43.93793" lon="5.97999">
        <ele>469.308</ele>
        <time>2020-09-02T14:43:38Z</time>
      </trkpt>
      <trkpt lat="43.93785" lon="5.98002">
        <ele>469.12</ele>
        <time>2020-09-02T14:43:40Z</time>
      </trkpt>
      <trkpt lat="43.93778" lon="5.98005">
        <ele>468.939</ele>
        <time>2020-09-02T14:43:42Z</time>
      </trkpt>
      <trkpt lat="43.9377" lon="5.9801">
        <ele>469.289</ele>
        <time>2020-09-02T14:43:44Z</time>
      </trkpt>
      <trkpt lat="43.93765" lon="5.98013">
        <ele>469.246</ele>
        <time>2020-09-02T14:43:45Z</time>
      </trkpt>
      <trkpt lat="43.93757" lon="5.98015">
        <ele>468.927</ele>
        <time>2020-09-02T14:43:46Z</time>
      </trkpt>
      <trkpt lat="43.93749" lon="5.98019">
        <ele>468.565</ele>
        <time>2020-09-02T14:43:47Z</time>
      </trkpt>
      <trkpt lat="43.93741" lon="5.98022">
        <ele>468.341</ele>
        <time>2020-09-02T14:43:48Z</time>
      </trkpt>
      <trkpt lat="43.93733" lon="5.98026">
        <ele>468.054</ele>
        <time>2020-09-02T14:43:49Z</time>
      </trkpt>
      <trkpt lat="43.93726" lon="5.98029">
        <ele>467.931</ele>
        <time>2020-09-02T14:43:50Z</time>
      </trkpt>
      <trkpt lat="43.93719" lon="5.98033">
        <ele>467.461</ele>
        <time>2020-09-02T14:43:51Z</time>
      </trkpt>
      <trkpt lat="43.93713" lon="5.98039">
        <ele>465.807</ele>
        <time>2020-09-02T14:43:52Z</time>
      </trkpt>
      <trkpt lat="43.93707" lon="5.98042">
        <ele>465.208</ele>
        <time>2020-09-02T14:43:53Z</time>
      </trkpt>
      <trkpt lat="43.93701" lon="5.98046">
        <ele>465.031</ele>
        <time>2020-09-02T14:43:54Z</time>
      </trkpt>
      <trkpt lat="43.93697" lon="5.98051">
        <ele>464.58</ele>
        <time>2020-09-02T14:43:55Z</time>
      </trkpt>
      <trkpt lat="43.93693" lon="5.98056">
        <ele>464.68</ele>
        <time>2020-09-02T14:43:56Z</time>
      </trkpt>
      <trkpt lat="43.93692" lon="5.98064">
        <ele>464.287</ele>
        <time>2020-09-02T14:43:57Z</time>
      </trkpt>
      <trkpt lat="43.93692" lon="5.98072">
        <ele>464.058</ele>
        <time>2020-09-02T14:43:58Z</time>
      </trkpt>
      <trkpt lat="43.93695" lon="5.98081">
        <ele>463.736</ele>
        <time>2020-09-02T14:43:59Z</time>
      </trkpt>
      <trkpt lat="43.93698" lon="5.98088">
        <ele>463.582</ele>
        <time>2020-09-02T14:44:00Z</time>
      </trkpt>
      <trkpt lat="43.93702" lon="5.98097">
        <ele>463.775</ele>
        <time>2020-09-02T14:44:01Z</time>
      </trkpt>
      <trkpt lat="43.93706" lon="5.98106">
        <ele>464.116</ele>
        <time>2020-09-02T14:44:02Z</time>
      </trkpt>
      <trkpt lat="43.9371" lon="5.98117">
        <ele>463.976</ele>
        <time>2020-09-02T14:44:03Z</time>
      </trkpt>
      <trkpt lat="43.93715" lon="5.98127">
        <ele>464.013</ele>
        <time>2020-09-02T14:44:04Z</time>
      </trkpt>
      <trkpt lat="43.93718" lon="5.98137">
        <ele>464.508</ele>
        <time>2020-09-02T14:44:05Z</time>
      </trkpt>
      <trkpt lat="43.93722" lon="5.98148">
        <ele>464.979</ele>
        <time>2020-09-02T14:44:06Z</time>
      </trkpt>
      <trkpt lat="43.93726" lon="5.98156">
        <ele>465.078</ele>
        <time>2020-09-02T14:44:07Z</time>
      </trkpt>
      <trkpt lat="43.93729" lon="5.98164">
        <ele>464.918</ele>
        <time>2020-09-02T14:44:08Z</time>
      </trkpt>
      <trkpt lat="43.93732" lon="5.98171">
        <ele>465.295</ele>
        <time>2020-09-02T14:44:09Z</time>
      </trkpt>
      <trkpt lat="43.93735" lon="5.98178">
        <ele>465.276</ele>
        <time>2020-09-02T14:44:10Z</time>
      </trkpt>
      <trkpt lat="43.93737" lon="5.98183">
        <ele>465.044</ele>
        <time>2020-09-02T14:44:11Z</time>
      </trkpt>
      <trkpt lat="43.93739" lon="5.9819">
        <ele>465.22</ele>
        <time>2020-09-02T14:44:12Z</time>
      </trkpt>
      <trkpt lat="43.93744" lon="5.98199">
        <ele>465.553</ele>
        <time>2020-09-02T14:44:14Z</time>
      </trkpt>
      <trkpt lat="43.93748" lon="5.98212">
        <ele>466.427</ele>
        <time>2020-09-02T14:44:16Z</time>
      </trkpt>
      <trkpt lat="43.93752" lon="5.98221">
        <ele>466.768</ele>
        <time>2020-09-02T14:44:17Z</time>
      </trkpt>
      <trkpt lat="43.93756" lon="5.98231">
        <ele>466.914</ele>
        <time>2020-09-02T14:44:18Z</time>
      </trkpt>
      <trkpt lat="43.9376" lon="5.98241">
        <ele>466.908</ele>
        <time>2020-09-02T14:44:19Z</time>
      </trkpt>
      <trkpt lat="43.93765" lon="5.98252">
        <ele>467.19</ele>
        <time>2020-09-02T14:44:20Z</time>
      </trkpt>
      <trkpt lat="43.93769" lon="5.98264">
        <ele>467.049</ele>
        <time>2020-09-02T14:44:21Z</time>
      </trkpt>
      <trkpt lat="43.93774" lon="5.98277">
        <ele>467.159</ele>
        <time>2020-09-02T14:44:22Z</time>
      </trkpt>
      <trkpt lat="43.93778" lon="5.9829">
        <ele>467.586</ele>
        <time>2020-09-02T14:44:23Z</time>
      </trkpt>
      <trkpt lat="43.93783" lon="5.98303">
        <ele>467.827</ele>
        <time>2020-09-02T14:44:24Z</time>
      </trkpt>
      <trkpt lat="43.93787" lon="5.98315">
        <ele>467.955</ele>
        <time>2020-09-02T14:44:25Z</time>
      </trkpt>
      <trkpt lat="43.93792" lon="5.98325">
        <ele>468.151</ele>
        <time>2020-09-02T14:44:26Z</time>
      </trkpt>
      <trkpt lat="43.93796" lon="5.98334">
        <ele>467.984</ele>
        <time>2020-09-02T14:44:27Z</time>
      </trkpt>
      <trkpt lat="43.938" lon="5.98344">
        <ele>468.192</ele>
        <time>2020-09-02T14:44:28Z</time>
      </trkpt>
      <trkpt lat="43.93804" lon="5.98356">
        <ele>468.173</ele>
        <time>2020-09-02T14:44:29Z</time>
      </trkpt>
      <trkpt lat="43.93811" lon="5.98367">
        <ele>468.42</ele>
        <time>2020-09-02T14:44:30Z</time>
      </trkpt>
      <trkpt lat="43.93817" lon="5.98379">
        <ele>468.408</ele>
        <time>2020-09-02T14:44:31Z</time>
      </trkpt>
      <trkpt lat="43.93825" lon="5.98391">
        <ele>468.617</ele>
        <time>2020-09-02T14:44:32Z</time>
      </trkpt>
      <trkpt lat="43.93833" lon="5.98401">
        <ele>469.096</ele>
        <time>2020-09-02T14:44:33Z</time>
      </trkpt>
      <trkpt lat="43.9384" lon="5.98411">
        <ele>469.486</ele>
        <time>2020-09-02T14:44:34Z</time>
      </trkpt>
      <trkpt lat="43.93848" lon="5.9842">
        <ele>469.043</ele>
        <time>2020-09-02T14:44:35Z</time>
      </trkpt>
      <trkpt lat="43.93857" lon="5.9843">
        <ele>469.044</ele>
        <time>2020-09-02T14:44:36Z</time>
      </trkpt>
      <trkpt lat="43.93866" lon="5.98438">
        <ele>468.922</ele>
        <time>2020-09-02T14:44:37Z</time>
      </trkpt>
      <trkpt lat="43.93876" lon="5.98446">
        <ele>468.638</ele>
        <time>2020-09-02T14:44:38Z</time>
      </trkpt>
      <trkpt lat="43.93886" lon="5.98455">
        <ele>468.781</ele>
        <time>2020-09-02T14:44:39Z</time>
      </trkpt>
      <trkpt lat="43.93895" lon="5.98463">
        <ele>468.721</ele>
        <time>2020-09-02T14:44:40Z</time>
      </trkpt>
      <trkpt lat="43.93903" lon="5.98471">
        <ele>468.841</ele>
        <time>2020-09-02T14:44:41Z</time>
      </trkpt>
      <trkpt lat="43.93911" lon="5.98478">
        <ele>468.705</ele>
        <time>2020-09-02T14:44:42Z</time>
      </trkpt>
      <trkpt lat="43.93917" lon="5.98485">
        <ele>468.908</ele>
        <time>2020-09-02T14:44:43Z</time>
      </trkpt>
      <trkpt lat="43.93923" lon="5.98492">
        <ele>468.98</ele>
        <time>2020-09-02T14:44:44Z</time>
      </trkpt>
      <trkpt lat="43.93927" lon="5.98498">
        <ele>468.939</ele>
        <time>2020-09-02T14:44:45Z</time>
      </trkpt>
      <trkpt lat="43.93931" lon="5.98505">
        <ele>469.049</ele>
        <time>2020-09-02T14:44:47Z</time>
      </trkpt>
      <trkpt lat="43.93932" lon="5.98512">
        <ele>475.036</ele>
        <time>2020-09-02T14:46:04Z</time>
      </trkpt>
      <trkpt lat="43.93937" lon="5.98509">
        <ele>474.037</ele>
        <time>2020-09-02T14:46:09Z</time>
      </trkpt>
      <trkpt lat="43.93936" lon="5.98498">
        <ele>473.375</ele>
        <time>2020-09-02T14:46:11Z</time>
      </trkpt>
      <trkpt lat="43.93932" lon="5.98493">
        <ele>473.141</ele>
        <time>2020-09-02T14:46:12Z</time>
      </trkpt>
      <trkpt lat="43.93927" lon="5.98487">
        <ele>472.834</ele>
        <time>2020-09-02T14:46:13Z</time>
      </trkpt>
      <trkpt lat="43.9392" lon="5.98481">
        <ele>472.463</ele>
        <time>2020-09-02T14:46:14Z</time>
      </trkpt>
      <trkpt lat="43.93914" lon="5.98474">
        <ele>472.444</ele>
        <time>2020-09-02T14:46:15Z</time>
      </trkpt>
      <trkpt lat="43.93906" lon="5.98468">
        <ele>472.418</ele>
        <time>2020-09-02T14:46:16Z</time>
      </trkpt>
      <trkpt lat="43.93899" lon="5.98462">
        <ele>472.008</ele>
        <time>2020-09-02T14:46:17Z</time>
      </trkpt>
      <trkpt lat="43.93893" lon="5.98456">
        <ele>471.764</ele>
        <time>2020-09-02T14:46:18Z</time>
      </trkpt>
      <trkpt lat="43.93887" lon="5.98452">
        <ele>471.933</ele>
        <time>2020-09-02T14:46:19Z</time>
      </trkpt>
      <trkpt lat="43.93882" lon="5.98448">
        <ele>471.773</ele>
        <time>2020-09-02T14:46:20Z</time>
      </trkpt>
      <trkpt lat="43.93875" lon="5.9845">
        <ele>471.56</ele>
        <time>2020-09-02T14:46:22Z</time>
      </trkpt>
      <trkpt lat="43.93871" lon="5.9846">
        <ele>471.081</ele>
        <time>2020-09-02T14:46:24Z</time>
      </trkpt>
      <trkpt lat="43.93873" lon="5.98467">
        <ele>471.159</ele>
        <time>2020-09-02T14:46:25Z</time>
      </trkpt>
      <trkpt lat="43.93878" lon="5.98481">
        <ele>471.515</ele>
        <time>2020-09-02T14:46:27Z</time>
      </trkpt>
      <trkpt lat="43.9388" lon="5.98489">
        <ele>471.528</ele>
        <time>2020-09-02T14:46:28Z</time>
      </trkpt>
      <trkpt lat="43.93881" lon="5.98499">
        <ele>471.989</ele>
        <time>2020-09-02T14:46:29Z</time>
      </trkpt>
      <trkpt lat="43.93881" lon="5.98508">
        <ele>472.206</ele>
        <time>2020-09-02T14:46:30Z</time>
      </trkpt>
      <trkpt lat="43.93879" lon="5.98517">
        <ele>471.426</ele>
        <time>2020-09-02T14:46:31Z</time>
      </trkpt>
      <trkpt lat="43.9388" lon="5.98527">
        <ele>471.108</ele>
        <time>2020-09-02T14:46:32Z</time>
      </trkpt>
      <trkpt lat="43.93881" lon="5.98536">
        <ele>471.036</ele>
        <time>2020-09-02T14:46:33Z</time>
      </trkpt>
      <trkpt lat="43.93885" lon="5.98546">
        <ele>471.475</ele>
        <time>2020-09-02T14:46:34Z</time>
      </trkpt>
      <trkpt lat="43.9389" lon="5.98557">
        <ele>470.875</ele>
        <time>2020-09-02T14:46:35Z</time>
      </trkpt>
      <trkpt lat="43.93894" lon="5.98569">
        <ele>471.252</ele>
        <time>2020-09-02T14:46:36Z</time>
      </trkpt>
      <trkpt lat="43.93899" lon="5.98582">
        <ele>471.333</ele>
        <time>2020-09-02T14:46:37Z</time>
      </trkpt>
      <trkpt lat="43.939" lon="5.98594">
        <ele>471.721</ele>
        <time>2020-09-02T14:46:38Z</time>
      </trkpt>
      <trkpt lat="43.93901" lon="5.98606">
        <ele>471.427</ele>
        <time>2020-09-02T14:46:39Z</time>
      </trkpt>
      <trkpt lat="43.93902" lon="5.98617">
        <ele>471.64</ele>
        <time>2020-09-02T14:46:40Z</time>
      </trkpt>
      <trkpt lat="43.93902" lon="5.98626">
        <ele>471.829</ele>
        <time>2020-09-02T14:46:41Z</time>
      </trkpt>
      <trkpt lat="43.93902" lon="5.98635">
        <ele>472.1</ele>
        <time>2020-09-02T14:46:42Z</time>
      </trkpt>
      <trkpt lat="43.93902" lon="5.98642">
        <ele>472.32</ele>
        <time>2020-09-02T14:46:43Z</time>
      </trkpt>
      <trkpt lat="43.93901" lon="5.98649">
        <ele>471.508</ele>
        <time>2020-09-02T14:46:45Z</time>
      </trkpt>
      <trkpt lat="43.93905" lon="5.98652">
        <ele>475.21</ele>
        <time>2020-09-02T14:47:42Z</time>
      </trkpt>
      <trkpt lat="43.93898" lon="5.9865">
        <ele>471.049</ele>
        <time>2020-09-02T14:48:58Z</time>
      </trkpt>
      <trkpt lat="43.939" lon="5.98657">
        <ele>471.459</ele>
        <time>2020-09-02T14:50:36Z</time>
      </trkpt>
      <trkpt lat="43.93895" lon="5.98659">
        <ele>472.096</ele>
        <time>2020-09-02T14:51:10Z</time>
      </trkpt>
      <trkpt lat="43.93888" lon="5.98664">
        <ele>472.367</ele>
        <time>2020-09-02T14:51:12Z</time>
      </trkpt>
      <trkpt lat="43.9388" lon="5.98667">
        <ele>472.965</ele>
        <time>2020-09-02T14:51:14Z</time>
      </trkpt>
      <trkpt lat="43.93873" lon="5.98671">
        <ele>473.761</ele>
        <time>2020-09-02T14:51:16Z</time>
      </trkpt>
      <trkpt lat="43.93867" lon="5.98679">
        <ele>474.074</ele>
        <time>2020-09-02T14:51:18Z</time>
      </trkpt>
      <trkpt lat="43.93862" lon="5.98687">
        <ele>475.023</ele>
        <time>2020-09-02T14:51:20Z</time>
      </trkpt>
      <trkpt lat="43.93857" lon="5.98695">
        <ele>475.683</ele>
        <time>2020-09-02T14:51:22Z</time>
      </trkpt>
      <trkpt lat="43.93853" lon="5.98704">
        <ele>476.311</ele>
        <time>2020-09-02T14:51:24Z</time>
      </trkpt>
      <trkpt lat="43.93847" lon="5.98713">
        <ele>477.108</ele>
        <time>2020-09-02T14:51:26Z</time>
      </trkpt>
      <trkpt lat="43.93842" lon="5.98726">
        <ele>478.26</ele>
        <time>2020-09-02T14:51:28Z</time>
      </trkpt>
      <trkpt lat="43.93839" lon="5.98732">
        <ele>478.819</ele>
        <time>2020-09-02T14:51:29Z</time>
      </trkpt>
      <trkpt lat="43.93835" lon="5.98735">
        <ele>479.499</ele>
        <time>2020-09-02T14:51:30Z</time>
      </trkpt>
      <trkpt lat="43.9383" lon="5.98737">
        <ele>480.136</ele>
        <time>2020-09-02T14:51:31Z</time>
      </trkpt>
      <trkpt lat="43.93825" lon="5.98739">
        <ele>480.637</ele>
        <time>2020-09-02T14:51:32Z</time>
      </trkpt>
      <trkpt lat="43.93819" lon="5.98742">
        <ele>480.945</ele>
        <time>2020-09-02T14:51:33Z</time>
      </trkpt>
      <trkpt lat="43.93814" lon="5.98744">
        <ele>481.791</ele>
        <time>2020-09-02T14:51:34Z</time>
      </trkpt>
      <trkpt lat="43.93809" lon="5.98748">
        <ele>483.224</ele>
        <time>2020-09-02T14:51:35Z</time>
      </trkpt>
      <trkpt lat="43.93802" lon="5.9875">
        <ele>483.562</ele>
        <time>2020-09-02T14:51:36Z</time>
      </trkpt>
      <trkpt lat="43.93795" lon="5.98751">
        <ele>484.383</ele>
        <time>2020-09-02T14:51:37Z</time>
      </trkpt>
      <trkpt lat="43.93789" lon="5.9875">
        <ele>484.911</ele>
        <time>2020-09-02T14:51:38Z</time>
      </trkpt>
      <trkpt lat="43.93782" lon="5.9875">
        <ele>486.008</ele>
        <time>2020-09-02T14:51:39Z</time>
      </trkpt>
      <trkpt lat="43.93776" lon="5.9875">
        <ele>487.674</ele>
        <time>2020-09-02T14:51:40Z</time>
      </trkpt>
      <trkpt lat="43.93769" lon="5.98749">
        <ele>488.833</ele>
        <time>2020-09-02T14:51:41Z</time>
      </trkpt>
      <trkpt lat="43.93763" lon="5.98749">
        <ele>489.383</ele>
        <time>2020-09-02T14:51:42Z</time>
      </trkpt>
      <trkpt lat="43.93757" lon="5.98751">
        <ele>490.51</ele>
        <time>2020-09-02T14:51:43Z</time>
      </trkpt>
      <trkpt lat="43.93752" lon="5.98751">
        <ele>491.331</ele>
        <time>2020-09-02T14:51:44Z</time>
      </trkpt>
      <trkpt lat="43.93747" lon="5.98753">
        <ele>492.619</ele>
        <time>2020-09-02T14:51:45Z</time>
      </trkpt>
      <trkpt lat="43.93743" lon="5.98755">
        <ele>492.915</ele>
        <time>2020-09-02T14:51:46Z</time>
      </trkpt>
      <trkpt lat="43.93738" lon="5.98759">
        <ele>493.018</ele>
        <time>2020-09-02T14:51:47Z</time>
      </trkpt>
      <trkpt lat="43.93732" lon="5.98763">
        <ele>493.932</ele>
        <time>2020-09-02T14:51:48Z</time>
      </trkpt>
      <trkpt lat="43.93728" lon="5.98766">
        <ele>495.192</ele>
        <time>2020-09-02T14:51:49Z</time>
      </trkpt>
      <trkpt lat="43.93724" lon="5.98769">
        <ele>495.711</ele>
        <time>2020-09-02T14:51:50Z</time>
      </trkpt>
      <trkpt lat="43.93719" lon="5.98774">
        <ele>496.108</ele>
        <time>2020-09-02T14:51:51Z</time>
      </trkpt>
      <trkpt lat="43.93714" lon="5.98777">
        <ele>496.691</ele>
        <time>2020-09-02T14:51:52Z</time>
      </trkpt>
      <trkpt lat="43.9371" lon="5.98781">
        <ele>496.87</ele>
        <time>2020-09-02T14:51:53Z</time>
      </trkpt>
      <trkpt lat="43.93706" lon="5.98784">
        <ele>498.07</ele>
        <time>2020-09-02T14:51:54Z</time>
      </trkpt>
      <trkpt lat="43.93701" lon="5.98785">
        <ele>498.627</ele>
        <time>2020-09-02T14:51:55Z</time>
      </trkpt>
      <trkpt lat="43.93696" lon="5.98788">
        <ele>500.068</ele>
        <time>2020-09-02T14:51:56Z</time>
      </trkpt>
      <trkpt lat="43.9369" lon="5.98789">
        <ele>500.846</ele>
        <time>2020-09-02T14:51:57Z</time>
      </trkpt>
      <trkpt lat="43.93682" lon="5.98788">
        <ele>502.042</ele>
        <time>2020-09-02T14:51:58Z</time>
      </trkpt>
      <trkpt lat="43.93676" lon="5.98785">
        <ele>503.175</ele>
        <time>2020-09-02T14:51:59Z</time>
      </trkpt>
      <trkpt lat="43.9367" lon="5.98781">
        <ele>503.623</ele>
        <time>2020-09-02T14:52:00Z</time>
      </trkpt>
      <trkpt lat="43.93666" lon="5.98775">
        <ele>503.683</ele>
        <time>2020-09-02T14:52:01Z</time>
      </trkpt>
      <trkpt lat="43.93663" lon="5.98767">
        <ele>504.411</ele>
        <time>2020-09-02T14:52:02Z</time>
      </trkpt>
      <trkpt lat="43.93661" lon="5.98759">
        <ele>504.208</ele>
        <time>2020-09-02T14:52:03Z</time>
      </trkpt>
      <trkpt lat="43.93661" lon="5.98752">
        <ele>506.11</ele>
        <time>2020-09-02T14:52:04Z</time>
      </trkpt>
      <trkpt lat="43.93662" lon="5.98745">
        <ele>507.439</ele>
        <time>2020-09-02T14:52:05Z</time>
      </trkpt>
      <trkpt lat="43.93663" lon="5.98737">
        <ele>509.619</ele>
        <time>2020-09-02T14:52:06Z</time>
      </trkpt>
      <trkpt lat="43.93666" lon="5.98731">
        <ele>509.226</ele>
        <time>2020-09-02T14:52:07Z</time>
      </trkpt>
      <trkpt lat="43.93668" lon="5.98724">
        <ele>510.417</ele>
        <time>2020-09-02T14:52:08Z</time>
      </trkpt>
      <trkpt lat="43.93669" lon="5.98714">
        <ele>511.175</ele>
        <time>2020-09-02T14:52:09Z</time>
      </trkpt>
      <trkpt lat="43.93671" lon="5.98708">
        <ele>512.241</ele>
        <time>2020-09-02T14:52:10Z</time>
      </trkpt>
      <trkpt lat="43.93671" lon="5.98701">
        <ele>513.544</ele>
        <time>2020-09-02T14:52:11Z</time>
      </trkpt>
      <trkpt lat="43.93671" lon="5.98694">
        <ele>514.613</ele>
        <time>2020-09-02T14:52:12Z</time>
      </trkpt>
      <trkpt lat="43.93671" lon="5.98686">
        <ele>516.843</ele>
        <time>2020-09-02T14:52:13Z</time>
      </trkpt>
      <trkpt lat="43.9367" lon="5.98679">
        <ele>517.607</ele>
        <time>2020-09-02T14:52:14Z</time>
      </trkpt>
      <trkpt lat="43.93667" lon="5.98673">
        <ele>518.408</ele>
        <time>2020-09-02T14:52:15Z</time>
      </trkpt>
      <trkpt lat="43.93664" lon="5.98667">
        <ele>519.149</ele>
        <time>2020-09-02T14:52:16Z</time>
      </trkpt>
      <trkpt lat="43.93659" lon="5.98656">
        <ele>520.838</ele>
        <time>2020-09-02T14:52:18Z</time>
      </trkpt>
      <trkpt lat="43.93653" lon="5.9865">
        <ele>523.928</ele>
        <time>2020-09-02T14:52:21Z</time>
      </trkpt>
      <trkpt lat="43.93649" lon="5.98653">
        <ele>526.315</ele>
        <time>2020-09-02T14:52:23Z</time>
      </trkpt>
      <trkpt lat="43.93644" lon="5.9866">
        <ele>528.316</ele>
        <time>2020-09-02T14:52:25Z</time>
      </trkpt>
      <trkpt lat="43.93643" lon="5.9867">
        <ele>529.514</ele>
        <time>2020-09-02T14:52:27Z</time>
      </trkpt>
      <trkpt lat="43.9364" lon="5.98675">
        <ele>529.67</ele>
        <time>2020-09-02T14:52:28Z</time>
      </trkpt>
      <trkpt lat="43.93637" lon="5.98681">
        <ele>530.123</ele>
        <time>2020-09-02T14:52:29Z</time>
      </trkpt>
      <trkpt lat="43.93634" lon="5.98685">
        <ele>531.119</ele>
        <time>2020-09-02T14:52:30Z</time>
      </trkpt>
      <trkpt lat="43.93626" lon="5.98687">
        <ele>532.109</ele>
        <time>2020-09-02T14:52:31Z</time>
      </trkpt>
      <trkpt lat="43.93617" lon="5.98691">
        <ele>537.219</ele>
        <time>2020-09-02T14:52:33Z</time>
      </trkpt>
      <trkpt lat="43.93612" lon="5.98693">
        <ele>537.008</ele>
        <time>2020-09-02T14:52:34Z</time>
      </trkpt>
      <trkpt lat="43.93604" lon="5.98699">
        <ele>539.259</ele>
        <time>2020-09-02T14:52:36Z</time>
      </trkpt>
      <trkpt lat="43.93599" lon="5.98702">
        <ele>540.418</ele>
        <time>2020-09-02T14:52:37Z</time>
      </trkpt>
      <trkpt lat="43.93595" lon="5.98704">
        <ele>541.718</ele>
        <time>2020-09-02T14:52:38Z</time>
      </trkpt>
      <trkpt lat="43.9359" lon="5.98706">
        <ele>542.345</ele>
        <time>2020-09-02T14:52:39Z</time>
      </trkpt>
      <trkpt lat="43.93585" lon="5.98707">
        <ele>542.926</ele>
        <time>2020-09-02T14:52:40Z</time>
      </trkpt>
      <trkpt lat="43.93581" lon="5.98708">
        <ele>544.424</ele>
        <time>2020-09-02T14:52:41Z</time>
      </trkpt>
      <trkpt lat="43.93574" lon="5.98713">
        <ele>547.46</ele>
        <time>2020-09-02T14:52:43Z</time>
      </trkpt>
      <trkpt lat="43.93566" lon="5.98716">
        <ele>548.623</ele>
        <time>2020-09-02T14:52:45Z</time>
      </trkpt>
      <trkpt lat="43.93561" lon="5.98717">
        <ele>549.483</ele>
        <time>2020-09-02T14:52:46Z</time>
      </trkpt>
      <trkpt lat="43.93559" lon="5.98723">
        <ele>553.425</ele>
        <time>2020-09-02T14:53:24Z</time>
      </trkpt>
      <trkpt lat="43.93554" lon="5.98723">
        <ele>554.917</ele>
        <time>2020-09-02T14:53:28Z</time>
      </trkpt>
      <trkpt lat="43.93546" lon="5.98724">
        <ele>556.508</ele>
        <time>2020-09-02T14:53:30Z</time>
      </trkpt>
      <trkpt lat="43.93541" lon="5.98729">
        <ele>557.136</ele>
        <time>2020-09-02T14:53:31Z</time>
      </trkpt>
      <trkpt lat="43.93535" lon="5.9873">
        <ele>558.535</ele>
        <time>2020-09-02T14:53:32Z</time>
      </trkpt>
      <trkpt lat="43.93527" lon="5.98734">
        <ele>559.875</ele>
        <time>2020-09-02T14:53:34Z</time>
      </trkpt>
      <trkpt lat="43.93522" lon="5.98734">
        <ele>560.782</ele>
        <time>2020-09-02T14:53:36Z</time>
      </trkpt>
      <trkpt lat="43.93517" lon="5.98727">
        <ele>562.463</ele>
        <time>2020-09-02T14:53:38Z</time>
      </trkpt>
      <trkpt lat="43.93524" lon="5.98719">
        <ele>563.521</ele>
        <time>2020-09-02T14:53:40Z</time>
      </trkpt>
      <trkpt lat="43.93529" lon="5.98711">
        <ele>565.587</ele>
        <time>2020-09-02T14:53:42Z</time>
      </trkpt>
      <trkpt lat="43.93533" lon="5.98701">
        <ele>567.12</ele>
        <time>2020-09-02T14:53:44Z</time>
      </trkpt>
      <trkpt lat="43.93536" lon="5.98692">
        <ele>569.547</ele>
        <time>2020-09-02T14:53:46Z</time>
      </trkpt>
      <trkpt lat="43.9354" lon="5.98688">
        <ele>570.829</ele>
        <time>2020-09-02T14:53:47Z</time>
      </trkpt>
      <trkpt lat="43.93542" lon="5.98682">
        <ele>571.021</ele>
        <time>2020-09-02T14:53:48Z</time>
      </trkpt>
      <trkpt lat="43.93547" lon="5.98675">
        <ele>571.608</ele>
        <time>2020-09-02T14:53:50Z</time>
      </trkpt>
      <trkpt lat="43.93551" lon="5.98665">
        <ele>574.422</ele>
        <time>2020-09-02T14:54:45Z</time>
      </trkpt>
      <trkpt lat="43.93552" lon="5.98658">
        <ele>575.511</ele>
        <time>2020-09-02T14:54:46Z</time>
      </trkpt>
      <trkpt lat="43.93552" lon="5.98652">
        <ele>575.551</ele>
        <time>2020-09-02T14:54:47Z</time>
      </trkpt>
      <trkpt lat="43.93551" lon="5.98644">
        <ele>576.038</ele>
        <time>2020-09-02T14:54:48Z</time>
      </trkpt>
      <trkpt lat="43.93547" lon="5.98635">
        <ele>578.669</ele>
        <time>2020-09-02T14:54:50Z</time>
      </trkpt>
      <trkpt lat="43.93538" lon="5.98634">
        <ele>580.587</ele>
        <time>2020-09-02T14:54:52Z</time>
      </trkpt>
      <trkpt lat="43.93534" lon="5.98638">
        <ele>582.793</ele>
        <time>2020-09-02T14:54:53Z</time>
      </trkpt>
      <trkpt lat="43.9353" lon="5.98643">
        <ele>583.926</ele>
        <time>2020-09-02T14:54:54Z</time>
      </trkpt>
      <trkpt lat="43.93526" lon="5.98655">
        <ele>584.758</ele>
        <time>2020-09-02T14:54:55Z</time>
      </trkpt>
      <trkpt lat="43.93521" lon="5.98658">
        <ele>585.352</ele>
        <time>2020-09-02T14:54:56Z</time>
      </trkpt>
      <trkpt lat="43.93517" lon="5.9866">
        <ele>586.117</ele>
        <time>2020-09-02T14:54:57Z</time>
      </trkpt>
      <trkpt lat="43.93511" lon="5.98661">
        <ele>588.008</ele>
        <time>2020-09-02T14:54:58Z</time>
      </trkpt>
      <trkpt lat="43.93506" lon="5.98659">
        <ele>589.013</ele>
        <time>2020-09-02T14:54:59Z</time>
      </trkpt>
      <trkpt lat="43.93502" lon="5.98658">
        <ele>589.822</ele>
        <time>2020-09-02T14:55:00Z</time>
      </trkpt>
      <trkpt lat="43.93497" lon="5.98655">
        <ele>593.562</ele>
        <time>2020-09-02T14:55:01Z</time>
      </trkpt>
      <trkpt lat="43.93492" lon="5.98654">
        <ele>594.399</ele>
        <time>2020-09-02T14:55:02Z</time>
      </trkpt>
      <trkpt lat="43.93483" lon="5.98651">
        <ele>596.21</ele>
        <time>2020-09-02T14:55:04Z</time>
      </trkpt>
      <trkpt lat="43.93477" lon="5.98649">
        <ele>597.028</ele>
        <time>2020-09-02T14:55:05Z</time>
      </trkpt>
      <trkpt lat="43.93469" lon="5.98644">
        <ele>597.364</ele>
        <time>2020-09-02T14:55:06Z</time>
      </trkpt>
      <trkpt lat="43.93463" lon="5.98641">
        <ele>598.457</ele>
        <time>2020-09-02T14:55:07Z</time>
      </trkpt>
      <trkpt lat="43.93456" lon="5.98641">
        <ele>600.947</ele>
        <time>2020-09-02T14:55:08Z</time>
      </trkpt>
      <trkpt lat="43.93451" lon="5.9864">
        <ele>602.729</ele>
        <time>2020-09-02T14:55:09Z</time>
      </trkpt>
      <trkpt lat="43.93446" lon="5.98641">
        <ele>603.621</ele>
        <time>2020-09-02T14:55:10Z</time>
      </trkpt>
      <trkpt lat="43.9344" lon="5.98641">
        <ele>605.208</ele>
        <time>2020-09-02T14:55:11Z</time>
      </trkpt>
      <trkpt lat="43.93435" lon="5.98644">
        <ele>606.112</ele>
        <time>2020-09-02T14:55:12Z</time>
      </trkpt>
      <trkpt lat="43.93428" lon="5.98646">
        <ele>607.321</ele>
        <time>2020-09-02T14:55:13Z</time>
      </trkpt>
      <trkpt lat="43.93421" lon="5.98646">
        <ele>608.671</ele>
        <time>2020-09-02T14:55:14Z</time>
      </trkpt>
      <trkpt lat="43.93415" lon="5.98647">
        <ele>609.788</ele>
        <time>2020-09-02T14:55:15Z</time>
      </trkpt>
      <trkpt lat="43.93408" lon="5.98648">
        <ele>610.979</ele>
        <time>2020-09-02T14:55:16Z</time>
      </trkpt>
      <trkpt lat="43.93399" lon="5.98651">
        <ele>615.097</ele>
        <time>2020-09-02T14:55:18Z</time>
      </trkpt>
      <trkpt lat="43.93393" lon="5.9865">
        <ele>615.993</ele>
        <time>2020-09-02T14:55:19Z</time>
      </trkpt>
      <trkpt lat="43.93383" lon="5.98644">
        <ele>617.776</ele>
        <time>2020-09-02T14:55:21Z</time>
      </trkpt>
      <trkpt lat="43.93379" lon="5.98644">
        <ele>618.289</ele>
        <time>2020-09-02T14:55:22Z</time>
      </trkpt>
      <trkpt lat="43.9337" lon="5.98641">
        <ele>619.506</ele>
        <time>2020-09-02T14:55:24Z</time>
      </trkpt>
      <trkpt lat="43.93363" lon="5.9864">
        <ele>621.026</ele>
        <time>2020-09-02T14:55:26Z</time>
      </trkpt>
      <trkpt lat="43.93355" lon="5.98642">
        <ele>621.308</ele>
        <time>2020-09-02T14:55:28Z</time>
      </trkpt>
      <trkpt lat="43.93347" lon="5.98639">
        <ele>622.476</ele>
        <time>2020-09-02T14:55:30Z</time>
      </trkpt>
      <trkpt lat="43.93343" lon="5.98638">
        <ele>623.515</ele>
        <time>2020-09-02T14:55:31Z</time>
      </trkpt>
      <trkpt lat="43.93335" lon="5.98636">
        <ele>624.875</ele>
        <time>2020-09-02T14:55:33Z</time>
      </trkpt>
      <trkpt lat="43.93326" lon="5.98634">
        <ele>626.272</ele>
        <time>2020-09-02T14:55:35Z</time>
      </trkpt>
      <trkpt lat="43.93321" lon="5.98631">
        <ele>627.023</ele>
        <time>2020-09-02T14:55:36Z</time>
      </trkpt>
      <trkpt lat="43.93315" lon="5.98629">
        <ele>628.221</ele>
        <time>2020-09-02T14:55:37Z</time>
      </trkpt>
      <trkpt lat="43.93309" lon="5.98627">
        <ele>628.497</ele>
        <time>2020-09-02T14:55:38Z</time>
      </trkpt>
      <trkpt lat="43.93302" lon="5.98625">
        <ele>629.43</ele>
        <time>2020-09-02T14:55:39Z</time>
      </trkpt>
      <trkpt lat="43.93296" lon="5.98623">
        <ele>630.784</ele>
        <time>2020-09-02T14:55:40Z</time>
      </trkpt>
      <trkpt lat="43.93289" lon="5.98621">
        <ele>631.007</ele>
        <time>2020-09-02T14:55:41Z</time>
      </trkpt>
      <trkpt lat="43.93281" lon="5.98619">
        <ele>632.917</ele>
        <time>2020-09-02T14:55:42Z</time>
      </trkpt>
      <trkpt lat="43.93275" lon="5.98617">
        <ele>635.108</ele>
        <time>2020-09-02T14:55:43Z</time>
      </trkpt>
      <trkpt lat="43.93268" lon="5.98613">
        <ele>637.526</ele>
        <time>2020-09-02T14:55:44Z</time>
      </trkpt>
      <trkpt lat="43.93262" lon="5.98611">
        <ele>640.365</ele>
        <time>2020-09-02T14:55:45Z</time>
      </trkpt>
      <trkpt lat="43.93257" lon="5.98609">
        <ele>642.385</ele>
        <time>2020-09-02T14:55:46Z</time>
      </trkpt>
      <trkpt lat="43.93252" lon="5.98606">
        <ele>643.282</ele>
        <time>2020-09-02T14:55:47Z</time>
      </trkpt>
      <trkpt lat="43.93248" lon="5.98604">
        <ele>644.033</ele>
        <time>2020-09-02T14:55:48Z</time>
      </trkpt>
      <trkpt lat="43.93243" lon="5.98602">
        <ele>644.611</ele>
        <time>2020-09-02T14:55:49Z</time>
      </trkpt>
      <trkpt lat="43.93238" lon="5.98602">
        <ele>644.547</ele>
        <time>2020-09-02T14:55:51Z</time>
      </trkpt>
      <trkpt lat="43.93232" lon="5.986">
        <ele>646.14</ele>
        <time>2020-09-02T14:57:41Z</time>
      </trkpt>
      <trkpt lat="43.93226" lon="5.98599">
        <ele>646.379</ele>
        <time>2020-09-02T14:57:42Z</time>
      </trkpt>
      <trkpt lat="43.9322" lon="5.986">
        <ele>646.405</ele>
        <time>2020-09-02T14:57:43Z</time>
      </trkpt>
      <trkpt lat="43.93214" lon="5.98603">
        <ele>646.325</ele>
        <time>2020-09-02T14:57:44Z</time>
      </trkpt>
      <trkpt lat="43.93208" lon="5.98607">
        <ele>646.408</ele>
        <time>2020-09-02T14:57:45Z</time>
      </trkpt>
      <trkpt lat="43.93201" lon="5.98612">
        <ele>646.325</ele>
        <time>2020-09-02T14:57:46Z</time>
      </trkpt>
      <trkpt lat="43.93191" lon="5.98623">
        <ele>646.694</ele>
        <time>2020-09-02T14:57:47Z</time>
      </trkpt>
      <trkpt lat="43.93179" lon="5.98628">
        <ele>646.514</ele>
        <time>2020-09-02T14:57:48Z</time>
      </trkpt>
      <trkpt lat="43.93168" lon="5.98633">
        <ele>646.571</ele>
        <time>2020-09-02T14:57:49Z</time>
      </trkpt>
      <trkpt lat="43.93157" lon="5.98637">
        <ele>646.772</ele>
        <time>2020-09-02T14:57:50Z</time>
      </trkpt>
      <trkpt lat="43.93146" lon="5.98642">
        <ele>647.33</ele>
        <time>2020-09-02T14:57:51Z</time>
      </trkpt>
      <trkpt lat="43.93137" lon="5.98645">
        <ele>647.056</ele>
        <time>2020-09-02T14:57:52Z</time>
      </trkpt>
      <trkpt lat="43.93129" lon="5.98649">
        <ele>647.179</ele>
        <time>2020-09-02T14:57:53Z</time>
      </trkpt>
      <trkpt lat="43.93124" lon="5.98654">
        <ele>647.119</ele>
        <time>2020-09-02T14:57:54Z</time>
      </trkpt>
      <trkpt lat="43.9312" lon="5.98661">
        <ele>647.109</ele>
        <time>2020-09-02T14:57:55Z</time>
      </trkpt>
      <trkpt lat="43.93116" lon="5.98671">
        <ele>646.619</ele>
        <time>2020-09-02T14:57:56Z</time>
      </trkpt>
      <trkpt lat="43.93114" lon="5.98682">
        <ele>646.408</ele>
        <time>2020-09-02T14:57:57Z</time>
      </trkpt>
      <trkpt lat="43.93113" lon="5.98695">
        <ele>645.869</ele>
        <time>2020-09-02T14:57:58Z</time>
      </trkpt>
      <trkpt lat="43.9311" lon="5.98707">
        <ele>645.418</ele>
        <time>2020-09-02T14:57:59Z</time>
      </trkpt>
      <trkpt lat="43.93106" lon="5.98719">
        <ele>645.148</ele>
        <time>2020-09-02T14:58:00Z</time>
      </trkpt>
      <trkpt lat="43.93101" lon="5.9873">
        <ele>644.965</ele>
        <time>2020-09-02T14:58:01Z</time>
      </trkpt>
      <trkpt lat="43.93095" lon="5.98741">
        <ele>644.856</ele>
        <time>2020-09-02T14:58:02Z</time>
      </trkpt>
      <trkpt lat="43.93088" lon="5.9875">
        <ele>644.354</ele>
        <time>2020-09-02T14:58:03Z</time>
      </trkpt>
      <trkpt lat="43.93079" lon="5.98757">
        <ele>644.28</ele>
        <time>2020-09-02T14:58:04Z</time>
      </trkpt>
      <trkpt lat="43.9307" lon="5.98763">
        <ele>643.713</ele>
        <time>2020-09-02T14:58:05Z</time>
      </trkpt>
      <trkpt lat="43.93064" lon="5.98767">
        <ele>644.091</ele>
        <time>2020-09-02T14:58:06Z</time>
      </trkpt>
      <trkpt lat="43.93058" lon="5.9877">
        <ele>644.081</ele>
        <time>2020-09-02T14:58:07Z</time>
      </trkpt>
      <trkpt lat="43.93052" lon="5.98773">
        <ele>644.419</ele>
        <time>2020-09-02T14:58:08Z</time>
      </trkpt>
      <trkpt lat="43.93044" lon="5.98773">
        <ele>644.008</ele>
        <time>2020-09-02T14:58:10Z</time>
      </trkpt>
      <trkpt lat="43.93038" lon="5.98767">
        <ele>644.057</ele>
        <time>2020-09-02T14:58:11Z</time>
      </trkpt>
      <trkpt lat="43.93032" lon="5.9876">
        <ele>644.046</ele>
        <time>2020-09-02T14:58:12Z</time>
      </trkpt>
      <trkpt lat="43.93026" lon="5.98753">
        <ele>643.296</ele>
        <time>2020-09-02T14:58:13Z</time>
      </trkpt>
      <trkpt lat="43.93018" lon="5.98745">
        <ele>643.433</ele>
        <time>2020-09-02T14:58:14Z</time>
      </trkpt>
      <trkpt lat="43.93009" lon="5.98737">
        <ele>643.074</ele>
        <time>2020-09-02T14:58:15Z</time>
      </trkpt>
      <trkpt lat="43.93" lon="5.98728">
        <ele>642.822</ele>
        <time>2020-09-02T14:58:16Z</time>
      </trkpt>
      <trkpt lat="43.9299" lon="5.98719">
        <ele>642.888</ele>
        <time>2020-09-02T14:58:17Z</time>
      </trkpt>
      <trkpt lat="43.92983" lon="5.98708">
        <ele>643.461</ele>
        <time>2020-09-02T14:58:18Z</time>
      </trkpt>
      <trkpt lat="43.92976" lon="5.98698">
        <ele>644.225</ele>
        <time>2020-09-02T14:58:19Z</time>
      </trkpt>
      <trkpt lat="43.92968" lon="5.98688">
        <ele>644.526</ele>
        <time>2020-09-02T14:58:20Z</time>
      </trkpt>
      <trkpt lat="43.9296" lon="5.98679">
        <ele>644.408</ele>
        <time>2020-09-02T14:58:21Z</time>
      </trkpt>
      <trkpt lat="43.92951" lon="5.9867">
        <ele>644.208</ele>
        <time>2020-09-02T14:58:22Z</time>
      </trkpt>
      <trkpt lat="43.92943" lon="5.9866">
        <ele>645.03</ele>
        <time>2020-09-02T14:58:23Z</time>
      </trkpt>
      <trkpt lat="43.92935" lon="5.98649">
        <ele>645.989</ele>
        <time>2020-09-02T14:58:24Z</time>
      </trkpt>
      <trkpt lat="43.92926" lon="5.98639">
        <ele>646.429</ele>
        <time>2020-09-02T14:58:25Z</time>
      </trkpt>
      <trkpt lat="43.92919" lon="5.98629">
        <ele>647.156</ele>
        <time>2020-09-02T14:58:26Z</time>
      </trkpt>
      <trkpt lat="43.92913" lon="5.9862">
        <ele>647.097</ele>
        <time>2020-09-02T14:58:27Z</time>
      </trkpt>
      <trkpt lat="43.92907" lon="5.98611">
        <ele>647.045</ele>
        <time>2020-09-02T14:58:28Z</time>
      </trkpt>
      <trkpt lat="43.92903" lon="5.98605">
        <ele>646.711</ele>
        <time>2020-09-02T14:58:29Z</time>
      </trkpt>
      <trkpt lat="43.92898" lon="5.98598">
        <ele>646.514</ele>
        <time>2020-09-02T14:58:30Z</time>
      </trkpt>
      <trkpt lat="43.92892" lon="5.98589">
        <ele>645.733</ele>
        <time>2020-09-02T14:58:31Z</time>
      </trkpt>
      <trkpt lat="43.92886" lon="5.9858">
        <ele>645.223</ele>
        <time>2020-09-02T14:58:32Z</time>
      </trkpt>
      <trkpt lat="43.92879" lon="5.98569">
        <ele>645.015</ele>
        <time>2020-09-02T14:58:33Z</time>
      </trkpt>
      <trkpt lat="43.92871" lon="5.98557">
        <ele>645.108</ele>
        <time>2020-09-02T14:58:34Z</time>
      </trkpt>
      <trkpt lat="43.92863" lon="5.98544">
        <ele>645.151</ele>
        <time>2020-09-02T14:58:35Z</time>
      </trkpt>
      <trkpt lat="43.92855" lon="5.98533">
        <ele>645.02</ele>
        <time>2020-09-02T14:58:36Z</time>
      </trkpt>
      <trkpt lat="43.92848" lon="5.98524">
        <ele>645.03</ele>
        <time>2020-09-02T14:58:37Z</time>
      </trkpt>
      <trkpt lat="43.92841" lon="5.98519">
        <ele>644.987</ele>
        <time>2020-09-02T14:58:38Z</time>
      </trkpt>
      <trkpt lat="43.92833" lon="5.98518">
        <ele>645.018</ele>
        <time>2020-09-02T14:58:39Z</time>
      </trkpt>
      <trkpt lat="43.92825" lon="5.9852">
        <ele>645.236</ele>
        <time>2020-09-02T14:58:40Z</time>
      </trkpt>
      <trkpt lat="43.92816" lon="5.98525">
        <ele>644.932</ele>
        <time>2020-09-02T14:58:41Z</time>
      </trkpt>
      <trkpt lat="43.92806" lon="5.98533">
        <ele>645.195</ele>
        <time>2020-09-02T14:58:42Z</time>
      </trkpt>
      <trkpt lat="43.92796" lon="5.98541">
        <ele>645.114</ele>
        <time>2020-09-02T14:58:43Z</time>
      </trkpt>
      <trkpt lat="43.92785" lon="5.98549">
        <ele>645.254</ele>
        <time>2020-09-02T14:58:44Z</time>
      </trkpt>
      <trkpt lat="43.92772" lon="5.98557">
        <ele>645.409</ele>
        <time>2020-09-02T14:58:45Z</time>
      </trkpt>
      <trkpt lat="43.92758" lon="5.98564">
        <ele>645.108</ele>
        <time>2020-09-02T14:58:46Z</time>
      </trkpt>
      <trkpt lat="43.92746" lon="5.9857">
        <ele>644.819</ele>
        <time>2020-09-02T14:58:47Z</time>
      </trkpt>
      <trkpt lat="43.92737" lon="5.98573">
        <ele>644.468</ele>
        <time>2020-09-02T14:58:48Z</time>
      </trkpt>
      <trkpt lat="43.92728" lon="5.98574">
        <ele>644.048</ele>
        <time>2020-09-02T14:58:49Z</time>
      </trkpt>
      <trkpt lat="43.92717" lon="5.98573">
        <ele>643.515</ele>
        <time>2020-09-02T14:58:50Z</time>
      </trkpt>
      <trkpt lat="43.92703" lon="5.98571">
        <ele>643.326</ele>
        <time>2020-09-02T14:58:51Z</time>
      </trkpt>
      <trkpt lat="43.9269" lon="5.98567">
        <ele>643.234</ele>
        <time>2020-09-02T14:58:52Z</time>
      </trkpt>
      <trkpt lat="43.92675" lon="5.98561">
        <ele>643.09</ele>
        <time>2020-09-02T14:58:53Z</time>
      </trkpt>
      <trkpt lat="43.92661" lon="5.98552">
        <ele>642.923</ele>
        <time>2020-09-02T14:58:54Z</time>
      </trkpt>
      <trkpt lat="43.92645" lon="5.98544">
        <ele>642.523</ele>
        <time>2020-09-02T14:58:55Z</time>
      </trkpt>
      <trkpt lat="43.92629" lon="5.98534">
        <ele>641.883</ele>
        <time>2020-09-02T14:58:56Z</time>
      </trkpt>
      <trkpt lat="43.92613" lon="5.98525">
        <ele>641.211</ele>
        <time>2020-09-02T14:58:57Z</time>
      </trkpt>
      <trkpt lat="43.92596" lon="5.98514">
        <ele>639.908</ele>
        <time>2020-09-02T14:58:58Z</time>
      </trkpt>
      <trkpt lat="43.9258" lon="5.98505">
        <ele>639.69</ele>
        <time>2020-09-02T14:58:59Z</time>
      </trkpt>
      <trkpt lat="43.92564" lon="5.98495">
        <ele>639.369</ele>
        <time>2020-09-02T14:59:00Z</time>
      </trkpt>
      <trkpt lat="43.92549" lon="5.98486">
        <ele>639.459</ele>
        <time>2020-09-02T14:59:01Z</time>
      </trkpt>
      <trkpt lat="43.92534" lon="5.98477">
        <ele>639.346</ele>
        <time>2020-09-02T14:59:02Z</time>
      </trkpt>
      <trkpt lat="43.9252" lon="5.98468">
        <ele>639.487</ele>
        <time>2020-09-02T14:59:03Z</time>
      </trkpt>
      <trkpt lat="43.92507" lon="5.9846">
        <ele>640.355</ele>
        <time>2020-09-02T14:59:04Z</time>
      </trkpt>
      <trkpt lat="43.92496" lon="5.98453">
        <ele>641.431</ele>
        <time>2020-09-02T14:59:05Z</time>
      </trkpt>
      <trkpt lat="43.92488" lon="5.98448">
        <ele>641.834</ele>
        <time>2020-09-02T14:59:06Z</time>
      </trkpt>
      <trkpt lat="43.92482" lon="5.98445">
        <ele>641.692</ele>
        <time>2020-09-02T14:59:07Z</time>
      </trkpt>
      <trkpt lat="43.92479" lon="5.9844">
        <ele>641.473</ele>
        <time>2020-09-02T14:59:13Z</time>
      </trkpt>
      <trkpt lat="43.92479" lon="5.98429">
        <ele>641.32</ele>
        <time>2020-09-02T14:59:15Z</time>
      </trkpt>
      <trkpt lat="43.92481" lon="5.98418">
        <ele>641.908</ele>
        <time>2020-09-02T14:59:16Z</time>
      </trkpt>
      <trkpt lat="43.92484" lon="5.98407">
        <ele>642.457</ele>
        <time>2020-09-02T14:59:17Z</time>
      </trkpt>
      <trkpt lat="43.92489" lon="5.98396">
        <ele>642.556</ele>
        <time>2020-09-02T14:59:18Z</time>
      </trkpt>
      <trkpt lat="43.92495" lon="5.98386">
        <ele>642.926</ele>
        <time>2020-09-02T14:59:19Z</time>
      </trkpt>
      <trkpt lat="43.92501" lon="5.98378">
        <ele>642.583</ele>
        <time>2020-09-02T14:59:20Z</time>
      </trkpt>
      <trkpt lat="43.92508" lon="5.98371">
        <ele>642.474</ele>
        <time>2020-09-02T14:59:21Z</time>
      </trkpt>
      <trkpt lat="43.92515" lon="5.98364">
        <ele>642.222</ele>
        <time>2020-09-02T14:59:22Z</time>
      </trkpt>
      <trkpt lat="43.9252" lon="5.98355">
        <ele>641.888</ele>
        <time>2020-09-02T14:59:23Z</time>
      </trkpt>
      <trkpt lat="43.92521" lon="5.98344">
        <ele>642.611</ele>
        <time>2020-09-02T14:59:24Z</time>
      </trkpt>
      <trkpt lat="43.92522" lon="5.98333">
        <ele>642.226</ele>
        <time>2020-09-02T14:59:25Z</time>
      </trkpt>
      <trkpt lat="43.9252" lon="5.9832">
        <ele>642.347</ele>
        <time>2020-09-02T14:59:26Z</time>
      </trkpt>
      <trkpt lat="43.92517" lon="5.98305">
        <ele>641.611</ele>
        <time>2020-09-02T14:59:27Z</time>
      </trkpt>
      <trkpt lat="43.92514" lon="5.9829">
        <ele>641.608</ele>
        <time>2020-09-02T14:59:28Z</time>
      </trkpt>
      <trkpt lat="43.9251" lon="5.98275">
        <ele>641.25</ele>
        <time>2020-09-02T14:59:29Z</time>
      </trkpt>
      <trkpt lat="43.92505" lon="5.98261">
        <ele>640.789</ele>
        <time>2020-09-02T14:59:30Z</time>
      </trkpt>
      <trkpt lat="43.92499" lon="5.98248">
        <ele>640.329</ele>
        <time>2020-09-02T14:59:31Z</time>
      </trkpt>
      <trkpt lat="43.92494" lon="5.98233">
        <ele>640.446</ele>
        <time>2020-09-02T14:59:32Z</time>
      </trkpt>
      <trkpt lat="43.92489" lon="5.98217">
        <ele>640.887</ele>
        <time>2020-09-02T14:59:33Z</time>
      </trkpt>
      <trkpt lat="43.92484" lon="5.98201">
        <ele>640.935</ele>
        <time>2020-09-02T14:59:34Z</time>
      </trkpt>
      <trkpt lat="43.92479" lon="5.98186">
        <ele>641.161</ele>
        <time>2020-09-02T14:59:35Z</time>
      </trkpt>
      <trkpt lat="43.92474" lon="5.98173">
        <ele>640.324</ele>
        <time>2020-09-02T14:59:36Z</time>
      </trkpt>
      <trkpt lat="43.92469" lon="5.98162">
        <ele>640.266</ele>
        <time>2020-09-02T14:59:37Z</time>
      </trkpt>
      <trkpt lat="43.92465" lon="5.98152">
        <ele>639.829</ele>
        <time>2020-09-02T14:59:38Z</time>
      </trkpt>
      <trkpt lat="43.92461" lon="5.98142">
        <ele>639.721</ele>
        <time>2020-09-02T14:59:39Z</time>
      </trkpt>
      <trkpt lat="43.92458" lon="5.9813">
        <ele>638.508</ele>
        <time>2020-09-02T14:59:40Z</time>
      </trkpt>
      <trkpt lat="43.92454" lon="5.98116">
        <ele>638.754</ele>
        <time>2020-09-02T14:59:41Z</time>
      </trkpt>
      <trkpt lat="43.92451" lon="5.981">
        <ele>638.933</ele>
        <time>2020-09-02T14:59:42Z</time>
      </trkpt>
      <trkpt lat="43.92446" lon="5.98081">
        <ele>639.343</ele>
        <time>2020-09-02T14:59:43Z</time>
      </trkpt>
      <trkpt lat="43.9244" lon="5.98061">
        <ele>639.74</ele>
        <time>2020-09-02T14:59:44Z</time>
      </trkpt>
      <trkpt lat="43.92433" lon="5.9804">
        <ele>639.751</ele>
        <time>2020-09-02T14:59:45Z</time>
      </trkpt>
      <trkpt lat="43.92427" lon="5.98019">
        <ele>639.869</ele>
        <time>2020-09-02T14:59:46Z</time>
      </trkpt>
      <trkpt lat="43.92421" lon="5.97999">
        <ele>639.945</ele>
        <time>2020-09-02T14:59:47Z</time>
      </trkpt>
      <trkpt lat="43.92415" lon="5.97983">
        <ele>640.678</ele>
        <time>2020-09-02T14:59:48Z</time>
      </trkpt>
      <trkpt lat="43.92407" lon="5.97969">
        <ele>641.296</ele>
        <time>2020-09-02T14:59:49Z</time>
      </trkpt>
      <trkpt lat="43.92398" lon="5.97958">
        <ele>641.431</ele>
        <time>2020-09-02T14:59:50Z</time>
      </trkpt>
      <trkpt lat="43.92385" lon="5.97949">
        <ele>640.924</ele>
        <time>2020-09-02T14:59:51Z</time>
      </trkpt>
      <trkpt lat="43.92371" lon="5.97942">
        <ele>640.508</ele>
        <time>2020-09-02T14:59:52Z</time>
      </trkpt>
      <trkpt lat="43.92357" lon="5.97936">
        <ele>640.137</ele>
        <time>2020-09-02T14:59:53Z</time>
      </trkpt>
      <trkpt lat="43.92345" lon="5.97927">
        <ele>640.316</ele>
        <time>2020-09-02T14:59:54Z</time>
      </trkpt>
      <trkpt lat="43.92335" lon="5.97918">
        <ele>640.236</ele>
        <time>2020-09-02T14:59:55Z</time>
      </trkpt>
      <trkpt lat="43.92324" lon="5.97906">
        <ele>639.993</ele>
        <time>2020-09-02T14:59:56Z</time>
      </trkpt>
      <trkpt lat="43.92317" lon="5.97892">
        <ele>640.674</ele>
        <time>2020-09-02T14:59:57Z</time>
      </trkpt>
      <trkpt lat="43.9231" lon="5.9788">
        <ele>640.732</ele>
        <time>2020-09-02T14:59:58Z</time>
      </trkpt>
      <trkpt lat="43.92305" lon="5.97871">
        <ele>640.748</ele>
        <time>2020-09-02T14:59:59Z</time>
      </trkpt>
      <trkpt lat="43.92301" lon="5.97861">
        <ele>640.421</ele>
        <time>2020-09-02T15:00:00Z</time>
      </trkpt>
      <trkpt lat="43.92298" lon="5.97852">
        <ele>639.961</ele>
        <time>2020-09-02T15:00:01Z</time>
      </trkpt>
      <trkpt lat="43.92301" lon="5.97845">
        <ele>639.521</ele>
        <time>2020-09-02T15:00:02Z</time>
      </trkpt>
      <trkpt lat="43.92305" lon="5.97837">
        <ele>639.413</ele>
        <time>2020-09-02T15:00:03Z</time>
      </trkpt>
      <trkpt lat="43.92313" lon="5.97831">
        <ele>639.408</ele>
        <time>2020-09-02T15:00:04Z</time>
      </trkpt>
      <trkpt lat="43.9232" lon="5.97826">
        <ele>639.344</ele>
        <time>2020-09-02T15:00:05Z</time>
      </trkpt>
      <trkpt lat="43.92332" lon="5.97821">
        <ele>640.043</ele>
        <time>2020-09-02T15:00:06Z</time>
      </trkpt>
      <trkpt lat="43.92341" lon="5.97814">
        <ele>639.823</ele>
        <time>2020-09-02T15:00:07Z</time>
      </trkpt>
      <trkpt lat="43.92348" lon="5.97806">
        <ele>640.39</ele>
        <time>2020-09-02T15:00:08Z</time>
      </trkpt>
      <trkpt lat="43.92352" lon="5.97796">
        <ele>640.491</ele>
        <time>2020-09-02T15:00:09Z</time>
      </trkpt>
      <trkpt lat="43.92352" lon="5.97785">
        <ele>640.249</ele>
        <time>2020-09-02T15:00:10Z</time>
      </trkpt>
      <trkpt lat="43.92349" lon="5.97772">
        <ele>640.195</ele>
        <time>2020-09-02T15:00:11Z</time>
      </trkpt>
      <trkpt lat="43.92345" lon="5.97755">
        <ele>639.238</ele>
        <time>2020-09-02T15:00:12Z</time>
      </trkpt>
      <trkpt lat="43.92341" lon="5.97737">
        <ele>639.468</ele>
        <time>2020-09-02T15:00:13Z</time>
      </trkpt>
      <trkpt lat="43.92336" lon="5.97718">
        <ele>639.242</ele>
        <time>2020-09-02T15:00:14Z</time>
      </trkpt>
      <trkpt lat="43.92331" lon="5.97702">
        <ele>638.926</ele>
        <time>2020-09-02T15:00:15Z</time>
      </trkpt>
      <trkpt lat="43.92327" lon="5.97686">
        <ele>639.108</ele>
        <time>2020-09-02T15:00:16Z</time>
      </trkpt>
      <trkpt lat="43.92322" lon="5.97674">
        <ele>639.364</ele>
        <time>2020-09-02T15:00:17Z</time>
      </trkpt>
      <trkpt lat="43.92319" lon="5.9766">
        <ele>639.593</ele>
        <time>2020-09-02T15:00:18Z</time>
      </trkpt>
      <trkpt lat="43.92317" lon="5.97648">
        <ele>639.913</ele>
        <time>2020-09-02T15:00:19Z</time>
      </trkpt>
      <trkpt lat="43.92315" lon="5.97636">
        <ele>639.98</ele>
        <time>2020-09-02T15:00:20Z</time>
      </trkpt>
      <trkpt lat="43.92311" lon="5.97625">
        <ele>640.061</ele>
        <time>2020-09-02T15:00:21Z</time>
      </trkpt>
      <trkpt lat="43.92306" lon="5.97613">
        <ele>639.789</ele>
        <time>2020-09-02T15:00:22Z</time>
      </trkpt>
      <trkpt lat="43.92301" lon="5.97601">
        <ele>639.515</ele>
        <time>2020-09-02T15:00:23Z</time>
      </trkpt>
      <trkpt lat="43.92294" lon="5.97588">
        <ele>639.188</ele>
        <time>2020-09-02T15:00:24Z</time>
      </trkpt>
      <trkpt lat="43.92288" lon="5.97572">
        <ele>638.623</ele>
        <time>2020-09-02T15:00:25Z</time>
      </trkpt>
      <trkpt lat="43.92281" lon="5.97557">
        <ele>638.683</ele>
        <time>2020-09-02T15:00:26Z</time>
      </trkpt>
      <trkpt lat="43.92272" lon="5.97541">
        <ele>638.411</ele>
        <time>2020-09-02T15:00:27Z</time>
      </trkpt>
      <trkpt lat="43.92265" lon="5.97527">
        <ele>638.308</ele>
        <time>2020-09-02T15:00:28Z</time>
      </trkpt>
      <trkpt lat="43.92256" lon="5.97514">
        <ele>637.25</ele>
        <time>2020-09-02T15:00:29Z</time>
      </trkpt>
      <trkpt lat="43.92247" lon="5.97501">
        <ele>637.249</ele>
        <time>2020-09-02T15:00:30Z</time>
      </trkpt>
      <trkpt lat="43.92239" lon="5.97491">
        <ele>636.719</ele>
        <time>2020-09-02T15:00:31Z</time>
      </trkpt>
      <trkpt lat="43.92232" lon="5.97481">
        <ele>636.446</ele>
        <time>2020-09-02T15:00:32Z</time>
      </trkpt>
      <trkpt lat="43.92226" lon="5.97474">
        <ele>637.547</ele>
        <time>2020-09-02T15:00:33Z</time>
      </trkpt>
      <trkpt lat="43.92221" lon="5.97466">
        <ele>637.685</ele>
        <time>2020-09-02T15:00:34Z</time>
      </trkpt>
      <trkpt lat="43.92217" lon="5.97459">
        <ele>638.211</ele>
        <time>2020-09-02T15:00:35Z</time>
      </trkpt>
      <trkpt lat="43.92213" lon="5.9745">
        <ele>638.164</ele>
        <time>2020-09-02T15:00:36Z</time>
      </trkpt>
      <trkpt lat="43.92208" lon="5.97442">
        <ele>637.975</ele>
        <time>2020-09-02T15:00:37Z</time>
      </trkpt>
      <trkpt lat="43.92202" lon="5.97436">
        <ele>638.228</ele>
        <time>2020-09-02T15:00:38Z</time>
      </trkpt>
      <trkpt lat="43.92198" lon="5.97431">
        <ele>638.42</ele>
        <time>2020-09-02T15:00:39Z</time>
      </trkpt>
      <trkpt lat="43.92193" lon="5.97424">
        <ele>637.208</ele>
        <time>2020-09-02T15:00:40Z</time>
      </trkpt>
      <trkpt lat="43.92188" lon="5.97418">
        <ele>636.645</ele>
        <time>2020-09-02T15:00:41Z</time>
      </trkpt>
      <trkpt lat="43.92183" lon="5.9741">
        <ele>636.124</ele>
        <time>2020-09-02T15:00:42Z</time>
      </trkpt>
      <trkpt lat="43.92179" lon="5.97401">
        <ele>636.034</ele>
        <time>2020-09-02T15:00:43Z</time>
      </trkpt>
      <trkpt lat="43.92176" lon="5.97392">
        <ele>635.321</ele>
        <time>2020-09-02T15:00:44Z</time>
      </trkpt>
      <trkpt lat="43.92171" lon="5.9738">
        <ele>634.392</ele>
        <time>2020-09-02T15:00:45Z</time>
      </trkpt>
      <trkpt lat="43.92164" lon="5.97371">
        <ele>632.98</ele>
        <time>2020-09-02T15:00:46Z</time>
      </trkpt>
      <trkpt lat="43.92157" lon="5.97361">
        <ele>631.886</ele>
        <time>2020-09-02T15:00:47Z</time>
      </trkpt>
      <trkpt lat="43.92148" lon="5.9735">
        <ele>630.359</ele>
        <time>2020-09-02T15:00:48Z</time>
      </trkpt>
      <trkpt lat="43.9214" lon="5.97339">
        <ele>628.856</ele>
        <time>2020-09-02T15:00:49Z</time>
      </trkpt>
      <trkpt lat="43.92131" lon="5.97326">
        <ele>628.359</ele>
        <time>2020-09-02T15:00:50Z</time>
      </trkpt>
      <trkpt lat="43.92123" lon="5.97314">
        <ele>627.814</ele>
        <time>2020-09-02T15:00:51Z</time>
      </trkpt>
      <trkpt lat="43.92115" lon="5.97304">
        <ele>627.408</ele>
        <time>2020-09-02T15:00:52Z</time>
      </trkpt>
      <trkpt lat="43.92107" lon="5.97294">
        <ele>627.283</ele>
        <time>2020-09-02T15:00:53Z</time>
      </trkpt>
      <trkpt lat="43.92101" lon="5.97286">
        <ele>627.732</ele>
        <time>2020-09-02T15:00:54Z</time>
      </trkpt>
      <trkpt lat="43.92095" lon="5.97279">
        <ele>627.542</ele>
        <time>2020-09-02T15:00:55Z</time>
      </trkpt>
      <trkpt lat="43.92088" lon="5.97273">
        <ele>627.149</ele>
        <time>2020-09-02T15:00:56Z</time>
      </trkpt>
      <trkpt lat="43.92079" lon="5.97265">
        <ele>627.13</ele>
        <time>2020-09-02T15:00:57Z</time>
      </trkpt>
      <trkpt lat="43.92069" lon="5.97257">
        <ele>627.168</ele>
        <time>2020-09-02T15:00:58Z</time>
      </trkpt>
      <trkpt lat="43.9206" lon="5.97249">
        <ele>627.354</ele>
        <time>2020-09-02T15:00:59Z</time>
      </trkpt>
      <trkpt lat="43.92052" lon="5.97242">
        <ele>626.927</ele>
        <time>2020-09-02T15:01:00Z</time>
      </trkpt>
      <trkpt lat="43.92043" lon="5.97235">
        <ele>626.078</ele>
        <time>2020-09-02T15:01:01Z</time>
      </trkpt>
      <trkpt lat="43.92036" lon="5.97226">
        <ele>624.433</ele>
        <time>2020-09-02T15:01:02Z</time>
      </trkpt>
      <trkpt lat="43.92029" lon="5.97215">
        <ele>624.126</ele>
        <time>2020-09-02T15:01:03Z</time>
      </trkpt>
      <trkpt lat="43.92023" lon="5.97202">
        <ele>623.008</ele>
        <time>2020-09-02T15:01:04Z</time>
      </trkpt>
      <trkpt lat="43.92017" lon="5.97191">
        <ele>621.275</ele>
        <time>2020-09-02T15:01:05Z</time>
      </trkpt>
      <trkpt lat="43.92011" lon="5.9718">
        <ele>620.714</ele>
        <time>2020-09-02T15:01:06Z</time>
      </trkpt>
      <trkpt lat="43.92005" lon="5.97172">
        <ele>620.094</ele>
        <time>2020-09-02T15:01:07Z</time>
      </trkpt>
      <trkpt lat="43.91999" lon="5.97163">
        <ele>619.311</ele>
        <time>2020-09-02T15:01:08Z</time>
      </trkpt>
      <trkpt lat="43.91994" lon="5.97155">
        <ele>619.922</ele>
        <time>2020-09-02T15:01:09Z</time>
      </trkpt>
      <trkpt lat="43.91987" lon="5.97142">
        <ele>618.29</ele>
        <time>2020-09-02T15:01:10Z</time>
      </trkpt>
      <trkpt lat="43.9198" lon="5.97132">
        <ele>617.376</ele>
        <time>2020-09-02T15:01:11Z</time>
      </trkpt>
      <trkpt lat="43.91973" lon="5.97119">
        <ele>615.699</ele>
        <time>2020-09-02T15:01:12Z</time>
      </trkpt>
      <trkpt lat="43.91965" lon="5.97105">
        <ele>615.041</ele>
        <time>2020-09-02T15:01:13Z</time>
      </trkpt>
      <trkpt lat="43.91959" lon="5.9709">
        <ele>614.181</ele>
        <time>2020-09-02T15:01:14Z</time>
      </trkpt>
      <trkpt lat="43.91952" lon="5.97079">
        <ele>614.109</ele>
        <time>2020-09-02T15:01:15Z</time>
      </trkpt>
      <trkpt lat="43.91947" lon="5.9707">
        <ele>614.208</ele>
        <time>2020-09-02T15:01:16Z</time>
      </trkpt>
      <trkpt lat="43.91943" lon="5.97064">
        <ele>613.852</ele>
        <time>2020-09-02T15:01:17Z</time>
      </trkpt>
      <trkpt lat="43.91941" lon="5.97057">
        <ele>613.731</ele>
        <time>2020-09-02T15:01:18Z</time>
      </trkpt>
      <trkpt lat="43.91941" lon="5.97048">
        <ele>614.191</ele>
        <time>2020-09-02T15:01:19Z</time>
      </trkpt>
      <trkpt lat="43.9194" lon="5.97038">
        <ele>614.358</ele>
        <time>2020-09-02T15:01:20Z</time>
      </trkpt>
      <trkpt lat="43.91938" lon="5.97026">
        <ele>614.649</ele>
        <time>2020-09-02T15:01:21Z</time>
      </trkpt>
      <trkpt lat="43.91934" lon="5.97012">
        <ele>614.787</ele>
        <time>2020-09-02T15:01:22Z</time>
      </trkpt>
      <trkpt lat="43.9193" lon="5.96999">
        <ele>614.873</ele>
        <time>2020-09-02T15:01:23Z</time>
      </trkpt>
      <trkpt lat="43.91924" lon="5.96986">
        <ele>614.926</ele>
        <time>2020-09-02T15:01:24Z</time>
      </trkpt>
      <trkpt lat="43.91918" lon="5.96972">
        <ele>614.828</ele>
        <time>2020-09-02T15:01:25Z</time>
      </trkpt>
      <trkpt lat="43.91911" lon="5.96958">
        <ele>614.489</ele>
        <time>2020-09-02T15:01:26Z</time>
      </trkpt>
      <trkpt lat="43.91904" lon="5.96948">
        <ele>614.317</ele>
        <time>2020-09-02T15:01:27Z</time>
      </trkpt>
      <trkpt lat="43.91896" lon="5.96939">
        <ele>613.808</ele>
        <time>2020-09-02T15:01:28Z</time>
      </trkpt>
      <trkpt lat="43.91888" lon="5.96931">
        <ele>613.59</ele>
        <time>2020-09-02T15:01:29Z</time>
      </trkpt>
      <trkpt lat="43.91879" lon="5.96923">
        <ele>613.189</ele>
        <time>2020-09-02T15:01:30Z</time>
      </trkpt>
      <trkpt lat="43.91871" lon="5.96912">
        <ele>612.179</ele>
        <time>2020-09-02T15:01:31Z</time>
      </trkpt>
      <trkpt lat="43.91864" lon="5.969">
        <ele>611.556</ele>
        <time>2020-09-02T15:01:32Z</time>
      </trkpt>
      <trkpt lat="43.91857" lon="5.96887">
        <ele>610.697</ele>
        <time>2020-09-02T15:01:33Z</time>
      </trkpt>
      <trkpt lat="43.91852" lon="5.96876">
        <ele>610.245</ele>
        <time>2020-09-02T15:01:34Z</time>
      </trkpt>
      <trkpt lat="43.91845" lon="5.96865">
        <ele>609.631</ele>
        <time>2020-09-02T15:01:35Z</time>
      </trkpt>
      <trkpt lat="43.91836" lon="5.96852">
        <ele>609.324</ele>
        <time>2020-09-02T15:01:36Z</time>
      </trkpt>
      <trkpt lat="43.91828" lon="5.9684">
        <ele>608.859</ele>
        <time>2020-09-02T15:01:37Z</time>
      </trkpt>
      <trkpt lat="43.91822" lon="5.96828">
        <ele>608.703</ele>
        <time>2020-09-02T15:01:38Z</time>
      </trkpt>
      <trkpt lat="43.91816" lon="5.96814">
        <ele>609.523</ele>
        <time>2020-09-02T15:01:39Z</time>
      </trkpt>
      <trkpt lat="43.91811" lon="5.96799">
        <ele>610.108</ele>
        <time>2020-09-02T15:01:40Z</time>
      </trkpt>
      <trkpt lat="43.91806" lon="5.96786">
        <ele>610.853</ele>
        <time>2020-09-02T15:01:41Z</time>
      </trkpt>
      <trkpt lat="43.91802" lon="5.96775">
        <ele>611.852</ele>
        <time>2020-09-02T15:01:42Z</time>
      </trkpt>
      <trkpt lat="43.91796" lon="5.96763">
        <ele>612.292</ele>
        <time>2020-09-02T15:01:43Z</time>
      </trkpt>
      <trkpt lat="43.91791" lon="5.96753">
        <ele>612.139</ele>
        <time>2020-09-02T15:01:44Z</time>
      </trkpt>
      <trkpt lat="43.91786" lon="5.96741">
        <ele>612.43</ele>
        <time>2020-09-02T15:01:45Z</time>
      </trkpt>
      <trkpt lat="43.9178" lon="5.96729">
        <ele>612.858</ele>
        <time>2020-09-02T15:01:46Z</time>
      </trkpt>
      <trkpt lat="43.91774" lon="5.9672">
        <ele>613.134</ele>
        <time>2020-09-02T15:01:47Z</time>
      </trkpt>
      <trkpt lat="43.91768" lon="5.96711">
        <ele>613.117</ele>
        <time>2020-09-02T15:01:48Z</time>
      </trkpt>
      <trkpt lat="43.91761" lon="5.96702">
        <ele>613.112</ele>
        <time>2020-09-02T15:01:49Z</time>
      </trkpt>
      <trkpt lat="43.91755" lon="5.96695">
        <ele>612.632</ele>
        <time>2020-09-02T15:01:50Z</time>
      </trkpt>
      <trkpt lat="43.9175" lon="5.96689">
        <ele>612.305</ele>
        <time>2020-09-02T15:01:51Z</time>
      </trkpt>
      <trkpt lat="43.91746" lon="5.96682">
        <ele>612.108</ele>
        <time>2020-09-02T15:01:52Z</time>
      </trkpt>
      <trkpt lat="43.91744" lon="5.96675">
        <ele>612.099</ele>
        <time>2020-09-02T15:01:53Z</time>
      </trkpt>
      <trkpt lat="43.91741" lon="5.96667">
        <ele>611.648</ele>
        <time>2020-09-02T15:01:54Z</time>
      </trkpt>
      <trkpt lat="43.91736" lon="5.96661">
        <ele>611.788</ele>
        <time>2020-09-02T15:01:55Z</time>
      </trkpt>
      <trkpt lat="43.91731" lon="5.96655">
        <ele>611.385</ele>
        <time>2020-09-02T15:01:56Z</time>
      </trkpt>
      <trkpt lat="43.91726" lon="5.96646">
        <ele>611.296</ele>
        <time>2020-09-02T15:01:57Z</time>
      </trkpt>
      <trkpt lat="43.91722" lon="5.96636">
        <ele>610.554</ele>
        <time>2020-09-02T15:01:58Z</time>
      </trkpt>
      <trkpt lat="43.91718" lon="5.96628">
        <ele>610.72</ele>
        <time>2020-09-02T15:01:59Z</time>
      </trkpt>
      <trkpt lat="43.91714" lon="5.9662">
        <ele>610.323</ele>
        <time>2020-09-02T15:02:00Z</time>
      </trkpt>
      <trkpt lat="43.9171" lon="5.96612">
        <ele>610.622</ele>
        <time>2020-09-02T15:02:01Z</time>
      </trkpt>
      <trkpt lat="43.91706" lon="5.96602">
        <ele>610.162</ele>
        <time>2020-09-02T15:02:02Z</time>
      </trkpt>
      <trkpt lat="43.91703" lon="5.96592">
        <ele>609.308</ele>
        <time>2020-09-02T15:02:03Z</time>
      </trkpt>
      <trkpt lat="43.91699" lon="5.96581">
        <ele>609.008</ele>
        <time>2020-09-02T15:02:04Z</time>
      </trkpt>
      <trkpt lat="43.91694" lon="5.96568">
        <ele>608.48</ele>
        <time>2020-09-02T15:02:05Z</time>
      </trkpt>
      <trkpt lat="43.9169" lon="5.96556">
        <ele>608.039</ele>
        <time>2020-09-02T15:02:06Z</time>
      </trkpt>
      <trkpt lat="43.91686" lon="5.9654">
        <ele>608.189</ele>
        <time>2020-09-02T15:02:07Z</time>
      </trkpt>
      <trkpt lat="43.91682" lon="5.96525">
        <ele>608.626</ele>
        <time>2020-09-02T15:02:08Z</time>
      </trkpt>
      <trkpt lat="43.91677" lon="5.9651">
        <ele>608.247</ele>
        <time>2020-09-02T15:02:09Z</time>
      </trkpt>
      <trkpt lat="43.91673" lon="5.96496">
        <ele>609.335</ele>
        <time>2020-09-02T15:02:10Z</time>
      </trkpt>
      <trkpt lat="43.91669" lon="5.96485">
        <ele>610.111</ele>
        <time>2020-09-02T15:02:11Z</time>
      </trkpt>
      <trkpt lat="43.91665" lon="5.96475">
        <ele>609.894</ele>
        <time>2020-09-02T15:02:12Z</time>
      </trkpt>
      <trkpt lat="43.9166" lon="5.96465">
        <ele>609.842</ele>
        <time>2020-09-02T15:02:13Z</time>
      </trkpt>
      <trkpt lat="43.91655" lon="5.96455">
        <ele>609.522</ele>
        <time>2020-09-02T15:02:14Z</time>
      </trkpt>
      <trkpt lat="43.91647" lon="5.96446">
        <ele>610.514</ele>
        <time>2020-09-02T15:02:15Z</time>
      </trkpt>
      <trkpt lat="43.91641" lon="5.96438">
        <ele>611.008</ele>
        <time>2020-09-02T15:02:16Z</time>
      </trkpt>
      <trkpt lat="43.91634" lon="5.96432">
        <ele>612.042</ele>
        <time>2020-09-02T15:02:17Z</time>
      </trkpt>
      <trkpt lat="43.91626" lon="5.96425">
        <ele>612.361</ele>
        <time>2020-09-02T15:02:18Z</time>
      </trkpt>
      <trkpt lat="43.91619" lon="5.96418">
        <ele>612.941</ele>
        <time>2020-09-02T15:02:19Z</time>
      </trkpt>
      <trkpt lat="43.9161" lon="5.96411">
        <ele>613.328</ele>
        <time>2020-09-02T15:02:20Z</time>
      </trkpt>
      <trkpt lat="43.91601" lon="5.96404">
        <ele>613.759</ele>
        <time>2020-09-02T15:02:21Z</time>
      </trkpt>
      <trkpt lat="43.91593" lon="5.96399">
        <ele>614.137</ele>
        <time>2020-09-02T15:02:22Z</time>
      </trkpt>
      <trkpt lat="43.91584" lon="5.96398">
        <ele>614.883</ele>
        <time>2020-09-02T15:02:23Z</time>
      </trkpt>
      <trkpt lat="43.91573" lon="5.964">
        <ele>615.356</ele>
        <time>2020-09-02T15:02:24Z</time>
      </trkpt>
      <trkpt lat="43.91563" lon="5.96402">
        <ele>615.811</ele>
        <time>2020-09-02T15:02:25Z</time>
      </trkpt>
      <trkpt lat="43.91553" lon="5.96406">
        <ele>616.321</ele>
        <time>2020-09-02T15:02:26Z</time>
      </trkpt>
      <trkpt lat="43.91544" lon="5.96411">
        <ele>617.503</ele>
        <time>2020-09-02T15:02:27Z</time>
      </trkpt>
      <trkpt lat="43.91536" lon="5.96411">
        <ele>618.308</ele>
        <time>2020-09-02T15:02:28Z</time>
      </trkpt>
      <trkpt lat="43.91528" lon="5.96409">
        <ele>619.189</ele>
        <time>2020-09-02T15:02:29Z</time>
      </trkpt>
      <trkpt lat="43.91519" lon="5.96402">
        <ele>621.278</ele>
        <time>2020-09-02T15:02:30Z</time>
      </trkpt>
      <trkpt lat="43.91509" lon="5.96397">
        <ele>621.548</ele>
        <time>2020-09-02T15:02:31Z</time>
      </trkpt>
      <trkpt lat="43.91499" lon="5.96391">
        <ele>621.925</ele>
        <time>2020-09-02T15:02:32Z</time>
      </trkpt>
      <trkpt lat="43.91487" lon="5.96386">
        <ele>622.386</ele>
        <time>2020-09-02T15:02:33Z</time>
      </trkpt>
      <trkpt lat="43.91476" lon="5.96379">
        <ele>622.974</ele>
        <time>2020-09-02T15:02:34Z</time>
      </trkpt>
      <trkpt lat="43.91466" lon="5.96371">
        <ele>623.64</ele>
        <time>2020-09-02T15:02:35Z</time>
      </trkpt>
      <trkpt lat="43.91456" lon="5.96364">
        <ele>624.123</ele>
        <time>2020-09-02T15:02:36Z</time>
      </trkpt>
      <trkpt lat="43.91445" lon="5.96357">
        <ele>625.176</ele>
        <time>2020-09-02T15:02:37Z</time>
      </trkpt>
      <trkpt lat="43.91437" lon="5.96351">
        <ele>625.29</ele>
        <time>2020-09-02T15:02:38Z</time>
      </trkpt>
      <trkpt lat="43.91429" lon="5.96345">
        <ele>624.919</ele>
        <time>2020-09-02T15:02:39Z</time>
      </trkpt>
      <trkpt lat="43.91422" lon="5.96338">
        <ele>624.208</ele>
        <time>2020-09-02T15:02:40Z</time>
      </trkpt>
      <trkpt lat="43.91415" lon="5.9633">
        <ele>623.345</ele>
        <time>2020-09-02T15:02:41Z</time>
      </trkpt>
      <trkpt lat="43.91408" lon="5.96325">
        <ele>623.374</ele>
        <time>2020-09-02T15:02:42Z</time>
      </trkpt>
      <trkpt lat="43.91399" lon="5.96319">
        <ele>622.754</ele>
        <time>2020-09-02T15:02:43Z</time>
      </trkpt>
      <trkpt lat="43.91388" lon="5.96313">
        <ele>622.321</ele>
        <time>2020-09-02T15:02:44Z</time>
      </trkpt>
      <trkpt lat="43.91378" lon="5.96308">
        <ele>622.072</ele>
        <time>2020-09-02T15:02:45Z</time>
      </trkpt>
      <trkpt lat="43.91369" lon="5.96306">
        <ele>621.76</ele>
        <time>2020-09-02T15:02:46Z</time>
      </trkpt>
      <trkpt lat="43.91359" lon="5.96303">
        <ele>621.726</ele>
        <time>2020-09-02T15:02:47Z</time>
      </trkpt>
      <trkpt lat="43.91347" lon="5.96304">
        <ele>621.369</ele>
        <time>2020-09-02T15:02:48Z</time>
      </trkpt>
      <trkpt lat="43.91336" lon="5.96304">
        <ele>620.228</ele>
        <time>2020-09-02T15:02:49Z</time>
      </trkpt>
      <trkpt lat="43.91325" lon="5.96303">
        <ele>619.389</ele>
        <time>2020-09-02T15:02:50Z</time>
      </trkpt>
      <trkpt lat="43.91313" lon="5.96301">
        <ele>618.317</ele>
        <time>2020-09-02T15:02:51Z</time>
      </trkpt>
      <trkpt lat="43.91301" lon="5.96301">
        <ele>617.908</ele>
        <time>2020-09-02T15:02:52Z</time>
      </trkpt>
      <trkpt lat="43.91289" lon="5.963">
        <ele>617.01</ele>
        <time>2020-09-02T15:02:53Z</time>
      </trkpt>
      <trkpt lat="43.91277" lon="5.96299">
        <ele>616.769</ele>
        <time>2020-09-02T15:02:54Z</time>
      </trkpt>
      <trkpt lat="43.91265" lon="5.96298">
        <ele>615.929</ele>
        <time>2020-09-02T15:02:55Z</time>
      </trkpt>
      <trkpt lat="43.91253" lon="5.96295">
        <ele>615.766</ele>
        <time>2020-09-02T15:02:56Z</time>
      </trkpt>
      <trkpt lat="43.91242" lon="5.9629">
        <ele>614.667</ele>
        <time>2020-09-02T15:02:57Z</time>
      </trkpt>
      <trkpt lat="43.91233" lon="5.96286">
        <ele>613.295</ele>
        <time>2020-09-02T15:02:58Z</time>
      </trkpt>
      <trkpt lat="43.91225" lon="5.96281">
        <ele>612.371</ele>
        <time>2020-09-02T15:02:59Z</time>
      </trkpt>
      <trkpt lat="43.91218" lon="5.96274">
        <ele>611.514</ele>
        <time>2020-09-02T15:03:00Z</time>
      </trkpt>
      <trkpt lat="43.91211" lon="5.96265">
        <ele>610.688</ele>
        <time>2020-09-02T15:03:01Z</time>
      </trkpt>
      <trkpt lat="43.91206" lon="5.96254">
        <ele>610.024</ele>
        <time>2020-09-02T15:03:02Z</time>
      </trkpt>
      <trkpt lat="43.912" lon="5.96243">
        <ele>608.326</ele>
        <time>2020-09-02T15:03:03Z</time>
      </trkpt>
      <trkpt lat="43.91194" lon="5.96233">
        <ele>606.208</ele>
        <time>2020-09-02T15:03:04Z</time>
      </trkpt>
      <trkpt lat="43.91185" lon="5.96222">
        <ele>605.826</ele>
        <time>2020-09-02T15:03:05Z</time>
      </trkpt>
      <trkpt lat="43.91176" lon="5.96211">
        <ele>605.035</ele>
        <time>2020-09-02T15:03:06Z</time>
      </trkpt>
      <trkpt lat="43.91166" lon="5.962">
        <ele>604.425</ele>
        <time>2020-09-02T15:03:07Z</time>
      </trkpt>
      <trkpt lat="43.91159" lon="5.96189">
        <ele>603.652</ele>
        <time>2020-09-02T15:03:08Z</time>
      </trkpt>
      <trkpt lat="43.9115" lon="5.96178">
        <ele>603.593</ele>
        <time>2020-09-02T15:03:09Z</time>
      </trkpt>
      <trkpt lat="43.91144" lon="5.96172">
        <ele>602.771</ele>
        <time>2020-09-02T15:03:10Z</time>
      </trkpt>
      <trkpt lat="43.91138" lon="5.96161">
        <ele>602.527</ele>
        <time>2020-09-02T15:03:11Z</time>
      </trkpt>
      <trkpt lat="43.91133" lon="5.96148">
        <ele>601.71</ele>
        <time>2020-09-02T15:03:12Z</time>
      </trkpt>
      <trkpt lat="43.91128" lon="5.96134">
        <ele>601.847</ele>
        <time>2020-09-02T15:03:13Z</time>
      </trkpt>
      <trkpt lat="43.91124" lon="5.96121">
        <ele>601.629</ele>
        <time>2020-09-02T15:03:14Z</time>
      </trkpt>
      <trkpt lat="43.91119" lon="5.96109">
        <ele>602.021</ele>
        <time>2020-09-02T15:03:15Z</time>
      </trkpt>
      <trkpt lat="43.91114" lon="5.96094">
        <ele>602.408</ele>
        <time>2020-09-02T15:03:16Z</time>
      </trkpt>
      <trkpt lat="43.9111" lon="5.96082">
        <ele>603.142</ele>
        <time>2020-09-02T15:03:17Z</time>
      </trkpt>
      <trkpt lat="43.91105" lon="5.96069">
        <ele>603.461</ele>
        <time>2020-09-02T15:03:18Z</time>
      </trkpt>
      <trkpt lat="43.91102" lon="5.96057">
        <ele>603.641</ele>
        <time>2020-09-02T15:03:19Z</time>
      </trkpt>
      <trkpt lat="43.911" lon="5.96045">
        <ele>604.038</ele>
        <time>2020-09-02T15:03:20Z</time>
      </trkpt>
      <trkpt lat="43.91105" lon="5.9603">
        <ele>604.819</ele>
        <time>2020-09-02T15:03:21Z</time>
      </trkpt>
      <trkpt lat="43.91107" lon="5.96015">
        <ele>605.127</ele>
        <time>2020-09-02T15:03:22Z</time>
      </trkpt>
      <trkpt lat="43.91109" lon="5.96001">
        <ele>606.083</ele>
        <time>2020-09-02T15:03:23Z</time>
      </trkpt>
      <trkpt lat="43.91109" lon="5.95986">
        <ele>606.596</ele>
        <time>2020-09-02T15:03:24Z</time>
      </trkpt>
      <trkpt lat="43.9111" lon="5.95971">
        <ele>606.943</ele>
        <time>2020-09-02T15:03:25Z</time>
      </trkpt>
      <trkpt lat="43.91112" lon="5.95955">
        <ele>606.664</ele>
        <time>2020-09-02T15:03:26Z</time>
      </trkpt>
      <trkpt lat="43.91114" lon="5.95939">
        <ele>606.61</ele>
        <time>2020-09-02T15:03:27Z</time>
      </trkpt>
      <trkpt lat="43.91118" lon="5.95922">
        <ele>606.308</ele>
        <time>2020-09-02T15:03:28Z</time>
      </trkpt>
      <trkpt lat="43.91123" lon="5.95906">
        <ele>605.562</ele>
        <time>2020-09-02T15:03:29Z</time>
      </trkpt>
      <trkpt lat="43.91127" lon="5.9589">
        <ele>605.151</ele>
        <time>2020-09-02T15:03:30Z</time>
      </trkpt>
      <trkpt lat="43.9113" lon="5.95876">
        <ele>604.311</ele>
        <time>2020-09-02T15:03:31Z</time>
      </trkpt>
      <trkpt lat="43.9113" lon="5.95861">
        <ele>604.418</ele>
        <time>2020-09-02T15:03:32Z</time>
      </trkpt>
      <trkpt lat="43.91129" lon="5.95844">
        <ele>603.459</ele>
        <time>2020-09-02T15:03:33Z</time>
      </trkpt>
      <trkpt lat="43.91128" lon="5.95826">
        <ele>603.017</ele>
        <time>2020-09-02T15:03:34Z</time>
      </trkpt>
      <trkpt lat="43.91127" lon="5.9581">
        <ele>603.713</ele>
        <time>2020-09-02T15:03:35Z</time>
      </trkpt>
      <trkpt lat="43.91126" lon="5.95793">
        <ele>603.536</ele>
        <time>2020-09-02T15:03:36Z</time>
      </trkpt>
      <trkpt lat="43.91124" lon="5.95774">
        <ele>603.698</ele>
        <time>2020-09-02T15:03:37Z</time>
      </trkpt>
      <trkpt lat="43.91121" lon="5.95757">
        <ele>604.415</ele>
        <time>2020-09-02T15:03:38Z</time>
      </trkpt>
      <trkpt lat="43.91119" lon="5.9574">
        <ele>605.126</ele>
        <time>2020-09-02T15:03:39Z</time>
      </trkpt>
      <trkpt lat="43.91117" lon="5.95724">
        <ele>606.008</ele>
        <time>2020-09-02T15:03:40Z</time>
      </trkpt>
      <trkpt lat="43.91114" lon="5.9571">
        <ele>606.527</ele>
        <time>2020-09-02T15:03:41Z</time>
      </trkpt>
      <trkpt lat="43.91108" lon="5.95697">
        <ele>608.636</ele>
        <time>2020-09-02T15:03:42Z</time>
      </trkpt>
      <trkpt lat="43.91103" lon="5.95684">
        <ele>608.646</ele>
        <time>2020-09-02T15:03:43Z</time>
      </trkpt>
      <trkpt lat="43.91098" lon="5.95672">
        <ele>609.713</ele>
        <time>2020-09-02T15:03:44Z</time>
      </trkpt>
      <trkpt lat="43.91092" lon="5.95662">
        <ele>610.654</ele>
        <time>2020-09-02T15:03:45Z</time>
      </trkpt>
      <trkpt lat="43.91083" lon="5.95653">
        <ele>611.292</ele>
        <time>2020-09-02T15:03:46Z</time>
      </trkpt>
      <trkpt lat="43.91074" lon="5.95642">
        <ele>611.358</ele>
        <time>2020-09-02T15:03:47Z</time>
      </trkpt>
      <trkpt lat="43.91064" lon="5.95631">
        <ele>611.731</ele>
        <time>2020-09-02T15:03:48Z</time>
      </trkpt>
      <trkpt lat="43.91055" lon="5.95621">
        <ele>612.175</ele>
        <time>2020-09-02T15:03:49Z</time>
      </trkpt>
      <trkpt lat="43.91046" lon="5.95613">
        <ele>612.228</ele>
        <time>2020-09-02T15:03:50Z</time>
      </trkpt>
      <trkpt lat="43.91039" lon="5.95605">
        <ele>611.82</ele>
        <time>2020-09-02T15:03:51Z</time>
      </trkpt>
      <trkpt lat="43.91031" lon="5.95596">
        <ele>611.508</ele>
        <time>2020-09-02T15:03:52Z</time>
      </trkpt>
      <trkpt lat="43.91024" lon="5.95587">
        <ele>611.065</ele>
        <time>2020-09-02T15:03:53Z</time>
      </trkpt>
      <trkpt lat="43.91016" lon="5.95575">
        <ele>610.344</ele>
        <time>2020-09-02T15:03:54Z</time>
      </trkpt>
      <trkpt lat="43.91009" lon="5.95563">
        <ele>609.714</ele>
        <time>2020-09-02T15:03:55Z</time>
      </trkpt>
      <trkpt lat="43.91004" lon="5.9555">
        <ele>609.341</ele>
        <time>2020-09-02T15:03:56Z</time>
      </trkpt>
      <trkpt lat="43.91" lon="5.95535">
        <ele>609.262</ele>
        <time>2020-09-02T15:03:57Z</time>
      </trkpt>
      <trkpt lat="43.90997" lon="5.95518">
        <ele>609.41</ele>
        <time>2020-09-02T15:03:58Z</time>
      </trkpt>
      <trkpt lat="43.90996" lon="5.95501">
        <ele>609.286</ele>
        <time>2020-09-02T15:03:59Z</time>
      </trkpt>
      <trkpt lat="43.90994" lon="5.95487">
        <ele>609.679</ele>
        <time>2020-09-02T15:04:00Z</time>
      </trkpt>
      <trkpt lat="43.90991" lon="5.95472">
        <ele>610.688</ele>
        <time>2020-09-02T15:04:01Z</time>
      </trkpt>
      <trkpt lat="43.90988" lon="5.95459">
        <ele>611.424</ele>
        <time>2020-09-02T15:04:02Z</time>
      </trkpt>
      <trkpt lat="43.90987" lon="5.95446">
        <ele>611.826</ele>
        <time>2020-09-02T15:04:03Z</time>
      </trkpt>
      <trkpt lat="43.90986" lon="5.95433">
        <ele>611.308</ele>
        <time>2020-09-02T15:04:04Z</time>
      </trkpt>
      <trkpt lat="43.90984" lon="5.9542">
        <ele>611.426</ele>
        <time>2020-09-02T15:04:05Z</time>
      </trkpt>
      <trkpt lat="43.90981" lon="5.95406">
        <ele>611.795</ele>
        <time>2020-09-02T15:04:06Z</time>
      </trkpt>
      <trkpt lat="43.90977" lon="5.95392">
        <ele>612.215</ele>
        <time>2020-09-02T15:04:07Z</time>
      </trkpt>
      <trkpt lat="43.90972" lon="5.95377">
        <ele>612.712</ele>
        <time>2020-09-02T15:04:08Z</time>
      </trkpt>
      <trkpt lat="43.90966" lon="5.95361">
        <ele>613.323</ele>
        <time>2020-09-02T15:04:09Z</time>
      </trkpt>
      <trkpt lat="43.90959" lon="5.95344">
        <ele>613.671</ele>
        <time>2020-09-02T15:04:10Z</time>
      </trkpt>
      <trkpt lat="43.90952" lon="5.9533">
        <ele>613.637</ele>
        <time>2020-09-02T15:04:11Z</time>
      </trkpt>
      <trkpt lat="43.90944" lon="5.95317">
        <ele>613.55</ele>
        <time>2020-09-02T15:04:12Z</time>
      </trkpt>
      <trkpt lat="43.90938" lon="5.95304">
        <ele>614.596</ele>
        <time>2020-09-02T15:04:13Z</time>
      </trkpt>
      <trkpt lat="43.90932" lon="5.95288">
        <ele>614.931</ele>
        <time>2020-09-02T15:04:14Z</time>
      </trkpt>
      <trkpt lat="43.90926" lon="5.95272">
        <ele>615.224</ele>
        <time>2020-09-02T15:04:15Z</time>
      </trkpt>
      <trkpt lat="43.90919" lon="5.95256">
        <ele>615.608</ele>
        <time>2020-09-02T15:04:16Z</time>
      </trkpt>
      <trkpt lat="43.90911" lon="5.9524">
        <ele>616.227</ele>
        <time>2020-09-02T15:04:17Z</time>
      </trkpt>
      <trkpt lat="43.90902" lon="5.95226">
        <ele>616.486</ele>
        <time>2020-09-02T15:04:18Z</time>
      </trkpt>
      <trkpt lat="43.90895" lon="5.95212">
        <ele>616.316</ele>
        <time>2020-09-02T15:04:19Z</time>
      </trkpt>
      <trkpt lat="43.90888" lon="5.95198">
        <ele>616.393</ele>
        <time>2020-09-02T15:04:20Z</time>
      </trkpt>
      <trkpt lat="43.90883" lon="5.95185">
        <ele>616.044</ele>
        <time>2020-09-02T15:04:21Z</time>
      </trkpt>
      <trkpt lat="43.90878" lon="5.95173">
        <ele>615.862</ele>
        <time>2020-09-02T15:04:22Z</time>
      </trkpt>
      <trkpt lat="43.90874" lon="5.95164">
        <ele>615.398</ele>
        <time>2020-09-02T15:04:23Z</time>
      </trkpt>
      <trkpt lat="43.9087" lon="5.95155">
        <ele>615.321</ele>
        <time>2020-09-02T15:04:24Z</time>
      </trkpt>
      <trkpt lat="43.90867" lon="5.95148">
        <ele>615.298</ele>
        <time>2020-09-02T15:04:25Z</time>
      </trkpt>
      <trkpt lat="43.90864" lon="5.95141">
        <ele>615.015</ele>
        <time>2020-09-02T15:04:26Z</time>
      </trkpt>
      <trkpt lat="43.90861" lon="5.95134">
        <ele>615.026</ele>
        <time>2020-09-02T15:04:27Z</time>
      </trkpt>
      <trkpt lat="43.90858" lon="5.95129">
        <ele>614.808</ele>
        <time>2020-09-02T15:04:28Z</time>
      </trkpt>
      <trkpt lat="43.90854" lon="5.9512">
        <ele>614.867</ele>
        <time>2020-09-02T15:04:30Z</time>
      </trkpt>
      <trkpt lat="43.90849" lon="5.95118">
        <ele>615.946</ele>
        <time>2020-09-02T15:04:45Z</time>
      </trkpt>
      <trkpt lat="43.90843" lon="5.95114">
        <ele>615.966</ele>
        <time>2020-09-02T15:04:46Z</time>
      </trkpt>
      <trkpt lat="43.90837" lon="5.95111">
        <ele>615.663</ele>
        <time>2020-09-02T15:04:47Z</time>
      </trkpt>
      <trkpt lat="43.90829" lon="5.95107">
        <ele>615.484</ele>
        <time>2020-09-02T15:04:48Z</time>
      </trkpt>
      <trkpt lat="43.90821" lon="5.95102">
        <ele>615.122</ele>
        <time>2020-09-02T15:04:49Z</time>
      </trkpt>
      <trkpt lat="43.90812" lon="5.95093">
        <ele>615.188</ele>
        <time>2020-09-02T15:04:50Z</time>
      </trkpt>
      <trkpt lat="43.90802" lon="5.95084">
        <ele>615.311</ele>
        <time>2020-09-02T15:04:51Z</time>
      </trkpt>
      <trkpt lat="43.90793" lon="5.95076">
        <ele>615.689</ele>
        <time>2020-09-02T15:04:52Z</time>
      </trkpt>
      <trkpt lat="43.90785" lon="5.95069">
        <ele>615.706</ele>
        <time>2020-09-02T15:04:53Z</time>
      </trkpt>
      <trkpt lat="43.90778" lon="5.95064">
        <ele>615.426</ele>
        <time>2020-09-02T15:04:54Z</time>
      </trkpt>
      <trkpt lat="43.90772" lon="5.95057">
        <ele>614.608</ele>
        <time>2020-09-02T15:04:55Z</time>
      </trkpt>
      <trkpt lat="43.90769" lon="5.95051">
        <ele>614.156</ele>
        <time>2020-09-02T15:04:56Z</time>
      </trkpt>
      <trkpt lat="43.90765" lon="5.95043">
        <ele>614.635</ele>
        <time>2020-09-02T15:04:57Z</time>
      </trkpt>
      <trkpt lat="43.9076" lon="5.95032">
        <ele>614.835</ele>
        <time>2020-09-02T15:04:58Z</time>
      </trkpt>
      <trkpt lat="43.90754" lon="5.95021">
        <ele>615.172</ele>
        <time>2020-09-02T15:04:59Z</time>
      </trkpt>
      <trkpt lat="43.90749" lon="5.95011">
        <ele>615.273</ele>
        <time>2020-09-02T15:05:00Z</time>
      </trkpt>
      <trkpt lat="43.90742" lon="5.95">
        <ele>615.171</ele>
        <time>2020-09-02T15:05:01Z</time>
      </trkpt>
      <trkpt lat="43.90735" lon="5.94991">
        <ele>615.577</ele>
        <time>2020-09-02T15:05:02Z</time>
      </trkpt>
      <trkpt lat="43.9073" lon="5.94983">
        <ele>615.53</ele>
        <time>2020-09-02T15:05:03Z</time>
      </trkpt>
      <trkpt lat="43.90724" lon="5.94975">
        <ele>615.732</ele>
        <time>2020-09-02T15:05:04Z</time>
      </trkpt>
      <trkpt lat="43.90719" lon="5.94965">
        <ele>615.892</ele>
        <time>2020-09-02T15:05:05Z</time>
      </trkpt>
      <trkpt lat="43.90717" lon="5.94955">
        <ele>616.011</ele>
        <time>2020-09-02T15:05:06Z</time>
      </trkpt>
      <trkpt lat="43.90718" lon="5.94943">
        <ele>615.708</ele>
        <time>2020-09-02T15:05:07Z</time>
      </trkpt>
      <trkpt lat="43.90721" lon="5.94931">
        <ele>616.641</ele>
        <time>2020-09-02T15:05:08Z</time>
      </trkpt>
      <trkpt lat="43.90724" lon="5.94918">
        <ele>616.76</ele>
        <time>2020-09-02T15:05:09Z</time>
      </trkpt>
      <trkpt lat="43.90729" lon="5.94906">
        <ele>616.98</ele>
        <time>2020-09-02T15:05:10Z</time>
      </trkpt>
      <trkpt lat="43.90734" lon="5.94894">
        <ele>617.327</ele>
        <time>2020-09-02T15:05:11Z</time>
      </trkpt>
      <trkpt lat="43.9074" lon="5.94882">
        <ele>617.468</ele>
        <time>2020-09-02T15:05:12Z</time>
      </trkpt>
      <trkpt lat="43.90745" lon="5.9487">
        <ele>616.846</ele>
        <time>2020-09-02T15:05:13Z</time>
      </trkpt>
      <trkpt lat="43.90749" lon="5.94859">
        <ele>616.692</ele>
        <time>2020-09-02T15:05:14Z</time>
      </trkpt>
      <trkpt lat="43.90753" lon="5.94848">
        <ele>616.335</ele>
        <time>2020-09-02T15:05:15Z</time>
      </trkpt>
      <trkpt lat="43.90756" lon="5.94838">
        <ele>615.537</ele>
        <time>2020-09-02T15:05:16Z</time>
      </trkpt>
      <trkpt lat="43.9076" lon="5.94827">
        <ele>614.749</ele>
        <time>2020-09-02T15:05:17Z</time>
      </trkpt>
      <trkpt lat="43.90762" lon="5.94816">
        <ele>613.513</ele>
        <time>2020-09-02T15:05:18Z</time>
      </trkpt>
      <trkpt lat="43.90765" lon="5.94805">
        <ele>612.708</ele>
        <time>2020-09-02T15:05:19Z</time>
      </trkpt>
      <trkpt lat="43.90769" lon="5.94794">
        <ele>611.741</ele>
        <time>2020-09-02T15:05:20Z</time>
      </trkpt>
      <trkpt lat="43.90774" lon="5.94784">
        <ele>611.15</ele>
        <time>2020-09-02T15:05:21Z</time>
      </trkpt>
      <trkpt lat="43.9078" lon="5.94774">
        <ele>610.61</ele>
        <time>2020-09-02T15:05:22Z</time>
      </trkpt>
      <trkpt lat="43.90785" lon="5.94763">
        <ele>610.267</ele>
        <time>2020-09-02T15:05:23Z</time>
      </trkpt>
      <trkpt lat="43.9079" lon="5.94751">
        <ele>610.348</ele>
        <time>2020-09-02T15:05:24Z</time>
      </trkpt>
      <trkpt lat="43.90794" lon="5.94737">
        <ele>610.596</ele>
        <time>2020-09-02T15:05:25Z</time>
      </trkpt>
      <trkpt lat="43.90796" lon="5.94725">
        <ele>611.292</ele>
        <time>2020-09-02T15:05:26Z</time>
      </trkpt>
      <trkpt lat="43.90799" lon="5.94713">
        <ele>611.615</ele>
        <time>2020-09-02T15:05:27Z</time>
      </trkpt>
      <trkpt lat="43.90801" lon="5.94705">
        <ele>611.413</ele>
        <time>2020-09-02T15:05:28Z</time>
      </trkpt>
      <trkpt lat="43.90802" lon="5.94697">
        <ele>611.943</ele>
        <time>2020-09-02T15:05:29Z</time>
      </trkpt>
      <trkpt lat="43.90804" lon="5.94689">
        <ele>611.807</ele>
        <time>2020-09-02T15:05:30Z</time>
      </trkpt>
      <trkpt lat="43.90805" lon="5.94681">
        <ele>611.708</ele>
        <time>2020-09-02T15:05:31Z</time>
      </trkpt>
      <trkpt lat="43.90805" lon="5.94673">
        <ele>611.499</ele>
        <time>2020-09-02T15:05:32Z</time>
      </trkpt>
      <trkpt lat="43.90804" lon="5.94665">
        <ele>611.698</ele>
        <time>2020-09-02T15:05:33Z</time>
      </trkpt>
      <trkpt lat="43.90802" lon="5.94656">
        <ele>612.328</ele>
        <time>2020-09-02T15:05:34Z</time>
      </trkpt>
      <trkpt lat="43.90801" lon="5.94646">
        <ele>611.995</ele>
        <time>2020-09-02T15:05:35Z</time>
      </trkpt>
      <trkpt lat="43.908" lon="5.94635">
        <ele>611.366</ele>
        <time>2020-09-02T15:05:36Z</time>
      </trkpt>
      <trkpt lat="43.90799" lon="5.94623">
        <ele>610.794</ele>
        <time>2020-09-02T15:05:37Z</time>
      </trkpt>
      <trkpt lat="43.90799" lon="5.94611">
        <ele>610.45</ele>
        <time>2020-09-02T15:05:38Z</time>
      </trkpt>
      <trkpt lat="43.90798" lon="5.94598">
        <ele>608.833</ele>
        <time>2020-09-02T15:05:39Z</time>
      </trkpt>
      <trkpt lat="43.90797" lon="5.94588">
        <ele>607.118</ele>
        <time>2020-09-02T15:05:40Z</time>
      </trkpt>
      <trkpt lat="43.90796" lon="5.94577">
        <ele>605.698</ele>
        <time>2020-09-02T15:05:41Z</time>
      </trkpt>
      <trkpt lat="43.90796" lon="5.94566">
        <ele>605.217</ele>
        <time>2020-09-02T15:05:42Z</time>
      </trkpt>
      <trkpt lat="43.90795" lon="5.94555">
        <ele>604.008</ele>
        <time>2020-09-02T15:05:43Z</time>
      </trkpt>
      <trkpt lat="43.90793" lon="5.94544">
        <ele>603.579</ele>
        <time>2020-09-02T15:05:44Z</time>
      </trkpt>
      <trkpt lat="43.90793" lon="5.94532">
        <ele>602.788</ele>
        <time>2020-09-02T15:05:45Z</time>
      </trkpt>
      <trkpt lat="43.90793" lon="5.94518">
        <ele>602.028</ele>
        <time>2020-09-02T15:05:46Z</time>
      </trkpt>
      <trkpt lat="43.90793" lon="5.94504">
        <ele>600.365</ele>
        <time>2020-09-02T15:05:47Z</time>
      </trkpt>
      <trkpt lat="43.90793" lon="5.94491">
        <ele>599.746</ele>
        <time>2020-09-02T15:05:48Z</time>
      </trkpt>
      <trkpt lat="43.90792" lon="5.94479">
        <ele>599.824</ele>
        <time>2020-09-02T15:05:49Z</time>
      </trkpt>
      <trkpt lat="43.90792" lon="5.94467">
        <ele>599.22</ele>
        <time>2020-09-02T15:05:50Z</time>
      </trkpt>
      <trkpt lat="43.90793" lon="5.94459">
        <ele>598.423</ele>
        <time>2020-09-02T15:05:51Z</time>
      </trkpt>
      <trkpt lat="43.90794" lon="5.94451">
        <ele>598.157</ele>
        <time>2020-09-02T15:05:53Z</time>
      </trkpt>
      <trkpt lat="43.90794" lon="5.94462">
        <ele>598.5</ele>
        <time>2020-09-02T15:05:59Z</time>
      </trkpt>
      <trkpt lat="43.90793" lon="5.94468">
        <ele>599.12</ele>
        <time>2020-09-02T15:06:00Z</time>
      </trkpt>
      <trkpt lat="43.90793" lon="5.94476">
        <ele>599.408</ele>
        <time>2020-09-02T15:06:01Z</time>
      </trkpt>
      <trkpt lat="43.90793" lon="5.94486">
        <ele>599.853</ele>
        <time>2020-09-02T15:06:02Z</time>
      </trkpt>
      <trkpt lat="43.90794" lon="5.94496">
        <ele>600.112</ele>
        <time>2020-09-02T15:06:03Z</time>
      </trkpt>
      <trkpt lat="43.90794" lon="5.94507">
        <ele>600.492</ele>
        <time>2020-09-02T15:06:04Z</time>
      </trkpt>
      <trkpt lat="43.90794" lon="5.94517">
        <ele>600.579</ele>
        <time>2020-09-02T15:06:05Z</time>
      </trkpt>
      <trkpt lat="43.90793" lon="5.94528">
        <ele>601.25</ele>
        <time>2020-09-02T15:06:06Z</time>
      </trkpt>
      <trkpt lat="43.90793" lon="5.94539">
        <ele>602.098</ele>
        <time>2020-09-02T15:06:07Z</time>
      </trkpt>
      <trkpt lat="43.90793" lon="5.9455">
        <ele>603.184</ele>
        <time>2020-09-02T15:06:08Z</time>
      </trkpt>
      <trkpt lat="43.90794" lon="5.9456">
        <ele>604.067</ele>
        <time>2020-09-02T15:06:09Z</time>
      </trkpt>
      <trkpt lat="43.90796" lon="5.94569">
        <ele>604.877</ele>
        <time>2020-09-02T15:06:10Z</time>
      </trkpt>
      <trkpt lat="43.90796" lon="5.94576">
        <ele>605.561</ele>
        <time>2020-09-02T15:06:11Z</time>
      </trkpt>
      <trkpt lat="43.90795" lon="5.94584">
        <ele>607.027</ele>
        <time>2020-09-02T15:06:13Z</time>
      </trkpt>
      <trkpt lat="43.90796" lon="5.94592">
        <ele>607.808</ele>
        <time>2020-09-02T15:06:15Z</time>
      </trkpt>
      <trkpt lat="43.90797" lon="5.94599">
        <ele>608.345</ele>
        <time>2020-09-02T15:06:16Z</time>
      </trkpt>
      <trkpt lat="43.90798" lon="5.94609">
        <ele>609.024</ele>
        <time>2020-09-02T15:06:17Z</time>
      </trkpt>
      <trkpt lat="43.90798" lon="5.94621">
        <ele>609.694</ele>
        <time>2020-09-02T15:06:18Z</time>
      </trkpt>
      <trkpt lat="43.90799" lon="5.94631">
        <ele>610.361</ele>
        <time>2020-09-02T15:06:19Z</time>
      </trkpt>
      <trkpt lat="43.90799" lon="5.94641">
        <ele>610.712</ele>
        <time>2020-09-02T15:06:20Z</time>
      </trkpt>
      <trkpt lat="43.90799" lon="5.94652">
        <ele>610.97</ele>
        <time>2020-09-02T15:06:21Z</time>
      </trkpt>
      <trkpt lat="43.90801" lon="5.94661">
        <ele>611.726</ele>
        <time>2020-09-02T15:06:22Z</time>
      </trkpt>
      <trkpt lat="43.90803" lon="5.94668">
        <ele>612.119</ele>
        <time>2020-09-02T15:06:23Z</time>
      </trkpt>
      <trkpt lat="43.908" lon="5.94677">
        <ele>612.546</ele>
        <time>2020-09-02T15:06:25Z</time>
      </trkpt>
      <trkpt lat="43.90793" lon="5.94676">
        <ele>612.288</ele>
        <time>2020-09-02T15:06:27Z</time>
      </trkpt>
      <trkpt lat="43.90788" lon="5.94673">
        <ele>612.316</ele>
        <time>2020-09-02T15:06:28Z</time>
      </trkpt>
      <trkpt lat="43.9078" lon="5.9467">
        <ele>612.208</ele>
        <time>2020-09-02T15:06:29Z</time>
      </trkpt>
      <trkpt lat="43.90773" lon="5.94666">
        <ele>612.262</ele>
        <time>2020-09-02T15:06:30Z</time>
      </trkpt>
      <trkpt lat="43.90765" lon="5.94662">
        <ele>612.251</ele>
        <time>2020-09-02T15:06:31Z</time>
      </trkpt>
      <trkpt lat="43.90755" lon="5.94656">
        <ele>612.031</ele>
        <time>2020-09-02T15:06:32Z</time>
      </trkpt>
      <trkpt lat="43.90745" lon="5.94652">
        <ele>611.848</ele>
        <time>2020-09-02T15:06:33Z</time>
      </trkpt>
      <trkpt lat="43.90734" lon="5.94649">
        <ele>611.419</ele>
        <time>2020-09-02T15:06:34Z</time>
      </trkpt>
      <trkpt lat="43.90723" lon="5.94648">
        <ele>610.747</ele>
        <time>2020-09-02T15:06:35Z</time>
      </trkpt>
      <trkpt lat="43.90711" lon="5.94648">
        <ele>610.413</ele>
        <time>2020-09-02T15:06:36Z</time>
      </trkpt>
      <trkpt lat="43.907" lon="5.94647">
        <ele>610.136</ele>
        <time>2020-09-02T15:06:37Z</time>
      </trkpt>
      <trkpt lat="43.90689" lon="5.94643">
        <ele>609.779</ele>
        <time>2020-09-02T15:06:38Z</time>
      </trkpt>
      <trkpt lat="43.90679" lon="5.94638">
        <ele>609.505</ele>
        <time>2020-09-02T15:06:39Z</time>
      </trkpt>
      <trkpt lat="43.90668" lon="5.9463">
        <ele>609.425</ele>
        <time>2020-09-02T15:06:40Z</time>
      </trkpt>
      <trkpt lat="43.90657" lon="5.94619">
        <ele>609.308</ele>
        <time>2020-09-02T15:06:41Z</time>
      </trkpt>
      <trkpt lat="43.90647" lon="5.9461">
        <ele>609.235</ele>
        <time>2020-09-02T15:06:42Z</time>
      </trkpt>
      <trkpt lat="43.90637" lon="5.94601">
        <ele>608.834</ele>
        <time>2020-09-02T15:06:43Z</time>
      </trkpt>
      <trkpt lat="43.90628" lon="5.94592">
        <ele>608.564</ele>
        <time>2020-09-02T15:06:44Z</time>
      </trkpt>
      <trkpt lat="43.90619" lon="5.94583">
        <ele>608.661</ele>
        <time>2020-09-02T15:06:45Z</time>
      </trkpt>
      <trkpt lat="43.9061" lon="5.94574">
        <ele>608.552</ele>
        <time>2020-09-02T15:06:46Z</time>
      </trkpt>
      <trkpt lat="43.90602" lon="5.94562">
        <ele>607.94</ele>
        <time>2020-09-02T15:06:47Z</time>
      </trkpt>
      <trkpt lat="43.90593" lon="5.94549">
        <ele>607.896</ele>
        <time>2020-09-02T15:06:48Z</time>
      </trkpt>
      <trkpt lat="43.90584" lon="5.94539">
        <ele>608.469</ele>
        <time>2020-09-02T15:06:49Z</time>
      </trkpt>
      <trkpt lat="43.90573" lon="5.9453">
        <ele>608.894</ele>
        <time>2020-09-02T15:06:50Z</time>
      </trkpt>
      <trkpt lat="43.90563" lon="5.94523">
        <ele>608.557</ele>
        <time>2020-09-02T15:06:51Z</time>
      </trkpt>
      <trkpt lat="43.90555" lon="5.94516">
        <ele>608.822</ele>
        <time>2020-09-02T15:06:52Z</time>
      </trkpt>
      <trkpt lat="43.90549" lon="5.9451">
        <ele>609.008</ele>
        <time>2020-09-02T15:06:53Z</time>
      </trkpt>
      <trkpt lat="43.90542" lon="5.94506">
        <ele>608.827</ele>
        <time>2020-09-02T15:06:54Z</time>
      </trkpt>
      <trkpt lat="43.90534" lon="5.94503">
        <ele>608.556</ele>
        <time>2020-09-02T15:06:55Z</time>
      </trkpt>
      <trkpt lat="43.90525" lon="5.94501">
        <ele>608.366</ele>
        <time>2020-09-02T15:06:56Z</time>
      </trkpt>
      <trkpt lat="43.90514" lon="5.94497">
        <ele>608.143</ele>
        <time>2020-09-02T15:06:57Z</time>
      </trkpt>
      <trkpt lat="43.90502" lon="5.94491">
        <ele>607.684</ele>
        <time>2020-09-02T15:06:58Z</time>
      </trkpt>
      <trkpt lat="43.90491" lon="5.94483">
        <ele>606.942</ele>
        <time>2020-09-02T15:06:59Z</time>
      </trkpt>
      <trkpt lat="43.9048" lon="5.94473">
        <ele>606.398</ele>
        <time>2020-09-02T15:07:00Z</time>
      </trkpt>
      <trkpt lat="43.9047" lon="5.94463">
        <ele>605.721</ele>
        <time>2020-09-02T15:07:01Z</time>
      </trkpt>
      <trkpt lat="43.9046" lon="5.94454">
        <ele>606.125</ele>
        <time>2020-09-02T15:07:02Z</time>
      </trkpt>
      <trkpt lat="43.90452" lon="5.94446">
        <ele>606.226</ele>
        <time>2020-09-02T15:07:03Z</time>
      </trkpt>
      <trkpt lat="43.90445" lon="5.94436">
        <ele>606.008</ele>
        <time>2020-09-02T15:07:04Z</time>
      </trkpt>
      <trkpt lat="43.90438" lon="5.94424">
        <ele>606.008</ele>
        <time>2020-09-02T15:07:05Z</time>
      </trkpt>
      <trkpt lat="43.90431" lon="5.94412">
        <ele>606.03</ele>
        <time>2020-09-02T15:07:06Z</time>
      </trkpt>
      <trkpt lat="43.90426" lon="5.94402">
        <ele>605.439</ele>
        <time>2020-09-02T15:07:07Z</time>
      </trkpt>
      <trkpt lat="43.90422" lon="5.94391">
        <ele>604.959</ele>
        <time>2020-09-02T15:07:08Z</time>
      </trkpt>
      <trkpt lat="43.9042" lon="5.94379">
        <ele>604.346</ele>
        <time>2020-09-02T15:07:09Z</time>
      </trkpt>
      <trkpt lat="43.90418" lon="5.94367">
        <ele>604.267</ele>
        <time>2020-09-02T15:07:10Z</time>
      </trkpt>
      <trkpt lat="43.90417" lon="5.94354">
        <ele>604.245</ele>
        <time>2020-09-02T15:07:11Z</time>
      </trkpt>
      <trkpt lat="43.90417" lon="5.94339">
        <ele>603.851</ele>
        <time>2020-09-02T15:07:12Z</time>
      </trkpt>
      <trkpt lat="43.90413" lon="5.94323">
        <ele>603.414</ele>
        <time>2020-09-02T15:07:13Z</time>
      </trkpt>
      <trkpt lat="43.90407" lon="5.94309">
        <ele>603.519</ele>
        <time>2020-09-02T15:07:14Z</time>
      </trkpt>
      <trkpt lat="43.90399" lon="5.94296">
        <ele>603.409</ele>
        <time>2020-09-02T15:07:15Z</time>
      </trkpt>
      <trkpt lat="43.9039" lon="5.94287">
        <ele>603.319</ele>
        <time>2020-09-02T15:07:16Z</time>
      </trkpt>
      <trkpt lat="43.90379" lon="5.94279">
        <ele>603.308</ele>
        <time>2020-09-02T15:07:17Z</time>
      </trkpt>
      <trkpt lat="43.90368" lon="5.94271">
        <ele>603.799</ele>
        <time>2020-09-02T15:07:18Z</time>
      </trkpt>
      <trkpt lat="43.90357" lon="5.94264">
        <ele>604.058</ele>
        <time>2020-09-02T15:07:19Z</time>
      </trkpt>
      <trkpt lat="43.90348" lon="5.94257">
        <ele>604.488</ele>
        <time>2020-09-02T15:07:20Z</time>
      </trkpt>
      <trkpt lat="43.9034" lon="5.94251">
        <ele>604.985</ele>
        <time>2020-09-02T15:07:21Z</time>
      </trkpt>
      <trkpt lat="43.90332" lon="5.94244">
        <ele>604.266</ele>
        <time>2020-09-02T15:07:22Z</time>
      </trkpt>
      <trkpt lat="43.90325" lon="5.94238">
        <ele>604.084</ele>
        <time>2020-09-02T15:07:23Z</time>
      </trkpt>
      <trkpt lat="43.90317" lon="5.94234">
        <ele>603.67</ele>
        <time>2020-09-02T15:07:24Z</time>
      </trkpt>
      <trkpt lat="43.9031" lon="5.94227">
        <ele>602.753</ele>
        <time>2020-09-02T15:07:25Z</time>
      </trkpt>
      <trkpt lat="43.90303" lon="5.94221">
        <ele>602.657</ele>
        <time>2020-09-02T15:07:26Z</time>
      </trkpt>
      <trkpt lat="43.90298" lon="5.94209">
        <ele>602</ele>
        <time>2020-09-02T15:07:27Z</time>
      </trkpt>
      <trkpt lat="43.90294" lon="5.94199">
        <ele>600.32</ele>
        <time>2020-09-02T15:07:28Z</time>
      </trkpt>
      <trkpt lat="43.90289" lon="5.94189">
        <ele>599.008</ele>
        <time>2020-09-02T15:07:29Z</time>
      </trkpt>
      <trkpt lat="43.90283" lon="5.94178">
        <ele>597.463</ele>
        <time>2020-09-02T15:07:30Z</time>
      </trkpt>
      <trkpt lat="43.90279" lon="5.94165">
        <ele>596.872</ele>
        <time>2020-09-02T15:07:31Z</time>
      </trkpt>
      <trkpt lat="43.90276" lon="5.94149">
        <ele>595.552</ele>
        <time>2020-09-02T15:07:32Z</time>
      </trkpt>
      <trkpt lat="43.90271" lon="5.94133">
        <ele>594.689</ele>
        <time>2020-09-02T15:07:33Z</time>
      </trkpt>
      <trkpt lat="43.90267" lon="5.94116">
        <ele>594.23</ele>
        <time>2020-09-02T15:07:34Z</time>
      </trkpt>
      <trkpt lat="43.90263" lon="5.94101">
        <ele>593.578</ele>
        <time>2020-09-02T15:07:35Z</time>
      </trkpt>
      <trkpt lat="43.90258" lon="5.94086">
        <ele>593.154</ele>
        <time>2020-09-02T15:07:36Z</time>
      </trkpt>
      <trkpt lat="43.90252" lon="5.94075">
        <ele>593.277</ele>
        <time>2020-09-02T15:07:37Z</time>
      </trkpt>
      <trkpt lat="43.90245" lon="5.94063">
        <ele>592.619</ele>
        <time>2020-09-02T15:07:38Z</time>
      </trkpt>
      <trkpt lat="43.90238" lon="5.94055">
        <ele>592.809</ele>
        <time>2020-09-02T15:07:39Z</time>
      </trkpt>
      <trkpt lat="43.90231" lon="5.94048">
        <ele>592.919</ele>
        <time>2020-09-02T15:07:40Z</time>
      </trkpt>
      <trkpt lat="43.90224" lon="5.94042">
        <ele>593.008</ele>
        <time>2020-09-02T15:07:41Z</time>
      </trkpt>
      <trkpt lat="43.90219" lon="5.94034">
        <ele>592.499</ele>
        <time>2020-09-02T15:07:42Z</time>
      </trkpt>
      <trkpt lat="43.90215" lon="5.94027">
        <ele>592.488</ele>
        <time>2020-09-02T15:07:43Z</time>
      </trkpt>
      <trkpt lat="43.90211" lon="5.94021">
        <ele>591.438</ele>
        <time>2020-09-02T15:07:44Z</time>
      </trkpt>
      <trkpt lat="43.90206" lon="5.94017">
        <ele>589.935</ele>
        <time>2020-09-02T15:07:45Z</time>
      </trkpt>
      <trkpt lat="43.902" lon="5.94011">
        <ele>589.256</ele>
        <time>2020-09-02T15:07:46Z</time>
      </trkpt>
      <trkpt lat="43.90194" lon="5.94005">
        <ele>588.964</ele>
        <time>2020-09-02T15:07:47Z</time>
      </trkpt>
      <trkpt lat="43.90186" lon="5.93997">
        <ele>587.87</ele>
        <time>2020-09-02T15:07:48Z</time>
      </trkpt>
      <trkpt lat="43.90178" lon="5.93987">
        <ele>586.663</ele>
        <time>2020-09-02T15:07:49Z</time>
      </trkpt>
      <trkpt lat="43.90167" lon="5.93974">
        <ele>584.449</ele>
        <time>2020-09-02T15:07:50Z</time>
      </trkpt>
      <trkpt lat="43.90155" lon="5.93964">
        <ele>583.902</ele>
        <time>2020-09-02T15:07:51Z</time>
      </trkpt>
      <trkpt lat="43.90142" lon="5.93957">
        <ele>583.422</ele>
        <time>2020-09-02T15:07:52Z</time>
      </trkpt>
      <trkpt lat="43.9013" lon="5.93949">
        <ele>582.308</ele>
        <time>2020-09-02T15:07:53Z</time>
      </trkpt>
      <trkpt lat="43.90117" lon="5.93944">
        <ele>581.232</ele>
        <time>2020-09-02T15:07:54Z</time>
      </trkpt>
      <trkpt lat="43.90105" lon="5.93941">
        <ele>580.191</ele>
        <time>2020-09-02T15:07:55Z</time>
      </trkpt>
      <trkpt lat="43.90094" lon="5.93937">
        <ele>579.151</ele>
        <time>2020-09-02T15:07:56Z</time>
      </trkpt>
      <trkpt lat="43.90085" lon="5.93934">
        <ele>577.828</ele>
        <time>2020-09-02T15:07:57Z</time>
      </trkpt>
      <trkpt lat="43.90078" lon="5.9393">
        <ele>577.069</ele>
        <time>2020-09-02T15:07:58Z</time>
      </trkpt>
      <trkpt lat="43.90072" lon="5.93921">
        <ele>576.457</ele>
        <time>2020-09-02T15:07:59Z</time>
      </trkpt>
      <trkpt lat="43.90067" lon="5.9391">
        <ele>576.733</ele>
        <time>2020-09-02T15:08:00Z</time>
      </trkpt>
      <trkpt lat="43.90063" lon="5.93896">
        <ele>575.846</ele>
        <time>2020-09-02T15:08:01Z</time>
      </trkpt>
      <trkpt lat="43.90057" lon="5.93882">
        <ele>574.686</ele>
        <time>2020-09-02T15:08:02Z</time>
      </trkpt>
      <trkpt lat="43.90051" lon="5.93869">
        <ele>574.36</ele>
        <time>2020-09-02T15:08:03Z</time>
      </trkpt>
      <trkpt lat="43.90044" lon="5.93856">
        <ele>573.726</ele>
        <time>2020-09-02T15:08:04Z</time>
      </trkpt>
      <trkpt lat="43.90037" lon="5.93844">
        <ele>572.208</ele>
        <time>2020-09-02T15:08:05Z</time>
      </trkpt>
      <trkpt lat="43.90028" lon="5.93834">
        <ele>571.416</ele>
        <time>2020-09-02T15:08:06Z</time>
      </trkpt>
      <trkpt lat="43.9002" lon="5.93826">
        <ele>570.365</ele>
        <time>2020-09-02T15:08:07Z</time>
      </trkpt>
      <trkpt lat="43.90013" lon="5.93817">
        <ele>568.875</ele>
        <time>2020-09-02T15:08:08Z</time>
      </trkpt>
      <trkpt lat="43.90006" lon="5.93808">
        <ele>568.442</ele>
        <time>2020-09-02T15:08:09Z</time>
      </trkpt>
      <trkpt lat="43.90003" lon="5.93794">
        <ele>567.813</ele>
        <time>2020-09-02T15:08:10Z</time>
      </trkpt>
      <trkpt lat="43.9" lon="5.9378">
        <ele>568.371</ele>
        <time>2020-09-02T15:08:11Z</time>
      </trkpt>
      <trkpt lat="43.89998" lon="5.93766">
        <ele>568.387</ele>
        <time>2020-09-02T15:08:12Z</time>
      </trkpt>
      <trkpt lat="43.89996" lon="5.93753">
        <ele>568.27</ele>
        <time>2020-09-02T15:08:13Z</time>
      </trkpt>
      <trkpt lat="43.89996" lon="5.9374">
        <ele>567.389</ele>
        <time>2020-09-02T15:08:14Z</time>
      </trkpt>
      <trkpt lat="43.89997" lon="5.9373">
        <ele>566.306</ele>
        <time>2020-09-02T15:08:15Z</time>
      </trkpt>
      <trkpt lat="43.89999" lon="5.93721">
        <ele>565.226</ele>
        <time>2020-09-02T15:08:16Z</time>
      </trkpt>
      <trkpt lat="43.90002" lon="5.93712">
        <ele>564.708</ele>
        <time>2020-09-02T15:08:17Z</time>
      </trkpt>
      <trkpt lat="43.90006" lon="5.93702">
        <ele>564.086</ele>
        <time>2020-09-02T15:08:18Z</time>
      </trkpt>
      <trkpt lat="43.90012" lon="5.93696">
        <ele>563.075</ele>
        <time>2020-09-02T15:08:19Z</time>
      </trkpt>
      <trkpt lat="43.90017" lon="5.93687">
        <ele>562.765</ele>
        <time>2020-09-02T15:08:20Z</time>
      </trkpt>
      <trkpt lat="43.90024" lon="5.9368">
        <ele>561.812</ele>
        <time>2020-09-02T15:08:21Z</time>
      </trkpt>
      <trkpt lat="43.9003" lon="5.93676">
        <ele>561.483</ele>
        <time>2020-09-02T15:08:22Z</time>
      </trkpt>
      <trkpt lat="43.90036" lon="5.9367">
        <ele>561.541</ele>
        <time>2020-09-02T15:08:23Z</time>
      </trkpt>
      <trkpt lat="43.9004" lon="5.93669">
        <ele>560.347</ele>
        <time>2020-09-02T15:08:24Z</time>
      </trkpt>
      <trkpt lat="43.90045" lon="5.93666">
        <ele>560.37</ele>
        <time>2020-09-02T15:08:25Z</time>
      </trkpt>
      <trkpt lat="43.9005" lon="5.93664">
        <ele>560.498</ele>
        <time>2020-09-02T15:08:26Z</time>
      </trkpt>
      <trkpt lat="43.9005" lon="5.93655">
        <ele>558.715</ele>
        <time>2020-09-02T15:08:28Z</time>
      </trkpt>
      <trkpt lat="43.90048" lon="5.93648">
        <ele>557.526</ele>
        <time>2020-09-02T15:08:31Z</time>
      </trkpt>
      <trkpt lat="43.90037" lon="5.93646">
        <ele>557.408</ele>
        <time>2020-09-02T15:08:33Z</time>
      </trkpt>
      <trkpt lat="43.90031" lon="5.93645">
        <ele>558.097</ele>
        <time>2020-09-02T15:08:34Z</time>
      </trkpt>
      <trkpt lat="43.90021" lon="5.93643">
        <ele>558.096</ele>
        <time>2020-09-02T15:08:35Z</time>
      </trkpt>
      <trkpt lat="43.90012" lon="5.93641">
        <ele>558.336</ele>
        <time>2020-09-02T15:08:36Z</time>
      </trkpt>
      <trkpt lat="43.90004" lon="5.93641">
        <ele>558.683</ele>
        <time>2020-09-02T15:08:37Z</time>
      </trkpt>
      <trkpt lat="43.89996" lon="5.93644">
        <ele>558.864</ele>
        <time>2020-09-02T15:08:38Z</time>
      </trkpt>
      <trkpt lat="43.89988" lon="5.93645">
        <ele>558.792</ele>
        <time>2020-09-02T15:08:39Z</time>
      </trkpt>
      <trkpt lat="43.89981" lon="5.93645">
        <ele>558.438</ele>
        <time>2020-09-02T15:08:40Z</time>
      </trkpt>
      <trkpt lat="43.89973" lon="5.93646">
        <ele>558.611</ele>
        <time>2020-09-02T15:08:41Z</time>
      </trkpt>
      <trkpt lat="43.89965" lon="5.93649">
        <ele>558.946</ele>
        <time>2020-09-02T15:08:42Z</time>
      </trkpt>
      <trkpt lat="43.89958" lon="5.93654">
        <ele>558.488</ele>
        <time>2020-09-02T15:08:43Z</time>
      </trkpt>
      <trkpt lat="43.89951" lon="5.93657">
        <ele>558.016</ele>
        <time>2020-09-02T15:08:44Z</time>
      </trkpt>
      <trkpt lat="43.89945" lon="5.93662">
        <ele>557.508</ele>
        <time>2020-09-02T15:08:45Z</time>
      </trkpt>
      <trkpt lat="43.89939" lon="5.93669">
        <ele>556.922</ele>
        <time>2020-09-02T15:08:46Z</time>
      </trkpt>
      <trkpt lat="43.89932" lon="5.93677">
        <ele>556.071</ele>
        <time>2020-09-02T15:08:47Z</time>
      </trkpt>
      <trkpt lat="43.89924" lon="5.93684">
        <ele>555.331</ele>
        <time>2020-09-02T15:08:48Z</time>
      </trkpt>
      <trkpt lat="43.89916" lon="5.9369">
        <ele>555.048</ele>
        <time>2020-09-02T15:08:49Z</time>
      </trkpt>
      <trkpt lat="43.89908" lon="5.93694">
        <ele>553.689</ele>
        <time>2020-09-02T15:08:50Z</time>
      </trkpt>
      <trkpt lat="43.89901" lon="5.93696">
        <ele>553.087</ele>
        <time>2020-09-02T15:08:51Z</time>
      </trkpt>
      <trkpt lat="43.89891" lon="5.93694">
        <ele>552.933</ele>
        <time>2020-09-02T15:08:52Z</time>
      </trkpt>
      <trkpt lat="43.89881" lon="5.9369">
        <ele>552.216</ele>
        <time>2020-09-02T15:08:53Z</time>
      </trkpt>
      <trkpt lat="43.8987" lon="5.93688">
        <ele>552.042</ele>
        <time>2020-09-02T15:08:54Z</time>
      </trkpt>
      <trkpt lat="43.89859" lon="5.93687">
        <ele>552.322</ele>
        <time>2020-09-02T15:08:55Z</time>
      </trkpt>
      <trkpt lat="43.89848" lon="5.93685">
        <ele>552.414</ele>
        <time>2020-09-02T15:08:56Z</time>
      </trkpt>
      <trkpt lat="43.89838" lon="5.93681">
        <ele>553.108</ele>
        <time>2020-09-02T15:08:57Z</time>
      </trkpt>
      <trkpt lat="43.8983" lon="5.93676">
        <ele>553.352</ele>
        <time>2020-09-02T15:08:58Z</time>
      </trkpt>
      <trkpt lat="43.89824" lon="5.93675">
        <ele>553.721</ele>
        <time>2020-09-02T15:08:59Z</time>
      </trkpt>
      <trkpt lat="43.89819" lon="5.93675">
        <ele>554.571</ele>
        <time>2020-09-02T15:09:00Z</time>
      </trkpt>
      <trkpt lat="43.89811" lon="5.9368">
        <ele>554.888</ele>
        <time>2020-09-02T15:09:02Z</time>
      </trkpt>
      <trkpt lat="43.89805" lon="5.93683">
        <ele>555.049</ele>
        <time>2020-09-02T15:09:03Z</time>
      </trkpt>
      <trkpt lat="43.89798" lon="5.9369">
        <ele>554.967</ele>
        <time>2020-09-02T15:09:04Z</time>
      </trkpt>
      <trkpt lat="43.89792" lon="5.93699">
        <ele>554.453</ele>
        <time>2020-09-02T15:09:05Z</time>
      </trkpt>
      <trkpt lat="43.89783" lon="5.93706">
        <ele>554.216</ele>
        <time>2020-09-02T15:09:06Z</time>
      </trkpt>
      <trkpt lat="43.89774" lon="5.93714">
        <ele>553.282</ele>
        <time>2020-09-02T15:09:07Z</time>
      </trkpt>
      <trkpt lat="43.89765" lon="5.93723">
        <ele>552.643</ele>
        <time>2020-09-02T15:09:08Z</time>
      </trkpt>
      <trkpt lat="43.89755" lon="5.93732">
        <ele>551.817</ele>
        <time>2020-09-02T15:09:09Z</time>
      </trkpt>
      <trkpt lat="43.89744" lon="5.93739">
        <ele>551.208</ele>
        <time>2020-09-02T15:09:10Z</time>
      </trkpt>
      <trkpt lat="43.89733" lon="5.93745">
        <ele>550.726</ele>
        <time>2020-09-02T15:09:11Z</time>
      </trkpt>
      <trkpt lat="43.89723" lon="5.93749">
        <ele>550.735</ele>
        <time>2020-09-02T15:09:12Z</time>
      </trkpt>
      <trkpt lat="43.89713" lon="5.93752">
        <ele>550.565</ele>
        <time>2020-09-02T15:09:13Z</time>
      </trkpt>
      <trkpt lat="43.89704" lon="5.93754">
        <ele>550.162</ele>
        <time>2020-09-02T15:09:14Z</time>
      </trkpt>
      <trkpt lat="43.89698" lon="5.93753">
        <ele>550.073</ele>
        <time>2020-09-02T15:09:15Z</time>
      </trkpt>
      <trkpt lat="43.8969" lon="5.93753">
        <ele>549.531</ele>
        <time>2020-09-02T15:09:16Z</time>
      </trkpt>
      <trkpt lat="43.89683" lon="5.93752">
        <ele>548.087</ele>
        <time>2020-09-02T15:09:17Z</time>
      </trkpt>
      <trkpt lat="43.89676" lon="5.93751">
        <ele>547.32</ele>
        <time>2020-09-02T15:09:18Z</time>
      </trkpt>
      <trkpt lat="43.89668" lon="5.93749">
        <ele>546.314</ele>
        <time>2020-09-02T15:09:19Z</time>
      </trkpt>
      <trkpt lat="43.89658" lon="5.93746">
        <ele>545.254</ele>
        <time>2020-09-02T15:09:20Z</time>
      </trkpt>
      <trkpt lat="43.89649" lon="5.93744">
        <ele>543.709</ele>
        <time>2020-09-02T15:09:21Z</time>
      </trkpt>
      <trkpt lat="43.89639" lon="5.93743">
        <ele>541.508</ele>
        <time>2020-09-02T15:09:22Z</time>
      </trkpt>
      <trkpt lat="43.89628" lon="5.93739">
        <ele>540.999</ele>
        <time>2020-09-02T15:09:23Z</time>
      </trkpt>
      <trkpt lat="43.89617" lon="5.93736">
        <ele>540.758</ele>
        <time>2020-09-02T15:09:24Z</time>
      </trkpt>
      <trkpt lat="43.89606" lon="5.93734">
        <ele>538.538</ele>
        <time>2020-09-02T15:09:25Z</time>
      </trkpt>
      <trkpt lat="43.89595" lon="5.93732">
        <ele>537.835</ele>
        <time>2020-09-02T15:09:26Z</time>
      </trkpt>
      <trkpt lat="43.89585" lon="5.93731">
        <ele>536.826</ele>
        <time>2020-09-02T15:09:27Z</time>
      </trkpt>
      <trkpt lat="43.89575" lon="5.93731">
        <ele>535.754</ele>
        <time>2020-09-02T15:09:28Z</time>
      </trkpt>
      <trkpt lat="43.89565" lon="5.9373">
        <ele>534.97</ele>
        <time>2020-09-02T15:09:29Z</time>
      </trkpt>
      <trkpt lat="43.89559" lon="5.9373">
        <ele>534.643</ele>
        <time>2020-09-02T15:09:30Z</time>
      </trkpt>
      <trkpt lat="43.89553" lon="5.93728">
        <ele>533.523</ele>
        <time>2020-09-02T15:09:31Z</time>
      </trkpt>
      <trkpt lat="43.89547" lon="5.93724">
        <ele>532.783</ele>
        <time>2020-09-02T15:09:32Z</time>
      </trkpt>
      <trkpt lat="43.89541" lon="5.93718">
        <ele>532.111</ele>
        <time>2020-09-02T15:09:33Z</time>
      </trkpt>
      <trkpt lat="43.89535" lon="5.9371">
        <ele>531.008</ele>
        <time>2020-09-02T15:09:34Z</time>
      </trkpt>
      <trkpt lat="43.8953" lon="5.93702">
        <ele>530.31</ele>
        <time>2020-09-02T15:09:35Z</time>
      </trkpt>
      <trkpt lat="43.89523" lon="5.93694">
        <ele>529.579</ele>
        <time>2020-09-02T15:09:36Z</time>
      </trkpt>
      <trkpt lat="43.89514" lon="5.93687">
        <ele>527.989</ele>
        <time>2020-09-02T15:09:37Z</time>
      </trkpt>
      <trkpt lat="43.89505" lon="5.93678">
        <ele>527.096</ele>
        <time>2020-09-02T15:09:38Z</time>
      </trkpt>
      <trkpt lat="43.89496" lon="5.93669">
        <ele>526.137</ele>
        <time>2020-09-02T15:09:39Z</time>
      </trkpt>
      <trkpt lat="43.89486" lon="5.93662">
        <ele>524.835</ele>
        <time>2020-09-02T15:09:40Z</time>
      </trkpt>
      <trkpt lat="43.89476" lon="5.93658">
        <ele>524.111</ele>
        <time>2020-09-02T15:09:41Z</time>
      </trkpt>
      <trkpt lat="43.89466" lon="5.93652">
        <ele>523.814</ele>
        <time>2020-09-02T15:09:42Z</time>
      </trkpt>
      <trkpt lat="43.89456" lon="5.93649">
        <ele>523.149</ele>
        <time>2020-09-02T15:09:43Z</time>
      </trkpt>
      <trkpt lat="43.89447" lon="5.93645">
        <ele>521.902</ele>
        <time>2020-09-02T15:09:44Z</time>
      </trkpt>
      <trkpt lat="43.89437" lon="5.93641">
        <ele>520.322</ele>
        <time>2020-09-02T15:09:45Z</time>
      </trkpt>
      <trkpt lat="43.89429" lon="5.93639">
        <ele>518.008</ele>
        <time>2020-09-02T15:09:46Z</time>
      </trkpt>
      <trkpt lat="43.8942" lon="5.93637">
        <ele>517.452</ele>
        <time>2020-09-02T15:09:47Z</time>
      </trkpt>
      <trkpt lat="43.89411" lon="5.93637">
        <ele>516.221</ele>
        <time>2020-09-02T15:09:48Z</time>
      </trkpt>
      <trkpt lat="43.89402" lon="5.93637">
        <ele>515.081</ele>
        <time>2020-09-02T15:09:49Z</time>
      </trkpt>
      <trkpt lat="43.89393" lon="5.93637">
        <ele>513.378</ele>
        <time>2020-09-02T15:09:50Z</time>
      </trkpt>
      <trkpt lat="43.89385" lon="5.93635">
        <ele>512.179</ele>
        <time>2020-09-02T15:09:51Z</time>
      </trkpt>
      <trkpt lat="43.89376" lon="5.93633">
        <ele>511.217</ele>
        <time>2020-09-02T15:09:52Z</time>
      </trkpt>
      <trkpt lat="43.89368" lon="5.93631">
        <ele>510.763</ele>
        <time>2020-09-02T15:09:53Z</time>
      </trkpt>
      <trkpt lat="43.89359" lon="5.93633">
        <ele>509.546</ele>
        <time>2020-09-02T15:09:54Z</time>
      </trkpt>
      <trkpt lat="43.89349" lon="5.93635">
        <ele>507.322</ele>
        <time>2020-09-02T15:09:55Z</time>
      </trkpt>
      <trkpt lat="43.89337" lon="5.93638">
        <ele>505.762</ele>
        <time>2020-09-02T15:09:56Z</time>
      </trkpt>
      <trkpt lat="43.89326" lon="5.93642">
        <ele>503.708</ele>
        <time>2020-09-02T15:09:57Z</time>
      </trkpt>
      <trkpt lat="43.89314" lon="5.93644">
        <ele>501.608</ele>
        <time>2020-09-02T15:09:58Z</time>
      </trkpt>
      <trkpt lat="43.89302" lon="5.93646">
        <ele>500.44</ele>
        <time>2020-09-02T15:09:59Z</time>
      </trkpt>
      <trkpt lat="43.89291" lon="5.93648">
        <ele>499.149</ele>
        <time>2020-09-02T15:10:00Z</time>
      </trkpt>
      <trkpt lat="43.89281" lon="5.93652">
        <ele>497.839</ele>
        <time>2020-09-02T15:10:01Z</time>
      </trkpt>
      <trkpt lat="43.89271" lon="5.93653">
        <ele>496.546</ele>
        <time>2020-09-02T15:10:02Z</time>
      </trkpt>
      <trkpt lat="43.89262" lon="5.93654">
        <ele>495.697</ele>
        <time>2020-09-02T15:10:03Z</time>
      </trkpt>
      <trkpt lat="43.89255" lon="5.93655">
        <ele>494.795</ele>
        <time>2020-09-02T15:10:04Z</time>
      </trkpt>
      <trkpt lat="43.8925" lon="5.93654">
        <ele>493.881</ele>
        <time>2020-09-02T15:10:05Z</time>
      </trkpt>
      <trkpt lat="43.89246" lon="5.9366">
        <ele>493.194</ele>
        <time>2020-09-02T15:10:07Z</time>
      </trkpt>
      <trkpt lat="43.89246" lon="5.93667">
        <ele>493.084</ele>
        <time>2020-09-02T15:10:09Z</time>
      </trkpt>
      <trkpt lat="43.89249" lon="5.93672">
        <ele>491.907</ele>
        <time>2020-09-02T15:10:11Z</time>
      </trkpt>
      <trkpt lat="43.89253" lon="5.93676">
        <ele>491.717</ele>
        <time>2020-09-02T15:10:13Z</time>
      </trkpt>
      <trkpt lat="43.89258" lon="5.9368">
        <ele>491.008</ele>
        <time>2020-09-02T15:10:15Z</time>
      </trkpt>
      <trkpt lat="43.89263" lon="5.93686">
        <ele>489.896</ele>
        <time>2020-09-02T15:10:18Z</time>
      </trkpt>
      <trkpt lat="43.89267" lon="5.93689">
        <ele>489.165</ele>
        <time>2020-09-02T15:10:19Z</time>
      </trkpt>
      <trkpt lat="43.89273" lon="5.93692">
        <ele>488.585</ele>
        <time>2020-09-02T15:10:20Z</time>
      </trkpt>
      <trkpt lat="43.8928" lon="5.93697">
        <ele>487.752</ele>
        <time>2020-09-02T15:10:21Z</time>
      </trkpt>
      <trkpt lat="43.89287" lon="5.93701">
        <ele>487.213</ele>
        <time>2020-09-02T15:10:22Z</time>
      </trkpt>
      <trkpt lat="43.89295" lon="5.93706">
        <ele>486.421</ele>
        <time>2020-09-02T15:10:23Z</time>
      </trkpt>
      <trkpt lat="43.89303" lon="5.93711">
        <ele>485.127</ele>
        <time>2020-09-02T15:10:24Z</time>
      </trkpt>
      <trkpt lat="43.89311" lon="5.93713">
        <ele>483.98</ele>
        <time>2020-09-02T15:10:25Z</time>
      </trkpt>
      <trkpt lat="43.8932" lon="5.93717">
        <ele>482.877</ele>
        <time>2020-09-02T15:10:26Z</time>
      </trkpt>
      <trkpt lat="43.89328" lon="5.93723">
        <ele>481.861</ele>
        <time>2020-09-02T15:10:27Z</time>
      </trkpt>
      <trkpt lat="43.89336" lon="5.93729">
        <ele>480.827</ele>
        <time>2020-09-02T15:10:28Z</time>
      </trkpt>
      <trkpt lat="43.89343" lon="5.93734">
        <ele>480.908</ele>
        <time>2020-09-02T15:10:29Z</time>
      </trkpt>
      <trkpt lat="43.89351" lon="5.9374">
        <ele>479.925</ele>
        <time>2020-09-02T15:10:30Z</time>
      </trkpt>
      <trkpt lat="43.89359" lon="5.93745">
        <ele>479.444</ele>
        <time>2020-09-02T15:10:31Z</time>
      </trkpt>
      <trkpt lat="43.89365" lon="5.93751">
        <ele>479.164</ele>
        <time>2020-09-02T15:10:32Z</time>
      </trkpt>
      <trkpt lat="43.89367" lon="5.93759">
        <ele>478.121</ele>
        <time>2020-09-02T15:10:33Z</time>
      </trkpt>
      <trkpt lat="43.89369" lon="5.93765">
        <ele>478.052</ele>
        <time>2020-09-02T15:10:34Z</time>
      </trkpt>
      <trkpt lat="43.89364" lon="5.93776">
        <ele>478.22</ele>
        <time>2020-09-02T15:10:35Z</time>
      </trkpt>
      <trkpt lat="43.89358" lon="5.93784">
        <ele>478.056</ele>
        <time>2020-09-02T15:10:36Z</time>
      </trkpt>
      <trkpt lat="43.89353" lon="5.93791">
        <ele>476.939</ele>
        <time>2020-09-02T15:10:37Z</time>
      </trkpt>
      <trkpt lat="43.89348" lon="5.93801">
        <ele>476.034</ele>
        <time>2020-09-02T15:10:38Z</time>
      </trkpt>
      <trkpt lat="43.89346" lon="5.93812">
        <ele>474.255</ele>
        <time>2020-09-02T15:10:39Z</time>
      </trkpt>
      <trkpt lat="43.89343" lon="5.93821">
        <ele>473.41</ele>
        <time>2020-09-02T15:10:40Z</time>
      </trkpt>
      <trkpt lat="43.89342" lon="5.93829">
        <ele>472.508</ele>
        <time>2020-09-02T15:10:41Z</time>
      </trkpt>
      <trkpt lat="43.89343" lon="5.9384">
        <ele>472.651</ele>
        <time>2020-09-02T15:10:42Z</time>
      </trkpt>
      <trkpt lat="43.89344" lon="5.9385">
        <ele>472.17</ele>
        <time>2020-09-02T15:10:43Z</time>
      </trkpt>
      <trkpt lat="43.89347" lon="5.9386">
        <ele>472.08</ele>
        <time>2020-09-02T15:10:44Z</time>
      </trkpt>
      <trkpt lat="43.89351" lon="5.9387">
        <ele>470.917</ele>
        <time>2020-09-02T15:10:45Z</time>
      </trkpt>
      <trkpt lat="43.89355" lon="5.93879">
        <ele>470.888</ele>
        <time>2020-09-02T15:10:46Z</time>
      </trkpt>
      <trkpt lat="43.89357" lon="5.93889">
        <ele>470.256</ele>
        <time>2020-09-02T15:10:47Z</time>
      </trkpt>
      <trkpt lat="43.8936" lon="5.93899">
        <ele>468.812</ele>
        <time>2020-09-02T15:10:48Z</time>
      </trkpt>
      <trkpt lat="43.89363" lon="5.9391">
        <ele>467.615</ele>
        <time>2020-09-02T15:10:49Z</time>
      </trkpt>
      <trkpt lat="43.89366" lon="5.93921">
        <ele>466.583</ele>
        <time>2020-09-02T15:10:50Z</time>
      </trkpt>
      <trkpt lat="43.89369" lon="5.93932">
        <ele>465.025</ele>
        <time>2020-09-02T15:10:51Z</time>
      </trkpt>
      <trkpt lat="43.89373" lon="5.93943">
        <ele>463.717</ele>
        <time>2020-09-02T15:10:52Z</time>
      </trkpt>
      <trkpt lat="43.89376" lon="5.93953">
        <ele>463.708</ele>
        <time>2020-09-02T15:10:53Z</time>
      </trkpt>
      <trkpt lat="43.8938" lon="5.93962">
        <ele>463.386</ele>
        <time>2020-09-02T15:10:54Z</time>
      </trkpt>
      <trkpt lat="43.89385" lon="5.93974">
        <ele>462.715</ele>
        <time>2020-09-02T15:10:55Z</time>
      </trkpt>
      <trkpt lat="43.8939" lon="5.93985">
        <ele>462.435</ele>
        <time>2020-09-02T15:10:56Z</time>
      </trkpt>
      <trkpt lat="43.89394" lon="5.93995">
        <ele>461.572</ele>
        <time>2020-09-02T15:10:57Z</time>
      </trkpt>
      <trkpt lat="43.89399" lon="5.94005">
        <ele>459.693</ele>
        <time>2020-09-02T15:10:58Z</time>
      </trkpt>
      <trkpt lat="43.89403" lon="5.94014">
        <ele>458.271</ele>
        <time>2020-09-02T15:10:59Z</time>
      </trkpt>
      <trkpt lat="43.89406" lon="5.94021">
        <ele>457.477</ele>
        <time>2020-09-02T15:11:00Z</time>
      </trkpt>
      <trkpt lat="43.89407" lon="5.94028">
        <ele>456.53</ele>
        <time>2020-09-02T15:11:01Z</time>
      </trkpt>
      <trkpt lat="43.894" lon="5.94034">
        <ele>454.769</ele>
        <time>2020-09-02T15:11:03Z</time>
      </trkpt>
      <trkpt lat="43.89395" lon="5.94033">
        <ele>454.704</ele>
        <time>2020-09-02T15:11:04Z</time>
      </trkpt>
      <trkpt lat="43.8939" lon="5.94032">
        <ele>454.224</ele>
        <time>2020-09-02T15:11:05Z</time>
      </trkpt>
      <trkpt lat="43.89384" lon="5.94029">
        <ele>453.708</ele>
        <time>2020-09-02T15:11:06Z</time>
      </trkpt>
      <trkpt lat="43.89376" lon="5.94023">
        <ele>452.774</ele>
        <time>2020-09-02T15:11:07Z</time>
      </trkpt>
      <trkpt lat="43.89368" lon="5.94019">
        <ele>452.153</ele>
        <time>2020-09-02T15:11:08Z</time>
      </trkpt>
      <trkpt lat="43.89359" lon="5.94015">
        <ele>451.733</ele>
        <time>2020-09-02T15:11:09Z</time>
      </trkpt>
      <trkpt lat="43.89352" lon="5.94011">
        <ele>451.48</ele>
        <time>2020-09-02T15:11:10Z</time>
      </trkpt>
      <trkpt lat="43.89345" lon="5.94007">
        <ele>451.461</ele>
        <time>2020-09-02T15:11:11Z</time>
      </trkpt>
      <trkpt lat="43.89338" lon="5.94002">
        <ele>450.969</ele>
        <time>2020-09-02T15:11:12Z</time>
      </trkpt>
      <trkpt lat="43.89331" lon="5.93995">
        <ele>450.245</ele>
        <time>2020-09-02T15:11:13Z</time>
      </trkpt>
      <trkpt lat="43.89325" lon="5.9399">
        <ele>448.288</ele>
        <time>2020-09-02T15:11:14Z</time>
      </trkpt>
      <trkpt lat="43.89318" lon="5.93984">
        <ele>448.277</ele>
        <time>2020-09-02T15:11:15Z</time>
      </trkpt>
      <trkpt lat="43.89311" lon="5.93978">
        <ele>447.661</ele>
        <time>2020-09-02T15:11:16Z</time>
      </trkpt>
      <trkpt lat="43.89306" lon="5.93972">
        <ele>447.027</ele>
        <time>2020-09-02T15:11:17Z</time>
      </trkpt>
      <trkpt lat="43.893" lon="5.93967">
        <ele>446.908</ele>
        <time>2020-09-02T15:11:18Z</time>
      </trkpt>
      <trkpt lat="43.89294" lon="5.93961">
        <ele>446.745</ele>
        <time>2020-09-02T15:11:19Z</time>
      </trkpt>
      <trkpt lat="43.89289" lon="5.93957">
        <ele>446.624</ele>
        <time>2020-09-02T15:11:20Z</time>
      </trkpt>
      <trkpt lat="43.89283" lon="5.93952">
        <ele>446.474</ele>
        <time>2020-09-02T15:11:21Z</time>
      </trkpt>
      <trkpt lat="43.89278" lon="5.93947">
        <ele>445.371</ele>
        <time>2020-09-02T15:11:22Z</time>
      </trkpt>
      <trkpt lat="43.89272" lon="5.93943">
        <ele>444.272</ele>
        <time>2020-09-02T15:11:23Z</time>
      </trkpt>
      <trkpt lat="43.89265" lon="5.93938">
        <ele>443.69</ele>
        <time>2020-09-02T15:11:24Z</time>
      </trkpt>
      <trkpt lat="43.89257" lon="5.93933">
        <ele>443.486</ele>
        <time>2020-09-02T15:11:25Z</time>
      </trkpt>
      <trkpt lat="43.8925" lon="5.9393">
        <ele>443.279</ele>
        <time>2020-09-02T15:11:26Z</time>
      </trkpt>
      <trkpt lat="43.89243" lon="5.93927">
        <ele>442.118</ele>
        <time>2020-09-02T15:11:27Z</time>
      </trkpt>
      <trkpt lat="43.89235" lon="5.93923">
        <ele>442.298</ele>
        <time>2020-09-02T15:11:28Z</time>
      </trkpt>
      <trkpt lat="43.89228" lon="5.93919">
        <ele>441.817</ele>
        <time>2020-09-02T15:11:29Z</time>
      </trkpt>
      <trkpt lat="43.8922" lon="5.93916">
        <ele>441.308</ele>
        <time>2020-09-02T15:11:30Z</time>
      </trkpt>
      <trkpt lat="43.8921" lon="5.93916">
        <ele>440.939</ele>
        <time>2020-09-02T15:11:31Z</time>
      </trkpt>
      <trkpt lat="43.89201" lon="5.93917">
        <ele>440.098</ele>
        <time>2020-09-02T15:11:32Z</time>
      </trkpt>
      <trkpt lat="43.89192" lon="5.93916">
        <ele>439.388</ele>
        <time>2020-09-02T15:11:33Z</time>
      </trkpt>
      <trkpt lat="43.89182" lon="5.93913">
        <ele>438.025</ele>
        <time>2020-09-02T15:11:34Z</time>
      </trkpt>
      <trkpt lat="43.89172" lon="5.93913">
        <ele>436.996</ele>
        <time>2020-09-02T15:11:35Z</time>
      </trkpt>
      <trkpt lat="43.89161" lon="5.93912">
        <ele>436.124</ele>
        <time>2020-09-02T15:11:36Z</time>
      </trkpt>
      <trkpt lat="43.89149" lon="5.93908">
        <ele>435.96</ele>
        <time>2020-09-02T15:11:37Z</time>
      </trkpt>
      <trkpt lat="43.89137" lon="5.93904">
        <ele>435.713</ele>
        <time>2020-09-02T15:11:38Z</time>
      </trkpt>
      <trkpt lat="43.89126" lon="5.93901">
        <ele>434.843</ele>
        <time>2020-09-02T15:11:39Z</time>
      </trkpt>
      <trkpt lat="43.89116" lon="5.93897">
        <ele>434.364</ele>
        <time>2020-09-02T15:11:40Z</time>
      </trkpt>
      <trkpt lat="43.89107" lon="5.93892">
        <ele>434.31</ele>
        <time>2020-09-02T15:11:41Z</time>
      </trkpt>
      <trkpt lat="43.89099" lon="5.93885">
        <ele>432.608</ele>
        <time>2020-09-02T15:11:42Z</time>
      </trkpt>
      <trkpt lat="43.89091" lon="5.93878">
        <ele>431.782</ele>
        <time>2020-09-02T15:11:43Z</time>
      </trkpt>
      <trkpt lat="43.89082" lon="5.93869">
        <ele>431.251</ele>
        <time>2020-09-02T15:11:44Z</time>
      </trkpt>
      <trkpt lat="43.89073" lon="5.93862">
        <ele>430.761</ele>
        <time>2020-09-02T15:11:45Z</time>
      </trkpt>
      <trkpt lat="43.89065" lon="5.93855">
        <ele>429.978</ele>
        <time>2020-09-02T15:11:46Z</time>
      </trkpt>
      <trkpt lat="43.89057" lon="5.93849">
        <ele>428.729</ele>
        <time>2020-09-02T15:11:47Z</time>
      </trkpt>
      <trkpt lat="43.89049" lon="5.93841">
        <ele>428.137</ele>
        <time>2020-09-02T15:11:48Z</time>
      </trkpt>
      <trkpt lat="43.89043" lon="5.93831">
        <ele>426.913</ele>
        <time>2020-09-02T15:11:49Z</time>
      </trkpt>
      <trkpt lat="43.89038" lon="5.93821">
        <ele>425.936</ele>
        <time>2020-09-02T15:11:50Z</time>
      </trkpt>
      <trkpt lat="43.89033" lon="5.93809">
        <ele>424.494</ele>
        <time>2020-09-02T15:11:51Z</time>
      </trkpt>
      <trkpt lat="43.89027" lon="5.93799">
        <ele>423.657</ele>
        <time>2020-09-02T15:11:52Z</time>
      </trkpt>
      <trkpt lat="43.89021" lon="5.93791">
        <ele>423.022</ele>
        <time>2020-09-02T15:11:53Z</time>
      </trkpt>
      <trkpt lat="43.89012" lon="5.93784">
        <ele>421.708</ele>
        <time>2020-09-02T15:11:54Z</time>
      </trkpt>
      <trkpt lat="43.89003" lon="5.9378">
        <ele>421.087</ele>
        <time>2020-09-02T15:11:55Z</time>
      </trkpt>
      <trkpt lat="43.88993" lon="5.93778">
        <ele>420.526</ele>
        <time>2020-09-02T15:11:56Z</time>
      </trkpt>
      <trkpt lat="43.88984" lon="5.93776">
        <ele>419.746</ele>
        <time>2020-09-02T15:11:57Z</time>
      </trkpt>
      <trkpt lat="43.88978" lon="5.93775">
        <ele>418.223</ele>
        <time>2020-09-02T15:11:58Z</time>
      </trkpt>
      <trkpt lat="43.88971" lon="5.93774">
        <ele>418.564</ele>
        <time>2020-09-02T15:11:59Z</time>
      </trkpt>
      <trkpt lat="43.88966" lon="5.93774">
        <ele>418.062</ele>
        <time>2020-09-02T15:12:00Z</time>
      </trkpt>
      <trkpt lat="43.88959" lon="5.93774">
        <ele>417.548</ele>
        <time>2020-09-02T15:12:01Z</time>
      </trkpt>
      <trkpt lat="43.88952" lon="5.93774">
        <ele>415.971</ele>
        <time>2020-09-02T15:12:02Z</time>
      </trkpt>
      <trkpt lat="43.88943" lon="5.93773">
        <ele>415.223</ele>
        <time>2020-09-02T15:12:03Z</time>
      </trkpt>
      <trkpt lat="43.88934" lon="5.93772">
        <ele>414.683</ele>
        <time>2020-09-02T15:12:04Z</time>
      </trkpt>
      <trkpt lat="43.88924" lon="5.93771">
        <ele>413.811</ele>
        <time>2020-09-02T15:12:05Z</time>
      </trkpt>
      <trkpt lat="43.88915" lon="5.93771">
        <ele>412.908</ele>
        <time>2020-09-02T15:12:06Z</time>
      </trkpt>
      <trkpt lat="43.88906" lon="5.93771">
        <ele>412.09</ele>
        <time>2020-09-02T15:12:07Z</time>
      </trkpt>
      <trkpt lat="43.88898" lon="5.93773">
        <ele>411.329</ele>
        <time>2020-09-02T15:12:08Z</time>
      </trkpt>
      <trkpt lat="43.88891" lon="5.93774">
        <ele>410.479</ele>
        <time>2020-09-02T15:12:09Z</time>
      </trkpt>
      <trkpt lat="43.88887" lon="5.93774">
        <ele>409.996</ele>
        <time>2020-09-02T15:12:10Z</time>
      </trkpt>
      <trkpt lat="43.88881" lon="5.93771">
        <ele>410.197</ele>
        <time>2020-09-02T15:12:12Z</time>
      </trkpt>
      <trkpt lat="43.88878" lon="5.9376">
        <ele>410.385</ele>
        <time>2020-09-02T15:12:14Z</time>
      </trkpt>
      <trkpt lat="43.88877" lon="5.93751">
        <ele>410.231</ele>
        <time>2020-09-02T15:12:15Z</time>
      </trkpt>
      <trkpt lat="43.88877" lon="5.93741">
        <ele>410.444</ele>
        <time>2020-09-02T15:12:16Z</time>
      </trkpt>
      <trkpt lat="43.88877" lon="5.9373">
        <ele>409.948</ele>
        <time>2020-09-02T15:12:17Z</time>
      </trkpt>
      <trkpt lat="43.88876" lon="5.93718">
        <ele>409.261</ele>
        <time>2020-09-02T15:12:18Z</time>
      </trkpt>
      <trkpt lat="43.88874" lon="5.93704">
        <ele>408.417</ele>
        <time>2020-09-02T15:12:19Z</time>
      </trkpt>
      <trkpt lat="43.88873" lon="5.9369">
        <ele>407.408</ele>
        <time>2020-09-02T15:12:20Z</time>
      </trkpt>
      <trkpt lat="43.88873" lon="5.93676">
        <ele>406.572</ele>
        <time>2020-09-02T15:12:21Z</time>
      </trkpt>
      <trkpt lat="43.88874" lon="5.93662">
        <ele>405.741</ele>
        <time>2020-09-02T15:12:22Z</time>
      </trkpt>
      <trkpt lat="43.88875" lon="5.93646">
        <ele>404.911</ele>
        <time>2020-09-02T15:12:23Z</time>
      </trkpt>
      <trkpt lat="43.88876" lon="5.93631">
        <ele>404.598</ele>
        <time>2020-09-02T15:12:24Z</time>
      </trkpt>
      <trkpt lat="43.88877" lon="5.93615">
        <ele>404.559</ele>
        <time>2020-09-02T15:12:25Z</time>
      </trkpt>
      <trkpt lat="43.88879" lon="5.93599">
        <ele>404.417</ele>
        <time>2020-09-02T15:12:26Z</time>
      </trkpt>
      <trkpt lat="43.88881" lon="5.93582">
        <ele>403.793</ele>
        <time>2020-09-02T15:12:27Z</time>
      </trkpt>
      <trkpt lat="43.8888" lon="5.93565">
        <ele>402.966</ele>
        <time>2020-09-02T15:12:28Z</time>
      </trkpt>
      <trkpt lat="43.8888" lon="5.93548">
        <ele>402.587</ele>
        <time>2020-09-02T15:12:29Z</time>
      </trkpt>
      <trkpt lat="43.88878" lon="5.9353">
        <ele>402.342</ele>
        <time>2020-09-02T15:12:30Z</time>
      </trkpt>
      <trkpt lat="43.88877" lon="5.93513">
        <ele>401.626</ele>
        <time>2020-09-02T15:12:31Z</time>
      </trkpt>
      <trkpt lat="43.88877" lon="5.93498">
        <ele>401.708</ele>
        <time>2020-09-02T15:12:32Z</time>
      </trkpt>
      <trkpt lat="43.88876" lon="5.93483">
        <ele>401.626</ele>
        <time>2020-09-02T15:12:33Z</time>
      </trkpt>
      <trkpt lat="43.88875" lon="5.93466">
        <ele>401.175</ele>
        <time>2020-09-02T15:12:34Z</time>
      </trkpt>
      <trkpt lat="43.88873" lon="5.93449">
        <ele>401.575</ele>
        <time>2020-09-02T15:12:35Z</time>
      </trkpt>
      <trkpt lat="43.88871" lon="5.93433">
        <ele>402.282</ele>
        <time>2020-09-02T15:12:36Z</time>
      </trkpt>
      <trkpt lat="43.8887" lon="5.93419">
        <ele>402.493</ele>
        <time>2020-09-02T15:12:37Z</time>
      </trkpt>
      <trkpt lat="43.8887" lon="5.93406">
        <ele>402.461</ele>
        <time>2020-09-02T15:12:38Z</time>
      </trkpt>
      <trkpt lat="43.88871" lon="5.93394">
        <ele>402.617</ele>
        <time>2020-09-02T15:12:39Z</time>
      </trkpt>
      <trkpt lat="43.88871" lon="5.93379">
        <ele>402.57</ele>
        <time>2020-09-02T15:12:40Z</time>
      </trkpt>
      <trkpt lat="43.88871" lon="5.93364">
        <ele>402.892</ele>
        <time>2020-09-02T15:12:41Z</time>
      </trkpt>
      <trkpt lat="43.88872" lon="5.93347">
        <ele>402.773</ele>
        <time>2020-09-02T15:12:42Z</time>
      </trkpt>
      <trkpt lat="43.88873" lon="5.93329">
        <ele>402.72</ele>
        <time>2020-09-02T15:12:43Z</time>
      </trkpt>
      <trkpt lat="43.88873" lon="5.9331">
        <ele>402.208</ele>
        <time>2020-09-02T15:12:44Z</time>
      </trkpt>
      <trkpt lat="43.88874" lon="5.93291">
        <ele>401.867</ele>
        <time>2020-09-02T15:12:45Z</time>
      </trkpt>
      <trkpt lat="43.88875" lon="5.9327">
        <ele>401.676</ele>
        <time>2020-09-02T15:12:46Z</time>
      </trkpt>
      <trkpt lat="43.88877" lon="5.93249">
        <ele>400.236</ele>
        <time>2020-09-02T15:12:47Z</time>
      </trkpt>
      <trkpt lat="43.88879" lon="5.93226">
        <ele>399.773</ele>
        <time>2020-09-02T15:12:48Z</time>
      </trkpt>
      <trkpt lat="43.8888" lon="5.93203">
        <ele>399.394</ele>
        <time>2020-09-02T15:12:49Z</time>
      </trkpt>
      <trkpt lat="43.8888" lon="5.93182">
        <ele>398.942</ele>
        <time>2020-09-02T15:12:50Z</time>
      </trkpt>
      <trkpt lat="43.8888" lon="5.93162">
        <ele>398.768</ele>
        <time>2020-09-02T15:12:51Z</time>
      </trkpt>
      <trkpt lat="43.8888" lon="5.93143">
        <ele>398.441</ele>
        <time>2020-09-02T15:12:52Z</time>
      </trkpt>
      <trkpt lat="43.8888" lon="5.93124">
        <ele>398.453</ele>
        <time>2020-09-02T15:12:53Z</time>
      </trkpt>
      <trkpt lat="43.8888" lon="5.93103">
        <ele>398.004</ele>
        <time>2020-09-02T15:12:54Z</time>
      </trkpt>
      <trkpt lat="43.88879" lon="5.93082">
        <ele>398.014</ele>
        <time>2020-09-02T15:12:55Z</time>
      </trkpt>
      <trkpt lat="43.88879" lon="5.93061">
        <ele>397.508</ele>
        <time>2020-09-02T15:12:56Z</time>
      </trkpt>
      <trkpt lat="43.88878" lon="5.9304">
        <ele>397.043</ele>
        <time>2020-09-02T15:12:57Z</time>
      </trkpt>
      <trkpt lat="43.88878" lon="5.93019">
        <ele>396.852</ele>
        <time>2020-09-02T15:12:58Z</time>
      </trkpt>
      <trkpt lat="43.88878" lon="5.92999">
        <ele>396.562</ele>
        <time>2020-09-02T15:12:59Z</time>
      </trkpt>
      <trkpt lat="43.88878" lon="5.92979">
        <ele>396.029</ele>
        <time>2020-09-02T15:13:00Z</time>
      </trkpt>
      <trkpt lat="43.88878" lon="5.92959">
        <ele>396.07</ele>
        <time>2020-09-02T15:13:01Z</time>
      </trkpt>
      <trkpt lat="43.88879" lon="5.92938">
        <ele>395.398</ele>
        <time>2020-09-02T15:13:02Z</time>
      </trkpt>
      <trkpt lat="43.8888" lon="5.92917">
        <ele>394.394</ele>
        <time>2020-09-02T15:13:03Z</time>
      </trkpt>
      <trkpt lat="43.88882" lon="5.92896">
        <ele>393.347</ele>
        <time>2020-09-02T15:13:04Z</time>
      </trkpt>
      <trkpt lat="43.88883" lon="5.92875">
        <ele>393.165</ele>
        <time>2020-09-02T15:13:05Z</time>
      </trkpt>
      <trkpt lat="43.88883" lon="5.92854">
        <ele>392.968</ele>
        <time>2020-09-02T15:13:06Z</time>
      </trkpt>
      <trkpt lat="43.88883" lon="5.92832">
        <ele>392.514</ele>
        <time>2020-09-02T15:13:07Z</time>
      </trkpt>
      <trkpt lat="43.88883" lon="5.92813">
        <ele>392.008</ele>
        <time>2020-09-02T15:13:08Z</time>
      </trkpt>
      <trkpt lat="43.88884" lon="5.92792">
        <ele>391.814</ele>
        <time>2020-09-02T15:13:09Z</time>
      </trkpt>
      <trkpt lat="43.88885" lon="5.9277">
        <ele>391.443</ele>
        <time>2020-09-02T15:13:10Z</time>
      </trkpt>
      <trkpt lat="43.88887" lon="5.92748">
        <ele>390.633</ele>
        <time>2020-09-02T15:13:11Z</time>
      </trkpt>
      <trkpt lat="43.88889" lon="5.92727">
        <ele>390.63</ele>
        <time>2020-09-02T15:13:12Z</time>
      </trkpt>
      <trkpt lat="43.8889" lon="5.92707">
        <ele>390.531</ele>
        <time>2020-09-02T15:13:13Z</time>
      </trkpt>
      <trkpt lat="43.88892" lon="5.92689">
        <ele>390.719</ele>
        <time>2020-09-02T15:13:14Z</time>
      </trkpt>
      <trkpt lat="43.88894" lon="5.92673">
        <ele>390.635</ele>
        <time>2020-09-02T15:13:15Z</time>
      </trkpt>
      <trkpt lat="43.88895" lon="5.92655">
        <ele>390.648</ele>
        <time>2020-09-02T15:13:16Z</time>
      </trkpt>
      <trkpt lat="43.88896" lon="5.92637">
        <ele>390.811</ele>
        <time>2020-09-02T15:13:17Z</time>
      </trkpt>
      <trkpt lat="43.88898" lon="5.92619">
        <ele>391.021</ele>
        <time>2020-09-02T15:13:18Z</time>
      </trkpt>
      <trkpt lat="43.88899" lon="5.92599">
        <ele>391.203</ele>
        <time>2020-09-02T15:13:19Z</time>
      </trkpt>
      <trkpt lat="43.88901" lon="5.92578">
        <ele>391.308</ele>
        <time>2020-09-02T15:13:20Z</time>
      </trkpt>
      <trkpt lat="43.88903" lon="5.92557">
        <ele>391.749</ele>
        <time>2020-09-02T15:13:21Z</time>
      </trkpt>
      <trkpt lat="43.88906" lon="5.92536">
        <ele>392.238</ele>
        <time>2020-09-02T15:13:22Z</time>
      </trkpt>
      <trkpt lat="43.88909" lon="5.92516">
        <ele>392.118</ele>
        <time>2020-09-02T15:13:23Z</time>
      </trkpt>
      <trkpt lat="43.88911" lon="5.92497">
        <ele>392.315</ele>
        <time>2020-09-02T15:13:24Z</time>
      </trkpt>
      <trkpt lat="43.88913" lon="5.9248">
        <ele>392.686</ele>
        <time>2020-09-02T15:13:25Z</time>
      </trkpt>
      <trkpt lat="43.88913" lon="5.92466">
        <ele>393.064</ele>
        <time>2020-09-02T15:13:26Z</time>
      </trkpt>
      <trkpt lat="43.88914" lon="5.92455">
        <ele>393.06</ele>
        <time>2020-09-02T15:13:27Z</time>
      </trkpt>
      <trkpt lat="43.88912" lon="5.92446">
        <ele>392.743</ele>
        <time>2020-09-02T15:13:28Z</time>
      </trkpt>
      <trkpt lat="43.88908" lon="5.9244">
        <ele>392.185</ele>
        <time>2020-09-02T15:13:29Z</time>
      </trkpt>
      <trkpt lat="43.88902" lon="5.92436">
        <ele>391.289</ele>
        <time>2020-09-02T15:13:30Z</time>
      </trkpt>
      <trkpt lat="43.88895" lon="5.92433">
        <ele>390.617</ele>
        <time>2020-09-02T15:13:31Z</time>
      </trkpt>
      <trkpt lat="43.88886" lon="5.92431">
        <ele>390.008</ele>
        <time>2020-09-02T15:13:32Z</time>
      </trkpt>
      <trkpt lat="43.88877" lon="5.92432">
        <ele>389.566</ele>
        <time>2020-09-02T15:13:33Z</time>
      </trkpt>
      <trkpt lat="43.88869" lon="5.92435">
        <ele>389.055</ele>
        <time>2020-09-02T15:13:34Z</time>
      </trkpt>
      <trkpt lat="43.88861" lon="5.92442">
        <ele>388.945</ele>
        <time>2020-09-02T15:13:35Z</time>
      </trkpt>
      <trkpt lat="43.88851" lon="5.9245">
        <ele>387.992</ele>
        <time>2020-09-02T15:13:36Z</time>
      </trkpt>
      <trkpt lat="43.88843" lon="5.92457">
        <ele>387.623</ele>
        <time>2020-09-02T15:13:37Z</time>
      </trkpt>
      <trkpt lat="43.88834" lon="5.92465">
        <ele>386.591</ele>
        <time>2020-09-02T15:13:38Z</time>
      </trkpt>
      <trkpt lat="43.88825" lon="5.92472">
        <ele>385.477</ele>
        <time>2020-09-02T15:13:39Z</time>
      </trkpt>
      <trkpt lat="43.88813" lon="5.92477">
        <ele>384.93</ele>
        <time>2020-09-02T15:13:40Z</time>
      </trkpt>
      <trkpt lat="43.88802" lon="5.92481">
        <ele>384.248</ele>
        <time>2020-09-02T15:13:41Z</time>
      </trkpt>
      <trkpt lat="43.8879" lon="5.92483">
        <ele>383.661</ele>
        <time>2020-09-02T15:13:42Z</time>
      </trkpt>
      <trkpt lat="43.88779" lon="5.92485">
        <ele>382.917</ele>
        <time>2020-09-02T15:13:43Z</time>
      </trkpt>
      <trkpt lat="43.88769" lon="5.92487">
        <ele>381.908</ele>
        <time>2020-09-02T15:13:44Z</time>
      </trkpt>
      <trkpt lat="43.88759" lon="5.92489">
        <ele>381.872</ele>
        <time>2020-09-02T15:13:45Z</time>
      </trkpt>
      <trkpt lat="43.88749" lon="5.92494">
        <ele>381.361</ele>
        <time>2020-09-02T15:13:46Z</time>
      </trkpt>
      <trkpt lat="43.88739" lon="5.92498">
        <ele>380.961</ele>
        <time>2020-09-02T15:13:47Z</time>
      </trkpt>
      <trkpt lat="43.88731" lon="5.92505">
        <ele>379.938</ele>
        <time>2020-09-02T15:13:48Z</time>
      </trkpt>
      <trkpt lat="43.88722" lon="5.92511">
        <ele>379.239</ele>
        <time>2020-09-02T15:13:49Z</time>
      </trkpt>
      <trkpt lat="43.88714" lon="5.92512">
        <ele>378.857</ele>
        <time>2020-09-02T15:13:50Z</time>
      </trkpt>
      <trkpt lat="43.88707" lon="5.92515">
        <ele>377.533</ele>
        <time>2020-09-02T15:13:51Z</time>
      </trkpt>
      <trkpt lat="43.887" lon="5.92516">
        <ele>375.726</ele>
        <time>2020-09-02T15:13:52Z</time>
      </trkpt>
      <trkpt lat="43.88693" lon="5.92515">
        <ele>374.386</ele>
        <time>2020-09-02T15:13:53Z</time>
      </trkpt>
      <trkpt lat="43.88686" lon="5.92517">
        <ele>372.46</ele>
        <time>2020-09-02T15:13:54Z</time>
      </trkpt>
      <trkpt lat="43.88678" lon="5.92516">
        <ele>372.026</ele>
        <time>2020-09-02T15:13:55Z</time>
      </trkpt>
      <trkpt lat="43.88671" lon="5.92515">
        <ele>371.308</ele>
        <time>2020-09-02T15:13:56Z</time>
      </trkpt>
      <trkpt lat="43.88664" lon="5.92516">
        <ele>369.716</ele>
        <time>2020-09-02T15:13:57Z</time>
      </trkpt>
      <trkpt lat="43.88656" lon="5.92516">
        <ele>369.335</ele>
        <time>2020-09-02T15:13:58Z</time>
      </trkpt>
      <trkpt lat="43.88648" lon="5.92517">
        <ele>368.895</ele>
        <time>2020-09-02T15:13:59Z</time>
      </trkpt>
      <trkpt lat="43.88641" lon="5.92518">
        <ele>367.522</ele>
        <time>2020-09-02T15:14:00Z</time>
      </trkpt>
      <trkpt lat="43.88634" lon="5.92519">
        <ele>366.993</ele>
        <time>2020-09-02T15:14:01Z</time>
      </trkpt>
      <trkpt lat="43.88628" lon="5.92519">
        <ele>366.411</ele>
        <time>2020-09-02T15:14:02Z</time>
      </trkpt>
      <trkpt lat="43.8862" lon="5.92519">
        <ele>365.757</ele>
        <time>2020-09-02T15:14:04Z</time>
      </trkpt>
      <trkpt lat="43.88614" lon="5.92513">
        <ele>365.05</ele>
        <time>2020-09-02T15:14:49Z</time>
      </trkpt>
      <trkpt lat="43.88611" lon="5.92508">
        <ele>364.933</ele>
        <time>2020-09-02T15:14:50Z</time>
      </trkpt>
      <trkpt lat="43.88609" lon="5.92501">
        <ele>365.023</ele>
        <time>2020-09-02T15:14:51Z</time>
      </trkpt>
      <trkpt lat="43.88608" lon="5.92491">
        <ele>364.815</ele>
        <time>2020-09-02T15:14:52Z</time>
      </trkpt>
      <trkpt lat="43.88606" lon="5.9248">
        <ele>364.808</ele>
        <time>2020-09-02T15:14:53Z</time>
      </trkpt>
      <trkpt lat="43.88602" lon="5.92465">
        <ele>365.221</ele>
        <time>2020-09-02T15:14:54Z</time>
      </trkpt>
      <trkpt lat="43.88597" lon="5.92451">
        <ele>365.95</ele>
        <time>2020-09-02T15:14:55Z</time>
      </trkpt>
      <trkpt lat="43.88589" lon="5.92438">
        <ele>366.33</ele>
        <time>2020-09-02T15:14:56Z</time>
      </trkpt>
      <trkpt lat="43.8858" lon="5.92425">
        <ele>366.567</ele>
        <time>2020-09-02T15:14:57Z</time>
      </trkpt>
      <trkpt lat="43.88572" lon="5.92411">
        <ele>367.018</ele>
        <time>2020-09-02T15:14:58Z</time>
      </trkpt>
      <trkpt lat="43.88564" lon="5.92397">
        <ele>367.226</ele>
        <time>2020-09-02T15:14:59Z</time>
      </trkpt>
      <trkpt lat="43.88559" lon="5.9238">
        <ele>367.272</ele>
        <time>2020-09-02T15:15:00Z</time>
      </trkpt>
      <trkpt lat="43.88557" lon="5.92362">
        <ele>367.855</ele>
        <time>2020-09-02T15:15:01Z</time>
      </trkpt>
      <trkpt lat="43.88556" lon="5.92346">
        <ele>367.896</ele>
        <time>2020-09-02T15:15:02Z</time>
      </trkpt>
      <trkpt lat="43.88556" lon="5.92329">
        <ele>368.431</ele>
        <time>2020-09-02T15:15:03Z</time>
      </trkpt>
      <trkpt lat="43.88558" lon="5.92314">
        <ele>368.724</ele>
        <time>2020-09-02T15:15:04Z</time>
      </trkpt>
      <trkpt lat="43.88561" lon="5.92298">
        <ele>369.408</ele>
        <time>2020-09-02T15:15:05Z</time>
      </trkpt>
      <trkpt lat="43.88564" lon="5.92281">
        <ele>369.827</ele>
        <time>2020-09-02T15:15:06Z</time>
      </trkpt>
      <trkpt lat="43.88567" lon="5.92265">
        <ele>369.286</ele>
        <time>2020-09-02T15:15:07Z</time>
      </trkpt>
      <trkpt lat="43.88569" lon="5.9225">
        <ele>369.316</ele>
        <time>2020-09-02T15:15:08Z</time>
      </trkpt>
      <trkpt lat="43.88569" lon="5.92237">
        <ele>369.473</ele>
        <time>2020-09-02T15:15:09Z</time>
      </trkpt>
      <trkpt lat="43.88568" lon="5.92226">
        <ele>369.364</ele>
        <time>2020-09-02T15:15:10Z</time>
      </trkpt>
      <trkpt lat="43.88567" lon="5.92216">
        <ele>369.512</ele>
        <time>2020-09-02T15:15:11Z</time>
      </trkpt>
      <trkpt lat="43.88565" lon="5.92209">
        <ele>369.078</ele>
        <time>2020-09-02T15:15:12Z</time>
      </trkpt>
      <trkpt lat="43.88565" lon="5.92203">
        <ele>369.241</ele>
        <time>2020-09-02T15:15:13Z</time>
      </trkpt>
      <trkpt lat="43.88567" lon="5.92191">
        <ele>369.522</ele>
        <time>2020-09-02T15:15:15Z</time>
      </trkpt>
      <trkpt lat="43.88563" lon="5.92183">
        <ele>369.162</ele>
        <time>2020-09-02T15:15:17Z</time>
      </trkpt>
      <trkpt lat="43.88558" lon="5.92183">
        <ele>368.008</ele>
        <time>2020-09-02T15:15:44Z</time>
      </trkpt>
      <trkpt lat="43.88558" lon="5.92196">
        <ele>368.008</ele>
        <time>2020-09-02T15:15:46Z</time>
      </trkpt>
      <trkpt lat="43.88561" lon="5.92204">
        <ele>367.95</ele>
        <time>2020-09-02T15:15:47Z</time>
      </trkpt>
      <trkpt lat="43.88563" lon="5.92216">
        <ele>368.369</ele>
        <time>2020-09-02T15:15:48Z</time>
      </trkpt>
      <trkpt lat="43.88564" lon="5.92229">
        <ele>368.679</ele>
        <time>2020-09-02T15:15:49Z</time>
      </trkpt>
      <trkpt lat="43.88566" lon="5.92244">
        <ele>369.286</ele>
        <time>2020-09-02T15:15:50Z</time>
      </trkpt>
      <trkpt lat="43.88565" lon="5.92261">
        <ele>370.027</ele>
        <time>2020-09-02T15:15:51Z</time>
      </trkpt>
      <trkpt lat="43.88561" lon="5.92275">
        <ele>369.055</ele>
        <time>2020-09-02T15:15:52Z</time>
      </trkpt>
      <trkpt lat="43.88558" lon="5.92288">
        <ele>369.091</ele>
        <time>2020-09-02T15:15:53Z</time>
      </trkpt>
      <trkpt lat="43.88554" lon="5.92298">
        <ele>369.034</ele>
        <time>2020-09-02T15:15:54Z</time>
      </trkpt>
      <trkpt lat="43.88551" lon="5.92306">
        <ele>368.981</ele>
        <time>2020-09-02T15:15:55Z</time>
      </trkpt>
      <trkpt lat="43.88547" lon="5.92314">
        <ele>368.661</ele>
        <time>2020-09-02T15:15:56Z</time>
      </trkpt>
      <trkpt lat="43.88542" lon="5.92322">
        <ele>368.117</ele>
        <time>2020-09-02T15:15:57Z</time>
      </trkpt>
      <trkpt lat="43.88537" lon="5.92329">
        <ele>367.608</ele>
        <time>2020-09-02T15:15:58Z</time>
      </trkpt>
      <trkpt lat="43.88533" lon="5.92336">
        <ele>366.946</ele>
        <time>2020-09-02T15:15:59Z</time>
      </trkpt>
      <trkpt lat="43.88529" lon="5.92343">
        <ele>366.585</ele>
        <time>2020-09-02T15:16:00Z</time>
      </trkpt>
      <trkpt lat="43.88526" lon="5.92353">
        <ele>366.235</ele>
        <time>2020-09-02T15:16:01Z</time>
      </trkpt>
      <trkpt lat="43.88524" lon="5.92361">
        <ele>364.962</ele>
        <time>2020-09-02T15:16:02Z</time>
      </trkpt>
      <trkpt lat="43.88521" lon="5.9237">
        <ele>364.263</ele>
        <time>2020-09-02T15:16:03Z</time>
      </trkpt>
      <trkpt lat="43.88519" lon="5.92379">
        <ele>362.871</ele>
        <time>2020-09-02T15:16:04Z</time>
      </trkpt>
      <trkpt lat="43.88516" lon="5.92389">
        <ele>362.177</ele>
        <time>2020-09-02T15:16:05Z</time>
      </trkpt>
      <trkpt lat="43.88514" lon="5.92399">
        <ele>361.32</ele>
        <time>2020-09-02T15:16:06Z</time>
      </trkpt>
      <trkpt lat="43.88512" lon="5.92409">
        <ele>360.325</ele>
        <time>2020-09-02T15:16:07Z</time>
      </trkpt>
      <trkpt lat="43.88508" lon="5.92417">
        <ele>359.926</ele>
        <time>2020-09-02T15:16:08Z</time>
      </trkpt>
      <trkpt lat="43.88506" lon="5.92426">
        <ele>359.408</ele>
        <time>2020-09-02T15:16:09Z</time>
      </trkpt>
      <trkpt lat="43.88503" lon="5.92433">
        <ele>358.508</ele>
        <time>2020-09-02T15:16:10Z</time>
      </trkpt>
      <trkpt lat="43.88501" lon="5.92441">
        <ele>358.21</ele>
        <time>2020-09-02T15:16:11Z</time>
      </trkpt>
      <trkpt lat="43.88495" lon="5.92443">
        <ele>357.649</ele>
        <time>2020-09-02T15:16:13Z</time>
      </trkpt>
      <trkpt lat="43.8849" lon="5.92437">
        <ele>356.539</ele>
        <time>2020-09-02T15:16:15Z</time>
      </trkpt>
      <trkpt lat="43.88489" lon="5.92422">
        <ele>356.286</ele>
        <time>2020-09-02T15:16:17Z</time>
      </trkpt>
      <trkpt lat="43.88489" lon="5.92409">
        <ele>355.817</ele>
        <time>2020-09-02T15:16:18Z</time>
      </trkpt>
      <trkpt lat="43.88489" lon="5.92397">
        <ele>355.685</ele>
        <time>2020-09-02T15:16:19Z</time>
      </trkpt>
      <trkpt lat="43.88488" lon="5.92384">
        <ele>355.761</ele>
        <time>2020-09-02T15:16:20Z</time>
      </trkpt>
      <trkpt lat="43.88488" lon="5.92369">
        <ele>355.674</ele>
        <time>2020-09-02T15:16:21Z</time>
      </trkpt>
      <trkpt lat="43.88486" lon="5.92353">
        <ele>355.664</ele>
        <time>2020-09-02T15:16:22Z</time>
      </trkpt>
      <trkpt lat="43.88486" lon="5.9234">
        <ele>355.506</ele>
        <time>2020-09-02T15:16:23Z</time>
      </trkpt>
      <trkpt lat="43.88485" lon="5.92326">
        <ele>355.516</ele>
        <time>2020-09-02T15:16:24Z</time>
      </trkpt>
      <trkpt lat="43.88484" lon="5.92314">
        <ele>355.708</ele>
        <time>2020-09-02T15:16:25Z</time>
      </trkpt>
      <trkpt lat="43.88483" lon="5.92301">
        <ele>355.844</ele>
        <time>2020-09-02T15:16:26Z</time>
      </trkpt>
      <trkpt lat="43.8848" lon="5.92289">
        <ele>355.723</ele>
        <time>2020-09-02T15:16:27Z</time>
      </trkpt>
      <trkpt lat="43.88477" lon="5.92279">
        <ele>355.953</ele>
        <time>2020-09-02T15:16:28Z</time>
      </trkpt>
      <trkpt lat="43.88475" lon="5.9227">
        <ele>355.97</ele>
        <time>2020-09-02T15:16:29Z</time>
      </trkpt>
      <trkpt lat="43.88472" lon="5.92263">
        <ele>354.941</ele>
        <time>2020-09-02T15:16:30Z</time>
      </trkpt>
      <trkpt lat="43.88467" lon="5.92258">
        <ele>354.869</ele>
        <time>2020-09-02T15:16:32Z</time>
      </trkpt>
      <trkpt lat="43.88457" lon="5.92261">
        <ele>353.535</ele>
        <time>2020-09-02T15:16:34Z</time>
      </trkpt>
      <trkpt lat="43.8845" lon="5.92265">
        <ele>353.048</ele>
        <time>2020-09-02T15:16:35Z</time>
      </trkpt>
      <trkpt lat="43.88442" lon="5.9227">
        <ele>352.676</ele>
        <time>2020-09-02T15:16:36Z</time>
      </trkpt>
      <trkpt lat="43.88434" lon="5.92275">
        <ele>350.99</ele>
        <time>2020-09-02T15:16:37Z</time>
      </trkpt>
      <trkpt lat="43.88427" lon="5.92275">
        <ele>350.819</ele>
        <time>2020-09-02T15:16:38Z</time>
      </trkpt>
      <trkpt lat="43.88418" lon="5.92274">
        <ele>349.908</ele>
        <time>2020-09-02T15:16:39Z</time>
      </trkpt>
      <trkpt lat="43.88408" lon="5.92273">
        <ele>350.135</ele>
        <time>2020-09-02T15:16:40Z</time>
      </trkpt>
      <trkpt lat="43.88397" lon="5.92272">
        <ele>349.944</ele>
        <time>2020-09-02T15:16:41Z</time>
      </trkpt>
      <trkpt lat="43.88385" lon="5.9227">
        <ele>349.044</ele>
        <time>2020-09-02T15:16:42Z</time>
      </trkpt>
      <trkpt lat="43.88371" lon="5.92268">
        <ele>348.481</ele>
        <time>2020-09-02T15:16:43Z</time>
      </trkpt>
      <trkpt lat="43.88357" lon="5.92268">
        <ele>348.192</ele>
        <time>2020-09-02T15:16:44Z</time>
      </trkpt>
      <trkpt lat="43.88344" lon="5.92268">
        <ele>347.61</ele>
        <time>2020-09-02T15:16:45Z</time>
      </trkpt>
      <trkpt lat="43.88332" lon="5.92269">
        <ele>347.686</ele>
        <time>2020-09-02T15:16:46Z</time>
      </trkpt>
      <trkpt lat="43.88321" lon="5.92271">
        <ele>347.239</ele>
        <time>2020-09-02T15:16:47Z</time>
      </trkpt>
      <trkpt lat="43.88309" lon="5.92273">
        <ele>347.116</ele>
        <time>2020-09-02T15:16:48Z</time>
      </trkpt>
      <trkpt lat="43.88301" lon="5.92276">
        <ele>346.276</ele>
        <time>2020-09-02T15:16:49Z</time>
      </trkpt>
      <trkpt lat="43.88295" lon="5.92277">
        <ele>346.513</ele>
        <time>2020-09-02T15:16:50Z</time>
      </trkpt>
      <trkpt lat="43.88289" lon="5.92273">
        <ele>346.608</ele>
        <time>2020-09-02T15:16:52Z</time>
      </trkpt>
      <trkpt lat="43.88286" lon="5.92268">
        <ele>346.329</ele>
        <time>2020-09-02T15:16:53Z</time>
      </trkpt>
      <trkpt lat="43.88283" lon="5.92261">
        <ele>346.438</ele>
        <time>2020-09-02T15:16:54Z</time>
      </trkpt>
      <trkpt lat="43.8828" lon="5.92247">
        <ele>346.518</ele>
        <time>2020-09-02T15:16:55Z</time>
      </trkpt>
      <trkpt lat="43.88276" lon="5.92233">
        <ele>346.465</ele>
        <time>2020-09-02T15:16:56Z</time>
      </trkpt>
      <trkpt lat="43.88271" lon="5.9222">
        <ele>346.526</ele>
        <time>2020-09-02T15:16:57Z</time>
      </trkpt>
      <trkpt lat="43.88264" lon="5.92208">
        <ele>346.464</ele>
        <time>2020-09-02T15:16:58Z</time>
      </trkpt>
      <trkpt lat="43.88254" lon="5.92198">
        <ele>346.77</ele>
        <time>2020-09-02T15:16:59Z</time>
      </trkpt>
      <trkpt lat="43.88244" lon="5.92187">
        <ele>346.693</ele>
        <time>2020-09-02T15:17:00Z</time>
      </trkpt>
      <trkpt lat="43.88233" lon="5.92177">
        <ele>346.691</ele>
        <time>2020-09-02T15:17:01Z</time>
      </trkpt>
      <trkpt lat="43.88222" lon="5.92168">
        <ele>345.981</ele>
        <time>2020-09-02T15:17:02Z</time>
      </trkpt>
      <trkpt lat="43.88212" lon="5.92158">
        <ele>345.919</ele>
        <time>2020-09-02T15:17:03Z</time>
      </trkpt>
      <trkpt lat="43.88202" lon="5.92147">
        <ele>345.908</ele>
        <time>2020-09-02T15:17:04Z</time>
      </trkpt>
      <trkpt lat="43.88193" lon="5.92134">
        <ele>346.067</ele>
        <time>2020-09-02T15:17:05Z</time>
      </trkpt>
      <trkpt lat="43.88186" lon="5.92119">
        <ele>346.016</ele>
        <time>2020-09-02T15:17:06Z</time>
      </trkpt>
      <trkpt lat="43.88179" lon="5.92104">
        <ele>345.886</ele>
        <time>2020-09-02T15:17:07Z</time>
      </trkpt>
      <trkpt lat="43.88172" lon="5.92089">
        <ele>345.873</ele>
        <time>2020-09-02T15:17:08Z</time>
      </trkpt>
      <trkpt lat="43.88164" lon="5.92076">
        <ele>345.714</ele>
        <time>2020-09-02T15:17:09Z</time>
      </trkpt>
      <trkpt lat="43.88157" lon="5.92062">
        <ele>345.522</ele>
        <time>2020-09-02T15:17:10Z</time>
      </trkpt>
      <trkpt lat="43.8815" lon="5.92049">
        <ele>345.288</ele>
        <time>2020-09-02T15:17:11Z</time>
      </trkpt>
      <trkpt lat="43.88144" lon="5.92036">
        <ele>345.141</ele>
        <time>2020-09-02T15:17:12Z</time>
      </trkpt>
      <trkpt lat="43.88137" lon="5.92024">
        <ele>345.321</ele>
        <time>2020-09-02T15:17:13Z</time>
      </trkpt>
      <trkpt lat="43.88131" lon="5.92012">
        <ele>345.341</ele>
        <time>2020-09-02T15:17:14Z</time>
      </trkpt>
      <trkpt lat="43.88125" lon="5.92001">
        <ele>345.305</ele>
        <time>2020-09-02T15:17:15Z</time>
      </trkpt>
      <trkpt lat="43.88121" lon="5.91991">
        <ele>345.408</ele>
        <time>2020-09-02T15:17:16Z</time>
      </trkpt>
      <trkpt lat="43.88118" lon="5.91981">
        <ele>345.32</ele>
        <time>2020-09-02T15:17:17Z</time>
      </trkpt>
      <trkpt lat="43.88116" lon="5.9197">
        <ele>345.379</ele>
        <time>2020-09-02T15:17:18Z</time>
      </trkpt>
      <trkpt lat="43.88113" lon="5.91961">
        <ele>345.289</ele>
        <time>2020-09-02T15:17:19Z</time>
      </trkpt>
      <trkpt lat="43.88111" lon="5.9195">
        <ele>345.436</ele>
        <time>2020-09-02T15:17:20Z</time>
      </trkpt>
      <trkpt lat="43.88111" lon="5.91938">
        <ele>345.497</ele>
        <time>2020-09-02T15:17:21Z</time>
      </trkpt>
      <trkpt lat="43.88111" lon="5.91926">
        <ele>345.365</ele>
        <time>2020-09-02T15:17:22Z</time>
      </trkpt>
      <trkpt lat="43.88113" lon="5.91913">
        <ele>345.361</ele>
        <time>2020-09-02T15:17:23Z</time>
      </trkpt>
      <trkpt lat="43.88116" lon="5.91898">
        <ele>345.074</ele>
        <time>2020-09-02T15:17:24Z</time>
      </trkpt>
      <trkpt lat="43.88119" lon="5.91881">
        <ele>345.431</ele>
        <time>2020-09-02T15:17:25Z</time>
      </trkpt>
      <trkpt lat="43.88122" lon="5.91865">
        <ele>344.661</ele>
        <time>2020-09-02T15:17:26Z</time>
      </trkpt>
      <trkpt lat="43.88126" lon="5.91849">
        <ele>344.907</ele>
        <time>2020-09-02T15:17:27Z</time>
      </trkpt>
      <trkpt lat="43.88133" lon="5.91835">
        <ele>345.108</ele>
        <time>2020-09-02T15:17:28Z</time>
      </trkpt>
      <trkpt lat="43.88138" lon="5.9182">
        <ele>345.171</ele>
        <time>2020-09-02T15:17:29Z</time>
      </trkpt>
      <trkpt lat="43.88143" lon="5.91804">
        <ele>344.89</ele>
        <time>2020-09-02T15:17:30Z</time>
      </trkpt>
      <trkpt lat="43.88146" lon="5.91786">
        <ele>345.08</ele>
        <time>2020-09-02T15:17:31Z</time>
      </trkpt>
      <trkpt lat="43.88148" lon="5.91769">
        <ele>344.837</ele>
        <time>2020-09-02T15:17:32Z</time>
      </trkpt>
      <trkpt lat="43.88151" lon="5.91751">
        <ele>344.798</ele>
        <time>2020-09-02T15:17:33Z</time>
      </trkpt>
      <trkpt lat="43.88152" lon="5.91735">
        <ele>344.386</ele>
        <time>2020-09-02T15:17:34Z</time>
      </trkpt>
      <trkpt lat="43.88153" lon="5.91717">
        <ele>344.142</ele>
        <time>2020-09-02T15:17:35Z</time>
      </trkpt>
      <trkpt lat="43.88155" lon="5.917">
        <ele>344.095</ele>
        <time>2020-09-02T15:17:36Z</time>
      </trkpt>
      <trkpt lat="43.88156" lon="5.91682">
        <ele>343.998</ele>
        <time>2020-09-02T15:17:37Z</time>
      </trkpt>
      <trkpt lat="43.88157" lon="5.91663">
        <ele>344.415</ele>
        <time>2020-09-02T15:17:38Z</time>
      </trkpt>
      <trkpt lat="43.88157" lon="5.91644">
        <ele>344.426</ele>
        <time>2020-09-02T15:17:39Z</time>
      </trkpt>
      <trkpt lat="43.88156" lon="5.91625">
        <ele>344.108</ele>
        <time>2020-09-02T15:17:40Z</time>
      </trkpt>
      <trkpt lat="43.88155" lon="5.91605">
        <ele>344.377</ele>
        <time>2020-09-02T15:17:41Z</time>
      </trkpt>
      <trkpt lat="43.88154" lon="5.91585">
        <ele>344.236</ele>
        <time>2020-09-02T15:17:42Z</time>
      </trkpt>
      <trkpt lat="43.88153" lon="5.91565">
        <ele>344.216</ele>
        <time>2020-09-02T15:17:43Z</time>
      </trkpt>
      <trkpt lat="43.88151" lon="5.91546">
        <ele>344.183</ele>
        <time>2020-09-02T15:17:44Z</time>
      </trkpt>
      <trkpt lat="43.88149" lon="5.91525">
        <ele>344.174</ele>
        <time>2020-09-02T15:17:45Z</time>
      </trkpt>
      <trkpt lat="43.88148" lon="5.91507">
        <ele>344.082</ele>
        <time>2020-09-02T15:17:46Z</time>
      </trkpt>
      <trkpt lat="43.88146" lon="5.91492">
        <ele>344.078</ele>
        <time>2020-09-02T15:17:47Z</time>
      </trkpt>
      <trkpt lat="43.88144" lon="5.91479">
        <ele>343.891</ele>
        <time>2020-09-02T15:17:48Z</time>
      </trkpt>
      <trkpt lat="43.88143" lon="5.91466">
        <ele>343.829</ele>
        <time>2020-09-02T15:17:49Z</time>
      </trkpt>
      <trkpt lat="43.88144" lon="5.91452">
        <ele>343.7</ele>
        <time>2020-09-02T15:17:50Z</time>
      </trkpt>
      <trkpt lat="43.88146" lon="5.91436">
        <ele>344.12</ele>
        <time>2020-09-02T15:17:51Z</time>
      </trkpt>
      <trkpt lat="43.88149" lon="5.91419">
        <ele>344.208</ele>
        <time>2020-09-02T15:17:52Z</time>
      </trkpt>
      <trkpt lat="43.88153" lon="5.91401">
        <ele>344.17</ele>
        <time>2020-09-02T15:17:53Z</time>
      </trkpt>
      <trkpt lat="43.88157" lon="5.91381">
        <ele>344.379</ele>
        <time>2020-09-02T15:17:54Z</time>
      </trkpt>
      <trkpt lat="43.8816" lon="5.9136">
        <ele>344.289</ele>
        <time>2020-09-02T15:17:55Z</time>
      </trkpt>
      <trkpt lat="43.88163" lon="5.9134">
        <ele>344.326</ele>
        <time>2020-09-02T15:17:56Z</time>
      </trkpt>
      <trkpt lat="43.88165" lon="5.91325">
        <ele>344.117</ele>
        <time>2020-09-02T15:17:57Z</time>
      </trkpt>
      <trkpt lat="43.88167" lon="5.91314">
        <ele>344.055</ele>
        <time>2020-09-02T15:17:58Z</time>
      </trkpt>
      <trkpt lat="43.88171" lon="5.91306">
        <ele>344.021</ele>
        <time>2020-09-02T15:17:59Z</time>
      </trkpt>
      <trkpt lat="43.88175" lon="5.91301">
        <ele>343.854</ele>
        <time>2020-09-02T15:18:00Z</time>
      </trkpt>
      <trkpt lat="43.8818" lon="5.91299">
        <ele>343.965</ele>
        <time>2020-09-02T15:18:01Z</time>
      </trkpt>
      <trkpt lat="43.88186" lon="5.913">
        <ele>343.868</ele>
        <time>2020-09-02T15:18:02Z</time>
      </trkpt>
      <trkpt lat="43.88194" lon="5.91302">
        <ele>343.714</ele>
        <time>2020-09-02T15:18:03Z</time>
      </trkpt>
      <trkpt lat="43.88204" lon="5.91307">
        <ele>343.608</ele>
        <time>2020-09-02T15:18:04Z</time>
      </trkpt>
      <trkpt lat="43.88216" lon="5.91311">
        <ele>343.344</ele>
        <time>2020-09-02T15:18:05Z</time>
      </trkpt>
      <trkpt lat="43.88229" lon="5.91316">
        <ele>343.493</ele>
        <time>2020-09-02T15:18:06Z</time>
      </trkpt>
      <trkpt lat="43.88244" lon="5.91321">
        <ele>343.283</ele>
        <time>2020-09-02T15:18:07Z</time>
      </trkpt>
      <trkpt lat="43.88259" lon="5.91327">
        <ele>343.56</ele>
        <time>2020-09-02T15:18:08Z</time>
      </trkpt>
      <trkpt lat="43.88276" lon="5.91332">
        <ele>344.111</ele>
        <time>2020-09-02T15:18:09Z</time>
      </trkpt>
      <trkpt lat="43.88293" lon="5.91339">
        <ele>343.829</ele>
        <time>2020-09-02T15:18:10Z</time>
      </trkpt>
      <trkpt lat="43.88309" lon="5.91345">
        <ele>343.955</ele>
        <time>2020-09-02T15:18:11Z</time>
      </trkpt>
      <trkpt lat="43.88326" lon="5.91352">
        <ele>344.178</ele>
        <time>2020-09-02T15:18:12Z</time>
      </trkpt>
      <trkpt lat="43.88342" lon="5.91358">
        <ele>344.474</ele>
        <time>2020-09-02T15:18:13Z</time>
      </trkpt>
      <trkpt lat="43.88359" lon="5.91364">
        <ele>344.656</ele>
        <time>2020-09-02T15:18:14Z</time>
      </trkpt>
      <trkpt lat="43.88374" lon="5.91369">
        <ele>344.821</ele>
        <time>2020-09-02T15:18:15Z</time>
      </trkpt>
      <trkpt lat="43.88388" lon="5.91374">
        <ele>345.008</ele>
        <time>2020-09-02T15:18:16Z</time>
      </trkpt>
      <trkpt lat="43.88401" lon="5.91379">
        <ele>345.115</ele>
        <time>2020-09-02T15:18:17Z</time>
      </trkpt>
      <trkpt lat="43.88414" lon="5.91383">
        <ele>345.024</ele>
        <time>2020-09-02T15:18:18Z</time>
      </trkpt>
      <trkpt lat="43.88424" lon="5.91387">
        <ele>344.764</ele>
        <time>2020-09-02T15:18:19Z</time>
      </trkpt>
      <trkpt lat="43.88433" lon="5.9139">
        <ele>344.931</ele>
        <time>2020-09-02T15:18:20Z</time>
      </trkpt>
      <trkpt lat="43.88439" lon="5.91393">
        <ele>344.682</ele>
        <time>2020-09-02T15:18:21Z</time>
      </trkpt>
      <trkpt lat="43.88444" lon="5.91395">
        <ele>344.92</ele>
        <time>2020-09-02T15:18:22Z</time>
      </trkpt>
      <trkpt lat="43.8845" lon="5.91398">
        <ele>345.446</ele>
        <time>2020-09-02T15:18:24Z</time>
      </trkpt>
      <trkpt lat="43.88455" lon="5.91387">
        <ele>345.549</ele>
        <time>2020-09-02T15:18:27Z</time>
      </trkpt>
      <trkpt lat="43.88456" lon="5.91379">
        <ele>345.712</ele>
        <time>2020-09-02T15:18:28Z</time>
      </trkpt>
      <trkpt lat="43.88457" lon="5.91369">
        <ele>345.832</ele>
        <time>2020-09-02T15:18:29Z</time>
      </trkpt>
      <trkpt lat="43.88458" lon="5.91358">
        <ele>345.805</ele>
        <time>2020-09-02T15:18:30Z</time>
      </trkpt>
      <trkpt lat="43.88459" lon="5.91344">
        <ele>345.608</ele>
        <time>2020-09-02T15:18:31Z</time>
      </trkpt>
      <trkpt lat="43.88459" lon="5.91331">
        <ele>345.529</ele>
        <time>2020-09-02T15:18:32Z</time>
      </trkpt>
      <trkpt lat="43.88461" lon="5.91316">
        <ele>345.268</ele>
        <time>2020-09-02T15:18:33Z</time>
      </trkpt>
      <trkpt lat="43.88462" lon="5.91299">
        <ele>345.068</ele>
        <time>2020-09-02T15:18:34Z</time>
      </trkpt>
      <trkpt lat="43.88464" lon="5.91281">
        <ele>345.295</ele>
        <time>2020-09-02T15:18:35Z</time>
      </trkpt>
      <trkpt lat="43.88465" lon="5.91263">
        <ele>345.166</ele>
        <time>2020-09-02T15:18:36Z</time>
      </trkpt>
      <trkpt lat="43.88466" lon="5.91244">
        <ele>344.984</ele>
        <time>2020-09-02T15:18:37Z</time>
      </trkpt>
      <trkpt lat="43.88467" lon="5.91225">
        <ele>344.77</ele>
        <time>2020-09-02T15:18:38Z</time>
      </trkpt>
      <trkpt lat="43.88468" lon="5.91207">
        <ele>344.543</ele>
        <time>2020-09-02T15:18:39Z</time>
      </trkpt>
      <trkpt lat="43.88469" lon="5.91189">
        <ele>344.588</ele>
        <time>2020-09-02T15:18:40Z</time>
      </trkpt>
      <trkpt lat="43.8847" lon="5.91173">
        <ele>344.424</ele>
        <time>2020-09-02T15:18:41Z</time>
      </trkpt>
      <trkpt lat="43.8847" lon="5.91155">
        <ele>345.126</ele>
        <time>2020-09-02T15:18:42Z</time>
      </trkpt>
      <trkpt lat="43.8847" lon="5.91135">
        <ele>344.608</ele>
        <time>2020-09-02T15:18:43Z</time>
      </trkpt>
      <trkpt lat="43.88472" lon="5.91116">
        <ele>343.986</ele>
        <time>2020-09-02T15:18:44Z</time>
      </trkpt>
      <trkpt lat="43.88474" lon="5.91096">
        <ele>344.025</ele>
        <time>2020-09-02T15:18:45Z</time>
      </trkpt>
      <trkpt lat="43.88476" lon="5.91076">
        <ele>344.035</ele>
        <time>2020-09-02T15:18:46Z</time>
      </trkpt>
      <trkpt lat="43.88478" lon="5.91056">
        <ele>342.832</ele>
        <time>2020-09-02T15:18:47Z</time>
      </trkpt>
      <trkpt lat="43.8848" lon="5.91036">
        <ele>342.113</ele>
        <time>2020-09-02T15:18:48Z</time>
      </trkpt>
      <trkpt lat="43.88483" lon="5.91014">
        <ele>342.081</ele>
        <time>2020-09-02T15:18:49Z</time>
      </trkpt>
      <trkpt lat="43.88484" lon="5.90992">
        <ele>342.277</ele>
        <time>2020-09-02T15:18:50Z</time>
      </trkpt>
      <trkpt lat="43.88485" lon="5.90971">
        <ele>342.33</ele>
        <time>2020-09-02T15:18:51Z</time>
      </trkpt>
      <trkpt lat="43.88487" lon="5.9095">
        <ele>342.448</ele>
        <time>2020-09-02T15:18:52Z</time>
      </trkpt>
      <trkpt lat="43.88488" lon="5.90931">
        <ele>342.161</ele>
        <time>2020-09-02T15:18:53Z</time>
      </trkpt>
      <trkpt lat="43.88489" lon="5.90913">
        <ele>341.917</ele>
        <time>2020-09-02T15:18:54Z</time>
      </trkpt>
      <trkpt lat="43.88489" lon="5.90896">
        <ele>341.608</ele>
        <time>2020-09-02T15:18:55Z</time>
      </trkpt>
      <trkpt lat="43.8849" lon="5.90879">
        <ele>341.922</ele>
        <time>2020-09-02T15:18:56Z</time>
      </trkpt>
      <trkpt lat="43.88491" lon="5.90865">
        <ele>341.861</ele>
        <time>2020-09-02T15:18:57Z</time>
      </trkpt>
      <trkpt lat="43.88492" lon="5.90856">
        <ele>341.531</ele>
        <time>2020-09-02T15:18:58Z</time>
      </trkpt>
      <trkpt lat="43.88492" lon="5.90846">
        <ele>340.778</ele>
        <time>2020-09-02T15:18:59Z</time>
      </trkpt>
      <trkpt lat="43.88489" lon="5.90841">
        <ele>340.129</ele>
        <time>2020-09-02T15:19:00Z</time>
      </trkpt>
      <trkpt lat="43.88483" lon="5.90837">
        <ele>339.617</ele>
        <time>2020-09-02T15:19:01Z</time>
      </trkpt>
      <trkpt lat="43.88475" lon="5.90837">
        <ele>339.713</ele>
        <time>2020-09-02T15:19:02Z</time>
      </trkpt>
      <trkpt lat="43.88465" lon="5.9084">
        <ele>339.766</ele>
        <time>2020-09-02T15:19:03Z</time>
      </trkpt>
      <trkpt lat="43.88454" lon="5.90843">
        <ele>339.614</ele>
        <time>2020-09-02T15:19:04Z</time>
      </trkpt>
      <trkpt lat="43.88439" lon="5.90847">
        <ele>339.554</ele>
        <time>2020-09-02T15:19:05Z</time>
      </trkpt>
      <trkpt lat="43.88422" lon="5.9085">
        <ele>338.809</ele>
        <time>2020-09-02T15:19:06Z</time>
      </trkpt>
      <trkpt lat="43.88407" lon="5.90853">
        <ele>338.608</ele>
        <time>2020-09-02T15:19:07Z</time>
      </trkpt>
      <trkpt lat="43.88388" lon="5.90857">
        <ele>338.719</ele>
        <time>2020-09-02T15:19:08Z</time>
      </trkpt>
      <trkpt lat="43.88369" lon="5.90861">
        <ele>338.768</ele>
        <time>2020-09-02T15:19:09Z</time>
      </trkpt>
      <trkpt lat="43.88349" lon="5.90865">
        <ele>338.528</ele>
        <time>2020-09-02T15:19:10Z</time>
      </trkpt>
      <trkpt lat="43.88329" lon="5.90869">
        <ele>338.535</ele>
        <time>2020-09-02T15:19:11Z</time>
      </trkpt>
      <trkpt lat="43.88306" lon="5.90874">
        <ele>337.926</ele>
        <time>2020-09-02T15:19:12Z</time>
      </trkpt>
      <trkpt lat="43.88285" lon="5.90878">
        <ele>337.444</ele>
        <time>2020-09-02T15:19:13Z</time>
      </trkpt>
      <trkpt lat="43.88264" lon="5.90882">
        <ele>337.66</ele>
        <time>2020-09-02T15:19:14Z</time>
      </trkpt>
      <trkpt lat="43.88244" lon="5.90886">
        <ele>337.743</ele>
        <time>2020-09-02T15:19:15Z</time>
      </trkpt>
      <trkpt lat="43.88224" lon="5.90889">
        <ele>337.999</ele>
        <time>2020-09-02T15:19:16Z</time>
      </trkpt>
      <trkpt lat="43.88205" lon="5.90893">
        <ele>337.807</ele>
        <time>2020-09-02T15:19:17Z</time>
      </trkpt>
      <trkpt lat="43.88185" lon="5.90898">
        <ele>337.927</ele>
        <time>2020-09-02T15:19:18Z</time>
      </trkpt>
      <trkpt lat="43.88165" lon="5.90902">
        <ele>337.908</ele>
        <time>2020-09-02T15:19:19Z</time>
      </trkpt>
      <trkpt lat="43.88144" lon="5.90905">
        <ele>338.227</ele>
        <time>2020-09-02T15:19:20Z</time>
      </trkpt>
      <trkpt lat="43.88124" lon="5.90909">
        <ele>338.496</ele>
        <time>2020-09-02T15:19:21Z</time>
      </trkpt>
      <trkpt lat="43.88103" lon="5.90912">
        <ele>338.536</ele>
        <time>2020-09-02T15:19:22Z</time>
      </trkpt>
      <trkpt lat="43.88083" lon="5.90916">
        <ele>338.533</ele>
        <time>2020-09-02T15:19:23Z</time>
      </trkpt>
      <trkpt lat="43.88062" lon="5.90919">
        <ele>338.634</ele>
        <time>2020-09-02T15:19:24Z</time>
      </trkpt>
      <trkpt lat="43.88042" lon="5.90923">
        <ele>338.912</ele>
        <time>2020-09-02T15:19:25Z</time>
      </trkpt>
      <trkpt lat="43.88022" lon="5.90926">
        <ele>339.428</ele>
        <time>2020-09-02T15:19:26Z</time>
      </trkpt>
      <trkpt lat="43.88001" lon="5.90929">
        <ele>339.871</ele>
        <time>2020-09-02T15:19:27Z</time>
      </trkpt>
      <trkpt lat="43.87981" lon="5.90933">
        <ele>340.233</ele>
        <time>2020-09-02T15:19:28Z</time>
      </trkpt>
      <trkpt lat="43.8796" lon="5.90936">
        <ele>340.623</ele>
        <time>2020-09-02T15:19:29Z</time>
      </trkpt>
      <trkpt lat="43.87939" lon="5.90939">
        <ele>341.015</ele>
        <time>2020-09-02T15:19:30Z</time>
      </trkpt>
      <trkpt lat="43.87918" lon="5.90943">
        <ele>341.108</ele>
        <time>2020-09-02T15:19:31Z</time>
      </trkpt>
      <trkpt lat="43.87897" lon="5.90946">
        <ele>341.411</ele>
        <time>2020-09-02T15:19:32Z</time>
      </trkpt>
      <trkpt lat="43.87876" lon="5.90949">
        <ele>341.41</ele>
        <time>2020-09-02T15:19:33Z</time>
      </trkpt>
      <trkpt lat="43.87854" lon="5.90952">
        <ele>340.97</ele>
        <time>2020-09-02T15:19:34Z</time>
      </trkpt>
      <trkpt lat="43.87834" lon="5.90955">
        <ele>340.517</ele>
        <time>2020-09-02T15:19:35Z</time>
      </trkpt>
      <trkpt lat="43.87813" lon="5.90956">
        <ele>340.578</ele>
        <time>2020-09-02T15:19:36Z</time>
      </trkpt>
      <trkpt lat="43.87795" lon="5.90954">
        <ele>340.146</ele>
        <time>2020-09-02T15:19:37Z</time>
      </trkpt>
      <trkpt lat="43.87777" lon="5.90948">
        <ele>340.742</ele>
        <time>2020-09-02T15:19:38Z</time>
      </trkpt>
      <trkpt lat="43.87762" lon="5.90941">
        <ele>340.625</ele>
        <time>2020-09-02T15:19:39Z</time>
      </trkpt>
      <trkpt lat="43.87748" lon="5.9093">
        <ele>340.599</ele>
        <time>2020-09-02T15:19:40Z</time>
      </trkpt>
      <trkpt lat="43.87735" lon="5.90917">
        <ele>340.607</ele>
        <time>2020-09-02T15:19:41Z</time>
      </trkpt>
      <trkpt lat="43.87723" lon="5.90901">
        <ele>340.027</ele>
        <time>2020-09-02T15:19:42Z</time>
      </trkpt>
      <trkpt lat="43.87712" lon="5.90883">
        <ele>339.708</ele>
        <time>2020-09-02T15:19:43Z</time>
      </trkpt>
      <trkpt lat="43.87699" lon="5.90864">
        <ele>339.457</ele>
        <time>2020-09-02T15:19:44Z</time>
      </trkpt>
      <trkpt lat="43.87687" lon="5.90843">
        <ele>339.196</ele>
        <time>2020-09-02T15:19:45Z</time>
      </trkpt>
      <trkpt lat="43.87674" lon="5.90822">
        <ele>339.096</ele>
        <time>2020-09-02T15:19:46Z</time>
      </trkpt>
      <trkpt lat="43.8766" lon="5.908">
        <ele>338.393</ele>
        <time>2020-09-02T15:19:47Z</time>
      </trkpt>
      <trkpt lat="43.87647" lon="5.90777">
        <ele>337.784</ele>
        <time>2020-09-02T15:19:48Z</time>
      </trkpt>
      <trkpt lat="43.87633" lon="5.90755">
        <ele>337.412</ele>
        <time>2020-09-02T15:19:49Z</time>
      </trkpt>
      <trkpt lat="43.87619" lon="5.90731">
        <ele>337.158</ele>
        <time>2020-09-02T15:19:50Z</time>
      </trkpt>
      <trkpt lat="43.87604" lon="5.90708">
        <ele>336.831</ele>
        <time>2020-09-02T15:19:51Z</time>
      </trkpt>
      <trkpt lat="43.8759" lon="5.90684">
        <ele>336.722</ele>
        <time>2020-09-02T15:19:52Z</time>
      </trkpt>
      <trkpt lat="43.87575" lon="5.9066">
        <ele>336.162</ele>
        <time>2020-09-02T15:19:53Z</time>
      </trkpt>
      <trkpt lat="43.8756" lon="5.90637">
        <ele>335.708</ele>
        <time>2020-09-02T15:19:54Z</time>
      </trkpt>
      <trkpt lat="43.87546" lon="5.90613">
        <ele>335.508</ele>
        <time>2020-09-02T15:19:55Z</time>
      </trkpt>
      <trkpt lat="43.87531" lon="5.9059">
        <ele>335.32</ele>
        <time>2020-09-02T15:19:56Z</time>
      </trkpt>
      <trkpt lat="43.87517" lon="5.90566">
        <ele>335.229</ele>
        <time>2020-09-02T15:19:57Z</time>
      </trkpt>
      <trkpt lat="43.87502" lon="5.90542">
        <ele>335.099</ele>
        <time>2020-09-02T15:19:58Z</time>
      </trkpt>
      <trkpt lat="43.87487" lon="5.90519">
        <ele>334.796</ele>
        <time>2020-09-02T15:19:59Z</time>
      </trkpt>
      <trkpt lat="43.87472" lon="5.90495">
        <ele>334.427</ele>
        <time>2020-09-02T15:20:00Z</time>
      </trkpt>
      <trkpt lat="43.87458" lon="5.90472">
        <ele>334.155</ele>
        <time>2020-09-02T15:20:01Z</time>
      </trkpt>
      <trkpt lat="43.87443" lon="5.90448">
        <ele>333.971</ele>
        <time>2020-09-02T15:20:02Z</time>
      </trkpt>
      <trkpt lat="43.87428" lon="5.90427">
        <ele>333.974</ele>
        <time>2020-09-02T15:20:03Z</time>
      </trkpt>
      <trkpt lat="43.87413" lon="5.90406">
        <ele>333.857</ele>
        <time>2020-09-02T15:20:04Z</time>
      </trkpt>
      <trkpt lat="43.87397" lon="5.90387">
        <ele>333.8</ele>
        <time>2020-09-02T15:20:05Z</time>
      </trkpt>
      <trkpt lat="43.8738" lon="5.9037">
        <ele>333.82</ele>
        <time>2020-09-02T15:20:06Z</time>
      </trkpt>
      <trkpt lat="43.87364" lon="5.90351">
        <ele>333.808</ele>
        <time>2020-09-02T15:20:07Z</time>
      </trkpt>
      <trkpt lat="43.87348" lon="5.90333">
        <ele>333.893</ele>
        <time>2020-09-02T15:20:08Z</time>
      </trkpt>
      <trkpt lat="43.8733" lon="5.90317">
        <ele>333.432</ele>
        <time>2020-09-02T15:20:09Z</time>
      </trkpt>
      <trkpt lat="43.87313" lon="5.90299">
        <ele>333.632</ele>
        <time>2020-09-02T15:20:10Z</time>
      </trkpt>
      <trkpt lat="43.87296" lon="5.90281">
        <ele>333.679</ele>
        <time>2020-09-02T15:20:11Z</time>
      </trkpt>
      <trkpt lat="43.87281" lon="5.90265">
        <ele>333.78</ele>
        <time>2020-09-02T15:20:12Z</time>
      </trkpt>
      <trkpt lat="43.87266" lon="5.90249">
        <ele>333.638</ele>
        <time>2020-09-02T15:20:13Z</time>
      </trkpt>
      <trkpt lat="43.87254" lon="5.90237">
        <ele>334.614</ele>
        <time>2020-09-02T15:20:14Z</time>
      </trkpt>
      <trkpt lat="43.87243" lon="5.90227">
        <ele>334.787</ele>
        <time>2020-09-02T15:20:15Z</time>
      </trkpt>
      <trkpt lat="43.87234" lon="5.9022">
        <ele>334.698</ele>
        <time>2020-09-02T15:20:16Z</time>
      </trkpt>
      <trkpt lat="43.87226" lon="5.90213">
        <ele>334.915</ele>
        <time>2020-09-02T15:20:17Z</time>
      </trkpt>
      <trkpt lat="43.87219" lon="5.90208">
        <ele>334.926</ele>
        <time>2020-09-02T15:20:18Z</time>
      </trkpt>
      <trkpt lat="43.87215" lon="5.90203">
        <ele>335.008</ele>
        <time>2020-09-02T15:20:19Z</time>
      </trkpt>
      <trkpt lat="43.8721" lon="5.90201">
        <ele>334.797</ele>
        <time>2020-09-02T15:20:20Z</time>
      </trkpt>
      <trkpt lat="43.87201" lon="5.90206">
        <ele>334.926</ele>
        <time>2020-09-02T15:20:22Z</time>
      </trkpt>
      <trkpt lat="43.872" lon="5.90211">
        <ele>335.196</ele>
        <time>2020-09-02T15:20:23Z</time>
      </trkpt>
      <trkpt lat="43.87196" lon="5.90219">
        <ele>335.223</ele>
        <time>2020-09-02T15:20:24Z</time>
      </trkpt>
      <trkpt lat="43.87194" lon="5.90227">
        <ele>335.464</ele>
        <time>2020-09-02T15:20:25Z</time>
      </trkpt>
      <trkpt lat="43.8719" lon="5.90235">
        <ele>335.752</ele>
        <time>2020-09-02T15:20:26Z</time>
      </trkpt>
      <trkpt lat="43.87185" lon="5.90243">
        <ele>336.028</ele>
        <time>2020-09-02T15:20:27Z</time>
      </trkpt>
      <trkpt lat="43.8718" lon="5.90253">
        <ele>336.421</ele>
        <time>2020-09-02T15:20:28Z</time>
      </trkpt>
      <trkpt lat="43.87173" lon="5.90264">
        <ele>336.755</ele>
        <time>2020-09-02T15:20:29Z</time>
      </trkpt>
      <trkpt lat="43.87167" lon="5.90276">
        <ele>337.207</ele>
        <time>2020-09-02T15:20:30Z</time>
      </trkpt>
      <trkpt lat="43.8716" lon="5.90289">
        <ele>337.817</ele>
        <time>2020-09-02T15:20:31Z</time>
      </trkpt>
      <trkpt lat="43.87153" lon="5.90303">
        <ele>338.408</ele>
        <time>2020-09-02T15:20:32Z</time>
      </trkpt>
      <trkpt lat="43.87147" lon="5.90317">
        <ele>339.043</ele>
        <time>2020-09-02T15:20:33Z</time>
      </trkpt>
      <trkpt lat="43.8714" lon="5.9033">
        <ele>340.242</ele>
        <time>2020-09-02T15:20:34Z</time>
      </trkpt>
      <trkpt lat="43.87133" lon="5.90344">
        <ele>341.032</ele>
        <time>2020-09-02T15:20:35Z</time>
      </trkpt>
      <trkpt lat="43.87126" lon="5.90359">
        <ele>342.049</ele>
        <time>2020-09-02T15:20:36Z</time>
      </trkpt>
      <trkpt lat="43.8712" lon="5.90373">
        <ele>342.79</ele>
        <time>2020-09-02T15:20:37Z</time>
      </trkpt>
      <trkpt lat="43.87114" lon="5.90387">
        <ele>343.418</ele>
        <time>2020-09-02T15:20:38Z</time>
      </trkpt>
      <trkpt lat="43.87108" lon="5.904">
        <ele>344.524</ele>
        <time>2020-09-02T15:20:39Z</time>
      </trkpt>
      <trkpt lat="43.87101" lon="5.90413">
        <ele>345.597</ele>
        <time>2020-09-02T15:20:40Z</time>
      </trkpt>
      <trkpt lat="43.87094" lon="5.90425">
        <ele>346.272</ele>
        <time>2020-09-02T15:20:41Z</time>
      </trkpt>
      <trkpt lat="43.87088" lon="5.90435">
        <ele>347.013</ele>
        <time>2020-09-02T15:20:42Z</time>
      </trkpt>
      <trkpt lat="43.87081" lon="5.90445">
        <ele>347.914</ele>
        <time>2020-09-02T15:20:43Z</time>
      </trkpt>
      <trkpt lat="43.87074" lon="5.90453">
        <ele>348.508</ele>
        <time>2020-09-02T15:20:44Z</time>
      </trkpt>
      <trkpt lat="43.87067" lon="5.90463">
        <ele>349.085</ele>
        <time>2020-09-02T15:20:45Z</time>
      </trkpt>
      <trkpt lat="43.8706" lon="5.90471">
        <ele>349.454</ele>
        <time>2020-09-02T15:20:46Z</time>
      </trkpt>
      <trkpt lat="43.87053" lon="5.90481">
        <ele>348.834</ele>
        <time>2020-09-02T15:20:47Z</time>
      </trkpt>
      <trkpt lat="43.87047" lon="5.90491">
        <ele>349.041</ele>
        <time>2020-09-02T15:20:48Z</time>
      </trkpt>
      <trkpt lat="43.87042" lon="5.90503">
        <ele>349.922</ele>
        <time>2020-09-02T15:20:49Z</time>
      </trkpt>
      <trkpt lat="43.87036" lon="5.90512">
        <ele>350.33</ele>
        <time>2020-09-02T15:20:50Z</time>
      </trkpt>
      <trkpt lat="43.87031" lon="5.90522">
        <ele>351.096</ele>
        <time>2020-09-02T15:20:51Z</time>
      </trkpt>
      <trkpt lat="43.87025" lon="5.90532">
        <ele>351.689</ele>
        <time>2020-09-02T15:20:52Z</time>
      </trkpt>
      <trkpt lat="43.87019" lon="5.90541">
        <ele>351.996</ele>
        <time>2020-09-02T15:20:53Z</time>
      </trkpt>
      <trkpt lat="43.87012" lon="5.90551">
        <ele>352.331</ele>
        <time>2020-09-02T15:20:54Z</time>
      </trkpt>
      <trkpt lat="43.87007" lon="5.90561">
        <ele>352.024</ele>
        <time>2020-09-02T15:20:55Z</time>
      </trkpt>
      <trkpt lat="43.87001" lon="5.9057">
        <ele>352.808</ele>
        <time>2020-09-02T15:20:56Z</time>
      </trkpt>
      <trkpt lat="43.86997" lon="5.90577">
        <ele>352.547</ele>
        <time>2020-09-02T15:20:57Z</time>
      </trkpt>
      <trkpt lat="43.86993" lon="5.90582">
        <ele>352.456</ele>
        <time>2020-09-02T15:20:58Z</time>
      </trkpt>
      <trkpt lat="43.86991" lon="5.90589">
        <ele>352.646</ele>
        <time>2020-09-02T15:21:00Z</time>
      </trkpt>
      <trkpt lat="43.86993" lon="5.90599">
        <ele>353.843</ele>
        <time>2020-09-02T15:21:04Z</time>
      </trkpt>
      <trkpt lat="43.86992" lon="5.90609">
        <ele>353.714</ele>
        <time>2020-09-02T15:21:06Z</time>
      </trkpt>
      <trkpt lat="43.86989" lon="5.90615">
        <ele>354.262</ele>
        <time>2020-09-02T15:21:07Z</time>
      </trkpt>
      <trkpt lat="43.86986" lon="5.90621">
        <ele>354.568</ele>
        <time>2020-09-02T15:21:08Z</time>
      </trkpt>
      <trkpt lat="43.86983" lon="5.90627">
        <ele>355.141</ele>
        <time>2020-09-02T15:21:09Z</time>
      </trkpt>
      <trkpt lat="43.86981" lon="5.90635">
        <ele>355.474</ele>
        <time>2020-09-02T15:21:10Z</time>
      </trkpt>
      <trkpt lat="43.86978" lon="5.90643">
        <ele>356.056</ele>
        <time>2020-09-02T15:21:11Z</time>
      </trkpt>
      <trkpt lat="43.86978" lon="5.90652">
        <ele>356.821</ele>
        <time>2020-09-02T15:21:12Z</time>
      </trkpt>
      <trkpt lat="43.86978" lon="5.90662">
        <ele>357.708</ele>
        <time>2020-09-02T15:21:13Z</time>
      </trkpt>
      <trkpt lat="43.86979" lon="5.90672">
        <ele>358.475</ele>
        <time>2020-09-02T15:21:14Z</time>
      </trkpt>
      <trkpt lat="43.8698" lon="5.90683">
        <ele>358.994</ele>
        <time>2020-09-02T15:21:15Z</time>
      </trkpt>
      <trkpt lat="43.86982" lon="5.90694">
        <ele>359.534</ele>
        <time>2020-09-02T15:21:16Z</time>
      </trkpt>
      <trkpt lat="43.86987" lon="5.90705">
        <ele>359.931</ele>
        <time>2020-09-02T15:21:17Z</time>
      </trkpt>
      <trkpt lat="43.86991" lon="5.90716">
        <ele>360.542</ele>
        <time>2020-09-02T15:21:18Z</time>
      </trkpt>
      <trkpt lat="43.86994" lon="5.90725">
        <ele>361.31</ele>
        <time>2020-09-02T15:21:19Z</time>
      </trkpt>
      <trkpt lat="43.86997" lon="5.90735">
        <ele>362.096</ele>
        <time>2020-09-02T15:21:20Z</time>
      </trkpt>
      <trkpt lat="43.86999" lon="5.90746">
        <ele>361.849</ele>
        <time>2020-09-02T15:21:21Z</time>
      </trkpt>
      <trkpt lat="43.87002" lon="5.90756">
        <ele>362.651</ele>
        <time>2020-09-02T15:21:22Z</time>
      </trkpt>
      <trkpt lat="43.87005" lon="5.90765">
        <ele>362.601</ele>
        <time>2020-09-02T15:21:23Z</time>
      </trkpt>
      <trkpt lat="43.87008" lon="5.90772">
        <ele>363.511</ele>
        <time>2020-09-02T15:21:24Z</time>
      </trkpt>
      <trkpt lat="43.87012" lon="5.90778">
        <ele>365.608</ele>
        <time>2020-09-02T15:21:25Z</time>
      </trkpt>
      <trkpt lat="43.87016" lon="5.90783">
        <ele>365.993</ele>
        <time>2020-09-02T15:21:26Z</time>
      </trkpt>
      <trkpt lat="43.87021" lon="5.90792">
        <ele>365.552</ele>
        <time>2020-09-02T15:21:27Z</time>
      </trkpt>
      <trkpt lat="43.87025" lon="5.908">
        <ele>365.772</ele>
        <time>2020-09-02T15:21:28Z</time>
      </trkpt>
      <trkpt lat="43.87031" lon="5.90807">
        <ele>366.059</ele>
        <time>2020-09-02T15:21:29Z</time>
      </trkpt>
      <trkpt lat="43.87036" lon="5.90814">
        <ele>366.09</ele>
        <time>2020-09-02T15:21:30Z</time>
      </trkpt>
      <trkpt lat="43.87043" lon="5.9082">
        <ele>367.528</ele>
        <time>2020-09-02T15:21:31Z</time>
      </trkpt>
      <trkpt lat="43.8705" lon="5.90828">
        <ele>367.484</ele>
        <time>2020-09-02T15:21:32Z</time>
      </trkpt>
      <trkpt lat="43.87058" lon="5.90836">
        <ele>367.927</ele>
        <time>2020-09-02T15:21:33Z</time>
      </trkpt>
      <trkpt lat="43.87067" lon="5.90844">
        <ele>368.284</ele>
        <time>2020-09-02T15:21:34Z</time>
      </trkpt>
      <trkpt lat="43.87074" lon="5.90851">
        <ele>367.607</ele>
        <time>2020-09-02T15:21:35Z</time>
      </trkpt>
      <trkpt lat="43.8708" lon="5.90856">
        <ele>369.017</ele>
        <time>2020-09-02T15:21:36Z</time>
      </trkpt>
      <trkpt lat="43.87085" lon="5.90863">
        <ele>369.208</ele>
        <time>2020-09-02T15:21:37Z</time>
      </trkpt>
      <trkpt lat="43.87089" lon="5.9087">
        <ele>369.636</ele>
        <time>2020-09-02T15:21:38Z</time>
      </trkpt>
      <trkpt lat="43.87091" lon="5.90877">
        <ele>369.825</ele>
        <time>2020-09-02T15:21:39Z</time>
      </trkpt>
      <trkpt lat="43.87091" lon="5.90885">
        <ele>370.455</ele>
        <time>2020-09-02T15:21:40Z</time>
      </trkpt>
      <trkpt lat="43.8709" lon="5.90893">
        <ele>370.882</ele>
        <time>2020-09-02T15:21:41Z</time>
      </trkpt>
      <trkpt lat="43.87085" lon="5.90903">
        <ele>371.553</ele>
        <time>2020-09-02T15:21:42Z</time>
      </trkpt>
      <trkpt lat="43.87081" lon="5.90913">
        <ele>372.121</ele>
        <time>2020-09-02T15:21:43Z</time>
      </trkpt>
      <trkpt lat="43.87076" lon="5.90923">
        <ele>372.057</ele>
        <time>2020-09-02T15:21:44Z</time>
      </trkpt>
      <trkpt lat="43.87074" lon="5.90931">
        <ele>372.59</ele>
        <time>2020-09-02T15:21:45Z</time>
      </trkpt>
      <trkpt lat="43.87071" lon="5.90938">
        <ele>373.591</ele>
        <time>2020-09-02T15:21:46Z</time>
      </trkpt>
      <trkpt lat="43.87067" lon="5.90945">
        <ele>374.581</ele>
        <time>2020-09-02T15:21:47Z</time>
      </trkpt>
      <trkpt lat="43.87063" lon="5.90951">
        <ele>374.619</ele>
        <time>2020-09-02T15:21:48Z</time>
      </trkpt>
      <trkpt lat="43.87059" lon="5.90958">
        <ele>374.508</ele>
        <time>2020-09-02T15:21:49Z</time>
      </trkpt>
      <trkpt lat="43.87054" lon="5.90963">
        <ele>375.357</ele>
        <time>2020-09-02T15:21:50Z</time>
      </trkpt>
      <trkpt lat="43.87048" lon="5.90966">
        <ele>376.696</ele>
        <time>2020-09-02T15:21:51Z</time>
      </trkpt>
      <trkpt lat="43.87043" lon="5.90967">
        <ele>377.766</ele>
        <time>2020-09-02T15:21:52Z</time>
      </trkpt>
      <trkpt lat="43.87039" lon="5.90964">
        <ele>377.653</ele>
        <time>2020-09-02T15:21:53Z</time>
      </trkpt>
      <trkpt lat="43.87033" lon="5.90959">
        <ele>379.614</ele>
        <time>2020-09-02T15:21:54Z</time>
      </trkpt>
      <trkpt lat="43.87026" lon="5.90952">
        <ele>380.292</ele>
        <time>2020-09-02T15:21:55Z</time>
      </trkpt>
      <trkpt lat="43.87019" lon="5.90948">
        <ele>381.388</ele>
        <time>2020-09-02T15:21:56Z</time>
      </trkpt>
      <trkpt lat="43.87013" lon="5.90946">
        <ele>382.121</ele>
        <time>2020-09-02T15:21:57Z</time>
      </trkpt>
      <trkpt lat="43.87004" lon="5.90952">
        <ele>384.488</ele>
        <time>2020-09-02T15:21:59Z</time>
      </trkpt>
      <trkpt lat="43.86999" lon="5.90955">
        <ele>384.724</ele>
        <time>2020-09-02T15:22:00Z</time>
      </trkpt>
      <trkpt lat="43.86995" lon="5.90961">
        <ele>384.926</ele>
        <time>2020-09-02T15:22:01Z</time>
      </trkpt>
      <trkpt lat="43.8699" lon="5.90966">
        <ele>385.608</ele>
        <time>2020-09-02T15:22:02Z</time>
      </trkpt>
      <trkpt lat="43.86984" lon="5.90971">
        <ele>385.416</ele>
        <time>2020-09-02T15:22:04Z</time>
      </trkpt>
      <trkpt lat="43.86978" lon="5.90973">
        <ele>386.295</ele>
        <time>2020-09-02T15:22:06Z</time>
      </trkpt>
      <trkpt lat="43.86973" lon="5.90972">
        <ele>387.115</ele>
        <time>2020-09-02T15:22:07Z</time>
      </trkpt>
      <trkpt lat="43.86968" lon="5.90972">
        <ele>388.132</ele>
        <time>2020-09-02T15:22:08Z</time>
      </trkpt>
      <trkpt lat="43.86962" lon="5.90973">
        <ele>389.783</ele>
        <time>2020-09-02T15:22:09Z</time>
      </trkpt>
      <trkpt lat="43.86956" lon="5.90973">
        <ele>390.461</ele>
        <time>2020-09-02T15:22:10Z</time>
      </trkpt>
      <trkpt lat="43.8695" lon="5.90975">
        <ele>390.327</ele>
        <time>2020-09-02T15:22:11Z</time>
      </trkpt>
      <trkpt lat="43.86943" lon="5.90976">
        <ele>391.12</ele>
        <time>2020-09-02T15:22:12Z</time>
      </trkpt>
      <trkpt lat="43.86936" lon="5.90977">
        <ele>392.559</ele>
        <time>2020-09-02T15:22:13Z</time>
      </trkpt>
      <trkpt lat="43.86928" lon="5.90976">
        <ele>394.803</ele>
        <time>2020-09-02T15:22:14Z</time>
      </trkpt>
      <trkpt lat="43.8692" lon="5.90974">
        <ele>396.423</ele>
        <time>2020-09-02T15:22:15Z</time>
      </trkpt>
      <trkpt lat="43.86912" lon="5.90976">
        <ele>397.208</ele>
        <time>2020-09-02T15:22:16Z</time>
      </trkpt>
      <trkpt lat="43.86906" lon="5.90978">
        <ele>398.743</ele>
        <time>2020-09-02T15:22:17Z</time>
      </trkpt>
      <trkpt lat="43.869" lon="5.90981">
        <ele>399.152</ele>
        <time>2020-09-02T15:22:18Z</time>
      </trkpt>
      <trkpt lat="43.86895" lon="5.90985">
        <ele>400.532</ele>
        <time>2020-09-02T15:22:19Z</time>
      </trkpt>
      <trkpt lat="43.8689" lon="5.9099">
        <ele>401.859</ele>
        <time>2020-09-02T15:22:20Z</time>
      </trkpt>
      <trkpt lat="43.86884" lon="5.90995">
        <ele>402.56</ele>
        <time>2020-09-02T15:22:21Z</time>
      </trkpt>
      <trkpt lat="43.86877" lon="5.90998">
        <ele>402.358</ele>
        <time>2020-09-02T15:22:22Z</time>
      </trkpt>
      <trkpt lat="43.86871" lon="5.90999">
        <ele>401.914</ele>
        <time>2020-09-02T15:22:23Z</time>
      </trkpt>
      <trkpt lat="43.86863" lon="5.90998">
        <ele>402.897</ele>
        <time>2020-09-02T15:22:24Z</time>
      </trkpt>
      <trkpt lat="43.86854" lon="5.90997">
        <ele>403.547</ele>
        <time>2020-09-02T15:22:25Z</time>
      </trkpt>
      <trkpt lat="43.86844" lon="5.90999">
        <ele>404.429</ele>
        <time>2020-09-02T15:22:26Z</time>
      </trkpt>
      <trkpt lat="43.86836" lon="5.91">
        <ele>405.521</ele>
        <time>2020-09-02T15:22:27Z</time>
      </trkpt>
      <trkpt lat="43.86828" lon="5.91002">
        <ele>406.708</ele>
        <time>2020-09-02T15:22:28Z</time>
      </trkpt>
      <trkpt lat="43.8682" lon="5.91004">
        <ele>407.592</ele>
        <time>2020-09-02T15:22:29Z</time>
      </trkpt>
      <trkpt lat="43.86812" lon="5.91005">
        <ele>408.891</ele>
        <time>2020-09-02T15:22:30Z</time>
      </trkpt>
      <trkpt lat="43.86804" lon="5.91006">
        <ele>411.041</ele>
        <time>2020-09-02T15:22:31Z</time>
      </trkpt>
      <trkpt lat="43.86796" lon="5.91008">
        <ele>412.348</ele>
        <time>2020-09-02T15:22:32Z</time>
      </trkpt>
      <trkpt lat="43.86788" lon="5.91005">
        <ele>413.559</ele>
        <time>2020-09-02T15:22:33Z</time>
      </trkpt>
      <trkpt lat="43.86781" lon="5.91003">
        <ele>413.437</ele>
        <time>2020-09-02T15:22:34Z</time>
      </trkpt>
      <trkpt lat="43.86774" lon="5.90997">
        <ele>414.843</ele>
        <time>2020-09-02T15:22:35Z</time>
      </trkpt>
      <trkpt lat="43.86769" lon="5.90992">
        <ele>415.366</ele>
        <time>2020-09-02T15:22:36Z</time>
      </trkpt>
      <trkpt lat="43.86762" lon="5.90986">
        <ele>417.776</ele>
        <time>2020-09-02T15:22:37Z</time>
      </trkpt>
      <trkpt lat="43.86756" lon="5.90978">
        <ele>419.69</ele>
        <time>2020-09-02T15:22:38Z</time>
      </trkpt>
      <trkpt lat="43.86751" lon="5.90973">
        <ele>419.419</ele>
        <time>2020-09-02T15:22:39Z</time>
      </trkpt>
      <trkpt lat="43.86744" lon="5.9097">
        <ele>420.308</ele>
        <time>2020-09-02T15:22:40Z</time>
      </trkpt>
      <trkpt lat="43.86737" lon="5.90967">
        <ele>421.195</ele>
        <time>2020-09-02T15:22:41Z</time>
      </trkpt>
      <trkpt lat="43.86729" lon="5.90964">
        <ele>422.624</ele>
        <time>2020-09-02T15:22:42Z</time>
      </trkpt>
      <trkpt lat="43.8672" lon="5.90959">
        <ele>424.094</ele>
        <time>2020-09-02T15:22:43Z</time>
      </trkpt>
      <trkpt lat="43.86713" lon="5.90955">
        <ele>425.641</ele>
        <time>2020-09-02T15:22:44Z</time>
      </trkpt>
      <trkpt lat="43.86706" lon="5.90952">
        <ele>426.392</ele>
        <time>2020-09-02T15:22:45Z</time>
      </trkpt>
      <trkpt lat="43.86701" lon="5.90951">
        <ele>427.93</ele>
        <time>2020-09-02T15:22:46Z</time>
      </trkpt>
      <trkpt lat="43.86696" lon="5.90948">
        <ele>429.456</ele>
        <time>2020-09-02T15:22:47Z</time>
      </trkpt>
      <trkpt lat="43.8669" lon="5.90948">
        <ele>430.169</ele>
        <time>2020-09-02T15:22:48Z</time>
      </trkpt>
      <trkpt lat="43.86683" lon="5.90947">
        <ele>430.893</ele>
        <time>2020-09-02T15:22:49Z</time>
      </trkpt>
      <trkpt lat="43.86676" lon="5.90947">
        <ele>429.965</ele>
        <time>2020-09-02T15:22:50Z</time>
      </trkpt>
      <trkpt lat="43.86669" lon="5.90948">
        <ele>429.421</ele>
        <time>2020-09-02T15:22:51Z</time>
      </trkpt>
      <trkpt lat="43.86662" lon="5.90949">
        <ele>431.108</ele>
        <time>2020-09-02T15:22:52Z</time>
      </trkpt>
      <trkpt lat="43.86655" lon="5.90951">
        <ele>432.957</ele>
        <time>2020-09-02T15:22:53Z</time>
      </trkpt>
      <trkpt lat="43.86648" lon="5.90953">
        <ele>433.246</ele>
        <time>2020-09-02T15:22:54Z</time>
      </trkpt>
      <trkpt lat="43.86641" lon="5.90954">
        <ele>433.976</ele>
        <time>2020-09-02T15:22:55Z</time>
      </trkpt>
      <trkpt lat="43.86635" lon="5.90957">
        <ele>434.933</ele>
        <time>2020-09-02T15:22:56Z</time>
      </trkpt>
      <trkpt lat="43.8663" lon="5.90962">
        <ele>435.654</ele>
        <time>2020-09-02T15:22:57Z</time>
      </trkpt>
      <trkpt lat="43.86626" lon="5.90966">
        <ele>436.622</ele>
        <time>2020-09-02T15:22:58Z</time>
      </trkpt>
      <trkpt lat="43.86622" lon="5.90973">
        <ele>438.298</ele>
        <time>2020-09-02T15:23:00Z</time>
      </trkpt>
      <trkpt lat="43.86626" lon="5.90968">
        <ele>439.151</ele>
        <time>2020-09-02T15:23:27Z</time>
      </trkpt>
      <trkpt lat="43.8663" lon="5.90963">
        <ele>438.274</ele>
        <time>2020-09-02T15:23:29Z</time>
      </trkpt>
      <trkpt lat="43.86636" lon="5.90958">
        <ele>437.456</ele>
        <time>2020-09-02T15:23:31Z</time>
      </trkpt>
      <trkpt lat="43.86642" lon="5.90956">
        <ele>435.921</ele>
        <time>2020-09-02T15:23:33Z</time>
      </trkpt>
      <trkpt lat="43.86648" lon="5.90955">
        <ele>433.508</ele>
        <time>2020-09-02T15:23:35Z</time>
      </trkpt>
      <trkpt lat="43.86655" lon="5.90954">
        <ele>432.475</ele>
        <time>2020-09-02T15:23:37Z</time>
      </trkpt>
      <trkpt lat="43.86663" lon="5.90953">
        <ele>433.064</ele>
        <time>2020-09-02T15:23:39Z</time>
      </trkpt>
      <trkpt lat="43.86671" lon="5.90952">
        <ele>432.074</ele>
        <time>2020-09-02T15:23:41Z</time>
      </trkpt>
      <trkpt lat="43.86679" lon="5.90952">
        <ele>431.381</ele>
        <time>2020-09-02T15:23:43Z</time>
      </trkpt>
      <trkpt lat="43.86687" lon="5.90951">
        <ele>429.382</ele>
        <time>2020-09-02T15:23:45Z</time>
      </trkpt>
      <trkpt lat="43.86691" lon="5.90951">
        <ele>429.45</ele>
        <time>2020-09-02T15:23:46Z</time>
      </trkpt>
      <trkpt lat="43.86699" lon="5.90951">
        <ele>429.156</ele>
        <time>2020-09-02T15:23:48Z</time>
      </trkpt>
      <trkpt lat="43.86708" lon="5.90952">
        <ele>428.329</ele>
        <time>2020-09-02T15:23:50Z</time>
      </trkpt>
      <trkpt lat="43.86712" lon="5.90956">
        <ele>427.889</ele>
        <time>2020-09-02T15:23:51Z</time>
      </trkpt>
      <trkpt lat="43.86717" lon="5.90958">
        <ele>426.706</ele>
        <time>2020-09-02T15:23:52Z</time>
      </trkpt>
      <trkpt lat="43.86722" lon="5.90961">
        <ele>426.226</ele>
        <time>2020-09-02T15:23:53Z</time>
      </trkpt>
      <trkpt lat="43.8673" lon="5.90964">
        <ele>425.008</ele>
        <time>2020-09-02T15:23:55Z</time>
      </trkpt>
      <trkpt lat="43.86734" lon="5.90967">
        <ele>425.166</ele>
        <time>2020-09-02T15:23:56Z</time>
      </trkpt>
      <trkpt lat="43.86742" lon="5.9097">
        <ele>424.585</ele>
        <time>2020-09-02T15:23:58Z</time>
      </trkpt>
      <trkpt lat="43.86747" lon="5.90975">
        <ele>422.915</ele>
        <time>2020-09-02T15:23:59Z</time>
      </trkpt>
      <trkpt lat="43.86755" lon="5.9098">
        <ele>421.662</ele>
        <time>2020-09-02T15:24:01Z</time>
      </trkpt>
      <trkpt lat="43.86761" lon="5.90986">
        <ele>420.993</ele>
        <time>2020-09-02T15:24:03Z</time>
      </trkpt>
      <trkpt lat="43.86768" lon="5.90992">
        <ele>419.881</ele>
        <time>2020-09-02T15:24:05Z</time>
      </trkpt>
      <trkpt lat="43.86777" lon="5.90998">
        <ele>418.687</ele>
        <time>2020-09-02T15:24:07Z</time>
      </trkpt>
      <trkpt lat="43.86782" lon="5.91">
        <ele>420.14</ele>
        <time>2020-09-02T15:24:08Z</time>
      </trkpt>
      <trkpt lat="43.86788" lon="5.91003">
        <ele>418.294</ele>
        <time>2020-09-02T15:24:10Z</time>
      </trkpt>
      <trkpt lat="43.86797" lon="5.91007">
        <ele>417.557</ele>
        <time>2020-09-02T15:24:12Z</time>
      </trkpt>
      <trkpt lat="43.86803" lon="5.91006">
        <ele>417.622</ele>
        <time>2020-09-02T15:24:13Z</time>
      </trkpt>
      <trkpt lat="43.86807" lon="5.91005">
        <ele>417.208</ele>
        <time>2020-09-02T15:24:14Z</time>
      </trkpt>
      <trkpt lat="43.86812" lon="5.91004">
        <ele>416.357</ele>
        <time>2020-09-02T15:24:15Z</time>
      </trkpt>
      <trkpt lat="43.86817" lon="5.91003">
        <ele>415.286</ele>
        <time>2020-09-02T15:24:16Z</time>
      </trkpt>
      <trkpt lat="43.86822" lon="5.91002">
        <ele>414.366</ele>
        <time>2020-09-02T15:24:17Z</time>
      </trkpt>
      <trkpt lat="43.86826" lon="5.91001">
        <ele>413.043</ele>
        <time>2020-09-02T15:24:18Z</time>
      </trkpt>
      <trkpt lat="43.86835" lon="5.91">
        <ele>410.984</ele>
        <time>2020-09-02T15:24:20Z</time>
      </trkpt>
      <trkpt lat="43.8684" lon="5.90998">
        <ele>410.772</ele>
        <time>2020-09-02T15:24:21Z</time>
      </trkpt>
      <trkpt lat="43.86846" lon="5.90997">
        <ele>410.518</ele>
        <time>2020-09-02T15:24:22Z</time>
      </trkpt>
      <trkpt lat="43.86851" lon="5.90996">
        <ele>409.791</ele>
        <time>2020-09-02T15:24:23Z</time>
      </trkpt>
      <trkpt lat="43.86857" lon="5.90996">
        <ele>408.956</ele>
        <time>2020-09-02T15:24:24Z</time>
      </trkpt>
      <trkpt lat="43.86863" lon="5.90997">
        <ele>409.059</ele>
        <time>2020-09-02T15:24:25Z</time>
      </trkpt>
      <trkpt lat="43.86869" lon="5.90996">
        <ele>408.214</ele>
        <time>2020-09-02T15:24:26Z</time>
      </trkpt>
      <trkpt lat="43.86875" lon="5.90997">
        <ele>407.608</ele>
        <time>2020-09-02T15:24:27Z</time>
      </trkpt>
      <trkpt lat="43.8688" lon="5.90996">
        <ele>406.793</ele>
        <time>2020-09-02T15:24:28Z</time>
      </trkpt>
      <trkpt lat="43.86886" lon="5.90994">
        <ele>406.282</ele>
        <time>2020-09-02T15:24:29Z</time>
      </trkpt>
      <trkpt lat="43.86891" lon="5.90991">
        <ele>405.652</ele>
        <time>2020-09-02T15:24:30Z</time>
      </trkpt>
      <trkpt lat="43.86896" lon="5.90986">
        <ele>405.269</ele>
        <time>2020-09-02T15:24:31Z</time>
      </trkpt>
      <trkpt lat="43.869" lon="5.90982">
        <ele>405.51</ele>
        <time>2020-09-02T15:24:32Z</time>
      </trkpt>
      <trkpt lat="43.86907" lon="5.90976">
        <ele>404.778</ele>
        <time>2020-09-02T15:24:34Z</time>
      </trkpt>
      <trkpt lat="43.86914" lon="5.90973">
        <ele>404.434</ele>
        <time>2020-09-02T15:24:36Z</time>
      </trkpt>
      <trkpt lat="43.86919" lon="5.90973">
        <ele>404.137</ele>
        <time>2020-09-02T15:24:37Z</time>
      </trkpt>
      <trkpt lat="43.86924" lon="5.90972">
        <ele>404.051</ele>
        <time>2020-09-02T15:24:38Z</time>
      </trkpt>
      <trkpt lat="43.86929" lon="5.90972">
        <ele>404.001</ele>
        <time>2020-09-02T15:24:39Z</time>
      </trkpt>
      <trkpt lat="43.86935" lon="5.90974">
        <ele>402.711</ele>
        <time>2020-09-02T15:24:40Z</time>
      </trkpt>
      <trkpt lat="43.8694" lon="5.90974">
        <ele>401.808</ele>
        <time>2020-09-02T15:24:41Z</time>
      </trkpt>
      <trkpt lat="43.86945" lon="5.90973">
        <ele>401.413</ele>
        <time>2020-09-02T15:24:42Z</time>
      </trkpt>
      <trkpt lat="43.8695" lon="5.90972">
        <ele>401.042</ele>
        <time>2020-09-02T15:24:43Z</time>
      </trkpt>
      <trkpt lat="43.86955" lon="5.90971">
        <ele>400.882</ele>
        <time>2020-09-02T15:24:44Z</time>
      </trkpt>
      <trkpt lat="43.86959" lon="5.90971">
        <ele>400.069</ele>
        <time>2020-09-02T15:24:45Z</time>
      </trkpt>
      <trkpt lat="43.86965" lon="5.9097">
        <ele>400.07</ele>
        <time>2020-09-02T15:24:46Z</time>
      </trkpt>
      <trkpt lat="43.86969" lon="5.90968">
        <ele>400.028</ele>
        <time>2020-09-02T15:24:47Z</time>
      </trkpt>
      <trkpt lat="43.86977" lon="5.90966">
        <ele>398.964</ele>
        <time>2020-09-02T15:24:49Z</time>
      </trkpt>
      <trkpt lat="43.86983" lon="5.90967">
        <ele>397.257</ele>
        <time>2020-09-02T15:24:51Z</time>
      </trkpt>
      <trkpt lat="43.86988" lon="5.90965">
        <ele>396.542</ele>
        <time>2020-09-02T15:24:53Z</time>
      </trkpt>
      <trkpt lat="43.86992" lon="5.90968">
        <ele>397.022</ele>
        <time>2020-09-02T15:25:04Z</time>
      </trkpt>
      <trkpt lat="43.86995" lon="5.90974">
        <ele>397.414</ele>
        <time>2020-09-02T15:25:06Z</time>
      </trkpt>
      <trkpt lat="43.86993" lon="5.90983">
        <ele>398.308</ele>
        <time>2020-09-02T15:25:08Z</time>
      </trkpt>
      <trkpt lat="43.86981" lon="5.90986">
        <ele>400.752</ele>
        <time>2020-09-02T15:25:10Z</time>
      </trkpt>
      <trkpt lat="43.86977" lon="5.90988">
        <ele>401.511</ele>
        <time>2020-09-02T15:25:11Z</time>
      </trkpt>
      <trkpt lat="43.8697" lon="5.90994">
        <ele>402.121</ele>
        <time>2020-09-02T15:25:13Z</time>
      </trkpt>
      <trkpt lat="43.86967" lon="5.91003">
        <ele>403.438</ele>
        <time>2020-09-02T15:25:15Z</time>
      </trkpt>
      <trkpt lat="43.86967" lon="5.91012">
        <ele>403.849</ele>
        <time>2020-09-02T15:25:17Z</time>
      </trkpt>
      <trkpt lat="43.86968" lon="5.91019">
        <ele>405.267</ele>
        <time>2020-09-02T15:25:18Z</time>
      </trkpt>
      <trkpt lat="43.8697" lon="5.91027">
        <ele>405.513</ele>
        <time>2020-09-02T15:25:19Z</time>
      </trkpt>
      <trkpt lat="43.86973" lon="5.91035">
        <ele>405.686</ele>
        <time>2020-09-02T15:25:20Z</time>
      </trkpt>
      <trkpt lat="43.86976" lon="5.91043">
        <ele>406.777</ele>
        <time>2020-09-02T15:25:21Z</time>
      </trkpt>
      <trkpt lat="43.86978" lon="5.9105">
        <ele>407.861</ele>
        <time>2020-09-02T15:25:22Z</time>
      </trkpt>
      <trkpt lat="43.8698" lon="5.91057">
        <ele>408.027</ele>
        <time>2020-09-02T15:25:23Z</time>
      </trkpt>
      <trkpt lat="43.8698" lon="5.91064">
        <ele>408.808</ele>
        <time>2020-09-02T15:25:24Z</time>
      </trkpt>
      <trkpt lat="43.86981" lon="5.91071">
        <ele>409.635</ele>
        <time>2020-09-02T15:25:25Z</time>
      </trkpt>
      <trkpt lat="43.86981" lon="5.91078">
        <ele>410.464</ele>
        <time>2020-09-02T15:25:26Z</time>
      </trkpt>
      <trkpt lat="43.8698" lon="5.91085">
        <ele>410.974</ele>
        <time>2020-09-02T15:25:27Z</time>
      </trkpt>
      <trkpt lat="43.86978" lon="5.91092">
        <ele>412.151</ele>
        <time>2020-09-02T15:25:28Z</time>
      </trkpt>
      <trkpt lat="43.86976" lon="5.91097">
        <ele>413.392</ele>
        <time>2020-09-02T15:25:29Z</time>
      </trkpt>
      <trkpt lat="43.86973" lon="5.91103">
        <ele>414.74</ele>
        <time>2020-09-02T15:25:30Z</time>
      </trkpt>
      <trkpt lat="43.8697" lon="5.91109">
        <ele>416.086</ele>
        <time>2020-09-02T15:25:31Z</time>
      </trkpt>
      <trkpt lat="43.86967" lon="5.91115">
        <ele>417.139</ele>
        <time>2020-09-02T15:25:32Z</time>
      </trkpt>
      <trkpt lat="43.86964" lon="5.91121">
        <ele>418.113</ele>
        <time>2020-09-02T15:25:33Z</time>
      </trkpt>
      <trkpt lat="43.86962" lon="5.91127">
        <ele>419.743</ele>
        <time>2020-09-02T15:25:34Z</time>
      </trkpt>
      <trkpt lat="43.8696" lon="5.91134">
        <ele>421.007</ele>
        <time>2020-09-02T15:25:35Z</time>
      </trkpt>
      <trkpt lat="43.86957" lon="5.91141">
        <ele>423.508</ele>
        <time>2020-09-02T15:25:36Z</time>
      </trkpt>
      <trkpt lat="43.86954" lon="5.91149">
        <ele>423.979</ele>
        <time>2020-09-02T15:25:37Z</time>
      </trkpt>
      <trkpt lat="43.86951" lon="5.91157">
        <ele>424.728</ele>
        <time>2020-09-02T15:25:38Z</time>
      </trkpt>
      <trkpt lat="43.86949" lon="5.91164">
        <ele>426.198</ele>
        <time>2020-09-02T15:25:39Z</time>
      </trkpt>
      <trkpt lat="43.86946" lon="5.91172">
        <ele>427.575</ele>
        <time>2020-09-02T15:25:40Z</time>
      </trkpt>
      <trkpt lat="43.86944" lon="5.91181">
        <ele>426.716</ele>
        <time>2020-09-02T15:25:41Z</time>
      </trkpt>
      <trkpt lat="43.8694" lon="5.91188">
        <ele>426.844</ele>
        <time>2020-09-02T15:25:42Z</time>
      </trkpt>
      <trkpt lat="43.8694" lon="5.91195">
        <ele>427.96</ele>
        <time>2020-09-02T15:25:43Z</time>
      </trkpt>
      <trkpt lat="43.86937" lon="5.91201">
        <ele>428.963</ele>
        <time>2020-09-02T15:25:44Z</time>
      </trkpt>
      <trkpt lat="43.86935" lon="5.91207">
        <ele>429.452</ele>
        <time>2020-09-02T15:25:45Z</time>
      </trkpt>
      <trkpt lat="43.86927" lon="5.91214">
        <ele>430.753</ele>
        <time>2020-09-02T15:25:47Z</time>
      </trkpt>
      <trkpt lat="43.86922" lon="5.91216">
        <ele>431.608</ele>
        <time>2020-09-02T15:25:48Z</time>
      </trkpt>
      <trkpt lat="43.86917" lon="5.9122">
        <ele>432.608</ele>
        <time>2020-09-02T15:25:49Z</time>
      </trkpt>
      <trkpt lat="43.86911" lon="5.91221">
        <ele>433.543</ele>
        <time>2020-09-02T15:25:50Z</time>
      </trkpt>
      <trkpt lat="43.86905" lon="5.91223">
        <ele>433.622</ele>
        <time>2020-09-02T15:25:51Z</time>
      </trkpt>
      <trkpt lat="43.86899" lon="5.91225">
        <ele>434.912</ele>
        <time>2020-09-02T15:25:52Z</time>
      </trkpt>
      <trkpt lat="43.86893" lon="5.91227">
        <ele>436.239</ele>
        <time>2020-09-02T15:25:53Z</time>
      </trkpt>
      <trkpt lat="43.86887" lon="5.9123">
        <ele>436.78</ele>
        <time>2020-09-02T15:25:54Z</time>
      </trkpt>
      <trkpt lat="43.86878" lon="5.91236">
        <ele>439.398</ele>
        <time>2020-09-02T15:25:55Z</time>
      </trkpt>
      <trkpt lat="43.86871" lon="5.91239">
        <ele>439.514</ele>
        <time>2020-09-02T15:25:56Z</time>
      </trkpt>
      <trkpt lat="43.86865" lon="5.91241">
        <ele>440.717</ele>
        <time>2020-09-02T15:25:57Z</time>
      </trkpt>
      <trkpt lat="43.86859" lon="5.91238">
        <ele>441.454</ele>
        <time>2020-09-02T15:25:58Z</time>
      </trkpt>
      <trkpt lat="43.86852" lon="5.91235">
        <ele>441.856</ele>
        <time>2020-09-02T15:25:59Z</time>
      </trkpt>
      <trkpt lat="43.86846" lon="5.91232">
        <ele>442.911</ele>
        <time>2020-09-02T15:26:00Z</time>
      </trkpt>
      <trkpt lat="43.8684" lon="5.91229">
        <ele>443.508</ele>
        <time>2020-09-02T15:26:01Z</time>
      </trkpt>
      <trkpt lat="43.86835" lon="5.91226">
        <ele>444.743</ele>
        <time>2020-09-02T15:26:02Z</time>
      </trkpt>
      <trkpt lat="43.86831" lon="5.9123">
        <ele>446.672</ele>
        <time>2020-09-02T15:26:03Z</time>
      </trkpt>
      <trkpt lat="43.86829" lon="5.91237">
        <ele>448.152</ele>
        <time>2020-09-02T15:26:04Z</time>
      </trkpt>
      <trkpt lat="43.86829" lon="5.91244">
        <ele>448.979</ele>
        <time>2020-09-02T15:26:05Z</time>
      </trkpt>
      <trkpt lat="43.86829" lon="5.91251">
        <ele>449.06</ele>
        <time>2020-09-02T15:26:06Z</time>
      </trkpt>
      <trkpt lat="43.86829" lon="5.91264">
        <ele>449.228</ele>
        <time>2020-09-02T15:26:08Z</time>
      </trkpt>
      <trkpt lat="43.86828" lon="5.9127">
        <ele>449.744</ele>
        <time>2020-09-02T15:26:09Z</time>
      </trkpt>
      <trkpt lat="43.86827" lon="5.91276">
        <ele>449.777</ele>
        <time>2020-09-02T15:26:10Z</time>
      </trkpt>
      <trkpt lat="43.86825" lon="5.91282">
        <ele>450.484</ele>
        <time>2020-09-02T15:26:11Z</time>
      </trkpt>
      <trkpt lat="43.86822" lon="5.91289">
        <ele>450.607</ele>
        <time>2020-09-02T15:26:12Z</time>
      </trkpt>
      <trkpt lat="43.8682" lon="5.91296">
        <ele>451.517</ele>
        <time>2020-09-02T15:26:13Z</time>
      </trkpt>
      <trkpt lat="43.86819" lon="5.91306">
        <ele>453.508</ele>
        <time>2020-09-02T15:26:14Z</time>
      </trkpt>
      <trkpt lat="43.86819" lon="5.91314">
        <ele>453.876</ele>
        <time>2020-09-02T15:26:15Z</time>
      </trkpt>
      <trkpt lat="43.86819" lon="5.91322">
        <ele>454.435</ele>
        <time>2020-09-02T15:26:16Z</time>
      </trkpt>
      <trkpt lat="43.8682" lon="5.91328">
        <ele>454.525</ele>
        <time>2020-09-02T15:26:17Z</time>
      </trkpt>
      <trkpt lat="43.86814" lon="5.91334">
        <ele>454.422</ele>
        <time>2020-09-02T15:26:18Z</time>
      </trkpt>
      <trkpt lat="43.86809" lon="5.91344">
        <ele>455.363</ele>
        <time>2020-09-02T15:26:20Z</time>
      </trkpt>
      <trkpt lat="43.86805" lon="5.91349">
        <ele>456.911</ele>
        <time>2020-09-02T15:26:21Z</time>
      </trkpt>
      <trkpt lat="43.86801" lon="5.91356">
        <ele>457.287</ele>
        <time>2020-09-02T15:26:22Z</time>
      </trkpt>
      <trkpt lat="43.86798" lon="5.91363">
        <ele>457.84</ele>
        <time>2020-09-02T15:26:23Z</time>
      </trkpt>
      <trkpt lat="43.86793" lon="5.91371">
        <ele>458.971</ele>
        <time>2020-09-02T15:26:24Z</time>
      </trkpt>
      <trkpt lat="43.86789" lon="5.91379">
        <ele>459.741</ele>
        <time>2020-09-02T15:26:25Z</time>
      </trkpt>
      <trkpt lat="43.86787" lon="5.91387">
        <ele>461.715</ele>
        <time>2020-09-02T15:26:26Z</time>
      </trkpt>
      <trkpt lat="43.86784" lon="5.91394">
        <ele>462.308</ele>
        <time>2020-09-02T15:26:27Z</time>
      </trkpt>
      <trkpt lat="43.86781" lon="5.914">
        <ele>463.185</ele>
        <time>2020-09-02T15:26:28Z</time>
      </trkpt>
      <trkpt lat="43.86778" lon="5.91406">
        <ele>464.084</ele>
        <time>2020-09-02T15:26:29Z</time>
      </trkpt>
      <trkpt lat="43.86775" lon="5.91413">
        <ele>464.994</ele>
        <time>2020-09-02T15:26:30Z</time>
      </trkpt>
      <trkpt lat="43.86769" lon="5.91419">
        <ele>465.291</ele>
        <time>2020-09-02T15:26:31Z</time>
      </trkpt>
      <trkpt lat="43.86767" lon="5.91425">
        <ele>465.912</ele>
        <time>2020-09-02T15:26:32Z</time>
      </trkpt>
      <trkpt lat="43.86764" lon="5.91433">
        <ele>467.65</ele>
        <time>2020-09-02T15:26:33Z</time>
      </trkpt>
      <trkpt lat="43.86761" lon="5.9144">
        <ele>469.376</ele>
        <time>2020-09-02T15:26:34Z</time>
      </trkpt>
      <trkpt lat="43.86759" lon="5.91449">
        <ele>470.189</ele>
        <time>2020-09-02T15:26:35Z</time>
      </trkpt>
      <trkpt lat="43.86757" lon="5.91456">
        <ele>471.714</ele>
        <time>2020-09-02T15:26:36Z</time>
      </trkpt>
      <trkpt lat="43.86755" lon="5.91464">
        <ele>472.054</ele>
        <time>2020-09-02T15:26:37Z</time>
      </trkpt>
      <trkpt lat="43.86756" lon="5.91472">
        <ele>473.609</ele>
        <time>2020-09-02T15:26:38Z</time>
      </trkpt>
      <trkpt lat="43.86756" lon="5.9148">
        <ele>474.808</ele>
        <time>2020-09-02T15:26:39Z</time>
      </trkpt>
      <trkpt lat="43.86756" lon="5.91487">
        <ele>475.389</ele>
        <time>2020-09-02T15:26:40Z</time>
      </trkpt>
      <trkpt lat="43.86755" lon="5.91498">
        <ele>475.718</ele>
        <time>2020-09-02T15:26:42Z</time>
      </trkpt>
      <trkpt lat="43.86753" lon="5.91504">
        <ele>476.368</ele>
        <time>2020-09-02T15:26:44Z</time>
      </trkpt>
      <trkpt lat="43.86748" lon="5.91509">
        <ele>477.625</ele>
        <time>2020-09-02T15:26:51Z</time>
      </trkpt>
      <trkpt lat="43.86744" lon="5.91513">
        <ele>477.966</ele>
        <time>2020-09-02T15:26:52Z</time>
      </trkpt>
      <trkpt lat="43.86737" lon="5.91516">
        <ele>478.834</ele>
        <time>2020-09-02T15:26:53Z</time>
      </trkpt>
      <trkpt lat="43.8673" lon="5.9152">
        <ele>480.41</ele>
        <time>2020-09-02T15:26:54Z</time>
      </trkpt>
      <trkpt lat="43.86723" lon="5.91524">
        <ele>481.523</ele>
        <time>2020-09-02T15:26:55Z</time>
      </trkpt>
      <trkpt lat="43.86716" lon="5.9153">
        <ele>483.017</ele>
        <time>2020-09-02T15:26:56Z</time>
      </trkpt>
      <trkpt lat="43.86709" lon="5.91536">
        <ele>484.287</ele>
        <time>2020-09-02T15:26:57Z</time>
      </trkpt>
      <trkpt lat="43.86703" lon="5.91541">
        <ele>485.415</ele>
        <time>2020-09-02T15:26:58Z</time>
      </trkpt>
      <trkpt lat="43.86694" lon="5.91545">
        <ele>487.108</ele>
        <time>2020-09-02T15:26:59Z</time>
      </trkpt>
      <trkpt lat="43.86686" lon="5.9155">
        <ele>489.429</ele>
        <time>2020-09-02T15:27:00Z</time>
      </trkpt>
      <trkpt lat="43.86678" lon="5.91551">
        <ele>490.948</ele>
        <time>2020-09-02T15:27:01Z</time>
      </trkpt>
      <trkpt lat="43.86669" lon="5.91552">
        <ele>492.528</ele>
        <time>2020-09-02T15:27:02Z</time>
      </trkpt>
      <trkpt lat="43.86661" lon="5.91553">
        <ele>493.525</ele>
        <time>2020-09-02T15:27:03Z</time>
      </trkpt>
      <trkpt lat="43.86653" lon="5.91554">
        <ele>495.016</ele>
        <time>2020-09-02T15:27:04Z</time>
      </trkpt>
      <trkpt lat="43.86644" lon="5.91555">
        <ele>496.394</ele>
        <time>2020-09-02T15:27:05Z</time>
      </trkpt>
      <trkpt lat="43.86635" lon="5.91555">
        <ele>498.16</ele>
        <time>2020-09-02T15:27:06Z</time>
      </trkpt>
      <trkpt lat="43.86626" lon="5.91557">
        <ele>499.683</ele>
        <time>2020-09-02T15:27:07Z</time>
      </trkpt>
      <trkpt lat="43.86618" lon="5.91558">
        <ele>501.263</ele>
        <time>2020-09-02T15:27:08Z</time>
      </trkpt>
      <trkpt lat="43.86611" lon="5.9156">
        <ele>502.144</ele>
        <time>2020-09-02T15:27:09Z</time>
      </trkpt>
      <trkpt lat="43.86603" lon="5.91564">
        <ele>503.118</ele>
        <time>2020-09-02T15:27:10Z</time>
      </trkpt>
      <trkpt lat="43.86593" lon="5.91567">
        <ele>504.808</ele>
        <time>2020-09-02T15:27:11Z</time>
      </trkpt>
      <trkpt lat="43.86584" lon="5.91571">
        <ele>505.324</ele>
        <time>2020-09-02T15:27:12Z</time>
      </trkpt>
      <trkpt lat="43.86575" lon="5.91574">
        <ele>507.123</ele>
        <time>2020-09-02T15:27:13Z</time>
      </trkpt>
      <trkpt lat="43.86568" lon="5.91579">
        <ele>508.253</ele>
        <time>2020-09-02T15:27:14Z</time>
      </trkpt>
      <trkpt lat="43.86561" lon="5.91585">
        <ele>508.94</ele>
        <time>2020-09-02T15:27:15Z</time>
      </trkpt>
      <trkpt lat="43.86558" lon="5.91595">
        <ele>510.211</ele>
        <time>2020-09-02T15:27:16Z</time>
      </trkpt>
      <trkpt lat="43.86554" lon="5.91606">
        <ele>510.719</ele>
        <time>2020-09-02T15:27:17Z</time>
      </trkpt>
      <trkpt lat="43.86552" lon="5.91617">
        <ele>511.625</ele>
        <time>2020-09-02T15:27:18Z</time>
      </trkpt>
      <trkpt lat="43.86548" lon="5.91626">
        <ele>512.368</ele>
        <time>2020-09-02T15:27:19Z</time>
      </trkpt>
      <trkpt lat="43.86545" lon="5.91633">
        <ele>512.289</ele>
        <time>2020-09-02T15:27:20Z</time>
      </trkpt>
      <trkpt lat="43.8654" lon="5.91639">
        <ele>512.506</ele>
        <time>2020-09-02T15:27:21Z</time>
      </trkpt>
      <trkpt lat="43.86534" lon="5.91646">
        <ele>512.926</ele>
        <time>2020-09-02T15:27:22Z</time>
      </trkpt>
      <trkpt lat="43.86526" lon="5.91652">
        <ele>512.908</ele>
        <time>2020-09-02T15:27:23Z</time>
      </trkpt>
      <trkpt lat="43.86517" lon="5.91658">
        <ele>513.666</ele>
        <time>2020-09-02T15:27:24Z</time>
      </trkpt>
      <trkpt lat="43.86508" lon="5.91665">
        <ele>514.245</ele>
        <time>2020-09-02T15:27:25Z</time>
      </trkpt>
      <trkpt lat="43.865" lon="5.91673">
        <ele>514.955</ele>
        <time>2020-09-02T15:27:26Z</time>
      </trkpt>
      <trkpt lat="43.86492" lon="5.91679">
        <ele>515.532</ele>
        <time>2020-09-02T15:27:27Z</time>
      </trkpt>
      <trkpt lat="43.86484" lon="5.91686">
        <ele>516.223</ele>
        <time>2020-09-02T15:27:28Z</time>
      </trkpt>
      <trkpt lat="43.86477" lon="5.91694">
        <ele>517.051</ele>
        <time>2020-09-02T15:27:29Z</time>
      </trkpt>
      <trkpt lat="43.86471" lon="5.91702">
        <ele>517.637</ele>
        <time>2020-09-02T15:27:30Z</time>
      </trkpt>
      <trkpt lat="43.86465" lon="5.91711">
        <ele>518.33</ele>
        <time>2020-09-02T15:27:31Z</time>
      </trkpt>
      <trkpt lat="43.86459" lon="5.91717">
        <ele>519.252</ele>
        <time>2020-09-02T15:27:32Z</time>
      </trkpt>
      <trkpt lat="43.86452" lon="5.91724">
        <ele>519.453</ele>
        <time>2020-09-02T15:27:33Z</time>
      </trkpt>
      <trkpt lat="43.86445" lon="5.91732">
        <ele>519.108</ele>
        <time>2020-09-02T15:27:34Z</time>
      </trkpt>
      <trkpt lat="43.86438" lon="5.91739">
        <ele>519.708</ele>
        <time>2020-09-02T15:27:35Z</time>
      </trkpt>
      <trkpt lat="43.86432" lon="5.91746">
        <ele>520.393</ele>
        <time>2020-09-02T15:27:36Z</time>
      </trkpt>
      <trkpt lat="43.86426" lon="5.91754">
        <ele>521.422</ele>
        <time>2020-09-02T15:27:37Z</time>
      </trkpt>
      <trkpt lat="43.8642" lon="5.91762">
        <ele>521.972</ele>
        <time>2020-09-02T15:27:38Z</time>
      </trkpt>
      <trkpt lat="43.86415" lon="5.91769">
        <ele>522.549</ele>
        <time>2020-09-02T15:27:39Z</time>
      </trkpt>
      <trkpt lat="43.8641" lon="5.91776">
        <ele>523.27</ele>
        <time>2020-09-02T15:27:40Z</time>
      </trkpt>
      <trkpt lat="43.86405" lon="5.91783">
        <ele>524.378</ele>
        <time>2020-09-02T15:27:41Z</time>
      </trkpt>
      <trkpt lat="43.86399" lon="5.91789">
        <ele>525.684</ele>
        <time>2020-09-02T15:27:42Z</time>
      </trkpt>
      <trkpt lat="43.86392" lon="5.91795">
        <ele>526.347</ele>
        <time>2020-09-02T15:27:43Z</time>
      </trkpt>
      <trkpt lat="43.86386" lon="5.918">
        <ele>527.672</ele>
        <time>2020-09-02T15:27:44Z</time>
      </trkpt>
      <trkpt lat="43.8638" lon="5.91805">
        <ele>528.513</ele>
        <time>2020-09-02T15:27:45Z</time>
      </trkpt>
      <trkpt lat="43.86375" lon="5.9181">
        <ele>529.714</ele>
        <time>2020-09-02T15:27:46Z</time>
      </trkpt>
      <trkpt lat="43.86371" lon="5.91816">
        <ele>531.408</ele>
        <time>2020-09-02T15:27:47Z</time>
      </trkpt>
      <trkpt lat="43.86366" lon="5.91824">
        <ele>532.525</ele>
        <time>2020-09-02T15:27:48Z</time>
      </trkpt>
      <trkpt lat="43.86362" lon="5.9183">
        <ele>533.564</ele>
        <time>2020-09-02T15:27:49Z</time>
      </trkpt>
      <trkpt lat="43.86359" lon="5.91836">
        <ele>534.144</ele>
        <time>2020-09-02T15:27:50Z</time>
      </trkpt>
      <trkpt lat="43.86354" lon="5.91842">
        <ele>534.741</ele>
        <time>2020-09-02T15:27:51Z</time>
      </trkpt>
      <trkpt lat="43.8635" lon="5.91847">
        <ele>536.052</ele>
        <time>2020-09-02T15:27:52Z</time>
      </trkpt>
      <trkpt lat="43.86346" lon="5.91853">
        <ele>537.22</ele>
        <time>2020-09-02T15:27:53Z</time>
      </trkpt>
      <trkpt lat="43.86342" lon="5.91861">
        <ele>537.676</ele>
        <time>2020-09-02T15:27:54Z</time>
      </trkpt>
      <trkpt lat="43.86338" lon="5.91869">
        <ele>539.729</ele>
        <time>2020-09-02T15:27:55Z</time>
      </trkpt>
      <trkpt lat="43.86334" lon="5.91878">
        <ele>540.823</ele>
        <time>2020-09-02T15:27:56Z</time>
      </trkpt>
      <trkpt lat="43.86331" lon="5.91886">
        <ele>541.683</ele>
        <time>2020-09-02T15:27:57Z</time>
      </trkpt>
      <trkpt lat="43.86327" lon="5.91895">
        <ele>543.011</ele>
        <time>2020-09-02T15:27:58Z</time>
      </trkpt>
      <trkpt lat="43.86322" lon="5.91902">
        <ele>545.008</ele>
        <time>2020-09-02T15:27:59Z</time>
      </trkpt>
      <trkpt lat="43.8632" lon="5.91913">
        <ele>545.23</ele>
        <time>2020-09-02T15:28:00Z</time>
      </trkpt>
      <trkpt lat="43.86317" lon="5.91923">
        <ele>546.259</ele>
        <time>2020-09-02T15:28:01Z</time>
      </trkpt>
      <trkpt lat="43.86315" lon="5.91933">
        <ele>547.079</ele>
        <time>2020-09-02T15:28:02Z</time>
      </trkpt>
      <trkpt lat="43.86312" lon="5.91941">
        <ele>548.656</ele>
        <time>2020-09-02T15:28:03Z</time>
      </trkpt>
      <trkpt lat="43.86309" lon="5.91948">
        <ele>549.487</ele>
        <time>2020-09-02T15:28:04Z</time>
      </trkpt>
      <trkpt lat="43.86306" lon="5.91955">
        <ele>550.345</ele>
        <time>2020-09-02T15:28:05Z</time>
      </trkpt>
      <trkpt lat="43.86302" lon="5.91964">
        <ele>551.391</ele>
        <time>2020-09-02T15:28:06Z</time>
      </trkpt>
      <trkpt lat="43.86298" lon="5.91971">
        <ele>553.124</ele>
        <time>2020-09-02T15:28:07Z</time>
      </trkpt>
      <trkpt lat="43.86293" lon="5.91979">
        <ele>553.461</ele>
        <time>2020-09-02T15:28:08Z</time>
      </trkpt>
      <trkpt lat="43.86288" lon="5.91986">
        <ele>554.821</ele>
        <time>2020-09-02T15:28:09Z</time>
      </trkpt>
      <trkpt lat="43.86283" lon="5.91993">
        <ele>555.513</ele>
        <time>2020-09-02T15:28:10Z</time>
      </trkpt>
      <trkpt lat="43.86276" lon="5.91999">
        <ele>556.408</ele>
        <time>2020-09-02T15:28:11Z</time>
      </trkpt>
      <trkpt lat="43.86271" lon="5.92005">
        <ele>557.354</ele>
        <time>2020-09-02T15:28:12Z</time>
      </trkpt>
      <trkpt lat="43.86267" lon="5.92012">
        <ele>557.733</ele>
        <time>2020-09-02T15:28:13Z</time>
      </trkpt>
      <trkpt lat="43.86261" lon="5.9202">
        <ele>558.323</ele>
        <time>2020-09-02T15:28:14Z</time>
      </trkpt>
      <trkpt lat="43.86255" lon="5.92027">
        <ele>559.32</ele>
        <time>2020-09-02T15:28:15Z</time>
      </trkpt>
      <trkpt lat="43.86248" lon="5.92036">
        <ele>560.211</ele>
        <time>2020-09-02T15:28:16Z</time>
      </trkpt>
      <trkpt lat="43.86242" lon="5.92046">
        <ele>560.929</ele>
        <time>2020-09-02T15:28:17Z</time>
      </trkpt>
      <trkpt lat="43.86235" lon="5.92055">
        <ele>561.155</ele>
        <time>2020-09-02T15:28:18Z</time>
      </trkpt>
      <trkpt lat="43.86228" lon="5.92065">
        <ele>562.098</ele>
        <time>2020-09-02T15:28:19Z</time>
      </trkpt>
      <trkpt lat="43.86221" lon="5.92075">
        <ele>563.036</ele>
        <time>2020-09-02T15:28:20Z</time>
      </trkpt>
      <trkpt lat="43.86216" lon="5.92085">
        <ele>563.617</ele>
        <time>2020-09-02T15:28:21Z</time>
      </trkpt>
      <trkpt lat="43.86211" lon="5.92096">
        <ele>564.518</ele>
        <time>2020-09-02T15:28:22Z</time>
      </trkpt>
      <trkpt lat="43.86206" lon="5.92106">
        <ele>564.908</ele>
        <time>2020-09-02T15:28:23Z</time>
      </trkpt>
      <trkpt lat="43.86202" lon="5.92117">
        <ele>565.541</ele>
        <time>2020-09-02T15:28:24Z</time>
      </trkpt>
      <trkpt lat="43.86199" lon="5.92127">
        <ele>566.12</ele>
        <time>2020-09-02T15:28:25Z</time>
      </trkpt>
      <trkpt lat="43.86195" lon="5.92138">
        <ele>566.59</ele>
        <time>2020-09-02T15:28:26Z</time>
      </trkpt>
      <trkpt lat="43.86191" lon="5.92149">
        <ele>567.687</ele>
        <time>2020-09-02T15:28:27Z</time>
      </trkpt>
      <trkpt lat="43.86187" lon="5.92161">
        <ele>567.828</ele>
        <time>2020-09-02T15:28:28Z</time>
      </trkpt>
      <trkpt lat="43.86182" lon="5.92174">
        <ele>568.466</ele>
        <time>2020-09-02T15:28:29Z</time>
      </trkpt>
      <trkpt lat="43.86178" lon="5.92186">
        <ele>569.732</ele>
        <time>2020-09-02T15:28:30Z</time>
      </trkpt>
      <trkpt lat="43.86175" lon="5.92197">
        <ele>570.595</ele>
        <time>2020-09-02T15:28:31Z</time>
      </trkpt>
      <trkpt lat="43.86173" lon="5.92205">
        <ele>570.713</ele>
        <time>2020-09-02T15:28:32Z</time>
      </trkpt>
      <trkpt lat="43.86172" lon="5.92214">
        <ele>571.643</ele>
        <time>2020-09-02T15:28:33Z</time>
      </trkpt>
      <trkpt lat="43.8617" lon="5.92223">
        <ele>572.107</ele>
        <time>2020-09-02T15:28:34Z</time>
      </trkpt>
      <trkpt lat="43.86168" lon="5.92232">
        <ele>572.108</ele>
        <time>2020-09-02T15:28:35Z</time>
      </trkpt>
      <trkpt lat="43.86163" lon="5.92242">
        <ele>571.589</ele>
        <time>2020-09-02T15:28:36Z</time>
      </trkpt>
      <trkpt lat="43.8616" lon="5.9225">
        <ele>571.798</ele>
        <time>2020-09-02T15:28:37Z</time>
      </trkpt>
      <trkpt lat="43.86157" lon="5.92259">
        <ele>571.468</ele>
        <time>2020-09-02T15:28:38Z</time>
      </trkpt>
      <trkpt lat="43.86156" lon="5.92266">
        <ele>571.155</ele>
        <time>2020-09-02T15:28:39Z</time>
      </trkpt>
      <trkpt lat="43.86154" lon="5.92274">
        <ele>570.666</ele>
        <time>2020-09-02T15:28:40Z</time>
      </trkpt>
      <trkpt lat="43.86152" lon="5.9228">
        <ele>570.224</ele>
        <time>2020-09-02T15:28:41Z</time>
      </trkpt>
      <trkpt lat="43.86149" lon="5.9229">
        <ele>570.46</ele>
        <time>2020-09-02T15:28:43Z</time>
      </trkpt>
      <trkpt lat="43.8615" lon="5.92303">
        <ele>569.453</ele>
        <time>2020-09-02T15:28:45Z</time>
      </trkpt>
      <trkpt lat="43.86151" lon="5.92318">
        <ele>569.527</ele>
        <time>2020-09-02T15:28:47Z</time>
      </trkpt>
      <trkpt lat="43.86151" lon="5.92325">
        <ele>569.968</ele>
        <time>2020-09-02T15:28:48Z</time>
      </trkpt>
      <trkpt lat="43.86152" lon="5.92332">
        <ele>570.314</ele>
        <time>2020-09-02T15:28:49Z</time>
      </trkpt>
      <trkpt lat="43.86153" lon="5.92339">
        <ele>570.308</ele>
        <time>2020-09-02T15:28:50Z</time>
      </trkpt>
      <trkpt lat="43.86153" lon="5.9235">
        <ele>571.53</ele>
        <time>2020-09-02T15:28:52Z</time>
      </trkpt>
      <trkpt lat="43.86153" lon="5.92356">
        <ele>571.929</ele>
        <time>2020-09-02T15:28:54Z</time>
      </trkpt>
      <trkpt lat="43.86156" lon="5.92364">
        <ele>570.829</ele>
        <time>2020-09-02T15:28:58Z</time>
      </trkpt>
      <trkpt lat="43.86157" lon="5.92372">
        <ele>570.936</ele>
        <time>2020-09-02T15:28:59Z</time>
      </trkpt>
      <trkpt lat="43.86159" lon="5.92381">
        <ele>571.147</ele>
        <time>2020-09-02T15:29:00Z</time>
      </trkpt>
      <trkpt lat="43.86162" lon="5.92392">
        <ele>571.475</ele>
        <time>2020-09-02T15:29:01Z</time>
      </trkpt>
      <trkpt lat="43.86164" lon="5.92405">
        <ele>571.991</ele>
        <time>2020-09-02T15:29:02Z</time>
      </trkpt>
      <trkpt lat="43.86167" lon="5.9242">
        <ele>571.814</ele>
        <time>2020-09-02T15:29:03Z</time>
      </trkpt>
      <trkpt lat="43.86171" lon="5.92434">
        <ele>571.587</ele>
        <time>2020-09-02T15:29:04Z</time>
      </trkpt>
      <trkpt lat="43.86175" lon="5.92449">
        <ele>571.042</ele>
        <time>2020-09-02T15:29:05Z</time>
      </trkpt>
      <trkpt lat="43.86179" lon="5.92464">
        <ele>570.726</ele>
        <time>2020-09-02T15:29:06Z</time>
      </trkpt>
      <trkpt lat="43.86184" lon="5.92478">
        <ele>570.308</ele>
        <time>2020-09-02T15:29:07Z</time>
      </trkpt>
      <trkpt lat="43.8619" lon="5.92492">
        <ele>570.736</ele>
        <time>2020-09-02T15:29:08Z</time>
      </trkpt>
      <trkpt lat="43.86196" lon="5.92508">
        <ele>569.815</ele>
        <time>2020-09-02T15:29:09Z</time>
      </trkpt>
      <trkpt lat="43.86201" lon="5.92522">
        <ele>569.015</ele>
        <time>2020-09-02T15:29:10Z</time>
      </trkpt>
      <trkpt lat="43.86205" lon="5.92537">
        <ele>569.972</ele>
        <time>2020-09-02T15:29:11Z</time>
      </trkpt>
      <trkpt lat="43.86208" lon="5.92551">
        <ele>570.263</ele>
        <time>2020-09-02T15:29:12Z</time>
      </trkpt>
      <trkpt lat="43.86209" lon="5.92566">
        <ele>569.911</ele>
        <time>2020-09-02T15:29:13Z</time>
      </trkpt>
      <trkpt lat="43.86209" lon="5.92581">
        <ele>569.877</ele>
        <time>2020-09-02T15:29:14Z</time>
      </trkpt>
      <trkpt lat="43.86207" lon="5.92594">
        <ele>569.81</ele>
        <time>2020-09-02T15:29:15Z</time>
      </trkpt>
      <trkpt lat="43.86204" lon="5.92609">
        <ele>569.688</ele>
        <time>2020-09-02T15:29:16Z</time>
      </trkpt>
      <trkpt lat="43.86203" lon="5.92623">
        <ele>569.124</ele>
        <time>2020-09-02T15:29:17Z</time>
      </trkpt>
      <trkpt lat="43.862" lon="5.92637">
        <ele>569.526</ele>
        <time>2020-09-02T15:29:18Z</time>
      </trkpt>
      <trkpt lat="43.86198" lon="5.92649">
        <ele>570.008</ele>
        <time>2020-09-02T15:29:19Z</time>
      </trkpt>
      <trkpt lat="43.86195" lon="5.92663">
        <ele>570.766</ele>
        <time>2020-09-02T15:29:20Z</time>
      </trkpt>
      <trkpt lat="43.86192" lon="5.92678">
        <ele>571.195</ele>
        <time>2020-09-02T15:29:21Z</time>
      </trkpt>
      <trkpt lat="43.86187" lon="5.92695">
        <ele>570.485</ele>
        <time>2020-09-02T15:29:22Z</time>
      </trkpt>
      <trkpt lat="43.86182" lon="5.92714">
        <ele>570.582</ele>
        <time>2020-09-02T15:29:23Z</time>
      </trkpt>
      <trkpt lat="43.86176" lon="5.92732">
        <ele>570.253</ele>
        <time>2020-09-02T15:29:24Z</time>
      </trkpt>
      <trkpt lat="43.86169" lon="5.92752">
        <ele>569.841</ele>
        <time>2020-09-02T15:29:25Z</time>
      </trkpt>
      <trkpt lat="43.86163" lon="5.92772">
        <ele>570.557</ele>
        <time>2020-09-02T15:29:26Z</time>
      </trkpt>
      <trkpt lat="43.86157" lon="5.92793">
        <ele>570.84</ele>
        <time>2020-09-02T15:29:27Z</time>
      </trkpt>
      <trkpt lat="43.8615" lon="5.92814">
        <ele>570.878</ele>
        <time>2020-09-02T15:29:28Z</time>
      </trkpt>
      <trkpt lat="43.86144" lon="5.92835">
        <ele>571.533</ele>
        <time>2020-09-02T15:29:29Z</time>
      </trkpt>
      <trkpt lat="43.86138" lon="5.92855">
        <ele>572.226</ele>
        <time>2020-09-02T15:29:30Z</time>
      </trkpt>
      <trkpt lat="43.86133" lon="5.92874">
        <ele>572.608</ele>
        <time>2020-09-02T15:29:31Z</time>
      </trkpt>
      <trkpt lat="43.86129" lon="5.92892">
        <ele>573.345</ele>
        <time>2020-09-02T15:29:32Z</time>
      </trkpt>
      <trkpt lat="43.86124" lon="5.92909">
        <ele>574.084</ele>
        <time>2020-09-02T15:29:33Z</time>
      </trkpt>
      <trkpt lat="43.86118" lon="5.92923">
        <ele>574.274</ele>
        <time>2020-09-02T15:29:34Z</time>
      </trkpt>
      <trkpt lat="43.86112" lon="5.92937">
        <ele>574.741</ele>
        <time>2020-09-02T15:29:35Z</time>
      </trkpt>
      <trkpt lat="43.86105" lon="5.92951">
        <ele>575.372</ele>
        <time>2020-09-02T15:29:36Z</time>
      </trkpt>
      <trkpt lat="43.86099" lon="5.92965">
        <ele>575.49</ele>
        <time>2020-09-02T15:29:37Z</time>
      </trkpt>
      <trkpt lat="43.86093" lon="5.92982">
        <ele>576.356</ele>
        <time>2020-09-02T15:29:38Z</time>
      </trkpt>
      <trkpt lat="43.86091" lon="5.93003">
        <ele>575.189</ele>
        <time>2020-09-02T15:29:39Z</time>
      </trkpt>
      <trkpt lat="43.8609" lon="5.93023">
        <ele>574.688</ele>
        <time>2020-09-02T15:29:40Z</time>
      </trkpt>
      <trkpt lat="43.86091" lon="5.93041">
        <ele>574.224</ele>
        <time>2020-09-02T15:29:41Z</time>
      </trkpt>
      <trkpt lat="43.86093" lon="5.93059">
        <ele>573.926</ele>
        <time>2020-09-02T15:29:42Z</time>
      </trkpt>
      <trkpt lat="43.86095" lon="5.93075">
        <ele>573.308</ele>
        <time>2020-09-02T15:29:43Z</time>
      </trkpt>
      <trkpt lat="43.86096" lon="5.9309">
        <ele>572.926</ele>
        <time>2020-09-02T15:29:44Z</time>
      </trkpt>
      <trkpt lat="43.86096" lon="5.93106">
        <ele>572.965</ele>
        <time>2020-09-02T15:29:45Z</time>
      </trkpt>
      <trkpt lat="43.86096" lon="5.93123">
        <ele>573.285</ele>
        <time>2020-09-02T15:29:46Z</time>
      </trkpt>
      <trkpt lat="43.86095" lon="5.93141">
        <ele>573.442</ele>
        <time>2020-09-02T15:29:47Z</time>
      </trkpt>
      <trkpt lat="43.86095" lon="5.93159">
        <ele>573.743</ele>
        <time>2020-09-02T15:29:48Z</time>
      </trkpt>
      <trkpt lat="43.86095" lon="5.93177">
        <ele>574.431</ele>
        <time>2020-09-02T15:29:49Z</time>
      </trkpt>
      <trkpt lat="43.86095" lon="5.93193">
        <ele>575.237</ele>
        <time>2020-09-02T15:29:50Z</time>
      </trkpt>
      <trkpt lat="43.86096" lon="5.93208">
        <ele>575.18</ele>
        <time>2020-09-02T15:29:51Z</time>
      </trkpt>
      <trkpt lat="43.86099" lon="5.93223">
        <ele>574.099</ele>
        <time>2020-09-02T15:29:52Z</time>
      </trkpt>
      <trkpt lat="43.86102" lon="5.93239">
        <ele>572.907</ele>
        <time>2020-09-02T15:29:53Z</time>
      </trkpt>
      <trkpt lat="43.86105" lon="5.93254">
        <ele>572.327</ele>
        <time>2020-09-02T15:29:54Z</time>
      </trkpt>
      <trkpt lat="43.86109" lon="5.93268">
        <ele>571.308</ele>
        <time>2020-09-02T15:29:55Z</time>
      </trkpt>
      <trkpt lat="43.86113" lon="5.93282">
        <ele>571.057</ele>
        <time>2020-09-02T15:29:56Z</time>
      </trkpt>
      <trkpt lat="43.86116" lon="5.93294">
        <ele>571.166</ele>
        <time>2020-09-02T15:29:57Z</time>
      </trkpt>
      <trkpt lat="43.86111" lon="5.93306">
        <ele>570.026</ele>
        <time>2020-09-02T15:29:58Z</time>
      </trkpt>
      <trkpt lat="43.86109" lon="5.9332">
        <ele>570.153</ele>
        <time>2020-09-02T15:29:59Z</time>
      </trkpt>
      <trkpt lat="43.86106" lon="5.93333">
        <ele>570.144</ele>
        <time>2020-09-02T15:30:00Z</time>
      </trkpt>
      <trkpt lat="43.86106" lon="5.93344">
        <ele>570.562</ele>
        <time>2020-09-02T15:30:01Z</time>
      </trkpt>
      <trkpt lat="43.86108" lon="5.93356">
        <ele>570.358</ele>
        <time>2020-09-02T15:30:02Z</time>
      </trkpt>
      <trkpt lat="43.8611" lon="5.93368">
        <ele>570.761</ele>
        <time>2020-09-02T15:30:03Z</time>
      </trkpt>
      <trkpt lat="43.86115" lon="5.93379">
        <ele>571.263</ele>
        <time>2020-09-02T15:30:04Z</time>
      </trkpt>
      <trkpt lat="43.86119" lon="5.93391">
        <ele>571.344</ele>
        <time>2020-09-02T15:30:05Z</time>
      </trkpt>
      <trkpt lat="43.86125" lon="5.93402">
        <ele>571.218</ele>
        <time>2020-09-02T15:30:06Z</time>
      </trkpt>
      <trkpt lat="43.8613" lon="5.93413">
        <ele>571.108</ele>
        <time>2020-09-02T15:30:07Z</time>
      </trkpt>
      <trkpt lat="43.86137" lon="5.93423">
        <ele>571.784</ele>
        <time>2020-09-02T15:30:08Z</time>
      </trkpt>
      <trkpt lat="43.86143" lon="5.93434">
        <ele>571.823</ele>
        <time>2020-09-02T15:30:09Z</time>
      </trkpt>
      <trkpt lat="43.86146" lon="5.93446">
        <ele>571.853</ele>
        <time>2020-09-02T15:30:10Z</time>
      </trkpt>
      <trkpt lat="43.86152" lon="5.93458">
        <ele>572.46</ele>
        <time>2020-09-02T15:30:11Z</time>
      </trkpt>
      <trkpt lat="43.86159" lon="5.9347">
        <ele>572.591</ele>
        <time>2020-09-02T15:30:12Z</time>
      </trkpt>
      <trkpt lat="43.86165" lon="5.93483">
        <ele>573.399</ele>
        <time>2020-09-02T15:30:13Z</time>
      </trkpt>
      <trkpt lat="43.86171" lon="5.93496">
        <ele>573.915</ele>
        <time>2020-09-02T15:30:14Z</time>
      </trkpt>
      <trkpt lat="43.86179" lon="5.9351">
        <ele>573.818</ele>
        <time>2020-09-02T15:30:15Z</time>
      </trkpt>
      <trkpt lat="43.86188" lon="5.93525">
        <ele>574.156</ele>
        <time>2020-09-02T15:30:16Z</time>
      </trkpt>
      <trkpt lat="43.86196" lon="5.93539">
        <ele>574.959</ele>
        <time>2020-09-02T15:30:17Z</time>
      </trkpt>
      <trkpt lat="43.86206" lon="5.93555">
        <ele>575.314</ele>
        <time>2020-09-02T15:30:18Z</time>
      </trkpt>
      <trkpt lat="43.86216" lon="5.93569">
        <ele>575.508</ele>
        <time>2020-09-02T15:30:19Z</time>
      </trkpt>
      <trkpt lat="43.86225" lon="5.93583">
        <ele>576.313</ele>
        <time>2020-09-02T15:30:20Z</time>
      </trkpt>
      <trkpt lat="43.86235" lon="5.93598">
        <ele>577.182</ele>
        <time>2020-09-02T15:30:21Z</time>
      </trkpt>
      <trkpt lat="43.86244" lon="5.93612">
        <ele>577.932</ele>
        <time>2020-09-02T15:30:22Z</time>
      </trkpt>
      <trkpt lat="43.86253" lon="5.93625">
        <ele>578.939</ele>
        <time>2020-09-02T15:30:23Z</time>
      </trkpt>
      <trkpt lat="43.86262" lon="5.93638">
        <ele>579.57</ele>
        <time>2020-09-02T15:30:24Z</time>
      </trkpt>
      <trkpt lat="43.86272" lon="5.93653">
        <ele>580.028</ele>
        <time>2020-09-02T15:30:25Z</time>
      </trkpt>
      <trkpt lat="43.86282" lon="5.93667">
        <ele>580.134</ele>
        <time>2020-09-02T15:30:26Z</time>
      </trkpt>
      <trkpt lat="43.86293" lon="5.93682">
        <ele>580.457</ele>
        <time>2020-09-02T15:30:27Z</time>
      </trkpt>
      <trkpt lat="43.86304" lon="5.93696">
        <ele>580.894</ele>
        <time>2020-09-02T15:30:28Z</time>
      </trkpt>
      <trkpt lat="43.86316" lon="5.9371">
        <ele>581.157</ele>
        <time>2020-09-02T15:30:29Z</time>
      </trkpt>
      <trkpt lat="43.86329" lon="5.93725">
        <ele>581.622</ele>
        <time>2020-09-02T15:30:30Z</time>
      </trkpt>
      <trkpt lat="43.86341" lon="5.93741">
        <ele>581.908</ele>
        <time>2020-09-02T15:30:31Z</time>
      </trkpt>
      <trkpt lat="43.86354" lon="5.93756">
        <ele>582.467</ele>
        <time>2020-09-02T15:30:32Z</time>
      </trkpt>
      <trkpt lat="43.86366" lon="5.93772">
        <ele>583.026</ele>
        <time>2020-09-02T15:30:33Z</time>
      </trkpt>
      <trkpt lat="43.86379" lon="5.93789">
        <ele>583.536</ele>
        <time>2020-09-02T15:30:34Z</time>
      </trkpt>
      <trkpt lat="43.86391" lon="5.93805">
        <ele>583.973</ele>
        <time>2020-09-02T15:30:35Z</time>
      </trkpt>
      <trkpt lat="43.86403" lon="5.93822">
        <ele>584.564</ele>
        <time>2020-09-02T15:30:36Z</time>
      </trkpt>
      <trkpt lat="43.86414" lon="5.93838">
        <ele>585.312</ele>
        <time>2020-09-02T15:30:37Z</time>
      </trkpt>
      <trkpt lat="43.86425" lon="5.93853">
        <ele>586.318</ele>
        <time>2020-09-02T15:30:38Z</time>
      </trkpt>
      <trkpt lat="43.86435" lon="5.93868">
        <ele>586.811</ele>
        <time>2020-09-02T15:30:39Z</time>
      </trkpt>
      <trkpt lat="43.86444" lon="5.93882">
        <ele>587.525</ele>
        <time>2020-09-02T15:30:40Z</time>
      </trkpt>
      <trkpt lat="43.86453" lon="5.93896">
        <ele>587.926</ele>
        <time>2020-09-02T15:30:41Z</time>
      </trkpt>
      <trkpt lat="43.86462" lon="5.93912">
        <ele>587.508</ele>
        <time>2020-09-02T15:30:42Z</time>
      </trkpt>
      <trkpt lat="43.86472" lon="5.93928">
        <ele>587.208</ele>
        <time>2020-09-02T15:30:43Z</time>
      </trkpt>
      <trkpt lat="43.86481" lon="5.93944">
        <ele>587.15</ele>
        <time>2020-09-02T15:30:44Z</time>
      </trkpt>
      <trkpt lat="43.86491" lon="5.9396">
        <ele>587.189</ele>
        <time>2020-09-02T15:30:45Z</time>
      </trkpt>
      <trkpt lat="43.86499" lon="5.93977">
        <ele>587.179</ele>
        <time>2020-09-02T15:30:46Z</time>
      </trkpt>
      <trkpt lat="43.86506" lon="5.93996">
        <ele>587.286</ele>
        <time>2020-09-02T15:30:47Z</time>
      </trkpt>
      <trkpt lat="43.86514" lon="5.94016">
        <ele>587.797</ele>
        <time>2020-09-02T15:30:48Z</time>
      </trkpt>
      <trkpt lat="43.86521" lon="5.94037">
        <ele>587.785</ele>
        <time>2020-09-02T15:30:49Z</time>
      </trkpt>
      <trkpt lat="43.86529" lon="5.94056">
        <ele>588.281</ele>
        <time>2020-09-02T15:30:50Z</time>
      </trkpt>
      <trkpt lat="43.86538" lon="5.94077">
        <ele>588.634</ele>
        <time>2020-09-02T15:30:51Z</time>
      </trkpt>
      <trkpt lat="43.86547" lon="5.94097">
        <ele>588.466</ele>
        <time>2020-09-02T15:30:52Z</time>
      </trkpt>
      <trkpt lat="43.86556" lon="5.94116">
        <ele>588.829</ele>
        <time>2020-09-02T15:30:53Z</time>
      </trkpt>
      <trkpt lat="43.86565" lon="5.94134">
        <ele>588.821</ele>
        <time>2020-09-02T15:30:54Z</time>
      </trkpt>
      <trkpt lat="43.86574" lon="5.94152">
        <ele>589.008</ele>
        <time>2020-09-02T15:30:55Z</time>
      </trkpt>
      <trkpt lat="43.86582" lon="5.94169">
        <ele>589.024</ele>
        <time>2020-09-02T15:30:56Z</time>
      </trkpt>
      <trkpt lat="43.8659" lon="5.94187">
        <ele>588.173</ele>
        <time>2020-09-02T15:30:57Z</time>
      </trkpt>
      <trkpt lat="43.86598" lon="5.94203">
        <ele>588.163</ele>
        <time>2020-09-02T15:30:58Z</time>
      </trkpt>
      <trkpt lat="43.86607" lon="5.94218">
        <ele>587.74</ele>
        <time>2020-09-02T15:30:59Z</time>
      </trkpt>
      <trkpt lat="43.86617" lon="5.94233">
        <ele>587.791</ele>
        <time>2020-09-02T15:31:00Z</time>
      </trkpt>
      <trkpt lat="43.86625" lon="5.94245">
        <ele>587.499</ele>
        <time>2020-09-02T15:31:01Z</time>
      </trkpt>
      <trkpt lat="43.86632" lon="5.94257">
        <ele>586.765</ele>
        <time>2020-09-02T15:31:02Z</time>
      </trkpt>
      <trkpt lat="43.86638" lon="5.94271">
        <ele>586.288</ele>
        <time>2020-09-02T15:31:03Z</time>
      </trkpt>
      <trkpt lat="43.86642" lon="5.94286">
        <ele>586.076</ele>
        <time>2020-09-02T15:31:04Z</time>
      </trkpt>
      <trkpt lat="43.86645" lon="5.943">
        <ele>585.99</ele>
        <time>2020-09-02T15:31:05Z</time>
      </trkpt>
      <trkpt lat="43.86647" lon="5.94315">
        <ele>585.619</ele>
        <time>2020-09-02T15:31:06Z</time>
      </trkpt>
      <trkpt lat="43.86649" lon="5.94332">
        <ele>585.408</ele>
        <time>2020-09-02T15:31:07Z</time>
      </trkpt>
      <trkpt lat="43.86651" lon="5.9435">
        <ele>585.955</ele>
        <time>2020-09-02T15:31:08Z</time>
      </trkpt>
      <trkpt lat="43.86653" lon="5.94369">
        <ele>586.274</ele>
        <time>2020-09-02T15:31:09Z</time>
      </trkpt>
      <trkpt lat="43.86656" lon="5.94389">
        <ele>586.444</ele>
        <time>2020-09-02T15:31:10Z</time>
      </trkpt>
      <trkpt lat="43.86658" lon="5.9441">
        <ele>586.711</ele>
        <time>2020-09-02T15:31:11Z</time>
      </trkpt>
      <trkpt lat="43.86661" lon="5.94434">
        <ele>586.312</ele>
        <time>2020-09-02T15:31:12Z</time>
      </trkpt>
      <trkpt lat="43.86663" lon="5.94455">
        <ele>586.29</ele>
        <time>2020-09-02T15:31:13Z</time>
      </trkpt>
      <trkpt lat="43.86664" lon="5.94475">
        <ele>586.666</ele>
        <time>2020-09-02T15:31:14Z</time>
      </trkpt>
      <trkpt lat="43.86665" lon="5.94496">
        <ele>586.429</ele>
        <time>2020-09-02T15:31:15Z</time>
      </trkpt>
      <trkpt lat="43.86666" lon="5.94517">
        <ele>586.567</ele>
        <time>2020-09-02T15:31:16Z</time>
      </trkpt>
      <trkpt lat="43.86667" lon="5.94539">
        <ele>586.181</ele>
        <time>2020-09-02T15:31:17Z</time>
      </trkpt>
      <trkpt lat="43.86667" lon="5.9456">
        <ele>586.619</ele>
        <time>2020-09-02T15:31:18Z</time>
      </trkpt>
      <trkpt lat="43.86666" lon="5.94582">
        <ele>586.208</ele>
        <time>2020-09-02T15:31:19Z</time>
      </trkpt>
      <trkpt lat="43.86666" lon="5.94605">
        <ele>586.244</ele>
        <time>2020-09-02T15:31:20Z</time>
      </trkpt>
      <trkpt lat="43.86663" lon="5.94626">
        <ele>586.863</ele>
        <time>2020-09-02T15:31:21Z</time>
      </trkpt>
      <trkpt lat="43.8666" lon="5.94645">
        <ele>586.833</ele>
        <time>2020-09-02T15:31:22Z</time>
      </trkpt>
      <trkpt lat="43.86657" lon="5.94663">
        <ele>586.77</ele>
        <time>2020-09-02T15:31:23Z</time>
      </trkpt>
      <trkpt lat="43.86654" lon="5.94678">
        <ele>587.281</ele>
        <time>2020-09-02T15:31:24Z</time>
      </trkpt>
      <trkpt lat="43.86651" lon="5.94692">
        <ele>587.679</ele>
        <time>2020-09-02T15:31:25Z</time>
      </trkpt>
      <trkpt lat="43.86651" lon="5.94703">
        <ele>587.695</ele>
        <time>2020-09-02T15:31:26Z</time>
      </trkpt>
      <trkpt lat="43.86654" lon="5.94713">
        <ele>587.678</ele>
        <time>2020-09-02T15:31:27Z</time>
      </trkpt>
      <trkpt lat="43.86657" lon="5.94723">
        <ele>587.737</ele>
        <time>2020-09-02T15:31:28Z</time>
      </trkpt>
      <trkpt lat="43.86663" lon="5.94732">
        <ele>587.949</ele>
        <time>2020-09-02T15:31:29Z</time>
      </trkpt>
      <trkpt lat="43.8667" lon="5.94742">
        <ele>587.813</ele>
        <time>2020-09-02T15:31:30Z</time>
      </trkpt>
      <trkpt lat="43.86678" lon="5.94752">
        <ele>587.508</ele>
        <time>2020-09-02T15:31:31Z</time>
      </trkpt>
      <trkpt lat="43.86687" lon="5.94761">
        <ele>587.261</ele>
        <time>2020-09-02T15:31:32Z</time>
      </trkpt>
      <trkpt lat="43.86698" lon="5.94768">
        <ele>587.03</ele>
        <time>2020-09-02T15:31:33Z</time>
      </trkpt>
      <trkpt lat="43.86709" lon="5.94773">
        <ele>587.15</ele>
        <time>2020-09-02T15:31:34Z</time>
      </trkpt>
      <trkpt lat="43.86719" lon="5.94777">
        <ele>586.817</ele>
        <time>2020-09-02T15:31:35Z</time>
      </trkpt>
      <trkpt lat="43.86731" lon="5.94781">
        <ele>586.338</ele>
        <time>2020-09-02T15:31:36Z</time>
      </trkpt>
      <trkpt lat="43.86742" lon="5.94785">
        <ele>585.896</ele>
        <time>2020-09-02T15:31:37Z</time>
      </trkpt>
      <trkpt lat="43.86753" lon="5.94789">
        <ele>586.512</ele>
        <time>2020-09-02T15:31:38Z</time>
      </trkpt>
      <trkpt lat="43.86763" lon="5.94791">
        <ele>587.355</ele>
        <time>2020-09-02T15:31:39Z</time>
      </trkpt>
      <trkpt lat="43.86771" lon="5.94791">
        <ele>588.382</ele>
        <time>2020-09-02T15:31:40Z</time>
      </trkpt>
      <trkpt lat="43.86778" lon="5.94789">
        <ele>588.243</ele>
        <time>2020-09-02T15:31:41Z</time>
      </trkpt>
      <trkpt lat="43.86785" lon="5.94784">
        <ele>589.317</ele>
        <time>2020-09-02T15:31:42Z</time>
      </trkpt>
      <trkpt lat="43.86792" lon="5.94776">
        <ele>589.408</ele>
        <time>2020-09-02T15:31:43Z</time>
      </trkpt>
      <trkpt lat="43.86799" lon="5.94768">
        <ele>589.846</ele>
        <time>2020-09-02T15:31:44Z</time>
      </trkpt>
      <trkpt lat="43.86807" lon="5.94757">
        <ele>590.315</ele>
        <time>2020-09-02T15:31:45Z</time>
      </trkpt>
      <trkpt lat="43.86816" lon="5.94749">
        <ele>590.345</ele>
        <time>2020-09-02T15:31:46Z</time>
      </trkpt>
      <trkpt lat="43.86823" lon="5.94742">
        <ele>589.882</ele>
        <time>2020-09-02T15:31:47Z</time>
      </trkpt>
      <trkpt lat="43.86831" lon="5.94741">
        <ele>589.893</ele>
        <time>2020-09-02T15:31:48Z</time>
      </trkpt>
      <trkpt lat="43.86838" lon="5.94741">
        <ele>589.961</ele>
        <time>2020-09-02T15:31:49Z</time>
      </trkpt>
      <trkpt lat="43.86842" lon="5.94746">
        <ele>591.227</ele>
        <time>2020-09-02T15:31:50Z</time>
      </trkpt>
      <trkpt lat="43.86845" lon="5.94752">
        <ele>591.35</ele>
        <time>2020-09-02T15:31:51Z</time>
      </trkpt>
      <trkpt lat="43.86847" lon="5.94759">
        <ele>591.627</ele>
        <time>2020-09-02T15:31:52Z</time>
      </trkpt>
      <trkpt lat="43.86851" lon="5.94768">
        <ele>590.968</ele>
        <time>2020-09-02T15:31:53Z</time>
      </trkpt>
      <trkpt lat="43.86855" lon="5.94777">
        <ele>590.714</ele>
        <time>2020-09-02T15:31:54Z</time>
      </trkpt>
      <trkpt lat="43.86857" lon="5.94783">
        <ele>590.608</ele>
        <time>2020-09-02T15:31:55Z</time>
      </trkpt>
      <trkpt lat="43.86859" lon="5.9479">
        <ele>590.44</ele>
        <time>2020-09-02T15:31:56Z</time>
      </trkpt>
      <trkpt lat="43.86863" lon="5.948">
        <ele>590.299</ele>
        <time>2020-09-02T15:31:58Z</time>
      </trkpt>
      <trkpt lat="43.86866" lon="5.94809">
        <ele>590.549</ele>
        <time>2020-09-02T15:32:00Z</time>
      </trkpt>
      <trkpt lat="43.8687" lon="5.94817">
        <ele>590.466</ele>
        <time>2020-09-02T15:32:02Z</time>
      </trkpt>
      <trkpt lat="43.86873" lon="5.94824">
        <ele>590.687</ele>
        <time>2020-09-02T15:32:03Z</time>
      </trkpt>
      <trkpt lat="43.86878" lon="5.94835">
        <ele>590.565</ele>
        <time>2020-09-02T15:32:04Z</time>
      </trkpt>
      <trkpt lat="43.86883" lon="5.94848">
        <ele>590.991</ele>
        <time>2020-09-02T15:32:05Z</time>
      </trkpt>
      <trkpt lat="43.86888" lon="5.9486">
        <ele>591.134</ele>
        <time>2020-09-02T15:32:06Z</time>
      </trkpt>
      <trkpt lat="43.86894" lon="5.94874">
        <ele>591.413</ele>
        <time>2020-09-02T15:32:07Z</time>
      </trkpt>
      <trkpt lat="43.86901" lon="5.94889">
        <ele>591.043</ele>
        <time>2020-09-02T15:32:08Z</time>
      </trkpt>
      <trkpt lat="43.86907" lon="5.94905">
        <ele>591.707</ele>
        <time>2020-09-02T15:32:09Z</time>
      </trkpt>
      <trkpt lat="43.86914" lon="5.94921">
        <ele>591.508</ele>
        <time>2020-09-02T15:32:10Z</time>
      </trkpt>
      <trkpt lat="43.86922" lon="5.94936">
        <ele>592.019</ele>
        <time>2020-09-02T15:32:11Z</time>
      </trkpt>
      <trkpt lat="43.86931" lon="5.94952">
        <ele>590.858</ele>
        <time>2020-09-02T15:32:12Z</time>
      </trkpt>
      <trkpt lat="43.86938" lon="5.94967">
        <ele>590.368</ele>
        <time>2020-09-02T15:32:13Z</time>
      </trkpt>
      <trkpt lat="43.86947" lon="5.94983">
        <ele>590.065</ele>
        <time>2020-09-02T15:32:14Z</time>
      </trkpt>
      <trkpt lat="43.86955" lon="5.95">
        <ele>589.966</ele>
        <time>2020-09-02T15:32:15Z</time>
      </trkpt>
      <trkpt lat="43.86962" lon="5.95016">
        <ele>590.014</ele>
        <time>2020-09-02T15:32:16Z</time>
      </trkpt>
      <trkpt lat="43.8697" lon="5.95033">
        <ele>589.74</ele>
        <time>2020-09-02T15:32:17Z</time>
      </trkpt>
      <trkpt lat="43.86978" lon="5.9505">
        <ele>590.223</ele>
        <time>2020-09-02T15:32:18Z</time>
      </trkpt>
      <trkpt lat="43.86986" lon="5.95066">
        <ele>589.946</ele>
        <time>2020-09-02T15:32:19Z</time>
      </trkpt>
      <trkpt lat="43.86994" lon="5.95083">
        <ele>590.588</ele>
        <time>2020-09-02T15:32:20Z</time>
      </trkpt>
      <trkpt lat="43.87002" lon="5.95099">
        <ele>591.416</ele>
        <time>2020-09-02T15:32:21Z</time>
      </trkpt>
      <trkpt lat="43.87009" lon="5.95114">
        <ele>592.408</ele>
        <time>2020-09-02T15:32:22Z</time>
      </trkpt>
      <trkpt lat="43.87017" lon="5.95129">
        <ele>593.422</ele>
        <time>2020-09-02T15:32:23Z</time>
      </trkpt>
      <trkpt lat="43.87023" lon="5.95143">
        <ele>593.281</ele>
        <time>2020-09-02T15:32:24Z</time>
      </trkpt>
      <trkpt lat="43.87028" lon="5.95155">
        <ele>593.881</ele>
        <time>2020-09-02T15:32:25Z</time>
      </trkpt>
      <trkpt lat="43.87031" lon="5.95162">
        <ele>593.818</ele>
        <time>2020-09-02T15:32:26Z</time>
      </trkpt>
      <trkpt lat="43.87033" lon="5.9517">
        <ele>594.079</ele>
        <time>2020-09-02T15:32:28Z</time>
      </trkpt>
      <trkpt lat="43.87037" lon="5.95179">
        <ele>594.487</ele>
        <time>2020-09-02T15:32:30Z</time>
      </trkpt>
      <trkpt lat="43.8704" lon="5.95185">
        <ele>594.813</ele>
        <time>2020-09-02T15:32:31Z</time>
      </trkpt>
      <trkpt lat="43.87045" lon="5.95193">
        <ele>594.896</ele>
        <time>2020-09-02T15:32:32Z</time>
      </trkpt>
      <trkpt lat="43.87049" lon="5.95203">
        <ele>595.221</ele>
        <time>2020-09-02T15:32:33Z</time>
      </trkpt>
      <trkpt lat="43.87052" lon="5.95216">
        <ele>594.841</ele>
        <time>2020-09-02T15:32:34Z</time>
      </trkpt>
      <trkpt lat="43.87056" lon="5.95229">
        <ele>595.005</ele>
        <time>2020-09-02T15:32:35Z</time>
      </trkpt>
      <trkpt lat="43.8706" lon="5.95242">
        <ele>595.208</ele>
        <time>2020-09-02T15:32:36Z</time>
      </trkpt>
      <trkpt lat="43.87065" lon="5.95256">
        <ele>595.56</ele>
        <time>2020-09-02T15:32:37Z</time>
      </trkpt>
      <trkpt lat="43.8707" lon="5.95271">
        <ele>595.769</ele>
        <time>2020-09-02T15:32:38Z</time>
      </trkpt>
      <trkpt lat="43.87076" lon="5.95288">
        <ele>595.419</ele>
        <time>2020-09-02T15:32:39Z</time>
      </trkpt>
      <trkpt lat="43.87083" lon="5.95305">
        <ele>595.846</ele>
        <time>2020-09-02T15:32:40Z</time>
      </trkpt>
      <trkpt lat="43.8709" lon="5.95323">
        <ele>595.577</ele>
        <time>2020-09-02T15:32:41Z</time>
      </trkpt>
      <trkpt lat="43.87099" lon="5.9534">
        <ele>596.095</ele>
        <time>2020-09-02T15:32:42Z</time>
      </trkpt>
      <trkpt lat="43.87109" lon="5.95355">
        <ele>596.531</ele>
        <time>2020-09-02T15:32:43Z</time>
      </trkpt>
      <trkpt lat="43.8712" lon="5.9537">
        <ele>596.464</ele>
        <time>2020-09-02T15:32:44Z</time>
      </trkpt>
      <trkpt lat="43.87131" lon="5.95384">
        <ele>596.888</ele>
        <time>2020-09-02T15:32:45Z</time>
      </trkpt>
      <trkpt lat="43.87141" lon="5.95398">
        <ele>596.824</ele>
        <time>2020-09-02T15:32:46Z</time>
      </trkpt>
      <trkpt lat="43.87152" lon="5.95412">
        <ele>597.126</ele>
        <time>2020-09-02T15:32:47Z</time>
      </trkpt>
      <trkpt lat="43.87162" lon="5.95426">
        <ele>597.708</ele>
        <time>2020-09-02T15:32:48Z</time>
      </trkpt>
      <trkpt lat="43.87173" lon="5.95441">
        <ele>598.256</ele>
        <time>2020-09-02T15:32:49Z</time>
      </trkpt>
      <trkpt lat="43.87183" lon="5.95454">
        <ele>599.055</ele>
        <time>2020-09-02T15:32:50Z</time>
      </trkpt>
      <trkpt lat="43.87194" lon="5.95469">
        <ele>599.785</ele>
        <time>2020-09-02T15:32:51Z</time>
      </trkpt>
      <trkpt lat="43.87203" lon="5.95484">
        <ele>601.432</ele>
        <time>2020-09-02T15:32:52Z</time>
      </trkpt>
      <trkpt lat="43.87211" lon="5.955">
        <ele>601.733</ele>
        <time>2020-09-02T15:32:53Z</time>
      </trkpt>
      <trkpt lat="43.87218" lon="5.95516">
        <ele>603.081</ele>
        <time>2020-09-02T15:32:54Z</time>
      </trkpt>
      <trkpt lat="43.87226" lon="5.95533">
        <ele>603.167</ele>
        <time>2020-09-02T15:32:55Z</time>
      </trkpt>
      <trkpt lat="43.87234" lon="5.95549">
        <ele>604.11</ele>
        <time>2020-09-02T15:32:56Z</time>
      </trkpt>
      <trkpt lat="43.87241" lon="5.95567">
        <ele>604.713</ele>
        <time>2020-09-02T15:32:57Z</time>
      </trkpt>
      <trkpt lat="43.87249" lon="5.95584">
        <ele>604.943</ele>
        <time>2020-09-02T15:32:58Z</time>
      </trkpt>
      <trkpt lat="43.87258" lon="5.95602">
        <ele>604.907</ele>
        <time>2020-09-02T15:32:59Z</time>
      </trkpt>
      <trkpt lat="43.87266" lon="5.95617">
        <ele>605.308</ele>
        <time>2020-09-02T15:33:00Z</time>
      </trkpt>
      <trkpt lat="43.87274" lon="5.95632">
        <ele>604.789</ele>
        <time>2020-09-02T15:33:01Z</time>
      </trkpt>
      <trkpt lat="43.87281" lon="5.95644">
        <ele>604.438</ele>
        <time>2020-09-02T15:33:02Z</time>
      </trkpt>
      <trkpt lat="43.87286" lon="5.95656">
        <ele>604.298</ele>
        <time>2020-09-02T15:33:03Z</time>
      </trkpt>
      <trkpt lat="43.8729" lon="5.95668">
        <ele>604.285</ele>
        <time>2020-09-02T15:33:04Z</time>
      </trkpt>
      <trkpt lat="43.87292" lon="5.95681">
        <ele>603.926</ele>
        <time>2020-09-02T15:33:05Z</time>
      </trkpt>
      <trkpt lat="43.8729" lon="5.95696">
        <ele>603.634</ele>
        <time>2020-09-02T15:33:06Z</time>
      </trkpt>
      <trkpt lat="43.87285" lon="5.95708">
        <ele>604.14</ele>
        <time>2020-09-02T15:33:07Z</time>
      </trkpt>
      <trkpt lat="43.87278" lon="5.95722">
        <ele>604.323</ele>
        <time>2020-09-02T15:33:08Z</time>
      </trkpt>
      <trkpt lat="43.87269" lon="5.95737">
        <ele>604.431</ele>
        <time>2020-09-02T15:33:09Z</time>
      </trkpt>
      <trkpt lat="43.8726" lon="5.95753">
        <ele>604.361</ele>
        <time>2020-09-02T15:33:10Z</time>
      </trkpt>
      <trkpt lat="43.87251" lon="5.95767">
        <ele>604.007</ele>
        <time>2020-09-02T15:33:11Z</time>
      </trkpt>
      <trkpt lat="43.87242" lon="5.95782">
        <ele>603.608</ele>
        <time>2020-09-02T15:33:12Z</time>
      </trkpt>
      <trkpt lat="43.87235" lon="5.95797">
        <ele>603.471</ele>
        <time>2020-09-02T15:33:13Z</time>
      </trkpt>
      <trkpt lat="43.8723" lon="5.95815">
        <ele>603.59</ele>
        <time>2020-09-02T15:33:14Z</time>
      </trkpt>
      <trkpt lat="43.87223" lon="5.95834">
        <ele>603.28</ele>
        <time>2020-09-02T15:33:15Z</time>
      </trkpt>
      <trkpt lat="43.87215" lon="5.95853">
        <ele>603.477</ele>
        <time>2020-09-02T15:33:16Z</time>
      </trkpt>
      <trkpt lat="43.87206" lon="5.95872">
        <ele>603.778</ele>
        <time>2020-09-02T15:33:17Z</time>
      </trkpt>
      <trkpt lat="43.87199" lon="5.95892">
        <ele>603.526</ele>
        <time>2020-09-02T15:33:18Z</time>
      </trkpt>
      <trkpt lat="43.87192" lon="5.95914">
        <ele>603.352</ele>
        <time>2020-09-02T15:33:19Z</time>
      </trkpt>
      <trkpt lat="43.87186" lon="5.95936">
        <ele>603.875</ele>
        <time>2020-09-02T15:33:20Z</time>
      </trkpt>
      <trkpt lat="43.87181" lon="5.95956">
        <ele>603.873</ele>
        <time>2020-09-02T15:33:21Z</time>
      </trkpt>
      <trkpt lat="43.87177" lon="5.95975">
        <ele>604.385</ele>
        <time>2020-09-02T15:33:22Z</time>
      </trkpt>
      <trkpt lat="43.87173" lon="5.95992">
        <ele>604.013</ele>
        <time>2020-09-02T15:33:23Z</time>
      </trkpt>
      <trkpt lat="43.87171" lon="5.96009">
        <ele>603.508</ele>
        <time>2020-09-02T15:33:24Z</time>
      </trkpt>
      <trkpt lat="43.87169" lon="5.96026">
        <ele>602.955</ele>
        <time>2020-09-02T15:33:25Z</time>
      </trkpt>
      <trkpt lat="43.87167" lon="5.96043">
        <ele>602.564</ele>
        <time>2020-09-02T15:33:26Z</time>
      </trkpt>
      <trkpt lat="43.87164" lon="5.9606">
        <ele>601.394</ele>
        <time>2020-09-02T15:33:27Z</time>
      </trkpt>
      <trkpt lat="43.87161" lon="5.96078">
        <ele>601.011</ele>
        <time>2020-09-02T15:33:28Z</time>
      </trkpt>
      <trkpt lat="43.87157" lon="5.96095">
        <ele>600.422</ele>
        <time>2020-09-02T15:33:29Z</time>
      </trkpt>
      <trkpt lat="43.87153" lon="5.96113">
        <ele>599.55</ele>
        <time>2020-09-02T15:33:30Z</time>
      </trkpt>
      <trkpt lat="43.87148" lon="5.96131">
        <ele>599.226</ele>
        <time>2020-09-02T15:33:31Z</time>
      </trkpt>
      <trkpt lat="43.87143" lon="5.96149">
        <ele>599.199</ele>
        <time>2020-09-02T15:33:32Z</time>
      </trkpt>
      <trkpt lat="43.87137" lon="5.96166">
        <ele>599.045</ele>
        <time>2020-09-02T15:33:33Z</time>
      </trkpt>
      <trkpt lat="43.8713" lon="5.96183">
        <ele>599.147</ele>
        <time>2020-09-02T15:33:34Z</time>
      </trkpt>
      <trkpt lat="43.87124" lon="5.96201">
        <ele>598.911</ele>
        <time>2020-09-02T15:33:35Z</time>
      </trkpt>
      <trkpt lat="43.8712" lon="5.96219">
        <ele>599.108</ele>
        <time>2020-09-02T15:33:36Z</time>
      </trkpt>
      <trkpt lat="43.87117" lon="5.96235">
        <ele>599.262</ele>
        <time>2020-09-02T15:33:37Z</time>
      </trkpt>
      <trkpt lat="43.87118" lon="5.96249">
        <ele>599.341</ele>
        <time>2020-09-02T15:33:38Z</time>
      </trkpt>
      <trkpt lat="43.87121" lon="5.96263">
        <ele>599.551</ele>
        <time>2020-09-02T15:33:39Z</time>
      </trkpt>
      <trkpt lat="43.87124" lon="5.96277">
        <ele>599.798</ele>
        <time>2020-09-02T15:33:40Z</time>
      </trkpt>
      <trkpt lat="43.87126" lon="5.96294">
        <ele>599.999</ele>
        <time>2020-09-02T15:33:41Z</time>
      </trkpt>
      <trkpt lat="43.87127" lon="5.96311">
        <ele>600.427</ele>
        <time>2020-09-02T15:33:42Z</time>
      </trkpt>
      <trkpt lat="43.87127" lon="5.96328">
        <ele>601.093</ele>
        <time>2020-09-02T15:33:43Z</time>
      </trkpt>
      <trkpt lat="43.87126" lon="5.96345">
        <ele>602.036</ele>
        <time>2020-09-02T15:33:44Z</time>
      </trkpt>
      <trkpt lat="43.87125" lon="5.96361">
        <ele>603.418</ele>
        <time>2020-09-02T15:33:45Z</time>
      </trkpt>
      <trkpt lat="43.87124" lon="5.96377">
        <ele>604.198</ele>
        <time>2020-09-02T15:33:46Z</time>
      </trkpt>
      <trkpt lat="43.87121" lon="5.96393">
        <ele>604.617</ele>
        <time>2020-09-02T15:33:47Z</time>
      </trkpt>
      <trkpt lat="43.87118" lon="5.96409">
        <ele>605.208</ele>
        <time>2020-09-02T15:33:48Z</time>
      </trkpt>
      <trkpt lat="43.87114" lon="5.96426">
        <ele>604.639</ele>
        <time>2020-09-02T15:33:49Z</time>
      </trkpt>
      <trkpt lat="43.87111" lon="5.96441">
        <ele>604.868</ele>
        <time>2020-09-02T15:33:50Z</time>
      </trkpt>
      <trkpt lat="43.87108" lon="5.96456">
        <ele>604.658</ele>
        <time>2020-09-02T15:33:51Z</time>
      </trkpt>
      <trkpt lat="43.87105" lon="5.9647">
        <ele>604.695</ele>
        <time>2020-09-02T15:33:52Z</time>
      </trkpt>
      <trkpt lat="43.87107" lon="5.96483">
        <ele>604.886</ele>
        <time>2020-09-02T15:33:53Z</time>
      </trkpt>
      <trkpt lat="43.87111" lon="5.96494">
        <ele>605.684</ele>
        <time>2020-09-02T15:33:54Z</time>
      </trkpt>
      <trkpt lat="43.87116" lon="5.96508">
        <ele>605.97</ele>
        <time>2020-09-02T15:33:55Z</time>
      </trkpt>
      <trkpt lat="43.8712" lon="5.96519">
        <ele>605.923</ele>
        <time>2020-09-02T15:33:56Z</time>
      </trkpt>
      <trkpt lat="43.87125" lon="5.9653">
        <ele>606.346</ele>
        <time>2020-09-02T15:33:57Z</time>
      </trkpt>
      <trkpt lat="43.87131" lon="5.96539">
        <ele>606.388</ele>
        <time>2020-09-02T15:33:58Z</time>
      </trkpt>
      <trkpt lat="43.87137" lon="5.96544">
        <ele>606.516</ele>
        <time>2020-09-02T15:33:59Z</time>
      </trkpt>
      <trkpt lat="43.87146" lon="5.96548">
        <ele>606.908</ele>
        <time>2020-09-02T15:34:00Z</time>
      </trkpt>
      <trkpt lat="43.87157" lon="5.9655">
        <ele>606.572</ele>
        <time>2020-09-02T15:34:01Z</time>
      </trkpt>
      <trkpt lat="43.87166" lon="5.96553">
        <ele>607.011</ele>
        <time>2020-09-02T15:34:02Z</time>
      </trkpt>
      <trkpt lat="43.87172" lon="5.96559">
        <ele>607.051</ele>
        <time>2020-09-02T15:34:03Z</time>
      </trkpt>
      <trkpt lat="43.87177" lon="5.96568">
        <ele>607.278</ele>
        <time>2020-09-02T15:34:04Z</time>
      </trkpt>
      <trkpt lat="43.8718" lon="5.9658">
        <ele>606.539</ele>
        <time>2020-09-02T15:34:05Z</time>
      </trkpt>
      <trkpt lat="43.8718" lon="5.96593">
        <ele>606.947</ele>
        <time>2020-09-02T15:34:06Z</time>
      </trkpt>
      <trkpt lat="43.87178" lon="5.96607">
        <ele>606.793</ele>
        <time>2020-09-02T15:34:07Z</time>
      </trkpt>
      <trkpt lat="43.87177" lon="5.96623">
        <ele>606.746</ele>
        <time>2020-09-02T15:34:08Z</time>
      </trkpt>
      <trkpt lat="43.87178" lon="5.96638">
        <ele>608.029</ele>
        <time>2020-09-02T15:34:09Z</time>
      </trkpt>
      <trkpt lat="43.87179" lon="5.96656">
        <ele>608.9</ele>
        <time>2020-09-02T15:34:10Z</time>
      </trkpt>
      <trkpt lat="43.87182" lon="5.96673">
        <ele>610.22</ele>
        <time>2020-09-02T15:34:11Z</time>
      </trkpt>
      <trkpt lat="43.87185" lon="5.96691">
        <ele>611.508</ele>
        <time>2020-09-02T15:34:12Z</time>
      </trkpt>
      <trkpt lat="43.87189" lon="5.96708">
        <ele>612.21</ele>
        <time>2020-09-02T15:34:13Z</time>
      </trkpt>
      <trkpt lat="43.87192" lon="5.96726">
        <ele>612.969</ele>
        <time>2020-09-02T15:34:14Z</time>
      </trkpt>
      <trkpt lat="43.87196" lon="5.96744">
        <ele>613.819</ele>
        <time>2020-09-02T15:34:15Z</time>
      </trkpt>
      <trkpt lat="43.87198" lon="5.96761">
        <ele>613.446</ele>
        <time>2020-09-02T15:34:16Z</time>
      </trkpt>
      <trkpt lat="43.87202" lon="5.9678">
        <ele>613.957</ele>
        <time>2020-09-02T15:34:17Z</time>
      </trkpt>
      <trkpt lat="43.87205" lon="5.96798">
        <ele>614.145</ele>
        <time>2020-09-02T15:34:18Z</time>
      </trkpt>
      <trkpt lat="43.87209" lon="5.96816">
        <ele>614.481</ele>
        <time>2020-09-02T15:34:19Z</time>
      </trkpt>
      <trkpt lat="43.87212" lon="5.96834">
        <ele>614.624</ele>
        <time>2020-09-02T15:34:20Z</time>
      </trkpt>
      <trkpt lat="43.87216" lon="5.96853">
        <ele>614.793</ele>
        <time>2020-09-02T15:34:21Z</time>
      </trkpt>
      <trkpt lat="43.87219" lon="5.96874">
        <ele>614.865</ele>
        <time>2020-09-02T15:34:22Z</time>
      </trkpt>
      <trkpt lat="43.87223" lon="5.96896">
        <ele>615.421</ele>
        <time>2020-09-02T15:34:23Z</time>
      </trkpt>
      <trkpt lat="43.87227" lon="5.96918">
        <ele>615.708</ele>
        <time>2020-09-02T15:34:24Z</time>
      </trkpt>
      <trkpt lat="43.87231" lon="5.9694">
        <ele>616.337</ele>
        <time>2020-09-02T15:34:25Z</time>
      </trkpt>
      <trkpt lat="43.87235" lon="5.96961">
        <ele>616.246</ele>
        <time>2020-09-02T15:34:26Z</time>
      </trkpt>
      <trkpt lat="43.87239" lon="5.96983">
        <ele>615.996</ele>
        <time>2020-09-02T15:34:27Z</time>
      </trkpt>
      <trkpt lat="43.87243" lon="5.97002">
        <ele>616.043</ele>
        <time>2020-09-02T15:34:28Z</time>
      </trkpt>
      <trkpt lat="43.87246" lon="5.9702">
        <ele>616.654</ele>
        <time>2020-09-02T15:34:29Z</time>
      </trkpt>
      <trkpt lat="43.87249" lon="5.97037">
        <ele>616.842</ele>
        <time>2020-09-02T15:34:30Z</time>
      </trkpt>
      <trkpt lat="43.87252" lon="5.97053">
        <ele>617.048</ele>
        <time>2020-09-02T15:34:31Z</time>
      </trkpt>
      <trkpt lat="43.87253" lon="5.97067">
        <ele>617.661</ele>
        <time>2020-09-02T15:34:32Z</time>
      </trkpt>
      <trkpt lat="43.87254" lon="5.97078">
        <ele>617.384</ele>
        <time>2020-09-02T15:34:33Z</time>
      </trkpt>
      <trkpt lat="43.87253" lon="5.97086">
        <ele>617.207</ele>
        <time>2020-09-02T15:34:34Z</time>
      </trkpt>
      <trkpt lat="43.87253" lon="5.97093">
        <ele>617.817</ele>
        <time>2020-09-02T15:34:35Z</time>
      </trkpt>
      <trkpt lat="43.87249" lon="5.97102">
        <ele>616.908</ele>
        <time>2020-09-02T15:34:37Z</time>
      </trkpt>
      <trkpt lat="43.87244" lon="5.97105">
        <ele>616.966</ele>
        <time>2020-09-02T15:34:38Z</time>
      </trkpt>
      <trkpt lat="43.87236" lon="5.97109">
        <ele>617.145</ele>
        <time>2020-09-02T15:34:39Z</time>
      </trkpt>
      <trkpt lat="43.87229" lon="5.97113">
        <ele>617.745</ele>
        <time>2020-09-02T15:34:40Z</time>
      </trkpt>
      <trkpt lat="43.8722" lon="5.9712">
        <ele>617.842</ele>
        <time>2020-09-02T15:34:41Z</time>
      </trkpt>
      <trkpt lat="43.87212" lon="5.97127">
        <ele>618.113</ele>
        <time>2020-09-02T15:34:42Z</time>
      </trkpt>
      <trkpt lat="43.87203" lon="5.97135">
        <ele>618.831</ele>
        <time>2020-09-02T15:34:43Z</time>
      </trkpt>
      <trkpt lat="43.87194" lon="5.97143">
        <ele>618.927</ele>
        <time>2020-09-02T15:34:44Z</time>
      </trkpt>
      <trkpt lat="43.87184" lon="5.97152">
        <ele>618.54</ele>
        <time>2020-09-02T15:34:45Z</time>
      </trkpt>
      <trkpt lat="43.87175" lon="5.97161">
        <ele>618.285</ele>
        <time>2020-09-02T15:34:46Z</time>
      </trkpt>
      <trkpt lat="43.87166" lon="5.9717">
        <ele>617.889</ele>
        <time>2020-09-02T15:34:47Z</time>
      </trkpt>
      <trkpt lat="43.87159" lon="5.97177">
        <ele>617.017</ele>
        <time>2020-09-02T15:34:48Z</time>
      </trkpt>
      <trkpt lat="43.87153" lon="5.97183">
        <ele>616.908</ele>
        <time>2020-09-02T15:34:49Z</time>
      </trkpt>
      <trkpt lat="43.87147" lon="5.9719">
        <ele>616.316</ele>
        <time>2020-09-02T15:34:50Z</time>
      </trkpt>
      <trkpt lat="43.87144" lon="5.97196">
        <ele>616.225</ele>
        <time>2020-09-02T15:34:51Z</time>
      </trkpt>
      <trkpt lat="43.87139" lon="5.97204">
        <ele>616.065</ele>
        <time>2020-09-02T15:34:53Z</time>
      </trkpt>
      <trkpt lat="43.87138" lon="5.97212">
        <ele>614.992</ele>
        <time>2020-09-02T15:34:56Z</time>
      </trkpt>
      <trkpt lat="43.87133" lon="5.97211">
        <ele>613.933</ele>
        <time>2020-09-02T15:35:00Z</time>
      </trkpt>
      <trkpt lat="43.87126" lon="5.97206">
        <ele>613.071</ele>
        <time>2020-09-02T15:35:02Z</time>
      </trkpt>
      <trkpt lat="43.87122" lon="5.97202">
        <ele>612.317</ele>
        <time>2020-09-02T15:35:03Z</time>
      </trkpt>
      <trkpt lat="43.87119" lon="5.97196">
        <ele>611.83</ele>
        <time>2020-09-02T15:35:04Z</time>
      </trkpt>
      <trkpt lat="43.87117" lon="5.97188">
        <ele>610.916</ele>
        <time>2020-09-02T15:35:05Z</time>
      </trkpt>
      <trkpt lat="43.87116" lon="5.97178">
        <ele>610.676</ele>
        <time>2020-09-02T15:35:06Z</time>
      </trkpt>
      <trkpt lat="43.87116" lon="5.97165">
        <ele>610.213</ele>
        <time>2020-09-02T15:35:07Z</time>
      </trkpt>
      <trkpt lat="43.87116" lon="5.97152">
        <ele>610.208</ele>
        <time>2020-09-02T15:35:08Z</time>
      </trkpt>
      <trkpt lat="43.87113" lon="5.97139">
        <ele>609.839</ele>
        <time>2020-09-02T15:35:09Z</time>
      </trkpt>
      <trkpt lat="43.8711" lon="5.97126">
        <ele>609.578</ele>
        <time>2020-09-02T15:35:10Z</time>
      </trkpt>
      <trkpt lat="43.87102" lon="5.97119">
        <ele>608.248</ele>
        <time>2020-09-02T15:35:11Z</time>
      </trkpt>
      <trkpt lat="43.87094" lon="5.97111">
        <ele>606.945</ele>
        <time>2020-09-02T15:35:12Z</time>
      </trkpt>
      <trkpt lat="43.87085" lon="5.97104">
        <ele>605.776</ele>
        <time>2020-09-02T15:35:13Z</time>
      </trkpt>
      <trkpt lat="43.87075" lon="5.97097">
        <ele>604.814</ele>
        <time>2020-09-02T15:35:14Z</time>
      </trkpt>
      <trkpt lat="43.87065" lon="5.97092">
        <ele>603.63</ele>
        <time>2020-09-02T15:35:15Z</time>
      </trkpt>
      <trkpt lat="43.87055" lon="5.97086">
        <ele>602.613</ele>
        <time>2020-09-02T15:35:16Z</time>
      </trkpt>
      <trkpt lat="43.87046" lon="5.9708">
        <ele>601.689</ele>
        <time>2020-09-02T15:35:17Z</time>
      </trkpt>
      <trkpt lat="43.87037" lon="5.97074">
        <ele>600.606</ele>
        <time>2020-09-02T15:35:18Z</time>
      </trkpt>
      <trkpt lat="43.87029" lon="5.9707">
        <ele>599.726</ele>
        <time>2020-09-02T15:35:19Z</time>
      </trkpt>
      <trkpt lat="43.87021" lon="5.97066">
        <ele>599.308</ele>
        <time>2020-09-02T15:35:20Z</time>
      </trkpt>
      <trkpt lat="43.87013" lon="5.97064">
        <ele>598.886</ele>
        <time>2020-09-02T15:35:21Z</time>
      </trkpt>
      <trkpt lat="43.87005" lon="5.97068">
        <ele>598.555</ele>
        <time>2020-09-02T15:35:22Z</time>
      </trkpt>
      <trkpt lat="43.86998" lon="5.97071">
        <ele>598.025</ele>
        <time>2020-09-02T15:35:23Z</time>
      </trkpt>
      <trkpt lat="43.8699" lon="5.97073">
        <ele>596.942</ele>
        <time>2020-09-02T15:35:24Z</time>
      </trkpt>
      <trkpt lat="43.86983" lon="5.97075">
        <ele>595.883</ele>
        <time>2020-09-02T15:35:25Z</time>
      </trkpt>
      <trkpt lat="43.86975" lon="5.97075">
        <ele>593.971</ele>
        <time>2020-09-02T15:35:26Z</time>
      </trkpt>
      <trkpt lat="43.86967" lon="5.97075">
        <ele>593.447</ele>
        <time>2020-09-02T15:35:27Z</time>
      </trkpt>
      <trkpt lat="43.86958" lon="5.97074">
        <ele>592.73</ele>
        <time>2020-09-02T15:35:28Z</time>
      </trkpt>
      <trkpt lat="43.86949" lon="5.97072">
        <ele>592.116</ele>
        <time>2020-09-02T15:35:29Z</time>
      </trkpt>
      <trkpt lat="43.8694" lon="5.97069">
        <ele>591.276</ele>
        <time>2020-09-02T15:35:30Z</time>
      </trkpt>
      <trkpt lat="43.86932" lon="5.97064">
        <ele>590.313</ele>
        <time>2020-09-02T15:35:31Z</time>
      </trkpt>
      <trkpt lat="43.86924" lon="5.97059">
        <ele>588.908</ele>
        <time>2020-09-02T15:35:32Z</time>
      </trkpt>
      <trkpt lat="43.86915" lon="5.97053">
        <ele>587.999</ele>
        <time>2020-09-02T15:35:33Z</time>
      </trkpt>
      <trkpt lat="43.86906" lon="5.97047">
        <ele>586.758</ele>
        <time>2020-09-02T15:35:34Z</time>
      </trkpt>
      <trkpt lat="43.86897" lon="5.97041">
        <ele>585.748</ele>
        <time>2020-09-02T15:35:35Z</time>
      </trkpt>
      <trkpt lat="43.86888" lon="5.97035">
        <ele>584.685</ele>
        <time>2020-09-02T15:35:36Z</time>
      </trkpt>
      <trkpt lat="43.86879" lon="5.97029">
        <ele>583.186</ele>
        <time>2020-09-02T15:35:37Z</time>
      </trkpt>
      <trkpt lat="43.86869" lon="5.97024">
        <ele>581.934</ele>
        <time>2020-09-02T15:35:38Z</time>
      </trkpt>
      <trkpt lat="43.8686" lon="5.97018">
        <ele>580.69</ele>
        <time>2020-09-02T15:35:39Z</time>
      </trkpt>
      <trkpt lat="43.8685" lon="5.97013">
        <ele>579.243</ele>
        <time>2020-09-02T15:35:40Z</time>
      </trkpt>
      <trkpt lat="43.86841" lon="5.97009">
        <ele>578.289</ele>
        <time>2020-09-02T15:35:41Z</time>
      </trkpt>
      <trkpt lat="43.86832" lon="5.97004">
        <ele>577.106</ele>
        <time>2020-09-02T15:35:42Z</time>
      </trkpt>
      <trkpt lat="43.86822" lon="5.97">
        <ele>575.726</ele>
        <time>2020-09-02T15:35:43Z</time>
      </trkpt>
      <trkpt lat="43.86813" lon="5.96996">
        <ele>574.608</ele>
        <time>2020-09-02T15:35:44Z</time>
      </trkpt>
      <trkpt lat="43.86803" lon="5.96994">
        <ele>574.366</ele>
        <time>2020-09-02T15:35:45Z</time>
      </trkpt>
      <trkpt lat="43.86794" lon="5.96989">
        <ele>572.695</ele>
        <time>2020-09-02T15:35:46Z</time>
      </trkpt>
      <trkpt lat="43.86784" lon="5.96985">
        <ele>570.925</ele>
        <time>2020-09-02T15:35:47Z</time>
      </trkpt>
      <trkpt lat="43.86775" lon="5.9698">
        <ele>569.552</ele>
        <time>2020-09-02T15:35:48Z</time>
      </trkpt>
      <trkpt lat="43.86767" lon="5.96974">
        <ele>568.093</ele>
        <time>2020-09-02T15:35:49Z</time>
      </trkpt>
      <trkpt lat="43.86759" lon="5.96967">
        <ele>567.391</ele>
        <time>2020-09-02T15:35:50Z</time>
      </trkpt>
      <trkpt lat="43.86751" lon="5.9696">
        <ele>566.177</ele>
        <time>2020-09-02T15:35:51Z</time>
      </trkpt>
      <trkpt lat="43.86743" lon="5.96952">
        <ele>565.65</ele>
        <time>2020-09-02T15:35:52Z</time>
      </trkpt>
      <trkpt lat="43.86737" lon="5.96944">
        <ele>565.127</ele>
        <time>2020-09-02T15:35:53Z</time>
      </trkpt>
      <trkpt lat="43.86731" lon="5.96935">
        <ele>563.968</ele>
        <time>2020-09-02T15:35:54Z</time>
      </trkpt>
      <trkpt lat="43.86727" lon="5.96929">
        <ele>563.314</ele>
        <time>2020-09-02T15:35:55Z</time>
      </trkpt>
      <trkpt lat="43.86724" lon="5.96924">
        <ele>562.708</ele>
        <time>2020-09-02T15:35:56Z</time>
      </trkpt>
      <trkpt lat="43.86719" lon="5.96918">
        <ele>562.64</ele>
        <time>2020-09-02T15:35:58Z</time>
      </trkpt>
      <trkpt lat="43.86712" lon="5.96917">
        <ele>560.819</ele>
        <time>2020-09-02T15:36:01Z</time>
      </trkpt>
      <trkpt lat="43.86708" lon="5.9692">
        <ele>560.349</ele>
        <time>2020-09-02T15:36:03Z</time>
      </trkpt>
      <trkpt lat="43.86703" lon="5.96927">
        <ele>559.416</ele>
        <time>2020-09-02T15:36:05Z</time>
      </trkpt>
      <trkpt lat="43.867" lon="5.96932">
        <ele>558.897</ele>
        <time>2020-09-02T15:36:06Z</time>
      </trkpt>
      <trkpt lat="43.86696" lon="5.96936">
        <ele>558.655</ele>
        <time>2020-09-02T15:36:07Z</time>
      </trkpt>
      <trkpt lat="43.8669" lon="5.96942">
        <ele>558.571</ele>
        <time>2020-09-02T15:36:08Z</time>
      </trkpt>
      <trkpt lat="43.86686" lon="5.96949">
        <ele>558.494</ele>
        <time>2020-09-02T15:36:09Z</time>
      </trkpt>
      <trkpt lat="43.86683" lon="5.96958">
        <ele>558.369</ele>
        <time>2020-09-02T15:36:10Z</time>
      </trkpt>
      <trkpt lat="43.86681" lon="5.96969">
        <ele>558.904</ele>
        <time>2020-09-02T15:36:11Z</time>
      </trkpt>
      <trkpt lat="43.86678" lon="5.96982">
        <ele>559.524</ele>
        <time>2020-09-02T15:36:12Z</time>
      </trkpt>
      <trkpt lat="43.86676" lon="5.96994">
        <ele>559.708</ele>
        <time>2020-09-02T15:36:13Z</time>
      </trkpt>
      <trkpt lat="43.86674" lon="5.97006">
        <ele>559.984</ele>
        <time>2020-09-02T15:36:14Z</time>
      </trkpt>
      <trkpt lat="43.86673" lon="5.97016">
        <ele>559.693</ele>
        <time>2020-09-02T15:36:15Z</time>
      </trkpt>
      <trkpt lat="43.8667" lon="5.97025">
        <ele>559.523</ele>
        <time>2020-09-02T15:36:16Z</time>
      </trkpt>
      <trkpt lat="43.86666" lon="5.97034">
        <ele>559.73</ele>
        <time>2020-09-02T15:36:17Z</time>
      </trkpt>
      <trkpt lat="43.86662" lon="5.97043">
        <ele>559.921</ele>
        <time>2020-09-02T15:36:18Z</time>
      </trkpt>
      <trkpt lat="43.86656" lon="5.9705">
        <ele>560.889</ele>
        <time>2020-09-02T15:36:19Z</time>
      </trkpt>
      <trkpt lat="43.8665" lon="5.97059">
        <ele>560.995</ele>
        <time>2020-09-02T15:36:20Z</time>
      </trkpt>
      <trkpt lat="43.86639" lon="5.97069">
        <ele>560.568</ele>
        <time>2020-09-02T15:36:21Z</time>
      </trkpt>
      <trkpt lat="43.86631" lon="5.97079">
        <ele>560.821</ele>
        <time>2020-09-02T15:36:22Z</time>
      </trkpt>
      <trkpt lat="43.86623" lon="5.97089">
        <ele>561.441</ele>
        <time>2020-09-02T15:36:23Z</time>
      </trkpt>
      <trkpt lat="43.86615" lon="5.97099">
        <ele>561.805</ele>
        <time>2020-09-02T15:36:24Z</time>
      </trkpt>
      <trkpt lat="43.86606" lon="5.97108">
        <ele>562.108</ele>
        <time>2020-09-02T15:36:25Z</time>
      </trkpt>
      <trkpt lat="43.86597" lon="5.97118">
        <ele>562.87</ele>
        <time>2020-09-02T15:36:26Z</time>
      </trkpt>
      <trkpt lat="43.86589" lon="5.97126">
        <ele>563.059</ele>
        <time>2020-09-02T15:36:27Z</time>
      </trkpt>
      <trkpt lat="43.86579" lon="5.97133">
        <ele>563.989</ele>
        <time>2020-09-02T15:36:28Z</time>
      </trkpt>
      <trkpt lat="43.8657" lon="5.97143">
        <ele>564.736</ele>
        <time>2020-09-02T15:36:29Z</time>
      </trkpt>
      <trkpt lat="43.86563" lon="5.97152">
        <ele>565.027</ele>
        <time>2020-09-02T15:36:30Z</time>
      </trkpt>
      <trkpt lat="43.86555" lon="5.97164">
        <ele>565.815</ele>
        <time>2020-09-02T15:36:31Z</time>
      </trkpt>
      <trkpt lat="43.86548" lon="5.97175">
        <ele>566.431</ele>
        <time>2020-09-02T15:36:32Z</time>
      </trkpt>
      <trkpt lat="43.86541" lon="5.97187">
        <ele>566.854</ele>
        <time>2020-09-02T15:36:33Z</time>
      </trkpt>
      <trkpt lat="43.86535" lon="5.97199">
        <ele>566.881</ele>
        <time>2020-09-02T15:36:34Z</time>
      </trkpt>
      <trkpt lat="43.86527" lon="5.9721">
        <ele>567.361</ele>
        <time>2020-09-02T15:36:35Z</time>
      </trkpt>
      <trkpt lat="43.8652" lon="5.97216">
        <ele>567.817</ele>
        <time>2020-09-02T15:36:36Z</time>
      </trkpt>
      <trkpt lat="43.86513" lon="5.97225">
        <ele>568.408</ele>
        <time>2020-09-02T15:36:37Z</time>
      </trkpt>
      <trkpt lat="43.86507" lon="5.97235">
        <ele>567.986</ele>
        <time>2020-09-02T15:36:38Z</time>
      </trkpt>
      <trkpt lat="43.86501" lon="5.97245">
        <ele>568.535</ele>
        <time>2020-09-02T15:36:39Z</time>
      </trkpt>
      <trkpt lat="43.86495" lon="5.97256">
        <ele>568.065</ele>
        <time>2020-09-02T15:36:40Z</time>
      </trkpt>
      <trkpt lat="43.8649" lon="5.97267">
        <ele>567.532</ele>
        <time>2020-09-02T15:36:41Z</time>
      </trkpt>
      <trkpt lat="43.86483" lon="5.97279">
        <ele>567.943</ele>
        <time>2020-09-02T15:36:42Z</time>
      </trkpt>
      <trkpt lat="43.86476" lon="5.97291">
        <ele>568.591</ele>
        <time>2020-09-02T15:36:43Z</time>
      </trkpt>
      <trkpt lat="43.86469" lon="5.97301">
        <ele>569.557</ele>
        <time>2020-09-02T15:36:44Z</time>
      </trkpt>
      <trkpt lat="43.86461" lon="5.9731">
        <ele>569.84</ele>
        <time>2020-09-02T15:36:45Z</time>
      </trkpt>
      <trkpt lat="43.86452" lon="5.97318">
        <ele>570.291</ele>
        <time>2020-09-02T15:36:46Z</time>
      </trkpt>
      <trkpt lat="43.86444" lon="5.97326">
        <ele>571.181</ele>
        <time>2020-09-02T15:36:47Z</time>
      </trkpt>
      <trkpt lat="43.86434" lon="5.97333">
        <ele>571.419</ele>
        <time>2020-09-02T15:36:48Z</time>
      </trkpt>
      <trkpt lat="43.86424" lon="5.97341">
        <ele>570.908</ele>
        <time>2020-09-02T15:36:49Z</time>
      </trkpt>
      <trkpt lat="43.86417" lon="5.97349">
        <ele>570.387</ele>
        <time>2020-09-02T15:36:50Z</time>
      </trkpt>
      <trkpt lat="43.86409" lon="5.97357">
        <ele>570.726</ele>
        <time>2020-09-02T15:36:51Z</time>
      </trkpt>
      <trkpt lat="43.86401" lon="5.97365">
        <ele>571.286</ele>
        <time>2020-09-02T15:36:52Z</time>
      </trkpt>
      <trkpt lat="43.86395" lon="5.97373">
        <ele>571.673</ele>
        <time>2020-09-02T15:36:53Z</time>
      </trkpt>
      <trkpt lat="43.86387" lon="5.97379">
        <ele>572.424</ele>
        <time>2020-09-02T15:36:54Z</time>
      </trkpt>
      <trkpt lat="43.8638" lon="5.97386">
        <ele>572.682</ele>
        <time>2020-09-02T15:36:55Z</time>
      </trkpt>
      <trkpt lat="43.86373" lon="5.97392">
        <ele>573.368</ele>
        <time>2020-09-02T15:36:56Z</time>
      </trkpt>
      <trkpt lat="43.86367" lon="5.97399">
        <ele>574.031</ele>
        <time>2020-09-02T15:36:57Z</time>
      </trkpt>
      <trkpt lat="43.86361" lon="5.97408">
        <ele>574.884</ele>
        <time>2020-09-02T15:36:58Z</time>
      </trkpt>
      <trkpt lat="43.86357" lon="5.97419">
        <ele>575.107</ele>
        <time>2020-09-02T15:36:59Z</time>
      </trkpt>
      <trkpt lat="43.86354" lon="5.9743">
        <ele>575.317</ele>
        <time>2020-09-02T15:37:00Z</time>
      </trkpt>
      <trkpt lat="43.86352" lon="5.9744">
        <ele>575.308</ele>
        <time>2020-09-02T15:37:01Z</time>
      </trkpt>
      <trkpt lat="43.8635" lon="5.97451">
        <ele>576.076</ele>
        <time>2020-09-02T15:37:02Z</time>
      </trkpt>
      <trkpt lat="43.86349" lon="5.97462">
        <ele>576.725</ele>
        <time>2020-09-02T15:37:03Z</time>
      </trkpt>
      <trkpt lat="43.86348" lon="5.97474">
        <ele>576.955</ele>
        <time>2020-09-02T15:37:04Z</time>
      </trkpt>
      <trkpt lat="43.86347" lon="5.97487">
        <ele>576.482</ele>
        <time>2020-09-02T15:37:05Z</time>
      </trkpt>
      <trkpt lat="43.86347" lon="5.975">
        <ele>576.743</ele>
        <time>2020-09-02T15:37:06Z</time>
      </trkpt>
      <trkpt lat="43.86346" lon="5.97513">
        <ele>577.331</ele>
        <time>2020-09-02T15:37:07Z</time>
      </trkpt>
      <trkpt lat="43.86346" lon="5.97527">
        <ele>578.047</ele>
        <time>2020-09-02T15:37:08Z</time>
      </trkpt>
      <trkpt lat="43.86346" lon="5.97542">
        <ele>578.28</ele>
        <time>2020-09-02T15:37:09Z</time>
      </trkpt>
      <trkpt lat="43.86347" lon="5.97556">
        <ele>579.075</ele>
        <time>2020-09-02T15:37:10Z</time>
      </trkpt>
      <trkpt lat="43.86349" lon="5.97569">
        <ele>579.628</ele>
        <time>2020-09-02T15:37:11Z</time>
      </trkpt>
      <trkpt lat="43.86352" lon="5.9758">
        <ele>580.42</ele>
        <time>2020-09-02T15:37:12Z</time>
      </trkpt>
      <trkpt lat="43.86355" lon="5.97591">
        <ele>580.608</ele>
        <time>2020-09-02T15:37:13Z</time>
      </trkpt>
      <trkpt lat="43.86358" lon="5.97601">
        <ele>580.765</ele>
        <time>2020-09-02T15:37:14Z</time>
      </trkpt>
      <trkpt lat="43.8636" lon="5.97608">
        <ele>581.214</ele>
        <time>2020-09-02T15:37:15Z</time>
      </trkpt>
      <trkpt lat="43.86365" lon="5.97615">
        <ele>581.934</ele>
        <time>2020-09-02T15:37:16Z</time>
      </trkpt>
      <trkpt lat="43.86369" lon="5.97623">
        <ele>581.841</ele>
        <time>2020-09-02T15:37:17Z</time>
      </trkpt>
      <trkpt lat="43.86372" lon="5.97631">
        <ele>582.162</ele>
        <time>2020-09-02T15:37:18Z</time>
      </trkpt>
      <trkpt lat="43.86375" lon="5.97638">
        <ele>582.72</ele>
        <time>2020-09-02T15:37:19Z</time>
      </trkpt>
      <trkpt lat="43.86375" lon="5.97648">
        <ele>582.816</ele>
        <time>2020-09-02T15:37:20Z</time>
      </trkpt>
      <trkpt lat="43.86376" lon="5.97658">
        <ele>583.329</ele>
        <time>2020-09-02T15:37:21Z</time>
      </trkpt>
      <trkpt lat="43.86375" lon="5.97666">
        <ele>583.363</ele>
        <time>2020-09-02T15:37:22Z</time>
      </trkpt>
      <trkpt lat="43.86373" lon="5.97674">
        <ele>583.644</ele>
        <time>2020-09-02T15:37:23Z</time>
      </trkpt>
      <trkpt lat="43.86369" lon="5.97681">
        <ele>584.218</ele>
        <time>2020-09-02T15:37:24Z</time>
      </trkpt>
      <trkpt lat="43.86366" lon="5.97688">
        <ele>584.908</ele>
        <time>2020-09-02T15:37:25Z</time>
      </trkpt>
      <trkpt lat="43.86363" lon="5.97697">
        <ele>584.874</ele>
        <time>2020-09-02T15:37:26Z</time>
      </trkpt>
      <trkpt lat="43.86361" lon="5.97706">
        <ele>585.143</ele>
        <time>2020-09-02T15:37:27Z</time>
      </trkpt>
      <trkpt lat="43.86361" lon="5.97716">
        <ele>585.313</ele>
        <time>2020-09-02T15:37:28Z</time>
      </trkpt>
      <trkpt lat="43.86361" lon="5.97726">
        <ele>585.86</ele>
        <time>2020-09-02T15:37:29Z</time>
      </trkpt>
      <trkpt lat="43.86362" lon="5.97736">
        <ele>585.711</ele>
        <time>2020-09-02T15:37:30Z</time>
      </trkpt>
      <trkpt lat="43.86364" lon="5.97746">
        <ele>586.049</ele>
        <time>2020-09-02T15:37:31Z</time>
      </trkpt>
      <trkpt lat="43.86366" lon="5.97756">
        <ele>585.875</ele>
        <time>2020-09-02T15:37:32Z</time>
      </trkpt>
      <trkpt lat="43.86367" lon="5.97765">
        <ele>585.818</ele>
        <time>2020-09-02T15:37:33Z</time>
      </trkpt>
      <trkpt lat="43.86368" lon="5.97775">
        <ele>585.644</ele>
        <time>2020-09-02T15:37:34Z</time>
      </trkpt>
      <trkpt lat="43.8637" lon="5.97785">
        <ele>585.505</ele>
        <time>2020-09-02T15:37:35Z</time>
      </trkpt>
      <trkpt lat="43.86373" lon="5.97794">
        <ele>586.915</ele>
        <time>2020-09-02T15:37:36Z</time>
      </trkpt>
      <trkpt lat="43.86375" lon="5.97803">
        <ele>588.108</ele>
        <time>2020-09-02T15:37:37Z</time>
      </trkpt>
      <trkpt lat="43.86378" lon="5.97812">
        <ele>588.762</ele>
        <time>2020-09-02T15:37:38Z</time>
      </trkpt>
      <trkpt lat="43.86379" lon="5.97821">
        <ele>589.281</ele>
        <time>2020-09-02T15:37:39Z</time>
      </trkpt>
      <trkpt lat="43.86382" lon="5.97831">
        <ele>589.871</ele>
        <time>2020-09-02T15:37:40Z</time>
      </trkpt>
      <trkpt lat="43.86385" lon="5.9784">
        <ele>589.838</ele>
        <time>2020-09-02T15:37:41Z</time>
      </trkpt>
      <trkpt lat="43.86387" lon="5.97847">
        <ele>590.129</ele>
        <time>2020-09-02T15:37:42Z</time>
      </trkpt>
      <trkpt lat="43.86391" lon="5.97853">
        <ele>591.317</ele>
        <time>2020-09-02T15:37:43Z</time>
      </trkpt>
      <trkpt lat="43.86394" lon="5.9786">
        <ele>591.723</ele>
        <time>2020-09-02T15:37:44Z</time>
      </trkpt>
      <trkpt lat="43.86397" lon="5.97869">
        <ele>592.196</ele>
        <time>2020-09-02T15:37:45Z</time>
      </trkpt>
      <trkpt lat="43.86399" lon="5.97878">
        <ele>592.488</ele>
        <time>2020-09-02T15:37:46Z</time>
      </trkpt>
      <trkpt lat="43.86401" lon="5.9789">
        <ele>592.924</ele>
        <time>2020-09-02T15:37:47Z</time>
      </trkpt>
      <trkpt lat="43.86402" lon="5.97903">
        <ele>592.726</ele>
        <time>2020-09-02T15:37:48Z</time>
      </trkpt>
      <trkpt lat="43.86402" lon="5.97915">
        <ele>593.408</ele>
        <time>2020-09-02T15:37:49Z</time>
      </trkpt>
      <trkpt lat="43.86402" lon="5.97927">
        <ele>593.816</ele>
        <time>2020-09-02T15:37:50Z</time>
      </trkpt>
      <trkpt lat="43.864" lon="5.97939">
        <ele>594.945</ele>
        <time>2020-09-02T15:37:51Z</time>
      </trkpt>
      <trkpt lat="43.86398" lon="5.97948">
        <ele>595.295</ele>
        <time>2020-09-02T15:37:52Z</time>
      </trkpt>
      <trkpt lat="43.86395" lon="5.97955">
        <ele>595.722</ele>
        <time>2020-09-02T15:37:53Z</time>
      </trkpt>
      <trkpt lat="43.86392" lon="5.97962">
        <ele>595.553</ele>
        <time>2020-09-02T15:37:54Z</time>
      </trkpt>
      <trkpt lat="43.86389" lon="5.97969">
        <ele>595.571</ele>
        <time>2020-09-02T15:37:55Z</time>
      </trkpt>
      <trkpt lat="43.86386" lon="5.97976">
        <ele>595.477</ele>
        <time>2020-09-02T15:37:56Z</time>
      </trkpt>
      <trkpt lat="43.86384" lon="5.97982">
        <ele>596.05</ele>
        <time>2020-09-02T15:37:57Z</time>
      </trkpt>
      <trkpt lat="43.86384" lon="5.9799">
        <ele>595.741</ele>
        <time>2020-09-02T15:37:58Z</time>
      </trkpt>
      <trkpt lat="43.86383" lon="5.97998">
        <ele>596.181</ele>
        <time>2020-09-02T15:37:59Z</time>
      </trkpt>
      <trkpt lat="43.86384" lon="5.98006">
        <ele>596.309</ele>
        <time>2020-09-02T15:38:00Z</time>
      </trkpt>
      <trkpt lat="43.86386" lon="5.98014">
        <ele>596.708</ele>
        <time>2020-09-02T15:38:01Z</time>
      </trkpt>
      <trkpt lat="43.86389" lon="5.98022">
        <ele>596.662</ele>
        <time>2020-09-02T15:38:02Z</time>
      </trkpt>
      <trkpt lat="43.86393" lon="5.98028">
        <ele>596.621</ele>
        <time>2020-09-02T15:38:03Z</time>
      </trkpt>
      <trkpt lat="43.86396" lon="5.98035">
        <ele>597.061</ele>
        <time>2020-09-02T15:38:04Z</time>
      </trkpt>
      <trkpt lat="43.86398" lon="5.98042">
        <ele>597.168</ele>
        <time>2020-09-02T15:38:05Z</time>
      </trkpt>
      <trkpt lat="43.86399" lon="5.98048">
        <ele>597.679</ele>
        <time>2020-09-02T15:38:06Z</time>
      </trkpt>
      <trkpt lat="43.86399" lon="5.98056">
        <ele>597.757</ele>
        <time>2020-09-02T15:38:07Z</time>
      </trkpt>
      <trkpt lat="43.864" lon="5.98065">
        <ele>598.763</ele>
        <time>2020-09-02T15:38:08Z</time>
      </trkpt>
      <trkpt lat="43.864" lon="5.98074">
        <ele>599.466</ele>
        <time>2020-09-02T15:38:09Z</time>
      </trkpt>
      <trkpt lat="43.864" lon="5.98086">
        <ele>600.326</ele>
        <time>2020-09-02T15:38:10Z</time>
      </trkpt>
      <trkpt lat="43.86401" lon="5.98097">
        <ele>600.047</ele>
        <time>2020-09-02T15:38:11Z</time>
      </trkpt>
      <trkpt lat="43.86402" lon="5.98107">
        <ele>600.711</ele>
        <time>2020-09-02T15:38:12Z</time>
      </trkpt>
      <trkpt lat="43.86399" lon="5.98115">
        <ele>601.108</ele>
        <time>2020-09-02T15:38:13Z</time>
      </trkpt>
      <trkpt lat="43.86396" lon="5.98122">
        <ele>601.53</ele>
        <time>2020-09-02T15:38:14Z</time>
      </trkpt>
      <trkpt lat="43.86391" lon="5.98127">
        <ele>601.889</ele>
        <time>2020-09-02T15:38:15Z</time>
      </trkpt>
      <trkpt lat="43.86386" lon="5.98133">
        <ele>601.749</ele>
        <time>2020-09-02T15:38:16Z</time>
      </trkpt>
      <trkpt lat="43.8638" lon="5.98139">
        <ele>601.636</ele>
        <time>2020-09-02T15:38:17Z</time>
      </trkpt>
      <trkpt lat="43.86376" lon="5.98146">
        <ele>602.327</ele>
        <time>2020-09-02T15:38:18Z</time>
      </trkpt>
      <trkpt lat="43.86372" lon="5.98154">
        <ele>602.215</ele>
        <time>2020-09-02T15:38:19Z</time>
      </trkpt>
      <trkpt lat="43.8637" lon="5.98161">
        <ele>602.871</ele>
        <time>2020-09-02T15:38:20Z</time>
      </trkpt>
      <trkpt lat="43.86369" lon="5.98167">
        <ele>602.774</ele>
        <time>2020-09-02T15:38:21Z</time>
      </trkpt>
      <trkpt lat="43.86373" lon="5.98178">
        <ele>602.492</ele>
        <time>2020-09-02T15:38:23Z</time>
      </trkpt>
      <trkpt lat="43.86381" lon="5.98186">
        <ele>603.873</ele>
        <time>2020-09-02T15:38:25Z</time>
      </trkpt>
      <trkpt lat="43.86385" lon="5.98188">
        <ele>604.52</ele>
        <time>2020-09-02T15:38:26Z</time>
      </trkpt>
      <trkpt lat="43.8639" lon="5.98186">
        <ele>604.708</ele>
        <time>2020-09-02T15:38:27Z</time>
      </trkpt>
      <trkpt lat="43.86395" lon="5.98182">
        <ele>604.887</ele>
        <time>2020-09-02T15:38:28Z</time>
      </trkpt>
      <trkpt lat="43.864" lon="5.98177">
        <ele>604.716</ele>
        <time>2020-09-02T15:38:29Z</time>
      </trkpt>
      <trkpt lat="43.86405" lon="5.98171">
        <ele>604.796</ele>
        <time>2020-09-02T15:38:30Z</time>
      </trkpt>
      <trkpt lat="43.86411" lon="5.98166">
        <ele>605.723</ele>
        <time>2020-09-02T15:38:31Z</time>
      </trkpt>
      <trkpt lat="43.86414" lon="5.98162">
        <ele>605.954</ele>
        <time>2020-09-02T15:38:32Z</time>
      </trkpt>
      <trkpt lat="43.8642" lon="5.98157">
        <ele>606.162</ele>
        <time>2020-09-02T15:38:34Z</time>
      </trkpt>
      <trkpt lat="43.86425" lon="5.98156">
        <ele>606.278</ele>
        <time>2020-09-02T15:38:43Z</time>
      </trkpt>
      <trkpt lat="43.86421" lon="5.98158">
        <ele>607.071</ele>
        <time>2020-09-02T15:38:55Z</time>
      </trkpt>
      <trkpt lat="43.86417" lon="5.98162">
        <ele>606.643</ele>
        <time>2020-09-02T15:38:56Z</time>
      </trkpt>
      <trkpt lat="43.86413" lon="5.98165">
        <ele>605.964</ele>
        <time>2020-09-02T15:38:57Z</time>
      </trkpt>
      <trkpt lat="43.86405" lon="5.98172">
        <ele>605.51</ele>
        <time>2020-09-02T15:38:59Z</time>
      </trkpt>
      <trkpt lat="43.864" lon="5.98176">
        <ele>605.608</ele>
        <time>2020-09-02T15:39:00Z</time>
      </trkpt>
      <trkpt lat="43.86396" lon="5.9818">
        <ele>605.632</ele>
        <time>2020-09-02T15:39:01Z</time>
      </trkpt>
      <trkpt lat="43.86392" lon="5.98184">
        <ele>605.691</ele>
        <time>2020-09-02T15:39:02Z</time>
      </trkpt>
      <trkpt lat="43.86385" lon="5.98187">
        <ele>605.371</ele>
        <time>2020-09-02T15:39:04Z</time>
      </trkpt>
      <trkpt lat="43.86379" lon="5.98184">
        <ele>604.748</ele>
        <time>2020-09-02T15:39:07Z</time>
      </trkpt>
      <trkpt lat="43.86374" lon="5.98179">
        <ele>603.279</ele>
        <time>2020-09-02T15:39:16Z</time>
      </trkpt>
      <trkpt lat="43.86372" lon="5.98173">
        <ele>602.267</ele>
        <time>2020-09-02T15:39:18Z</time>
      </trkpt>
      <trkpt lat="43.86369" lon="5.98166">
        <ele>601.153</ele>
        <time>2020-09-02T15:39:46Z</time>
      </trkpt>
      <trkpt lat="43.86371" lon="5.98173">
        <ele>603.766</ele>
        <time>2020-09-02T15:39:55Z</time>
      </trkpt>
      <trkpt lat="43.86375" lon="5.98181">
        <ele>604.198</ele>
        <time>2020-09-02T15:39:57Z</time>
      </trkpt>
      <trkpt lat="43.86379" lon="5.98187">
        <ele>605.315</ele>
        <time>2020-09-02T15:39:59Z</time>
      </trkpt>
      <trkpt lat="43.86382" lon="5.98193">
        <ele>605.926</ele>
        <time>2020-09-02T15:40:02Z</time>
      </trkpt>
      <trkpt lat="43.86375" lon="5.98199">
        <ele>606.108</ele>
        <time>2020-09-02T15:40:11Z</time>
      </trkpt>
      <trkpt lat="43.8637" lon="5.98202">
        <ele>605.597</ele>
        <time>2020-09-02T15:40:13Z</time>
      </trkpt>
      <trkpt lat="43.86366" lon="5.98207">
        <ele>605.596</ele>
        <time>2020-09-02T15:40:15Z</time>
      </trkpt>
      <trkpt lat="43.86363" lon="5.98215">
        <ele>605.576</ele>
        <time>2020-09-02T15:40:17Z</time>
      </trkpt>
      <trkpt lat="43.8636" lon="5.98223">
        <ele>605.643</ele>
        <time>2020-09-02T15:40:19Z</time>
      </trkpt>
      <trkpt lat="43.86357" lon="5.98229">
        <ele>605.824</ele>
        <time>2020-09-02T15:40:21Z</time>
      </trkpt>
      <trkpt lat="43.86356" lon="5.98236">
        <ele>606.242</ele>
        <time>2020-09-02T15:40:23Z</time>
      </trkpt>
      <trkpt lat="43.86358" lon="5.98245">
        <ele>606.648</ele>
        <time>2020-09-02T15:40:25Z</time>
      </trkpt>
      <trkpt lat="43.86361" lon="5.98254">
        <ele>607.531</ele>
        <time>2020-09-02T15:40:27Z</time>
      </trkpt>
      <trkpt lat="43.86363" lon="5.98262">
        <ele>608.358</ele>
        <time>2020-09-02T15:40:29Z</time>
      </trkpt>
      <trkpt lat="43.86367" lon="5.98268">
        <ele>608.752</ele>
        <time>2020-09-02T15:40:31Z</time>
      </trkpt>
      <trkpt lat="43.86372" lon="5.98275">
        <ele>608.517</ele>
        <time>2020-09-02T15:40:33Z</time>
      </trkpt>
      <trkpt lat="43.86377" lon="5.98283">
        <ele>608.608</ele>
        <time>2020-09-02T15:40:35Z</time>
      </trkpt>
      <trkpt lat="43.86383" lon="5.98291">
        <ele>609.433</ele>
        <time>2020-09-02T15:40:37Z</time>
      </trkpt>
      <trkpt lat="43.86389" lon="5.98298">
        <ele>609.412</ele>
        <time>2020-09-02T15:40:39Z</time>
      </trkpt>
      <trkpt lat="43.86396" lon="5.98303">
        <ele>609.062</ele>
        <time>2020-09-02T15:40:41Z</time>
      </trkpt>
      <trkpt lat="43.86403" lon="5.98306">
        <ele>608.949</ele>
        <time>2020-09-02T15:40:43Z</time>
      </trkpt>
      <trkpt lat="43.86407" lon="5.98311">
        <ele>609.53</ele>
        <time>2020-09-02T15:40:45Z</time>
      </trkpt>
      <trkpt lat="43.86406" lon="5.98321">
        <ele>609.718</ele>
        <time>2020-09-02T15:40:47Z</time>
      </trkpt>
      <trkpt lat="43.86401" lon="5.98329">
        <ele>610.254</ele>
        <time>2020-09-02T15:40:49Z</time>
      </trkpt>
      <trkpt lat="43.86398" lon="5.98342">
        <ele>610.617</ele>
        <time>2020-09-02T15:40:51Z</time>
      </trkpt>
      <trkpt lat="43.86398" lon="5.98349">
        <ele>611.212</ele>
        <time>2020-09-02T15:40:52Z</time>
      </trkpt>
      <trkpt lat="43.864" lon="5.98355">
        <ele>611.032</ele>
        <time>2020-09-02T15:40:53Z</time>
      </trkpt>
      <trkpt lat="43.86399" lon="5.98361">
        <ele>611.505</ele>
        <time>2020-09-02T15:40:54Z</time>
      </trkpt>
      <trkpt lat="43.86399" lon="5.98373">
        <ele>611.908</ele>
        <time>2020-09-02T15:40:56Z</time>
      </trkpt>
      <trkpt lat="43.86399" lon="5.9838">
        <ele>612.219</ele>
        <time>2020-09-02T15:40:57Z</time>
      </trkpt>
      <trkpt lat="43.86399" lon="5.98388">
        <ele>612.448</ele>
        <time>2020-09-02T15:40:58Z</time>
      </trkpt>
      <trkpt lat="43.864" lon="5.98397">
        <ele>611.888</ele>
        <time>2020-09-02T15:40:59Z</time>
      </trkpt>
      <trkpt lat="43.86402" lon="5.98405">
        <ele>611.485</ele>
        <time>2020-09-02T15:41:00Z</time>
      </trkpt>
      <trkpt lat="43.86401" lon="5.98413">
        <ele>611.526</ele>
        <time>2020-09-02T15:41:01Z</time>
      </trkpt>
      <trkpt lat="43.86401" lon="5.98421">
        <ele>612.094</ele>
        <time>2020-09-02T15:41:02Z</time>
      </trkpt>
      <trkpt lat="43.864" lon="5.98429">
        <ele>612.23</ele>
        <time>2020-09-02T15:41:03Z</time>
      </trkpt>
      <trkpt lat="43.86398" lon="5.98436">
        <ele>612.473</ele>
        <time>2020-09-02T15:41:04Z</time>
      </trkpt>
      <trkpt lat="43.86395" lon="5.98444">
        <ele>613.195</ele>
        <time>2020-09-02T15:41:05Z</time>
      </trkpt>
      <trkpt lat="43.86393" lon="5.98453">
        <ele>613.749</ele>
        <time>2020-09-02T15:41:06Z</time>
      </trkpt>
      <trkpt lat="43.86391" lon="5.98461">
        <ele>614.223</ele>
        <time>2020-09-02T15:41:07Z</time>
      </trkpt>
      <trkpt lat="43.8639" lon="5.98469">
        <ele>614.608</ele>
        <time>2020-09-02T15:41:08Z</time>
      </trkpt>
      <trkpt lat="43.86389" lon="5.98477">
        <ele>614.647</ele>
        <time>2020-09-02T15:41:09Z</time>
      </trkpt>
      <trkpt lat="43.86387" lon="5.98484">
        <ele>614.846</ele>
        <time>2020-09-02T15:41:10Z</time>
      </trkpt>
      <trkpt lat="43.86385" lon="5.98491">
        <ele>615.326</ele>
        <time>2020-09-02T15:41:11Z</time>
      </trkpt>
      <trkpt lat="43.86382" lon="5.98497">
        <ele>615.743</ele>
        <time>2020-09-02T15:41:12Z</time>
      </trkpt>
      <trkpt lat="43.8638" lon="5.98503">
        <ele>615.544</ele>
        <time>2020-09-02T15:41:14Z</time>
      </trkpt>
      <trkpt lat="43.86378" lon="5.98515">
        <ele>615.962</ele>
        <time>2020-09-02T15:41:22Z</time>
      </trkpt>
      <trkpt lat="43.86376" lon="5.98523">
        <ele>615.858</ele>
        <time>2020-09-02T15:41:23Z</time>
      </trkpt>
      <trkpt lat="43.86374" lon="5.98531">
        <ele>616.581</ele>
        <time>2020-09-02T15:41:24Z</time>
      </trkpt>
      <trkpt lat="43.86373" lon="5.9854">
        <ele>617.074</ele>
        <time>2020-09-02T15:41:25Z</time>
      </trkpt>
      <trkpt lat="43.86373" lon="5.98548">
        <ele>617.056</ele>
        <time>2020-09-02T15:41:26Z</time>
      </trkpt>
      <trkpt lat="43.86372" lon="5.98556">
        <ele>617.021</ele>
        <time>2020-09-02T15:41:27Z</time>
      </trkpt>
      <trkpt lat="43.86372" lon="5.98564">
        <ele>617.708</ele>
        <time>2020-09-02T15:41:28Z</time>
      </trkpt>
      <trkpt lat="43.86373" lon="5.98578">
        <ele>618.095</ele>
        <time>2020-09-02T15:41:30Z</time>
      </trkpt>
      <trkpt lat="43.86374" lon="5.98585">
        <ele>618.414</ele>
        <time>2020-09-02T15:41:31Z</time>
      </trkpt>
      <trkpt lat="43.86377" lon="5.98591">
        <ele>617.914</ele>
        <time>2020-09-02T15:41:32Z</time>
      </trkpt>
      <trkpt lat="43.8638" lon="5.98597">
        <ele>618.131</ele>
        <time>2020-09-02T15:41:33Z</time>
      </trkpt>
      <trkpt lat="43.86384" lon="5.98601">
        <ele>618.422</ele>
        <time>2020-09-02T15:41:34Z</time>
      </trkpt>
      <trkpt lat="43.86387" lon="5.98605">
        <ele>618.52</ele>
        <time>2020-09-02T15:41:35Z</time>
      </trkpt>
      <trkpt lat="43.86391" lon="5.9861">
        <ele>618.126</ele>
        <time>2020-09-02T15:41:36Z</time>
      </trkpt>
      <trkpt lat="43.86397" lon="5.98616">
        <ele>618.629</ele>
        <time>2020-09-02T15:41:38Z</time>
      </trkpt>
      <trkpt lat="43.86399" lon="5.98627">
        <ele>618.458</ele>
        <time>2020-09-02T15:41:40Z</time>
      </trkpt>
      <trkpt lat="43.86398" lon="5.98634">
        <ele>618.252</ele>
        <time>2020-09-02T15:41:41Z</time>
      </trkpt>
      <trkpt lat="43.86398" lon="5.98643">
        <ele>618.417</ele>
        <time>2020-09-02T15:41:42Z</time>
      </trkpt>
      <trkpt lat="43.86399" lon="5.98654">
        <ele>617.908</ele>
        <time>2020-09-02T15:41:43Z</time>
      </trkpt>
      <trkpt lat="43.86399" lon="5.98666">
        <ele>618.153</ele>
        <time>2020-09-02T15:41:44Z</time>
      </trkpt>
      <trkpt lat="43.86399" lon="5.98676">
        <ele>618.352</ele>
        <time>2020-09-02T15:41:45Z</time>
      </trkpt>
      <trkpt lat="43.86399" lon="5.98684">
        <ele>618.462</ele>
        <time>2020-09-02T15:41:46Z</time>
      </trkpt>
      <trkpt lat="43.86397" lon="5.9869">
        <ele>618.959</ele>
        <time>2020-09-02T15:41:48Z</time>
      </trkpt>
      <trkpt lat="43.86389" lon="5.9869">
        <ele>619.49</ele>
        <time>2020-09-02T15:41:50Z</time>
      </trkpt>
      <trkpt lat="43.86382" lon="5.98686">
        <ele>619.438</ele>
        <time>2020-09-02T15:41:51Z</time>
      </trkpt>
      <trkpt lat="43.86375" lon="5.98683">
        <ele>619.264</ele>
        <time>2020-09-02T15:41:52Z</time>
      </trkpt>
      <trkpt lat="43.86366" lon="5.9868">
        <ele>619.427</ele>
        <time>2020-09-02T15:41:53Z</time>
      </trkpt>
      <trkpt lat="43.86356" lon="5.98677">
        <ele>619.532</ele>
        <time>2020-09-02T15:41:54Z</time>
      </trkpt>
      <trkpt lat="43.86345" lon="5.98673">
        <ele>619.292</ele>
        <time>2020-09-02T15:41:55Z</time>
      </trkpt>
      <trkpt lat="43.86334" lon="5.9867">
        <ele>619.611</ele>
        <time>2020-09-02T15:41:56Z</time>
      </trkpt>
      <trkpt lat="43.86323" lon="5.98666">
        <ele>619.208</ele>
        <time>2020-09-02T15:41:57Z</time>
      </trkpt>
      <trkpt lat="43.86312" lon="5.9866">
        <ele>619.091</ele>
        <time>2020-09-02T15:41:58Z</time>
      </trkpt>
      <trkpt lat="43.86301" lon="5.98658">
        <ele>619.14</ele>
        <time>2020-09-02T15:41:59Z</time>
      </trkpt>
      <trkpt lat="43.86291" lon="5.98656">
        <ele>619.76</ele>
        <time>2020-09-02T15:42:00Z</time>
      </trkpt>
      <trkpt lat="43.86279" lon="5.98655">
        <ele>620.487</ele>
        <time>2020-09-02T15:42:01Z</time>
      </trkpt>
      <trkpt lat="43.86267" lon="5.98651">
        <ele>620.168</ele>
        <time>2020-09-02T15:42:02Z</time>
      </trkpt>
      <trkpt lat="43.86255" lon="5.98647">
        <ele>620.436</ele>
        <time>2020-09-02T15:42:03Z</time>
      </trkpt>
      <trkpt lat="43.86243" lon="5.98644">
        <ele>620.342</ele>
        <time>2020-09-02T15:42:04Z</time>
      </trkpt>
      <trkpt lat="43.8623" lon="5.98642">
        <ele>619.155</ele>
        <time>2020-09-02T15:42:05Z</time>
      </trkpt>
      <trkpt lat="43.86217" lon="5.98639">
        <ele>619.167</ele>
        <time>2020-09-02T15:42:06Z</time>
      </trkpt>
      <trkpt lat="43.86205" lon="5.98636">
        <ele>619.081</ele>
        <time>2020-09-02T15:42:07Z</time>
      </trkpt>
      <trkpt lat="43.86192" lon="5.98632">
        <ele>619.419</ele>
        <time>2020-09-02T15:42:08Z</time>
      </trkpt>
      <trkpt lat="43.86179" lon="5.98628">
        <ele>619.408</ele>
        <time>2020-09-02T15:42:09Z</time>
      </trkpt>
      <trkpt lat="43.86165" lon="5.98623">
        <ele>619.214</ele>
        <time>2020-09-02T15:42:10Z</time>
      </trkpt>
      <trkpt lat="43.86152" lon="5.98618">
        <ele>619.253</ele>
        <time>2020-09-02T15:42:11Z</time>
      </trkpt>
      <trkpt lat="43.8614" lon="5.98615">
        <ele>619.383</ele>
        <time>2020-09-02T15:42:12Z</time>
      </trkpt>
      <trkpt lat="43.86129" lon="5.98612">
        <ele>618.75</ele>
        <time>2020-09-02T15:42:13Z</time>
      </trkpt>
      <trkpt lat="43.86118" lon="5.98608">
        <ele>618.981</ele>
        <time>2020-09-02T15:42:14Z</time>
      </trkpt>
      <trkpt lat="43.86109" lon="5.98605">
        <ele>617.919</ele>
        <time>2020-09-02T15:42:15Z</time>
      </trkpt>
      <trkpt lat="43.86099" lon="5.98602">
        <ele>617.915</ele>
        <time>2020-09-02T15:42:16Z</time>
      </trkpt>
      <trkpt lat="43.8609" lon="5.986">
        <ele>617.828</ele>
        <time>2020-09-02T15:42:17Z</time>
      </trkpt>
      <trkpt lat="43.86081" lon="5.98598">
        <ele>617.043</ele>
        <time>2020-09-02T15:42:18Z</time>
      </trkpt>
      <trkpt lat="43.86073" lon="5.98597">
        <ele>616.564</ele>
        <time>2020-09-02T15:42:19Z</time>
      </trkpt>
      <trkpt lat="43.86065" lon="5.98593">
        <ele>616.21</ele>
        <time>2020-09-02T15:42:20Z</time>
      </trkpt>
      <trkpt lat="43.86058" lon="5.9859">
        <ele>615.808</ele>
        <time>2020-09-02T15:42:21Z</time>
      </trkpt>
      <trkpt lat="43.86051" lon="5.98587">
        <ele>615.642</ele>
        <time>2020-09-02T15:42:22Z</time>
      </trkpt>
      <trkpt lat="43.86046" lon="5.98581">
        <ele>615.531</ele>
        <time>2020-09-02T15:42:23Z</time>
      </trkpt>
      <trkpt lat="43.86041" lon="5.98574">
        <ele>614.891</ele>
        <time>2020-09-02T15:42:24Z</time>
      </trkpt>
      <trkpt lat="43.86039" lon="5.98564">
        <ele>614.658</ele>
        <time>2020-09-02T15:42:25Z</time>
      </trkpt>
      <trkpt lat="43.86038" lon="5.98551">
        <ele>613.859</ele>
        <time>2020-09-02T15:42:26Z</time>
      </trkpt>
      <trkpt lat="43.86036" lon="5.98537">
        <ele>612.917</ele>
        <time>2020-09-02T15:42:27Z</time>
      </trkpt>
      <trkpt lat="43.86036" lon="5.9852">
        <ele>612.393</ele>
        <time>2020-09-02T15:42:28Z</time>
      </trkpt>
      <trkpt lat="43.86036" lon="5.98502">
        <ele>612.266</ele>
        <time>2020-09-02T15:42:29Z</time>
      </trkpt>
      <trkpt lat="43.86036" lon="5.98484">
        <ele>612.512</ele>
        <time>2020-09-02T15:42:30Z</time>
      </trkpt>
      <trkpt lat="43.86036" lon="5.98466">
        <ele>612.032</ele>
        <time>2020-09-02T15:42:31Z</time>
      </trkpt>
      <trkpt lat="43.86037" lon="5.98447">
        <ele>612.305</ele>
        <time>2020-09-02T15:42:32Z</time>
      </trkpt>
      <trkpt lat="43.86039" lon="5.98428">
        <ele>613.008</ele>
        <time>2020-09-02T15:42:33Z</time>
      </trkpt>
      <trkpt lat="43.86042" lon="5.9841">
        <ele>613.429</ele>
        <time>2020-09-02T15:42:34Z</time>
      </trkpt>
      <trkpt lat="43.86046" lon="5.98391">
        <ele>614.258</ele>
        <time>2020-09-02T15:42:35Z</time>
      </trkpt>
      <trkpt lat="43.86049" lon="5.98372">
        <ele>614.258</ele>
        <time>2020-09-02T15:42:36Z</time>
      </trkpt>
      <trkpt lat="43.86053" lon="5.98352">
        <ele>614.315</ele>
        <time>2020-09-02T15:42:37Z</time>
      </trkpt>
      <trkpt lat="43.86057" lon="5.98332">
        <ele>614.416</ele>
        <time>2020-09-02T15:42:38Z</time>
      </trkpt>
      <trkpt lat="43.86062" lon="5.98312">
        <ele>614.834</ele>
        <time>2020-09-02T15:42:39Z</time>
      </trkpt>
      <trkpt lat="43.86066" lon="5.9829">
        <ele>615.05</ele>
        <time>2020-09-02T15:42:40Z</time>
      </trkpt>
      <trkpt lat="43.86071" lon="5.98269">
        <ele>615.143</ele>
        <time>2020-09-02T15:42:41Z</time>
      </trkpt>
      <trkpt lat="43.86077" lon="5.98247">
        <ele>614.575</ele>
        <time>2020-09-02T15:42:42Z</time>
      </trkpt>
      <trkpt lat="43.86082" lon="5.98225">
        <ele>614.228</ele>
        <time>2020-09-02T15:42:43Z</time>
      </trkpt>
      <trkpt lat="43.86087" lon="5.98205">
        <ele>613.52</ele>
        <time>2020-09-02T15:42:44Z</time>
      </trkpt>
      <trkpt lat="43.8609" lon="5.98186">
        <ele>613.008</ele>
        <time>2020-09-02T15:42:45Z</time>
      </trkpt>
      <trkpt lat="43.86092" lon="5.98167">
        <ele>613.415</ele>
        <time>2020-09-02T15:42:46Z</time>
      </trkpt>
      <trkpt lat="43.86092" lon="5.9815">
        <ele>613.484</ele>
        <time>2020-09-02T15:42:47Z</time>
      </trkpt>
      <trkpt lat="43.86091" lon="5.98133">
        <ele>614.274</ele>
        <time>2020-09-02T15:42:48Z</time>
      </trkpt>
      <trkpt lat="43.86088" lon="5.98116">
        <ele>614.391</ele>
        <time>2020-09-02T15:42:49Z</time>
      </trkpt>
      <trkpt lat="43.86084" lon="5.98098">
        <ele>614.262</ele>
        <time>2020-09-02T15:42:50Z</time>
      </trkpt>
      <trkpt lat="43.8608" lon="5.98078">
        <ele>614.01</ele>
        <time>2020-09-02T15:42:51Z</time>
      </trkpt>
      <trkpt lat="43.86076" lon="5.98057">
        <ele>613.796</ele>
        <time>2020-09-02T15:42:52Z</time>
      </trkpt>
      <trkpt lat="43.86072" lon="5.98035">
        <ele>613.449</ele>
        <time>2020-09-02T15:42:53Z</time>
      </trkpt>
      <trkpt lat="43.86067" lon="5.98012">
        <ele>613.228</ele>
        <time>2020-09-02T15:42:54Z</time>
      </trkpt>
      <trkpt lat="43.86062" lon="5.97989">
        <ele>612.689</ele>
        <time>2020-09-02T15:42:55Z</time>
      </trkpt>
      <trkpt lat="43.86058" lon="5.97966">
        <ele>611.617</ele>
        <time>2020-09-02T15:42:56Z</time>
      </trkpt>
      <trkpt lat="43.86053" lon="5.97943">
        <ele>611.308</ele>
        <time>2020-09-02T15:42:57Z</time>
      </trkpt>
      <trkpt lat="43.86049" lon="5.9792">
        <ele>611.13</ele>
        <time>2020-09-02T15:42:58Z</time>
      </trkpt>
      <trkpt lat="43.86045" lon="5.97897">
        <ele>611.029</ele>
        <time>2020-09-02T15:42:59Z</time>
      </trkpt>
      <trkpt lat="43.86041" lon="5.97874">
        <ele>610.879</ele>
        <time>2020-09-02T15:43:00Z</time>
      </trkpt>
      <trkpt lat="43.86037" lon="5.97852">
        <ele>611.496</ele>
        <time>2020-09-02T15:43:01Z</time>
      </trkpt>
      <trkpt lat="43.86034" lon="5.97831">
        <ele>611.987</ele>
        <time>2020-09-02T15:43:02Z</time>
      </trkpt>
      <trkpt lat="43.8603" lon="5.97811">
        <ele>611.635</ele>
        <time>2020-09-02T15:43:03Z</time>
      </trkpt>
      <trkpt lat="43.86026" lon="5.97792">
        <ele>611.011</ele>
        <time>2020-09-02T15:43:04Z</time>
      </trkpt>
      <trkpt lat="43.86021" lon="5.97775">
        <ele>610.634</ele>
        <time>2020-09-02T15:43:05Z</time>
      </trkpt>
      <trkpt lat="43.86016" lon="5.97759">
        <ele>610.168</ele>
        <time>2020-09-02T15:43:06Z</time>
      </trkpt>
      <trkpt lat="43.86011" lon="5.97745">
        <ele>609.242</ele>
        <time>2020-09-02T15:43:07Z</time>
      </trkpt>
      <trkpt lat="43.86006" lon="5.97732">
        <ele>608.126</ele>
        <time>2020-09-02T15:43:08Z</time>
      </trkpt>
      <trkpt lat="43.86001" lon="5.97718">
        <ele>606.908</ele>
        <time>2020-09-02T15:43:09Z</time>
      </trkpt>
      <trkpt lat="43.85996" lon="5.97703">
        <ele>605.844</ele>
        <time>2020-09-02T15:43:10Z</time>
      </trkpt>
      <trkpt lat="43.85992" lon="5.97688">
        <ele>605.573</ele>
        <time>2020-09-02T15:43:11Z</time>
      </trkpt>
      <trkpt lat="43.85991" lon="5.97671">
        <ele>606.213</ele>
        <time>2020-09-02T15:43:12Z</time>
      </trkpt>
      <trkpt lat="43.85991" lon="5.97654">
        <ele>606.34</ele>
        <time>2020-09-02T15:43:13Z</time>
      </trkpt>
      <trkpt lat="43.85991" lon="5.97635">
        <ele>607.341</ele>
        <time>2020-09-02T15:43:14Z</time>
      </trkpt>
      <trkpt lat="43.85991" lon="5.97618">
        <ele>607.829</ele>
        <time>2020-09-02T15:43:15Z</time>
      </trkpt>
      <trkpt lat="43.85991" lon="5.97603">
        <ele>608.085</ele>
        <time>2020-09-02T15:43:16Z</time>
      </trkpt>
      <trkpt lat="43.8599" lon="5.9759">
        <ele>608.558</ele>
        <time>2020-09-02T15:43:17Z</time>
      </trkpt>
      <trkpt lat="43.85987" lon="5.97577">
        <ele>608.959</ele>
        <time>2020-09-02T15:43:18Z</time>
      </trkpt>
      <trkpt lat="43.85982" lon="5.97564">
        <ele>609.003</ele>
        <time>2020-09-02T15:43:19Z</time>
      </trkpt>
      <trkpt lat="43.85975" lon="5.9755">
        <ele>609.123</ele>
        <time>2020-09-02T15:43:20Z</time>
      </trkpt>
      <trkpt lat="43.85965" lon="5.97535">
        <ele>609.108</ele>
        <time>2020-09-02T15:43:21Z</time>
      </trkpt>
      <trkpt lat="43.85955" lon="5.97517">
        <ele>608.853</ele>
        <time>2020-09-02T15:43:22Z</time>
      </trkpt>
      <trkpt lat="43.85944" lon="5.97499">
        <ele>608.382</ele>
        <time>2020-09-02T15:43:23Z</time>
      </trkpt>
      <trkpt lat="43.85932" lon="5.97481">
        <ele>607.982</ele>
        <time>2020-09-02T15:43:24Z</time>
      </trkpt>
      <trkpt lat="43.8592" lon="5.97461">
        <ele>607.959</ele>
        <time>2020-09-02T15:43:25Z</time>
      </trkpt>
      <trkpt lat="43.85907" lon="5.97441">
        <ele>607.44</ele>
        <time>2020-09-02T15:43:26Z</time>
      </trkpt>
      <trkpt lat="43.85895" lon="5.97421">
        <ele>607.368</ele>
        <time>2020-09-02T15:43:27Z</time>
      </trkpt>
      <trkpt lat="43.85882" lon="5.974">
        <ele>607.074</ele>
        <time>2020-09-02T15:43:28Z</time>
      </trkpt>
      <trkpt lat="43.85869" lon="5.97379">
        <ele>606.517</ele>
        <time>2020-09-02T15:43:29Z</time>
      </trkpt>
      <trkpt lat="43.85856" lon="5.97358">
        <ele>606.469</ele>
        <time>2020-09-02T15:43:30Z</time>
      </trkpt>
      <trkpt lat="43.85843" lon="5.97337">
        <ele>606.404</ele>
        <time>2020-09-02T15:43:31Z</time>
      </trkpt>
      <trkpt lat="43.8583" lon="5.97315">
        <ele>605.524</ele>
        <time>2020-09-02T15:43:32Z</time>
      </trkpt>
      <trkpt lat="43.85817" lon="5.97292">
        <ele>605.108</ele>
        <time>2020-09-02T15:43:33Z</time>
      </trkpt>
      <trkpt lat="43.85804" lon="5.97271">
        <ele>604.834</ele>
        <time>2020-09-02T15:43:34Z</time>
      </trkpt>
      <trkpt lat="43.85791" lon="5.97249">
        <ele>604.983</ele>
        <time>2020-09-02T15:43:35Z</time>
      </trkpt>
      <trkpt lat="43.85778" lon="5.97229">
        <ele>604.353</ele>
        <time>2020-09-02T15:43:36Z</time>
      </trkpt>
      <trkpt lat="43.85765" lon="5.97208">
        <ele>603.59</ele>
        <time>2020-09-02T15:43:37Z</time>
      </trkpt>
      <trkpt lat="43.85753" lon="5.97186">
        <ele>603.091</ele>
        <time>2020-09-02T15:43:38Z</time>
      </trkpt>
      <trkpt lat="43.85741" lon="5.97166">
        <ele>604.169</ele>
        <time>2020-09-02T15:43:39Z</time>
      </trkpt>
      <trkpt lat="43.85728" lon="5.97147">
        <ele>603.865</ele>
        <time>2020-09-02T15:43:40Z</time>
      </trkpt>
      <trkpt lat="43.85715" lon="5.97127">
        <ele>604.058</ele>
        <time>2020-09-02T15:43:41Z</time>
      </trkpt>
      <trkpt lat="43.85703" lon="5.97107">
        <ele>603.966</ele>
        <time>2020-09-02T15:43:42Z</time>
      </trkpt>
      <trkpt lat="43.8569" lon="5.97088">
        <ele>603.929</ele>
        <time>2020-09-02T15:43:43Z</time>
      </trkpt>
      <trkpt lat="43.85678" lon="5.97067">
        <ele>603.721</ele>
        <time>2020-09-02T15:43:44Z</time>
      </trkpt>
      <trkpt lat="43.85665" lon="5.97047">
        <ele>603.208</ele>
        <time>2020-09-02T15:43:45Z</time>
      </trkpt>
      <trkpt lat="43.85653" lon="5.97028">
        <ele>603.034</ele>
        <time>2020-09-02T15:43:46Z</time>
      </trkpt>
      <trkpt lat="43.85642" lon="5.9701">
        <ele>602.833</ele>
        <time>2020-09-02T15:43:47Z</time>
      </trkpt>
      <trkpt lat="43.85631" lon="5.96992">
        <ele>602.993</ele>
        <time>2020-09-02T15:43:48Z</time>
      </trkpt>
      <trkpt lat="43.8562" lon="5.96976">
        <ele>603.44</ele>
        <time>2020-09-02T15:43:49Z</time>
      </trkpt>
      <trkpt lat="43.85609" lon="5.96957">
        <ele>603.051</ele>
        <time>2020-09-02T15:43:50Z</time>
      </trkpt>
      <trkpt lat="43.85597" lon="5.96937">
        <ele>602.779</ele>
        <time>2020-09-02T15:43:51Z</time>
      </trkpt>
      <trkpt lat="43.85585" lon="5.96917">
        <ele>602.795</ele>
        <time>2020-09-02T15:43:52Z</time>
      </trkpt>
      <trkpt lat="43.85573" lon="5.96898">
        <ele>602.728</ele>
        <time>2020-09-02T15:43:53Z</time>
      </trkpt>
      <trkpt lat="43.8556" lon="5.96877">
        <ele>602.214</ele>
        <time>2020-09-02T15:43:54Z</time>
      </trkpt>
      <trkpt lat="43.85548" lon="5.96858">
        <ele>601.854</ele>
        <time>2020-09-02T15:43:55Z</time>
      </trkpt>
      <trkpt lat="43.85536" lon="5.96838">
        <ele>601.909</ele>
        <time>2020-09-02T15:43:56Z</time>
      </trkpt>
      <trkpt lat="43.85523" lon="5.96818">
        <ele>601.908</ele>
        <time>2020-09-02T15:43:57Z</time>
      </trkpt>
      <trkpt lat="43.8551" lon="5.96796">
        <ele>601.649</ele>
        <time>2020-09-02T15:43:58Z</time>
      </trkpt>
      <trkpt lat="43.85498" lon="5.96775">
        <ele>599.978</ele>
        <time>2020-09-02T15:43:59Z</time>
      </trkpt>
      <trkpt lat="43.85485" lon="5.96754">
        <ele>600.128</ele>
        <time>2020-09-02T15:44:00Z</time>
      </trkpt>
      <trkpt lat="43.85472" lon="5.96734">
        <ele>599.815</ele>
        <time>2020-09-02T15:44:01Z</time>
      </trkpt>
      <trkpt lat="43.85462" lon="5.96715">
        <ele>599.426</ele>
        <time>2020-09-02T15:44:02Z</time>
      </trkpt>
      <trkpt lat="43.85451" lon="5.96698">
        <ele>599.484</ele>
        <time>2020-09-02T15:44:03Z</time>
      </trkpt>
      <trkpt lat="43.85441" lon="5.96683">
        <ele>599.94</ele>
        <time>2020-09-02T15:44:04Z</time>
      </trkpt>
      <trkpt lat="43.85433" lon="5.9667">
        <ele>599.533</ele>
        <time>2020-09-02T15:44:05Z</time>
      </trkpt>
      <trkpt lat="43.85424" lon="5.96657">
        <ele>599.082</ele>
        <time>2020-09-02T15:44:06Z</time>
      </trkpt>
      <trkpt lat="43.85418" lon="5.96646">
        <ele>599.143</ele>
        <time>2020-09-02T15:44:07Z</time>
      </trkpt>
      <trkpt lat="43.85412" lon="5.96636">
        <ele>599.017</ele>
        <time>2020-09-02T15:44:08Z</time>
      </trkpt>
      <trkpt lat="43.85406" lon="5.96627">
        <ele>599.208</ele>
        <time>2020-09-02T15:44:09Z</time>
      </trkpt>
      <trkpt lat="43.85401" lon="5.96619">
        <ele>599.446</ele>
        <time>2020-09-02T15:44:10Z</time>
      </trkpt>
      <trkpt lat="43.85397" lon="5.96612">
        <ele>599.535</ele>
        <time>2020-09-02T15:44:11Z</time>
      </trkpt>
      <trkpt lat="43.85393" lon="5.96606">
        <ele>599.885</ele>
        <time>2020-09-02T15:44:12Z</time>
      </trkpt>
      <trkpt lat="43.8539" lon="5.96599">
        <ele>599.642</ele>
        <time>2020-09-02T15:44:13Z</time>
      </trkpt>
      <trkpt lat="43.85388" lon="5.96591">
        <ele>599.563</ele>
        <time>2020-09-02T15:44:15Z</time>
      </trkpt>
      <trkpt lat="43.85388" lon="5.9658">
        <ele>600.561</ele>
        <time>2020-09-02T15:44:17Z</time>
      </trkpt>
      <trkpt lat="43.85388" lon="5.96572">
        <ele>600.187</ele>
        <time>2020-09-02T15:44:18Z</time>
      </trkpt>
      <trkpt lat="43.85387" lon="5.96564">
        <ele>600.77</ele>
        <time>2020-09-02T15:44:19Z</time>
      </trkpt>
      <trkpt lat="43.85385" lon="5.96556">
        <ele>601.139</ele>
        <time>2020-09-02T15:44:20Z</time>
      </trkpt>
      <trkpt lat="43.85383" lon="5.96548">
        <ele>600.801</ele>
        <time>2020-09-02T15:44:21Z</time>
      </trkpt>
      <trkpt lat="43.85381" lon="5.9654">
        <ele>601.321</ele>
        <time>2020-09-02T15:44:22Z</time>
      </trkpt>
      <trkpt lat="43.85378" lon="5.96531">
        <ele>600.608</ele>
        <time>2020-09-02T15:44:23Z</time>
      </trkpt>
      <trkpt lat="43.85374" lon="5.96523">
        <ele>600.871</ele>
        <time>2020-09-02T15:44:24Z</time>
      </trkpt>
      <trkpt lat="43.85371" lon="5.96514">
        <ele>599.72</ele>
        <time>2020-09-02T15:44:25Z</time>
      </trkpt>
      <trkpt lat="43.85368" lon="5.96505">
        <ele>599.78</ele>
        <time>2020-09-02T15:44:26Z</time>
      </trkpt>
      <trkpt lat="43.85365" lon="5.96498">
        <ele>599.977</ele>
        <time>2020-09-02T15:44:27Z</time>
      </trkpt>
      <trkpt lat="43.85363" lon="5.96491">
        <ele>599.828</ele>
        <time>2020-09-02T15:44:28Z</time>
      </trkpt>
      <trkpt lat="43.8536" lon="5.96484">
        <ele>599.796</ele>
        <time>2020-09-02T15:44:29Z</time>
      </trkpt>
      <trkpt lat="43.85356" lon="5.96474">
        <ele>599.442</ele>
        <time>2020-09-02T15:44:30Z</time>
      </trkpt>
      <trkpt lat="43.85353" lon="5.96463">
        <ele>599.355</ele>
        <time>2020-09-02T15:44:31Z</time>
      </trkpt>
      <trkpt lat="43.85348" lon="5.96451">
        <ele>598.857</ele>
        <time>2020-09-02T15:44:32Z</time>
      </trkpt>
      <trkpt lat="43.85344" lon="5.96438">
        <ele>598.7</ele>
        <time>2020-09-02T15:44:33Z</time>
      </trkpt>
      <trkpt lat="43.85339" lon="5.96424">
        <ele>598.02</ele>
        <time>2020-09-02T15:44:34Z</time>
      </trkpt>
      <trkpt lat="43.85335" lon="5.96409">
        <ele>597.808</ele>
        <time>2020-09-02T15:44:35Z</time>
      </trkpt>
      <trkpt lat="43.8533" lon="5.96394">
        <ele>597.863</ele>
        <time>2020-09-02T15:44:36Z</time>
      </trkpt>
      <trkpt lat="43.85324" lon="5.96377">
        <ele>597.582</ele>
        <time>2020-09-02T15:44:37Z</time>
      </trkpt>
      <trkpt lat="43.85319" lon="5.96361">
        <ele>597.692</ele>
        <time>2020-09-02T15:44:38Z</time>
      </trkpt>
      <trkpt lat="43.85312" lon="5.96342">
        <ele>597.769</ele>
        <time>2020-09-02T15:44:39Z</time>
      </trkpt>
      <trkpt lat="43.85305" lon="5.96323">
        <ele>597.84</ele>
        <time>2020-09-02T15:44:40Z</time>
      </trkpt>
      <trkpt lat="43.85297" lon="5.96301">
        <ele>598.078</ele>
        <time>2020-09-02T15:44:41Z</time>
      </trkpt>
      <trkpt lat="43.85289" lon="5.96279">
        <ele>597.754</ele>
        <time>2020-09-02T15:44:42Z</time>
      </trkpt>
      <trkpt lat="43.85282" lon="5.96257">
        <ele>597.817</ele>
        <time>2020-09-02T15:44:43Z</time>
      </trkpt>
      <trkpt lat="43.85274" lon="5.96235">
        <ele>598.262</ele>
        <time>2020-09-02T15:44:44Z</time>
      </trkpt>
      <trkpt lat="43.85266" lon="5.96213">
        <ele>598.383</ele>
        <time>2020-09-02T15:44:45Z</time>
      </trkpt>
      <trkpt lat="43.85259" lon="5.9619">
        <ele>598.111</ele>
        <time>2020-09-02T15:44:46Z</time>
      </trkpt>
      <trkpt lat="43.85251" lon="5.96167">
        <ele>597.708</ele>
        <time>2020-09-02T15:44:47Z</time>
      </trkpt>
      <trkpt lat="43.85243" lon="5.96144">
        <ele>597.324</ele>
        <time>2020-09-02T15:44:48Z</time>
      </trkpt>
      <trkpt lat="43.85235" lon="5.9612">
        <ele>596.863</ele>
        <time>2020-09-02T15:44:49Z</time>
      </trkpt>
      <trkpt lat="43.85227" lon="5.96096">
        <ele>596.593</ele>
        <time>2020-09-02T15:44:50Z</time>
      </trkpt>
      <trkpt lat="43.85218" lon="5.96072">
        <ele>596.39</ele>
        <time>2020-09-02T15:44:51Z</time>
      </trkpt>
      <trkpt lat="43.85209" lon="5.96046">
        <ele>595.841</ele>
        <time>2020-09-02T15:44:52Z</time>
      </trkpt>
      <trkpt lat="43.852" lon="5.96024">
        <ele>596.059</ele>
        <time>2020-09-02T15:44:53Z</time>
      </trkpt>
      <trkpt lat="43.85193" lon="5.96002">
        <ele>596.265</ele>
        <time>2020-09-02T15:44:54Z</time>
      </trkpt>
      <trkpt lat="43.85185" lon="5.95979">
        <ele>596.388</ele>
        <time>2020-09-02T15:44:55Z</time>
      </trkpt>
      <trkpt lat="43.85178" lon="5.95956">
        <ele>595.986</ele>
        <time>2020-09-02T15:44:56Z</time>
      </trkpt>
      <trkpt lat="43.85169" lon="5.95931">
        <ele>595.66</ele>
        <time>2020-09-02T15:44:57Z</time>
      </trkpt>
      <trkpt lat="43.85161" lon="5.95906">
        <ele>594.926</ele>
        <time>2020-09-02T15:44:58Z</time>
      </trkpt>
      <trkpt lat="43.85152" lon="5.95883">
        <ele>594.108</ele>
        <time>2020-09-02T15:44:59Z</time>
      </trkpt>
      <trkpt lat="43.85146" lon="5.95866">
        <ele>594.116</ele>
        <time>2020-09-02T15:45:00Z</time>
      </trkpt>
      <trkpt lat="43.85141" lon="5.95852">
        <ele>593.975</ele>
        <time>2020-09-02T15:45:01Z</time>
      </trkpt>
      <trkpt lat="43.85137" lon="5.95841">
        <ele>593.855</ele>
        <time>2020-09-02T15:45:02Z</time>
      </trkpt>
      <trkpt lat="43.85136" lon="5.95831">
        <ele>593.842</ele>
        <time>2020-09-02T15:45:03Z</time>
      </trkpt>
      <trkpt lat="43.85137" lon="5.95821">
        <ele>593.523</ele>
        <time>2020-09-02T15:45:04Z</time>
      </trkpt>
      <trkpt lat="43.85141" lon="5.95811">
        <ele>593.051</ele>
        <time>2020-09-02T15:45:05Z</time>
      </trkpt>
      <trkpt lat="43.85146" lon="5.95801">
        <ele>592.137</ele>
        <time>2020-09-02T15:45:06Z</time>
      </trkpt>
      <trkpt lat="43.85155" lon="5.95793">
        <ele>592.02</ele>
        <time>2020-09-02T15:45:07Z</time>
      </trkpt>
      <trkpt lat="43.85163" lon="5.95785">
        <ele>591.782</ele>
        <time>2020-09-02T15:45:08Z</time>
      </trkpt>
      <trkpt lat="43.85172" lon="5.95776">
        <ele>591.343</ele>
        <time>2020-09-02T15:45:09Z</time>
      </trkpt>
      <trkpt lat="43.85179" lon="5.95763">
        <ele>590.917</ele>
        <time>2020-09-02T15:45:10Z</time>
      </trkpt>
      <trkpt lat="43.85186" lon="5.95748">
        <ele>590.608</ele>
        <time>2020-09-02T15:45:11Z</time>
      </trkpt>
      <trkpt lat="43.85191" lon="5.95732">
        <ele>590.616</ele>
        <time>2020-09-02T15:45:12Z</time>
      </trkpt>
      <trkpt lat="43.85194" lon="5.95715">
        <ele>590.065</ele>
        <time>2020-09-02T15:45:13Z</time>
      </trkpt>
      <trkpt lat="43.85193" lon="5.95696">
        <ele>589.625</ele>
        <time>2020-09-02T15:45:14Z</time>
      </trkpt>
      <trkpt lat="43.8519" lon="5.95677">
        <ele>589.182</ele>
        <time>2020-09-02T15:45:15Z</time>
      </trkpt>
      <trkpt lat="43.85186" lon="5.95655">
        <ele>588.593</ele>
        <time>2020-09-02T15:45:16Z</time>
      </trkpt>
      <trkpt lat="43.8518" lon="5.95632">
        <ele>587.641</ele>
        <time>2020-09-02T15:45:17Z</time>
      </trkpt>
      <trkpt lat="43.85175" lon="5.95609">
        <ele>587.117</ele>
        <time>2020-09-02T15:45:18Z</time>
      </trkpt>
      <trkpt lat="43.85171" lon="5.95589">
        <ele>586.36</ele>
        <time>2020-09-02T15:45:19Z</time>
      </trkpt>
      <trkpt lat="43.85167" lon="5.9557">
        <ele>585.836</ele>
        <time>2020-09-02T15:45:20Z</time>
      </trkpt>
      <trkpt lat="43.85162" lon="5.95551">
        <ele>585.517</ele>
        <time>2020-09-02T15:45:21Z</time>
      </trkpt>
      <trkpt lat="43.85155" lon="5.95533">
        <ele>585.718</ele>
        <time>2020-09-02T15:45:22Z</time>
      </trkpt>
      <trkpt lat="43.85144" lon="5.95516">
        <ele>585.408</ele>
        <time>2020-09-02T15:45:23Z</time>
      </trkpt>
      <trkpt lat="43.85131" lon="5.955">
        <ele>585.411</ele>
        <time>2020-09-02T15:45:24Z</time>
      </trkpt>
      <trkpt lat="43.85116" lon="5.95486">
        <ele>585.34</ele>
        <time>2020-09-02T15:45:25Z</time>
      </trkpt>
      <trkpt lat="43.85101" lon="5.95471">
        <ele>585.68</ele>
        <time>2020-09-02T15:45:26Z</time>
      </trkpt>
      <trkpt lat="43.85088" lon="5.95457">
        <ele>585.957</ele>
        <time>2020-09-02T15:45:27Z</time>
      </trkpt>
      <trkpt lat="43.85076" lon="5.95444">
        <ele>585.938</ele>
        <time>2020-09-02T15:45:28Z</time>
      </trkpt>
      <trkpt lat="43.85065" lon="5.95431">
        <ele>585.966</ele>
        <time>2020-09-02T15:45:29Z</time>
      </trkpt>
      <trkpt lat="43.85055" lon="5.95419">
        <ele>586.382</ele>
        <time>2020-09-02T15:45:30Z</time>
      </trkpt>
      <trkpt lat="43.85045" lon="5.95407">
        <ele>585.515</ele>
        <time>2020-09-02T15:45:31Z</time>
      </trkpt>
      <trkpt lat="43.85037" lon="5.95394">
        <ele>584.629</ele>
        <time>2020-09-02T15:45:32Z</time>
      </trkpt>
      <trkpt lat="43.85027" lon="5.9538">
        <ele>585.2</ele>
        <time>2020-09-02T15:45:33Z</time>
      </trkpt>
      <trkpt lat="43.85017" lon="5.95366">
        <ele>585.52</ele>
        <time>2020-09-02T15:45:34Z</time>
      </trkpt>
      <trkpt lat="43.85008" lon="5.95353">
        <ele>585.708</ele>
        <time>2020-09-02T15:45:35Z</time>
      </trkpt>
      <trkpt lat="43.85" lon="5.95339">
        <ele>585.68</ele>
        <time>2020-09-02T15:45:36Z</time>
      </trkpt>
      <trkpt lat="43.84991" lon="5.95326">
        <ele>585.469</ele>
        <time>2020-09-02T15:45:37Z</time>
      </trkpt>
      <trkpt lat="43.84983" lon="5.95312">
        <ele>585.369</ele>
        <time>2020-09-02T15:45:38Z</time>
      </trkpt>
      <trkpt lat="43.84975" lon="5.95298">
        <ele>585.486</ele>
        <time>2020-09-02T15:45:39Z</time>
      </trkpt>
      <trkpt lat="43.84966" lon="5.95281">
        <ele>585.527</ele>
        <time>2020-09-02T15:45:40Z</time>
      </trkpt>
      <trkpt lat="43.84959" lon="5.95264">
        <ele>585.355</ele>
        <time>2020-09-02T15:45:41Z</time>
      </trkpt>
      <trkpt lat="43.84951" lon="5.95245">
        <ele>585.961</ele>
        <time>2020-09-02T15:45:42Z</time>
      </trkpt>
      <trkpt lat="43.84943" lon="5.95226">
        <ele>586.254</ele>
        <time>2020-09-02T15:45:43Z</time>
      </trkpt>
      <trkpt lat="43.84936" lon="5.95204">
        <ele>586.528</ele>
        <time>2020-09-02T15:45:44Z</time>
      </trkpt>
      <trkpt lat="43.84928" lon="5.95182">
        <ele>586.289</ele>
        <time>2020-09-02T15:45:45Z</time>
      </trkpt>
      <trkpt lat="43.8492" lon="5.95159">
        <ele>585.917</ele>
        <time>2020-09-02T15:45:46Z</time>
      </trkpt>
      <trkpt lat="43.84912" lon="5.95134">
        <ele>585.708</ele>
        <time>2020-09-02T15:45:47Z</time>
      </trkpt>
      <trkpt lat="43.84903" lon="5.9511">
        <ele>586.01</ele>
        <time>2020-09-02T15:45:48Z</time>
      </trkpt>
      <trkpt lat="43.84895" lon="5.95087">
        <ele>586.079</ele>
        <time>2020-09-02T15:45:49Z</time>
      </trkpt>
      <trkpt lat="43.84886" lon="5.95066">
        <ele>586.529</ele>
        <time>2020-09-02T15:45:50Z</time>
      </trkpt>
      <trkpt lat="43.84877" lon="5.95044">
        <ele>586.736</ele>
        <time>2020-09-02T15:45:51Z</time>
      </trkpt>
      <trkpt lat="43.84869" lon="5.95024">
        <ele>586.697</ele>
        <time>2020-09-02T15:45:52Z</time>
      </trkpt>
      <trkpt lat="43.84861" lon="5.95003">
        <ele>586.485</ele>
        <time>2020-09-02T15:45:53Z</time>
      </trkpt>
      <trkpt lat="43.84853" lon="5.94981">
        <ele>587.291</ele>
        <time>2020-09-02T15:45:54Z</time>
      </trkpt>
      <trkpt lat="43.84844" lon="5.94957">
        <ele>586.824</ele>
        <time>2020-09-02T15:45:55Z</time>
      </trkpt>
      <trkpt lat="43.84835" lon="5.94934">
        <ele>586.987</ele>
        <time>2020-09-02T15:45:56Z</time>
      </trkpt>
      <trkpt lat="43.84825" lon="5.94909">
        <ele>586.442</ele>
        <time>2020-09-02T15:45:57Z</time>
      </trkpt>
      <trkpt lat="43.84816" lon="5.94884">
        <ele>585.826</ele>
        <time>2020-09-02T15:45:58Z</time>
      </trkpt>
      <trkpt lat="43.84806" lon="5.94859">
        <ele>585.408</ele>
        <time>2020-09-02T15:45:59Z</time>
      </trkpt>
      <trkpt lat="43.84796" lon="5.94835">
        <ele>585.756</ele>
        <time>2020-09-02T15:46:00Z</time>
      </trkpt>
      <trkpt lat="43.84786" lon="5.94811">
        <ele>585.345</ele>
        <time>2020-09-02T15:46:01Z</time>
      </trkpt>
      <trkpt lat="43.84777" lon="5.94787">
        <ele>585.235</ele>
        <time>2020-09-02T15:46:02Z</time>
      </trkpt>
      <trkpt lat="43.84768" lon="5.94762">
        <ele>585.032</ele>
        <time>2020-09-02T15:46:03Z</time>
      </trkpt>
      <trkpt lat="43.84758" lon="5.94738">
        <ele>585.123</ele>
        <time>2020-09-02T15:46:04Z</time>
      </trkpt>
      <trkpt lat="43.84748" lon="5.94713">
        <ele>585.211</ele>
        <time>2020-09-02T15:46:05Z</time>
      </trkpt>
      <trkpt lat="43.84739" lon="5.94688">
        <ele>585.377</ele>
        <time>2020-09-02T15:46:06Z</time>
      </trkpt>
      <trkpt lat="43.84729" lon="5.94665">
        <ele>585.07</ele>
        <time>2020-09-02T15:46:07Z</time>
      </trkpt>
      <trkpt lat="43.8472" lon="5.94641">
        <ele>585.157</ele>
        <time>2020-09-02T15:46:08Z</time>
      </trkpt>
      <trkpt lat="43.84711" lon="5.94619">
        <ele>584.8</ele>
        <time>2020-09-02T15:46:09Z</time>
      </trkpt>
      <trkpt lat="43.84702" lon="5.94597">
        <ele>584.52</ele>
        <time>2020-09-02T15:46:10Z</time>
      </trkpt>
      <trkpt lat="43.84694" lon="5.94574">
        <ele>584.208</ele>
        <time>2020-09-02T15:46:11Z</time>
      </trkpt>
      <trkpt lat="43.84684" lon="5.94551">
        <ele>584.063</ele>
        <time>2020-09-02T15:46:12Z</time>
      </trkpt>
      <trkpt lat="43.84675" lon="5.94528">
        <ele>583.722</ele>
        <time>2020-09-02T15:46:13Z</time>
      </trkpt>
      <trkpt lat="43.84666" lon="5.94506">
        <ele>583.482</ele>
        <time>2020-09-02T15:46:14Z</time>
      </trkpt>
      <trkpt lat="43.84657" lon="5.94485">
        <ele>583.059</ele>
        <time>2020-09-02T15:46:15Z</time>
      </trkpt>
      <trkpt lat="43.84649" lon="5.94465">
        <ele>582.83</ele>
        <time>2020-09-02T15:46:16Z</time>
      </trkpt>
      <trkpt lat="43.8464" lon="5.94445">
        <ele>582.548</ele>
        <time>2020-09-02T15:46:17Z</time>
      </trkpt>
      <trkpt lat="43.84631" lon="5.94425">
        <ele>582.014</ele>
        <time>2020-09-02T15:46:18Z</time>
      </trkpt>
      <trkpt lat="43.84623" lon="5.94406">
        <ele>581.717</ele>
        <time>2020-09-02T15:46:19Z</time>
      </trkpt>
      <trkpt lat="43.84615" lon="5.94387">
        <ele>581.128</ele>
        <time>2020-09-02T15:46:20Z</time>
      </trkpt>
      <trkpt lat="43.84608" lon="5.94366">
        <ele>580.389</ele>
        <time>2020-09-02T15:46:21Z</time>
      </trkpt>
      <trkpt lat="43.84603" lon="5.94344">
        <ele>579.417</ele>
        <time>2020-09-02T15:46:22Z</time>
      </trkpt>
      <trkpt lat="43.84598" lon="5.9432">
        <ele>579.408</ele>
        <time>2020-09-02T15:46:23Z</time>
      </trkpt>
      <trkpt lat="43.84592" lon="5.94297">
        <ele>578.19</ele>
        <time>2020-09-02T15:46:24Z</time>
      </trkpt>
      <trkpt lat="43.84588" lon="5.94273">
        <ele>578.139</ele>
        <time>2020-09-02T15:46:25Z</time>
      </trkpt>
      <trkpt lat="43.84587" lon="5.9425">
        <ele>577.159</ele>
        <time>2020-09-02T15:46:26Z</time>
      </trkpt>
      <trkpt lat="43.84586" lon="5.94227">
        <ele>577.046</ele>
        <time>2020-09-02T15:46:27Z</time>
      </trkpt>
      <trkpt lat="43.84583" lon="5.94205">
        <ele>577.787</ele>
        <time>2020-09-02T15:46:28Z</time>
      </trkpt>
      <trkpt lat="43.84579" lon="5.94184">
        <ele>577.085</ele>
        <time>2020-09-02T15:46:29Z</time>
      </trkpt>
      <trkpt lat="43.84574" lon="5.9416">
        <ele>577.361</ele>
        <time>2020-09-02T15:46:30Z</time>
      </trkpt>
      <trkpt lat="43.84569" lon="5.94138">
        <ele>577.864</ele>
        <time>2020-09-02T15:46:31Z</time>
      </trkpt>
      <trkpt lat="43.84563" lon="5.94119">
        <ele>577.419</ele>
        <time>2020-09-02T15:46:32Z</time>
      </trkpt>
      <trkpt lat="43.84556" lon="5.94101">
        <ele>577.709</ele>
        <time>2020-09-02T15:46:33Z</time>
      </trkpt>
      <trkpt lat="43.84548" lon="5.94087">
        <ele>578.119</ele>
        <time>2020-09-02T15:46:34Z</time>
      </trkpt>
      <trkpt lat="43.84539" lon="5.94072">
        <ele>577.908</ele>
        <time>2020-09-02T15:46:35Z</time>
      </trkpt>
      <trkpt lat="43.84529" lon="5.94058">
        <ele>577.799</ele>
        <time>2020-09-02T15:46:36Z</time>
      </trkpt>
      <trkpt lat="43.84519" lon="5.94042">
        <ele>577.288</ele>
        <time>2020-09-02T15:46:37Z</time>
      </trkpt>
      <trkpt lat="43.84507" lon="5.94026">
        <ele>577.168</ele>
        <time>2020-09-02T15:46:38Z</time>
      </trkpt>
      <trkpt lat="43.84496" lon="5.94009">
        <ele>577.025</ele>
        <time>2020-09-02T15:46:39Z</time>
      </trkpt>
      <trkpt lat="43.84484" lon="5.93993">
        <ele>576.866</ele>
        <time>2020-09-02T15:46:40Z</time>
      </trkpt>
      <trkpt lat="43.84473" lon="5.93976">
        <ele>576.674</ele>
        <time>2020-09-02T15:46:41Z</time>
      </trkpt>
      <trkpt lat="43.84461" lon="5.93958">
        <ele>575.67</ele>
        <time>2020-09-02T15:46:42Z</time>
      </trkpt>
      <trkpt lat="43.84449" lon="5.93939">
        <ele>575.093</ele>
        <time>2020-09-02T15:46:43Z</time>
      </trkpt>
      <trkpt lat="43.84438" lon="5.9392">
        <ele>575.337</ele>
        <time>2020-09-02T15:46:44Z</time>
      </trkpt>
      <trkpt lat="43.84426" lon="5.93904">
        <ele>575.649</ele>
        <time>2020-09-02T15:46:45Z</time>
      </trkpt>
      <trkpt lat="43.84417" lon="5.9389">
        <ele>575.713</ele>
        <time>2020-09-02T15:46:46Z</time>
      </trkpt>
      <trkpt lat="43.84407" lon="5.93872">
        <ele>575.808</ele>
        <time>2020-09-02T15:46:47Z</time>
      </trkpt>
      <trkpt lat="43.84397" lon="5.93856">
        <ele>575.541</ele>
        <time>2020-09-02T15:46:48Z</time>
      </trkpt>
      <trkpt lat="43.84386" lon="5.93839">
        <ele>575.18</ele>
        <time>2020-09-02T15:46:49Z</time>
      </trkpt>
      <trkpt lat="43.84374" lon="5.93822">
        <ele>574.36</ele>
        <time>2020-09-02T15:46:50Z</time>
      </trkpt>
      <trkpt lat="43.84362" lon="5.93803">
        <ele>573.837</ele>
        <time>2020-09-02T15:46:51Z</time>
      </trkpt>
      <trkpt lat="43.84348" lon="5.93785">
        <ele>573.298</ele>
        <time>2020-09-02T15:46:52Z</time>
      </trkpt>
      <trkpt lat="43.84335" lon="5.93767">
        <ele>572.886</ele>
        <time>2020-09-02T15:46:53Z</time>
      </trkpt>
      <trkpt lat="43.8432" lon="5.93749">
        <ele>571.882</ele>
        <time>2020-09-02T15:46:54Z</time>
      </trkpt>
      <trkpt lat="43.84305" lon="5.9373">
        <ele>570.545</ele>
        <time>2020-09-02T15:46:55Z</time>
      </trkpt>
      <trkpt lat="43.8429" lon="5.93711">
        <ele>569.695</ele>
        <time>2020-09-02T15:46:56Z</time>
      </trkpt>
      <trkpt lat="43.84277" lon="5.93691">
        <ele>569.649</ele>
        <time>2020-09-02T15:46:57Z</time>
      </trkpt>
      <trkpt lat="43.84264" lon="5.93672">
        <ele>570.023</ele>
        <time>2020-09-02T15:46:58Z</time>
      </trkpt>
      <trkpt lat="43.84251" lon="5.93655">
        <ele>570.608</ele>
        <time>2020-09-02T15:46:59Z</time>
      </trkpt>
      <trkpt lat="43.84239" lon="5.93639">
        <ele>570.527</ele>
        <time>2020-09-02T15:47:00Z</time>
      </trkpt>
      <trkpt lat="43.84226" lon="5.93624">
        <ele>571.216</ele>
        <time>2020-09-02T15:47:01Z</time>
      </trkpt>
      <trkpt lat="43.84214" lon="5.9361">
        <ele>571.286</ele>
        <time>2020-09-02T15:47:02Z</time>
      </trkpt>
      <trkpt lat="43.84203" lon="5.93594">
        <ele>571.263</ele>
        <time>2020-09-02T15:47:03Z</time>
      </trkpt>
      <trkpt lat="43.84194" lon="5.93577">
        <ele>571.434</ele>
        <time>2020-09-02T15:47:04Z</time>
      </trkpt>
      <trkpt lat="43.84188" lon="5.93557">
        <ele>571.772</ele>
        <time>2020-09-02T15:47:05Z</time>
      </trkpt>
      <trkpt lat="43.84183" lon="5.93536">
        <ele>571.658</ele>
        <time>2020-09-02T15:47:06Z</time>
      </trkpt>
      <trkpt lat="43.84179" lon="5.93515">
        <ele>571.121</ele>
        <time>2020-09-02T15:47:07Z</time>
      </trkpt>
      <trkpt lat="43.84175" lon="5.93494">
        <ele>572.462</ele>
        <time>2020-09-02T15:47:08Z</time>
      </trkpt>
      <trkpt lat="43.84173" lon="5.93476">
        <ele>573.483</ele>
        <time>2020-09-02T15:47:09Z</time>
      </trkpt>
      <trkpt lat="43.84169" lon="5.9346">
        <ele>573.911</ele>
        <time>2020-09-02T15:47:10Z</time>
      </trkpt>
      <trkpt lat="43.84164" lon="5.93444">
        <ele>574.208</ele>
        <time>2020-09-02T15:47:11Z</time>
      </trkpt>
      <trkpt lat="43.84159" lon="5.9343">
        <ele>574.514</ele>
        <time>2020-09-02T15:47:12Z</time>
      </trkpt>
      <trkpt lat="43.84153" lon="5.93415">
        <ele>574.673</ele>
        <time>2020-09-02T15:47:13Z</time>
      </trkpt>
      <trkpt lat="43.84146" lon="5.93399">
        <ele>574.423</ele>
        <time>2020-09-02T15:47:14Z</time>
      </trkpt>
      <trkpt lat="43.84141" lon="5.93381">
        <ele>573.65</ele>
        <time>2020-09-02T15:47:15Z</time>
      </trkpt>
      <trkpt lat="43.84137" lon="5.93361">
        <ele>572.811</ele>
        <time>2020-09-02T15:47:16Z</time>
      </trkpt>
      <trkpt lat="43.84134" lon="5.9334">
        <ele>571.949</ele>
        <time>2020-09-02T15:47:17Z</time>
      </trkpt>
      <trkpt lat="43.84132" lon="5.93321">
        <ele>572.375</ele>
        <time>2020-09-02T15:47:18Z</time>
      </trkpt>
      <trkpt lat="43.84131" lon="5.93307">
        <ele>571.638</ele>
        <time>2020-09-02T15:47:19Z</time>
      </trkpt>
      <trkpt lat="43.84129" lon="5.93295">
        <ele>571.125</ele>
        <time>2020-09-02T15:47:20Z</time>
      </trkpt>
      <trkpt lat="43.84128" lon="5.93288">
        <ele>570.626</ele>
        <time>2020-09-02T15:47:21Z</time>
      </trkpt>
      <trkpt lat="43.84126" lon="5.9328">
        <ele>570.808</ele>
        <time>2020-09-02T15:47:23Z</time>
      </trkpt>
      <trkpt lat="43.84119" lon="5.93282">
        <ele>570.708</ele>
        <time>2020-09-02T15:47:26Z</time>
      </trkpt>
      <trkpt lat="43.84113" lon="5.93284">
        <ele>570.73</ele>
        <time>2020-09-02T15:47:27Z</time>
      </trkpt>
      <trkpt lat="43.84107" lon="5.93286">
        <ele>570.449</ele>
        <time>2020-09-02T15:47:28Z</time>
      </trkpt>
      <trkpt lat="43.841" lon="5.93288">
        <ele>570.349</ele>
        <time>2020-09-02T15:47:29Z</time>
      </trkpt>
      <trkpt lat="43.84093" lon="5.93291">
        <ele>568.756</ele>
        <time>2020-09-02T15:47:30Z</time>
      </trkpt>
      <trkpt lat="43.84085" lon="5.93295">
        <ele>567.777</ele>
        <time>2020-09-02T15:47:31Z</time>
      </trkpt>
      <trkpt lat="43.84079" lon="5.93299">
        <ele>566.915</ele>
        <time>2020-09-02T15:47:32Z</time>
      </trkpt>
      <trkpt lat="43.84071" lon="5.93304">
        <ele>565.991</ele>
        <time>2020-09-02T15:47:33Z</time>
      </trkpt>
      <trkpt lat="43.84063" lon="5.93307">
        <ele>566.144</ele>
        <time>2020-09-02T15:47:34Z</time>
      </trkpt>
      <trkpt lat="43.84055" lon="5.93308">
        <ele>565.842</ele>
        <time>2020-09-02T15:47:35Z</time>
      </trkpt>
      <trkpt lat="43.84047" lon="5.93311">
        <ele>565.222</ele>
        <time>2020-09-02T15:47:36Z</time>
      </trkpt>
      <trkpt lat="43.84039" lon="5.93313">
        <ele>564.714</ele>
        <time>2020-09-02T15:47:37Z</time>
      </trkpt>
      <trkpt lat="43.84034" lon="5.93318">
        <ele>564.508</ele>
        <time>2020-09-02T15:47:38Z</time>
      </trkpt>
      <trkpt lat="43.84031" lon="5.93325">
        <ele>564.942</ele>
        <time>2020-09-02T15:47:39Z</time>
      </trkpt>
      <trkpt lat="43.8403" lon="5.93333">
        <ele>565.041</ele>
        <time>2020-09-02T15:47:40Z</time>
      </trkpt>
      <trkpt lat="43.84031" lon="5.93341">
        <ele>565.541</ele>
        <time>2020-09-02T15:47:41Z</time>
      </trkpt>
      <trkpt lat="43.84033" lon="5.93351">
        <ele>566.068</ele>
        <time>2020-09-02T15:47:42Z</time>
      </trkpt>
      <trkpt lat="43.84036" lon="5.93363">
        <ele>566.659</ele>
        <time>2020-09-02T15:47:43Z</time>
      </trkpt>
      <trkpt lat="43.84039" lon="5.93376">
        <ele>567.097</ele>
        <time>2020-09-02T15:47:44Z</time>
      </trkpt>
      <trkpt lat="43.84041" lon="5.9339">
        <ele>567.553</ele>
        <time>2020-09-02T15:47:45Z</time>
      </trkpt>
      <trkpt lat="43.84043" lon="5.93403">
        <ele>567.756</ele>
        <time>2020-09-02T15:47:46Z</time>
      </trkpt>
      <trkpt lat="43.84046" lon="5.93415">
        <ele>568.454</ele>
        <time>2020-09-02T15:47:47Z</time>
      </trkpt>
      <trkpt lat="43.84047" lon="5.93425">
        <ele>569.056</ele>
        <time>2020-09-02T15:47:48Z</time>
      </trkpt>
      <trkpt lat="43.84049" lon="5.93435">
        <ele>569.411</ele>
        <time>2020-09-02T15:47:49Z</time>
      </trkpt>
      <trkpt lat="43.84049" lon="5.93445">
        <ele>569.408</ele>
        <time>2020-09-02T15:47:50Z</time>
      </trkpt>
      <trkpt lat="43.84047" lon="5.93455">
        <ele>569.653</ele>
        <time>2020-09-02T15:47:51Z</time>
      </trkpt>
      <trkpt lat="43.84044" lon="5.93464">
        <ele>569.932</ele>
        <time>2020-09-02T15:47:52Z</time>
      </trkpt>
      <trkpt lat="43.84041" lon="5.9347">
        <ele>570.212</ele>
        <time>2020-09-02T15:47:53Z</time>
      </trkpt>
      <trkpt lat="43.84038" lon="5.93475">
        <ele>570.499</ele>
        <time>2020-09-02T15:47:54Z</time>
      </trkpt>
      <trkpt lat="43.84034" lon="5.93481">
        <ele>570.25</ele>
        <time>2020-09-02T15:47:55Z</time>
      </trkpt>
      <trkpt lat="43.8403" lon="5.93486">
        <ele>569.938</ele>
        <time>2020-09-02T15:47:56Z</time>
      </trkpt>
      <trkpt lat="43.84027" lon="5.93492">
        <ele>568.944</ele>
        <time>2020-09-02T15:47:57Z</time>
      </trkpt>
      <trkpt lat="43.84025" lon="5.93499">
        <ele>567.417</ele>
        <time>2020-09-02T15:47:58Z</time>
      </trkpt>
      <trkpt lat="43.84024" lon="5.93507">
        <ele>567.047</ele>
        <time>2020-09-02T15:47:59Z</time>
      </trkpt>
      <trkpt lat="43.84022" lon="5.93517">
        <ele>564.629</ele>
        <time>2020-09-02T15:48:00Z</time>
      </trkpt>
      <trkpt lat="43.84023" lon="5.93529">
        <ele>563.521</ele>
        <time>2020-09-02T15:48:01Z</time>
      </trkpt>
      <trkpt lat="43.84025" lon="5.93543">
        <ele>561.108</ele>
        <time>2020-09-02T15:48:02Z</time>
      </trkpt>
      <trkpt lat="43.84027" lon="5.93556">
        <ele>560.082</ele>
        <time>2020-09-02T15:48:03Z</time>
      </trkpt>
      <trkpt lat="43.84028" lon="5.93568">
        <ele>558.471</ele>
        <time>2020-09-02T15:48:04Z</time>
      </trkpt>
      <trkpt lat="43.8403" lon="5.93579">
        <ele>556.621</ele>
        <time>2020-09-02T15:48:05Z</time>
      </trkpt>
      <trkpt lat="43.84032" lon="5.93587">
        <ele>555.968</ele>
        <time>2020-09-02T15:48:06Z</time>
      </trkpt>
      <trkpt lat="43.84036" lon="5.93594">
        <ele>555.169</ele>
        <time>2020-09-02T15:48:07Z</time>
      </trkpt>
      <trkpt lat="43.84041" lon="5.93602">
        <ele>553.327</ele>
        <time>2020-09-02T15:48:08Z</time>
      </trkpt>
      <trkpt lat="43.84044" lon="5.93608">
        <ele>552.543</ele>
        <time>2020-09-02T15:48:09Z</time>
      </trkpt>
      <trkpt lat="43.84045" lon="5.93615">
        <ele>551.966</ele>
        <time>2020-09-02T15:48:10Z</time>
      </trkpt>
      <trkpt lat="43.84044" lon="5.93623">
        <ele>551.184</ele>
        <time>2020-09-02T15:48:11Z</time>
      </trkpt>
      <trkpt lat="43.84044" lon="5.9363">
        <ele>550.107</ele>
        <time>2020-09-02T15:48:12Z</time>
      </trkpt>
      <trkpt lat="43.84043" lon="5.9364">
        <ele>549.417</ele>
        <time>2020-09-02T15:48:13Z</time>
      </trkpt>
      <trkpt lat="43.84042" lon="5.93649">
        <ele>548.908</ele>
        <time>2020-09-02T15:48:14Z</time>
      </trkpt>
      <trkpt lat="43.84042" lon="5.93657">
        <ele>547.176</ele>
        <time>2020-09-02T15:48:15Z</time>
      </trkpt>
      <trkpt lat="43.84042" lon="5.93667">
        <ele>545.365</ele>
        <time>2020-09-02T15:48:16Z</time>
      </trkpt>
      <trkpt lat="43.84042" lon="5.93678">
        <ele>543.465</ele>
        <time>2020-09-02T15:48:17Z</time>
      </trkpt>
      <trkpt lat="43.84042" lon="5.93688">
        <ele>542.132</ele>
        <time>2020-09-02T15:48:18Z</time>
      </trkpt>
      <trkpt lat="43.84042" lon="5.93697">
        <ele>540.653</ele>
        <time>2020-09-02T15:48:19Z</time>
      </trkpt>
      <trkpt lat="43.84041" lon="5.93708">
        <ele>539.461</ele>
        <time>2020-09-02T15:48:20Z</time>
      </trkpt>
      <trkpt lat="43.84039" lon="5.93717">
        <ele>538.297</ele>
        <time>2020-09-02T15:48:21Z</time>
      </trkpt>
      <trkpt lat="43.84037" lon="5.93726">
        <ele>536.24</ele>
        <time>2020-09-02T15:48:22Z</time>
      </trkpt>
      <trkpt lat="43.84036" lon="5.93736">
        <ele>535.389</ele>
        <time>2020-09-02T15:48:23Z</time>
      </trkpt>
      <trkpt lat="43.84034" lon="5.93744">
        <ele>534.406</ele>
        <time>2020-09-02T15:48:24Z</time>
      </trkpt>
      <trkpt lat="43.84033" lon="5.93754">
        <ele>533.526</ele>
        <time>2020-09-02T15:48:25Z</time>
      </trkpt>
      <trkpt lat="43.84033" lon="5.93763">
        <ele>532.208</ele>
        <time>2020-09-02T15:48:26Z</time>
      </trkpt>
      <trkpt lat="43.84032" lon="5.93772">
        <ele>529.726</ele>
        <time>2020-09-02T15:48:27Z</time>
      </trkpt>
      <trkpt lat="43.84032" lon="5.93781">
        <ele>529.155</ele>
        <time>2020-09-02T15:48:28Z</time>
      </trkpt>
      <trkpt lat="43.84032" lon="5.93788">
        <ele>527.795</ele>
        <time>2020-09-02T15:48:29Z</time>
      </trkpt>
      <trkpt lat="43.84032" lon="5.93795">
        <ele>526.922</ele>
        <time>2020-09-02T15:48:30Z</time>
      </trkpt>
      <trkpt lat="43.84027" lon="5.93803">
        <ele>525.153</ele>
        <time>2020-09-02T15:48:32Z</time>
      </trkpt>
      <trkpt lat="43.84017" lon="5.93801">
        <ele>523.161</ele>
        <time>2020-09-02T15:48:34Z</time>
      </trkpt>
      <trkpt lat="43.84011" lon="5.93798">
        <ele>522.177</ele>
        <time>2020-09-02T15:48:35Z</time>
      </trkpt>
      <trkpt lat="43.84005" lon="5.93794">
        <ele>521.99</ele>
        <time>2020-09-02T15:48:36Z</time>
      </trkpt>
      <trkpt lat="43.83999" lon="5.93789">
        <ele>521.912</ele>
        <time>2020-09-02T15:48:37Z</time>
      </trkpt>
      <trkpt lat="43.83995" lon="5.93781">
        <ele>521.332</ele>
        <time>2020-09-02T15:48:38Z</time>
      </trkpt>
      <trkpt lat="43.8399" lon="5.93776">
        <ele>520.905</ele>
        <time>2020-09-02T15:48:39Z</time>
      </trkpt>
      <trkpt lat="43.83986" lon="5.93772">
        <ele>520.308</ele>
        <time>2020-09-02T15:48:40Z</time>
      </trkpt>
      <trkpt lat="43.8398" lon="5.9377">
        <ele>519.049</ele>
        <time>2020-09-02T15:48:41Z</time>
      </trkpt>
      <trkpt lat="43.83975" lon="5.93769">
        <ele>518.678</ele>
        <time>2020-09-02T15:48:42Z</time>
      </trkpt>
      <trkpt lat="43.8397" lon="5.93771">
        <ele>518.568</ele>
        <time>2020-09-02T15:48:43Z</time>
      </trkpt>
      <trkpt lat="43.83965" lon="5.93773">
        <ele>517.525</ele>
        <time>2020-09-02T15:48:44Z</time>
      </trkpt>
      <trkpt lat="43.83961" lon="5.93776">
        <ele>517.076</ele>
        <time>2020-09-02T15:48:46Z</time>
      </trkpt>
      <trkpt lat="43.83958" lon="5.93771">
        <ele>517.624</ele>
        <time>2020-09-02T15:48:50Z</time>
      </trkpt>
      <trkpt lat="43.8396" lon="5.93764">
        <ele>518.52</ele>
        <time>2020-09-02T15:48:52Z</time>
      </trkpt>
      <trkpt lat="43.83961" lon="5.93758">
        <ele>518.573</ele>
        <time>2020-09-02T15:48:53Z</time>
      </trkpt>
      <trkpt lat="43.83962" lon="5.93748">
        <ele>518.631</ele>
        <time>2020-09-02T15:48:54Z</time>
      </trkpt>
      <trkpt lat="43.83963" lon="5.93738">
        <ele>519.161</ele>
        <time>2020-09-02T15:48:55Z</time>
      </trkpt>
      <trkpt lat="43.83962" lon="5.93725">
        <ele>518.907</ele>
        <time>2020-09-02T15:48:56Z</time>
      </trkpt>
      <trkpt lat="43.8396" lon="5.9371">
        <ele>518.308</ele>
        <time>2020-09-02T15:48:57Z</time>
      </trkpt>
      <trkpt lat="43.83958" lon="5.93695">
        <ele>517.991</ele>
        <time>2020-09-02T15:48:58Z</time>
      </trkpt>
      <trkpt lat="43.83954" lon="5.93681">
        <ele>517.76</ele>
        <time>2020-09-02T15:48:59Z</time>
      </trkpt>
      <trkpt lat="43.83951" lon="5.93668">
        <ele>517.97</ele>
        <time>2020-09-02T15:49:00Z</time>
      </trkpt>
      <trkpt lat="43.83948" lon="5.93657">
        <ele>517.137</ele>
        <time>2020-09-02T15:49:01Z</time>
      </trkpt>
      <trkpt lat="43.83946" lon="5.93646">
        <ele>516.988</ele>
        <time>2020-09-02T15:49:02Z</time>
      </trkpt>
      <trkpt lat="43.8394" lon="5.93635">
        <ele>517.026</ele>
        <time>2020-09-02T15:49:03Z</time>
      </trkpt>
      <trkpt lat="43.83934" lon="5.93623">
        <ele>516.152</ele>
        <time>2020-09-02T15:49:04Z</time>
      </trkpt>
      <trkpt lat="43.83929" lon="5.93611">
        <ele>516.235</ele>
        <time>2020-09-02T15:49:05Z</time>
      </trkpt>
      <trkpt lat="43.83926" lon="5.93598">
        <ele>515.717</ele>
        <time>2020-09-02T15:49:06Z</time>
      </trkpt>
      <trkpt lat="43.83922" lon="5.93585">
        <ele>515.587</ele>
        <time>2020-09-02T15:49:07Z</time>
      </trkpt>
      <trkpt lat="43.83919" lon="5.93572">
        <ele>515.215</ele>
        <time>2020-09-02T15:49:08Z</time>
      </trkpt>
      <trkpt lat="43.83916" lon="5.93555">
        <ele>514.808</ele>
        <time>2020-09-02T15:49:09Z</time>
      </trkpt>
      <trkpt lat="43.83913" lon="5.93539">
        <ele>514.219</ele>
        <time>2020-09-02T15:49:10Z</time>
      </trkpt>
      <trkpt lat="43.83909" lon="5.93522">
        <ele>514.018</ele>
        <time>2020-09-02T15:49:11Z</time>
      </trkpt>
      <trkpt lat="43.83906" lon="5.93505">
        <ele>513.738</ele>
        <time>2020-09-02T15:49:12Z</time>
      </trkpt>
      <trkpt lat="43.83904" lon="5.93489">
        <ele>513.685</ele>
        <time>2020-09-02T15:49:13Z</time>
      </trkpt>
      <trkpt lat="43.83903" lon="5.93471">
        <ele>514.086</ele>
        <time>2020-09-02T15:49:14Z</time>
      </trkpt>
      <trkpt lat="43.83901" lon="5.93456">
        <ele>514.034</ele>
        <time>2020-09-02T15:49:15Z</time>
      </trkpt>
      <trkpt lat="43.839" lon="5.93442">
        <ele>514.05</ele>
        <time>2020-09-02T15:49:16Z</time>
      </trkpt>
      <trkpt lat="43.839" lon="5.9343">
        <ele>514.233</ele>
        <time>2020-09-02T15:49:17Z</time>
      </trkpt>
      <trkpt lat="43.83901" lon="5.93416">
        <ele>514.455</ele>
        <time>2020-09-02T15:49:18Z</time>
      </trkpt>
      <trkpt lat="43.83903" lon="5.93401">
        <ele>514.407</ele>
        <time>2020-09-02T15:49:19Z</time>
      </trkpt>
      <trkpt lat="43.83905" lon="5.93386">
        <ele>513.517</ele>
        <time>2020-09-02T15:49:20Z</time>
      </trkpt>
      <trkpt lat="43.83908" lon="5.93371">
        <ele>513.408</ele>
        <time>2020-09-02T15:49:21Z</time>
      </trkpt>
      <trkpt lat="43.83909" lon="5.93357">
        <ele>513.223</ele>
        <time>2020-09-02T15:49:22Z</time>
      </trkpt>
      <trkpt lat="43.83909" lon="5.93344">
        <ele>513.362</ele>
        <time>2020-09-02T15:49:23Z</time>
      </trkpt>
      <trkpt lat="43.83908" lon="5.9333">
        <ele>513.412</ele>
        <time>2020-09-02T15:49:24Z</time>
      </trkpt>
      <trkpt lat="43.83902" lon="5.93315">
        <ele>513.229</ele>
        <time>2020-09-02T15:49:25Z</time>
      </trkpt>
      <trkpt lat="43.83898" lon="5.93298">
        <ele>513.36</ele>
        <time>2020-09-02T15:49:26Z</time>
      </trkpt>
      <trkpt lat="43.83893" lon="5.9328">
        <ele>512.738</ele>
        <time>2020-09-02T15:49:27Z</time>
      </trkpt>
      <trkpt lat="43.83887" lon="5.93264">
        <ele>512.364</ele>
        <time>2020-09-02T15:49:28Z</time>
      </trkpt>
      <trkpt lat="43.83881" lon="5.93249">
        <ele>511.687</ele>
        <time>2020-09-02T15:49:29Z</time>
      </trkpt>
      <trkpt lat="43.83877" lon="5.93235">
        <ele>511.174</ele>
        <time>2020-09-02T15:49:30Z</time>
      </trkpt>
      <trkpt lat="43.83878" lon="5.93224">
        <ele>508.456</ele>
        <time>2020-09-02T15:49:31Z</time>
      </trkpt>
      <trkpt lat="43.83878" lon="5.93212">
        <ele>508.321</ele>
        <time>2020-09-02T15:49:32Z</time>
      </trkpt>
      <trkpt lat="43.83877" lon="5.932">
        <ele>508.208</ele>
        <time>2020-09-02T15:49:33Z</time>
      </trkpt>
      <trkpt lat="43.83875" lon="5.93189">
        <ele>508.075</ele>
        <time>2020-09-02T15:49:34Z</time>
      </trkpt>
      <trkpt lat="43.83874" lon="5.93177">
        <ele>507.994</ele>
        <time>2020-09-02T15:49:35Z</time>
      </trkpt>
      <trkpt lat="43.83875" lon="5.93167">
        <ele>507.914</ele>
        <time>2020-09-02T15:49:36Z</time>
      </trkpt>
      <trkpt lat="43.83875" lon="5.93155">
        <ele>507.491</ele>
        <time>2020-09-02T15:49:37Z</time>
      </trkpt>
      <trkpt lat="43.83874" lon="5.93145">
        <ele>507.752</ele>
        <time>2020-09-02T15:49:38Z</time>
      </trkpt>
      <trkpt lat="43.83872" lon="5.93133">
        <ele>507.44</ele>
        <time>2020-09-02T15:49:39Z</time>
      </trkpt>
      <trkpt lat="43.83869" lon="5.9312">
        <ele>507.216</ele>
        <time>2020-09-02T15:49:40Z</time>
      </trkpt>
      <trkpt lat="43.83865" lon="5.93108">
        <ele>506.999</ele>
        <time>2020-09-02T15:49:41Z</time>
      </trkpt>
      <trkpt lat="43.83861" lon="5.93098">
        <ele>506.756</ele>
        <time>2020-09-02T15:49:42Z</time>
      </trkpt>
      <trkpt lat="43.83855" lon="5.93092">
        <ele>506.459</ele>
        <time>2020-09-02T15:49:43Z</time>
      </trkpt>
      <trkpt lat="43.8385" lon="5.93087">
        <ele>506.014</ele>
        <time>2020-09-02T15:49:44Z</time>
      </trkpt>
      <trkpt lat="43.83847" lon="5.9308">
        <ele>505.708</ele>
        <time>2020-09-02T15:49:45Z</time>
      </trkpt>
      <trkpt lat="43.83843" lon="5.93072">
        <ele>504.873</ele>
        <time>2020-09-02T15:49:46Z</time>
      </trkpt>
      <trkpt lat="43.83839" lon="5.93063">
        <ele>504.772</ele>
        <time>2020-09-02T15:49:47Z</time>
      </trkpt>
      <trkpt lat="43.83835" lon="5.93056">
        <ele>504.912</ele>
        <time>2020-09-02T15:49:48Z</time>
      </trkpt>
      <trkpt lat="43.83833" lon="5.9305">
        <ele>504.589</ele>
        <time>2020-09-02T15:49:49Z</time>
      </trkpt>
      <trkpt lat="43.8383" lon="5.93044">
        <ele>504.68</ele>
        <time>2020-09-02T15:49:50Z</time>
      </trkpt>
      <trkpt lat="43.83826" lon="5.93032">
        <ele>503.888</ele>
        <time>2020-09-02T15:49:52Z</time>
      </trkpt>
      <trkpt lat="43.83825" lon="5.93024">
        <ele>504.054</ele>
        <time>2020-09-02T15:49:53Z</time>
      </trkpt>
      <trkpt lat="43.83823" lon="5.93015">
        <ele>503.637</ele>
        <time>2020-09-02T15:49:54Z</time>
      </trkpt>
      <trkpt lat="43.83822" lon="5.93005">
        <ele>503.485</ele>
        <time>2020-09-02T15:49:55Z</time>
      </trkpt>
      <trkpt lat="43.8382" lon="5.92995">
        <ele>503.689</ele>
        <time>2020-09-02T15:49:56Z</time>
      </trkpt>
      <trkpt lat="43.83819" lon="5.92983">
        <ele>503.717</ele>
        <time>2020-09-02T15:49:57Z</time>
      </trkpt>
      <trkpt lat="43.83818" lon="5.92972">
        <ele>504.008</ele>
        <time>2020-09-02T15:49:58Z</time>
      </trkpt>
      <trkpt lat="43.83815" lon="5.92962">
        <ele>503.376</ele>
        <time>2020-09-02T15:49:59Z</time>
      </trkpt>
      <trkpt lat="43.83814" lon="5.92951">
        <ele>502.935</ele>
        <time>2020-09-02T15:50:00Z</time>
      </trkpt>
      <trkpt lat="43.83814" lon="5.92944">
        <ele>502.555</ele>
        <time>2020-09-02T15:50:01Z</time>
      </trkpt>
      <trkpt lat="43.83814" lon="5.92935">
        <ele>502.622</ele>
        <time>2020-09-02T15:50:02Z</time>
      </trkpt>
      <trkpt lat="43.83814" lon="5.92924">
        <ele>501.643</ele>
        <time>2020-09-02T15:50:03Z</time>
      </trkpt>
      <trkpt lat="43.83812" lon="5.92914">
        <ele>501.121</ele>
        <time>2020-09-02T15:50:04Z</time>
      </trkpt>
      <trkpt lat="43.83812" lon="5.92904">
        <ele>500.867</ele>
        <time>2020-09-02T15:50:05Z</time>
      </trkpt>
      <trkpt lat="43.83812" lon="5.92896">
        <ele>500.66</ele>
        <time>2020-09-02T15:50:06Z</time>
      </trkpt>
      <trkpt lat="43.83812" lon="5.92888">
        <ele>500.818</ele>
        <time>2020-09-02T15:50:07Z</time>
      </trkpt>
      <trkpt lat="43.83814" lon="5.92877">
        <ele>500.698</ele>
        <time>2020-09-02T15:50:08Z</time>
      </trkpt>
      <trkpt lat="43.83815" lon="5.92867">
        <ele>499.717</ele>
        <time>2020-09-02T15:50:09Z</time>
      </trkpt>
      <trkpt lat="43.8382" lon="5.92861">
        <ele>500.908</ele>
        <time>2020-09-02T15:50:10Z</time>
      </trkpt>
      <trkpt lat="43.83822" lon="5.92849">
        <ele>500.229</ele>
        <time>2020-09-02T15:50:12Z</time>
      </trkpt>
      <trkpt lat="43.83823" lon="5.92842">
        <ele>500.428</ele>
        <time>2020-09-02T15:50:13Z</time>
      </trkpt>
      <trkpt lat="43.83822" lon="5.92835">
        <ele>500.438</ele>
        <time>2020-09-02T15:50:14Z</time>
      </trkpt>
      <trkpt lat="43.8382" lon="5.92827">
        <ele>500.415</ele>
        <time>2020-09-02T15:50:15Z</time>
      </trkpt>
      <trkpt lat="43.83819" lon="5.9282">
        <ele>500.346</ele>
        <time>2020-09-02T15:50:16Z</time>
      </trkpt>
      <trkpt lat="43.83821" lon="5.92811">
        <ele>500.114</ele>
        <time>2020-09-02T15:50:17Z</time>
      </trkpt>
      <trkpt lat="43.83822" lon="5.92802">
        <ele>500.08</ele>
        <time>2020-09-02T15:50:18Z</time>
      </trkpt>
      <trkpt lat="43.83822" lon="5.92793">
        <ele>499.813</ele>
        <time>2020-09-02T15:50:19Z</time>
      </trkpt>
      <trkpt lat="43.83822" lon="5.92783">
        <ele>500.093</ele>
        <time>2020-09-02T15:50:20Z</time>
      </trkpt>
      <trkpt lat="43.83821" lon="5.92774">
        <ele>499.565</ele>
        <time>2020-09-02T15:50:21Z</time>
      </trkpt>
      <trkpt lat="43.83818" lon="5.92764">
        <ele>499.421</ele>
        <time>2020-09-02T15:50:22Z</time>
      </trkpt>
      <trkpt lat="43.83816" lon="5.92756">
        <ele>499.308</ele>
        <time>2020-09-02T15:50:23Z</time>
      </trkpt>
      <trkpt lat="43.83814" lon="5.92748">
        <ele>499.057</ele>
        <time>2020-09-02T15:50:24Z</time>
      </trkpt>
      <trkpt lat="43.83812" lon="5.9274">
        <ele>499.136</ele>
        <time>2020-09-02T15:50:25Z</time>
      </trkpt>
      <trkpt lat="43.83811" lon="5.92732">
        <ele>498.786</ele>
        <time>2020-09-02T15:50:26Z</time>
      </trkpt>
      <trkpt lat="43.8381" lon="5.92724">
        <ele>498.493</ele>
        <time>2020-09-02T15:50:27Z</time>
      </trkpt>
      <trkpt lat="43.83809" lon="5.92717">
        <ele>497.894</ele>
        <time>2020-09-02T15:50:28Z</time>
      </trkpt>
      <trkpt lat="43.83808" lon="5.92711">
        <ele>497.682</ele>
        <time>2020-09-02T15:50:29Z</time>
      </trkpt>
      <trkpt lat="43.83806" lon="5.92705">
        <ele>497.458</ele>
        <time>2020-09-02T15:50:30Z</time>
      </trkpt>
      <trkpt lat="43.83801" lon="5.92697">
        <ele>497.391</ele>
        <time>2020-09-02T15:50:32Z</time>
      </trkpt>
      <trkpt lat="43.83796" lon="5.92686">
        <ele>496.974</ele>
        <time>2020-09-02T15:50:34Z</time>
      </trkpt>
      <trkpt lat="43.83791" lon="5.92678">
        <ele>497.056</ele>
        <time>2020-09-02T15:50:35Z</time>
      </trkpt>
      <trkpt lat="43.83787" lon="5.92669">
        <ele>495.221</ele>
        <time>2020-09-02T15:50:36Z</time>
      </trkpt>
      <trkpt lat="43.83782" lon="5.92659">
        <ele>494.708</ele>
        <time>2020-09-02T15:50:37Z</time>
      </trkpt>
      <trkpt lat="43.83776" lon="5.9265">
        <ele>494.495</ele>
        <time>2020-09-02T15:50:38Z</time>
      </trkpt>
      <trkpt lat="43.8377" lon="5.92642">
        <ele>493.614</ele>
        <time>2020-09-02T15:50:39Z</time>
      </trkpt>
      <trkpt lat="43.83764" lon="5.92633">
        <ele>493.534</ele>
        <time>2020-09-02T15:50:40Z</time>
      </trkpt>
      <trkpt lat="43.83758" lon="5.92625">
        <ele>493.051</ele>
        <time>2020-09-02T15:50:41Z</time>
      </trkpt>
      <trkpt lat="43.83752" lon="5.92618">
        <ele>492.742</ele>
        <time>2020-09-02T15:50:42Z</time>
      </trkpt>
      <trkpt lat="43.83748" lon="5.92609">
        <ele>492.55</ele>
        <time>2020-09-02T15:50:43Z</time>
      </trkpt>
      <trkpt lat="43.83744" lon="5.926">
        <ele>492.426</ele>
        <time>2020-09-02T15:50:44Z</time>
      </trkpt>
      <trkpt lat="43.8374" lon="5.92588">
        <ele>492.159</ele>
        <time>2020-09-02T15:50:45Z</time>
      </trkpt>
      <trkpt lat="43.83737" lon="5.92577">
        <ele>492.227</ele>
        <time>2020-09-02T15:50:46Z</time>
      </trkpt>
      <trkpt lat="43.83732" lon="5.92564">
        <ele>491.768</ele>
        <time>2020-09-02T15:50:47Z</time>
      </trkpt>
      <trkpt lat="43.83728" lon="5.92551">
        <ele>491.614</ele>
        <time>2020-09-02T15:50:48Z</time>
      </trkpt>
      <trkpt lat="43.83724" lon="5.92537">
        <ele>491.408</ele>
        <time>2020-09-02T15:50:49Z</time>
      </trkpt>
      <trkpt lat="43.8372" lon="5.92522">
        <ele>491.75</ele>
        <time>2020-09-02T15:50:50Z</time>
      </trkpt>
      <trkpt lat="43.83717" lon="5.92509">
        <ele>491.459</ele>
        <time>2020-09-02T15:50:51Z</time>
      </trkpt>
      <trkpt lat="43.83714" lon="5.92495">
        <ele>491.439</ele>
        <time>2020-09-02T15:50:52Z</time>
      </trkpt>
      <trkpt lat="43.83712" lon="5.92482">
        <ele>491.436</ele>
        <time>2020-09-02T15:50:53Z</time>
      </trkpt>
      <trkpt lat="43.83711" lon="5.92472">
        <ele>490.477</ele>
        <time>2020-09-02T15:50:54Z</time>
      </trkpt>
      <trkpt lat="43.83708" lon="5.9246">
        <ele>490.455</ele>
        <time>2020-09-02T15:50:55Z</time>
      </trkpt>
      <trkpt lat="43.83702" lon="5.92448">
        <ele>490.621</ele>
        <time>2020-09-02T15:50:56Z</time>
      </trkpt>
      <trkpt lat="43.83697" lon="5.92435">
        <ele>490.524</ele>
        <time>2020-09-02T15:50:57Z</time>
      </trkpt>
      <trkpt lat="43.83692" lon="5.92422">
        <ele>490.089</ele>
        <time>2020-09-02T15:50:58Z</time>
      </trkpt>
      <trkpt lat="43.83688" lon="5.92411">
        <ele>489.806</ele>
        <time>2020-09-02T15:50:59Z</time>
      </trkpt>
      <trkpt lat="43.83682" lon="5.92399">
        <ele>490.026</ele>
        <time>2020-09-02T15:51:00Z</time>
      </trkpt>
      <trkpt lat="43.83676" lon="5.92388">
        <ele>490.508</ele>
        <time>2020-09-02T15:51:01Z</time>
      </trkpt>
      <trkpt lat="43.83669" lon="5.92376">
        <ele>489.846</ele>
        <time>2020-09-02T15:51:02Z</time>
      </trkpt>
      <trkpt lat="43.8366" lon="5.92366">
        <ele>489.525</ele>
        <time>2020-09-02T15:51:03Z</time>
      </trkpt>
      <trkpt lat="43.8365" lon="5.92359">
        <ele>489.775</ele>
        <time>2020-09-02T15:51:04Z</time>
      </trkpt>
      <trkpt lat="43.83641" lon="5.92353">
        <ele>489.592</ele>
        <time>2020-09-02T15:51:05Z</time>
      </trkpt>
      <trkpt lat="43.83631" lon="5.92347">
        <ele>488.863</ele>
        <time>2020-09-02T15:51:06Z</time>
      </trkpt>
      <trkpt lat="43.8362" lon="5.92343">
        <ele>488.611</ele>
        <time>2020-09-02T15:51:07Z</time>
      </trkpt>
      <trkpt lat="43.83611" lon="5.92341">
        <ele>488.077</ele>
        <time>2020-09-02T15:51:08Z</time>
      </trkpt>
      <trkpt lat="43.83603" lon="5.92341">
        <ele>488.46</ele>
        <time>2020-09-02T15:51:09Z</time>
      </trkpt>
      <trkpt lat="43.83593" lon="5.92343">
        <ele>488.018</ele>
        <time>2020-09-02T15:51:10Z</time>
      </trkpt>
      <trkpt lat="43.83585" lon="5.92343">
        <ele>487.998</ele>
        <time>2020-09-02T15:51:11Z</time>
      </trkpt>
      <trkpt lat="43.83576" lon="5.92344">
        <ele>487.317</ele>
        <time>2020-09-02T15:51:12Z</time>
      </trkpt>
      <trkpt lat="43.83568" lon="5.92341">
        <ele>486.508</ele>
        <time>2020-09-02T15:51:13Z</time>
      </trkpt>
      <trkpt lat="43.83561" lon="5.92337">
        <ele>486.239</ele>
        <time>2020-09-02T15:51:14Z</time>
      </trkpt>
      <trkpt lat="43.83555" lon="5.92332">
        <ele>485.428</ele>
        <time>2020-09-02T15:51:15Z</time>
      </trkpt>
      <trkpt lat="43.83549" lon="5.92325">
        <ele>485.258</ele>
        <time>2020-09-02T15:51:16Z</time>
      </trkpt>
      <trkpt lat="43.83542" lon="5.92318">
        <ele>485.245</ele>
        <time>2020-09-02T15:51:17Z</time>
      </trkpt>
      <trkpt lat="43.83533" lon="5.92307">
        <ele>484.966</ele>
        <time>2020-09-02T15:51:18Z</time>
      </trkpt>
      <trkpt lat="43.83525" lon="5.92295">
        <ele>484.684</ele>
        <time>2020-09-02T15:51:19Z</time>
      </trkpt>
      <trkpt lat="43.83516" lon="5.92282">
        <ele>484.14</ele>
        <time>2020-09-02T15:51:20Z</time>
      </trkpt>
      <trkpt lat="43.83507" lon="5.92269">
        <ele>483.983</ele>
        <time>2020-09-02T15:51:21Z</time>
      </trkpt>
      <trkpt lat="43.835" lon="5.92259">
        <ele>482.827</ele>
        <time>2020-09-02T15:51:22Z</time>
      </trkpt>
      <trkpt lat="43.83493" lon="5.92248">
        <ele>482.368</ele>
        <time>2020-09-02T15:51:23Z</time>
      </trkpt>
      <trkpt lat="43.83485" lon="5.92239">
        <ele>481.814</ele>
        <time>2020-09-02T15:51:24Z</time>
      </trkpt>
      <trkpt lat="43.83477" lon="5.92232">
        <ele>481.608</ele>
        <time>2020-09-02T15:51:25Z</time>
      </trkpt>
      <trkpt lat="43.8347" lon="5.92225">
        <ele>481.11</ele>
        <time>2020-09-02T15:51:26Z</time>
      </trkpt>
      <trkpt lat="43.83464" lon="5.92218">
        <ele>480.979</ele>
        <time>2020-09-02T15:51:27Z</time>
      </trkpt>
      <trkpt lat="43.83459" lon="5.9221">
        <ele>480.929</ele>
        <time>2020-09-02T15:51:28Z</time>
      </trkpt>
      <trkpt lat="43.83455" lon="5.92202">
        <ele>480.866</ele>
        <time>2020-09-02T15:51:29Z</time>
      </trkpt>
      <trkpt lat="43.83451" lon="5.92193">
        <ele>480.967</ele>
        <time>2020-09-02T15:51:30Z</time>
      </trkpt>
      <trkpt lat="43.83449" lon="5.92182">
        <ele>481.095</ele>
        <time>2020-09-02T15:51:31Z</time>
      </trkpt>
      <trkpt lat="43.83444" lon="5.92169">
        <ele>480.941</ele>
        <time>2020-09-02T15:51:32Z</time>
      </trkpt>
      <trkpt lat="43.83437" lon="5.92156">
        <ele>480.524</ele>
        <time>2020-09-02T15:51:33Z</time>
      </trkpt>
      <trkpt lat="43.83431" lon="5.92141">
        <ele>480.113</ele>
        <time>2020-09-02T15:51:34Z</time>
      </trkpt>
      <trkpt lat="43.83425" lon="5.92127">
        <ele>480.443</ele>
        <time>2020-09-02T15:51:35Z</time>
      </trkpt>
      <trkpt lat="43.8342" lon="5.92113">
        <ele>479.507</ele>
        <time>2020-09-02T15:51:36Z</time>
      </trkpt>
      <trkpt lat="43.83417" lon="5.921">
        <ele>479.208</ele>
        <time>2020-09-02T15:51:37Z</time>
      </trkpt>
      <trkpt lat="43.83414" lon="5.92087">
        <ele>479.199</ele>
        <time>2020-09-02T15:51:38Z</time>
      </trkpt>
      <trkpt lat="43.83411" lon="5.92074">
        <ele>479.488</ele>
        <time>2020-09-02T15:51:39Z</time>
      </trkpt>
      <trkpt lat="43.83408" lon="5.92061">
        <ele>479.498</ele>
        <time>2020-09-02T15:51:40Z</time>
      </trkpt>
      <trkpt lat="43.83406" lon="5.92048">
        <ele>479.295</ele>
        <time>2020-09-02T15:51:41Z</time>
      </trkpt>
      <trkpt lat="43.83404" lon="5.92035">
        <ele>479.126</ele>
        <time>2020-09-02T15:51:42Z</time>
      </trkpt>
      <trkpt lat="43.83403" lon="5.92025">
        <ele>479.134</ele>
        <time>2020-09-02T15:51:43Z</time>
      </trkpt>
      <trkpt lat="43.83403" lon="5.92013">
        <ele>479.18</ele>
        <time>2020-09-02T15:51:44Z</time>
      </trkpt>
      <trkpt lat="43.83406" lon="5.92001">
        <ele>478.673</ele>
        <time>2020-09-02T15:51:45Z</time>
      </trkpt>
      <trkpt lat="43.8341" lon="5.91987">
        <ele>478.984</ele>
        <time>2020-09-02T15:51:46Z</time>
      </trkpt>
      <trkpt lat="43.83414" lon="5.91975">
        <ele>478.907</ele>
        <time>2020-09-02T15:51:47Z</time>
      </trkpt>
      <trkpt lat="43.83417" lon="5.91964">
        <ele>478.217</ele>
        <time>2020-09-02T15:51:48Z</time>
      </trkpt>
      <trkpt lat="43.8342" lon="5.9195">
        <ele>477.708</ele>
        <time>2020-09-02T15:51:49Z</time>
      </trkpt>
      <trkpt lat="43.8342" lon="5.91938">
        <ele>477.496</ele>
        <time>2020-09-02T15:51:50Z</time>
      </trkpt>
      <trkpt lat="43.83421" lon="5.91927">
        <ele>477.565</ele>
        <time>2020-09-02T15:51:51Z</time>
      </trkpt>
      <trkpt lat="43.83419" lon="5.91915">
        <ele>477.215</ele>
        <time>2020-09-02T15:51:52Z</time>
      </trkpt>
      <trkpt lat="43.83415" lon="5.91901">
        <ele>477.222</ele>
        <time>2020-09-02T15:51:53Z</time>
      </trkpt>
      <trkpt lat="43.8341" lon="5.91887">
        <ele>476.843</ele>
        <time>2020-09-02T15:51:54Z</time>
      </trkpt>
      <trkpt lat="43.83406" lon="5.91873">
        <ele>476.161</ele>
        <time>2020-09-02T15:51:55Z</time>
      </trkpt>
      <trkpt lat="43.83403" lon="5.9186">
        <ele>475.927</ele>
        <time>2020-09-02T15:51:56Z</time>
      </trkpt>
      <trkpt lat="43.834" lon="5.91848">
        <ele>475.28</ele>
        <time>2020-09-02T15:51:57Z</time>
      </trkpt>
      <trkpt lat="43.83396" lon="5.91836">
        <ele>475.159</ele>
        <time>2020-09-02T15:51:58Z</time>
      </trkpt>
      <trkpt lat="43.83392" lon="5.91825">
        <ele>475.203</ele>
        <time>2020-09-02T15:51:59Z</time>
      </trkpt>
      <trkpt lat="43.83386" lon="5.91813">
        <ele>475.023</ele>
        <time>2020-09-02T15:52:00Z</time>
      </trkpt>
      <trkpt lat="43.83379" lon="5.918">
        <ele>474.708</ele>
        <time>2020-09-02T15:52:01Z</time>
      </trkpt>
      <trkpt lat="43.83374" lon="5.91787">
        <ele>474.553</ele>
        <time>2020-09-02T15:52:02Z</time>
      </trkpt>
      <trkpt lat="43.83369" lon="5.91777">
        <ele>474.372</ele>
        <time>2020-09-02T15:52:03Z</time>
      </trkpt>
      <trkpt lat="43.83364" lon="5.91768">
        <ele>474.272</ele>
        <time>2020-09-02T15:52:04Z</time>
      </trkpt>
      <trkpt lat="43.83358" lon="5.91759">
        <ele>473.029</ele>
        <time>2020-09-02T15:52:05Z</time>
      </trkpt>
      <trkpt lat="43.8335" lon="5.91753">
        <ele>472.92</ele>
        <time>2020-09-02T15:52:06Z</time>
      </trkpt>
      <trkpt lat="43.8334" lon="5.91747">
        <ele>472.888</ele>
        <time>2020-09-02T15:52:07Z</time>
      </trkpt>
      <trkpt lat="43.8333" lon="5.91742">
        <ele>473.024</ele>
        <time>2020-09-02T15:52:08Z</time>
      </trkpt>
      <trkpt lat="43.83321" lon="5.91734">
        <ele>471.897</ele>
        <time>2020-09-02T15:52:09Z</time>
      </trkpt>
      <trkpt lat="43.83312" lon="5.91727">
        <ele>471.647</ele>
        <time>2020-09-02T15:52:10Z</time>
      </trkpt>
      <trkpt lat="43.83302" lon="5.9172">
        <ele>471.829</ele>
        <time>2020-09-02T15:52:11Z</time>
      </trkpt>
      <trkpt lat="43.83293" lon="5.91714">
        <ele>471.921</ele>
        <time>2020-09-02T15:52:12Z</time>
      </trkpt>
      <trkpt lat="43.83283" lon="5.91709">
        <ele>472.108</ele>
        <time>2020-09-02T15:52:13Z</time>
      </trkpt>
      <trkpt lat="43.83272" lon="5.91703">
        <ele>472.072</ele>
        <time>2020-09-02T15:52:14Z</time>
      </trkpt>
      <trkpt lat="43.8326" lon="5.91697">
        <ele>471.051</ele>
        <time>2020-09-02T15:52:15Z</time>
      </trkpt>
      <trkpt lat="43.83249" lon="5.91691">
        <ele>471.021</ele>
        <time>2020-09-02T15:52:16Z</time>
      </trkpt>
      <trkpt lat="43.83239" lon="5.91686">
        <ele>470.238</ele>
        <time>2020-09-02T15:52:17Z</time>
      </trkpt>
      <trkpt lat="43.83229" lon="5.91679">
        <ele>469.959</ele>
        <time>2020-09-02T15:52:18Z</time>
      </trkpt>
      <trkpt lat="43.8322" lon="5.91674">
        <ele>469.027</ele>
        <time>2020-09-02T15:52:19Z</time>
      </trkpt>
      <trkpt lat="43.83212" lon="5.91669">
        <ele>468.393</ele>
        <time>2020-09-02T15:52:20Z</time>
      </trkpt>
      <trkpt lat="43.83203" lon="5.91666">
        <ele>468.396</ele>
        <time>2020-09-02T15:52:21Z</time>
      </trkpt>
      <trkpt lat="43.83196" lon="5.91662">
        <ele>468.058</ele>
        <time>2020-09-02T15:52:22Z</time>
      </trkpt>
      <trkpt lat="43.83188" lon="5.91657">
        <ele>467.652</ele>
        <time>2020-09-02T15:52:23Z</time>
      </trkpt>
      <trkpt lat="43.83182" lon="5.9165">
        <ele>467.417</ele>
        <time>2020-09-02T15:52:24Z</time>
      </trkpt>
      <trkpt lat="43.83176" lon="5.91642">
        <ele>467.308</ele>
        <time>2020-09-02T15:52:25Z</time>
      </trkpt>
      <trkpt lat="43.83168" lon="5.91633">
        <ele>467.453</ele>
        <time>2020-09-02T15:52:26Z</time>
      </trkpt>
      <trkpt lat="43.83161" lon="5.91626">
        <ele>466.862</ele>
        <time>2020-09-02T15:52:27Z</time>
      </trkpt>
      <trkpt lat="43.83153" lon="5.91618">
        <ele>466.272</ele>
        <time>2020-09-02T15:52:28Z</time>
      </trkpt>
      <trkpt lat="43.83147" lon="5.91611">
        <ele>466.199</ele>
        <time>2020-09-02T15:52:29Z</time>
      </trkpt>
      <trkpt lat="43.83141" lon="5.91604">
        <ele>465.86</ele>
        <time>2020-09-02T15:52:30Z</time>
      </trkpt>
      <trkpt lat="43.83135" lon="5.916">
        <ele>465.518</ele>
        <time>2020-09-02T15:52:31Z</time>
      </trkpt>
      <trkpt lat="43.83129" lon="5.91597">
        <ele>465.144</ele>
        <time>2020-09-02T15:52:32Z</time>
      </trkpt>
      <trkpt lat="43.83123" lon="5.91594">
        <ele>465.197</ele>
        <time>2020-09-02T15:52:33Z</time>
      </trkpt>
      <trkpt lat="43.83117" lon="5.91589">
        <ele>465.234</ele>
        <time>2020-09-02T15:52:34Z</time>
      </trkpt>
      <trkpt lat="43.8311" lon="5.91585">
        <ele>465.055</ele>
        <time>2020-09-02T15:52:35Z</time>
      </trkpt>
      <trkpt lat="43.83103" lon="5.91581">
        <ele>465.01</ele>
        <time>2020-09-02T15:52:36Z</time>
      </trkpt>
      <trkpt lat="43.83096" lon="5.91576">
        <ele>464.308</ele>
        <time>2020-09-02T15:52:37Z</time>
      </trkpt>
      <trkpt lat="43.83089" lon="5.91572">
        <ele>464.581</ele>
        <time>2020-09-02T15:52:38Z</time>
      </trkpt>
      <trkpt lat="43.83083" lon="5.91569">
        <ele>464.62</ele>
        <time>2020-09-02T15:52:39Z</time>
      </trkpt>
      <trkpt lat="43.83078" lon="5.91566">
        <ele>463.91</ele>
        <time>2020-09-02T15:52:40Z</time>
      </trkpt>
      <trkpt lat="43.83073" lon="5.91563">
        <ele>463.587</ele>
        <time>2020-09-02T15:52:41Z</time>
      </trkpt>
      <trkpt lat="43.83068" lon="5.9156">
        <ele>463.698</ele>
        <time>2020-09-02T15:52:42Z</time>
      </trkpt>
      <trkpt lat="43.83062" lon="5.91556">
        <ele>463.716</ele>
        <time>2020-09-02T15:52:44Z</time>
      </trkpt>
      <trkpt lat="43.83056" lon="5.91549">
        <ele>463.382</ele>
        <time>2020-09-02T15:52:46Z</time>
      </trkpt>
      <trkpt lat="43.83053" lon="5.91543">
        <ele>462.955</ele>
        <time>2020-09-02T15:52:47Z</time>
      </trkpt>
      <trkpt lat="43.8305" lon="5.91537">
        <ele>462.772</ele>
        <time>2020-09-02T15:52:48Z</time>
      </trkpt>
      <trkpt lat="43.83046" lon="5.9153">
        <ele>462.513</ele>
        <time>2020-09-02T15:52:49Z</time>
      </trkpt>
      <trkpt lat="43.83043" lon="5.91523">
        <ele>462.214</ele>
        <time>2020-09-02T15:52:50Z</time>
      </trkpt>
      <trkpt lat="43.83039" lon="5.91516">
        <ele>462.208</ele>
        <time>2020-09-02T15:52:51Z</time>
      </trkpt>
      <trkpt lat="43.83036" lon="5.91509">
        <ele>462.025</ele>
        <time>2020-09-02T15:52:52Z</time>
      </trkpt>
      <trkpt lat="43.83032" lon="5.91502">
        <ele>461.624</ele>
        <time>2020-09-02T15:52:53Z</time>
      </trkpt>
      <trkpt lat="43.83028" lon="5.91497">
        <ele>461.324</ele>
        <time>2020-09-02T15:52:54Z</time>
      </trkpt>
      <trkpt lat="43.83025" lon="5.91492">
        <ele>461.361</ele>
        <time>2020-09-02T15:52:55Z</time>
      </trkpt>
      <trkpt lat="43.8302" lon="5.91484">
        <ele>461.282</ele>
        <time>2020-09-02T15:52:57Z</time>
      </trkpt>
      <trkpt lat="43.83015" lon="5.91477">
        <ele>461.57</ele>
        <time>2020-09-02T15:52:59Z</time>
      </trkpt>
      <trkpt lat="43.83011" lon="5.91468">
        <ele>461.776</ele>
        <time>2020-09-02T15:53:01Z</time>
      </trkpt>
      <trkpt lat="43.83009" lon="5.91461">
        <ele>461.549</ele>
        <time>2020-09-02T15:53:02Z</time>
      </trkpt>
      <trkpt lat="43.83007" lon="5.91455">
        <ele>462.117</ele>
        <time>2020-09-02T15:53:03Z</time>
      </trkpt>
      <trkpt lat="43.83004" lon="5.91449">
        <ele>462.187</ele>
        <time>2020-09-02T15:53:04Z</time>
      </trkpt>
      <trkpt lat="43.83002" lon="5.91443">
        <ele>462.015</ele>
        <time>2020-09-02T15:53:05Z</time>
      </trkpt>
      <trkpt lat="43.83" lon="5.91437">
        <ele>460.708</ele>
        <time>2020-09-02T15:53:06Z</time>
      </trkpt>
      <trkpt lat="43.82998" lon="5.91431">
        <ele>460.739</ele>
        <time>2020-09-02T15:53:07Z</time>
      </trkpt>
      <trkpt lat="43.82996" lon="5.91425">
        <ele>460.178</ele>
        <time>2020-09-02T15:53:08Z</time>
      </trkpt>
      <trkpt lat="43.82994" lon="5.91418">
        <ele>459.898</ele>
        <time>2020-09-02T15:53:09Z</time>
      </trkpt>
      <trkpt lat="43.82993" lon="5.91412">
        <ele>459.665</ele>
        <time>2020-09-02T15:53:10Z</time>
      </trkpt>
      <trkpt lat="43.82991" lon="5.91405">
        <ele>459.646</ele>
        <time>2020-09-02T15:53:11Z</time>
      </trkpt>
      <trkpt lat="43.8299" lon="5.91398">
        <ele>459.584</ele>
        <time>2020-09-02T15:53:12Z</time>
      </trkpt>
      <trkpt lat="43.82987" lon="5.91387">
        <ele>459.86</ele>
        <time>2020-09-02T15:53:14Z</time>
      </trkpt>
      <trkpt lat="43.82985" lon="5.91381">
        <ele>459.573</ele>
        <time>2020-09-02T15:53:15Z</time>
      </trkpt>
      <trkpt lat="43.82982" lon="5.91374">
        <ele>459.568</ele>
        <time>2020-09-02T15:53:16Z</time>
      </trkpt>
      <trkpt lat="43.82981" lon="5.91368">
        <ele>458.842</ele>
        <time>2020-09-02T15:53:17Z</time>
      </trkpt>
      <trkpt lat="43.82978" lon="5.91362">
        <ele>458.526</ele>
        <time>2020-09-02T15:53:18Z</time>
      </trkpt>
      <trkpt lat="43.82975" lon="5.91355">
        <ele>458.408</ele>
        <time>2020-09-02T15:53:19Z</time>
      </trkpt>
      <trkpt lat="43.82973" lon="5.91347">
        <ele>458.554</ele>
        <time>2020-09-02T15:53:20Z</time>
      </trkpt>
      <trkpt lat="43.8297" lon="5.91341">
        <ele>458.663</ele>
        <time>2020-09-02T15:53:21Z</time>
      </trkpt>
      <trkpt lat="43.82967" lon="5.91335">
        <ele>458.593</ele>
        <time>2020-09-02T15:53:22Z</time>
      </trkpt>
      <trkpt lat="43.82963" lon="5.91327">
        <ele>458.74</ele>
        <time>2020-09-02T15:53:24Z</time>
      </trkpt>
      <trkpt lat="43.82959" lon="5.91318">
        <ele>458.161</ele>
        <time>2020-09-02T15:53:26Z</time>
      </trkpt>
      <trkpt lat="43.82956" lon="5.91311">
        <ele>458.579</ele>
        <time>2020-09-02T15:53:28Z</time>
      </trkpt>
      <trkpt lat="43.82952" lon="5.91302">
        <ele>458.285</ele>
        <time>2020-09-02T15:53:30Z</time>
      </trkpt>
      <trkpt lat="43.82948" lon="5.91296">
        <ele>457.438</ele>
        <time>2020-09-02T15:53:32Z</time>
      </trkpt>
      <trkpt lat="43.82942" lon="5.91286">
        <ele>455.286</ele>
        <time>2020-09-02T15:53:56Z</time>
      </trkpt>
      <trkpt lat="43.82938" lon="5.9128">
        <ele>454.96</ele>
        <time>2020-09-02T15:53:57Z</time>
      </trkpt>
      <trkpt lat="43.82932" lon="5.91273">
        <ele>454.826</ele>
        <time>2020-09-02T15:53:58Z</time>
      </trkpt>
      <trkpt lat="43.82925" lon="5.91265">
        <ele>454.608</ele>
        <time>2020-09-02T15:53:59Z</time>
      </trkpt>
      <trkpt lat="43.82919" lon="5.91255">
        <ele>454.316</ele>
        <time>2020-09-02T15:54:00Z</time>
      </trkpt>
      <trkpt lat="43.82913" lon="5.91247">
        <ele>454.195</ele>
        <time>2020-09-02T15:54:01Z</time>
      </trkpt>
      <trkpt lat="43.82907" lon="5.91238">
        <ele>453.845</ele>
        <time>2020-09-02T15:54:02Z</time>
      </trkpt>
      <trkpt lat="43.829" lon="5.91229">
        <ele>453.922</ele>
        <time>2020-09-02T15:54:03Z</time>
      </trkpt>
      <trkpt lat="43.82893" lon="5.91221">
        <ele>453.973</ele>
        <time>2020-09-02T15:54:04Z</time>
      </trkpt>
      <trkpt lat="43.82887" lon="5.91214">
        <ele>453.521</ele>
        <time>2020-09-02T15:54:05Z</time>
      </trkpt>
      <trkpt lat="43.82879" lon="5.91208">
        <ele>453.147</ele>
        <time>2020-09-02T15:54:06Z</time>
      </trkpt>
      <trkpt lat="43.82872" lon="5.91202">
        <ele>452.06</ele>
        <time>2020-09-02T15:54:07Z</time>
      </trkpt>
      <trkpt lat="43.82864" lon="5.91195">
        <ele>452.111</ele>
        <time>2020-09-02T15:54:08Z</time>
      </trkpt>
      <trkpt lat="43.82858" lon="5.91188">
        <ele>451.721</ele>
        <time>2020-09-02T15:54:09Z</time>
      </trkpt>
      <trkpt lat="43.8285" lon="5.91181">
        <ele>451.803</ele>
        <time>2020-09-02T15:54:10Z</time>
      </trkpt>
      <trkpt lat="43.82843" lon="5.91173">
        <ele>451.608</ele>
        <time>2020-09-02T15:54:11Z</time>
      </trkpt>
      <trkpt lat="43.82836" lon="5.91164">
        <ele>451.399</ele>
        <time>2020-09-02T15:54:12Z</time>
      </trkpt>
      <trkpt lat="43.8283" lon="5.91156">
        <ele>451.058</ele>
        <time>2020-09-02T15:54:13Z</time>
      </trkpt>
      <trkpt lat="43.82825" lon="5.91146">
        <ele>450.868</ele>
        <time>2020-09-02T15:54:14Z</time>
      </trkpt>
      <trkpt lat="43.8282" lon="5.91136">
        <ele>451.275</ele>
        <time>2020-09-02T15:54:15Z</time>
      </trkpt>
      <trkpt lat="43.82815" lon="5.91127">
        <ele>450.966</ele>
        <time>2020-09-02T15:54:16Z</time>
      </trkpt>
      <trkpt lat="43.8281" lon="5.91117">
        <ele>450.714</ele>
        <time>2020-09-02T15:54:17Z</time>
      </trkpt>
      <trkpt lat="43.82805" lon="5.91107">
        <ele>451.07</ele>
        <time>2020-09-02T15:54:18Z</time>
      </trkpt>
      <trkpt lat="43.82801" lon="5.91098">
        <ele>451.083</ele>
        <time>2020-09-02T15:54:19Z</time>
      </trkpt>
      <trkpt lat="43.82797" lon="5.9109">
        <ele>450.769</ele>
        <time>2020-09-02T15:54:20Z</time>
      </trkpt>
      <trkpt lat="43.82793" lon="5.91081">
        <ele>450.604</ele>
        <time>2020-09-02T15:54:21Z</time>
      </trkpt>
      <trkpt lat="43.82788" lon="5.91072">
        <ele>450.524</ele>
        <time>2020-09-02T15:54:22Z</time>
      </trkpt>
      <trkpt lat="43.82783" lon="5.91063">
        <ele>450.008</ele>
        <time>2020-09-02T15:54:23Z</time>
      </trkpt>
      <trkpt lat="43.82778" lon="5.91054">
        <ele>449.424</ele>
        <time>2020-09-02T15:54:24Z</time>
      </trkpt>
      <trkpt lat="43.82774" lon="5.91046">
        <ele>449.443</ele>
        <time>2020-09-02T15:54:25Z</time>
      </trkpt>
      <trkpt lat="43.8277" lon="5.91037">
        <ele>449.263</ele>
        <time>2020-09-02T15:54:26Z</time>
      </trkpt>
      <trkpt lat="43.82766" lon="5.91028">
        <ele>450.04</ele>
        <time>2020-09-02T15:54:27Z</time>
      </trkpt>
      <trkpt lat="43.82765" lon="5.91019">
        <ele>450.121</ele>
        <time>2020-09-02T15:54:28Z</time>
      </trkpt>
      <trkpt lat="43.82766" lon="5.91012">
        <ele>449.049</ele>
        <time>2020-09-02T15:54:29Z</time>
      </trkpt>
      <trkpt lat="43.82769" lon="5.91001">
        <ele>447.935</ele>
        <time>2020-09-02T15:54:30Z</time>
      </trkpt>
      <trkpt lat="43.8277" lon="5.90991">
        <ele>446.538</ele>
        <time>2020-09-02T15:54:31Z</time>
      </trkpt>
      <trkpt lat="43.82771" lon="5.90979">
        <ele>446.127</ele>
        <time>2020-09-02T15:54:32Z</time>
      </trkpt>
      <trkpt lat="43.82772" lon="5.90965">
        <ele>446.068</ele>
        <time>2020-09-02T15:54:33Z</time>
      </trkpt>
      <trkpt lat="43.82773" lon="5.90951">
        <ele>445.714</ele>
        <time>2020-09-02T15:54:34Z</time>
      </trkpt>
      <trkpt lat="43.82773" lon="5.90938">
        <ele>445.708</ele>
        <time>2020-09-02T15:54:35Z</time>
      </trkpt>
      <trkpt lat="43.82772" lon="5.90924">
        <ele>446.04</ele>
        <time>2020-09-02T15:54:36Z</time>
      </trkpt>
      <trkpt lat="43.82769" lon="5.9091">
        <ele>445.499</ele>
        <time>2020-09-02T15:54:37Z</time>
      </trkpt>
      <trkpt lat="43.82765" lon="5.90896">
        <ele>444.749</ele>
        <time>2020-09-02T15:54:38Z</time>
      </trkpt>
      <trkpt lat="43.82759" lon="5.90882">
        <ele>444.086</ele>
        <time>2020-09-02T15:54:39Z</time>
      </trkpt>
      <trkpt lat="43.82752" lon="5.90866">
        <ele>443.017</ele>
        <time>2020-09-02T15:54:40Z</time>
      </trkpt>
      <trkpt lat="43.82745" lon="5.90852">
        <ele>442.335</ele>
        <time>2020-09-02T15:54:41Z</time>
      </trkpt>
      <trkpt lat="43.82737" lon="5.90839">
        <ele>441.961</ele>
        <time>2020-09-02T15:54:42Z</time>
      </trkpt>
      <trkpt lat="43.82729" lon="5.90828">
        <ele>441.144</ele>
        <time>2020-09-02T15:54:43Z</time>
      </trkpt>
      <trkpt lat="43.82722" lon="5.90815">
        <ele>440.793</ele>
        <time>2020-09-02T15:54:44Z</time>
      </trkpt>
      <trkpt lat="43.82714" lon="5.90806">
        <ele>440.765</ele>
        <time>2020-09-02T15:54:45Z</time>
      </trkpt>
      <trkpt lat="43.82707" lon="5.90799">
        <ele>440.821</ele>
        <time>2020-09-02T15:54:46Z</time>
      </trkpt>
      <trkpt lat="43.827" lon="5.90795">
        <ele>440.308</ele>
        <time>2020-09-02T15:54:47Z</time>
      </trkpt>
      <trkpt lat="43.82693" lon="5.90792">
        <ele>440.547</ele>
        <time>2020-09-02T15:54:48Z</time>
      </trkpt>
      <trkpt lat="43.82687" lon="5.90787">
        <ele>441.166</ele>
        <time>2020-09-02T15:54:49Z</time>
      </trkpt>
      <trkpt lat="43.82682" lon="5.90782">
        <ele>441.116</ele>
        <time>2020-09-02T15:54:50Z</time>
      </trkpt>
      <trkpt lat="43.82678" lon="5.90775">
        <ele>441.683</ele>
        <time>2020-09-02T15:54:51Z</time>
      </trkpt>
      <trkpt lat="43.82675" lon="5.90767">
        <ele>441.954</ele>
        <time>2020-09-02T15:54:52Z</time>
      </trkpt>
      <trkpt lat="43.82674" lon="5.90756">
        <ele>442.282</ele>
        <time>2020-09-02T15:54:53Z</time>
      </trkpt>
      <trkpt lat="43.82673" lon="5.90742">
        <ele>442.118</ele>
        <time>2020-09-02T15:54:54Z</time>
      </trkpt>
      <trkpt lat="43.8267" lon="5.90728">
        <ele>440.841</ele>
        <time>2020-09-02T15:54:55Z</time>
      </trkpt>
      <trkpt lat="43.82666" lon="5.90713">
        <ele>440.328</ele>
        <time>2020-09-02T15:54:56Z</time>
      </trkpt>
      <trkpt lat="43.82662" lon="5.90698">
        <ele>439.789</ele>
        <time>2020-09-02T15:54:57Z</time>
      </trkpt>
      <trkpt lat="43.82657" lon="5.90683">
        <ele>439.717</ele>
        <time>2020-09-02T15:54:58Z</time>
      </trkpt>
      <trkpt lat="43.82652" lon="5.90667">
        <ele>439.608</ele>
        <time>2020-09-02T15:54:59Z</time>
      </trkpt>
      <trkpt lat="43.82647" lon="5.90654">
        <ele>439.05</ele>
        <time>2020-09-02T15:55:00Z</time>
      </trkpt>
      <trkpt lat="43.82641" lon="5.90641">
        <ele>438.579</ele>
        <time>2020-09-02T15:55:01Z</time>
      </trkpt>
      <trkpt lat="43.82635" lon="5.90628">
        <ele>438.169</ele>
        <time>2020-09-02T15:55:02Z</time>
      </trkpt>
      <trkpt lat="43.82629" lon="5.90615">
        <ele>438.396</ele>
        <time>2020-09-02T15:55:03Z</time>
      </trkpt>
      <trkpt lat="43.82623" lon="5.90602">
        <ele>438.097</ele>
        <time>2020-09-02T15:55:04Z</time>
      </trkpt>
      <trkpt lat="43.82618" lon="5.90589">
        <ele>438.565</ele>
        <time>2020-09-02T15:55:05Z</time>
      </trkpt>
      <trkpt lat="43.82613" lon="5.90576">
        <ele>437.941</ele>
        <time>2020-09-02T15:55:06Z</time>
      </trkpt>
      <trkpt lat="43.82605" lon="5.90566">
        <ele>437.664</ele>
        <time>2020-09-02T15:55:07Z</time>
      </trkpt>
      <trkpt lat="43.82598" lon="5.90557">
        <ele>437.318</ele>
        <time>2020-09-02T15:55:08Z</time>
      </trkpt>
      <trkpt lat="43.82592" lon="5.90548">
        <ele>437.198</ele>
        <time>2020-09-02T15:55:09Z</time>
      </trkpt>
      <trkpt lat="43.82587" lon="5.90537">
        <ele>436.717</ele>
        <time>2020-09-02T15:55:10Z</time>
      </trkpt>
      <trkpt lat="43.82582" lon="5.90524">
        <ele>436.908</ele>
        <time>2020-09-02T15:55:11Z</time>
      </trkpt>
      <trkpt lat="43.82577" lon="5.90513">
        <ele>436.699</ele>
        <time>2020-09-02T15:55:12Z</time>
      </trkpt>
      <trkpt lat="43.82571" lon="5.905">
        <ele>436.958</ele>
        <time>2020-09-02T15:55:13Z</time>
      </trkpt>
      <trkpt lat="43.82566" lon="5.90489">
        <ele>436.868</ele>
        <time>2020-09-02T15:55:14Z</time>
      </trkpt>
      <trkpt lat="43.82561" lon="5.90478">
        <ele>436.655</ele>
        <time>2020-09-02T15:55:15Z</time>
      </trkpt>
      <trkpt lat="43.82556" lon="5.90467">
        <ele>436.176</ele>
        <time>2020-09-02T15:55:16Z</time>
      </trkpt>
      <trkpt lat="43.82553" lon="5.90455">
        <ele>435.324</ele>
        <time>2020-09-02T15:55:17Z</time>
      </trkpt>
      <trkpt lat="43.8255" lon="5.90442">
        <ele>435.32</ele>
        <time>2020-09-02T15:55:18Z</time>
      </trkpt>
      <trkpt lat="43.82547" lon="5.90429">
        <ele>435.073</ele>
        <time>2020-09-02T15:55:19Z</time>
      </trkpt>
      <trkpt lat="43.82545" lon="5.90417">
        <ele>435.076</ele>
        <time>2020-09-02T15:55:20Z</time>
      </trkpt>
      <trkpt lat="43.82543" lon="5.90404">
        <ele>435.09</ele>
        <time>2020-09-02T15:55:21Z</time>
      </trkpt>
      <trkpt lat="43.82539" lon="5.9039">
        <ele>434.619</ele>
        <time>2020-09-02T15:55:22Z</time>
      </trkpt>
      <trkpt lat="43.82537" lon="5.90376">
        <ele>434.808</ele>
        <time>2020-09-02T15:55:23Z</time>
      </trkpt>
      <trkpt lat="43.82533" lon="5.90362">
        <ele>434.625</ele>
        <time>2020-09-02T15:55:24Z</time>
      </trkpt>
      <trkpt lat="43.82529" lon="5.90347">
        <ele>434.474</ele>
        <time>2020-09-02T15:55:25Z</time>
      </trkpt>
      <trkpt lat="43.82525" lon="5.90333">
        <ele>434.084</ele>
        <time>2020-09-02T15:55:26Z</time>
      </trkpt>
      <trkpt lat="43.8252" lon="5.90319">
        <ele>433.821</ele>
        <time>2020-09-02T15:55:27Z</time>
      </trkpt>
      <trkpt lat="43.82515" lon="5.90307">
        <ele>433.292</ele>
        <time>2020-09-02T15:55:28Z</time>
      </trkpt>
      <trkpt lat="43.82512" lon="5.90295">
        <ele>431.74</ele>
        <time>2020-09-02T15:55:29Z</time>
      </trkpt>
      <trkpt lat="43.82506" lon="5.90284">
        <ele>431.596</ele>
        <time>2020-09-02T15:55:30Z</time>
      </trkpt>
      <trkpt lat="43.82499" lon="5.90271">
        <ele>430.639</ele>
        <time>2020-09-02T15:55:31Z</time>
      </trkpt>
      <trkpt lat="43.82495" lon="5.9026">
        <ele>430.187</ele>
        <time>2020-09-02T15:55:32Z</time>
      </trkpt>
      <trkpt lat="43.82491" lon="5.90251">
        <ele>430.442</ele>
        <time>2020-09-02T15:55:33Z</time>
      </trkpt>
      <trkpt lat="43.82489" lon="5.90241">
        <ele>430.526</ele>
        <time>2020-09-02T15:55:34Z</time>
      </trkpt>
      <trkpt lat="43.82489" lon="5.90231">
        <ele>430.608</ele>
        <time>2020-09-02T15:55:35Z</time>
      </trkpt>
      <trkpt lat="43.82495" lon="5.90222">
        <ele>430.526</ele>
        <time>2020-09-02T15:55:36Z</time>
      </trkpt>
      <trkpt lat="43.82501" lon="5.90213">
        <ele>430.585</ele>
        <time>2020-09-02T15:55:37Z</time>
      </trkpt>
      <trkpt lat="43.82509" lon="5.90204">
        <ele>430.435</ele>
        <time>2020-09-02T15:55:38Z</time>
      </trkpt>
      <trkpt lat="43.82516" lon="5.90196">
        <ele>430.162</ele>
        <time>2020-09-02T15:55:39Z</time>
      </trkpt>
      <trkpt lat="43.82522" lon="5.90186">
        <ele>430.123</ele>
        <time>2020-09-02T15:55:40Z</time>
      </trkpt>
      <trkpt lat="43.82525" lon="5.90176">
        <ele>430.341</ele>
        <time>2020-09-02T15:55:41Z</time>
      </trkpt>
      <trkpt lat="43.82526" lon="5.90167">
        <ele>430.257</ele>
        <time>2020-09-02T15:55:42Z</time>
      </trkpt>
      <trkpt lat="43.82524" lon="5.90159">
        <ele>429.71</ele>
        <time>2020-09-02T15:55:43Z</time>
      </trkpt>
      <trkpt lat="43.82521" lon="5.90153">
        <ele>429.022</ele>
        <time>2020-09-02T15:55:44Z</time>
      </trkpt>
      <trkpt lat="43.82518" lon="5.90146">
        <ele>429.562</ele>
        <time>2020-09-02T15:55:45Z</time>
      </trkpt>
      <trkpt lat="43.82514" lon="5.90138">
        <ele>429.008</ele>
        <time>2020-09-02T15:55:46Z</time>
      </trkpt>
      <trkpt lat="43.82513" lon="5.90129">
        <ele>428.908</ele>
        <time>2020-09-02T15:55:47Z</time>
      </trkpt>
      <trkpt lat="43.82511" lon="5.90117">
        <ele>428.44</ele>
        <time>2020-09-02T15:55:48Z</time>
      </trkpt>
      <trkpt lat="43.8251" lon="5.90105">
        <ele>427.839</ele>
        <time>2020-09-02T15:55:49Z</time>
      </trkpt>
      <trkpt lat="43.82509" lon="5.90091">
        <ele>428.149</ele>
        <time>2020-09-02T15:55:50Z</time>
      </trkpt>
      <trkpt lat="43.82506" lon="5.90077">
        <ele>427.516</ele>
        <time>2020-09-02T15:55:51Z</time>
      </trkpt>
      <trkpt lat="43.82504" lon="5.90063">
        <ele>427.247</ele>
        <time>2020-09-02T15:55:52Z</time>
      </trkpt>
      <trkpt lat="43.82501" lon="5.90048">
        <ele>427.545</ele>
        <time>2020-09-02T15:55:53Z</time>
      </trkpt>
      <trkpt lat="43.82499" lon="5.90034">
        <ele>427.731</ele>
        <time>2020-09-02T15:55:54Z</time>
      </trkpt>
      <trkpt lat="43.82498" lon="5.90019">
        <ele>427.274</ele>
        <time>2020-09-02T15:55:55Z</time>
      </trkpt>
      <trkpt lat="43.82497" lon="5.90003">
        <ele>427.121</ele>
        <time>2020-09-02T15:55:56Z</time>
      </trkpt>
      <trkpt lat="43.82496" lon="5.89987">
        <ele>426.741</ele>
        <time>2020-09-02T15:55:57Z</time>
      </trkpt>
      <trkpt lat="43.82494" lon="5.89971">
        <ele>426.205</ele>
        <time>2020-09-02T15:55:58Z</time>
      </trkpt>
      <trkpt lat="43.82492" lon="5.89958">
        <ele>426.108</ele>
        <time>2020-09-02T15:55:59Z</time>
      </trkpt>
      <trkpt lat="43.82492" lon="5.89947">
        <ele>426.04</ele>
        <time>2020-09-02T15:56:00Z</time>
      </trkpt>
      <trkpt lat="43.82493" lon="5.89937">
        <ele>424.959</ele>
        <time>2020-09-02T15:56:01Z</time>
      </trkpt>
      <trkpt lat="43.82494" lon="5.89926">
        <ele>423.999</ele>
        <time>2020-09-02T15:56:02Z</time>
      </trkpt>
      <trkpt lat="43.82493" lon="5.89913">
        <ele>423.516</ele>
        <time>2020-09-02T15:56:03Z</time>
      </trkpt>
      <trkpt lat="43.82493" lon="5.89898">
        <ele>423.657</ele>
        <time>2020-09-02T15:56:04Z</time>
      </trkpt>
      <trkpt lat="43.82491" lon="5.89883">
        <ele>423.115</ele>
        <time>2020-09-02T15:56:05Z</time>
      </trkpt>
      <trkpt lat="43.82489" lon="5.89867">
        <ele>422.921</ele>
        <time>2020-09-02T15:56:06Z</time>
      </trkpt>
      <trkpt lat="43.82486" lon="5.89851">
        <ele>422.454</ele>
        <time>2020-09-02T15:56:07Z</time>
      </trkpt>
      <trkpt lat="43.82484" lon="5.89834">
        <ele>422.355</ele>
        <time>2020-09-02T15:56:08Z</time>
      </trkpt>
      <trkpt lat="43.82481" lon="5.89818">
        <ele>422.107</ele>
        <time>2020-09-02T15:56:09Z</time>
      </trkpt>
      <trkpt lat="43.82479" lon="5.89802">
        <ele>421.317</ele>
        <time>2020-09-02T15:56:10Z</time>
      </trkpt>
      <trkpt lat="43.82476" lon="5.89786">
        <ele>421.108</ele>
        <time>2020-09-02T15:56:11Z</time>
      </trkpt>
      <trkpt lat="43.82472" lon="5.89769">
        <ele>420.343</ele>
        <time>2020-09-02T15:56:12Z</time>
      </trkpt>
      <trkpt lat="43.82468" lon="5.89753">
        <ele>420.142</ele>
        <time>2020-09-02T15:56:13Z</time>
      </trkpt>
      <trkpt lat="43.82464" lon="5.89737">
        <ele>420.062</ele>
        <time>2020-09-02T15:56:14Z</time>
      </trkpt>
      <trkpt lat="43.8246" lon="5.89723">
        <ele>419.449</ele>
        <time>2020-09-02T15:56:15Z</time>
      </trkpt>
      <trkpt lat="43.82454" lon="5.89711">
        <ele>418.85</ele>
        <time>2020-09-02T15:56:16Z</time>
      </trkpt>
      <trkpt lat="43.82447" lon="5.89698">
        <ele>418.458</ele>
        <time>2020-09-02T15:56:17Z</time>
      </trkpt>
      <trkpt lat="43.82441" lon="5.89684">
        <ele>417.754</ele>
        <time>2020-09-02T15:56:18Z</time>
      </trkpt>
      <trkpt lat="43.82435" lon="5.89669">
        <ele>417.517</ele>
        <time>2020-09-02T15:56:19Z</time>
      </trkpt>
      <trkpt lat="43.8243" lon="5.89656">
        <ele>417.271</ele>
        <time>2020-09-02T15:56:20Z</time>
      </trkpt>
      <trkpt lat="43.82423" lon="5.89643">
        <ele>417.141</ele>
        <time>2020-09-02T15:56:21Z</time>
      </trkpt>
      <trkpt lat="43.82416" lon="5.89631">
        <ele>416.515</ele>
        <time>2020-09-02T15:56:22Z</time>
      </trkpt>
      <trkpt lat="43.82409" lon="5.8962">
        <ele>415.108</ele>
        <time>2020-09-02T15:56:23Z</time>
      </trkpt>
      <trkpt lat="43.82402" lon="5.89611">
        <ele>414.485</ele>
        <time>2020-09-02T15:56:24Z</time>
      </trkpt>
      <trkpt lat="43.82395" lon="5.89601">
        <ele>413.944</ele>
        <time>2020-09-02T15:56:25Z</time>
      </trkpt>
      <trkpt lat="43.82391" lon="5.8959">
        <ele>413.624</ele>
        <time>2020-09-02T15:56:26Z</time>
      </trkpt>
      <trkpt lat="43.82389" lon="5.89579">
        <ele>413.941</ele>
        <time>2020-09-02T15:56:27Z</time>
      </trkpt>
      <trkpt lat="43.82389" lon="5.89567">
        <ele>413.642</ele>
        <time>2020-09-02T15:56:28Z</time>
      </trkpt>
      <trkpt lat="43.82391" lon="5.89553">
        <ele>413.83</ele>
        <time>2020-09-02T15:56:29Z</time>
      </trkpt>
      <trkpt lat="43.82394" lon="5.89538">
        <ele>413.646</ele>
        <time>2020-09-02T15:56:30Z</time>
      </trkpt>
      <trkpt lat="43.82398" lon="5.89522">
        <ele>413.059</ele>
        <time>2020-09-02T15:56:31Z</time>
      </trkpt>
      <trkpt lat="43.82402" lon="5.89504">
        <ele>412.497</ele>
        <time>2020-09-02T15:56:32Z</time>
      </trkpt>
      <trkpt lat="43.82407" lon="5.89486">
        <ele>412.923</ele>
        <time>2020-09-02T15:56:33Z</time>
      </trkpt>
      <trkpt lat="43.8241" lon="5.89469">
        <ele>413.125</ele>
        <time>2020-09-02T15:56:34Z</time>
      </trkpt>
      <trkpt lat="43.82411" lon="5.89454">
        <ele>413.008</ele>
        <time>2020-09-02T15:56:35Z</time>
      </trkpt>
      <trkpt lat="43.82413" lon="5.89438">
        <ele>412.537</ele>
        <time>2020-09-02T15:56:36Z</time>
      </trkpt>
      <trkpt lat="43.82413" lon="5.8942">
        <ele>412.616</ele>
        <time>2020-09-02T15:56:37Z</time>
      </trkpt>
      <trkpt lat="43.82414" lon="5.894">
        <ele>412.616</ele>
        <time>2020-09-02T15:56:38Z</time>
      </trkpt>
      <trkpt lat="43.82413" lon="5.89379">
        <ele>411.973</ele>
        <time>2020-09-02T15:56:39Z</time>
      </trkpt>
      <trkpt lat="43.82413" lon="5.89359">
        <ele>411.144</ele>
        <time>2020-09-02T15:56:40Z</time>
      </trkpt>
      <trkpt lat="43.82412" lon="5.8934">
        <ele>410.352</ele>
        <time>2020-09-02T15:56:41Z</time>
      </trkpt>
      <trkpt lat="43.82412" lon="5.89323">
        <ele>409.968</ele>
        <time>2020-09-02T15:56:42Z</time>
      </trkpt>
      <trkpt lat="43.8241" lon="5.89305">
        <ele>409.281</ele>
        <time>2020-09-02T15:56:43Z</time>
      </trkpt>
      <trkpt lat="43.82407" lon="5.89288">
        <ele>408.839</ele>
        <time>2020-09-02T15:56:44Z</time>
      </trkpt>
      <trkpt lat="43.82404" lon="5.89273">
        <ele>408.201</ele>
        <time>2020-09-02T15:56:45Z</time>
      </trkpt>
      <trkpt lat="43.82402" lon="5.89257">
        <ele>407.721</ele>
        <time>2020-09-02T15:56:46Z</time>
      </trkpt>
      <trkpt lat="43.824" lon="5.89241">
        <ele>407.708</ele>
        <time>2020-09-02T15:56:47Z</time>
      </trkpt>
      <trkpt lat="43.82398" lon="5.89224">
        <ele>407.271</ele>
        <time>2020-09-02T15:56:48Z</time>
      </trkpt>
      <trkpt lat="43.82398" lon="5.89209">
        <ele>406.49</ele>
        <time>2020-09-02T15:56:49Z</time>
      </trkpt>
      <trkpt lat="43.82398" lon="5.89194">
        <ele>405.94</ele>
        <time>2020-09-02T15:56:50Z</time>
      </trkpt>
      <trkpt lat="43.824" lon="5.89177">
        <ele>405.027</ele>
        <time>2020-09-02T15:56:51Z</time>
      </trkpt>
      <trkpt lat="43.82401" lon="5.89161">
        <ele>404.318</ele>
        <time>2020-09-02T15:56:52Z</time>
      </trkpt>
      <trkpt lat="43.82402" lon="5.89144">
        <ele>404.266</ele>
        <time>2020-09-02T15:56:53Z</time>
      </trkpt>
      <trkpt lat="43.82404" lon="5.89127">
        <ele>403.932</ele>
        <time>2020-09-02T15:56:54Z</time>
      </trkpt>
      <trkpt lat="43.82406" lon="5.89114">
        <ele>403.855</ele>
        <time>2020-09-02T15:56:55Z</time>
      </trkpt>
      <trkpt lat="43.82408" lon="5.89098">
        <ele>402.826</ele>
        <time>2020-09-02T15:56:56Z</time>
      </trkpt>
      <trkpt lat="43.82409" lon="5.89082">
        <ele>402.047</ele>
        <time>2020-09-02T15:56:57Z</time>
      </trkpt>
      <trkpt lat="43.82408" lon="5.89062">
        <ele>401.711</ele>
        <time>2020-09-02T15:56:58Z</time>
      </trkpt>
      <trkpt lat="43.82407" lon="5.89045">
        <ele>401.908</ele>
        <time>2020-09-02T15:56:59Z</time>
      </trkpt>
      <trkpt lat="43.82406" lon="5.89026">
        <ele>401.79</ele>
        <time>2020-09-02T15:57:00Z</time>
      </trkpt>
      <trkpt lat="43.82405" lon="5.89007">
        <ele>401.399</ele>
        <time>2020-09-02T15:57:01Z</time>
      </trkpt>
      <trkpt lat="43.82404" lon="5.88988">
        <ele>400.729</ele>
        <time>2020-09-02T15:57:02Z</time>
      </trkpt>
      <trkpt lat="43.82403" lon="5.88968">
        <ele>400.436</ele>
        <time>2020-09-02T15:57:03Z</time>
      </trkpt>
      <trkpt lat="43.82402" lon="5.8895">
        <ele>399.997</ele>
        <time>2020-09-02T15:57:04Z</time>
      </trkpt>
      <trkpt lat="43.82401" lon="5.88933">
        <ele>400.115</ele>
        <time>2020-09-02T15:57:05Z</time>
      </trkpt>
      <trkpt lat="43.82401" lon="5.88917">
        <ele>399.721</ele>
        <time>2020-09-02T15:57:06Z</time>
      </trkpt>
      <trkpt lat="43.82401" lon="5.88904">
        <ele>399.644</ele>
        <time>2020-09-02T15:57:07Z</time>
      </trkpt>
      <trkpt lat="43.82402" lon="5.88889">
        <ele>399.567</ele>
        <time>2020-09-02T15:57:08Z</time>
      </trkpt>
      <trkpt lat="43.82406" lon="5.88876">
        <ele>398.981</ele>
        <time>2020-09-02T15:57:09Z</time>
      </trkpt>
      <trkpt lat="43.82409" lon="5.88864">
        <ele>398.419</ele>
        <time>2020-09-02T15:57:10Z</time>
      </trkpt>
      <trkpt lat="43.82414" lon="5.8885">
        <ele>398.808</ele>
        <time>2020-09-02T15:57:11Z</time>
      </trkpt>
      <trkpt lat="43.82418" lon="5.88838">
        <ele>398.674</ele>
        <time>2020-09-02T15:57:12Z</time>
      </trkpt>
      <trkpt lat="43.82422" lon="5.88827">
        <ele>398.113</ele>
        <time>2020-09-02T15:57:13Z</time>
      </trkpt>
      <trkpt lat="43.82426" lon="5.88818">
        <ele>398.423</ele>
        <time>2020-09-02T15:57:14Z</time>
      </trkpt>
      <trkpt lat="43.82428" lon="5.88808">
        <ele>399.03</ele>
        <time>2020-09-02T15:57:15Z</time>
      </trkpt>
      <trkpt lat="43.82429" lon="5.88798">
        <ele>399.131</ele>
        <time>2020-09-02T15:57:16Z</time>
      </trkpt>
      <trkpt lat="43.82429" lon="5.88788">
        <ele>399.259</ele>
        <time>2020-09-02T15:57:17Z</time>
      </trkpt>
      <trkpt lat="43.82429" lon="5.88779">
        <ele>398.715</ele>
        <time>2020-09-02T15:57:18Z</time>
      </trkpt>
      <trkpt lat="43.82427" lon="5.88772">
        <ele>398.058</ele>
        <time>2020-09-02T15:57:19Z</time>
      </trkpt>
      <trkpt lat="43.82427" lon="5.88761">
        <ele>397.175</ele>
        <time>2020-09-02T15:57:21Z</time>
      </trkpt>
      <trkpt lat="43.82427" lon="5.88755">
        <ele>396.728</ele>
        <time>2020-09-02T15:57:23Z</time>
      </trkpt>
      <trkpt lat="43.82422" lon="5.88752">
        <ele>397.72</ele>
        <time>2020-09-02T15:57:33Z</time>
      </trkpt>
      <trkpt lat="43.82412" lon="5.88753">
        <ele>398.708</ele>
        <time>2020-09-02T15:57:35Z</time>
      </trkpt>
      <trkpt lat="43.82407" lon="5.88756">
        <ele>399.455</ele>
        <time>2020-09-02T15:57:36Z</time>
      </trkpt>
      <trkpt lat="43.824" lon="5.88758">
        <ele>400.684</ele>
        <time>2020-09-02T15:57:37Z</time>
      </trkpt>
      <trkpt lat="43.82394" lon="5.88761">
        <ele>401.114</ele>
        <time>2020-09-02T15:57:38Z</time>
      </trkpt>
      <trkpt lat="43.82386" lon="5.88763">
        <ele>401.381</ele>
        <time>2020-09-02T15:57:39Z</time>
      </trkpt>
      <trkpt lat="43.8238" lon="5.88767">
        <ele>400.472</ele>
        <time>2020-09-02T15:57:40Z</time>
      </trkpt>
      <trkpt lat="43.82373" lon="5.8877">
        <ele>401.91</ele>
        <time>2020-09-02T15:57:41Z</time>
      </trkpt>
      <trkpt lat="43.82367" lon="5.88771">
        <ele>402.086</ele>
        <time>2020-09-02T15:57:42Z</time>
      </trkpt>
      <trkpt lat="43.82361" lon="5.88771">
        <ele>402.859</ele>
        <time>2020-09-02T15:57:43Z</time>
      </trkpt>
      <trkpt lat="43.82356" lon="5.88772">
        <ele>403.288</ele>
        <time>2020-09-02T15:57:44Z</time>
      </trkpt>
      <trkpt lat="43.8235" lon="5.88774">
        <ele>403.524</ele>
        <time>2020-09-02T15:57:45Z</time>
      </trkpt>
      <trkpt lat="43.82345" lon="5.88775">
        <ele>403.826</ele>
        <time>2020-09-02T15:57:46Z</time>
      </trkpt>
      <trkpt lat="43.8234" lon="5.88776">
        <ele>404.808</ele>
        <time>2020-09-02T15:57:47Z</time>
      </trkpt>
      <trkpt lat="43.82331" lon="5.88769">
        <ele>407.366</ele>
        <time>2020-09-02T15:57:49Z</time>
      </trkpt>
      <trkpt lat="43.82326" lon="5.88765">
        <ele>408.535</ele>
        <time>2020-09-02T15:57:50Z</time>
      </trkpt>
      <trkpt lat="43.82323" lon="5.88758">
        <ele>411.195</ele>
        <time>2020-09-02T15:57:51Z</time>
      </trkpt>
      <trkpt lat="43.82319" lon="5.88752">
        <ele>412.982</ele>
        <time>2020-09-02T15:57:52Z</time>
      </trkpt>
      <trkpt lat="43.82316" lon="5.88745">
        <ele>414.653</ele>
        <time>2020-09-02T15:57:53Z</time>
      </trkpt>
      <trkpt lat="43.82312" lon="5.88737">
        <ele>416.411</ele>
        <time>2020-09-02T15:57:54Z</time>
      </trkpt>
      <trkpt lat="43.82307" lon="5.8873">
        <ele>417.887</ele>
        <time>2020-09-02T15:57:55Z</time>
      </trkpt>
      <trkpt lat="43.82302" lon="5.88724">
        <ele>419.45</ele>
        <time>2020-09-02T15:57:56Z</time>
      </trkpt>
      <trkpt lat="43.82296" lon="5.88718">
        <ele>422.262</ele>
        <time>2020-09-02T15:57:57Z</time>
      </trkpt>
      <trkpt lat="43.8229" lon="5.88714">
        <ele>424.983</ele>
        <time>2020-09-02T15:57:58Z</time>
      </trkpt>
      <trkpt lat="43.82283" lon="5.8871">
        <ele>427.211</ele>
        <time>2020-09-02T15:57:59Z</time>
      </trkpt>
      <trkpt lat="43.82276" lon="5.88708">
        <ele>428.508</ele>
        <time>2020-09-02T15:58:00Z</time>
      </trkpt>
      <trkpt lat="43.8227" lon="5.88706">
        <ele>430.354</ele>
        <time>2020-09-02T15:58:01Z</time>
      </trkpt>
      <trkpt lat="43.82266" lon="5.88701">
        <ele>431.353</ele>
        <time>2020-09-02T15:58:02Z</time>
      </trkpt>
      <trkpt lat="43.82262" lon="5.88696">
        <ele>432.033</ele>
        <time>2020-09-02T15:58:03Z</time>
      </trkpt>
      <trkpt lat="43.82259" lon="5.88692">
        <ele>433.29</ele>
        <time>2020-09-02T15:58:04Z</time>
      </trkpt>
      <trkpt lat="43.82254" lon="5.88689">
        <ele>434.661</ele>
        <time>2020-09-02T15:58:05Z</time>
      </trkpt>
      <trkpt lat="43.82249" lon="5.88686">
        <ele>435.849</ele>
        <time>2020-09-02T15:58:06Z</time>
      </trkpt>
      <trkpt lat="43.82243" lon="5.88682">
        <ele>437.245</ele>
        <time>2020-09-02T15:58:07Z</time>
      </trkpt>
      <trkpt lat="43.82238" lon="5.88676">
        <ele>438.198</ele>
        <time>2020-09-02T15:58:08Z</time>
      </trkpt>
      <trkpt lat="43.82233" lon="5.8867">
        <ele>439.234</ele>
        <time>2020-09-02T15:58:09Z</time>
      </trkpt>
      <trkpt lat="43.82227" lon="5.88666">
        <ele>440.155</ele>
        <time>2020-09-02T15:58:10Z</time>
      </trkpt>
      <trkpt lat="43.82219" lon="5.88662">
        <ele>440.51</ele>
        <time>2020-09-02T15:58:11Z</time>
      </trkpt>
      <trkpt lat="43.8221" lon="5.88659">
        <ele>442.608</ele>
        <time>2020-09-02T15:58:12Z</time>
      </trkpt>
      <trkpt lat="43.822" lon="5.88656">
        <ele>444.661</ele>
        <time>2020-09-02T15:58:13Z</time>
      </trkpt>
      <trkpt lat="43.8219" lon="5.88652">
        <ele>446.62</ele>
        <time>2020-09-02T15:58:14Z</time>
      </trkpt>
      <trkpt lat="43.82179" lon="5.88648">
        <ele>448.47</ele>
        <time>2020-09-02T15:58:15Z</time>
      </trkpt>
      <trkpt lat="43.82168" lon="5.88645">
        <ele>450.317</ele>
        <time>2020-09-02T15:58:16Z</time>
      </trkpt>
      <trkpt lat="43.8216" lon="5.88643">
        <ele>451.888</ele>
        <time>2020-09-02T15:58:17Z</time>
      </trkpt>
      <trkpt lat="43.82152" lon="5.8864">
        <ele>454.996</ele>
        <time>2020-09-02T15:58:18Z</time>
      </trkpt>
      <trkpt lat="43.82144" lon="5.88638">
        <ele>457.182</ele>
        <time>2020-09-02T15:58:19Z</time>
      </trkpt>
      <trkpt lat="43.82137" lon="5.88635">
        <ele>459.075</ele>
        <time>2020-09-02T15:58:20Z</time>
      </trkpt>
      <trkpt lat="43.82129" lon="5.88632">
        <ele>461.079</ele>
        <time>2020-09-02T15:58:21Z</time>
      </trkpt>
      <trkpt lat="43.82123" lon="5.8863">
        <ele>462.305</ele>
        <time>2020-09-02T15:58:22Z</time>
      </trkpt>
      <trkpt lat="43.82116" lon="5.88621">
        <ele>464.325</ele>
        <time>2020-09-02T15:58:24Z</time>
      </trkpt>
      <trkpt lat="43.82113" lon="5.88616">
        <ele>465.508</ele>
        <time>2020-09-02T15:58:25Z</time>
      </trkpt>
      <trkpt lat="43.82107" lon="5.88615">
        <ele>466.285</ele>
        <time>2020-09-02T15:58:26Z</time>
      </trkpt>
      <trkpt lat="43.82102" lon="5.88616">
        <ele>467.014</ele>
        <time>2020-09-02T15:58:27Z</time>
      </trkpt>
      <trkpt lat="43.82095" lon="5.88618">
        <ele>467.314</ele>
        <time>2020-09-02T15:58:28Z</time>
      </trkpt>
      <trkpt lat="43.82088" lon="5.88619">
        <ele>467.921</ele>
        <time>2020-09-02T15:58:29Z</time>
      </trkpt>
      <trkpt lat="43.8208" lon="5.88619">
        <ele>468.312</ele>
        <time>2020-09-02T15:58:30Z</time>
      </trkpt>
      <trkpt lat="43.82071" lon="5.88619">
        <ele>469.23</ele>
        <time>2020-09-02T15:58:31Z</time>
      </trkpt>
      <trkpt lat="43.82063" lon="5.88618">
        <ele>469.796</ele>
        <time>2020-09-02T15:58:32Z</time>
      </trkpt>
      <trkpt lat="43.82056" lon="5.88618">
        <ele>470.269</ele>
        <time>2020-09-02T15:58:33Z</time>
      </trkpt>
      <trkpt lat="43.82049" lon="5.88615">
        <ele>471.082</ele>
        <time>2020-09-02T15:58:34Z</time>
      </trkpt>
      <trkpt lat="43.82043" lon="5.8861">
        <ele>471.343</ele>
        <time>2020-09-02T15:58:35Z</time>
      </trkpt>
      <trkpt lat="43.82037" lon="5.88604">
        <ele>471.917</ele>
        <time>2020-09-02T15:58:36Z</time>
      </trkpt>
      <trkpt lat="43.8203" lon="5.88599">
        <ele>472.908</ele>
        <time>2020-09-02T15:58:37Z</time>
      </trkpt>
      <trkpt lat="43.82024" lon="5.88595">
        <ele>473.316</ele>
        <time>2020-09-02T15:58:38Z</time>
      </trkpt>
      <trkpt lat="43.82019" lon="5.88591">
        <ele>473.425</ele>
        <time>2020-09-02T15:58:39Z</time>
      </trkpt>
      <trkpt lat="43.82012" lon="5.88588">
        <ele>474.565</ele>
        <time>2020-09-02T15:58:41Z</time>
      </trkpt>
      <trkpt lat="43.82008" lon="5.88585">
        <ele>477.692</ele>
        <time>2020-09-02T15:58:50Z</time>
      </trkpt>
      <trkpt lat="43.82003" lon="5.88578">
        <ele>478.343</ele>
        <time>2020-09-02T15:59:27Z</time>
      </trkpt>
      <trkpt lat="43.81998" lon="5.88575">
        <ele>478.241</ele>
        <time>2020-09-02T15:59:28Z</time>
      </trkpt>
      <trkpt lat="43.81992" lon="5.88574">
        <ele>478.457</ele>
        <time>2020-09-02T15:59:29Z</time>
      </trkpt>
      <trkpt lat="43.81983" lon="5.88574">
        <ele>478.37</ele>
        <time>2020-09-02T15:59:30Z</time>
      </trkpt>
      <trkpt lat="43.81974" lon="5.88574">
        <ele>478.762</ele>
        <time>2020-09-02T15:59:31Z</time>
      </trkpt>
      <trkpt lat="43.81965" lon="5.88572">
        <ele>479.583</ele>
        <time>2020-09-02T15:59:32Z</time>
      </trkpt>
      <trkpt lat="43.81954" lon="5.88571">
        <ele>480.211</ele>
        <time>2020-09-02T15:59:33Z</time>
      </trkpt>
      <trkpt lat="43.81945" lon="5.88569">
        <ele>481.008</ele>
        <time>2020-09-02T15:59:34Z</time>
      </trkpt>
      <trkpt lat="43.81936" lon="5.88567">
        <ele>482.114</ele>
        <time>2020-09-02T15:59:35Z</time>
      </trkpt>
      <trkpt lat="43.81929" lon="5.88568">
        <ele>482.753</ele>
        <time>2020-09-02T15:59:36Z</time>
      </trkpt>
      <trkpt lat="43.81924" lon="5.88571">
        <ele>482.883</ele>
        <time>2020-09-02T15:59:37Z</time>
      </trkpt>
      <trkpt lat="43.81919" lon="5.88575">
        <ele>483.34</ele>
        <time>2020-09-02T15:59:38Z</time>
      </trkpt>
      <trkpt lat="43.81915" lon="5.8858">
        <ele>483.681</ele>
        <time>2020-09-02T15:59:39Z</time>
      </trkpt>
      <trkpt lat="43.81913" lon="5.88588">
        <ele>483.919</ele>
        <time>2020-09-02T15:59:40Z</time>
      </trkpt>
      <trkpt lat="43.81912" lon="5.88596">
        <ele>483.625</ele>
        <time>2020-09-02T15:59:41Z</time>
      </trkpt>
      <trkpt lat="43.8191" lon="5.88607">
        <ele>483.718</ele>
        <time>2020-09-02T15:59:42Z</time>
      </trkpt>
      <trkpt lat="43.81909" lon="5.8862">
        <ele>484.147</ele>
        <time>2020-09-02T15:59:43Z</time>
      </trkpt>
      <trkpt lat="43.81906" lon="5.88634">
        <ele>484.529</ele>
        <time>2020-09-02T15:59:44Z</time>
      </trkpt>
      <trkpt lat="43.81903" lon="5.88648">
        <ele>485.121</ele>
        <time>2020-09-02T15:59:45Z</time>
      </trkpt>
      <trkpt lat="43.81901" lon="5.88662">
        <ele>485.408</ele>
        <time>2020-09-02T15:59:46Z</time>
      </trkpt>
      <trkpt lat="43.81894" lon="5.88674">
        <ele>485.962</ele>
        <time>2020-09-02T15:59:47Z</time>
      </trkpt>
      <trkpt lat="43.81888" lon="5.88687">
        <ele>486.321</ele>
        <time>2020-09-02T15:59:48Z</time>
      </trkpt>
      <trkpt lat="43.81883" lon="5.88699">
        <ele>486.651</ele>
        <time>2020-09-02T15:59:49Z</time>
      </trkpt>
      <trkpt lat="43.81878" lon="5.88711">
        <ele>486.988</ele>
        <time>2020-09-02T15:59:50Z</time>
      </trkpt>
      <trkpt lat="43.81874" lon="5.88723">
        <ele>487.049</ele>
        <time>2020-09-02T15:59:51Z</time>
      </trkpt>
      <trkpt lat="43.81871" lon="5.88734">
        <ele>487.367</ele>
        <time>2020-09-02T15:59:52Z</time>
      </trkpt>
      <trkpt lat="43.81868" lon="5.88746">
        <ele>487.423</ele>
        <time>2020-09-02T15:59:53Z</time>
      </trkpt>
      <trkpt lat="43.81865" lon="5.88759">
        <ele>487.586</ele>
        <time>2020-09-02T15:59:54Z</time>
      </trkpt>
      <trkpt lat="43.81862" lon="5.88774">
        <ele>488.017</ele>
        <time>2020-09-02T15:59:55Z</time>
      </trkpt>
      <trkpt lat="43.81858" lon="5.88789">
        <ele>488.087</ele>
        <time>2020-09-02T15:59:56Z</time>
      </trkpt>
      <trkpt lat="43.81854" lon="5.88801">
        <ele>488.215</ele>
        <time>2020-09-02T15:59:57Z</time>
      </trkpt>
      <trkpt lat="43.8185" lon="5.88815">
        <ele>487.908</ele>
        <time>2020-09-02T15:59:58Z</time>
      </trkpt>
      <trkpt lat="43.81846" lon="5.88828">
        <ele>487.859</ele>
        <time>2020-09-02T15:59:59Z</time>
      </trkpt>
      <trkpt lat="43.81838" lon="5.8884">
        <ele>488.798</ele>
        <time>2020-09-02T16:00:00Z</time>
      </trkpt>
      <trkpt lat="43.81829" lon="5.88852">
        <ele>488.338</ele>
        <time>2020-09-02T16:00:01Z</time>
      </trkpt>
      <trkpt lat="43.81822" lon="5.88864">
        <ele>488.425</ele>
        <time>2020-09-02T16:00:02Z</time>
      </trkpt>
      <trkpt lat="43.81815" lon="5.88876">
        <ele>488.686</ele>
        <time>2020-09-02T16:00:03Z</time>
      </trkpt>
      <trkpt lat="43.81808" lon="5.88887">
        <ele>488.894</ele>
        <time>2020-09-02T16:00:04Z</time>
      </trkpt>
      <trkpt lat="43.818" lon="5.88897">
        <ele>489.45</ele>
        <time>2020-09-02T16:00:05Z</time>
      </trkpt>
      <trkpt lat="43.81792" lon="5.88907">
        <ele>489.773</ele>
        <time>2020-09-02T16:00:06Z</time>
      </trkpt>
      <trkpt lat="43.81784" lon="5.88917">
        <ele>490.048</ele>
        <time>2020-09-02T16:00:07Z</time>
      </trkpt>
      <trkpt lat="43.81776" lon="5.88927">
        <ele>490.361</ele>
        <time>2020-09-02T16:00:08Z</time>
      </trkpt>
      <trkpt lat="43.81767" lon="5.88934">
        <ele>490.517</ele>
        <time>2020-09-02T16:00:09Z</time>
      </trkpt>
      <trkpt lat="43.81758" lon="5.8894">
        <ele>490.908</ele>
        <time>2020-09-02T16:00:10Z</time>
      </trkpt>
      <trkpt lat="43.81751" lon="5.88949">
        <ele>491.242</ele>
        <time>2020-09-02T16:00:11Z</time>
      </trkpt>
      <trkpt lat="43.81744" lon="5.88957">
        <ele>491.251</ele>
        <time>2020-09-02T16:00:12Z</time>
      </trkpt>
      <trkpt lat="43.81737" lon="5.88966">
        <ele>491.691</ele>
        <time>2020-09-02T16:00:13Z</time>
      </trkpt>
      <trkpt lat="43.8173" lon="5.88975">
        <ele>490.938</ele>
        <time>2020-09-02T16:00:14Z</time>
      </trkpt>
      <trkpt lat="43.81725" lon="5.88984">
        <ele>490.799</ele>
        <time>2020-09-02T16:00:15Z</time>
      </trkpt>
      <trkpt lat="43.81719" lon="5.88993">
        <ele>490.827</ele>
        <time>2020-09-02T16:00:16Z</time>
      </trkpt>
      <trkpt lat="43.81713" lon="5.89002">
        <ele>491.073</ele>
        <time>2020-09-02T16:00:17Z</time>
      </trkpt>
      <trkpt lat="43.81708" lon="5.89011">
        <ele>491.596</ele>
        <time>2020-09-02T16:00:18Z</time>
      </trkpt>
      <trkpt lat="43.81702" lon="5.89019">
        <ele>491.663</ele>
        <time>2020-09-02T16:00:19Z</time>
      </trkpt>
      <trkpt lat="43.81696" lon="5.89029">
        <ele>491.344</ele>
        <time>2020-09-02T16:00:20Z</time>
      </trkpt>
      <trkpt lat="43.81688" lon="5.89038">
        <ele>491.618</ele>
        <time>2020-09-02T16:00:21Z</time>
      </trkpt>
      <trkpt lat="43.8168" lon="5.89049">
        <ele>489.208</ele>
        <time>2020-09-02T16:00:22Z</time>
      </trkpt>
      <trkpt lat="43.8167" lon="5.89058">
        <ele>488.764</ele>
        <time>2020-09-02T16:00:23Z</time>
      </trkpt>
      <trkpt lat="43.81661" lon="5.89066">
        <ele>488.643</ele>
        <time>2020-09-02T16:00:24Z</time>
      </trkpt>
      <trkpt lat="43.81654" lon="5.89074">
        <ele>488.753</ele>
        <time>2020-09-02T16:00:25Z</time>
      </trkpt>
      <trkpt lat="43.81646" lon="5.8908">
        <ele>489.23</ele>
        <time>2020-09-02T16:00:26Z</time>
      </trkpt>
      <trkpt lat="43.81639" lon="5.89088">
        <ele>489.231</ele>
        <time>2020-09-02T16:00:27Z</time>
      </trkpt>
      <trkpt lat="43.81631" lon="5.89097">
        <ele>489.689</ele>
        <time>2020-09-02T16:00:28Z</time>
      </trkpt>
      <trkpt lat="43.81622" lon="5.89108">
        <ele>489.755</ele>
        <time>2020-09-02T16:00:29Z</time>
      </trkpt>
      <trkpt lat="43.81613" lon="5.89119">
        <ele>490.038</ele>
        <time>2020-09-02T16:00:30Z</time>
      </trkpt>
      <trkpt lat="43.81604" lon="5.89129">
        <ele>489.798</ele>
        <time>2020-09-02T16:00:31Z</time>
      </trkpt>
      <trkpt lat="43.81595" lon="5.8914">
        <ele>490.915</ele>
        <time>2020-09-02T16:00:32Z</time>
      </trkpt>
      <trkpt lat="43.81586" lon="5.89151">
        <ele>491.826</ele>
        <time>2020-09-02T16:00:33Z</time>
      </trkpt>
      <trkpt lat="43.81577" lon="5.8916">
        <ele>492.608</ele>
        <time>2020-09-02T16:00:34Z</time>
      </trkpt>
      <trkpt lat="43.81568" lon="5.89168">
        <ele>494.057</ele>
        <time>2020-09-02T16:00:35Z</time>
      </trkpt>
      <trkpt lat="43.81562" lon="5.89176">
        <ele>494.466</ele>
        <time>2020-09-02T16:00:36Z</time>
      </trkpt>
      <trkpt lat="43.81558" lon="5.89184">
        <ele>495.156</ele>
        <time>2020-09-02T16:00:37Z</time>
      </trkpt>
      <trkpt lat="43.81553" lon="5.8919">
        <ele>495.583</ele>
        <time>2020-09-02T16:00:38Z</time>
      </trkpt>
      <trkpt lat="43.81546" lon="5.89193">
        <ele>496.224</ele>
        <time>2020-09-02T16:00:39Z</time>
      </trkpt>
      <trkpt lat="43.81538" lon="5.89194">
        <ele>496.282</ele>
        <time>2020-09-02T16:00:40Z</time>
      </trkpt>
      <trkpt lat="43.81529" lon="5.89192">
        <ele>497.268</ele>
        <time>2020-09-02T16:00:41Z</time>
      </trkpt>
      <trkpt lat="43.8152" lon="5.89192">
        <ele>497.421</ele>
        <time>2020-09-02T16:00:42Z</time>
      </trkpt>
      <trkpt lat="43.81511" lon="5.89193">
        <ele>497.723</ele>
        <time>2020-09-02T16:00:43Z</time>
      </trkpt>
      <trkpt lat="43.81501" lon="5.89198">
        <ele>498.283</ele>
        <time>2020-09-02T16:00:44Z</time>
      </trkpt>
      <trkpt lat="43.81492" lon="5.89204">
        <ele>498.611</ele>
        <time>2020-09-02T16:00:45Z</time>
      </trkpt>
      <trkpt lat="43.81484" lon="5.89211">
        <ele>499.308</ele>
        <time>2020-09-02T16:00:46Z</time>
      </trkpt>
      <trkpt lat="43.81476" lon="5.8922">
        <ele>500.16</ele>
        <time>2020-09-02T16:00:47Z</time>
      </trkpt>
      <trkpt lat="43.81468" lon="5.89228">
        <ele>500.999</ele>
        <time>2020-09-02T16:00:48Z</time>
      </trkpt>
      <trkpt lat="43.81461" lon="5.89235">
        <ele>501.469</ele>
        <time>2020-09-02T16:00:49Z</time>
      </trkpt>
      <trkpt lat="43.81455" lon="5.89237">
        <ele>501.896</ele>
        <time>2020-09-02T16:00:50Z</time>
      </trkpt>
      <trkpt lat="43.8145" lon="5.89233">
        <ele>502.667</ele>
        <time>2020-09-02T16:00:51Z</time>
      </trkpt>
      <trkpt lat="43.81446" lon="5.89226">
        <ele>503.055</ele>
        <time>2020-09-02T16:00:52Z</time>
      </trkpt>
      <trkpt lat="43.81442" lon="5.89217">
        <ele>503.741</ele>
        <time>2020-09-02T16:00:53Z</time>
      </trkpt>
      <trkpt lat="43.81437" lon="5.89209">
        <ele>503.794</ele>
        <time>2020-09-02T16:00:54Z</time>
      </trkpt>
      <trkpt lat="43.81433" lon="5.89206">
        <ele>503.452</ele>
        <time>2020-09-02T16:00:55Z</time>
      </trkpt>
      <trkpt lat="43.81427" lon="5.89206">
        <ele>503.853</ele>
        <time>2020-09-02T16:00:56Z</time>
      </trkpt>
      <trkpt lat="43.81421" lon="5.89209">
        <ele>503.808</ele>
        <time>2020-09-02T16:00:57Z</time>
      </trkpt>
      <trkpt lat="43.81415" lon="5.89213">
        <ele>504.708</ele>
        <time>2020-09-02T16:00:58Z</time>
      </trkpt>
      <trkpt lat="43.81408" lon="5.89221">
        <ele>505.493</ele>
        <time>2020-09-02T16:00:59Z</time>
      </trkpt>
      <trkpt lat="43.81402" lon="5.8923">
        <ele>506.422</ele>
        <time>2020-09-02T16:01:00Z</time>
      </trkpt>
      <trkpt lat="43.81395" lon="5.89239">
        <ele>506.612</ele>
        <time>2020-09-02T16:01:01Z</time>
      </trkpt>
      <trkpt lat="43.81387" lon="5.89246">
        <ele>507.679</ele>
        <time>2020-09-02T16:01:02Z</time>
      </trkpt>
      <trkpt lat="43.8138" lon="5.89253">
        <ele>508.54</ele>
        <time>2020-09-02T16:01:03Z</time>
      </trkpt>
      <trkpt lat="43.81374" lon="5.89263">
        <ele>509.698</ele>
        <time>2020-09-02T16:01:04Z</time>
      </trkpt>
      <trkpt lat="43.81369" lon="5.89274">
        <ele>510.484</ele>
        <time>2020-09-02T16:01:05Z</time>
      </trkpt>
      <trkpt lat="43.81364" lon="5.89285">
        <ele>512.047</ele>
        <time>2020-09-02T16:01:06Z</time>
      </trkpt>
      <trkpt lat="43.81357" lon="5.89296">
        <ele>513.045</ele>
        <time>2020-09-02T16:01:07Z</time>
      </trkpt>
      <trkpt lat="43.81348" lon="5.89306">
        <ele>514.347</ele>
        <time>2020-09-02T16:01:08Z</time>
      </trkpt>
      <trkpt lat="43.8134" lon="5.89316">
        <ele>515.011</ele>
        <time>2020-09-02T16:01:09Z</time>
      </trkpt>
      <trkpt lat="43.81334" lon="5.89325">
        <ele>515.808</ele>
        <time>2020-09-02T16:01:10Z</time>
      </trkpt>
      <trkpt lat="43.8133" lon="5.89334">
        <ele>516.792</ele>
        <time>2020-09-02T16:01:11Z</time>
      </trkpt>
      <trkpt lat="43.81326" lon="5.89343">
        <ele>517.221</ele>
        <time>2020-09-02T16:01:12Z</time>
      </trkpt>
      <trkpt lat="43.81325" lon="5.89353">
        <ele>518.031</ele>
        <time>2020-09-02T16:01:13Z</time>
      </trkpt>
      <trkpt lat="43.81325" lon="5.89364">
        <ele>518.858</ele>
        <time>2020-09-02T16:01:14Z</time>
      </trkpt>
      <trkpt lat="43.81327" lon="5.89373">
        <ele>519.789</ele>
        <time>2020-09-02T16:01:15Z</time>
      </trkpt>
      <trkpt lat="43.81331" lon="5.89381">
        <ele>519.947</ele>
        <time>2020-09-02T16:01:16Z</time>
      </trkpt>
      <trkpt lat="43.81334" lon="5.8939">
        <ele>520.433</ele>
        <time>2020-09-02T16:01:17Z</time>
      </trkpt>
      <trkpt lat="43.81335" lon="5.894">
        <ele>521.286</ele>
        <time>2020-09-02T16:01:18Z</time>
      </trkpt>
      <trkpt lat="43.81335" lon="5.89409">
        <ele>521.837</ele>
        <time>2020-09-02T16:01:19Z</time>
      </trkpt>
      <trkpt lat="43.81333" lon="5.89418">
        <ele>522.149</ele>
        <time>2020-09-02T16:01:20Z</time>
      </trkpt>
      <trkpt lat="43.8133" lon="5.89428">
        <ele>522.613</ele>
        <time>2020-09-02T16:01:21Z</time>
      </trkpt>
      <trkpt lat="43.81328" lon="5.89437">
        <ele>523.008</ele>
        <time>2020-09-02T16:01:22Z</time>
      </trkpt>
      <trkpt lat="43.81328" lon="5.89447">
        <ele>523.931</ele>
        <time>2020-09-02T16:01:23Z</time>
      </trkpt>
      <trkpt lat="43.8133" lon="5.89457">
        <ele>524.73</ele>
        <time>2020-09-02T16:01:24Z</time>
      </trkpt>
      <trkpt lat="43.81334" lon="5.89467">
        <ele>525.56</ele>
        <time>2020-09-02T16:01:25Z</time>
      </trkpt>
      <trkpt lat="43.8134" lon="5.89475">
        <ele>526.197</ele>
        <time>2020-09-02T16:01:26Z</time>
      </trkpt>
      <trkpt lat="43.81347" lon="5.89479">
        <ele>526.988</ele>
        <time>2020-09-02T16:01:27Z</time>
      </trkpt>
      <trkpt lat="43.81354" lon="5.89483">
        <ele>527.636</ele>
        <time>2020-09-02T16:01:28Z</time>
      </trkpt>
      <trkpt lat="43.81359" lon="5.89488">
        <ele>528.192</ele>
        <time>2020-09-02T16:01:29Z</time>
      </trkpt>
      <trkpt lat="43.81361" lon="5.89493">
        <ele>528.465</ele>
        <time>2020-09-02T16:01:30Z</time>
      </trkpt>
      <trkpt lat="43.81357" lon="5.89504">
        <ele>528.964</ele>
        <time>2020-09-02T16:01:32Z</time>
      </trkpt>
      <trkpt lat="43.81351" lon="5.89509">
        <ele>529.006</ele>
        <time>2020-09-02T16:01:33Z</time>
      </trkpt>
      <trkpt lat="43.81345" lon="5.89515">
        <ele>529.416</ele>
        <time>2020-09-02T16:01:34Z</time>
      </trkpt>
      <trkpt lat="43.81338" lon="5.89523">
        <ele>529.708</ele>
        <time>2020-09-02T16:01:35Z</time>
      </trkpt>
      <trkpt lat="43.81333" lon="5.89533">
        <ele>529.644</ele>
        <time>2020-09-02T16:01:36Z</time>
      </trkpt>
      <trkpt lat="43.81329" lon="5.89543">
        <ele>529.583</ele>
        <time>2020-09-02T16:01:37Z</time>
      </trkpt>
      <trkpt lat="43.81325" lon="5.89553">
        <ele>529.363</ele>
        <time>2020-09-02T16:01:38Z</time>
      </trkpt>
      <trkpt lat="43.8132" lon="5.89563">
        <ele>529.19</ele>
        <time>2020-09-02T16:01:39Z</time>
      </trkpt>
      <trkpt lat="43.81314" lon="5.89573">
        <ele>529.021</ele>
        <time>2020-09-02T16:01:40Z</time>
      </trkpt>
      <trkpt lat="43.81306" lon="5.89583">
        <ele>528.759</ele>
        <time>2020-09-02T16:01:41Z</time>
      </trkpt>
      <trkpt lat="43.81298" lon="5.89594">
        <ele>528.915</ele>
        <time>2020-09-02T16:01:42Z</time>
      </trkpt>
      <trkpt lat="43.8129" lon="5.89606">
        <ele>529.198</ele>
        <time>2020-09-02T16:01:43Z</time>
      </trkpt>
      <trkpt lat="43.81281" lon="5.89621">
        <ele>529.467</ele>
        <time>2020-09-02T16:01:44Z</time>
      </trkpt>
      <trkpt lat="43.81272" lon="5.89635">
        <ele>529.681</ele>
        <time>2020-09-02T16:01:45Z</time>
      </trkpt>
      <trkpt lat="43.81261" lon="5.89648">
        <ele>530.119</ele>
        <time>2020-09-02T16:01:46Z</time>
      </trkpt>
      <trkpt lat="43.81251" lon="5.89661">
        <ele>530.408</ele>
        <time>2020-09-02T16:01:47Z</time>
      </trkpt>
      <trkpt lat="43.81242" lon="5.89671">
        <ele>531.254</ele>
        <time>2020-09-02T16:01:48Z</time>
      </trkpt>
      <trkpt lat="43.81234" lon="5.89683">
        <ele>531.633</ele>
        <time>2020-09-02T16:01:49Z</time>
      </trkpt>
      <trkpt lat="43.81227" lon="5.89697">
        <ele>531.643</ele>
        <time>2020-09-02T16:01:50Z</time>
      </trkpt>
      <trkpt lat="43.8122" lon="5.89711">
        <ele>531.84</ele>
        <time>2020-09-02T16:01:51Z</time>
      </trkpt>
      <trkpt lat="43.81211" lon="5.89722">
        <ele>531.941</ele>
        <time>2020-09-02T16:01:52Z</time>
      </trkpt>
      <trkpt lat="43.81205" lon="5.89732">
        <ele>532.199</ele>
        <time>2020-09-02T16:01:53Z</time>
      </trkpt>
      <trkpt lat="43.81202" lon="5.8974">
        <ele>531.835</ele>
        <time>2020-09-02T16:01:54Z</time>
      </trkpt>
      <trkpt lat="43.81201" lon="5.89748">
        <ele>531.298</ele>
        <time>2020-09-02T16:01:55Z</time>
      </trkpt>
      <trkpt lat="43.81202" lon="5.89755">
        <ele>531.394</ele>
        <time>2020-09-02T16:01:56Z</time>
      </trkpt>
      <trkpt lat="43.81205" lon="5.89761">
        <ele>531.157</ele>
        <time>2020-09-02T16:01:57Z</time>
      </trkpt>
      <trkpt lat="43.81209" lon="5.89768">
        <ele>530.722</ele>
        <time>2020-09-02T16:01:58Z</time>
      </trkpt>
      <trkpt lat="43.81213" lon="5.89775">
        <ele>530.308</ele>
        <time>2020-09-02T16:01:59Z</time>
      </trkpt>
      <trkpt lat="43.81218" lon="5.89781">
        <ele>530.297</ele>
        <time>2020-09-02T16:02:00Z</time>
      </trkpt>
      <trkpt lat="43.81223" lon="5.89787">
        <ele>529.536</ele>
        <time>2020-09-02T16:02:01Z</time>
      </trkpt>
      <trkpt lat="43.81228" lon="5.89793">
        <ele>529.586</ele>
        <time>2020-09-02T16:02:02Z</time>
      </trkpt>
      <trkpt lat="43.81234" lon="5.89798">
        <ele>528.933</ele>
        <time>2020-09-02T16:02:03Z</time>
      </trkpt>
      <trkpt lat="43.81239" lon="5.89804">
        <ele>528.094</ele>
        <time>2020-09-02T16:02:04Z</time>
      </trkpt>
      <trkpt lat="43.81244" lon="5.89811">
        <ele>527.492</ele>
        <time>2020-09-02T16:02:05Z</time>
      </trkpt>
      <trkpt lat="43.81249" lon="5.89819">
        <ele>526.338</ele>
        <time>2020-09-02T16:02:06Z</time>
      </trkpt>
      <trkpt lat="43.81253" lon="5.89827">
        <ele>525.791</ele>
        <time>2020-09-02T16:02:07Z</time>
      </trkpt>
      <trkpt lat="43.81256" lon="5.89835">
        <ele>525.254</ele>
        <time>2020-09-02T16:02:08Z</time>
      </trkpt>
      <trkpt lat="43.81261" lon="5.89844">
        <ele>524.156</ele>
        <time>2020-09-02T16:02:09Z</time>
      </trkpt>
      <trkpt lat="43.81263" lon="5.89853">
        <ele>523.211</ele>
        <time>2020-09-02T16:02:10Z</time>
      </trkpt>
      <trkpt lat="43.81265" lon="5.89862">
        <ele>522.208</ele>
        <time>2020-09-02T16:02:11Z</time>
      </trkpt>
      <trkpt lat="43.81267" lon="5.89871">
        <ele>521.393</ele>
        <time>2020-09-02T16:02:12Z</time>
      </trkpt>
      <trkpt lat="43.81269" lon="5.8988">
        <ele>520.562</ele>
        <time>2020-09-02T16:02:13Z</time>
      </trkpt>
      <trkpt lat="43.81273" lon="5.89888">
        <ele>520.032</ele>
        <time>2020-09-02T16:02:14Z</time>
      </trkpt>
      <trkpt lat="43.81278" lon="5.89896">
        <ele>519.349</ele>
        <time>2020-09-02T16:02:15Z</time>
      </trkpt>
      <trkpt lat="43.81283" lon="5.89904">
        <ele>518.59</ele>
        <time>2020-09-02T16:02:16Z</time>
      </trkpt>
      <trkpt lat="43.81287" lon="5.89912">
        <ele>517.158</ele>
        <time>2020-09-02T16:02:17Z</time>
      </trkpt>
      <trkpt lat="43.8129" lon="5.89921">
        <ele>516.364</ele>
        <time>2020-09-02T16:02:18Z</time>
      </trkpt>
      <trkpt lat="43.81293" lon="5.89931">
        <ele>515.657</ele>
        <time>2020-09-02T16:02:19Z</time>
      </trkpt>
      <trkpt lat="43.81295" lon="5.89941">
        <ele>514.822</ele>
        <time>2020-09-02T16:02:20Z</time>
      </trkpt>
      <trkpt lat="43.81299" lon="5.89953">
        <ele>514.262</ele>
        <time>2020-09-02T16:02:21Z</time>
      </trkpt>
      <trkpt lat="43.81303" lon="5.89966">
        <ele>513.908</ele>
        <time>2020-09-02T16:02:22Z</time>
      </trkpt>
      <trkpt lat="43.81308" lon="5.89978">
        <ele>514.208</ele>
        <time>2020-09-02T16:02:23Z</time>
      </trkpt>
      <trkpt lat="43.81314" lon="5.8999">
        <ele>514.33</ele>
        <time>2020-09-02T16:02:24Z</time>
      </trkpt>
      <trkpt lat="43.81319" lon="5.90001">
        <ele>514.769</ele>
        <time>2020-09-02T16:02:25Z</time>
      </trkpt>
      <trkpt lat="43.81324" lon="5.90011">
        <ele>515.049</ele>
        <time>2020-09-02T16:02:26Z</time>
      </trkpt>
      <trkpt lat="43.81328" lon="5.90021">
        <ele>515.836</ele>
        <time>2020-09-02T16:02:27Z</time>
      </trkpt>
      <trkpt lat="43.81331" lon="5.90031">
        <ele>516.727</ele>
        <time>2020-09-02T16:02:28Z</time>
      </trkpt>
      <trkpt lat="43.81335" lon="5.90043">
        <ele>517.865</ele>
        <time>2020-09-02T16:02:29Z</time>
      </trkpt>
      <trkpt lat="43.81338" lon="5.90055">
        <ele>518.651</ele>
        <time>2020-09-02T16:02:30Z</time>
      </trkpt>
      <trkpt lat="43.81341" lon="5.90067">
        <ele>519.594</ele>
        <time>2020-09-02T16:02:31Z</time>
      </trkpt>
      <trkpt lat="43.81345" lon="5.9008">
        <ele>520.243</ele>
        <time>2020-09-02T16:02:32Z</time>
      </trkpt>
      <trkpt lat="43.8135" lon="5.90094">
        <ele>520.764</ele>
        <time>2020-09-02T16:02:33Z</time>
      </trkpt>
      <trkpt lat="43.81355" lon="5.90109">
        <ele>521.21</ele>
        <time>2020-09-02T16:02:34Z</time>
      </trkpt>
      <trkpt lat="43.8136" lon="5.90124">
        <ele>522.008</ele>
        <time>2020-09-02T16:02:35Z</time>
      </trkpt>
      <trkpt lat="43.81365" lon="5.90139">
        <ele>522.672</ele>
        <time>2020-09-02T16:02:36Z</time>
      </trkpt>
      <trkpt lat="43.81369" lon="5.90154">
        <ele>523.471</ele>
        <time>2020-09-02T16:02:37Z</time>
      </trkpt>
      <trkpt lat="43.81374" lon="5.90167">
        <ele>523.771</ele>
        <time>2020-09-02T16:02:38Z</time>
      </trkpt>
      <trkpt lat="43.81378" lon="5.90181">
        <ele>523.928</ele>
        <time>2020-09-02T16:02:39Z</time>
      </trkpt>
      <trkpt lat="43.81384" lon="5.90195">
        <ele>524.049</ele>
        <time>2020-09-02T16:02:40Z</time>
      </trkpt>
      <trkpt lat="43.81391" lon="5.90208">
        <ele>524.567</ele>
        <time>2020-09-02T16:02:41Z</time>
      </trkpt>
      <trkpt lat="43.81399" lon="5.90221">
        <ele>524.793</ele>
        <time>2020-09-02T16:02:42Z</time>
      </trkpt>
      <trkpt lat="43.81406" lon="5.90235">
        <ele>525.056</ele>
        <time>2020-09-02T16:02:43Z</time>
      </trkpt>
      <trkpt lat="43.81413" lon="5.9025">
        <ele>524.319</ele>
        <time>2020-09-02T16:02:44Z</time>
      </trkpt>
      <trkpt lat="43.8142" lon="5.90264">
        <ele>523.809</ele>
        <time>2020-09-02T16:02:45Z</time>
      </trkpt>
      <trkpt lat="43.81425" lon="5.90279">
        <ele>523.519</ele>
        <time>2020-09-02T16:02:46Z</time>
      </trkpt>
      <trkpt lat="43.81429" lon="5.90296">
        <ele>523.508</ele>
        <time>2020-09-02T16:02:47Z</time>
      </trkpt>
      <trkpt lat="43.81434" lon="5.90314">
        <ele>523.269</ele>
        <time>2020-09-02T16:02:48Z</time>
      </trkpt>
      <trkpt lat="43.81437" lon="5.90331">
        <ele>523.168</ele>
        <time>2020-09-02T16:02:49Z</time>
      </trkpt>
      <trkpt lat="43.8144" lon="5.90346">
        <ele>523.098</ele>
        <time>2020-09-02T16:02:50Z</time>
      </trkpt>
      <trkpt lat="43.81443" lon="5.90363">
        <ele>523.115</ele>
        <time>2020-09-02T16:02:51Z</time>
      </trkpt>
      <trkpt lat="43.81445" lon="5.9038">
        <ele>523.126</ele>
        <time>2020-09-02T16:02:52Z</time>
      </trkpt>
      <trkpt lat="43.81447" lon="5.90398">
        <ele>522.914</ele>
        <time>2020-09-02T16:02:53Z</time>
      </trkpt>
      <trkpt lat="43.81448" lon="5.90416">
        <ele>523.12</ele>
        <time>2020-09-02T16:02:54Z</time>
      </trkpt>
      <trkpt lat="43.81448" lon="5.90434">
        <ele>523.523</ele>
        <time>2020-09-02T16:02:55Z</time>
      </trkpt>
      <trkpt lat="43.81449" lon="5.9045">
        <ele>524.081</ele>
        <time>2020-09-02T16:02:56Z</time>
      </trkpt>
      <trkpt lat="43.81451" lon="5.90465">
        <ele>523.861</ele>
        <time>2020-09-02T16:02:57Z</time>
      </trkpt>
      <trkpt lat="43.81454" lon="5.90479">
        <ele>523.517</ele>
        <time>2020-09-02T16:02:58Z</time>
      </trkpt>
      <trkpt lat="43.81458" lon="5.90492">
        <ele>522.508</ele>
        <time>2020-09-02T16:02:59Z</time>
      </trkpt>
      <trkpt lat="43.81463" lon="5.90504">
        <ele>521.526</ele>
        <time>2020-09-02T16:03:00Z</time>
      </trkpt>
      <trkpt lat="43.81469" lon="5.90514">
        <ele>521.395</ele>
        <time>2020-09-02T16:03:01Z</time>
      </trkpt>
      <trkpt lat="43.81475" lon="5.90523">
        <ele>521.265</ele>
        <time>2020-09-02T16:03:02Z</time>
      </trkpt>
      <trkpt lat="43.8148" lon="5.9053">
        <ele>520.932</ele>
        <time>2020-09-02T16:03:03Z</time>
      </trkpt>
      <trkpt lat="43.81485" lon="5.90538">
        <ele>520.063</ele>
        <time>2020-09-02T16:03:04Z</time>
      </trkpt>
      <trkpt lat="43.8149" lon="5.90546">
        <ele>519.581</ele>
        <time>2020-09-02T16:03:05Z</time>
      </trkpt>
      <trkpt lat="43.81495" lon="5.90555">
        <ele>518.717</ele>
        <time>2020-09-02T16:03:06Z</time>
      </trkpt>
      <trkpt lat="43.815" lon="5.90562">
        <ele>518.24</ele>
        <time>2020-09-02T16:03:07Z</time>
      </trkpt>
      <trkpt lat="43.81504" lon="5.9057">
        <ele>518.056</ele>
        <time>2020-09-02T16:03:08Z</time>
      </trkpt>
      <trkpt lat="43.81505" lon="5.90577">
        <ele>518.059</ele>
        <time>2020-09-02T16:03:09Z</time>
      </trkpt>
      <trkpt lat="43.81505" lon="5.90584">
        <ele>518.814</ele>
        <time>2020-09-02T16:03:10Z</time>
      </trkpt>
      <trkpt lat="43.81503" lon="5.90591">
        <ele>519.008</ele>
        <time>2020-09-02T16:03:11Z</time>
      </trkpt>
      <trkpt lat="43.815" lon="5.90598">
        <ele>519.213</ele>
        <time>2020-09-02T16:03:12Z</time>
      </trkpt>
      <trkpt lat="43.81497" lon="5.90604">
        <ele>519.112</ele>
        <time>2020-09-02T16:03:13Z</time>
      </trkpt>
      <trkpt lat="43.81495" lon="5.9061">
        <ele>519.062</ele>
        <time>2020-09-02T16:03:14Z</time>
      </trkpt>
      <trkpt lat="43.81493" lon="5.90616">
        <ele>518.819</ele>
        <time>2020-09-02T16:03:15Z</time>
      </trkpt>
      <trkpt lat="43.81492" lon="5.90624">
        <ele>518.64</ele>
        <time>2020-09-02T16:03:17Z</time>
      </trkpt>
      <trkpt lat="43.81491" lon="5.90633">
        <ele>518.378</ele>
        <time>2020-09-02T16:03:20Z</time>
      </trkpt>
      <trkpt lat="43.8149" lon="5.90643">
        <ele>518.364</ele>
        <time>2020-09-02T16:03:22Z</time>
      </trkpt>
      <trkpt lat="43.81489" lon="5.90657">
        <ele>517.977</ele>
        <time>2020-09-02T16:03:24Z</time>
      </trkpt>
      <trkpt lat="43.81488" lon="5.90667">
        <ele>517.792</ele>
        <time>2020-09-02T16:03:25Z</time>
      </trkpt>
      <trkpt lat="43.81487" lon="5.90677">
        <ele>517.573</ele>
        <time>2020-09-02T16:03:26Z</time>
      </trkpt>
      <trkpt lat="43.81484" lon="5.90689">
        <ele>517.12</ele>
        <time>2020-09-02T16:03:27Z</time>
      </trkpt>
      <trkpt lat="43.81481" lon="5.907">
        <ele>516.508</ele>
        <time>2020-09-02T16:03:28Z</time>
      </trkpt>
      <trkpt lat="43.81479" lon="5.90713">
        <ele>516.087</ele>
        <time>2020-09-02T16:03:29Z</time>
      </trkpt>
      <trkpt lat="43.81475" lon="5.90726">
        <ele>515.666</ele>
        <time>2020-09-02T16:03:30Z</time>
      </trkpt>
      <trkpt lat="43.81472" lon="5.9074">
        <ele>514.746</ele>
        <time>2020-09-02T16:03:31Z</time>
      </trkpt>
      <trkpt lat="43.81468" lon="5.90752">
        <ele>513.943</ele>
        <time>2020-09-02T16:03:32Z</time>
      </trkpt>
      <trkpt lat="43.81464" lon="5.90764">
        <ele>513.254</ele>
        <time>2020-09-02T16:03:33Z</time>
      </trkpt>
      <trkpt lat="43.81459" lon="5.90773">
        <ele>512.362</ele>
        <time>2020-09-02T16:03:34Z</time>
      </trkpt>
      <trkpt lat="43.81452" lon="5.90781">
        <ele>511.998</ele>
        <time>2020-09-02T16:03:35Z</time>
      </trkpt>
      <trkpt lat="43.81444" lon="5.9079">
        <ele>510.941</ele>
        <time>2020-09-02T16:03:36Z</time>
      </trkpt>
      <trkpt lat="43.81436" lon="5.90798">
        <ele>510.542</ele>
        <time>2020-09-02T16:03:37Z</time>
      </trkpt>
      <trkpt lat="43.81429" lon="5.90806">
        <ele>509.922</ele>
        <time>2020-09-02T16:03:38Z</time>
      </trkpt>
      <trkpt lat="43.81423" lon="5.90814">
        <ele>509.114</ele>
        <time>2020-09-02T16:03:39Z</time>
      </trkpt>
      <trkpt lat="43.81417" lon="5.90822">
        <ele>508.308</ele>
        <time>2020-09-02T16:03:40Z</time>
      </trkpt>
      <trkpt lat="43.81411" lon="5.90829">
        <ele>507.722</ele>
        <time>2020-09-02T16:03:41Z</time>
      </trkpt>
      <trkpt lat="43.81405" lon="5.90837">
        <ele>506.731</ele>
        <time>2020-09-02T16:03:42Z</time>
      </trkpt>
      <trkpt lat="43.814" lon="5.90845">
        <ele>506.171</ele>
        <time>2020-09-02T16:03:43Z</time>
      </trkpt>
      <trkpt lat="43.81396" lon="5.90851">
        <ele>505.788</ele>
        <time>2020-09-02T16:03:44Z</time>
      </trkpt>
      <trkpt lat="43.81391" lon="5.90858">
        <ele>505.159</ele>
        <time>2020-09-02T16:03:45Z</time>
      </trkpt>
      <trkpt lat="43.81388" lon="5.90862">
        <ele>504.197</ele>
        <time>2020-09-02T16:03:46Z</time>
      </trkpt>
      <trkpt lat="43.81381" lon="5.90865">
        <ele>503.233</ele>
        <time>2020-09-02T16:03:48Z</time>
      </trkpt>
      <trkpt lat="43.81376" lon="5.90861">
        <ele>501.986</ele>
        <time>2020-09-02T16:03:51Z</time>
      </trkpt>
      <trkpt lat="43.81372" lon="5.90857">
        <ele>501.925</ele>
        <time>2020-09-02T16:03:53Z</time>
      </trkpt>
      <trkpt lat="43.81369" lon="5.90851">
        <ele>501.026</ele>
        <time>2020-09-02T16:03:55Z</time>
      </trkpt>
      <trkpt lat="43.81364" lon="5.90844">
        <ele>499.508</ele>
        <time>2020-09-02T16:03:57Z</time>
      </trkpt>
      <trkpt lat="43.81359" lon="5.90838">
        <ele>498.408</ele>
        <time>2020-09-02T16:03:59Z</time>
      </trkpt>
      <trkpt lat="43.81353" lon="5.90833">
        <ele>498.04</ele>
        <time>2020-09-02T16:04:01Z</time>
      </trkpt>
      <trkpt lat="43.81348" lon="5.90824">
        <ele>497.619</ele>
        <time>2020-09-02T16:04:03Z</time>
      </trkpt>
      <trkpt lat="43.81352" lon="5.90814">
        <ele>497.069</ele>
        <time>2020-09-02T16:04:04Z</time>
      </trkpt>
      <trkpt lat="43.81354" lon="5.90806">
        <ele>497.166</ele>
        <time>2020-09-02T16:04:05Z</time>
      </trkpt>
      <trkpt lat="43.81358" lon="5.90798">
        <ele>497.077</ele>
        <time>2020-09-02T16:04:06Z</time>
      </trkpt>
      <trkpt lat="43.81362" lon="5.90791">
        <ele>496.955</ele>
        <time>2020-09-02T16:04:07Z</time>
      </trkpt>
      <trkpt lat="43.81366" lon="5.90787">
        <ele>496.791</ele>
        <time>2020-09-02T16:04:08Z</time>
      </trkpt>
      <trkpt lat="43.81371" lon="5.90785">
        <ele>496.684</ele>
        <time>2020-09-02T16:04:09Z</time>
      </trkpt>
      <trkpt lat="43.81377" lon="5.90782">
        <ele>496.359</ele>
        <time>2020-09-02T16:04:10Z</time>
      </trkpt>
      <trkpt lat="43.81384" lon="5.90778">
        <ele>496.303</ele>
        <time>2020-09-02T16:04:11Z</time>
      </trkpt>
      <trkpt lat="43.8139" lon="5.90773">
        <ele>495.923</ele>
        <time>2020-09-02T16:04:12Z</time>
      </trkpt>
      <trkpt lat="43.81396" lon="5.90768">
        <ele>495.708</ele>
        <time>2020-09-02T16:04:13Z</time>
      </trkpt>
      <trkpt lat="43.81398" lon="5.90762">
        <ele>495.863</ele>
        <time>2020-09-02T16:04:14Z</time>
      </trkpt>
      <trkpt lat="43.81401" lon="5.90753">
        <ele>495.332</ele>
        <time>2020-09-02T16:04:15Z</time>
      </trkpt>
      <trkpt lat="43.81403" lon="5.90743">
        <ele>495.392</ele>
        <time>2020-09-02T16:04:16Z</time>
      </trkpt>
      <trkpt lat="43.81405" lon="5.90733">
        <ele>494.919</ele>
        <time>2020-09-02T16:04:17Z</time>
      </trkpt>
      <trkpt lat="43.81407" lon="5.90723">
        <ele>494.61</ele>
        <time>2020-09-02T16:04:18Z</time>
      </trkpt>
      <trkpt lat="43.81412" lon="5.90716">
        <ele>494.338</ele>
        <time>2020-09-02T16:04:19Z</time>
      </trkpt>
      <trkpt lat="43.81416" lon="5.90709">
        <ele>494.064</ele>
        <time>2020-09-02T16:04:20Z</time>
      </trkpt>
      <trkpt lat="43.8142" lon="5.907">
        <ele>493.827</ele>
        <time>2020-09-02T16:04:21Z</time>
      </trkpt>
      <trkpt lat="43.81421" lon="5.90691">
        <ele>494.116</ele>
        <time>2020-09-02T16:04:22Z</time>
      </trkpt>
      <trkpt lat="43.81421" lon="5.90683">
        <ele>494.076</ele>
        <time>2020-09-02T16:04:23Z</time>
      </trkpt>
      <trkpt lat="43.81418" lon="5.90676">
        <ele>493.513</ele>
        <time>2020-09-02T16:04:24Z</time>
      </trkpt>
      <trkpt lat="43.81415" lon="5.90668">
        <ele>493.108</ele>
        <time>2020-09-02T16:04:25Z</time>
      </trkpt>
      <trkpt lat="43.81412" lon="5.90658">
        <ele>492.959</ele>
        <time>2020-09-02T16:04:26Z</time>
      </trkpt>
      <trkpt lat="43.8141" lon="5.90649">
        <ele>492.788</ele>
        <time>2020-09-02T16:04:27Z</time>
      </trkpt>
      <trkpt lat="43.81409" lon="5.9064">
        <ele>492.878</ele>
        <time>2020-09-02T16:04:28Z</time>
      </trkpt>
      <trkpt lat="43.81409" lon="5.9063">
        <ele>492.365</ele>
        <time>2020-09-02T16:04:29Z</time>
      </trkpt>
      <trkpt lat="43.81409" lon="5.9062">
        <ele>492.176</ele>
        <time>2020-09-02T16:04:30Z</time>
      </trkpt>
      <trkpt lat="43.81411" lon="5.90612">
        <ele>492.014</ele>
        <time>2020-09-02T16:04:31Z</time>
      </trkpt>
      <trkpt lat="43.81411" lon="5.90604">
        <ele>491.49</ele>
        <time>2020-09-02T16:04:32Z</time>
      </trkpt>
      <trkpt lat="43.81411" lon="5.90595">
        <ele>491.223</ele>
        <time>2020-09-02T16:04:33Z</time>
      </trkpt>
      <trkpt lat="43.81409" lon="5.90585">
        <ele>491.059</ele>
        <time>2020-09-02T16:04:34Z</time>
      </trkpt>
      <trkpt lat="43.81407" lon="5.90575">
        <ele>490.503</ele>
        <time>2020-09-02T16:04:35Z</time>
      </trkpt>
      <trkpt lat="43.81403" lon="5.90564">
        <ele>490.523</ele>
        <time>2020-09-02T16:04:36Z</time>
      </trkpt>
      <trkpt lat="43.81399" lon="5.90555">
        <ele>490.308</ele>
        <time>2020-09-02T16:04:37Z</time>
      </trkpt>
      <trkpt lat="43.81394" lon="5.90545">
        <ele>489.933</ele>
        <time>2020-09-02T16:04:38Z</time>
      </trkpt>
      <trkpt lat="43.81391" lon="5.90535">
        <ele>489.642</ele>
        <time>2020-09-02T16:04:39Z</time>
      </trkpt>
      <trkpt lat="43.81388" lon="5.90525">
        <ele>489.272</ele>
        <time>2020-09-02T16:04:40Z</time>
      </trkpt>
      <trkpt lat="43.81385" lon="5.90515">
        <ele>488.849</ele>
        <time>2020-09-02T16:04:41Z</time>
      </trkpt>
      <trkpt lat="43.8138" lon="5.90505">
        <ele>488.25</ele>
        <time>2020-09-02T16:04:42Z</time>
      </trkpt>
      <trkpt lat="43.81374" lon="5.90497">
        <ele>488.048</ele>
        <time>2020-09-02T16:04:43Z</time>
      </trkpt>
      <trkpt lat="43.81367" lon="5.90491">
        <ele>487.254</ele>
        <time>2020-09-02T16:04:44Z</time>
      </trkpt>
      <trkpt lat="43.81361" lon="5.90488">
        <ele>486.847</ele>
        <time>2020-09-02T16:04:45Z</time>
      </trkpt>
      <trkpt lat="43.81356" lon="5.90485">
        <ele>485.639</ele>
        <time>2020-09-02T16:04:46Z</time>
      </trkpt>
      <trkpt lat="43.81352" lon="5.9048">
        <ele>485.701</ele>
        <time>2020-09-02T16:04:47Z</time>
      </trkpt>
      <trkpt lat="43.81348" lon="5.90473">
        <ele>485.621</ele>
        <time>2020-09-02T16:04:48Z</time>
      </trkpt>
      <trkpt lat="43.81346" lon="5.90466">
        <ele>485.408</ele>
        <time>2020-09-02T16:04:49Z</time>
      </trkpt>
      <trkpt lat="43.81343" lon="5.90457">
        <ele>485.161</ele>
        <time>2020-09-02T16:04:50Z</time>
      </trkpt>
      <trkpt lat="43.81341" lon="5.90447">
        <ele>484.98</ele>
        <time>2020-09-02T16:04:51Z</time>
      </trkpt>
      <trkpt lat="43.81339" lon="5.90437">
        <ele>484.84</ele>
        <time>2020-09-02T16:04:52Z</time>
      </trkpt>
      <trkpt lat="43.81337" lon="5.90425">
        <ele>484.687</ele>
        <time>2020-09-02T16:04:53Z</time>
      </trkpt>
      <trkpt lat="43.81337" lon="5.90414">
        <ele>484.688</ele>
        <time>2020-09-02T16:04:54Z</time>
      </trkpt>
      <trkpt lat="43.81337" lon="5.90403">
        <ele>484.856</ele>
        <time>2020-09-02T16:04:55Z</time>
      </trkpt>
      <trkpt lat="43.8134" lon="5.90392">
        <ele>484.242</ele>
        <time>2020-09-02T16:04:56Z</time>
      </trkpt>
      <trkpt lat="43.81343" lon="5.90383">
        <ele>484.545</ele>
        <time>2020-09-02T16:04:57Z</time>
      </trkpt>
      <trkpt lat="43.81344" lon="5.90375">
        <ele>484.524</ele>
        <time>2020-09-02T16:04:58Z</time>
      </trkpt>
      <trkpt lat="43.81345" lon="5.90367">
        <ele>484.504</ele>
        <time>2020-09-02T16:04:59Z</time>
      </trkpt>
      <trkpt lat="43.81346" lon="5.90359">
        <ele>484.714</ele>
        <time>2020-09-02T16:05:00Z</time>
      </trkpt>
      <trkpt lat="43.81344" lon="5.90348">
        <ele>484.508</ele>
        <time>2020-09-02T16:05:01Z</time>
      </trkpt>
      <trkpt lat="43.81343" lon="5.90337">
        <ele>484.22</ele>
        <time>2020-09-02T16:05:02Z</time>
      </trkpt>
      <trkpt lat="43.8134" lon="5.90327">
        <ele>484.189</ele>
        <time>2020-09-02T16:05:03Z</time>
      </trkpt>
      <trkpt lat="43.81336" lon="5.90316">
        <ele>483.879</ele>
        <time>2020-09-02T16:05:04Z</time>
      </trkpt>
      <trkpt lat="43.81332" lon="5.90306">
        <ele>483.416</ele>
        <time>2020-09-02T16:05:05Z</time>
      </trkpt>
      <trkpt lat="43.81328" lon="5.90296">
        <ele>483.477</ele>
        <time>2020-09-02T16:05:06Z</time>
      </trkpt>
      <trkpt lat="43.81323" lon="5.90288">
        <ele>483.345</ele>
        <time>2020-09-02T16:05:07Z</time>
      </trkpt>
      <trkpt lat="43.81319" lon="5.90281">
        <ele>482.831</ele>
        <time>2020-09-02T16:05:08Z</time>
      </trkpt>
      <trkpt lat="43.81314" lon="5.90275">
        <ele>482.434</ele>
        <time>2020-09-02T16:05:09Z</time>
      </trkpt>
      <trkpt lat="43.81309" lon="5.9027">
        <ele>482.433</ele>
        <time>2020-09-02T16:05:10Z</time>
      </trkpt>
      <trkpt lat="43.81304" lon="5.90265">
        <ele>482.123</ele>
        <time>2020-09-02T16:05:11Z</time>
      </trkpt>
      <trkpt lat="43.81299" lon="5.90263">
        <ele>481.715</ele>
        <time>2020-09-02T16:05:12Z</time>
      </trkpt>
      <trkpt lat="43.81295" lon="5.90259">
        <ele>481.508</ele>
        <time>2020-09-02T16:05:13Z</time>
      </trkpt>
      <trkpt lat="43.81291" lon="5.90256">
        <ele>481.561</ele>
        <time>2020-09-02T16:05:14Z</time>
      </trkpt>
      <trkpt lat="43.81284" lon="5.90252">
        <ele>481.23</ele>
        <time>2020-09-02T16:05:16Z</time>
      </trkpt>
      <trkpt lat="43.81277" lon="5.90242">
        <ele>481.08</ele>
        <time>2020-09-02T16:05:18Z</time>
      </trkpt>
      <trkpt lat="43.81274" lon="5.90235">
        <ele>480.417</ele>
        <time>2020-09-02T16:05:19Z</time>
      </trkpt>
      <trkpt lat="43.81271" lon="5.90227">
        <ele>480.268</ele>
        <time>2020-09-02T16:05:20Z</time>
      </trkpt>
      <trkpt lat="43.81269" lon="5.9022">
        <ele>480.516</ele>
        <time>2020-09-02T16:05:21Z</time>
      </trkpt>
      <trkpt lat="43.81268" lon="5.90214">
        <ele>480.532</ele>
        <time>2020-09-02T16:05:22Z</time>
      </trkpt>
      <trkpt lat="43.81267" lon="5.90207">
        <ele>480.355</ele>
        <time>2020-09-02T16:05:23Z</time>
      </trkpt>
      <trkpt lat="43.81265" lon="5.90199">
        <ele>480.254</ele>
        <time>2020-09-02T16:05:24Z</time>
      </trkpt>
      <trkpt lat="43.81264" lon="5.90192">
        <ele>480.356</ele>
        <time>2020-09-02T16:05:25Z</time>
      </trkpt>
      <trkpt lat="43.81262" lon="5.90185">
        <ele>480.411</ele>
        <time>2020-09-02T16:05:26Z</time>
      </trkpt>
      <trkpt lat="43.81262" lon="5.90174">
        <ele>480.408</ele>
        <time>2020-09-02T16:05:28Z</time>
      </trkpt>
      <trkpt lat="43.81259" lon="5.90162">
        <ele>480.323</ele>
        <time>2020-09-02T16:05:30Z</time>
      </trkpt>
      <trkpt lat="43.81256" lon="5.90154">
        <ele>479.982</ele>
        <time>2020-09-02T16:05:31Z</time>
      </trkpt>
      <trkpt lat="43.81254" lon="5.90146">
        <ele>479.512</ele>
        <time>2020-09-02T16:05:32Z</time>
      </trkpt>
      <trkpt lat="43.81251" lon="5.90136">
        <ele>479.519</ele>
        <time>2020-09-02T16:05:33Z</time>
      </trkpt>
      <trkpt lat="43.81248" lon="5.90125">
        <ele>479.14</ele>
        <time>2020-09-02T16:05:34Z</time>
      </trkpt>
      <trkpt lat="43.81246" lon="5.90115">
        <ele>478.848</ele>
        <time>2020-09-02T16:05:35Z</time>
      </trkpt>
      <trkpt lat="43.81243" lon="5.90105">
        <ele>478.694</ele>
        <time>2020-09-02T16:05:36Z</time>
      </trkpt>
      <trkpt lat="43.8124" lon="5.90093">
        <ele>478.767</ele>
        <time>2020-09-02T16:05:37Z</time>
      </trkpt>
      <trkpt lat="43.81236" lon="5.90081">
        <ele>478.135</ele>
        <time>2020-09-02T16:05:38Z</time>
      </trkpt>
      <trkpt lat="43.81232" lon="5.9007">
        <ele>477.686</ele>
        <time>2020-09-02T16:05:39Z</time>
      </trkpt>
      <trkpt lat="43.81228" lon="5.90058">
        <ele>477.314</ele>
        <time>2020-09-02T16:05:40Z</time>
      </trkpt>
      <trkpt lat="43.81224" lon="5.90046">
        <ele>476.908</ele>
        <time>2020-09-02T16:05:41Z</time>
      </trkpt>
      <trkpt lat="43.81219" lon="5.90033">
        <ele>476.281</ele>
        <time>2020-09-02T16:05:42Z</time>
      </trkpt>
      <trkpt lat="43.81214" lon="5.90022">
        <ele>476.21</ele>
        <time>2020-09-02T16:05:43Z</time>
      </trkpt>
      <trkpt lat="43.8121" lon="5.90012">
        <ele>476.26</ele>
        <time>2020-09-02T16:05:44Z</time>
      </trkpt>
      <trkpt lat="43.81205" lon="5.90003">
        <ele>475.987</ele>
        <time>2020-09-02T16:05:45Z</time>
      </trkpt>
      <trkpt lat="43.81199" lon="5.89993">
        <ele>475.678</ele>
        <time>2020-09-02T16:05:46Z</time>
      </trkpt>
      <trkpt lat="43.81193" lon="5.89983">
        <ele>474.856</ele>
        <time>2020-09-02T16:05:47Z</time>
      </trkpt>
      <trkpt lat="43.81188" lon="5.89973">
        <ele>474.542</ele>
        <time>2020-09-02T16:05:48Z</time>
      </trkpt>
      <trkpt lat="43.81182" lon="5.89963">
        <ele>474.375</ele>
        <time>2020-09-02T16:05:49Z</time>
      </trkpt>
      <trkpt lat="43.81176" lon="5.89952">
        <ele>474.242</ele>
        <time>2020-09-02T16:05:50Z</time>
      </trkpt>
      <trkpt lat="43.8117" lon="5.89941">
        <ele>474.222</ele>
        <time>2020-09-02T16:05:51Z</time>
      </trkpt>
      <trkpt lat="43.81165" lon="5.89931">
        <ele>473.814</ele>
        <time>2020-09-02T16:05:52Z</time>
      </trkpt>
      <trkpt lat="43.81159" lon="5.89924">
        <ele>473.208</ele>
        <time>2020-09-02T16:05:53Z</time>
      </trkpt>
      <trkpt lat="43.81154" lon="5.89918">
        <ele>473.032</ele>
        <time>2020-09-02T16:05:54Z</time>
      </trkpt>
      <trkpt lat="43.81147" lon="5.89911">
        <ele>472.691</ele>
        <time>2020-09-02T16:05:55Z</time>
      </trkpt>
      <trkpt lat="43.81139" lon="5.89907">
        <ele>472.211</ele>
        <time>2020-09-02T16:05:56Z</time>
      </trkpt>
      <trkpt lat="43.81132" lon="5.89904">
        <ele>472.118</ele>
        <time>2020-09-02T16:05:57Z</time>
      </trkpt>
      <trkpt lat="43.81125" lon="5.89902">
        <ele>472.099</ele>
        <time>2020-09-02T16:05:58Z</time>
      </trkpt>
      <trkpt lat="43.81117" lon="5.89901">
        <ele>471.577</ele>
        <time>2020-09-02T16:05:59Z</time>
      </trkpt>
      <trkpt lat="43.81108" lon="5.899">
        <ele>471.283</ele>
        <time>2020-09-02T16:06:00Z</time>
      </trkpt>
      <trkpt lat="43.811" lon="5.89899">
        <ele>470.996</ele>
        <time>2020-09-02T16:06:01Z</time>
      </trkpt>
      <trkpt lat="43.81093" lon="5.89899">
        <ele>470.711</ele>
        <time>2020-09-02T16:06:02Z</time>
      </trkpt>
      <trkpt lat="43.81087" lon="5.89899">
        <ele>470.121</ele>
        <time>2020-09-02T16:06:03Z</time>
      </trkpt>
      <trkpt lat="43.8108" lon="5.89899">
        <ele>469.903</ele>
        <time>2020-09-02T16:06:04Z</time>
      </trkpt>
      <trkpt lat="43.81073" lon="5.89899">
        <ele>469.208</ele>
        <time>2020-09-02T16:06:05Z</time>
      </trkpt>
      <trkpt lat="43.81066" lon="5.89897">
        <ele>468.829</ele>
        <time>2020-09-02T16:06:06Z</time>
      </trkpt>
      <trkpt lat="43.81061" lon="5.89893">
        <ele>468.918</ele>
        <time>2020-09-02T16:06:07Z</time>
      </trkpt>
      <trkpt lat="43.81057" lon="5.89888">
        <ele>468.588</ele>
        <time>2020-09-02T16:06:08Z</time>
      </trkpt>
      <trkpt lat="43.81053" lon="5.89881">
        <ele>468.435</ele>
        <time>2020-09-02T16:06:09Z</time>
      </trkpt>
      <trkpt lat="43.81049" lon="5.89875">
        <ele>468.396</ele>
        <time>2020-09-02T16:06:10Z</time>
      </trkpt>
      <trkpt lat="43.81046" lon="5.89868">
        <ele>468.584</ele>
        <time>2020-09-02T16:06:11Z</time>
      </trkpt>
      <trkpt lat="43.81043" lon="5.89861">
        <ele>468.39</ele>
        <time>2020-09-02T16:06:12Z</time>
      </trkpt>
      <trkpt lat="43.81039" lon="5.89852">
        <ele>467.973</ele>
        <time>2020-09-02T16:06:13Z</time>
      </trkpt>
      <trkpt lat="43.81034" lon="5.89844">
        <ele>467.249</ele>
        <time>2020-09-02T16:06:14Z</time>
      </trkpt>
      <trkpt lat="43.81029" lon="5.89837">
        <ele>466.702</ele>
        <time>2020-09-02T16:06:15Z</time>
      </trkpt>
      <trkpt lat="43.81022" lon="5.89831">
        <ele>466.522</ele>
        <time>2020-09-02T16:06:16Z</time>
      </trkpt>
      <trkpt lat="43.81014" lon="5.89826">
        <ele>466.408</ele>
        <time>2020-09-02T16:06:17Z</time>
      </trkpt>
      <trkpt lat="43.81005" lon="5.89822">
        <ele>466.352</ele>
        <time>2020-09-02T16:06:18Z</time>
      </trkpt>
      <trkpt lat="43.80997" lon="5.89819">
        <ele>466.351</ele>
        <time>2020-09-02T16:06:19Z</time>
      </trkpt>
      <trkpt lat="43.80989" lon="5.89815">
        <ele>466.061</ele>
        <time>2020-09-02T16:06:20Z</time>
      </trkpt>
      <trkpt lat="43.80982" lon="5.89814">
        <ele>465.518</ele>
        <time>2020-09-02T16:06:21Z</time>
      </trkpt>
      <trkpt lat="43.80973" lon="5.89813">
        <ele>465.079</ele>
        <time>2020-09-02T16:06:22Z</time>
      </trkpt>
      <trkpt lat="43.80964" lon="5.89812">
        <ele>464.527</ele>
        <time>2020-09-02T16:06:23Z</time>
      </trkpt>
      <trkpt lat="43.80957" lon="5.89811">
        <ele>464.293</ele>
        <time>2020-09-02T16:06:24Z</time>
      </trkpt>
      <trkpt lat="43.80951" lon="5.89812">
        <ele>464.246</ele>
        <time>2020-09-02T16:06:25Z</time>
      </trkpt>
      <trkpt lat="43.80945" lon="5.89811">
        <ele>464.218</ele>
        <time>2020-09-02T16:06:26Z</time>
      </trkpt>
      <trkpt lat="43.8094" lon="5.89809">
        <ele>464.198</ele>
        <time>2020-09-02T16:06:27Z</time>
      </trkpt>
      <trkpt lat="43.80934" lon="5.89805">
        <ele>464.017</ele>
        <time>2020-09-02T16:06:28Z</time>
      </trkpt>
      <trkpt lat="43.80927" lon="5.89801">
        <ele>463.908</ele>
        <time>2020-09-02T16:06:29Z</time>
      </trkpt>
      <trkpt lat="43.8092" lon="5.89796">
        <ele>463.859</ele>
        <time>2020-09-02T16:06:30Z</time>
      </trkpt>
      <trkpt lat="43.80914" lon="5.89791">
        <ele>463.568</ele>
        <time>2020-09-02T16:06:31Z</time>
      </trkpt>
      <trkpt lat="43.80908" lon="5.89788">
        <ele>463.468</ele>
        <time>2020-09-02T16:06:32Z</time>
      </trkpt>
      <trkpt lat="43.80901" lon="5.89783">
        <ele>463.445</ele>
        <time>2020-09-02T16:06:33Z</time>
      </trkpt>
      <trkpt lat="43.80894" lon="5.89779">
        <ele>463.266</ele>
        <time>2020-09-02T16:06:34Z</time>
      </trkpt>
      <trkpt lat="43.80887" lon="5.89774">
        <ele>463.164</ele>
        <time>2020-09-02T16:06:35Z</time>
      </trkpt>
      <trkpt lat="43.80881" lon="5.89769">
        <ele>462.89</ele>
        <time>2020-09-02T16:06:36Z</time>
      </trkpt>
      <trkpt lat="43.80877" lon="5.89764">
        <ele>462.533</ele>
        <time>2020-09-02T16:06:37Z</time>
      </trkpt>
      <trkpt lat="43.80872" lon="5.89758">
        <ele>462.434</ele>
        <time>2020-09-02T16:06:38Z</time>
      </trkpt>
      <trkpt lat="43.80868" lon="5.89751">
        <ele>462.355</ele>
        <time>2020-09-02T16:06:39Z</time>
      </trkpt>
      <trkpt lat="43.80864" lon="5.89742">
        <ele>462.11</ele>
        <time>2020-09-02T16:06:40Z</time>
      </trkpt>
      <trkpt lat="43.8086" lon="5.89733">
        <ele>462.308</ele>
        <time>2020-09-02T16:06:41Z</time>
      </trkpt>
      <trkpt lat="43.80858" lon="5.89726">
        <ele>462.381</ele>
        <time>2020-09-02T16:06:42Z</time>
      </trkpt>
      <trkpt lat="43.80857" lon="5.8972">
        <ele>462.14</ele>
        <time>2020-09-02T16:06:43Z</time>
      </trkpt>
      <trkpt lat="43.80858" lon="5.89713">
        <ele>462.17</ele>
        <time>2020-09-02T16:06:44Z</time>
      </trkpt>
      <trkpt lat="43.80859" lon="5.89705">
        <ele>462.087</ele>
        <time>2020-09-02T16:06:45Z</time>
      </trkpt>
      <trkpt lat="43.80858" lon="5.89696">
        <ele>462.168</ele>
        <time>2020-09-02T16:06:46Z</time>
      </trkpt>
      <trkpt lat="43.80856" lon="5.89687">
        <ele>461.956</ele>
        <time>2020-09-02T16:06:47Z</time>
      </trkpt>
      <trkpt lat="43.80853" lon="5.89677">
        <ele>462.012</ele>
        <time>2020-09-02T16:06:48Z</time>
      </trkpt>
      <trkpt lat="43.8085" lon="5.89669">
        <ele>461.655</ele>
        <time>2020-09-02T16:06:49Z</time>
      </trkpt>
      <trkpt lat="43.80847" lon="5.89661">
        <ele>461.382</ele>
        <time>2020-09-02T16:06:50Z</time>
      </trkpt>
      <trkpt lat="43.80844" lon="5.89654">
        <ele>460.943</ele>
        <time>2020-09-02T16:06:51Z</time>
      </trkpt>
      <trkpt lat="43.80841" lon="5.89646">
        <ele>460.717</ele>
        <time>2020-09-02T16:06:52Z</time>
      </trkpt>
      <trkpt lat="43.80838" lon="5.89639">
        <ele>460.708</ele>
        <time>2020-09-02T16:06:53Z</time>
      </trkpt>
      <trkpt lat="43.80834" lon="5.89631">
        <ele>460.546</ele>
        <time>2020-09-02T16:06:54Z</time>
      </trkpt>
      <trkpt lat="43.80829" lon="5.89622">
        <ele>460.715</ele>
        <time>2020-09-02T16:06:55Z</time>
      </trkpt>
      <trkpt lat="43.80823" lon="5.89613">
        <ele>460.445</ele>
        <time>2020-09-02T16:06:56Z</time>
      </trkpt>
      <trkpt lat="43.80817" lon="5.89604">
        <ele>460.472</ele>
        <time>2020-09-02T16:06:57Z</time>
      </trkpt>
      <trkpt lat="43.80812" lon="5.89594">
        <ele>460.283</ele>
        <time>2020-09-02T16:06:58Z</time>
      </trkpt>
      <trkpt lat="43.80807" lon="5.89585">
        <ele>460.041</ele>
        <time>2020-09-02T16:06:59Z</time>
      </trkpt>
      <trkpt lat="43.808" lon="5.89577">
        <ele>459.627</ele>
        <time>2020-09-02T16:07:00Z</time>
      </trkpt>
      <trkpt lat="43.80794" lon="5.89569">
        <ele>459.25</ele>
        <time>2020-09-02T16:07:01Z</time>
      </trkpt>
      <trkpt lat="43.80787" lon="5.8956">
        <ele>459.046</ele>
        <time>2020-09-02T16:07:02Z</time>
      </trkpt>
      <trkpt lat="43.8078" lon="5.89552">
        <ele>458.688</ele>
        <time>2020-09-02T16:07:03Z</time>
      </trkpt>
      <trkpt lat="43.80774" lon="5.89543">
        <ele>458.216</ele>
        <time>2020-09-02T16:07:04Z</time>
      </trkpt>
      <trkpt lat="43.80768" lon="5.89534">
        <ele>458.008</ele>
        <time>2020-09-02T16:07:05Z</time>
      </trkpt>
      <trkpt lat="43.80762" lon="5.89527">
        <ele>457.682</ele>
        <time>2020-09-02T16:07:06Z</time>
      </trkpt>
      <trkpt lat="43.80756" lon="5.89521">
        <ele>456.471</ele>
        <time>2020-09-02T16:07:07Z</time>
      </trkpt>
      <trkpt lat="43.80749" lon="5.89515">
        <ele>455.711</ele>
        <time>2020-09-02T16:07:08Z</time>
      </trkpt>
      <trkpt lat="43.80741" lon="5.89507">
        <ele>455.548</ele>
        <time>2020-09-02T16:07:09Z</time>
      </trkpt>
      <trkpt lat="43.80734" lon="5.895">
        <ele>454.699</ele>
        <time>2020-09-02T16:07:10Z</time>
      </trkpt>
      <trkpt lat="43.80727" lon="5.89492">
        <ele>454.047</ele>
        <time>2020-09-02T16:07:11Z</time>
      </trkpt>
      <trkpt lat="43.80721" lon="5.89484">
        <ele>453.583</ele>
        <time>2020-09-02T16:07:12Z</time>
      </trkpt>
      <trkpt lat="43.80714" lon="5.89474">
        <ele>453.536</ele>
        <time>2020-09-02T16:07:13Z</time>
      </trkpt>
      <trkpt lat="43.80709" lon="5.89463">
        <ele>453.411</ele>
        <time>2020-09-02T16:07:14Z</time>
      </trkpt>
      <trkpt lat="43.80704" lon="5.89451">
        <ele>453.121</ele>
        <time>2020-09-02T16:07:15Z</time>
      </trkpt>
      <trkpt lat="43.80698" lon="5.89438">
        <ele>453.003</ele>
        <time>2020-09-02T16:07:16Z</time>
      </trkpt>
      <trkpt lat="43.80692" lon="5.89426">
        <ele>453.108</ele>
        <time>2020-09-02T16:07:17Z</time>
      </trkpt>
      <trkpt lat="43.80684" lon="5.89415">
        <ele>452.899</ele>
        <time>2020-09-02T16:07:18Z</time>
      </trkpt>
      <trkpt lat="43.80676" lon="5.89403">
        <ele>452.468</ele>
        <time>2020-09-02T16:07:19Z</time>
      </trkpt>
      <trkpt lat="43.80667" lon="5.89391">
        <ele>451.888</ele>
        <time>2020-09-02T16:07:20Z</time>
      </trkpt>
      <trkpt lat="43.8066" lon="5.89381">
        <ele>451.425</ele>
        <time>2020-09-02T16:07:21Z</time>
      </trkpt>
      <trkpt lat="43.80653" lon="5.89372">
        <ele>450.996</ele>
        <time>2020-09-02T16:07:22Z</time>
      </trkpt>
      <trkpt lat="43.80647" lon="5.89363">
        <ele>450.624</ele>
        <time>2020-09-02T16:07:23Z</time>
      </trkpt>
      <trkpt lat="43.80642" lon="5.89355">
        <ele>450.01</ele>
        <time>2020-09-02T16:07:24Z</time>
      </trkpt>
      <trkpt lat="43.80636" lon="5.89346">
        <ele>449.993</ele>
        <time>2020-09-02T16:07:25Z</time>
      </trkpt>
      <trkpt lat="43.8063" lon="5.89337">
        <ele>449.579</ele>
        <time>2020-09-02T16:07:26Z</time>
      </trkpt>
      <trkpt lat="43.80624" lon="5.89327">
        <ele>449.605</ele>
        <time>2020-09-02T16:07:27Z</time>
      </trkpt>
      <trkpt lat="43.80618" lon="5.89316">
        <ele>449.425</ele>
        <time>2020-09-02T16:07:28Z</time>
      </trkpt>
      <trkpt lat="43.80612" lon="5.89304">
        <ele>449.108</ele>
        <time>2020-09-02T16:07:29Z</time>
      </trkpt>
      <trkpt lat="43.80608" lon="5.89293">
        <ele>448.545</ele>
        <time>2020-09-02T16:07:30Z</time>
      </trkpt>
      <trkpt lat="43.80605" lon="5.89283">
        <ele>447.874</ele>
        <time>2020-09-02T16:07:31Z</time>
      </trkpt>
      <trkpt lat="43.80602" lon="5.89273">
        <ele>447.674</ele>
        <time>2020-09-02T16:07:32Z</time>
      </trkpt>
      <trkpt lat="43.80601" lon="5.89263">
        <ele>447.261</ele>
        <time>2020-09-02T16:07:33Z</time>
      </trkpt>
      <trkpt lat="43.80601" lon="5.89252">
        <ele>447.052</ele>
        <time>2020-09-02T16:07:34Z</time>
      </trkpt>
      <trkpt lat="43.80601" lon="5.89242">
        <ele>446.82</ele>
        <time>2020-09-02T16:07:35Z</time>
      </trkpt>
      <trkpt lat="43.80601" lon="5.89233">
        <ele>446.786</ele>
        <time>2020-09-02T16:07:36Z</time>
      </trkpt>
      <trkpt lat="43.80601" lon="5.89224">
        <ele>446.719</ele>
        <time>2020-09-02T16:07:37Z</time>
      </trkpt>
      <trkpt lat="43.80601" lon="5.89217">
        <ele>446.683</ele>
        <time>2020-09-02T16:07:38Z</time>
      </trkpt>
      <trkpt lat="43.80601" lon="5.89209">
        <ele>446.525</ele>
        <time>2020-09-02T16:07:39Z</time>
      </trkpt>
      <trkpt lat="43.80601" lon="5.89202">
        <ele>446.517</ele>
        <time>2020-09-02T16:07:40Z</time>
      </trkpt>
      <trkpt lat="43.806" lon="5.89194">
        <ele>446.508</ele>
        <time>2020-09-02T16:07:41Z</time>
      </trkpt>
      <trkpt lat="43.80599" lon="5.89184">
        <ele>446.486</ele>
        <time>2020-09-02T16:07:42Z</time>
      </trkpt>
      <trkpt lat="43.80599" lon="5.89173">
        <ele>446.335</ele>
        <time>2020-09-02T16:07:43Z</time>
      </trkpt>
      <trkpt lat="43.80598" lon="5.89159">
        <ele>446.045</ele>
        <time>2020-09-02T16:07:44Z</time>
      </trkpt>
      <trkpt lat="43.80597" lon="5.89143">
        <ele>445.442</ele>
        <time>2020-09-02T16:07:45Z</time>
      </trkpt>
      <trkpt lat="43.80595" lon="5.89127">
        <ele>444.633</ele>
        <time>2020-09-02T16:07:46Z</time>
      </trkpt>
      <trkpt lat="43.80593" lon="5.89113">
        <ele>444.421</ele>
        <time>2020-09-02T16:07:47Z</time>
      </trkpt>
      <trkpt lat="43.80589" lon="5.89098">
        <ele>444.327</ele>
        <time>2020-09-02T16:07:48Z</time>
      </trkpt>
      <trkpt lat="43.80585" lon="5.89082">
        <ele>444.13</ele>
        <time>2020-09-02T16:07:49Z</time>
      </trkpt>
      <trkpt lat="43.80581" lon="5.89067">
        <ele>443.653</ele>
        <time>2020-09-02T16:07:50Z</time>
      </trkpt>
      <trkpt lat="43.80578" lon="5.8905">
        <ele>443.304</ele>
        <time>2020-09-02T16:07:51Z</time>
      </trkpt>
      <trkpt lat="43.80576" lon="5.89034">
        <ele>442.914</ele>
        <time>2020-09-02T16:07:52Z</time>
      </trkpt>
      <trkpt lat="43.80574" lon="5.89016">
        <ele>442.508</ele>
        <time>2020-09-02T16:07:53Z</time>
      </trkpt>
      <trkpt lat="43.80572" lon="5.89">
        <ele>442.063</ele>
        <time>2020-09-02T16:07:54Z</time>
      </trkpt>
      <trkpt lat="43.8057" lon="5.88984">
        <ele>441.692</ele>
        <time>2020-09-02T16:07:55Z</time>
      </trkpt>
      <trkpt lat="43.80567" lon="5.88968">
        <ele>441.062</ele>
        <time>2020-09-02T16:07:56Z</time>
      </trkpt>
      <trkpt lat="43.80563" lon="5.88952">
        <ele>440.829</ele>
        <time>2020-09-02T16:07:57Z</time>
      </trkpt>
      <trkpt lat="43.80558" lon="5.88937">
        <ele>440.33</ele>
        <time>2020-09-02T16:07:58Z</time>
      </trkpt>
      <trkpt lat="43.80552" lon="5.88922">
        <ele>439.998</ele>
        <time>2020-09-02T16:07:59Z</time>
      </trkpt>
      <trkpt lat="43.80545" lon="5.88907">
        <ele>439.734</ele>
        <time>2020-09-02T16:08:00Z</time>
      </trkpt>
      <trkpt lat="43.80539" lon="5.88891">
        <ele>439.617</ele>
        <time>2020-09-02T16:08:01Z</time>
      </trkpt>
      <trkpt lat="43.80533" lon="5.88873">
        <ele>439.286</ele>
        <time>2020-09-02T16:08:02Z</time>
      </trkpt>
      <trkpt lat="43.80528" lon="5.88858">
        <ele>438.86</ele>
        <time>2020-09-02T16:08:03Z</time>
      </trkpt>
      <trkpt lat="43.80523" lon="5.88844">
        <ele>438.526</ele>
        <time>2020-09-02T16:08:04Z</time>
      </trkpt>
      <trkpt lat="43.80518" lon="5.8883">
        <ele>438.408</ele>
        <time>2020-09-02T16:08:05Z</time>
      </trkpt>
      <trkpt lat="43.80515" lon="5.8882">
        <ele>438.236</ele>
        <time>2020-09-02T16:08:06Z</time>
      </trkpt>
      <trkpt lat="43.80512" lon="5.8881">
        <ele>438.055</ele>
        <time>2020-09-02T16:08:07Z</time>
      </trkpt>
      <trkpt lat="43.8051" lon="5.88799">
        <ele>437.755</ele>
        <time>2020-09-02T16:08:08Z</time>
      </trkpt>
      <trkpt lat="43.80508" lon="5.88789">
        <ele>437.482</ele>
        <time>2020-09-02T16:08:09Z</time>
      </trkpt>
      <trkpt lat="43.80505" lon="5.88777">
        <ele>437.253</ele>
        <time>2020-09-02T16:08:10Z</time>
      </trkpt>
      <trkpt lat="43.80503" lon="5.88765">
        <ele>437.031</ele>
        <time>2020-09-02T16:08:11Z</time>
      </trkpt>
      <trkpt lat="43.805" lon="5.88751">
        <ele>436.457</ele>
        <time>2020-09-02T16:08:12Z</time>
      </trkpt>
      <trkpt lat="43.80498" lon="5.88737">
        <ele>436.03</ele>
        <time>2020-09-02T16:08:13Z</time>
      </trkpt>
      <trkpt lat="43.80497" lon="5.88722">
        <ele>435.561</ele>
        <time>2020-09-02T16:08:14Z</time>
      </trkpt>
      <trkpt lat="43.80496" lon="5.88708">
        <ele>435.321</ele>
        <time>2020-09-02T16:08:15Z</time>
      </trkpt>
      <trkpt lat="43.80496" lon="5.88694">
        <ele>435.213</ele>
        <time>2020-09-02T16:08:16Z</time>
      </trkpt>
      <trkpt lat="43.80495" lon="5.88681">
        <ele>435.108</ele>
        <time>2020-09-02T16:08:17Z</time>
      </trkpt>
      <trkpt lat="43.80496" lon="5.88668">
        <ele>434.924</ele>
        <time>2020-09-02T16:08:18Z</time>
      </trkpt>
      <trkpt lat="43.80496" lon="5.88656">
        <ele>434.673</ele>
        <time>2020-09-02T16:08:19Z</time>
      </trkpt>
      <trkpt lat="43.80497" lon="5.88645">
        <ele>434.343</ele>
        <time>2020-09-02T16:08:20Z</time>
      </trkpt>
      <trkpt lat="43.80501" lon="5.88638">
        <ele>434.14</ele>
        <time>2020-09-02T16:08:21Z</time>
      </trkpt>
      <trkpt lat="43.80507" lon="5.88634">
        <ele>434.731</ele>
        <time>2020-09-02T16:08:22Z</time>
      </trkpt>
      <trkpt lat="43.80513" lon="5.8863">
        <ele>434.919</ele>
        <time>2020-09-02T16:08:23Z</time>
      </trkpt>
      <trkpt lat="43.8052" lon="5.88623">
        <ele>434.665</ele>
        <time>2020-09-02T16:08:24Z</time>
      </trkpt>
      <trkpt lat="43.80525" lon="5.88615">
        <ele>434.218</ele>
        <time>2020-09-02T16:08:25Z</time>
      </trkpt>
      <trkpt lat="43.8053" lon="5.88603">
        <ele>433.613</ele>
        <time>2020-09-02T16:08:26Z</time>
      </trkpt>
      <trkpt lat="43.80535" lon="5.8859">
        <ele>433.243</ele>
        <time>2020-09-02T16:08:27Z</time>
      </trkpt>
      <trkpt lat="43.8054" lon="5.88575">
        <ele>433.007</ele>
        <time>2020-09-02T16:08:28Z</time>
      </trkpt>
      <trkpt lat="43.80547" lon="5.8856">
        <ele>432.808</ele>
        <time>2020-09-02T16:08:29Z</time>
      </trkpt>
      <trkpt lat="43.80554" lon="5.88545">
        <ele>432.329</ele>
        <time>2020-09-02T16:08:30Z</time>
      </trkpt>
      <trkpt lat="43.80561" lon="5.8853">
        <ele>431.978</ele>
        <time>2020-09-02T16:08:31Z</time>
      </trkpt>
      <trkpt lat="43.80567" lon="5.88515">
        <ele>431.738</ele>
        <time>2020-09-02T16:08:32Z</time>
      </trkpt>
      <trkpt lat="43.80574" lon="5.88499">
        <ele>431.625</ele>
        <time>2020-09-02T16:08:33Z</time>
      </trkpt>
      <trkpt lat="43.80579" lon="5.88484">
        <ele>431.566</ele>
        <time>2020-09-02T16:08:34Z</time>
      </trkpt>
      <trkpt lat="43.80584" lon="5.88467">
        <ele>431.174</ele>
        <time>2020-09-02T16:08:35Z</time>
      </trkpt>
      <trkpt lat="43.80588" lon="5.8845">
        <ele>430.39</ele>
        <time>2020-09-02T16:08:36Z</time>
      </trkpt>
      <trkpt lat="43.80591" lon="5.88431">
        <ele>430.053</ele>
        <time>2020-09-02T16:08:37Z</time>
      </trkpt>
      <trkpt lat="43.80595" lon="5.88413">
        <ele>429.852</ele>
        <time>2020-09-02T16:08:38Z</time>
      </trkpt>
      <trkpt lat="43.80599" lon="5.88395">
        <ele>429.753</ele>
        <time>2020-09-02T16:08:39Z</time>
      </trkpt>
      <trkpt lat="43.80602" lon="5.88377">
        <ele>429.308</ele>
        <time>2020-09-02T16:08:40Z</time>
      </trkpt>
      <trkpt lat="43.80606" lon="5.88359">
        <ele>429.108</ele>
        <time>2020-09-02T16:08:41Z</time>
      </trkpt>
      <trkpt lat="43.80611" lon="5.88341">
        <ele>428.773</ele>
        <time>2020-09-02T16:08:42Z</time>
      </trkpt>
      <trkpt lat="43.80615" lon="5.88323">
        <ele>428.182</ele>
        <time>2020-09-02T16:08:43Z</time>
      </trkpt>
      <trkpt lat="43.80618" lon="5.88308">
        <ele>427.192</ele>
        <time>2020-09-02T16:08:44Z</time>
      </trkpt>
      <trkpt lat="43.80621" lon="5.88295">
        <ele>426.999</ele>
        <time>2020-09-02T16:08:45Z</time>
      </trkpt>
      <trkpt lat="43.80626" lon="5.88286">
        <ele>426.28</ele>
        <time>2020-09-02T16:08:46Z</time>
      </trkpt>
      <trkpt lat="43.8063" lon="5.88279">
        <ele>425.688</ele>
        <time>2020-09-02T16:08:47Z</time>
      </trkpt>
      <trkpt lat="43.80637" lon="5.88274">
        <ele>425.534</ele>
        <time>2020-09-02T16:08:48Z</time>
      </trkpt>
      <trkpt lat="43.80645" lon="5.8827">
        <ele>425.267</ele>
        <time>2020-09-02T16:08:49Z</time>
      </trkpt>
      <trkpt lat="43.80652" lon="5.88265">
        <ele>424.894</ele>
        <time>2020-09-02T16:08:50Z</time>
      </trkpt>
      <trkpt lat="43.80656" lon="5.88259">
        <ele>425.157</ele>
        <time>2020-09-02T16:08:51Z</time>
      </trkpt>
      <trkpt lat="43.80659" lon="5.88252">
        <ele>425.222</ele>
        <time>2020-09-02T16:08:52Z</time>
      </trkpt>
      <trkpt lat="43.80661" lon="5.88243">
        <ele>425.208</ele>
        <time>2020-09-02T16:08:53Z</time>
      </trkpt>
      <trkpt lat="43.80661" lon="5.88232">
        <ele>424.777</ele>
        <time>2020-09-02T16:08:54Z</time>
      </trkpt>
      <trkpt lat="43.80663" lon="5.88222">
        <ele>424.256</ele>
        <time>2020-09-02T16:08:55Z</time>
      </trkpt>
      <trkpt lat="43.80666" lon="5.88214">
        <ele>423.936</ele>
        <time>2020-09-02T16:08:56Z</time>
      </trkpt>
      <trkpt lat="43.80671" lon="5.88208">
        <ele>423.233</ele>
        <time>2020-09-02T16:08:57Z</time>
      </trkpt>
      <trkpt lat="43.80676" lon="5.88203">
        <ele>423.044</ele>
        <time>2020-09-02T16:08:58Z</time>
      </trkpt>
      <trkpt lat="43.80681" lon="5.88198">
        <ele>423.372</ele>
        <time>2020-09-02T16:08:59Z</time>
      </trkpt>
      <trkpt lat="43.80684" lon="5.88191">
        <ele>423.178</ele>
        <time>2020-09-02T16:09:00Z</time>
      </trkpt>
      <trkpt lat="43.80686" lon="5.88182">
        <ele>422.881</ele>
        <time>2020-09-02T16:09:01Z</time>
      </trkpt>
      <trkpt lat="43.80687" lon="5.88173">
        <ele>421.583</ele>
        <time>2020-09-02T16:09:02Z</time>
      </trkpt>
      <trkpt lat="43.80686" lon="5.88162">
        <ele>420.925</ele>
        <time>2020-09-02T16:09:03Z</time>
      </trkpt>
      <trkpt lat="43.80686" lon="5.88151">
        <ele>420.717</ele>
        <time>2020-09-02T16:09:04Z</time>
      </trkpt>
      <trkpt lat="43.80686" lon="5.88142">
        <ele>420.308</ele>
        <time>2020-09-02T16:09:05Z</time>
      </trkpt>
      <trkpt lat="43.80686" lon="5.88132">
        <ele>420.786</ele>
        <time>2020-09-02T16:09:07Z</time>
      </trkpt>
      <trkpt lat="43.80685" lon="5.88125">
        <ele>420.615</ele>
        <time>2020-09-02T16:09:15Z</time>
      </trkpt>
      <trkpt lat="43.8069" lon="5.88118">
        <ele>418.475</ele>
        <time>2020-09-02T16:09:28Z</time>
      </trkpt>
      <trkpt lat="43.8069" lon="5.8811">
        <ele>418.662</ele>
        <time>2020-09-02T16:09:30Z</time>
      </trkpt>
      <trkpt lat="43.80687" lon="5.88103">
        <ele>418.423</ele>
        <time>2020-09-02T16:09:32Z</time>
      </trkpt>
      <trkpt lat="43.80682" lon="5.88098">
        <ele>418.331</ele>
        <time>2020-09-02T16:09:34Z</time>
      </trkpt>
      <trkpt lat="43.80679" lon="5.88092">
        <ele>417.827</ele>
        <time>2020-09-02T16:09:36Z</time>
      </trkpt>
      <trkpt lat="43.8068" lon="5.88085">
        <ele>417.43</ele>
        <time>2020-09-02T16:09:48Z</time>
      </trkpt>
      <trkpt lat="43.80678" lon="5.88073">
        <ele>417.348</ele>
        <time>2020-09-02T16:09:50Z</time>
      </trkpt>
      <trkpt lat="43.80677" lon="5.88066">
        <ele>417.161</ele>
        <time>2020-09-02T16:09:51Z</time>
      </trkpt>
      <trkpt lat="43.80677" lon="5.88057">
        <ele>417.117</ele>
        <time>2020-09-02T16:09:52Z</time>
      </trkpt>
      <trkpt lat="43.80677" lon="5.88049">
        <ele>417.008</ele>
        <time>2020-09-02T16:09:53Z</time>
      </trkpt>
      <trkpt lat="43.80679" lon="5.8804">
        <ele>417.132</ele>
        <time>2020-09-02T16:09:54Z</time>
      </trkpt>
      <trkpt lat="43.80682" lon="5.88029">
        <ele>417.131</ele>
        <time>2020-09-02T16:09:55Z</time>
      </trkpt>
      <trkpt lat="43.80684" lon="5.88017">
        <ele>416.931</ele>
        <time>2020-09-02T16:09:56Z</time>
      </trkpt>
      <trkpt lat="43.80688" lon="5.88005">
        <ele>416.768</ele>
        <time>2020-09-02T16:09:57Z</time>
      </trkpt>
      <trkpt lat="43.80692" lon="5.87995">
        <ele>416.989</ele>
        <time>2020-09-02T16:09:58Z</time>
      </trkpt>
      <trkpt lat="43.80698" lon="5.87985">
        <ele>417.097</ele>
        <time>2020-09-02T16:09:59Z</time>
      </trkpt>
      <trkpt lat="43.80702" lon="5.87977">
        <ele>416.773</ele>
        <time>2020-09-02T16:10:00Z</time>
      </trkpt>
      <trkpt lat="43.80707" lon="5.87969">
        <ele>416.016</ele>
        <time>2020-09-02T16:10:01Z</time>
      </trkpt>
      <trkpt lat="43.80712" lon="5.87962">
        <ele>415.513</ele>
        <time>2020-09-02T16:10:02Z</time>
      </trkpt>
      <trkpt lat="43.80716" lon="5.87956">
        <ele>415.443</ele>
        <time>2020-09-02T16:10:03Z</time>
      </trkpt>
      <trkpt lat="43.8072" lon="5.87949">
        <ele>415.307</ele>
        <time>2020-09-02T16:10:04Z</time>
      </trkpt>
      <trkpt lat="43.80725" lon="5.87941">
        <ele>415.808</ele>
        <time>2020-09-02T16:10:05Z</time>
      </trkpt>
      <trkpt lat="43.8073" lon="5.87933">
        <ele>415.939</ele>
        <time>2020-09-02T16:10:06Z</time>
      </trkpt>
      <trkpt lat="43.80733" lon="5.87923">
        <ele>416.468</ele>
        <time>2020-09-02T16:10:07Z</time>
      </trkpt>
      <trkpt lat="43.80736" lon="5.87914">
        <ele>416.878</ele>
        <time>2020-09-02T16:10:08Z</time>
      </trkpt>
      <trkpt lat="43.80736" lon="5.87905">
        <ele>417.195</ele>
        <time>2020-09-02T16:10:09Z</time>
      </trkpt>
      <trkpt lat="43.80735" lon="5.87896">
        <ele>416.816</ele>
        <time>2020-09-02T16:10:10Z</time>
      </trkpt>
      <trkpt lat="43.80734" lon="5.87888">
        <ele>416.424</ele>
        <time>2020-09-02T16:10:11Z</time>
      </trkpt>
      <trkpt lat="43.80733" lon="5.87877">
        <ele>415.81</ele>
        <time>2020-09-02T16:10:12Z</time>
      </trkpt>
      <trkpt lat="43.80732" lon="5.87867">
        <ele>415.493</ele>
        <time>2020-09-02T16:10:13Z</time>
      </trkpt>
      <trkpt lat="43.80733" lon="5.87856">
        <ele>414.955</ele>
        <time>2020-09-02T16:10:14Z</time>
      </trkpt>
      <trkpt lat="43.80733" lon="5.87846">
        <ele>414.807</ele>
        <time>2020-09-02T16:10:15Z</time>
      </trkpt>
      <trkpt lat="43.80737" lon="5.87835">
        <ele>415.017</ele>
        <time>2020-09-02T16:10:16Z</time>
      </trkpt>
      <trkpt lat="43.80739" lon="5.87822">
        <ele>415.008</ele>
        <time>2020-09-02T16:10:17Z</time>
      </trkpt>
      <trkpt lat="43.80742" lon="5.87809">
        <ele>414.913</ele>
        <time>2020-09-02T16:10:18Z</time>
      </trkpt>
      <trkpt lat="43.80742" lon="5.87796">
        <ele>414.232</ele>
        <time>2020-09-02T16:10:19Z</time>
      </trkpt>
      <trkpt lat="43.80743" lon="5.87783">
        <ele>413.772</ele>
        <time>2020-09-02T16:10:20Z</time>
      </trkpt>
      <trkpt lat="43.80744" lon="5.87771">
        <ele>413.239</ele>
        <time>2020-09-02T16:10:21Z</time>
      </trkpt>
      <trkpt lat="43.80744" lon="5.87759">
        <ele>413.19</ele>
        <time>2020-09-02T16:10:22Z</time>
      </trkpt>
      <trkpt lat="43.8074" lon="5.87746">
        <ele>412.638</ele>
        <time>2020-09-02T16:10:23Z</time>
      </trkpt>
      <trkpt lat="43.80738" lon="5.87732">
        <ele>412.274</ele>
        <time>2020-09-02T16:10:24Z</time>
      </trkpt>
      <trkpt lat="43.80738" lon="5.87716">
        <ele>412.277</ele>
        <time>2020-09-02T16:10:25Z</time>
      </trkpt>
      <trkpt lat="43.80737" lon="5.87703">
        <ele>411.911</ele>
        <time>2020-09-02T16:10:26Z</time>
      </trkpt>
      <trkpt lat="43.80736" lon="5.8769">
        <ele>411.421</ele>
        <time>2020-09-02T16:10:27Z</time>
      </trkpt>
      <trkpt lat="43.80736" lon="5.87676">
        <ele>411.103</ele>
        <time>2020-09-02T16:10:28Z</time>
      </trkpt>
      <trkpt lat="43.80736" lon="5.87662">
        <ele>411.008</ele>
        <time>2020-09-02T16:10:29Z</time>
      </trkpt>
      <trkpt lat="43.80737" lon="5.87647">
        <ele>410.999</ele>
        <time>2020-09-02T16:10:30Z</time>
      </trkpt>
      <trkpt lat="43.80735" lon="5.87633">
        <ele>410.738</ele>
        <time>2020-09-02T16:10:31Z</time>
      </trkpt>
      <trkpt lat="43.80736" lon="5.8762">
        <ele>410.798</ele>
        <time>2020-09-02T16:10:32Z</time>
      </trkpt>
      <trkpt lat="43.80737" lon="5.87609">
        <ele>410.575</ele>
        <time>2020-09-02T16:10:33Z</time>
      </trkpt>
      <trkpt lat="43.80735" lon="5.876">
        <ele>409.576</ele>
        <time>2020-09-02T16:10:34Z</time>
      </trkpt>
      <trkpt lat="43.80737" lon="5.87588">
        <ele>409.554</ele>
        <time>2020-09-02T16:10:35Z</time>
      </trkpt>
      <trkpt lat="43.80739" lon="5.87577">
        <ele>409.51</ele>
        <time>2020-09-02T16:10:36Z</time>
      </trkpt>
      <trkpt lat="43.80741" lon="5.87566">
        <ele>409.253</ele>
        <time>2020-09-02T16:10:37Z</time>
      </trkpt>
      <trkpt lat="43.8074" lon="5.87558">
        <ele>408.824</ele>
        <time>2020-09-02T16:10:38Z</time>
      </trkpt>
      <trkpt lat="43.8074" lon="5.8755">
        <ele>409.204</ele>
        <time>2020-09-02T16:10:39Z</time>
      </trkpt>
      <trkpt lat="43.80739" lon="5.8754">
        <ele>409.214</ele>
        <time>2020-09-02T16:10:40Z</time>
      </trkpt>
      <trkpt lat="43.80737" lon="5.8753">
        <ele>409.308</ele>
        <time>2020-09-02T16:10:41Z</time>
      </trkpt>
      <trkpt lat="43.80736" lon="5.87519">
        <ele>409.37</ele>
        <time>2020-09-02T16:10:42Z</time>
      </trkpt>
      <trkpt lat="43.80733" lon="5.87511">
        <ele>408.839</ele>
        <time>2020-09-02T16:10:43Z</time>
      </trkpt>
      <trkpt lat="43.80729" lon="5.87504">
        <ele>407.779</ele>
        <time>2020-09-02T16:10:44Z</time>
      </trkpt>
      <trkpt lat="43.80726" lon="5.87493">
        <ele>406.736</ele>
        <time>2020-09-02T16:10:45Z</time>
      </trkpt>
      <trkpt lat="43.80723" lon="5.87484">
        <ele>405.577</ele>
        <time>2020-09-02T16:10:46Z</time>
      </trkpt>
      <trkpt lat="43.80719" lon="5.87476">
        <ele>405.515</ele>
        <time>2020-09-02T16:10:47Z</time>
      </trkpt>
      <trkpt lat="43.80715" lon="5.87468">
        <ele>405.021</ele>
        <time>2020-09-02T16:10:48Z</time>
      </trkpt>
      <trkpt lat="43.8071" lon="5.87463">
        <ele>404.964</ele>
        <time>2020-09-02T16:10:49Z</time>
      </trkpt>
      <trkpt lat="43.80706" lon="5.87456">
        <ele>404.765</ele>
        <time>2020-09-02T16:10:50Z</time>
      </trkpt>
      <trkpt lat="43.80702" lon="5.8745">
        <ele>405.068</ele>
        <time>2020-09-02T16:10:51Z</time>
      </trkpt>
      <trkpt lat="43.80698" lon="5.87443">
        <ele>405.014</ele>
        <time>2020-09-02T16:10:52Z</time>
      </trkpt>
      <trkpt lat="43.80694" lon="5.87437">
        <ele>405.108</ele>
        <time>2020-09-02T16:10:53Z</time>
      </trkpt>
      <trkpt lat="43.80693" lon="5.8743">
        <ele>405.454</ele>
        <time>2020-09-02T16:10:54Z</time>
      </trkpt>
      <trkpt lat="43.80689" lon="5.87424">
        <ele>405.533</ele>
        <time>2020-09-02T16:10:55Z</time>
      </trkpt>
      <trkpt lat="43.80689" lon="5.87413">
        <ele>405.463</ele>
        <time>2020-09-02T16:10:56Z</time>
      </trkpt>
      <trkpt lat="43.80688" lon="5.87402">
        <ele>405.13</ele>
        <time>2020-09-02T16:10:57Z</time>
      </trkpt>
      <trkpt lat="43.80688" lon="5.87392">
        <ele>404.621</ele>
        <time>2020-09-02T16:10:58Z</time>
      </trkpt>
      <trkpt lat="43.80687" lon="5.87383">
        <ele>404.759</ele>
        <time>2020-09-02T16:10:59Z</time>
      </trkpt>
      <trkpt lat="43.80688" lon="5.87374">
        <ele>404.435</ele>
        <time>2020-09-02T16:11:00Z</time>
      </trkpt>
      <trkpt lat="43.80687" lon="5.87364">
        <ele>404.098</ele>
        <time>2020-09-02T16:11:01Z</time>
      </trkpt>
      <trkpt lat="43.80684" lon="5.87356">
        <ele>403.789</ele>
        <time>2020-09-02T16:11:02Z</time>
      </trkpt>
      <trkpt lat="43.80682" lon="5.87347">
        <ele>403.406</ele>
        <time>2020-09-02T16:11:03Z</time>
      </trkpt>
      <trkpt lat="43.8068" lon="5.87337">
        <ele>403.326</ele>
        <time>2020-09-02T16:11:04Z</time>
      </trkpt>
      <trkpt lat="43.80679" lon="5.87328">
        <ele>403.108</ele>
        <time>2020-09-02T16:11:05Z</time>
      </trkpt>
      <trkpt lat="43.80677" lon="5.8732">
        <ele>402.936</ele>
        <time>2020-09-02T16:11:06Z</time>
      </trkpt>
      <trkpt lat="43.80676" lon="5.87312">
        <ele>402.845</ele>
        <time>2020-09-02T16:11:07Z</time>
      </trkpt>
      <trkpt lat="43.80675" lon="5.87303">
        <ele>402.955</ele>
        <time>2020-09-02T16:11:08Z</time>
      </trkpt>
      <trkpt lat="43.80674" lon="5.87293">
        <ele>403.282</ele>
        <time>2020-09-02T16:11:09Z</time>
      </trkpt>
      <trkpt lat="43.80672" lon="5.87283">
        <ele>403.253</ele>
        <time>2020-09-02T16:11:10Z</time>
      </trkpt>
      <trkpt lat="43.8067" lon="5.87274">
        <ele>402.391</ele>
        <time>2020-09-02T16:11:11Z</time>
      </trkpt>
      <trkpt lat="43.80667" lon="5.87265">
        <ele>402.017</ele>
        <time>2020-09-02T16:11:12Z</time>
      </trkpt>
      <trkpt lat="43.80665" lon="5.87255">
        <ele>401.95</ele>
        <time>2020-09-02T16:11:13Z</time>
      </trkpt>
      <trkpt lat="43.80664" lon="5.87246">
        <ele>401.684</ele>
        <time>2020-09-02T16:11:14Z</time>
      </trkpt>
      <trkpt lat="43.80663" lon="5.87236">
        <ele>401.207</ele>
        <time>2020-09-02T16:11:15Z</time>
      </trkpt>
      <trkpt lat="43.80662" lon="5.87226">
        <ele>400.417</ele>
        <time>2020-09-02T16:11:16Z</time>
      </trkpt>
      <trkpt lat="43.8066" lon="5.87214">
        <ele>400.108</ele>
        <time>2020-09-02T16:11:17Z</time>
      </trkpt>
      <trkpt lat="43.8066" lon="5.87205">
        <ele>398.586</ele>
        <time>2020-09-02T16:11:18Z</time>
      </trkpt>
      <trkpt lat="43.80659" lon="5.87194">
        <ele>397.985</ele>
        <time>2020-09-02T16:11:19Z</time>
      </trkpt>
      <trkpt lat="43.80659" lon="5.87183">
        <ele>397.595</ele>
        <time>2020-09-02T16:11:20Z</time>
      </trkpt>
      <trkpt lat="43.80659" lon="5.87173">
        <ele>397.482</ele>
        <time>2020-09-02T16:11:21Z</time>
      </trkpt>
      <trkpt lat="43.80657" lon="5.87162">
        <ele>397.053</ele>
        <time>2020-09-02T16:11:22Z</time>
      </trkpt>
      <trkpt lat="43.80655" lon="5.87151">
        <ele>397.571</ele>
        <time>2020-09-02T16:11:23Z</time>
      </trkpt>
      <trkpt lat="43.80655" lon="5.87141">
        <ele>396.997</ele>
        <time>2020-09-02T16:11:24Z</time>
      </trkpt>
      <trkpt lat="43.80652" lon="5.87133">
        <ele>396.59</ele>
        <time>2020-09-02T16:11:25Z</time>
      </trkpt>
      <trkpt lat="43.80649" lon="5.87124">
        <ele>395.396</ele>
        <time>2020-09-02T16:11:26Z</time>
      </trkpt>
      <trkpt lat="43.80647" lon="5.87115">
        <ele>395.431</ele>
        <time>2020-09-02T16:11:27Z</time>
      </trkpt>
      <trkpt lat="43.80644" lon="5.87107">
        <ele>395.124</ele>
        <time>2020-09-02T16:11:28Z</time>
      </trkpt>
      <trkpt lat="43.80641" lon="5.87098">
        <ele>394.708</ele>
        <time>2020-09-02T16:11:29Z</time>
      </trkpt>
      <trkpt lat="43.80639" lon="5.87087">
        <ele>394.577</ele>
        <time>2020-09-02T16:11:30Z</time>
      </trkpt>
      <trkpt lat="43.80637" lon="5.87075">
        <ele>394.276</ele>
        <time>2020-09-02T16:11:31Z</time>
      </trkpt>
      <trkpt lat="43.80636" lon="5.87064">
        <ele>394.076</ele>
        <time>2020-09-02T16:11:32Z</time>
      </trkpt>
      <trkpt lat="43.80634" lon="5.87052">
        <ele>394.093</ele>
        <time>2020-09-02T16:11:33Z</time>
      </trkpt>
      <trkpt lat="43.80632" lon="5.8704">
        <ele>393.564</ele>
        <time>2020-09-02T16:11:34Z</time>
      </trkpt>
      <trkpt lat="43.8063" lon="5.87028">
        <ele>393.632</ele>
        <time>2020-09-02T16:11:35Z</time>
      </trkpt>
      <trkpt lat="43.80628" lon="5.87017">
        <ele>393.618</ele>
        <time>2020-09-02T16:11:36Z</time>
      </trkpt>
      <trkpt lat="43.80625" lon="5.87007">
        <ele>393.381</ele>
        <time>2020-09-02T16:11:37Z</time>
      </trkpt>
      <trkpt lat="43.80622" lon="5.86996">
        <ele>393.242</ele>
        <time>2020-09-02T16:11:38Z</time>
      </trkpt>
      <trkpt lat="43.80618" lon="5.86986">
        <ele>392.422</ele>
        <time>2020-09-02T16:11:39Z</time>
      </trkpt>
      <trkpt lat="43.80613" lon="5.86974">
        <ele>392.014</ele>
        <time>2020-09-02T16:11:40Z</time>
      </trkpt>
      <trkpt lat="43.80609" lon="5.86965">
        <ele>391.808</ele>
        <time>2020-09-02T16:11:41Z</time>
      </trkpt>
      <trkpt lat="43.80603" lon="5.86956">
        <ele>391.072</ele>
        <time>2020-09-02T16:11:42Z</time>
      </trkpt>
      <trkpt lat="43.80599" lon="5.86948">
        <ele>391.161</ele>
        <time>2020-09-02T16:11:43Z</time>
      </trkpt>
      <trkpt lat="43.80594" lon="5.8694">
        <ele>391.411</ele>
        <time>2020-09-02T16:11:44Z</time>
      </trkpt>
      <trkpt lat="43.8059" lon="5.8693">
        <ele>391.248</ele>
        <time>2020-09-02T16:11:45Z</time>
      </trkpt>
      <trkpt lat="43.80587" lon="5.86919">
        <ele>390.949</ele>
        <time>2020-09-02T16:11:46Z</time>
      </trkpt>
      <trkpt lat="43.80584" lon="5.86906">
        <ele>390.567</ele>
        <time>2020-09-02T16:11:47Z</time>
      </trkpt>
      <trkpt lat="43.80581" lon="5.86894">
        <ele>390.333</ele>
        <time>2020-09-02T16:11:48Z</time>
      </trkpt>
      <trkpt lat="43.80579" lon="5.86882">
        <ele>390.656</ele>
        <time>2020-09-02T16:11:49Z</time>
      </trkpt>
      <trkpt lat="43.80576" lon="5.86872">
        <ele>391.037</ele>
        <time>2020-09-02T16:11:50Z</time>
      </trkpt>
      <trkpt lat="43.80573" lon="5.86861">
        <ele>390.949</ele>
        <time>2020-09-02T16:11:51Z</time>
      </trkpt>
      <trkpt lat="43.80569" lon="5.86851">
        <ele>390.913</ele>
        <time>2020-09-02T16:11:52Z</time>
      </trkpt>
      <trkpt lat="43.80565" lon="5.86841">
        <ele>390.408</ele>
        <time>2020-09-02T16:11:53Z</time>
      </trkpt>
      <trkpt lat="43.80559" lon="5.86831">
        <ele>389.631</ele>
        <time>2020-09-02T16:11:54Z</time>
      </trkpt>
      <trkpt lat="43.80554" lon="5.86822">
        <ele>389.04</ele>
        <time>2020-09-02T16:11:55Z</time>
      </trkpt>
      <trkpt lat="43.80548" lon="5.86812">
        <ele>388.91</ele>
        <time>2020-09-02T16:11:56Z</time>
      </trkpt>
      <trkpt lat="43.80544" lon="5.86802">
        <ele>389.217</ele>
        <time>2020-09-02T16:11:57Z</time>
      </trkpt>
      <trkpt lat="43.80541" lon="5.86791">
        <ele>388.728</ele>
        <time>2020-09-02T16:11:58Z</time>
      </trkpt>
      <trkpt lat="43.80537" lon="5.86781">
        <ele>388.356</ele>
        <time>2020-09-02T16:11:59Z</time>
      </trkpt>
      <trkpt lat="43.80534" lon="5.8677">
        <ele>388.242</ele>
        <time>2020-09-02T16:12:00Z</time>
      </trkpt>
      <trkpt lat="43.8053" lon="5.86758">
        <ele>387.575</ele>
        <time>2020-09-02T16:12:01Z</time>
      </trkpt>
      <trkpt lat="43.80526" lon="5.86746">
        <ele>386.772</ele>
        <time>2020-09-02T16:12:02Z</time>
      </trkpt>
      <trkpt lat="43.80522" lon="5.86733">
        <ele>386.313</ele>
        <time>2020-09-02T16:12:03Z</time>
      </trkpt>
      <trkpt lat="43.80519" lon="5.86721">
        <ele>386.414</ele>
        <time>2020-09-02T16:12:04Z</time>
      </trkpt>
      <trkpt lat="43.80518" lon="5.86708">
        <ele>385.608</ele>
        <time>2020-09-02T16:12:05Z</time>
      </trkpt>
      <trkpt lat="43.80517" lon="5.86696">
        <ele>385.625</ele>
        <time>2020-09-02T16:12:06Z</time>
      </trkpt>
      <trkpt lat="43.80513" lon="5.86685">
        <ele>385.354</ele>
        <time>2020-09-02T16:12:07Z</time>
      </trkpt>
      <trkpt lat="43.80511" lon="5.86673">
        <ele>385.634</ele>
        <time>2020-09-02T16:12:08Z</time>
      </trkpt>
      <trkpt lat="43.8051" lon="5.8666">
        <ele>384.911</ele>
        <time>2020-09-02T16:12:09Z</time>
      </trkpt>
      <trkpt lat="43.80508" lon="5.86646">
        <ele>384.652</ele>
        <time>2020-09-02T16:12:10Z</time>
      </trkpt>
      <trkpt lat="43.80505" lon="5.86633">
        <ele>384.07</ele>
        <time>2020-09-02T16:12:11Z</time>
      </trkpt>
      <trkpt lat="43.80502" lon="5.8662">
        <ele>384.126</ele>
        <time>2020-09-02T16:12:12Z</time>
      </trkpt>
      <trkpt lat="43.80497" lon="5.86607">
        <ele>383.819</ele>
        <time>2020-09-02T16:12:13Z</time>
      </trkpt>
      <trkpt lat="43.80491" lon="5.86594">
        <ele>383.994</ele>
        <time>2020-09-02T16:12:14Z</time>
      </trkpt>
      <trkpt lat="43.80485" lon="5.86582">
        <ele>383.857</ele>
        <time>2020-09-02T16:12:15Z</time>
      </trkpt>
      <trkpt lat="43.80479" lon="5.86571">
        <ele>383.522</ele>
        <time>2020-09-02T16:12:16Z</time>
      </trkpt>
      <trkpt lat="43.80472" lon="5.8656">
        <ele>382.508</ele>
        <time>2020-09-02T16:12:17Z</time>
      </trkpt>
      <trkpt lat="43.80465" lon="5.86553">
        <ele>381.957</ele>
        <time>2020-09-02T16:12:18Z</time>
      </trkpt>
      <trkpt lat="43.80458" lon="5.86546">
        <ele>381.726</ele>
        <time>2020-09-02T16:12:19Z</time>
      </trkpt>
      <trkpt lat="43.8045" lon="5.8654">
        <ele>381.836</ele>
        <time>2020-09-02T16:12:20Z</time>
      </trkpt>
      <trkpt lat="43.80443" lon="5.86534">
        <ele>381.433</ele>
        <time>2020-09-02T16:12:21Z</time>
      </trkpt>
      <trkpt lat="43.80437" lon="5.86527">
        <ele>381.134</ele>
        <time>2020-09-02T16:12:22Z</time>
      </trkpt>
      <trkpt lat="43.80431" lon="5.86522">
        <ele>380.832</ele>
        <time>2020-09-02T16:12:23Z</time>
      </trkpt>
      <trkpt lat="43.80426" lon="5.86518">
        <ele>381.238</ele>
        <time>2020-09-02T16:12:24Z</time>
      </trkpt>
      <trkpt lat="43.80421" lon="5.86513">
        <ele>380.991</ele>
        <time>2020-09-02T16:12:25Z</time>
      </trkpt>
      <trkpt lat="43.80416" lon="5.86509">
        <ele>379.552</ele>
        <time>2020-09-02T16:12:26Z</time>
      </trkpt>
      <trkpt lat="43.80411" lon="5.86505">
        <ele>379.353</ele>
        <time>2020-09-02T16:12:27Z</time>
      </trkpt>
      <trkpt lat="43.80408" lon="5.865">
        <ele>379.408</ele>
        <time>2020-09-02T16:12:28Z</time>
      </trkpt>
      <trkpt lat="43.80405" lon="5.86486">
        <ele>379.308</ele>
        <time>2020-09-02T16:12:30Z</time>
      </trkpt>
      <trkpt lat="43.80404" lon="5.86477">
        <ele>378.893</ele>
        <time>2020-09-02T16:12:31Z</time>
      </trkpt>
      <trkpt lat="43.80403" lon="5.86465">
        <ele>378.882</ele>
        <time>2020-09-02T16:12:32Z</time>
      </trkpt>
      <trkpt lat="43.80401" lon="5.86458">
        <ele>378.432</ele>
        <time>2020-09-02T16:12:33Z</time>
      </trkpt>
      <trkpt lat="43.80399" lon="5.8645">
        <ele>377.889</ele>
        <time>2020-09-02T16:12:34Z</time>
      </trkpt>
      <trkpt lat="43.80397" lon="5.86442">
        <ele>377.47</ele>
        <time>2020-09-02T16:12:35Z</time>
      </trkpt>
      <trkpt lat="43.80396" lon="5.86434">
        <ele>376.828</ele>
        <time>2020-09-02T16:12:36Z</time>
      </trkpt>
      <trkpt lat="43.80397" lon="5.86425">
        <ele>376.554</ele>
        <time>2020-09-02T16:12:37Z</time>
      </trkpt>
      <trkpt lat="43.80399" lon="5.86416">
        <ele>376.147</ele>
        <time>2020-09-02T16:12:38Z</time>
      </trkpt>
      <trkpt lat="43.804" lon="5.86407">
        <ele>375.344</ele>
        <time>2020-09-02T16:12:39Z</time>
      </trkpt>
      <trkpt lat="43.804" lon="5.86397">
        <ele>375.305</ele>
        <time>2020-09-02T16:12:40Z</time>
      </trkpt>
      <trkpt lat="43.80398" lon="5.86385">
        <ele>375.115</ele>
        <time>2020-09-02T16:12:41Z</time>
      </trkpt>
      <trkpt lat="43.80396" lon="5.86372">
        <ele>375.308</ele>
        <time>2020-09-02T16:12:42Z</time>
      </trkpt>
      <trkpt lat="43.80394" lon="5.86359">
        <ele>374.972</ele>
        <time>2020-09-02T16:12:43Z</time>
      </trkpt>
      <trkpt lat="43.80391" lon="5.86346">
        <ele>374.751</ele>
        <time>2020-09-02T16:12:44Z</time>
      </trkpt>
      <trkpt lat="43.80387" lon="5.86334">
        <ele>374.191</ele>
        <time>2020-09-02T16:12:45Z</time>
      </trkpt>
      <trkpt lat="43.80384" lon="5.86321">
        <ele>373.698</ele>
        <time>2020-09-02T16:12:46Z</time>
      </trkpt>
      <trkpt lat="43.80379" lon="5.86308">
        <ele>373.089</ele>
        <time>2020-09-02T16:12:47Z</time>
      </trkpt>
      <trkpt lat="43.80374" lon="5.86294">
        <ele>372.297</ele>
        <time>2020-09-02T16:12:48Z</time>
      </trkpt>
      <trkpt lat="43.80369" lon="5.86281">
        <ele>371.973</ele>
        <time>2020-09-02T16:12:49Z</time>
      </trkpt>
      <trkpt lat="43.80365" lon="5.86266">
        <ele>371.836</ele>
        <time>2020-09-02T16:12:50Z</time>
      </trkpt>
      <trkpt lat="43.8036" lon="5.86253">
        <ele>371.259</ele>
        <time>2020-09-02T16:12:51Z</time>
      </trkpt>
      <trkpt lat="43.80356" lon="5.8624">
        <ele>371.103</ele>
        <time>2020-09-02T16:12:52Z</time>
      </trkpt>
      <trkpt lat="43.8035" lon="5.86227">
        <ele>370.823</ele>
        <time>2020-09-02T16:12:53Z</time>
      </trkpt>
      <trkpt lat="43.80345" lon="5.86212">
        <ele>370.208</ele>
        <time>2020-09-02T16:12:54Z</time>
      </trkpt>
      <trkpt lat="43.80339" lon="5.86197">
        <ele>370.223</ele>
        <time>2020-09-02T16:12:55Z</time>
      </trkpt>
      <trkpt lat="43.80334" lon="5.86182">
        <ele>370.272</ele>
        <time>2020-09-02T16:12:56Z</time>
      </trkpt>
      <trkpt lat="43.80329" lon="5.8617">
        <ele>370.772</ele>
        <time>2020-09-02T16:12:57Z</time>
      </trkpt>
      <trkpt lat="43.80325" lon="5.86159">
        <ele>370.639</ele>
        <time>2020-09-02T16:12:58Z</time>
      </trkpt>
      <trkpt lat="43.80321" lon="5.86147">
        <ele>370.48</ele>
        <time>2020-09-02T16:12:59Z</time>
      </trkpt>
      <trkpt lat="43.80317" lon="5.86138">
        <ele>370.558</ele>
        <time>2020-09-02T16:13:00Z</time>
      </trkpt>
      <trkpt lat="43.80313" lon="5.86129">
        <ele>370.294</ele>
        <time>2020-09-02T16:13:01Z</time>
      </trkpt>
      <trkpt lat="43.80309" lon="5.8612">
        <ele>370.317</ele>
        <time>2020-09-02T16:13:02Z</time>
      </trkpt>
      <trkpt lat="43.80305" lon="5.86115">
        <ele>369.975</ele>
        <time>2020-09-02T16:13:03Z</time>
      </trkpt>
      <trkpt lat="43.80299" lon="5.86111">
        <ele>369.928</ele>
        <time>2020-09-02T16:13:04Z</time>
      </trkpt>
      <trkpt lat="43.80292" lon="5.86109">
        <ele>369.22</ele>
        <time>2020-09-02T16:13:05Z</time>
      </trkpt>
      <trkpt lat="43.80284" lon="5.86106">
        <ele>368.508</ele>
        <time>2020-09-02T16:13:06Z</time>
      </trkpt>
      <trkpt lat="43.80277" lon="5.86104">
        <ele>368.975</ele>
        <time>2020-09-02T16:13:07Z</time>
      </trkpt>
      <trkpt lat="43.8027" lon="5.861">
        <ele>368.464</ele>
        <time>2020-09-02T16:13:08Z</time>
      </trkpt>
      <trkpt lat="43.80263" lon="5.86094">
        <ele>367.894</ele>
        <time>2020-09-02T16:13:09Z</time>
      </trkpt>
      <trkpt lat="43.80257" lon="5.86086">
        <ele>366.441</ele>
        <time>2020-09-02T16:13:10Z</time>
      </trkpt>
      <trkpt lat="43.80253" lon="5.86083">
        <ele>366.722</ele>
        <time>2020-09-02T16:13:11Z</time>
      </trkpt>
      <trkpt lat="43.80247" lon="5.86077">
        <ele>366.29</ele>
        <time>2020-09-02T16:13:13Z</time>
      </trkpt>
      <trkpt lat="43.80242" lon="5.86072">
        <ele>365.876</ele>
        <time>2020-09-02T16:13:27Z</time>
      </trkpt>
      <trkpt lat="43.80237" lon="5.8607">
        <ele>365.539</ele>
        <time>2020-09-02T16:13:28Z</time>
      </trkpt>
      <trkpt lat="43.80231" lon="5.86068">
        <ele>365.342</ele>
        <time>2020-09-02T16:13:29Z</time>
      </trkpt>
      <trkpt lat="43.80224" lon="5.86063">
        <ele>365.522</ele>
        <time>2020-09-02T16:13:30Z</time>
      </trkpt>
      <trkpt lat="43.80218" lon="5.86061">
        <ele>364.614</ele>
        <time>2020-09-02T16:13:31Z</time>
      </trkpt>
      <trkpt lat="43.80213" lon="5.86057">
        <ele>364.608</ele>
        <time>2020-09-02T16:13:32Z</time>
      </trkpt>
      <trkpt lat="43.80208" lon="5.86053">
        <ele>363.722</ele>
        <time>2020-09-02T16:13:33Z</time>
      </trkpt>
      <trkpt lat="43.80202" lon="5.86048">
        <ele>363.311</ele>
        <time>2020-09-02T16:13:34Z</time>
      </trkpt>
      <trkpt lat="43.80197" lon="5.86046">
        <ele>363.371</ele>
        <time>2020-09-02T16:13:35Z</time>
      </trkpt>
      <trkpt lat="43.80193" lon="5.86042">
        <ele>362.938</ele>
        <time>2020-09-02T16:13:36Z</time>
      </trkpt>
      <trkpt lat="43.80186" lon="5.86039">
        <ele>362.899</ele>
        <time>2020-09-02T16:13:38Z</time>
      </trkpt>
      <trkpt lat="43.80179" lon="5.86031">
        <ele>362.647</ele>
        <time>2020-09-02T16:13:40Z</time>
      </trkpt>
      <trkpt lat="43.80175" lon="5.86025">
        <ele>362.043</ele>
        <time>2020-09-02T16:13:41Z</time>
      </trkpt>
      <trkpt lat="43.8017" lon="5.86018">
        <ele>361.726</ele>
        <time>2020-09-02T16:13:42Z</time>
      </trkpt>
      <trkpt lat="43.80165" lon="5.86011">
        <ele>361.423</ele>
        <time>2020-09-02T16:13:43Z</time>
      </trkpt>
      <trkpt lat="43.80163" lon="5.86003">
        <ele>361.383</ele>
        <time>2020-09-02T16:13:44Z</time>
      </trkpt>
      <trkpt lat="43.80161" lon="5.85995">
        <ele>361.111</ele>
        <time>2020-09-02T16:13:45Z</time>
      </trkpt>
      <trkpt lat="43.80158" lon="5.85987">
        <ele>360.108</ele>
        <time>2020-09-02T16:13:46Z</time>
      </trkpt>
      <trkpt lat="43.80156" lon="5.8598">
        <ele>360.05</ele>
        <time>2020-09-02T16:13:47Z</time>
      </trkpt>
      <trkpt lat="43.80154" lon="5.85973">
        <ele>359.579</ele>
        <time>2020-09-02T16:13:48Z</time>
      </trkpt>
      <trkpt lat="43.80152" lon="5.85967">
        <ele>358.659</ele>
        <time>2020-09-02T16:13:49Z</time>
      </trkpt>
      <trkpt lat="43.8015" lon="5.8596">
        <ele>358.966</ele>
        <time>2020-09-02T16:13:50Z</time>
      </trkpt>
      <trkpt lat="43.80149" lon="5.85948">
        <ele>359.367</ele>
        <time>2020-09-02T16:13:52Z</time>
      </trkpt>
      <trkpt lat="43.80149" lon="5.85942">
        <ele>359.755</ele>
        <time>2020-09-02T16:13:53Z</time>
      </trkpt>
      <trkpt lat="43.80148" lon="5.85931">
        <ele>359.381</ele>
        <time>2020-09-02T16:13:55Z</time>
      </trkpt>
      <trkpt lat="43.80147" lon="5.85924">
        <ele>359.494</ele>
        <time>2020-09-02T16:13:56Z</time>
      </trkpt>
      <trkpt lat="43.80146" lon="5.85916">
        <ele>358.988</ele>
        <time>2020-09-02T16:13:57Z</time>
      </trkpt>
      <trkpt lat="43.80145" lon="5.85908">
        <ele>359.424</ele>
        <time>2020-09-02T16:13:58Z</time>
      </trkpt>
      <trkpt lat="43.80144" lon="5.85901">
        <ele>358.926</ele>
        <time>2020-09-02T16:13:59Z</time>
      </trkpt>
      <trkpt lat="43.80141" lon="5.85894">
        <ele>359.108</ele>
        <time>2020-09-02T16:14:00Z</time>
      </trkpt>
      <trkpt lat="43.8014" lon="5.85887">
        <ele>359.286</ele>
        <time>2020-09-02T16:14:01Z</time>
      </trkpt>
      <trkpt lat="43.80139" lon="5.8588">
        <ele>359.125</ele>
        <time>2020-09-02T16:14:02Z</time>
      </trkpt>
      <trkpt lat="43.80139" lon="5.85874">
        <ele>359.515</ele>
        <time>2020-09-02T16:14:03Z</time>
      </trkpt>
      <trkpt lat="43.8014" lon="5.85867">
        <ele>359.422</ele>
        <time>2020-09-02T16:14:04Z</time>
      </trkpt>
      <trkpt lat="43.8014" lon="5.85859">
        <ele>359.123</ele>
        <time>2020-09-02T16:14:05Z</time>
      </trkpt>
      <trkpt lat="43.80139" lon="5.85851">
        <ele>358.841</ele>
        <time>2020-09-02T16:14:06Z</time>
      </trkpt>
      <trkpt lat="43.80138" lon="5.85837">
        <ele>358.577</ele>
        <time>2020-09-02T16:14:08Z</time>
      </trkpt>
      <trkpt lat="43.80137" lon="5.85831">
        <ele>358.14</ele>
        <time>2020-09-02T16:14:09Z</time>
      </trkpt>
      <trkpt lat="43.80133" lon="5.85819">
        <ele>357.678</ele>
        <time>2020-09-02T16:14:11Z</time>
      </trkpt>
      <trkpt lat="43.80132" lon="5.85813">
        <ele>357.533</ele>
        <time>2020-09-02T16:14:12Z</time>
      </trkpt>
      <trkpt lat="43.80131" lon="5.85805">
        <ele>356.626</ele>
        <time>2020-09-02T16:14:13Z</time>
      </trkpt>
      <trkpt lat="43.80129" lon="5.85798">
        <ele>356.908</ele>
        <time>2020-09-02T16:14:14Z</time>
      </trkpt>
      <trkpt lat="43.80127" lon="5.8579">
        <ele>356.915</ele>
        <time>2020-09-02T16:14:15Z</time>
      </trkpt>
      <trkpt lat="43.80125" lon="5.85781">
        <ele>357.194</ele>
        <time>2020-09-02T16:14:16Z</time>
      </trkpt>
      <trkpt lat="43.80123" lon="5.85773">
        <ele>357.334</ele>
        <time>2020-09-02T16:14:17Z</time>
      </trkpt>
      <trkpt lat="43.8012" lon="5.85766">
        <ele>357.591</ele>
        <time>2020-09-02T16:14:18Z</time>
      </trkpt>
      <trkpt lat="43.80117" lon="5.85757">
        <ele>357.692</ele>
        <time>2020-09-02T16:14:19Z</time>
      </trkpt>
      <trkpt lat="43.80114" lon="5.85749">
        <ele>357.53</ele>
        <time>2020-09-02T16:14:20Z</time>
      </trkpt>
      <trkpt lat="43.80108" lon="5.85739">
        <ele>357.226</ele>
        <time>2020-09-02T16:14:21Z</time>
      </trkpt>
      <trkpt lat="43.80103" lon="5.85729">
        <ele>356.979</ele>
        <time>2020-09-02T16:14:22Z</time>
      </trkpt>
      <trkpt lat="43.80098" lon="5.8572">
        <ele>357.111</ele>
        <time>2020-09-02T16:14:23Z</time>
      </trkpt>
      <trkpt lat="43.80093" lon="5.8571">
        <ele>357.121</ele>
        <time>2020-09-02T16:14:24Z</time>
      </trkpt>
      <trkpt lat="43.80089" lon="5.85702">
        <ele>357.103</ele>
        <time>2020-09-02T16:14:25Z</time>
      </trkpt>
      <trkpt lat="43.80083" lon="5.85693">
        <ele>357.208</ele>
        <time>2020-09-02T16:14:26Z</time>
      </trkpt>
      <trkpt lat="43.80078" lon="5.85684">
        <ele>357.359</ele>
        <time>2020-09-02T16:14:27Z</time>
      </trkpt>
      <trkpt lat="43.80073" lon="5.85675">
        <ele>356.778</ele>
        <time>2020-09-02T16:14:28Z</time>
      </trkpt>
      <trkpt lat="43.80069" lon="5.85666">
        <ele>356.978</ele>
        <time>2020-09-02T16:14:29Z</time>
      </trkpt>
      <trkpt lat="43.80065" lon="5.85658">
        <ele>356.995</ele>
        <time>2020-09-02T16:14:30Z</time>
      </trkpt>
      <trkpt lat="43.80061" lon="5.8565">
        <ele>356.986</ele>
        <time>2020-09-02T16:14:31Z</time>
      </trkpt>
      <trkpt lat="43.80056" lon="5.85641">
        <ele>356.154</ele>
        <time>2020-09-02T16:14:32Z</time>
      </trkpt>
      <trkpt lat="43.80051" lon="5.85632">
        <ele>355.88</ele>
        <time>2020-09-02T16:14:33Z</time>
      </trkpt>
      <trkpt lat="43.80047" lon="5.85624">
        <ele>355.853</ele>
        <time>2020-09-02T16:14:34Z</time>
      </trkpt>
      <trkpt lat="43.80043" lon="5.85617">
        <ele>355.656</ele>
        <time>2020-09-02T16:14:35Z</time>
      </trkpt>
      <trkpt lat="43.80039" lon="5.8561">
        <ele>355.359</ele>
        <time>2020-09-02T16:14:36Z</time>
      </trkpt>
      <trkpt lat="43.80035" lon="5.85604">
        <ele>354.814</ele>
        <time>2020-09-02T16:14:37Z</time>
      </trkpt>
      <trkpt lat="43.80029" lon="5.85598">
        <ele>354.408</ele>
        <time>2020-09-02T16:14:38Z</time>
      </trkpt>
      <trkpt lat="43.80024" lon="5.85594">
        <ele>353.993</ele>
        <time>2020-09-02T16:14:39Z</time>
      </trkpt>
      <trkpt lat="43.80019" lon="5.85589">
        <ele>353.542</ele>
        <time>2020-09-02T16:14:40Z</time>
      </trkpt>
      <trkpt lat="43.80013" lon="5.85583">
        <ele>353.312</ele>
        <time>2020-09-02T16:14:41Z</time>
      </trkpt>
      <trkpt lat="43.80006" lon="5.85577">
        <ele>353.199</ele>
        <time>2020-09-02T16:14:42Z</time>
      </trkpt>
      <trkpt lat="43.80001" lon="5.8557">
        <ele>352.53</ele>
        <time>2020-09-02T16:14:43Z</time>
      </trkpt>
      <trkpt lat="43.79996" lon="5.85563">
        <ele>352.168</ele>
        <time>2020-09-02T16:14:44Z</time>
      </trkpt>
      <trkpt lat="43.79992" lon="5.85555">
        <ele>351.444</ele>
        <time>2020-09-02T16:14:45Z</time>
      </trkpt>
      <trkpt lat="43.79986" lon="5.85548">
        <ele>351.487</ele>
        <time>2020-09-02T16:14:46Z</time>
      </trkpt>
      <trkpt lat="43.79981" lon="5.85542">
        <ele>351.143</ele>
        <time>2020-09-02T16:14:47Z</time>
      </trkpt>
      <trkpt lat="43.79976" lon="5.85535">
        <ele>351.164</ele>
        <time>2020-09-02T16:14:48Z</time>
      </trkpt>
      <trkpt lat="43.7997" lon="5.8553">
        <ele>351.21</ele>
        <time>2020-09-02T16:14:49Z</time>
      </trkpt>
      <trkpt lat="43.79966" lon="5.85527">
        <ele>350.908</ele>
        <time>2020-09-02T16:14:50Z</time>
      </trkpt>
      <trkpt lat="43.7996" lon="5.8552">
        <ele>350.612</ele>
        <time>2020-09-02T16:14:52Z</time>
      </trkpt>
      <trkpt lat="43.79954" lon="5.85508">
        <ele>350.591</ele>
        <time>2020-09-02T16:14:54Z</time>
      </trkpt>
      <trkpt lat="43.79951" lon="5.85501">
        <ele>350.061</ele>
        <time>2020-09-02T16:14:55Z</time>
      </trkpt>
      <trkpt lat="43.79947" lon="5.85494">
        <ele>349.858</ele>
        <time>2020-09-02T16:14:56Z</time>
      </trkpt>
      <trkpt lat="43.79942" lon="5.85487">
        <ele>349.689</ele>
        <time>2020-09-02T16:14:57Z</time>
      </trkpt>
      <trkpt lat="43.79937" lon="5.85479">
        <ele>349.127</ele>
        <time>2020-09-02T16:14:58Z</time>
      </trkpt>
      <trkpt lat="43.79933" lon="5.85471">
        <ele>349.043</ele>
        <time>2020-09-02T16:14:59Z</time>
      </trkpt>
      <trkpt lat="43.79929" lon="5.85464">
        <ele>349.086</ele>
        <time>2020-09-02T16:15:00Z</time>
      </trkpt>
      <trkpt lat="43.79926" lon="5.85456">
        <ele>348.749</ele>
        <time>2020-09-02T16:15:01Z</time>
      </trkpt>
      <trkpt lat="43.79923" lon="5.85448">
        <ele>348.702</ele>
        <time>2020-09-02T16:15:02Z</time>
      </trkpt>
      <trkpt lat="43.79919" lon="5.85441">
        <ele>348.622</ele>
        <time>2020-09-02T16:15:03Z</time>
      </trkpt>
      <trkpt lat="43.79914" lon="5.85433">
        <ele>348.608</ele>
        <time>2020-09-02T16:15:04Z</time>
      </trkpt>
      <trkpt lat="43.79911" lon="5.85425">
        <ele>348.942</ele>
        <time>2020-09-02T16:15:05Z</time>
      </trkpt>
      <trkpt lat="43.79908" lon="5.85415">
        <ele>348.921</ele>
        <time>2020-09-02T16:15:06Z</time>
      </trkpt>
      <trkpt lat="43.79905" lon="5.85406">
        <ele>349.011</ele>
        <time>2020-09-02T16:15:07Z</time>
      </trkpt>
      <trkpt lat="43.79901" lon="5.85398">
        <ele>348.518</ele>
        <time>2020-09-02T16:15:08Z</time>
      </trkpt>
      <trkpt lat="43.79898" lon="5.8539">
        <ele>348.789</ele>
        <time>2020-09-02T16:15:09Z</time>
      </trkpt>
      <trkpt lat="43.79895" lon="5.85382">
        <ele>348.747</ele>
        <time>2020-09-02T16:15:10Z</time>
      </trkpt>
      <trkpt lat="43.79892" lon="5.85376">
        <ele>348.383</ele>
        <time>2020-09-02T16:15:11Z</time>
      </trkpt>
      <trkpt lat="43.7989" lon="5.85368">
        <ele>347.826</ele>
        <time>2020-09-02T16:15:12Z</time>
      </trkpt>
      <trkpt lat="43.79888" lon="5.85361">
        <ele>347.946</ele>
        <time>2020-09-02T16:15:13Z</time>
      </trkpt>
      <trkpt lat="43.79886" lon="5.85353">
        <ele>347.888</ele>
        <time>2020-09-02T16:15:14Z</time>
      </trkpt>
      <trkpt lat="43.79884" lon="5.85344">
        <ele>347.716</ele>
        <time>2020-09-02T16:15:15Z</time>
      </trkpt>
      <trkpt lat="43.79882" lon="5.85336">
        <ele>347.508</ele>
        <time>2020-09-02T16:15:16Z</time>
      </trkpt>
      <trkpt lat="43.7988" lon="5.8533">
        <ele>347.242</ele>
        <time>2020-09-02T16:15:17Z</time>
      </trkpt>
      <trkpt lat="43.79877" lon="5.85324">
        <ele>347.011</ele>
        <time>2020-09-02T16:15:18Z</time>
      </trkpt>
      <trkpt lat="43.79874" lon="5.85318">
        <ele>346.681</ele>
        <time>2020-09-02T16:15:19Z</time>
      </trkpt>
      <trkpt lat="43.79869" lon="5.8531">
        <ele>347.068</ele>
        <time>2020-09-02T16:15:20Z</time>
      </trkpt>
      <trkpt lat="43.79864" lon="5.85301">
        <ele>346.939</ele>
        <time>2020-09-02T16:15:21Z</time>
      </trkpt>
      <trkpt lat="43.7986" lon="5.85292">
        <ele>346.957</ele>
        <time>2020-09-02T16:15:22Z</time>
      </trkpt>
      <trkpt lat="43.79856" lon="5.85283">
        <ele>346.813</ele>
        <time>2020-09-02T16:15:23Z</time>
      </trkpt>
      <trkpt lat="43.79853" lon="5.85272">
        <ele>346.586</ele>
        <time>2020-09-02T16:15:24Z</time>
      </trkpt>
      <trkpt lat="43.79849" lon="5.85261">
        <ele>346.192</ele>
        <time>2020-09-02T16:15:25Z</time>
      </trkpt>
      <trkpt lat="43.79846" lon="5.8525">
        <ele>346.073</ele>
        <time>2020-09-02T16:15:26Z</time>
      </trkpt>
      <trkpt lat="43.79843" lon="5.85238">
        <ele>345.32</ele>
        <time>2020-09-02T16:15:27Z</time>
      </trkpt>
      <trkpt lat="43.7984" lon="5.85226">
        <ele>345.208</ele>
        <time>2020-09-02T16:15:28Z</time>
      </trkpt>
      <trkpt lat="43.79838" lon="5.85214">
        <ele>344.727</ele>
        <time>2020-09-02T16:15:29Z</time>
      </trkpt>
      <trkpt lat="43.79836" lon="5.85203">
        <ele>344.126</ele>
        <time>2020-09-02T16:15:30Z</time>
      </trkpt>
      <trkpt lat="43.79833" lon="5.85194">
        <ele>343.676</ele>
        <time>2020-09-02T16:15:31Z</time>
      </trkpt>
      <trkpt lat="43.79831" lon="5.85184">
        <ele>343.353</ele>
        <time>2020-09-02T16:15:32Z</time>
      </trkpt>
      <trkpt lat="43.79827" lon="5.85174">
        <ele>343.234</ele>
        <time>2020-09-02T16:15:33Z</time>
      </trkpt>
      <trkpt lat="43.79822" lon="5.85164">
        <ele>342.912</ele>
        <time>2020-09-02T16:15:34Z</time>
      </trkpt>
      <trkpt lat="43.79818" lon="5.85154">
        <ele>342.478</ele>
        <time>2020-09-02T16:15:35Z</time>
      </trkpt>
      <trkpt lat="43.79814" lon="5.85144">
        <ele>342.471</ele>
        <time>2020-09-02T16:15:36Z</time>
      </trkpt>
      <trkpt lat="43.79809" lon="5.85136">
        <ele>342.072</ele>
        <time>2020-09-02T16:15:37Z</time>
      </trkpt>
      <trkpt lat="43.79805" lon="5.85129">
        <ele>341.613</ele>
        <time>2020-09-02T16:15:38Z</time>
      </trkpt>
      <trkpt lat="43.79803" lon="5.85123">
        <ele>341.514</ele>
        <time>2020-09-02T16:15:39Z</time>
      </trkpt>
      <trkpt lat="43.79801" lon="5.85117">
        <ele>341.808</ele>
        <time>2020-09-02T16:15:40Z</time>
      </trkpt>
      <trkpt lat="43.79799" lon="5.85111">
        <ele>341.835</ele>
        <time>2020-09-02T16:15:41Z</time>
      </trkpt>
      <trkpt lat="43.79797" lon="5.85104">
        <ele>341.674</ele>
        <time>2020-09-02T16:15:42Z</time>
      </trkpt>
      <trkpt lat="43.79796" lon="5.85098">
        <ele>341.544</ele>
        <time>2020-09-02T16:15:43Z</time>
      </trkpt>
      <trkpt lat="43.79795" lon="5.85087">
        <ele>341.641</ele>
        <time>2020-09-02T16:15:45Z</time>
      </trkpt>
      <trkpt lat="43.79792" lon="5.85077">
        <ele>340.952</ele>
        <time>2020-09-02T16:15:47Z</time>
      </trkpt>
      <trkpt lat="43.79793" lon="5.8507">
        <ele>340.64</ele>
        <time>2020-09-02T16:15:48Z</time>
      </trkpt>
      <trkpt lat="43.79793" lon="5.85062">
        <ele>340.176</ele>
        <time>2020-09-02T16:15:49Z</time>
      </trkpt>
      <trkpt lat="43.79793" lon="5.85054">
        <ele>339.859</ele>
        <time>2020-09-02T16:15:50Z</time>
      </trkpt>
      <trkpt lat="43.79795" lon="5.85046">
        <ele>339.643</ele>
        <time>2020-09-02T16:15:51Z</time>
      </trkpt>
      <trkpt lat="43.79798" lon="5.85039">
        <ele>339.564</ele>
        <time>2020-09-02T16:15:52Z</time>
      </trkpt>
      <trkpt lat="43.798" lon="5.85032">
        <ele>339.71</ele>
        <time>2020-09-02T16:15:53Z</time>
      </trkpt>
      <trkpt lat="43.79801" lon="5.85019">
        <ele>339.108</ele>
        <time>2020-09-02T16:15:55Z</time>
      </trkpt>
      <trkpt lat="43.79801" lon="5.8501">
        <ele>339.022</ele>
        <time>2020-09-02T16:15:56Z</time>
      </trkpt>
      <trkpt lat="43.798" lon="5.85001">
        <ele>339.031</ele>
        <time>2020-09-02T16:15:57Z</time>
      </trkpt>
      <trkpt lat="43.79798" lon="5.84993">
        <ele>339.281</ele>
        <time>2020-09-02T16:15:58Z</time>
      </trkpt>
      <trkpt lat="43.79795" lon="5.84983">
        <ele>338.988</ele>
        <time>2020-09-02T16:15:59Z</time>
      </trkpt>
      <trkpt lat="43.79792" lon="5.84973">
        <ele>338.679</ele>
        <time>2020-09-02T16:16:00Z</time>
      </trkpt>
      <trkpt lat="43.79788" lon="5.84963">
        <ele>338.547</ele>
        <time>2020-09-02T16:16:01Z</time>
      </trkpt>
      <trkpt lat="43.79784" lon="5.84955">
        <ele>338.173</ele>
        <time>2020-09-02T16:16:02Z</time>
      </trkpt>
      <trkpt lat="43.79779" lon="5.84947">
        <ele>337.656</ele>
        <time>2020-09-02T16:16:03Z</time>
      </trkpt>
      <trkpt lat="43.79773" lon="5.84938">
        <ele>337.196</ele>
        <time>2020-09-02T16:16:04Z</time>
      </trkpt>
      <trkpt lat="43.79768" lon="5.84929">
        <ele>337.131</ele>
        <time>2020-09-02T16:16:05Z</time>
      </trkpt>
      <trkpt lat="43.79764" lon="5.8492">
        <ele>337.624</ele>
        <time>2020-09-02T16:16:06Z</time>
      </trkpt>
      <trkpt lat="43.7976" lon="5.84912">
        <ele>337.408</ele>
        <time>2020-09-02T16:16:07Z</time>
      </trkpt>
      <trkpt lat="43.79757" lon="5.84904">
        <ele>337.217</ele>
        <time>2020-09-02T16:16:08Z</time>
      </trkpt>
      <trkpt lat="43.79754" lon="5.84897">
        <ele>337.076</ele>
        <time>2020-09-02T16:16:09Z</time>
      </trkpt>
      <trkpt lat="43.79752" lon="5.84889">
        <ele>336.646</ele>
        <time>2020-09-02T16:16:10Z</time>
      </trkpt>
      <trkpt lat="43.7975" lon="5.84882">
        <ele>336.483</ele>
        <time>2020-09-02T16:16:11Z</time>
      </trkpt>
      <trkpt lat="43.79749" lon="5.84874">
        <ele>336.024</ele>
        <time>2020-09-02T16:16:12Z</time>
      </trkpt>
      <trkpt lat="43.79748" lon="5.84865">
        <ele>335.552</ele>
        <time>2020-09-02T16:16:13Z</time>
      </trkpt>
      <trkpt lat="43.79749" lon="5.84856">
        <ele>334.468</ele>
        <time>2020-09-02T16:16:14Z</time>
      </trkpt>
      <trkpt lat="43.79746" lon="5.84847">
        <ele>334.281</ele>
        <time>2020-09-02T16:16:15Z</time>
      </trkpt>
      <trkpt lat="43.79744" lon="5.84839">
        <ele>333.957</ele>
        <time>2020-09-02T16:16:16Z</time>
      </trkpt>
      <trkpt lat="43.79741" lon="5.84833">
        <ele>333.9</ele>
        <time>2020-09-02T16:16:17Z</time>
      </trkpt>
      <trkpt lat="43.79738" lon="5.84823">
        <ele>333.72</ele>
        <time>2020-09-02T16:16:18Z</time>
      </trkpt>
      <trkpt lat="43.79735" lon="5.84813">
        <ele>333.808</ele>
        <time>2020-09-02T16:16:19Z</time>
      </trkpt>
      <trkpt lat="43.79733" lon="5.84804">
        <ele>333.553</ele>
        <time>2020-09-02T16:16:20Z</time>
      </trkpt>
      <trkpt lat="43.7973" lon="5.84794">
        <ele>333.452</ele>
        <time>2020-09-02T16:16:21Z</time>
      </trkpt>
      <trkpt lat="43.79727" lon="5.84785">
        <ele>333.532</ele>
        <time>2020-09-02T16:16:22Z</time>
      </trkpt>
      <trkpt lat="43.79725" lon="5.84774">
        <ele>333.029</ele>
        <time>2020-09-02T16:16:23Z</time>
      </trkpt>
      <trkpt lat="43.79722" lon="5.84764">
        <ele>332.44</ele>
        <time>2020-09-02T16:16:24Z</time>
      </trkpt>
      <trkpt lat="43.7972" lon="5.84753">
        <ele>332.218</ele>
        <time>2020-09-02T16:16:25Z</time>
      </trkpt>
      <trkpt lat="43.79718" lon="5.84743">
        <ele>331.994</ele>
        <time>2020-09-02T16:16:26Z</time>
      </trkpt>
      <trkpt lat="43.79716" lon="5.84732">
        <ele>331.667</ele>
        <time>2020-09-02T16:16:27Z</time>
      </trkpt>
      <trkpt lat="43.79715" lon="5.84722">
        <ele>331.174</ele>
        <time>2020-09-02T16:16:28Z</time>
      </trkpt>
      <trkpt lat="43.79714" lon="5.84713">
        <ele>330.756</ele>
        <time>2020-09-02T16:16:29Z</time>
      </trkpt>
      <trkpt lat="43.79712" lon="5.84703">
        <ele>330.521</ele>
        <time>2020-09-02T16:16:30Z</time>
      </trkpt>
      <trkpt lat="43.7971" lon="5.84694">
        <ele>330.708</ele>
        <time>2020-09-02T16:16:31Z</time>
      </trkpt>
      <trkpt lat="43.79709" lon="5.84686">
        <ele>330.775</ele>
        <time>2020-09-02T16:16:32Z</time>
      </trkpt>
      <trkpt lat="43.79707" lon="5.84676">
        <ele>330.274</ele>
        <time>2020-09-02T16:16:33Z</time>
      </trkpt>
      <trkpt lat="43.79706" lon="5.84666">
        <ele>329.914</ele>
        <time>2020-09-02T16:16:34Z</time>
      </trkpt>
      <trkpt lat="43.79706" lon="5.84657">
        <ele>329.741</ele>
        <time>2020-09-02T16:16:35Z</time>
      </trkpt>
      <trkpt lat="43.79704" lon="5.84647">
        <ele>329.542</ele>
        <time>2020-09-02T16:16:36Z</time>
      </trkpt>
      <trkpt lat="43.79704" lon="5.84637">
        <ele>329.45</ele>
        <time>2020-09-02T16:16:37Z</time>
      </trkpt>
      <trkpt lat="43.79703" lon="5.84627">
        <ele>328.936</ele>
        <time>2020-09-02T16:16:38Z</time>
      </trkpt>
      <trkpt lat="43.79701" lon="5.84618">
        <ele>328.619</ele>
        <time>2020-09-02T16:16:39Z</time>
      </trkpt>
      <trkpt lat="43.79698" lon="5.84609">
        <ele>328.491</ele>
        <time>2020-09-02T16:16:40Z</time>
      </trkpt>
      <trkpt lat="43.79695" lon="5.84599">
        <ele>328.181</ele>
        <time>2020-09-02T16:16:41Z</time>
      </trkpt>
      <trkpt lat="43.79692" lon="5.8459">
        <ele>327.819</ele>
        <time>2020-09-02T16:16:42Z</time>
      </trkpt>
      <trkpt lat="43.79688" lon="5.84583">
        <ele>328.008</ele>
        <time>2020-09-02T16:16:43Z</time>
      </trkpt>
      <trkpt lat="43.79688" lon="5.84576">
        <ele>327.877</ele>
        <time>2020-09-02T16:16:44Z</time>
      </trkpt>
      <trkpt lat="43.79685" lon="5.84567">
        <ele>327.696</ele>
        <time>2020-09-02T16:16:46Z</time>
      </trkpt>
      <trkpt lat="43.79682" lon="5.84558">
        <ele>327.466</ele>
        <time>2020-09-02T16:16:48Z</time>
      </trkpt>
      <trkpt lat="43.79681" lon="5.84552">
        <ele>327.213</ele>
        <time>2020-09-02T16:16:49Z</time>
      </trkpt>
      <trkpt lat="43.79682" lon="5.8454">
        <ele>326.944</ele>
        <time>2020-09-02T16:16:51Z</time>
      </trkpt>
      <trkpt lat="43.79687" lon="5.84529">
        <ele>326.452</ele>
        <time>2020-09-02T16:16:53Z</time>
      </trkpt>
      <trkpt lat="43.7969" lon="5.84523">
        <ele>326.158</ele>
        <time>2020-09-02T16:16:54Z</time>
      </trkpt>
      <trkpt lat="43.79694" lon="5.84519">
        <ele>325.861</ele>
        <time>2020-09-02T16:16:55Z</time>
      </trkpt>
      <trkpt lat="43.79697" lon="5.84515">
        <ele>325.777</ele>
        <time>2020-09-02T16:16:56Z</time>
      </trkpt>
      <trkpt lat="43.79701" lon="5.84507">
        <ele>325.761</ele>
        <time>2020-09-02T16:16:58Z</time>
      </trkpt>
      <trkpt lat="43.79703" lon="5.84501">
        <ele>325.727</ele>
        <time>2020-09-02T16:17:00Z</time>
      </trkpt>
      <trkpt lat="43.79706" lon="5.84493">
        <ele>325.008</ele>
        <time>2020-09-02T16:17:02Z</time>
      </trkpt>
      <trkpt lat="43.79709" lon="5.84485">
        <ele>324.975</ele>
        <time>2020-09-02T16:17:04Z</time>
      </trkpt>
      <trkpt lat="43.79711" lon="5.84476">
        <ele>324.914</ele>
        <time>2020-09-02T16:17:06Z</time>
      </trkpt>
      <trkpt lat="43.79714" lon="5.84468">
        <ele>324.394</ele>
        <time>2020-09-02T16:17:08Z</time>
      </trkpt>
      <trkpt lat="43.79716" lon="5.84457">
        <ele>323.661</ele>
        <time>2020-09-02T16:17:10Z</time>
      </trkpt>
      <trkpt lat="43.79717" lon="5.84447">
        <ele>322.952</ele>
        <time>2020-09-02T16:17:12Z</time>
      </trkpt>
      <trkpt lat="43.79719" lon="5.84435">
        <ele>322.42</ele>
        <time>2020-09-02T16:17:14Z</time>
      </trkpt>
      <trkpt lat="43.7972" lon="5.84428">
        <ele>322.226</ele>
        <time>2020-09-02T16:17:15Z</time>
      </trkpt>
      <trkpt lat="43.79721" lon="5.84422">
        <ele>321.889</ele>
        <time>2020-09-02T16:17:16Z</time>
      </trkpt>
      <trkpt lat="43.79726" lon="5.84412">
        <ele>321.375</ele>
        <time>2020-09-02T16:17:18Z</time>
      </trkpt>
      <trkpt lat="43.79728" lon="5.84402">
        <ele>321.328</ele>
        <time>2020-09-02T16:17:20Z</time>
      </trkpt>
      <trkpt lat="43.79727" lon="5.84394">
        <ele>320.22</ele>
        <time>2020-09-02T16:17:22Z</time>
      </trkpt>
      <trkpt lat="43.79729" lon="5.84385">
        <ele>319.508</ele>
        <time>2020-09-02T16:17:24Z</time>
      </trkpt>
      <trkpt lat="43.7973" lon="5.84378">
        <ele>319.955</ele>
        <time>2020-09-02T16:17:25Z</time>
      </trkpt>
      <trkpt lat="43.79731" lon="5.84372">
        <ele>319.884</ele>
        <time>2020-09-02T16:17:26Z</time>
      </trkpt>
      <trkpt lat="43.79732" lon="5.84365">
        <ele>319.644</ele>
        <time>2020-09-02T16:17:27Z</time>
      </trkpt>
      <trkpt lat="43.79734" lon="5.84357">
        <ele>319.671</ele>
        <time>2020-09-02T16:17:28Z</time>
      </trkpt>
      <trkpt lat="43.79737" lon="5.84345">
        <ele>319.962</ele>
        <time>2020-09-02T16:17:30Z</time>
      </trkpt>
      <trkpt lat="43.79738" lon="5.84335">
        <ele>319.99</ele>
        <time>2020-09-02T16:17:32Z</time>
      </trkpt>
      <trkpt lat="43.79737" lon="5.84326">
        <ele>320.596</ele>
        <time>2020-09-02T16:17:37Z</time>
      </trkpt>
      <trkpt lat="43.79735" lon="5.84315">
        <ele>320.929</ele>
        <time>2020-09-02T16:17:39Z</time>
      </trkpt>
      <trkpt lat="43.79734" lon="5.84306">
        <ele>320.872</ele>
        <time>2020-09-02T16:17:41Z</time>
      </trkpt>
      <trkpt lat="43.79737" lon="5.84295">
        <ele>321.513</ele>
        <time>2020-09-02T16:17:43Z</time>
      </trkpt>
      <trkpt lat="43.79739" lon="5.84288">
        <ele>321.814</ele>
        <time>2020-09-02T16:17:44Z</time>
      </trkpt>
      <trkpt lat="43.7974" lon="5.8428">
        <ele>321.508</ele>
        <time>2020-09-02T16:17:45Z</time>
      </trkpt>
      <trkpt lat="43.79742" lon="5.84272">
        <ele>321.175</ele>
        <time>2020-09-02T16:17:46Z</time>
      </trkpt>
      <trkpt lat="43.79742" lon="5.84262">
        <ele>321.194</ele>
        <time>2020-09-02T16:17:47Z</time>
      </trkpt>
      <trkpt lat="43.79742" lon="5.84252">
        <ele>320.794</ele>
        <time>2020-09-02T16:17:48Z</time>
      </trkpt>
      <trkpt lat="43.79742" lon="5.84241">
        <ele>320.671</ele>
        <time>2020-09-02T16:17:49Z</time>
      </trkpt>
      <trkpt lat="43.79742" lon="5.84231">
        <ele>320.252</ele>
        <time>2020-09-02T16:17:50Z</time>
      </trkpt>
      <trkpt lat="43.79741" lon="5.84219">
        <ele>320.15</ele>
        <time>2020-09-02T16:17:51Z</time>
      </trkpt>
      <trkpt lat="43.79741" lon="5.84205">
        <ele>319.726</ele>
        <time>2020-09-02T16:17:52Z</time>
      </trkpt>
      <trkpt lat="43.7974" lon="5.84192">
        <ele>319.739</ele>
        <time>2020-09-02T16:17:53Z</time>
      </trkpt>
      <trkpt lat="43.7974" lon="5.84179">
        <ele>319.726</ele>
        <time>2020-09-02T16:17:54Z</time>
      </trkpt>
      <trkpt lat="43.79739" lon="5.84168">
        <ele>319.247</ele>
        <time>2020-09-02T16:17:55Z</time>
      </trkpt>
      <trkpt lat="43.7974" lon="5.84155">
        <ele>319.411</ele>
        <time>2020-09-02T16:17:56Z</time>
      </trkpt>
      <trkpt lat="43.79739" lon="5.84145">
        <ele>318.808</ele>
        <time>2020-09-02T16:17:57Z</time>
      </trkpt>
      <trkpt lat="43.79738" lon="5.84133">
        <ele>318.91</ele>
        <time>2020-09-02T16:17:58Z</time>
      </trkpt>
      <trkpt lat="43.79738" lon="5.84121">
        <ele>319.579</ele>
        <time>2020-09-02T16:17:59Z</time>
      </trkpt>
      <trkpt lat="43.79739" lon="5.84112">
        <ele>319.689</ele>
        <time>2020-09-02T16:18:00Z</time>
      </trkpt>
      <trkpt lat="43.7974" lon="5.84102">
        <ele>319.776</ele>
        <time>2020-09-02T16:18:01Z</time>
      </trkpt>
      <trkpt lat="43.7974" lon="5.84092">
        <ele>319.527</ele>
        <time>2020-09-02T16:18:02Z</time>
      </trkpt>
      <trkpt lat="43.79743" lon="5.84083">
        <ele>318.925</ele>
        <time>2020-09-02T16:18:04Z</time>
      </trkpt>
      <trkpt lat="43.79746" lon="5.84078">
        <ele>318.811</ele>
        <time>2020-09-02T16:18:06Z</time>
      </trkpt>
      <trkpt lat="43.7975" lon="5.84074">
        <ele>318.634</ele>
        <time>2020-09-02T16:18:08Z</time>
      </trkpt>
      <trkpt lat="43.79753" lon="5.84066">
        <ele>317.711</ele>
        <time>2020-09-02T16:18:10Z</time>
      </trkpt>
      <trkpt lat="43.79755" lon="5.84057">
        <ele>317.921</ele>
        <time>2020-09-02T16:18:12Z</time>
      </trkpt>
      <trkpt lat="43.79756" lon="5.84047">
        <ele>317.703</ele>
        <time>2020-09-02T16:18:14Z</time>
      </trkpt>
      <trkpt lat="43.79759" lon="5.8404">
        <ele>318.508</ele>
        <time>2020-09-02T16:18:15Z</time>
      </trkpt>
      <trkpt lat="43.7976" lon="5.84033">
        <ele>318.539</ele>
        <time>2020-09-02T16:18:16Z</time>
      </trkpt>
      <trkpt lat="43.79762" lon="5.84024">
        <ele>318.128</ele>
        <time>2020-09-02T16:18:17Z</time>
      </trkpt>
      <trkpt lat="43.79764" lon="5.84015">
        <ele>318.368</ele>
        <time>2020-09-02T16:18:18Z</time>
      </trkpt>
      <trkpt lat="43.79765" lon="5.84007">
        <ele>318.425</ele>
        <time>2020-09-02T16:18:19Z</time>
      </trkpt>
      <trkpt lat="43.79765" lon="5.84">
        <ele>318.156</ele>
        <time>2020-09-02T16:18:20Z</time>
      </trkpt>
      <trkpt lat="43.79765" lon="5.83993">
        <ele>318.024</ele>
        <time>2020-09-02T16:18:21Z</time>
      </trkpt>
      <trkpt lat="43.79763" lon="5.83987">
        <ele>317.69</ele>
        <time>2020-09-02T16:18:22Z</time>
      </trkpt>
      <trkpt lat="43.79757" lon="5.8399">
        <ele>319.343</ele>
        <time>2020-09-02T16:18:23Z</time>
      </trkpt>
      <trkpt lat="43.79751" lon="5.83989">
        <ele>321.785</ele>
        <time>2020-09-02T16:18:25Z</time>
      </trkpt>
      <trkpt lat="43.79745" lon="5.83991">
        <ele>322.589</ele>
        <time>2020-09-02T16:18:27Z</time>
      </trkpt>
      <trkpt lat="43.79739" lon="5.83999">
        <ele>323.217</ele>
        <time>2020-09-02T16:18:29Z</time>
      </trkpt>
      <trkpt lat="43.7973" lon="5.84017">
        <ele>324.908</ele>
        <time>2020-09-02T16:18:30Z</time>
      </trkpt>
      <trkpt lat="43.79725" lon="5.84029">
        <ele>325.496</ele>
        <time>2020-09-02T16:18:31Z</time>
      </trkpt>
      <trkpt lat="43.7972" lon="5.84041">
        <ele>326.735</ele>
        <time>2020-09-02T16:18:32Z</time>
      </trkpt>
      <trkpt lat="43.79715" lon="5.84053">
        <ele>327.885</ele>
        <time>2020-09-02T16:18:33Z</time>
      </trkpt>
      <trkpt lat="43.79708" lon="5.84067">
        <ele>328.742</ele>
        <time>2020-09-02T16:18:34Z</time>
      </trkpt>
      <trkpt lat="43.79702" lon="5.8408">
        <ele>329.583</ele>
        <time>2020-09-02T16:18:35Z</time>
      </trkpt>
      <trkpt lat="43.79697" lon="5.84094">
        <ele>330.041</ele>
        <time>2020-09-02T16:18:36Z</time>
      </trkpt>
      <trkpt lat="43.79693" lon="5.84106">
        <ele>331.667</ele>
        <time>2020-09-02T16:18:37Z</time>
      </trkpt>
      <trkpt lat="43.7969" lon="5.84121">
        <ele>332.35</ele>
        <time>2020-09-02T16:18:38Z</time>
      </trkpt>
      <trkpt lat="43.79686" lon="5.84137">
        <ele>333.982</ele>
        <time>2020-09-02T16:18:39Z</time>
      </trkpt>
      <trkpt lat="43.79681" lon="5.84151">
        <ele>335.243</ele>
        <time>2020-09-02T16:18:40Z</time>
      </trkpt>
      <trkpt lat="43.79675" lon="5.84164">
        <ele>337.017</ele>
        <time>2020-09-02T16:18:41Z</time>
      </trkpt>
      <trkpt lat="43.79668" lon="5.84178">
        <ele>339.008</ele>
        <time>2020-09-02T16:18:42Z</time>
      </trkpt>
      <trkpt lat="43.79659" lon="5.84193">
        <ele>340.186</ele>
        <time>2020-09-02T16:18:43Z</time>
      </trkpt>
      <trkpt lat="43.79651" lon="5.84206">
        <ele>341.595</ele>
        <time>2020-09-02T16:18:44Z</time>
      </trkpt>
      <trkpt lat="43.79645" lon="5.84219">
        <ele>342.545</ele>
        <time>2020-09-02T16:18:45Z</time>
      </trkpt>
      <trkpt lat="43.79639" lon="5.84229">
        <ele>343.952</ele>
        <time>2020-09-02T16:18:46Z</time>
      </trkpt>
      <trkpt lat="43.79634" lon="5.84237">
        <ele>344.983</ele>
        <time>2020-09-02T16:18:47Z</time>
      </trkpt>
      <trkpt lat="43.7963" lon="5.84245">
        <ele>345.541</ele>
        <time>2020-09-02T16:18:48Z</time>
      </trkpt>
      <trkpt lat="43.79626" lon="5.84254">
        <ele>346.247</ele>
        <time>2020-09-02T16:18:49Z</time>
      </trkpt>
      <trkpt lat="43.79622" lon="5.84262">
        <ele>346.91</ele>
        <time>2020-09-02T16:18:50Z</time>
      </trkpt>
      <trkpt lat="43.79616" lon="5.8427">
        <ele>347.354</ele>
        <time>2020-09-02T16:18:51Z</time>
      </trkpt>
      <trkpt lat="43.7961" lon="5.8428">
        <ele>348.356</ele>
        <time>2020-09-02T16:18:52Z</time>
      </trkpt>
      <trkpt lat="43.79603" lon="5.84291">
        <ele>349.311</ele>
        <time>2020-09-02T16:18:53Z</time>
      </trkpt>
      <trkpt lat="43.79596" lon="5.84302">
        <ele>349.908</ele>
        <time>2020-09-02T16:18:54Z</time>
      </trkpt>
      <trkpt lat="43.79589" lon="5.84312">
        <ele>350.983</ele>
        <time>2020-09-02T16:18:55Z</time>
      </trkpt>
      <trkpt lat="43.79583" lon="5.84323">
        <ele>351.882</ele>
        <time>2020-09-02T16:18:56Z</time>
      </trkpt>
      <trkpt lat="43.79577" lon="5.84333">
        <ele>353.212</ele>
        <time>2020-09-02T16:18:57Z</time>
      </trkpt>
      <trkpt lat="43.7957" lon="5.84342">
        <ele>354.229</ele>
        <time>2020-09-02T16:18:58Z</time>
      </trkpt>
      <trkpt lat="43.79562" lon="5.8435">
        <ele>355.29</ele>
        <time>2020-09-02T16:18:59Z</time>
      </trkpt>
      <trkpt lat="43.79553" lon="5.84357">
        <ele>356.338</ele>
        <time>2020-09-02T16:19:00Z</time>
      </trkpt>
      <trkpt lat="43.79545" lon="5.84364">
        <ele>356.894</ele>
        <time>2020-09-02T16:19:01Z</time>
      </trkpt>
      <trkpt lat="43.79536" lon="5.84372">
        <ele>356.937</ele>
        <time>2020-09-02T16:19:02Z</time>
      </trkpt>
      <trkpt lat="43.79525" lon="5.8438">
        <ele>357.355</ele>
        <time>2020-09-02T16:19:03Z</time>
      </trkpt>
      <trkpt lat="43.79515" lon="5.84388">
        <ele>358.707</ele>
        <time>2020-09-02T16:19:04Z</time>
      </trkpt>
      <trkpt lat="43.79503" lon="5.84394">
        <ele>359.817</ele>
        <time>2020-09-02T16:19:05Z</time>
      </trkpt>
      <trkpt lat="43.79492" lon="5.84401">
        <ele>360.908</ele>
        <time>2020-09-02T16:19:06Z</time>
      </trkpt>
      <trkpt lat="43.79481" lon="5.84408">
        <ele>362.243</ele>
        <time>2020-09-02T16:19:07Z</time>
      </trkpt>
      <trkpt lat="43.79469" lon="5.84414">
        <ele>363.182</ele>
        <time>2020-09-02T16:19:08Z</time>
      </trkpt>
      <trkpt lat="43.79458" lon="5.84421">
        <ele>363.572</ele>
        <time>2020-09-02T16:19:09Z</time>
      </trkpt>
      <trkpt lat="43.79452" lon="5.84425">
        <ele>363.999</ele>
        <time>2020-09-02T16:19:10Z</time>
      </trkpt>
      <trkpt lat="43.79446" lon="5.84429">
        <ele>364.32</ele>
        <time>2020-09-02T16:19:11Z</time>
      </trkpt>
      <trkpt lat="43.79443" lon="5.84437">
        <ele>364.538</ele>
        <time>2020-09-02T16:19:13Z</time>
      </trkpt>
      <trkpt lat="43.79443" lon="5.84444">
        <ele>365.574</ele>
        <time>2020-09-02T16:19:15Z</time>
      </trkpt>
      <trkpt lat="43.79443" lon="5.84455">
        <ele>369.817</ele>
        <time>2020-09-02T16:20:00Z</time>
      </trkpt>
      <trkpt lat="43.79441" lon="5.84464">
        <ele>370.275</ele>
        <time>2020-09-02T16:20:01Z</time>
      </trkpt>
      <trkpt lat="43.7944" lon="5.84474">
        <ele>370.828</ele>
        <time>2020-09-02T16:20:02Z</time>
      </trkpt>
      <trkpt lat="43.79437" lon="5.84487">
        <ele>371.62</ele>
        <time>2020-09-02T16:20:03Z</time>
      </trkpt>
      <trkpt lat="43.79435" lon="5.84502">
        <ele>372.308</ele>
        <time>2020-09-02T16:20:04Z</time>
      </trkpt>
      <trkpt lat="43.79433" lon="5.84518">
        <ele>373.355</ele>
        <time>2020-09-02T16:20:05Z</time>
      </trkpt>
      <trkpt lat="43.79431" lon="5.84534">
        <ele>373.964</ele>
        <time>2020-09-02T16:20:06Z</time>
      </trkpt>
      <trkpt lat="43.79429" lon="5.84551">
        <ele>374.714</ele>
        <time>2020-09-02T16:20:07Z</time>
      </trkpt>
      <trkpt lat="43.79427" lon="5.84568">
        <ele>375.341</ele>
        <time>2020-09-02T16:20:08Z</time>
      </trkpt>
      <trkpt lat="43.79425" lon="5.84585">
        <ele>375.322</ele>
        <time>2020-09-02T16:20:09Z</time>
      </trkpt>
      <trkpt lat="43.79423" lon="5.84604">
        <ele>376.34</ele>
        <time>2020-09-02T16:20:10Z</time>
      </trkpt>
      <trkpt lat="43.79422" lon="5.84624">
        <ele>376.466</ele>
        <time>2020-09-02T16:20:11Z</time>
      </trkpt>
      <trkpt lat="43.7942" lon="5.84644">
        <ele>376.699</ele>
        <time>2020-09-02T16:20:12Z</time>
      </trkpt>
      <trkpt lat="43.79418" lon="5.84664">
        <ele>377.179</ele>
        <time>2020-09-02T16:20:13Z</time>
      </trkpt>
      <trkpt lat="43.79416" lon="5.84683">
        <ele>377.905</ele>
        <time>2020-09-02T16:20:14Z</time>
      </trkpt>
      <trkpt lat="43.79414" lon="5.84701">
        <ele>378.825</ele>
        <time>2020-09-02T16:20:15Z</time>
      </trkpt>
      <trkpt lat="43.79412" lon="5.84719">
        <ele>379.008</ele>
        <time>2020-09-02T16:20:16Z</time>
      </trkpt>
      <trkpt lat="43.7941" lon="5.84735">
        <ele>379.415</ele>
        <time>2020-09-02T16:20:17Z</time>
      </trkpt>
      <trkpt lat="43.79406" lon="5.84752">
        <ele>379.934</ele>
        <time>2020-09-02T16:20:18Z</time>
      </trkpt>
      <trkpt lat="43.79404" lon="5.84769">
        <ele>379.954</ele>
        <time>2020-09-02T16:20:19Z</time>
      </trkpt>
      <trkpt lat="43.79402" lon="5.84783">
        <ele>381.081</ele>
        <time>2020-09-02T16:20:20Z</time>
      </trkpt>
      <trkpt lat="43.79398" lon="5.84798">
        <ele>380.842</ele>
        <time>2020-09-02T16:20:21Z</time>
      </trkpt>
      <trkpt lat="43.79394" lon="5.84811">
        <ele>381.51</ele>
        <time>2020-09-02T16:20:22Z</time>
      </trkpt>
      <trkpt lat="43.79389" lon="5.84823">
        <ele>382.496</ele>
        <time>2020-09-02T16:20:23Z</time>
      </trkpt>
      <trkpt lat="43.79386" lon="5.84835">
        <ele>382.289</ele>
        <time>2020-09-02T16:20:24Z</time>
      </trkpt>
      <trkpt lat="43.79383" lon="5.84846">
        <ele>382.015</ele>
        <time>2020-09-02T16:20:25Z</time>
      </trkpt>
      <trkpt lat="43.79382" lon="5.84858">
        <ele>381.565</ele>
        <time>2020-09-02T16:20:26Z</time>
      </trkpt>
      <trkpt lat="43.79383" lon="5.84872">
        <ele>380.211</ele>
        <time>2020-09-02T16:20:27Z</time>
      </trkpt>
      <trkpt lat="43.79385" lon="5.84888">
        <ele>379.108</ele>
        <time>2020-09-02T16:20:28Z</time>
      </trkpt>
      <trkpt lat="43.79387" lon="5.84906">
        <ele>378.339</ele>
        <time>2020-09-02T16:20:29Z</time>
      </trkpt>
      <trkpt lat="43.79389" lon="5.84926">
        <ele>377.878</ele>
        <time>2020-09-02T16:20:30Z</time>
      </trkpt>
      <trkpt lat="43.7939" lon="5.84948">
        <ele>378.578</ele>
        <time>2020-09-02T16:20:31Z</time>
      </trkpt>
      <trkpt lat="43.79388" lon="5.84971">
        <ele>380.855</ele>
        <time>2020-09-02T16:20:32Z</time>
      </trkpt>
      <trkpt lat="43.79387" lon="5.84992">
        <ele>382.186</ele>
        <time>2020-09-02T16:20:33Z</time>
      </trkpt>
      <trkpt lat="43.79387" lon="5.85013">
        <ele>383.184</ele>
        <time>2020-09-02T16:20:34Z</time>
      </trkpt>
      <trkpt lat="43.79387" lon="5.85031">
        <ele>384.24</ele>
        <time>2020-09-02T16:20:35Z</time>
      </trkpt>
      <trkpt lat="43.79387" lon="5.85048">
        <ele>384.823</ele>
        <time>2020-09-02T16:20:36Z</time>
      </trkpt>
      <trkpt lat="43.79386" lon="5.85065">
        <ele>385.674</ele>
        <time>2020-09-02T16:20:37Z</time>
      </trkpt>
      <trkpt lat="43.79384" lon="5.85081">
        <ele>385.756</ele>
        <time>2020-09-02T16:20:38Z</time>
      </trkpt>
      <trkpt lat="43.79382" lon="5.85097">
        <ele>385.821</ele>
        <time>2020-09-02T16:20:39Z</time>
      </trkpt>
      <trkpt lat="43.7938" lon="5.85112">
        <ele>386.008</ele>
        <time>2020-09-02T16:20:40Z</time>
      </trkpt>
      <trkpt lat="43.7938" lon="5.85126">
        <ele>386.215</ele>
        <time>2020-09-02T16:20:41Z</time>
      </trkpt>
      <trkpt lat="43.79381" lon="5.8514">
        <ele>386.114</ele>
        <time>2020-09-02T16:20:42Z</time>
      </trkpt>
      <trkpt lat="43.79383" lon="5.85155">
        <ele>386.144</ele>
        <time>2020-09-02T16:20:43Z</time>
      </trkpt>
      <trkpt lat="43.79388" lon="5.85169">
        <ele>386.671</ele>
        <time>2020-09-02T16:20:44Z</time>
      </trkpt>
      <trkpt lat="43.79395" lon="5.85182">
        <ele>387.192</ele>
        <time>2020-09-02T16:20:45Z</time>
      </trkpt>
      <trkpt lat="43.79403" lon="5.85194">
        <ele>387.96</ele>
        <time>2020-09-02T16:20:46Z</time>
      </trkpt>
      <trkpt lat="43.79412" lon="5.85207">
        <ele>387.646</ele>
        <time>2020-09-02T16:20:47Z</time>
      </trkpt>
      <trkpt lat="43.79422" lon="5.85224">
        <ele>386.979</ele>
        <time>2020-09-02T16:20:48Z</time>
      </trkpt>
      <trkpt lat="43.79432" lon="5.85241">
        <ele>385.699</ele>
        <time>2020-09-02T16:20:49Z</time>
      </trkpt>
      <trkpt lat="43.79441" lon="5.85259">
        <ele>385.007</ele>
        <time>2020-09-02T16:20:50Z</time>
      </trkpt>
      <trkpt lat="43.79449" lon="5.85275">
        <ele>385.627</ele>
        <time>2020-09-02T16:20:51Z</time>
      </trkpt>
      <trkpt lat="43.79456" lon="5.85292">
        <ele>386.008</ele>
        <time>2020-09-02T16:20:52Z</time>
      </trkpt>
      <trkpt lat="43.79462" lon="5.85307">
        <ele>386.187</ele>
        <time>2020-09-02T16:20:53Z</time>
      </trkpt>
      <trkpt lat="43.79466" lon="5.85322">
        <ele>386.146</ele>
        <time>2020-09-02T16:20:54Z</time>
      </trkpt>
      <trkpt lat="43.7947" lon="5.85339">
        <ele>385.876</ele>
        <time>2020-09-02T16:20:55Z</time>
      </trkpt>
      <trkpt lat="43.79474" lon="5.85359">
        <ele>384.523</ele>
        <time>2020-09-02T16:20:56Z</time>
      </trkpt>
      <trkpt lat="43.79478" lon="5.85378">
        <ele>383.924</ele>
        <time>2020-09-02T16:20:57Z</time>
      </trkpt>
      <trkpt lat="43.79483" lon="5.85401">
        <ele>383.982</ele>
        <time>2020-09-02T16:20:58Z</time>
      </trkpt>
      <trkpt lat="43.79487" lon="5.85423">
        <ele>385.788</ele>
        <time>2020-09-02T16:20:59Z</time>
      </trkpt>
      <trkpt lat="43.7949" lon="5.85445">
        <ele>388.091</ele>
        <time>2020-09-02T16:21:00Z</time>
      </trkpt>
      <trkpt lat="43.79494" lon="5.85466">
        <ele>389.045</ele>
        <time>2020-09-02T16:21:01Z</time>
      </trkpt>
      <trkpt lat="43.79499" lon="5.85483">
        <ele>391.247</ele>
        <time>2020-09-02T16:21:02Z</time>
      </trkpt>
      <trkpt lat="43.79503" lon="5.85502">
        <ele>392.611</ele>
        <time>2020-09-02T16:21:03Z</time>
      </trkpt>
      <trkpt lat="43.79507" lon="5.8552">
        <ele>392.908</ele>
        <time>2020-09-02T16:21:04Z</time>
      </trkpt>
      <trkpt lat="43.7951" lon="5.85538">
        <ele>392.712</ele>
        <time>2020-09-02T16:21:05Z</time>
      </trkpt>
      <trkpt lat="43.79513" lon="5.85558">
        <ele>392.081</ele>
        <time>2020-09-02T16:21:06Z</time>
      </trkpt>
      <trkpt lat="43.79516" lon="5.85579">
        <ele>390.831</ele>
        <time>2020-09-02T16:21:07Z</time>
      </trkpt>
      <trkpt lat="43.79519" lon="5.85601">
        <ele>389.438</ele>
        <time>2020-09-02T16:21:08Z</time>
      </trkpt>
      <trkpt lat="43.79522" lon="5.85623">
        <ele>389.739</ele>
        <time>2020-09-02T16:21:09Z</time>
      </trkpt>
      <trkpt lat="43.79525" lon="5.85645">
        <ele>390.527</ele>
        <time>2020-09-02T16:21:10Z</time>
      </trkpt>
      <trkpt lat="43.79527" lon="5.85666">
        <ele>391.893</ele>
        <time>2020-09-02T16:21:11Z</time>
      </trkpt>
      <trkpt lat="43.79529" lon="5.85687">
        <ele>392.816</ele>
        <time>2020-09-02T16:21:12Z</time>
      </trkpt>
      <trkpt lat="43.79532" lon="5.85701">
        <ele>393.512</ele>
        <time>2020-09-02T16:21:13Z</time>
      </trkpt>
      <trkpt lat="43.79537" lon="5.85717">
        <ele>395.632</ele>
        <time>2020-09-02T16:21:14Z</time>
      </trkpt>
      <trkpt lat="43.79541" lon="5.85733">
        <ele>396.405</ele>
        <time>2020-09-02T16:21:15Z</time>
      </trkpt>
      <trkpt lat="43.79549" lon="5.85749">
        <ele>396.708</ele>
        <time>2020-09-02T16:21:16Z</time>
      </trkpt>
      <trkpt lat="43.79556" lon="5.85765">
        <ele>397.289</ele>
        <time>2020-09-02T16:21:17Z</time>
      </trkpt>
      <trkpt lat="43.79565" lon="5.8578">
        <ele>398.038</ele>
        <time>2020-09-02T16:21:18Z</time>
      </trkpt>
      <trkpt lat="43.79574" lon="5.85796">
        <ele>403.078</ele>
        <time>2020-09-02T16:21:19Z</time>
      </trkpt>
      <trkpt lat="43.79582" lon="5.85813">
        <ele>404.275</ele>
        <time>2020-09-02T16:21:20Z</time>
      </trkpt>
      <trkpt lat="43.79589" lon="5.85831">
        <ele>406.056</ele>
        <time>2020-09-02T16:21:21Z</time>
      </trkpt>
      <trkpt lat="43.79596" lon="5.8585">
        <ele>409.944</ele>
        <time>2020-09-02T16:21:22Z</time>
      </trkpt>
      <trkpt lat="43.79602" lon="5.85869">
        <ele>412.12</ele>
        <time>2020-09-02T16:21:23Z</time>
      </trkpt>
      <trkpt lat="43.79607" lon="5.85888">
        <ele>413.933</ele>
        <time>2020-09-02T16:21:24Z</time>
      </trkpt>
      <trkpt lat="43.79614" lon="5.85905">
        <ele>415.378</ele>
        <time>2020-09-02T16:21:25Z</time>
      </trkpt>
      <trkpt lat="43.79619" lon="5.85921">
        <ele>416.333</ele>
        <time>2020-09-02T16:21:26Z</time>
      </trkpt>
      <trkpt lat="43.79624" lon="5.85935">
        <ele>417.326</ele>
        <time>2020-09-02T16:21:27Z</time>
      </trkpt>
      <trkpt lat="43.79627" lon="5.85948">
        <ele>418.208</ele>
        <time>2020-09-02T16:21:28Z</time>
      </trkpt>
      <trkpt lat="43.7963" lon="5.85961">
        <ele>417.815</ele>
        <time>2020-09-02T16:21:29Z</time>
      </trkpt>
      <trkpt lat="43.79632" lon="5.85974">
        <ele>417.654</ele>
        <time>2020-09-02T16:21:30Z</time>
      </trkpt>
      <trkpt lat="43.79632" lon="5.85989">
        <ele>417.164</ele>
        <time>2020-09-02T16:21:31Z</time>
      </trkpt>
      <trkpt lat="43.79631" lon="5.86006">
        <ele>416.031</ele>
        <time>2020-09-02T16:21:32Z</time>
      </trkpt>
      <trkpt lat="43.79631" lon="5.86025">
        <ele>414.892</ele>
        <time>2020-09-02T16:21:33Z</time>
      </trkpt>
      <trkpt lat="43.79632" lon="5.86047">
        <ele>414.14</ele>
        <time>2020-09-02T16:21:34Z</time>
      </trkpt>
      <trkpt lat="43.79635" lon="5.86069">
        <ele>414.156</ele>
        <time>2020-09-02T16:21:35Z</time>
      </trkpt>
      <trkpt lat="43.79637" lon="5.86088">
        <ele>415.069</ele>
        <time>2020-09-02T16:21:36Z</time>
      </trkpt>
      <trkpt lat="43.7964" lon="5.86106">
        <ele>415.569</ele>
        <time>2020-09-02T16:21:37Z</time>
      </trkpt>
      <trkpt lat="43.79642" lon="5.86123">
        <ele>415.604</ele>
        <time>2020-09-02T16:21:38Z</time>
      </trkpt>
      <trkpt lat="43.79644" lon="5.86141">
        <ele>415.324</ele>
        <time>2020-09-02T16:21:39Z</time>
      </trkpt>
      <trkpt lat="43.79645" lon="5.8616">
        <ele>414.408</ele>
        <time>2020-09-02T16:21:40Z</time>
      </trkpt>
      <trkpt lat="43.79648" lon="5.86181">
        <ele>412.864</ele>
        <time>2020-09-02T16:21:41Z</time>
      </trkpt>
      <trkpt lat="43.7965" lon="5.86201">
        <ele>412.033</ele>
        <time>2020-09-02T16:21:42Z</time>
      </trkpt>
      <trkpt lat="43.79653" lon="5.86222">
        <ele>411.913</ele>
        <time>2020-09-02T16:21:43Z</time>
      </trkpt>
      <trkpt lat="43.79654" lon="5.86243">
        <ele>412.27</ele>
        <time>2020-09-02T16:21:44Z</time>
      </trkpt>
      <trkpt lat="43.79654" lon="5.86264">
        <ele>414.051</ele>
        <time>2020-09-02T16:21:45Z</time>
      </trkpt>
      <trkpt lat="43.79652" lon="5.86283">
        <ele>415.989</ele>
        <time>2020-09-02T16:21:46Z</time>
      </trkpt>
      <trkpt lat="43.79652" lon="5.86301">
        <ele>417.585</ele>
        <time>2020-09-02T16:21:47Z</time>
      </trkpt>
      <trkpt lat="43.79651" lon="5.86317">
        <ele>418.338</ele>
        <time>2020-09-02T16:21:48Z</time>
      </trkpt>
      <trkpt lat="43.7965" lon="5.86333">
        <ele>418.869</ele>
        <time>2020-09-02T16:21:49Z</time>
      </trkpt>
      <trkpt lat="43.79648" lon="5.8635">
        <ele>418.604</ele>
        <time>2020-09-02T16:21:50Z</time>
      </trkpt>
      <trkpt lat="43.79644" lon="5.8637">
        <ele>418.224</ele>
        <time>2020-09-02T16:21:51Z</time>
      </trkpt>
      <trkpt lat="43.79638" lon="5.8639">
        <ele>417.408</ele>
        <time>2020-09-02T16:21:52Z</time>
      </trkpt>
      <trkpt lat="43.79632" lon="5.86409">
        <ele>417.564</ele>
        <time>2020-09-02T16:21:53Z</time>
      </trkpt>
      <trkpt lat="43.79627" lon="5.86428">
        <ele>417.253</ele>
        <time>2020-09-02T16:21:54Z</time>
      </trkpt>
      <trkpt lat="43.79623" lon="5.86443">
        <ele>417.573</ele>
        <time>2020-09-02T16:21:55Z</time>
      </trkpt>
      <trkpt lat="43.79621" lon="5.86459">
        <ele>417.79</ele>
        <time>2020-09-02T16:21:56Z</time>
      </trkpt>
      <trkpt lat="43.79621" lon="5.86476">
        <ele>418.241</ele>
        <time>2020-09-02T16:21:57Z</time>
      </trkpt>
      <trkpt lat="43.79623" lon="5.86493">
        <ele>419.099</ele>
        <time>2020-09-02T16:21:58Z</time>
      </trkpt>
      <trkpt lat="43.79628" lon="5.8651">
        <ele>420.025</ele>
        <time>2020-09-02T16:21:59Z</time>
      </trkpt>
      <trkpt lat="43.79634" lon="5.86526">
        <ele>421.548</ele>
        <time>2020-09-02T16:22:00Z</time>
      </trkpt>
      <trkpt lat="43.79641" lon="5.86542">
        <ele>422.528</ele>
        <time>2020-09-02T16:22:01Z</time>
      </trkpt>
      <trkpt lat="43.7965" lon="5.86558">
        <ele>424.289</ele>
        <time>2020-09-02T16:22:02Z</time>
      </trkpt>
      <trkpt lat="43.79661" lon="5.8657">
        <ele>425.217</ele>
        <time>2020-09-02T16:22:03Z</time>
      </trkpt>
      <trkpt lat="43.79673" lon="5.86577">
        <ele>426.608</ele>
        <time>2020-09-02T16:22:04Z</time>
      </trkpt>
      <trkpt lat="43.79684" lon="5.86583">
        <ele>427.66</ele>
        <time>2020-09-02T16:22:05Z</time>
      </trkpt>
      <trkpt lat="43.79692" lon="5.86587">
        <ele>429.239</ele>
        <time>2020-09-02T16:22:06Z</time>
      </trkpt>
      <trkpt lat="43.79699" lon="5.86593">
        <ele>430.259</ele>
        <time>2020-09-02T16:22:07Z</time>
      </trkpt>
      <trkpt lat="43.79703" lon="5.86601">
        <ele>431.046</ele>
        <time>2020-09-02T16:22:08Z</time>
      </trkpt>
      <trkpt lat="43.79704" lon="5.86611">
        <ele>431.797</ele>
        <time>2020-09-02T16:22:09Z</time>
      </trkpt>
      <trkpt lat="43.79704" lon="5.86622">
        <ele>432.295</ele>
        <time>2020-09-02T16:22:10Z</time>
      </trkpt>
      <trkpt lat="43.79702" lon="5.86634">
        <ele>433.051</ele>
        <time>2020-09-02T16:22:11Z</time>
      </trkpt>
      <trkpt lat="43.79698" lon="5.86646">
        <ele>433.614</ele>
        <time>2020-09-02T16:22:12Z</time>
      </trkpt>
      <trkpt lat="43.79693" lon="5.86659">
        <ele>434.242</ele>
        <time>2020-09-02T16:22:13Z</time>
      </trkpt>
      <trkpt lat="43.79688" lon="5.86671">
        <ele>434.722</ele>
        <time>2020-09-02T16:22:14Z</time>
      </trkpt>
      <trkpt lat="43.79683" lon="5.86683">
        <ele>435.214</ele>
        <time>2020-09-02T16:22:15Z</time>
      </trkpt>
      <trkpt lat="43.79679" lon="5.86695">
        <ele>435.408</ele>
        <time>2020-09-02T16:22:16Z</time>
      </trkpt>
      <trkpt lat="43.79676" lon="5.86708">
        <ele>435.252</ele>
        <time>2020-09-02T16:22:17Z</time>
      </trkpt>
      <trkpt lat="43.79673" lon="5.86723">
        <ele>435.011</ele>
        <time>2020-09-02T16:22:18Z</time>
      </trkpt>
      <trkpt lat="43.7967" lon="5.86738">
        <ele>434.851</ele>
        <time>2020-09-02T16:22:19Z</time>
      </trkpt>
      <trkpt lat="43.79667" lon="5.86753">
        <ele>434.658</ele>
        <time>2020-09-02T16:22:20Z</time>
      </trkpt>
      <trkpt lat="43.79664" lon="5.86769">
        <ele>434.439</ele>
        <time>2020-09-02T16:22:21Z</time>
      </trkpt>
      <trkpt lat="43.79661" lon="5.86786">
        <ele>435.087</ele>
        <time>2020-09-02T16:22:22Z</time>
      </trkpt>
      <trkpt lat="43.79658" lon="5.86802">
        <ele>436.143</ele>
        <time>2020-09-02T16:22:23Z</time>
      </trkpt>
      <trkpt lat="43.79653" lon="5.86816">
        <ele>437.616</ele>
        <time>2020-09-02T16:22:24Z</time>
      </trkpt>
      <trkpt lat="43.79648" lon="5.86831">
        <ele>439.122</ele>
        <time>2020-09-02T16:22:25Z</time>
      </trkpt>
      <trkpt lat="43.79643" lon="5.86845">
        <ele>440.562</ele>
        <time>2020-09-02T16:22:26Z</time>
      </trkpt>
      <trkpt lat="43.79639" lon="5.86858">
        <ele>442.408</ele>
        <time>2020-09-02T16:22:27Z</time>
      </trkpt>
      <trkpt lat="43.79633" lon="5.8687">
        <ele>443.208</ele>
        <time>2020-09-02T16:22:28Z</time>
      </trkpt>
      <trkpt lat="43.79628" lon="5.86884">
        <ele>443.41</ele>
        <time>2020-09-02T16:22:29Z</time>
      </trkpt>
      <trkpt lat="43.79623" lon="5.86898">
        <ele>443.479</ele>
        <time>2020-09-02T16:22:30Z</time>
      </trkpt>
      <trkpt lat="43.79619" lon="5.86911">
        <ele>443.649</ele>
        <time>2020-09-02T16:22:31Z</time>
      </trkpt>
      <trkpt lat="43.79617" lon="5.86927">
        <ele>443.466</ele>
        <time>2020-09-02T16:22:32Z</time>
      </trkpt>
      <trkpt lat="43.79615" lon="5.86945">
        <ele>444.017</ele>
        <time>2020-09-02T16:22:33Z</time>
      </trkpt>
      <trkpt lat="43.79615" lon="5.86963">
        <ele>445.075</ele>
        <time>2020-09-02T16:22:34Z</time>
      </trkpt>
      <trkpt lat="43.79613" lon="5.86981">
        <ele>446.141</ele>
        <time>2020-09-02T16:22:35Z</time>
      </trkpt>
      <trkpt lat="43.79612" lon="5.86996">
        <ele>447.334</ele>
        <time>2020-09-02T16:22:36Z</time>
      </trkpt>
      <trkpt lat="43.7961" lon="5.87012">
        <ele>448.998</ele>
        <time>2020-09-02T16:22:37Z</time>
      </trkpt>
      <trkpt lat="43.79607" lon="5.87028">
        <ele>450.115</ele>
        <time>2020-09-02T16:22:38Z</time>
      </trkpt>
      <trkpt lat="43.79604" lon="5.87041">
        <ele>450.726</ele>
        <time>2020-09-02T16:22:39Z</time>
      </trkpt>
      <trkpt lat="43.79601" lon="5.87053">
        <ele>451.508</ele>
        <time>2020-09-02T16:22:40Z</time>
      </trkpt>
      <trkpt lat="43.79599" lon="5.87065">
        <ele>451.417</ele>
        <time>2020-09-02T16:22:41Z</time>
      </trkpt>
      <trkpt lat="43.796" lon="5.87078">
        <ele>451.726</ele>
        <time>2020-09-02T16:22:42Z</time>
      </trkpt>
      <trkpt lat="43.79601" lon="5.87093">
        <ele>451.896</ele>
        <time>2020-09-02T16:22:43Z</time>
      </trkpt>
      <trkpt lat="43.79603" lon="5.8711">
        <ele>452.113</ele>
        <time>2020-09-02T16:22:44Z</time>
      </trkpt>
      <trkpt lat="43.79604" lon="5.87127">
        <ele>452.674</ele>
        <time>2020-09-02T16:22:45Z</time>
      </trkpt>
      <trkpt lat="43.79607" lon="5.87142">
        <ele>452.912</ele>
        <time>2020-09-02T16:22:46Z</time>
      </trkpt>
      <trkpt lat="43.7961" lon="5.87155">
        <ele>453.328</ele>
        <time>2020-09-02T16:22:47Z</time>
      </trkpt>
      <trkpt lat="43.79615" lon="5.87168">
        <ele>453.781</ele>
        <time>2020-09-02T16:22:48Z</time>
      </trkpt>
      <trkpt lat="43.79621" lon="5.87181">
        <ele>454.214</ele>
        <time>2020-09-02T16:22:49Z</time>
      </trkpt>
      <trkpt lat="43.79629" lon="5.87192">
        <ele>454.854</ele>
        <time>2020-09-02T16:22:50Z</time>
      </trkpt>
      <trkpt lat="43.79638" lon="5.87201">
        <ele>455.309</ele>
        <time>2020-09-02T16:22:51Z</time>
      </trkpt>
      <trkpt lat="43.79648" lon="5.87207">
        <ele>455.508</ele>
        <time>2020-09-02T16:22:52Z</time>
      </trkpt>
      <trkpt lat="43.79658" lon="5.87211">
        <ele>455.739</ele>
        <time>2020-09-02T16:22:53Z</time>
      </trkpt>
      <trkpt lat="43.79667" lon="5.87216">
        <ele>456.188</ele>
        <time>2020-09-02T16:22:54Z</time>
      </trkpt>
      <trkpt lat="43.79676" lon="5.87221">
        <ele>455.848</ele>
        <time>2020-09-02T16:22:55Z</time>
      </trkpt>
      <trkpt lat="43.79684" lon="5.87229">
        <ele>455.935</ele>
        <time>2020-09-02T16:22:56Z</time>
      </trkpt>
      <trkpt lat="43.79693" lon="5.8724">
        <ele>455.996</ele>
        <time>2020-09-02T16:22:57Z</time>
      </trkpt>
      <trkpt lat="43.79702" lon="5.8725">
        <ele>456.214</ele>
        <time>2020-09-02T16:22:58Z</time>
      </trkpt>
      <trkpt lat="43.79712" lon="5.87258">
        <ele>456.13</ele>
        <time>2020-09-02T16:22:59Z</time>
      </trkpt>
      <trkpt lat="43.79722" lon="5.87264">
        <ele>455.793</ele>
        <time>2020-09-02T16:23:00Z</time>
      </trkpt>
      <trkpt lat="43.79732" lon="5.87266">
        <ele>455.973</ele>
        <time>2020-09-02T16:23:01Z</time>
      </trkpt>
      <trkpt lat="43.79743" lon="5.87268">
        <ele>457.085</ele>
        <time>2020-09-02T16:23:02Z</time>
      </trkpt>
      <trkpt lat="43.79755" lon="5.87269">
        <ele>457.813</ele>
        <time>2020-09-02T16:23:03Z</time>
      </trkpt>
      <trkpt lat="43.79766" lon="5.8727">
        <ele>458.408</ele>
        <time>2020-09-02T16:23:04Z</time>
      </trkpt>
      <trkpt lat="43.79777" lon="5.87274">
        <ele>458.895</ele>
        <time>2020-09-02T16:23:05Z</time>
      </trkpt>
      <trkpt lat="43.79785" lon="5.8728">
        <ele>458.914</ele>
        <time>2020-09-02T16:23:06Z</time>
      </trkpt>
      <trkpt lat="43.79789" lon="5.87286">
        <ele>459.484</ele>
        <time>2020-09-02T16:23:07Z</time>
      </trkpt>
      <trkpt lat="43.79792" lon="5.87292">
        <ele>459.471</ele>
        <time>2020-09-02T16:23:08Z</time>
      </trkpt>
      <trkpt lat="43.79795" lon="5.87303">
        <ele>459.182</ele>
        <time>2020-09-02T16:23:10Z</time>
      </trkpt>
      <trkpt lat="43.79797" lon="5.8731">
        <ele>459.75</ele>
        <time>2020-09-02T16:23:56Z</time>
      </trkpt>
      <trkpt lat="43.79796" lon="5.87321">
        <ele>460.046</ele>
        <time>2020-09-02T16:23:58Z</time>
      </trkpt>
      <trkpt lat="43.79796" lon="5.87329">
        <ele>459.679</ele>
        <time>2020-09-02T16:23:59Z</time>
      </trkpt>
      <trkpt lat="43.79792" lon="5.87338">
        <ele>458.863</ele>
        <time>2020-09-02T16:24:00Z</time>
      </trkpt>
      <trkpt lat="43.79789" lon="5.87348">
        <ele>458.344</ele>
        <time>2020-09-02T16:24:01Z</time>
      </trkpt>
      <trkpt lat="43.79786" lon="5.87359">
        <ele>458.418</ele>
        <time>2020-09-02T16:24:02Z</time>
      </trkpt>
      <trkpt lat="43.79784" lon="5.87371">
        <ele>458.308</ele>
        <time>2020-09-02T16:24:03Z</time>
      </trkpt>
      <trkpt lat="43.79781" lon="5.87385">
        <ele>458.254</ele>
        <time>2020-09-02T16:24:04Z</time>
      </trkpt>
      <trkpt lat="43.79778" lon="5.87398">
        <ele>459.093</ele>
        <time>2020-09-02T16:24:05Z</time>
      </trkpt>
      <trkpt lat="43.79774" lon="5.87412">
        <ele>459.373</ele>
        <time>2020-09-02T16:24:06Z</time>
      </trkpt>
      <trkpt lat="43.7977" lon="5.87427">
        <ele>460.18</ele>
        <time>2020-09-02T16:24:07Z</time>
      </trkpt>
      <trkpt lat="43.79765" lon="5.87439">
        <ele>461.381</ele>
        <time>2020-09-02T16:24:08Z</time>
      </trkpt>
      <trkpt lat="43.79759" lon="5.87453">
        <ele>462.129</ele>
        <time>2020-09-02T16:24:09Z</time>
      </trkpt>
      <trkpt lat="43.79753" lon="5.87467">
        <ele>462.265</ele>
        <time>2020-09-02T16:24:10Z</time>
      </trkpt>
      <trkpt lat="43.79747" lon="5.87481">
        <ele>463.858</ele>
        <time>2020-09-02T16:24:11Z</time>
      </trkpt>
      <trkpt lat="43.79742" lon="5.87496">
        <ele>464.428</ele>
        <time>2020-09-02T16:24:12Z</time>
      </trkpt>
      <trkpt lat="43.79737" lon="5.87511">
        <ele>465.389</ele>
        <time>2020-09-02T16:24:13Z</time>
      </trkpt>
      <trkpt lat="43.79732" lon="5.87526">
        <ele>466.117</ele>
        <time>2020-09-02T16:24:14Z</time>
      </trkpt>
      <trkpt lat="43.79727" lon="5.87541">
        <ele>466.308</ele>
        <time>2020-09-02T16:24:15Z</time>
      </trkpt>
      <trkpt lat="43.79721" lon="5.87556">
        <ele>467.39</ele>
        <time>2020-09-02T16:24:16Z</time>
      </trkpt>
      <trkpt lat="43.79715" lon="5.87571">
        <ele>468.039</ele>
        <time>2020-09-02T16:24:17Z</time>
      </trkpt>
      <trkpt lat="43.79708" lon="5.87586">
        <ele>469.129</ele>
        <time>2020-09-02T16:24:18Z</time>
      </trkpt>
      <trkpt lat="43.79701" lon="5.87601">
        <ele>471.196</ele>
        <time>2020-09-02T16:24:19Z</time>
      </trkpt>
      <trkpt lat="43.79695" lon="5.87616">
        <ele>471.977</ele>
        <time>2020-09-02T16:24:20Z</time>
      </trkpt>
      <trkpt lat="43.79685" lon="5.87631">
        <ele>472.145</ele>
        <time>2020-09-02T16:24:21Z</time>
      </trkpt>
      <trkpt lat="43.79677" lon="5.87645">
        <ele>472.641</ele>
        <time>2020-09-02T16:24:22Z</time>
      </trkpt>
      <trkpt lat="43.79668" lon="5.87658">
        <ele>473.474</ele>
        <time>2020-09-02T16:24:23Z</time>
      </trkpt>
      <trkpt lat="43.79662" lon="5.87671">
        <ele>474.443</ele>
        <time>2020-09-02T16:24:24Z</time>
      </trkpt>
      <trkpt lat="43.79655" lon="5.87685">
        <ele>475.064</ele>
        <time>2020-09-02T16:24:25Z</time>
      </trkpt>
      <trkpt lat="43.7965" lon="5.87701">
        <ele>475.81</ele>
        <time>2020-09-02T16:24:26Z</time>
      </trkpt>
      <trkpt lat="43.79647" lon="5.87718">
        <ele>476.908</ele>
        <time>2020-09-02T16:24:27Z</time>
      </trkpt>
      <trkpt lat="43.79643" lon="5.87733">
        <ele>478.382</ele>
        <time>2020-09-02T16:24:28Z</time>
      </trkpt>
      <trkpt lat="43.79637" lon="5.87748">
        <ele>478.781</ele>
        <time>2020-09-02T16:24:29Z</time>
      </trkpt>
      <trkpt lat="43.7963" lon="5.87763">
        <ele>479.891</ele>
        <time>2020-09-02T16:24:30Z</time>
      </trkpt>
      <trkpt lat="43.79623" lon="5.87777">
        <ele>480.438</ele>
        <time>2020-09-02T16:24:31Z</time>
      </trkpt>
      <trkpt lat="43.79617" lon="5.87792">
        <ele>481.699</ele>
        <time>2020-09-02T16:24:32Z</time>
      </trkpt>
      <trkpt lat="43.79611" lon="5.87806">
        <ele>482.477</ele>
        <time>2020-09-02T16:24:33Z</time>
      </trkpt>
      <trkpt lat="43.79606" lon="5.87821">
        <ele>482.923</ele>
        <time>2020-09-02T16:24:34Z</time>
      </trkpt>
      <trkpt lat="43.79603" lon="5.87835">
        <ele>483.676</ele>
        <time>2020-09-02T16:24:35Z</time>
      </trkpt>
      <trkpt lat="43.79601" lon="5.87847">
        <ele>484.333</ele>
        <time>2020-09-02T16:24:36Z</time>
      </trkpt>
      <trkpt lat="43.79602" lon="5.8786">
        <ele>485.023</ele>
        <time>2020-09-02T16:24:37Z</time>
      </trkpt>
      <trkpt lat="43.79603" lon="5.87874">
        <ele>486.015</ele>
        <time>2020-09-02T16:24:38Z</time>
      </trkpt>
      <trkpt lat="43.79604" lon="5.87891">
        <ele>487.708</ele>
        <time>2020-09-02T16:24:39Z</time>
      </trkpt>
      <trkpt lat="43.79605" lon="5.87908">
        <ele>489.051</ele>
        <time>2020-09-02T16:24:40Z</time>
      </trkpt>
      <trkpt lat="43.79605" lon="5.87926">
        <ele>490.63</ele>
        <time>2020-09-02T16:24:41Z</time>
      </trkpt>
      <trkpt lat="43.79605" lon="5.87943">
        <ele>491.76</ele>
        <time>2020-09-02T16:24:42Z</time>
      </trkpt>
      <trkpt lat="43.79605" lon="5.87963">
        <ele>493.557</ele>
        <time>2020-09-02T16:24:43Z</time>
      </trkpt>
      <trkpt lat="43.79605" lon="5.87981">
        <ele>495.138</ele>
        <time>2020-09-02T16:24:44Z</time>
      </trkpt>
      <trkpt lat="43.79606" lon="5.87998">
        <ele>496.136</ele>
        <time>2020-09-02T16:24:45Z</time>
      </trkpt>
      <trkpt lat="43.79609" lon="5.88014">
        <ele>498.192</ele>
        <time>2020-09-02T16:24:46Z</time>
      </trkpt>
      <trkpt lat="43.7961" lon="5.88028">
        <ele>499.055</ele>
        <time>2020-09-02T16:24:47Z</time>
      </trkpt>
      <trkpt lat="43.79609" lon="5.88041">
        <ele>499.733</ele>
        <time>2020-09-02T16:24:48Z</time>
      </trkpt>
      <trkpt lat="43.79606" lon="5.88054">
        <ele>501.323</ele>
        <time>2020-09-02T16:24:49Z</time>
      </trkpt>
      <trkpt lat="43.79602" lon="5.88068">
        <ele>502.915</ele>
        <time>2020-09-02T16:24:50Z</time>
      </trkpt>
      <trkpt lat="43.796" lon="5.88081">
        <ele>503.708</ele>
        <time>2020-09-02T16:24:51Z</time>
      </trkpt>
      <trkpt lat="43.79597" lon="5.88094">
        <ele>504.451</ele>
        <time>2020-09-02T16:24:52Z</time>
      </trkpt>
      <trkpt lat="43.79599" lon="5.88105">
        <ele>506.08</ele>
        <time>2020-09-02T16:24:53Z</time>
      </trkpt>
      <trkpt lat="43.796" lon="5.88117">
        <ele>506.19</ele>
        <time>2020-09-02T16:24:54Z</time>
      </trkpt>
      <trkpt lat="43.79601" lon="5.88132">
        <ele>505.957</ele>
        <time>2020-09-02T16:24:55Z</time>
      </trkpt>
      <trkpt lat="43.79602" lon="5.88146">
        <ele>507.788</ele>
        <time>2020-09-02T16:24:56Z</time>
      </trkpt>
      <trkpt lat="43.79604" lon="5.88158">
        <ele>508.596</ele>
        <time>2020-09-02T16:24:57Z</time>
      </trkpt>
      <trkpt lat="43.79605" lon="5.88171">
        <ele>509.272</ele>
        <time>2020-09-02T16:24:58Z</time>
      </trkpt>
      <trkpt lat="43.79606" lon="5.88184">
        <ele>509.265</ele>
        <time>2020-09-02T16:24:59Z</time>
      </trkpt>
      <trkpt lat="43.79606" lon="5.88199">
        <ele>508.994</ele>
        <time>2020-09-02T16:25:00Z</time>
      </trkpt>
      <trkpt lat="43.79605" lon="5.88214">
        <ele>509.057</ele>
        <time>2020-09-02T16:25:01Z</time>
      </trkpt>
      <trkpt lat="43.79605" lon="5.88231">
        <ele>509.522</ele>
        <time>2020-09-02T16:25:02Z</time>
      </trkpt>
      <trkpt lat="43.79605" lon="5.88246">
        <ele>509.808</ele>
        <time>2020-09-02T16:25:03Z</time>
      </trkpt>
      <trkpt lat="43.79605" lon="5.88261">
        <ele>509.727</ele>
        <time>2020-09-02T16:25:04Z</time>
      </trkpt>
      <trkpt lat="43.79605" lon="5.88276">
        <ele>509.756</ele>
        <time>2020-09-02T16:25:05Z</time>
      </trkpt>
      <trkpt lat="43.79606" lon="5.88292">
        <ele>509.666</ele>
        <time>2020-09-02T16:25:06Z</time>
      </trkpt>
      <trkpt lat="43.79607" lon="5.88308">
        <ele>509.623</ele>
        <time>2020-09-02T16:25:07Z</time>
      </trkpt>
      <trkpt lat="43.79609" lon="5.88325">
        <ele>509.894</ele>
        <time>2020-09-02T16:25:08Z</time>
      </trkpt>
      <trkpt lat="43.79611" lon="5.88343">
        <ele>509.752</ele>
        <time>2020-09-02T16:25:09Z</time>
      </trkpt>
      <trkpt lat="43.79614" lon="5.8836">
        <ele>509.738</ele>
        <time>2020-09-02T16:25:10Z</time>
      </trkpt>
      <trkpt lat="43.79616" lon="5.88376">
        <ele>510.011</ele>
        <time>2020-09-02T16:25:11Z</time>
      </trkpt>
      <trkpt lat="43.79619" lon="5.88392">
        <ele>510.113</ele>
        <time>2020-09-02T16:25:12Z</time>
      </trkpt>
      <trkpt lat="43.79622" lon="5.88409">
        <ele>510.843</ele>
        <time>2020-09-02T16:25:13Z</time>
      </trkpt>
      <trkpt lat="43.79625" lon="5.88426">
        <ele>511.107</ele>
        <time>2020-09-02T16:25:14Z</time>
      </trkpt>
      <trkpt lat="43.79626" lon="5.88443">
        <ele>511.308</ele>
        <time>2020-09-02T16:25:15Z</time>
      </trkpt>
      <trkpt lat="43.79626" lon="5.88461">
        <ele>511.779</ele>
        <time>2020-09-02T16:25:16Z</time>
      </trkpt>
      <trkpt lat="43.79625" lon="5.8848">
        <ele>510.368</ele>
        <time>2020-09-02T16:25:17Z</time>
      </trkpt>
      <trkpt lat="43.79622" lon="5.88498">
        <ele>510.648</ele>
        <time>2020-09-02T16:25:18Z</time>
      </trkpt>
      <trkpt lat="43.79619" lon="5.88516">
        <ele>510.765</ele>
        <time>2020-09-02T16:25:19Z</time>
      </trkpt>
      <trkpt lat="43.79615" lon="5.88534">
        <ele>511.496</ele>
        <time>2020-09-02T16:25:20Z</time>
      </trkpt>
      <trkpt lat="43.79612" lon="5.88553">
        <ele>511.714</ele>
        <time>2020-09-02T16:25:21Z</time>
      </trkpt>
      <trkpt lat="43.79609" lon="5.88571">
        <ele>511.78</ele>
        <time>2020-09-02T16:25:22Z</time>
      </trkpt>
      <trkpt lat="43.79606" lon="5.8859">
        <ele>511.963</ele>
        <time>2020-09-02T16:25:23Z</time>
      </trkpt>
      <trkpt lat="43.79601" lon="5.88606">
        <ele>512.059</ele>
        <time>2020-09-02T16:25:24Z</time>
      </trkpt>
      <trkpt lat="43.79595" lon="5.88621">
        <ele>511.903</ele>
        <time>2020-09-02T16:25:25Z</time>
      </trkpt>
      <trkpt lat="43.79587" lon="5.88635">
        <ele>512.223</ele>
        <time>2020-09-02T16:25:26Z</time>
      </trkpt>
      <trkpt lat="43.79579" lon="5.8865">
        <ele>512.408</ele>
        <time>2020-09-02T16:25:27Z</time>
      </trkpt>
      <trkpt lat="43.79571" lon="5.88665">
        <ele>512.593</ele>
        <time>2020-09-02T16:25:28Z</time>
      </trkpt>
      <trkpt lat="43.79564" lon="5.88681">
        <ele>512.452</ele>
        <time>2020-09-02T16:25:29Z</time>
      </trkpt>
      <trkpt lat="43.79558" lon="5.88699">
        <ele>512.452</ele>
        <time>2020-09-02T16:25:30Z</time>
      </trkpt>
      <trkpt lat="43.79552" lon="5.88718">
        <ele>512.259</ele>
        <time>2020-09-02T16:25:31Z</time>
      </trkpt>
      <trkpt lat="43.79544" lon="5.88738">
        <ele>511.76</ele>
        <time>2020-09-02T16:25:32Z</time>
      </trkpt>
      <trkpt lat="43.79537" lon="5.8876">
        <ele>510.578</ele>
        <time>2020-09-02T16:25:33Z</time>
      </trkpt>
      <trkpt lat="43.79531" lon="5.8878">
        <ele>510.384</ele>
        <time>2020-09-02T16:25:34Z</time>
      </trkpt>
      <trkpt lat="43.79525" lon="5.888">
        <ele>510.457</ele>
        <time>2020-09-02T16:25:35Z</time>
      </trkpt>
      <trkpt lat="43.79519" lon="5.88819">
        <ele>510.245</ele>
        <time>2020-09-02T16:25:36Z</time>
      </trkpt>
      <trkpt lat="43.79515" lon="5.88837">
        <ele>510.147</ele>
        <time>2020-09-02T16:25:37Z</time>
      </trkpt>
      <trkpt lat="43.79515" lon="5.88858">
        <ele>509.611</ele>
        <time>2020-09-02T16:25:38Z</time>
      </trkpt>
      <trkpt lat="43.79515" lon="5.8888">
        <ele>510.908</ele>
        <time>2020-09-02T16:25:39Z</time>
      </trkpt>
      <trkpt lat="43.79514" lon="5.88902">
        <ele>511.022</ele>
        <time>2020-09-02T16:25:40Z</time>
      </trkpt>
      <trkpt lat="43.79512" lon="5.88924">
        <ele>511.491</ele>
        <time>2020-09-02T16:25:41Z</time>
      </trkpt>
      <trkpt lat="43.7951" lon="5.88946">
        <ele>511.811</ele>
        <time>2020-09-02T16:25:42Z</time>
      </trkpt>
      <trkpt lat="43.7951" lon="5.88967">
        <ele>513.778</ele>
        <time>2020-09-02T16:25:43Z</time>
      </trkpt>
      <trkpt lat="43.79511" lon="5.88988">
        <ele>514.519</ele>
        <time>2020-09-02T16:25:44Z</time>
      </trkpt>
      <trkpt lat="43.79512" lon="5.89008">
        <ele>515.187</ele>
        <time>2020-09-02T16:25:45Z</time>
      </trkpt>
      <trkpt lat="43.79517" lon="5.89028">
        <ele>515.563</ele>
        <time>2020-09-02T16:25:46Z</time>
      </trkpt>
      <trkpt lat="43.7952" lon="5.89049">
        <ele>516.136</ele>
        <time>2020-09-02T16:25:47Z</time>
      </trkpt>
      <trkpt lat="43.79524" lon="5.89068">
        <ele>516.824</ele>
        <time>2020-09-02T16:25:48Z</time>
      </trkpt>
      <trkpt lat="43.79529" lon="5.89084">
        <ele>517.104</ele>
        <time>2020-09-02T16:25:49Z</time>
      </trkpt>
      <trkpt lat="43.79535" lon="5.891">
        <ele>517.314</ele>
        <time>2020-09-02T16:25:50Z</time>
      </trkpt>
      <trkpt lat="43.79544" lon="5.89114">
        <ele>517.608</ele>
        <time>2020-09-02T16:25:51Z</time>
      </trkpt>
      <trkpt lat="43.79552" lon="5.89126">
        <ele>517.77</ele>
        <time>2020-09-02T16:25:52Z</time>
      </trkpt>
      <trkpt lat="43.79563" lon="5.89136">
        <ele>517.849</ele>
        <time>2020-09-02T16:25:53Z</time>
      </trkpt>
      <trkpt lat="43.79573" lon="5.89146">
        <ele>518.269</ele>
        <time>2020-09-02T16:25:54Z</time>
      </trkpt>
      <trkpt lat="43.79584" lon="5.89157">
        <ele>518.526</ele>
        <time>2020-09-02T16:25:55Z</time>
      </trkpt>
      <trkpt lat="43.79593" lon="5.89171">
        <ele>518.797</ele>
        <time>2020-09-02T16:25:56Z</time>
      </trkpt>
      <trkpt lat="43.79603" lon="5.89186">
        <ele>518.925</ele>
        <time>2020-09-02T16:25:57Z</time>
      </trkpt>
      <trkpt lat="43.79612" lon="5.89201">
        <ele>519.321</ele>
        <time>2020-09-02T16:25:58Z</time>
      </trkpt>
      <trkpt lat="43.7962" lon="5.89215">
        <ele>519.554</ele>
        <time>2020-09-02T16:25:59Z</time>
      </trkpt>
      <trkpt lat="43.79629" lon="5.89228">
        <ele>520.227</ele>
        <time>2020-09-02T16:26:00Z</time>
      </trkpt>
      <trkpt lat="43.79636" lon="5.89242">
        <ele>520.868</ele>
        <time>2020-09-02T16:26:01Z</time>
      </trkpt>
      <trkpt lat="43.79642" lon="5.89258">
        <ele>521.314</ele>
        <time>2020-09-02T16:26:02Z</time>
      </trkpt>
      <trkpt lat="43.79648" lon="5.89274">
        <ele>521.308</ele>
        <time>2020-09-02T16:26:03Z</time>
      </trkpt>
      <trkpt lat="43.79653" lon="5.89292">
        <ele>521.79</ele>
        <time>2020-09-02T16:26:04Z</time>
      </trkpt>
      <trkpt lat="43.79657" lon="5.89308">
        <ele>522.049</ele>
        <time>2020-09-02T16:26:05Z</time>
      </trkpt>
      <trkpt lat="43.79661" lon="5.89324">
        <ele>522.169</ele>
        <time>2020-09-02T16:26:06Z</time>
      </trkpt>
      <trkpt lat="43.7966" lon="5.8934">
        <ele>521.846</ele>
        <time>2020-09-02T16:26:07Z</time>
      </trkpt>
      <trkpt lat="43.79659" lon="5.89359">
        <ele>520.947</ele>
        <time>2020-09-02T16:26:08Z</time>
      </trkpt>
      <trkpt lat="43.79657" lon="5.89379">
        <ele>521.175</ele>
        <time>2020-09-02T16:26:09Z</time>
      </trkpt>
      <trkpt lat="43.79654" lon="5.89402">
        <ele>518.681</ele>
        <time>2020-09-02T16:26:10Z</time>
      </trkpt>
      <trkpt lat="43.7965" lon="5.8942">
        <ele>518.184</ele>
        <time>2020-09-02T16:26:11Z</time>
      </trkpt>
      <trkpt lat="43.79647" lon="5.89438">
        <ele>517.914</ele>
        <time>2020-09-02T16:26:12Z</time>
      </trkpt>
      <trkpt lat="43.79645" lon="5.89456">
        <ele>517.654</ele>
        <time>2020-09-02T16:26:13Z</time>
      </trkpt>
      <trkpt lat="43.79641" lon="5.89475">
        <ele>517.509</ele>
        <time>2020-09-02T16:26:14Z</time>
      </trkpt>
      <trkpt lat="43.79638" lon="5.89494">
        <ele>517.208</ele>
        <time>2020-09-02T16:26:15Z</time>
      </trkpt>
      <trkpt lat="43.79634" lon="5.89514">
        <ele>516.599</ele>
        <time>2020-09-02T16:26:16Z</time>
      </trkpt>
      <trkpt lat="43.79629" lon="5.89533">
        <ele>516.398</ele>
        <time>2020-09-02T16:26:17Z</time>
      </trkpt>
      <trkpt lat="43.79623" lon="5.89551">
        <ele>516.138</ele>
        <time>2020-09-02T16:26:18Z</time>
      </trkpt>
      <trkpt lat="43.79618" lon="5.89569">
        <ele>516.365</ele>
        <time>2020-09-02T16:26:19Z</time>
      </trkpt>
      <trkpt lat="43.79619" lon="5.89584">
        <ele>516.986</ele>
        <time>2020-09-02T16:26:20Z</time>
      </trkpt>
      <trkpt lat="43.7962" lon="5.89601">
        <ele>517.474</ele>
        <time>2020-09-02T16:26:21Z</time>
      </trkpt>
      <trkpt lat="43.79622" lon="5.89621">
        <ele>517.58</ele>
        <time>2020-09-02T16:26:22Z</time>
      </trkpt>
      <trkpt lat="43.79625" lon="5.89641">
        <ele>517.733</ele>
        <time>2020-09-02T16:26:23Z</time>
      </trkpt>
      <trkpt lat="43.79628" lon="5.89662">
        <ele>518.519</ele>
        <time>2020-09-02T16:26:24Z</time>
      </trkpt>
      <trkpt lat="43.79632" lon="5.89682">
        <ele>519.009</ele>
        <time>2020-09-02T16:26:25Z</time>
      </trkpt>
      <trkpt lat="43.79637" lon="5.89702">
        <ele>519.219</ele>
        <time>2020-09-02T16:26:26Z</time>
      </trkpt>
      <trkpt lat="43.79644" lon="5.89724">
        <ele>518.608</ele>
        <time>2020-09-02T16:26:27Z</time>
      </trkpt>
      <trkpt lat="43.79651" lon="5.89747">
        <ele>517.939</ele>
        <time>2020-09-02T16:26:28Z</time>
      </trkpt>
      <trkpt lat="43.79659" lon="5.89768">
        <ele>518.398</ele>
        <time>2020-09-02T16:26:29Z</time>
      </trkpt>
      <trkpt lat="43.79667" lon="5.89788">
        <ele>519.118</ele>
        <time>2020-09-02T16:26:30Z</time>
      </trkpt>
      <trkpt lat="43.79676" lon="5.89808">
        <ele>520.315</ele>
        <time>2020-09-02T16:26:31Z</time>
      </trkpt>
      <trkpt lat="43.79683" lon="5.89827">
        <ele>520.866</ele>
        <time>2020-09-02T16:26:32Z</time>
      </trkpt>
      <trkpt lat="43.79691" lon="5.89846">
        <ele>521.244</ele>
        <time>2020-09-02T16:26:33Z</time>
      </trkpt>
      <trkpt lat="43.797" lon="5.89864">
        <ele>521.68</ele>
        <time>2020-09-02T16:26:34Z</time>
      </trkpt>
      <trkpt lat="43.79709" lon="5.89883">
        <ele>522.183</ele>
        <time>2020-09-02T16:26:35Z</time>
      </trkpt>
      <trkpt lat="43.79717" lon="5.899">
        <ele>522.341</ele>
        <time>2020-09-02T16:26:36Z</time>
      </trkpt>
      <trkpt lat="43.79725" lon="5.89917">
        <ele>521.581</ele>
        <time>2020-09-02T16:26:37Z</time>
      </trkpt>
      <trkpt lat="43.79733" lon="5.89932">
        <ele>521.809</ele>
        <time>2020-09-02T16:26:38Z</time>
      </trkpt>
      <trkpt lat="43.79741" lon="5.89947">
        <ele>521.008</ele>
        <time>2020-09-02T16:26:39Z</time>
      </trkpt>
      <trkpt lat="43.79748" lon="5.89961">
        <ele>520.892</ele>
        <time>2020-09-02T16:26:40Z</time>
      </trkpt>
      <trkpt lat="43.79754" lon="5.89974">
        <ele>521.551</ele>
        <time>2020-09-02T16:26:41Z</time>
      </trkpt>
      <trkpt lat="43.79759" lon="5.89987">
        <ele>521.491</ele>
        <time>2020-09-02T16:26:42Z</time>
      </trkpt>
      <trkpt lat="43.79763" lon="5.90002">
        <ele>521.018</ele>
        <time>2020-09-02T16:26:43Z</time>
      </trkpt>
      <trkpt lat="43.79766" lon="5.90019">
        <ele>520.949</ele>
        <time>2020-09-02T16:26:44Z</time>
      </trkpt>
      <trkpt lat="43.79768" lon="5.90037">
        <ele>521.177</ele>
        <time>2020-09-02T16:26:45Z</time>
      </trkpt>
      <trkpt lat="43.7977" lon="5.90055">
        <ele>520.973</ele>
        <time>2020-09-02T16:26:46Z</time>
      </trkpt>
      <trkpt lat="43.79772" lon="5.90074">
        <ele>521.416</ele>
        <time>2020-09-02T16:26:47Z</time>
      </trkpt>
      <trkpt lat="43.79775" lon="5.90091">
        <ele>522.018</ele>
        <time>2020-09-02T16:26:48Z</time>
      </trkpt>
      <trkpt lat="43.79778" lon="5.90109">
        <ele>522.898</ele>
        <time>2020-09-02T16:26:49Z</time>
      </trkpt>
      <trkpt lat="43.79782" lon="5.90125">
        <ele>523.117</ele>
        <time>2020-09-02T16:26:50Z</time>
      </trkpt>
      <trkpt lat="43.79786" lon="5.90143">
        <ele>523.608</ele>
        <time>2020-09-02T16:26:51Z</time>
      </trkpt>
      <trkpt lat="43.7979" lon="5.90161">
        <ele>523.879</ele>
        <time>2020-09-02T16:26:52Z</time>
      </trkpt>
      <trkpt lat="43.79793" lon="5.90178">
        <ele>524.058</ele>
        <time>2020-09-02T16:26:53Z</time>
      </trkpt>
      <trkpt lat="43.79797" lon="5.90195">
        <ele>524.768</ele>
        <time>2020-09-02T16:26:54Z</time>
      </trkpt>
      <trkpt lat="43.79799" lon="5.90213">
        <ele>525.055</ele>
        <time>2020-09-02T16:26:55Z</time>
      </trkpt>
      <trkpt lat="43.798" lon="5.90229">
        <ele>525.556</ele>
        <time>2020-09-02T16:26:56Z</time>
      </trkpt>
      <trkpt lat="43.79801" lon="5.90243">
        <ele>526.064</ele>
        <time>2020-09-02T16:26:57Z</time>
      </trkpt>
      <trkpt lat="43.79802" lon="5.90257">
        <ele>526.24</ele>
        <time>2020-09-02T16:26:58Z</time>
      </trkpt>
      <trkpt lat="43.79803" lon="5.90273">
        <ele>525.023</ele>
        <time>2020-09-02T16:26:59Z</time>
      </trkpt>
      <trkpt lat="43.79804" lon="5.90284">
        <ele>525.358</ele>
        <time>2020-09-02T16:27:00Z</time>
      </trkpt>
      <trkpt lat="43.79805" lon="5.90292">
        <ele>525.752</ele>
        <time>2020-09-02T16:27:01Z</time>
      </trkpt>
      <trkpt lat="43.798" lon="5.90295">
        <ele>524.817</ele>
        <time>2020-09-02T16:27:04Z</time>
      </trkpt>
      <trkpt lat="43.79796" lon="5.90292">
        <ele>524.408</ele>
        <time>2020-09-02T16:27:06Z</time>
      </trkpt>
      <trkpt lat="43.79791" lon="5.90292">
        <ele>523.283</ele>
        <time>2020-09-02T16:27:24Z</time>
      </trkpt>
      <trkpt lat="43.79787" lon="5.90289">
        <ele>522.712</ele>
        <time>2020-09-02T16:27:25Z</time>
      </trkpt>
      <trkpt lat="43.79781" lon="5.90285">
        <ele>522.262</ele>
        <time>2020-09-02T16:27:26Z</time>
      </trkpt>
      <trkpt lat="43.79774" lon="5.90281">
        <ele>522.069</ele>
        <time>2020-09-02T16:27:27Z</time>
      </trkpt>
      <trkpt lat="43.79765" lon="5.90277">
        <ele>521.23</ele>
        <time>2020-09-02T16:27:28Z</time>
      </trkpt>
      <trkpt lat="43.79756" lon="5.90272">
        <ele>520.488</ele>
        <time>2020-09-02T16:27:29Z</time>
      </trkpt>
      <trkpt lat="43.79748" lon="5.90267">
        <ele>520.214</ele>
        <time>2020-09-02T16:27:30Z</time>
      </trkpt>
      <trkpt lat="43.79739" lon="5.90265">
        <ele>519.967</ele>
        <time>2020-09-02T16:27:31Z</time>
      </trkpt>
      <trkpt lat="43.79732" lon="5.90263">
        <ele>519.535</ele>
        <time>2020-09-02T16:27:32Z</time>
      </trkpt>
      <trkpt lat="43.79727" lon="5.90261">
        <ele>519.386</ele>
        <time>2020-09-02T16:27:33Z</time>
      </trkpt>
      <trkpt lat="43.79722" lon="5.90258">
        <ele>519.814</ele>
        <time>2020-09-02T16:27:35Z</time>
      </trkpt>
      <trkpt lat="43.79717" lon="5.90253">
        <ele>519.408</ele>
        <time>2020-09-02T16:27:37Z</time>
      </trkpt>
      <trkpt lat="43.79714" lon="5.90247">
        <ele>522.171</ele>
        <time>2020-09-02T16:28:20Z</time>
      </trkpt>
      <trkpt lat="43.7971" lon="5.90244">
        <ele>522.36</ele>
        <time>2020-09-02T16:28:22Z</time>
      </trkpt>
      <trkpt lat="43.79706" lon="5.90241">
        <ele>522.06</ele>
        <time>2020-09-02T16:28:24Z</time>
      </trkpt>
      <trkpt lat="43.79714" lon="5.90244">
        <ele>522.867</ele>
        <time>2020-09-02T16:28:28Z</time>
      </trkpt>
      <trkpt lat="43.79717" lon="5.90248">
        <ele>523.328</ele>
        <time>2020-09-02T16:28:29Z</time>
      </trkpt>
      <trkpt lat="43.79723" lon="5.90256">
        <ele>524.826</ele>
        <time>2020-09-02T16:28:31Z</time>
      </trkpt>
      <trkpt lat="43.79731" lon="5.9026">
        <ele>525.172</ele>
        <time>2020-09-02T16:28:33Z</time>
      </trkpt>
      <trkpt lat="43.79735" lon="5.90262">
        <ele>525.015</ele>
        <time>2020-09-02T16:28:34Z</time>
      </trkpt>
      <trkpt lat="43.79741" lon="5.90263">
        <ele>525.275</ele>
        <time>2020-09-02T16:28:35Z</time>
      </trkpt>
      <trkpt lat="43.79746" lon="5.90265">
        <ele>525.428</ele>
        <time>2020-09-02T16:28:36Z</time>
      </trkpt>
      <trkpt lat="43.79751" lon="5.90267">
        <ele>526.02</ele>
        <time>2020-09-02T16:28:37Z</time>
      </trkpt>
      <trkpt lat="43.79756" lon="5.90268">
        <ele>526.408</ele>
        <time>2020-09-02T16:28:38Z</time>
      </trkpt>
      <trkpt lat="43.7976" lon="5.9027">
        <ele>526.575</ele>
        <time>2020-09-02T16:28:39Z</time>
      </trkpt>
      <trkpt lat="43.79766" lon="5.90272">
        <ele>526.714</ele>
        <time>2020-09-02T16:28:40Z</time>
      </trkpt>
      <trkpt lat="43.79771" lon="5.90275">
        <ele>526.654</ele>
        <time>2020-09-02T16:28:41Z</time>
      </trkpt>
      <trkpt lat="43.79778" lon="5.90278">
        <ele>527.021</ele>
        <time>2020-09-02T16:28:42Z</time>
      </trkpt>
      <trkpt lat="43.79785" lon="5.90282">
        <ele>527.342</ele>
        <time>2020-09-02T16:28:43Z</time>
      </trkpt>
      <trkpt lat="43.79793" lon="5.90286">
        <ele>528.15</ele>
        <time>2020-09-02T16:28:44Z</time>
      </trkpt>
      <trkpt lat="43.79799" lon="5.9029">
        <ele>528.236</ele>
        <time>2020-09-02T16:28:45Z</time>
      </trkpt>
      <trkpt lat="43.79803" lon="5.90296">
        <ele>528.729</ele>
        <time>2020-09-02T16:28:46Z</time>
      </trkpt>
      <trkpt lat="43.79806" lon="5.90303">
        <ele>528.994</ele>
        <time>2020-09-02T16:28:47Z</time>
      </trkpt>
      <trkpt lat="43.79808" lon="5.9031">
        <ele>528.957</ele>
        <time>2020-09-02T16:28:48Z</time>
      </trkpt>
      <trkpt lat="43.7981" lon="5.90319">
        <ele>528.422</ele>
        <time>2020-09-02T16:28:49Z</time>
      </trkpt>
      <trkpt lat="43.79812" lon="5.90332">
        <ele>527.908</ele>
        <time>2020-09-02T16:28:50Z</time>
      </trkpt>
      <trkpt lat="43.79813" lon="5.90347">
        <ele>528.167</ele>
        <time>2020-09-02T16:28:51Z</time>
      </trkpt>
      <trkpt lat="43.79815" lon="5.9036">
        <ele>528.126</ele>
        <time>2020-09-02T16:28:52Z</time>
      </trkpt>
      <trkpt lat="43.79818" lon="5.90371">
        <ele>528.396</ele>
        <time>2020-09-02T16:28:53Z</time>
      </trkpt>
      <trkpt lat="43.79821" lon="5.90382">
        <ele>528.233</ele>
        <time>2020-09-02T16:28:54Z</time>
      </trkpt>
      <trkpt lat="43.79824" lon="5.90392">
        <ele>528.244</ele>
        <time>2020-09-02T16:28:55Z</time>
      </trkpt>
      <trkpt lat="43.79828" lon="5.90401">
        <ele>528.732</ele>
        <time>2020-09-02T16:28:56Z</time>
      </trkpt>
      <trkpt lat="43.79829" lon="5.90407">
        <ele>528.558</ele>
        <time>2020-09-02T16:28:57Z</time>
      </trkpt>
      <trkpt lat="43.7983" lon="5.90414">
        <ele>527.491</ele>
        <time>2020-09-02T16:28:58Z</time>
      </trkpt>
      <trkpt lat="43.79825" lon="5.90422">
        <ele>526.914</ele>
        <time>2020-09-02T16:29:00Z</time>
      </trkpt>
      <trkpt lat="43.79815" lon="5.90421">
        <ele>526.754</ele>
        <time>2020-09-02T16:29:02Z</time>
      </trkpt>
      <trkpt lat="43.79808" lon="5.90418">
        <ele>526.509</ele>
        <time>2020-09-02T16:29:03Z</time>
      </trkpt>
      <trkpt lat="43.79799" lon="5.90414">
        <ele>526.708</ele>
        <time>2020-09-02T16:29:04Z</time>
      </trkpt>
      <trkpt lat="43.79788" lon="5.9041">
        <ele>526.019</ele>
        <time>2020-09-02T16:29:05Z</time>
      </trkpt>
      <trkpt lat="43.79776" lon="5.90409">
        <ele>525.668</ele>
        <time>2020-09-02T16:29:06Z</time>
      </trkpt>
      <trkpt lat="43.79764" lon="5.90407">
        <ele>525.498</ele>
        <time>2020-09-02T16:29:07Z</time>
      </trkpt>
      <trkpt lat="43.7975" lon="5.90399">
        <ele>523.995</ele>
        <time>2020-09-02T16:29:08Z</time>
      </trkpt>
      <trkpt lat="43.79738" lon="5.90393">
        <ele>522.716</ele>
        <time>2020-09-02T16:29:09Z</time>
      </trkpt>
      <trkpt lat="43.79725" lon="5.90389">
        <ele>522.074</ele>
        <time>2020-09-02T16:29:10Z</time>
      </trkpt>
      <trkpt lat="43.79713" lon="5.90384">
        <ele>521.13</ele>
        <time>2020-09-02T16:29:11Z</time>
      </trkpt>
      <trkpt lat="43.79702" lon="5.90379">
        <ele>519.763</ele>
        <time>2020-09-02T16:29:12Z</time>
      </trkpt>
      <trkpt lat="43.7969" lon="5.90376">
        <ele>518.927</ele>
        <time>2020-09-02T16:29:13Z</time>
      </trkpt>
      <trkpt lat="43.79678" lon="5.90373">
        <ele>517.268</ele>
        <time>2020-09-02T16:29:14Z</time>
      </trkpt>
      <trkpt lat="43.79666" lon="5.90369">
        <ele>517.014</ele>
        <time>2020-09-02T16:29:15Z</time>
      </trkpt>
      <trkpt lat="43.79656" lon="5.90365">
        <ele>516.608</ele>
        <time>2020-09-02T16:29:16Z</time>
      </trkpt>
      <trkpt lat="43.79647" lon="5.90359">
        <ele>517.14</ele>
        <time>2020-09-02T16:29:17Z</time>
      </trkpt>
      <trkpt lat="43.79638" lon="5.90351">
        <ele>517.219</ele>
        <time>2020-09-02T16:29:18Z</time>
      </trkpt>
      <trkpt lat="43.79629" lon="5.90338">
        <ele>517.699</ele>
        <time>2020-09-02T16:29:19Z</time>
      </trkpt>
      <trkpt lat="43.79619" lon="5.90325">
        <ele>518.036</ele>
        <time>2020-09-02T16:29:20Z</time>
      </trkpt>
      <trkpt lat="43.79607" lon="5.90313">
        <ele>518.977</ele>
        <time>2020-09-02T16:29:21Z</time>
      </trkpt>
      <trkpt lat="43.79595" lon="5.90302">
        <ele>519.835</ele>
        <time>2020-09-02T16:29:22Z</time>
      </trkpt>
      <trkpt lat="43.79583" lon="5.90292">
        <ele>520.511</ele>
        <time>2020-09-02T16:29:23Z</time>
      </trkpt>
      <trkpt lat="43.79571" lon="5.90282">
        <ele>521.354</ele>
        <time>2020-09-02T16:29:24Z</time>
      </trkpt>
      <trkpt lat="43.7956" lon="5.90273">
        <ele>522.227</ele>
        <time>2020-09-02T16:29:25Z</time>
      </trkpt>
      <trkpt lat="43.79551" lon="5.90266">
        <ele>522.768</ele>
        <time>2020-09-02T16:29:26Z</time>
      </trkpt>
      <trkpt lat="43.79541" lon="5.90256">
        <ele>521.514</ele>
        <time>2020-09-02T16:29:27Z</time>
      </trkpt>
      <trkpt lat="43.79532" lon="5.90244">
        <ele>520.608</ele>
        <time>2020-09-02T16:29:28Z</time>
      </trkpt>
      <trkpt lat="43.79524" lon="5.9023">
        <ele>520.18</ele>
        <time>2020-09-02T16:29:29Z</time>
      </trkpt>
      <trkpt lat="43.79515" lon="5.90216">
        <ele>519.669</ele>
        <time>2020-09-02T16:29:30Z</time>
      </trkpt>
      <trkpt lat="43.79505" lon="5.90202">
        <ele>519.739</ele>
        <time>2020-09-02T16:29:31Z</time>
      </trkpt>
      <trkpt lat="43.79494" lon="5.9019">
        <ele>519.126</ele>
        <time>2020-09-02T16:29:32Z</time>
      </trkpt>
      <trkpt lat="43.79484" lon="5.90177">
        <ele>518.497</ele>
        <time>2020-09-02T16:29:33Z</time>
      </trkpt>
      <trkpt lat="43.79474" lon="5.90164">
        <ele>517.955</ele>
        <time>2020-09-02T16:29:34Z</time>
      </trkpt>
      <trkpt lat="43.79462" lon="5.90156">
        <ele>517.981</ele>
        <time>2020-09-02T16:29:35Z</time>
      </trkpt>
      <trkpt lat="43.79449" lon="5.90152">
        <ele>517.984</ele>
        <time>2020-09-02T16:29:36Z</time>
      </trkpt>
      <trkpt lat="43.79436" lon="5.9015">
        <ele>518.386</ele>
        <time>2020-09-02T16:29:37Z</time>
      </trkpt>
      <trkpt lat="43.79422" lon="5.90146">
        <ele>518.96</ele>
        <time>2020-09-02T16:29:38Z</time>
      </trkpt>
      <trkpt lat="43.79409" lon="5.90142">
        <ele>519.426</ele>
        <time>2020-09-02T16:29:39Z</time>
      </trkpt>
      <trkpt lat="43.79396" lon="5.90138">
        <ele>519.708</ele>
        <time>2020-09-02T16:29:40Z</time>
      </trkpt>
      <trkpt lat="43.79382" lon="5.90135">
        <ele>519.656</ele>
        <time>2020-09-02T16:29:41Z</time>
      </trkpt>
      <trkpt lat="43.79368" lon="5.90131">
        <ele>519.435</ele>
        <time>2020-09-02T16:29:42Z</time>
      </trkpt>
      <trkpt lat="43.79354" lon="5.90129">
        <ele>518.915</ele>
        <time>2020-09-02T16:29:43Z</time>
      </trkpt>
      <trkpt lat="43.79339" lon="5.90128">
        <ele>518.722</ele>
        <time>2020-09-02T16:29:44Z</time>
      </trkpt>
      <trkpt lat="43.79323" lon="5.90127">
        <ele>518.743</ele>
        <time>2020-09-02T16:29:45Z</time>
      </trkpt>
      <trkpt lat="43.79308" lon="5.90127">
        <ele>518.481</ele>
        <time>2020-09-02T16:29:46Z</time>
      </trkpt>
      <trkpt lat="43.79292" lon="5.90126">
        <ele>517.997</ele>
        <time>2020-09-02T16:29:47Z</time>
      </trkpt>
      <trkpt lat="43.79277" lon="5.90123">
        <ele>518.13</ele>
        <time>2020-09-02T16:29:48Z</time>
      </trkpt>
      <trkpt lat="43.7926" lon="5.90119">
        <ele>517.669</ele>
        <time>2020-09-02T16:29:49Z</time>
      </trkpt>
      <trkpt lat="43.79244" lon="5.90113">
        <ele>517.304</ele>
        <time>2020-09-02T16:29:50Z</time>
      </trkpt>
      <trkpt lat="43.79227" lon="5.90109">
        <ele>517.224</ele>
        <time>2020-09-02T16:29:51Z</time>
      </trkpt>
      <trkpt lat="43.79211" lon="5.90106">
        <ele>517.208</ele>
        <time>2020-09-02T16:29:52Z</time>
      </trkpt>
      <trkpt lat="43.79194" lon="5.90105">
        <ele>517.324</ele>
        <time>2020-09-02T16:29:53Z</time>
      </trkpt>
      <trkpt lat="43.79178" lon="5.90102">
        <ele>517.233</ele>
        <time>2020-09-02T16:29:54Z</time>
      </trkpt>
      <trkpt lat="43.79161" lon="5.90098">
        <ele>517.283</ele>
        <time>2020-09-02T16:29:55Z</time>
      </trkpt>
      <trkpt lat="43.79144" lon="5.90093">
        <ele>517.19</ele>
        <time>2020-09-02T16:29:56Z</time>
      </trkpt>
      <trkpt lat="43.7913" lon="5.90089">
        <ele>517.571</ele>
        <time>2020-09-02T16:29:57Z</time>
      </trkpt>
      <trkpt lat="43.79115" lon="5.90085">
        <ele>516.759</ele>
        <time>2020-09-02T16:29:58Z</time>
      </trkpt>
      <trkpt lat="43.79101" lon="5.90078">
        <ele>516.615</ele>
        <time>2020-09-02T16:29:59Z</time>
      </trkpt>
      <trkpt lat="43.79087" lon="5.9007">
        <ele>516.038</ele>
        <time>2020-09-02T16:30:00Z</time>
      </trkpt>
      <trkpt lat="43.79075" lon="5.90058">
        <ele>515.772</ele>
        <time>2020-09-02T16:30:01Z</time>
      </trkpt>
      <trkpt lat="43.79062" lon="5.90045">
        <ele>515.713</ele>
        <time>2020-09-02T16:30:02Z</time>
      </trkpt>
      <trkpt lat="43.7905" lon="5.9003">
        <ele>515.214</ele>
        <time>2020-09-02T16:30:03Z</time>
      </trkpt>
      <trkpt lat="43.79038" lon="5.90013">
        <ele>514.908</ele>
        <time>2020-09-02T16:30:04Z</time>
      </trkpt>
      <trkpt lat="43.79027" lon="5.89994">
        <ele>514.825</ele>
        <time>2020-09-02T16:30:05Z</time>
      </trkpt>
      <trkpt lat="43.79016" lon="5.89976">
        <ele>515.284</ele>
        <time>2020-09-02T16:30:06Z</time>
      </trkpt>
      <trkpt lat="43.79006" lon="5.89957">
        <ele>515.474</ele>
        <time>2020-09-02T16:30:07Z</time>
      </trkpt>
      <trkpt lat="43.78996" lon="5.89941">
        <ele>515.361</ele>
        <time>2020-09-02T16:30:08Z</time>
      </trkpt>
      <trkpt lat="43.78986" lon="5.89925">
        <ele>515.562</ele>
        <time>2020-09-02T16:30:09Z</time>
      </trkpt>
      <trkpt lat="43.78976" lon="5.8991">
        <ele>515.59</ele>
        <time>2020-09-02T16:30:10Z</time>
      </trkpt>
      <trkpt lat="43.78966" lon="5.89895">
        <ele>515.256</ele>
        <time>2020-09-02T16:30:11Z</time>
      </trkpt>
      <trkpt lat="43.78957" lon="5.8988">
        <ele>515.059</ele>
        <time>2020-09-02T16:30:12Z</time>
      </trkpt>
      <trkpt lat="43.78948" lon="5.89863">
        <ele>514.787</ele>
        <time>2020-09-02T16:30:13Z</time>
      </trkpt>
      <trkpt lat="43.78939" lon="5.89847">
        <ele>514.742</ele>
        <time>2020-09-02T16:30:14Z</time>
      </trkpt>
      <trkpt lat="43.78929" lon="5.89832">
        <ele>514.726</ele>
        <time>2020-09-02T16:30:15Z</time>
      </trkpt>
      <trkpt lat="43.78921" lon="5.89817">
        <ele>514.908</ele>
        <time>2020-09-02T16:30:16Z</time>
      </trkpt>
      <trkpt lat="43.78915" lon="5.89804">
        <ele>515.136</ele>
        <time>2020-09-02T16:30:17Z</time>
      </trkpt>
      <trkpt lat="43.78911" lon="5.89789">
        <ele>515.055</ele>
        <time>2020-09-02T16:30:18Z</time>
      </trkpt>
      <trkpt lat="43.78907" lon="5.89772">
        <ele>514.425</ele>
        <time>2020-09-02T16:30:19Z</time>
      </trkpt>
      <trkpt lat="43.78904" lon="5.89755">
        <ele>513.672</ele>
        <time>2020-09-02T16:30:20Z</time>
      </trkpt>
      <trkpt lat="43.78902" lon="5.89738">
        <ele>513.023</ele>
        <time>2020-09-02T16:30:21Z</time>
      </trkpt>
      <trkpt lat="43.78898" lon="5.89723">
        <ele>512.851</ele>
        <time>2020-09-02T16:30:22Z</time>
      </trkpt>
      <trkpt lat="43.78895" lon="5.89708">
        <ele>512.267</ele>
        <time>2020-09-02T16:30:23Z</time>
      </trkpt>
      <trkpt lat="43.78891" lon="5.89694">
        <ele>511.84</ele>
        <time>2020-09-02T16:30:24Z</time>
      </trkpt>
      <trkpt lat="43.78887" lon="5.89682">
        <ele>511.997</ele>
        <time>2020-09-02T16:30:25Z</time>
      </trkpt>
      <trkpt lat="43.78881" lon="5.8967">
        <ele>512.423</ele>
        <time>2020-09-02T16:30:26Z</time>
      </trkpt>
      <trkpt lat="43.78875" lon="5.89658">
        <ele>512.225</ele>
        <time>2020-09-02T16:30:27Z</time>
      </trkpt>
      <trkpt lat="43.78867" lon="5.89648">
        <ele>511.608</ele>
        <time>2020-09-02T16:30:28Z</time>
      </trkpt>
      <trkpt lat="43.78858" lon="5.89639">
        <ele>511.297</ele>
        <time>2020-09-02T16:30:29Z</time>
      </trkpt>
      <trkpt lat="43.78847" lon="5.89631">
        <ele>511.026</ele>
        <time>2020-09-02T16:30:30Z</time>
      </trkpt>
      <trkpt lat="43.78834" lon="5.89622">
        <ele>510.356</ele>
        <time>2020-09-02T16:30:31Z</time>
      </trkpt>
      <trkpt lat="43.7882" lon="5.89613">
        <ele>509.663</ele>
        <time>2020-09-02T16:30:32Z</time>
      </trkpt>
      <trkpt lat="43.78806" lon="5.89602">
        <ele>509.244</ele>
        <time>2020-09-02T16:30:33Z</time>
      </trkpt>
      <trkpt lat="43.78793" lon="5.8959">
        <ele>508.932</ele>
        <time>2020-09-02T16:30:34Z</time>
      </trkpt>
      <trkpt lat="43.7878" lon="5.8958">
        <ele>508.968</ele>
        <time>2020-09-02T16:30:35Z</time>
      </trkpt>
      <trkpt lat="43.78767" lon="5.89572">
        <ele>509.551</ele>
        <time>2020-09-02T16:30:36Z</time>
      </trkpt>
      <trkpt lat="43.78755" lon="5.89568">
        <ele>510.432</ele>
        <time>2020-09-02T16:30:37Z</time>
      </trkpt>
      <trkpt lat="43.78743" lon="5.89563">
        <ele>511.792</ele>
        <time>2020-09-02T16:30:38Z</time>
      </trkpt>
      <trkpt lat="43.78732" lon="5.89555">
        <ele>512.611</ele>
        <time>2020-09-02T16:30:39Z</time>
      </trkpt>
      <trkpt lat="43.78721" lon="5.89547">
        <ele>513.008</ele>
        <time>2020-09-02T16:30:40Z</time>
      </trkpt>
      <trkpt lat="43.78709" lon="5.89537">
        <ele>513.361</ele>
        <time>2020-09-02T16:30:41Z</time>
      </trkpt>
      <trkpt lat="43.78698" lon="5.89525">
        <ele>513.14</ele>
        <time>2020-09-02T16:30:42Z</time>
      </trkpt>
      <trkpt lat="43.78689" lon="5.89513">
        <ele>513.13</ele>
        <time>2020-09-02T16:30:43Z</time>
      </trkpt>
      <trkpt lat="43.7868" lon="5.89499">
        <ele>512.587</ele>
        <time>2020-09-02T16:30:44Z</time>
      </trkpt>
      <trkpt lat="43.7867" lon="5.89485">
        <ele>511.038</ele>
        <time>2020-09-02T16:30:45Z</time>
      </trkpt>
      <trkpt lat="43.78659" lon="5.89472">
        <ele>510.486</ele>
        <time>2020-09-02T16:30:46Z</time>
      </trkpt>
      <trkpt lat="43.78647" lon="5.89459">
        <ele>510.572</ele>
        <time>2020-09-02T16:30:47Z</time>
      </trkpt>
      <trkpt lat="43.78635" lon="5.89447">
        <ele>510.735</ele>
        <time>2020-09-02T16:30:48Z</time>
      </trkpt>
      <trkpt lat="43.78623" lon="5.89434">
        <ele>511.113</ele>
        <time>2020-09-02T16:30:49Z</time>
      </trkpt>
      <trkpt lat="43.78613" lon="5.8942">
        <ele>511.543</ele>
        <time>2020-09-02T16:30:50Z</time>
      </trkpt>
      <trkpt lat="43.78604" lon="5.89407">
        <ele>512.007</ele>
        <time>2020-09-02T16:30:51Z</time>
      </trkpt>
      <trkpt lat="43.78599" lon="5.89396">
        <ele>512.208</ele>
        <time>2020-09-02T16:30:52Z</time>
      </trkpt>
      <trkpt lat="43.78596" lon="5.89388">
        <ele>512.129</ele>
        <time>2020-09-02T16:30:53Z</time>
      </trkpt>
      <trkpt lat="43.78594" lon="5.89383">
        <ele>511.818</ele>
        <time>2020-09-02T16:30:54Z</time>
      </trkpt>
      <trkpt lat="43.78592" lon="5.89375">
        <ele>511.778</ele>
        <time>2020-09-02T16:30:55Z</time>
      </trkpt>
      <trkpt lat="43.7859" lon="5.89366">
        <ele>511.515</ele>
        <time>2020-09-02T16:30:56Z</time>
      </trkpt>
      <trkpt lat="43.7859" lon="5.89354">
        <ele>511.216</ele>
        <time>2020-09-02T16:30:57Z</time>
      </trkpt>
      <trkpt lat="43.7859" lon="5.89341">
        <ele>510.924</ele>
        <time>2020-09-02T16:30:58Z</time>
      </trkpt>
      <trkpt lat="43.7859" lon="5.89329">
        <ele>510.25</ele>
        <time>2020-09-02T16:30:59Z</time>
      </trkpt>
      <trkpt lat="43.78588" lon="5.89316">
        <ele>509.463</ele>
        <time>2020-09-02T16:31:00Z</time>
      </trkpt>
      <trkpt lat="43.78586" lon="5.89304">
        <ele>508.451</ele>
        <time>2020-09-02T16:31:01Z</time>
      </trkpt>
      <trkpt lat="43.78583" lon="5.89293">
        <ele>508.401</ele>
        <time>2020-09-02T16:31:02Z</time>
      </trkpt>
      <trkpt lat="43.7858" lon="5.89283">
        <ele>508.411</ele>
        <time>2020-09-02T16:31:03Z</time>
      </trkpt>
      <trkpt lat="43.78576" lon="5.89274">
        <ele>508.308</ele>
        <time>2020-09-02T16:31:04Z</time>
      </trkpt>
      <trkpt lat="43.78571" lon="5.89265">
        <ele>508.373</ele>
        <time>2020-09-02T16:31:05Z</time>
      </trkpt>
      <trkpt lat="43.78565" lon="5.89256">
        <ele>507.932</ele>
        <time>2020-09-02T16:31:06Z</time>
      </trkpt>
      <trkpt lat="43.78558" lon="5.89249">
        <ele>508.252</ele>
        <time>2020-09-02T16:31:07Z</time>
      </trkpt>
      <trkpt lat="43.7855" lon="5.89242">
        <ele>508.269</ele>
        <time>2020-09-02T16:31:08Z</time>
      </trkpt>
      <trkpt lat="43.78541" lon="5.89235">
        <ele>508.11</ele>
        <time>2020-09-02T16:31:09Z</time>
      </trkpt>
      <trkpt lat="43.78531" lon="5.89226">
        <ele>508.238</ele>
        <time>2020-09-02T16:31:10Z</time>
      </trkpt>
      <trkpt lat="43.78522" lon="5.89218">
        <ele>507.984</ele>
        <time>2020-09-02T16:31:11Z</time>
      </trkpt>
      <trkpt lat="43.78512" lon="5.89208">
        <ele>508.187</ele>
        <time>2020-09-02T16:31:12Z</time>
      </trkpt>
      <trkpt lat="43.78502" lon="5.89199">
        <ele>508.296</ele>
        <time>2020-09-02T16:31:13Z</time>
      </trkpt>
      <trkpt lat="43.78493" lon="5.89191">
        <ele>509.331</ele>
        <time>2020-09-02T16:31:14Z</time>
      </trkpt>
      <trkpt lat="43.78484" lon="5.89183">
        <ele>509.624</ele>
        <time>2020-09-02T16:31:15Z</time>
      </trkpt>
      <trkpt lat="43.78475" lon="5.89173">
        <ele>509.608</ele>
        <time>2020-09-02T16:31:16Z</time>
      </trkpt>
      <trkpt lat="43.78467" lon="5.89161">
        <ele>509.427</ele>
        <time>2020-09-02T16:31:17Z</time>
      </trkpt>
      <trkpt lat="43.78459" lon="5.89151">
        <ele>509.036</ele>
        <time>2020-09-02T16:31:18Z</time>
      </trkpt>
      <trkpt lat="43.7845" lon="5.89142">
        <ele>508.866</ele>
        <time>2020-09-02T16:31:19Z</time>
      </trkpt>
      <trkpt lat="43.78441" lon="5.89135">
        <ele>508.493</ele>
        <time>2020-09-02T16:31:20Z</time>
      </trkpt>
      <trkpt lat="43.78434" lon="5.89128">
        <ele>508.114</ele>
        <time>2020-09-02T16:31:21Z</time>
      </trkpt>
      <trkpt lat="43.78428" lon="5.89118">
        <ele>507.582</ele>
        <time>2020-09-02T16:31:22Z</time>
      </trkpt>
      <trkpt lat="43.78421" lon="5.89106">
        <ele>507.468</ele>
        <time>2020-09-02T16:31:23Z</time>
      </trkpt>
      <trkpt lat="43.78417" lon="5.89093">
        <ele>507.341</ele>
        <time>2020-09-02T16:31:24Z</time>
      </trkpt>
      <trkpt lat="43.78414" lon="5.8908">
        <ele>507.359</ele>
        <time>2020-09-02T16:31:25Z</time>
      </trkpt>
      <trkpt lat="43.7841" lon="5.89066">
        <ele>507.103</ele>
        <time>2020-09-02T16:31:26Z</time>
      </trkpt>
      <trkpt lat="43.78409" lon="5.89051">
        <ele>507.223</ele>
        <time>2020-09-02T16:31:27Z</time>
      </trkpt>
      <trkpt lat="43.7841" lon="5.89036">
        <ele>507.608</ele>
        <time>2020-09-02T16:31:28Z</time>
      </trkpt>
      <trkpt lat="43.78411" lon="5.89022">
        <ele>508.323</ele>
        <time>2020-09-02T16:31:29Z</time>
      </trkpt>
      <trkpt lat="43.78416" lon="5.89008">
        <ele>508.512</ele>
        <time>2020-09-02T16:31:30Z</time>
      </trkpt>
      <trkpt lat="43.78421" lon="5.88996">
        <ele>508.972</ele>
        <time>2020-09-02T16:31:31Z</time>
      </trkpt>
      <trkpt lat="43.78425" lon="5.88983">
        <ele>509.239</ele>
        <time>2020-09-02T16:31:32Z</time>
      </trkpt>
      <trkpt lat="43.78425" lon="5.88968">
        <ele>509.06</ele>
        <time>2020-09-02T16:31:33Z</time>
      </trkpt>
      <trkpt lat="43.78426" lon="5.88953">
        <ele>509.288</ele>
        <time>2020-09-02T16:31:34Z</time>
      </trkpt>
      <trkpt lat="43.78422" lon="5.88935">
        <ele>509.444</ele>
        <time>2020-09-02T16:31:35Z</time>
      </trkpt>
      <trkpt lat="43.7842" lon="5.88917">
        <ele>509.417</ele>
        <time>2020-09-02T16:31:36Z</time>
      </trkpt>
      <trkpt lat="43.7842" lon="5.88898">
        <ele>510.111</ele>
        <time>2020-09-02T16:31:37Z</time>
      </trkpt>
      <trkpt lat="43.7842" lon="5.8888">
        <ele>510.821</ele>
        <time>2020-09-02T16:31:38Z</time>
      </trkpt>
      <trkpt lat="43.78419" lon="5.88861">
        <ele>511.203</ele>
        <time>2020-09-02T16:31:39Z</time>
      </trkpt>
      <trkpt lat="43.78419" lon="5.88844">
        <ele>511.708</ele>
        <time>2020-09-02T16:31:40Z</time>
      </trkpt>
      <trkpt lat="43.78418" lon="5.88827">
        <ele>511.449</ele>
        <time>2020-09-02T16:31:41Z</time>
      </trkpt>
      <trkpt lat="43.78418" lon="5.88809">
        <ele>510.998</ele>
        <time>2020-09-02T16:31:42Z</time>
      </trkpt>
      <trkpt lat="43.78417" lon="5.88791">
        <ele>510.378</ele>
        <time>2020-09-02T16:31:43Z</time>
      </trkpt>
      <trkpt lat="43.78416" lon="5.88772">
        <ele>510.295</ele>
        <time>2020-09-02T16:31:44Z</time>
      </trkpt>
      <trkpt lat="43.78417" lon="5.88753">
        <ele>509.916</ele>
        <time>2020-09-02T16:31:45Z</time>
      </trkpt>
      <trkpt lat="43.78419" lon="5.88734">
        <ele>509.474</ele>
        <time>2020-09-02T16:31:46Z</time>
      </trkpt>
      <trkpt lat="43.7842" lon="5.88716">
        <ele>509.06</ele>
        <time>2020-09-02T16:31:47Z</time>
      </trkpt>
      <trkpt lat="43.78418" lon="5.88697">
        <ele>508.723</ele>
        <time>2020-09-02T16:31:48Z</time>
      </trkpt>
      <trkpt lat="43.78415" lon="5.88678">
        <ele>509.053</ele>
        <time>2020-09-02T16:31:49Z</time>
      </trkpt>
      <trkpt lat="43.78414" lon="5.88658">
        <ele>508.804</ele>
        <time>2020-09-02T16:31:50Z</time>
      </trkpt>
      <trkpt lat="43.78412" lon="5.88638">
        <ele>509.214</ele>
        <time>2020-09-02T16:31:51Z</time>
      </trkpt>
      <trkpt lat="43.78411" lon="5.8862">
        <ele>509.608</ele>
        <time>2020-09-02T16:31:52Z</time>
      </trkpt>
      <trkpt lat="43.7841" lon="5.886">
        <ele>510.433</ele>
        <time>2020-09-02T16:31:53Z</time>
      </trkpt>
      <trkpt lat="43.7841" lon="5.88581">
        <ele>511.012</ele>
        <time>2020-09-02T16:31:54Z</time>
      </trkpt>
      <trkpt lat="43.7841" lon="5.88562">
        <ele>511.252</ele>
        <time>2020-09-02T16:31:55Z</time>
      </trkpt>
      <trkpt lat="43.78411" lon="5.88542">
        <ele>511.359</ele>
        <time>2020-09-02T16:31:56Z</time>
      </trkpt>
      <trkpt lat="43.78411" lon="5.88522">
        <ele>511.55</ele>
        <time>2020-09-02T16:31:57Z</time>
      </trkpt>
      <trkpt lat="43.78412" lon="5.88501">
        <ele>511.788</ele>
        <time>2020-09-02T16:31:58Z</time>
      </trkpt>
      <trkpt lat="43.78414" lon="5.88481">
        <ele>511.864</ele>
        <time>2020-09-02T16:31:59Z</time>
      </trkpt>
      <trkpt lat="43.78414" lon="5.8846">
        <ele>511.977</ele>
        <time>2020-09-02T16:32:00Z</time>
      </trkpt>
      <trkpt lat="43.78413" lon="5.8844">
        <ele>512.277</ele>
        <time>2020-09-02T16:32:01Z</time>
      </trkpt>
      <trkpt lat="43.78411" lon="5.8842">
        <ele>512.261</ele>
        <time>2020-09-02T16:32:02Z</time>
      </trkpt>
      <trkpt lat="43.78408" lon="5.884">
        <ele>512.427</ele>
        <time>2020-09-02T16:32:03Z</time>
      </trkpt>
      <trkpt lat="43.78405" lon="5.88381">
        <ele>512.608</ele>
        <time>2020-09-02T16:32:04Z</time>
      </trkpt>
      <trkpt lat="43.784" lon="5.88363">
        <ele>512.475</ele>
        <time>2020-09-02T16:32:05Z</time>
      </trkpt>
      <trkpt lat="43.78396" lon="5.88346">
        <ele>512.884</ele>
        <time>2020-09-02T16:32:06Z</time>
      </trkpt>
      <trkpt lat="43.7839" lon="5.8833">
        <ele>512.564</ele>
        <time>2020-09-02T16:32:07Z</time>
      </trkpt>
      <trkpt lat="43.78383" lon="5.88313">
        <ele>512.731</ele>
        <time>2020-09-02T16:32:08Z</time>
      </trkpt>
      <trkpt lat="43.78377" lon="5.88298">
        <ele>512.682</ele>
        <time>2020-09-02T16:32:09Z</time>
      </trkpt>
      <trkpt lat="43.78373" lon="5.88286">
        <ele>512.83</ele>
        <time>2020-09-02T16:32:10Z</time>
      </trkpt>
      <trkpt lat="43.7837" lon="5.88278">
        <ele>512.846</ele>
        <time>2020-09-02T16:32:11Z</time>
      </trkpt>
      <trkpt lat="43.78368" lon="5.88272">
        <ele>512.879</ele>
        <time>2020-09-02T16:32:12Z</time>
      </trkpt>
      <trkpt lat="43.78365" lon="5.88267">
        <ele>513.018</ele>
        <time>2020-09-02T16:32:14Z</time>
      </trkpt>
      <trkpt lat="43.78366" lon="5.88275">
        <ele>512.698</ele>
        <time>2020-09-02T16:32:18Z</time>
      </trkpt>
      <trkpt lat="43.78371" lon="5.88286">
        <ele>512.617</ele>
        <time>2020-09-02T16:32:20Z</time>
      </trkpt>
      <trkpt lat="43.78373" lon="5.88294">
        <ele>512.608</ele>
        <time>2020-09-02T16:32:21Z</time>
      </trkpt>
      <trkpt lat="43.78377" lon="5.88301">
        <ele>512.869</ele>
        <time>2020-09-02T16:32:22Z</time>
      </trkpt>
      <trkpt lat="43.7838" lon="5.88307">
        <ele>512.928</ele>
        <time>2020-09-02T16:32:23Z</time>
      </trkpt>
      <trkpt lat="43.78383" lon="5.88314">
        <ele>512.968</ele>
        <time>2020-09-02T16:32:24Z</time>
      </trkpt>
      <trkpt lat="43.78386" lon="5.8832">
        <ele>512.375</ele>
        <time>2020-09-02T16:32:25Z</time>
      </trkpt>
      <trkpt lat="43.78389" lon="5.88326">
        <ele>512.956</ele>
        <time>2020-09-02T16:32:26Z</time>
      </trkpt>
      <trkpt lat="43.78391" lon="5.88332">
        <ele>512.764</ele>
        <time>2020-09-02T16:32:27Z</time>
      </trkpt>
      <trkpt lat="43.78392" lon="5.88339">
        <ele>512.68</ele>
        <time>2020-09-02T16:32:28Z</time>
      </trkpt>
      <trkpt lat="43.78389" lon="5.88344">
        <ele>512.563</ele>
        <time>2020-09-02T16:32:29Z</time>
      </trkpt>
      <trkpt lat="43.78383" lon="5.88352">
        <ele>511.995</ele>
        <time>2020-09-02T16:32:31Z</time>
      </trkpt>
      <trkpt lat="43.78379" lon="5.88355">
        <ele>512.049</ele>
        <time>2020-09-02T16:32:32Z</time>
      </trkpt>
      <trkpt lat="43.78373" lon="5.88356">
        <ele>512.323</ele>
        <time>2020-09-02T16:32:33Z</time>
      </trkpt>
      <trkpt lat="43.78367" lon="5.88359">
        <ele>512.208</ele>
        <time>2020-09-02T16:32:34Z</time>
      </trkpt>
      <trkpt lat="43.7836" lon="5.88363">
        <ele>512.737</ele>
        <time>2020-09-02T16:32:35Z</time>
      </trkpt>
      <trkpt lat="43.78354" lon="5.88367">
        <ele>512.796</ele>
        <time>2020-09-02T16:32:36Z</time>
      </trkpt>
      <trkpt lat="43.78347" lon="5.88369">
        <ele>512.976</ele>
        <time>2020-09-02T16:32:37Z</time>
      </trkpt>
      <trkpt lat="43.78339" lon="5.88372">
        <ele>512.613</ele>
        <time>2020-09-02T16:32:38Z</time>
      </trkpt>
      <trkpt lat="43.78331" lon="5.88374">
        <ele>512.974</ele>
        <time>2020-09-02T16:32:39Z</time>
      </trkpt>
      <trkpt lat="43.78322" lon="5.88378">
        <ele>512.612</ele>
        <time>2020-09-02T16:32:40Z</time>
      </trkpt>
      <trkpt lat="43.78313" lon="5.8838">
        <ele>512.138</ele>
        <time>2020-09-02T16:32:41Z</time>
      </trkpt>
      <trkpt lat="43.78303" lon="5.88382">
        <ele>512.121</ele>
        <time>2020-09-02T16:32:42Z</time>
      </trkpt>
      <trkpt lat="43.78294" lon="5.88386">
        <ele>511.697</ele>
        <time>2020-09-02T16:32:43Z</time>
      </trkpt>
      <trkpt lat="43.78285" lon="5.88391">
        <ele>511.823</ele>
        <time>2020-09-02T16:32:44Z</time>
      </trkpt>
      <trkpt lat="43.78276" lon="5.88394">
        <ele>511.525</ele>
        <time>2020-09-02T16:32:45Z</time>
      </trkpt>
      <trkpt lat="43.78268" lon="5.88399">
        <ele>511.208</ele>
        <time>2020-09-02T16:32:46Z</time>
      </trkpt>
      <trkpt lat="43.7826" lon="5.88406">
        <ele>510.187</ele>
        <time>2020-09-02T16:32:47Z</time>
      </trkpt>
      <trkpt lat="43.78251" lon="5.88414">
        <ele>509.446</ele>
        <time>2020-09-02T16:32:48Z</time>
      </trkpt>
      <trkpt lat="43.78243" lon="5.88424">
        <ele>509.686</ele>
        <time>2020-09-02T16:32:49Z</time>
      </trkpt>
      <trkpt lat="43.78236" lon="5.88435">
        <ele>509.273</ele>
        <time>2020-09-02T16:32:50Z</time>
      </trkpt>
      <trkpt lat="43.78229" lon="5.88445">
        <ele>509.284</ele>
        <time>2020-09-02T16:32:51Z</time>
      </trkpt>
      <trkpt lat="43.78223" lon="5.88456">
        <ele>508.432</ele>
        <time>2020-09-02T16:32:52Z</time>
      </trkpt>
      <trkpt lat="43.78219" lon="5.88467">
        <ele>508.628</ele>
        <time>2020-09-02T16:32:53Z</time>
      </trkpt>
      <trkpt lat="43.78215" lon="5.88478">
        <ele>508.531</ele>
        <time>2020-09-02T16:32:54Z</time>
      </trkpt>
      <trkpt lat="43.78213" lon="5.88486">
        <ele>508.874</ele>
        <time>2020-09-02T16:32:55Z</time>
      </trkpt>
      <trkpt lat="43.78209" lon="5.88495">
        <ele>508.656</ele>
        <time>2020-09-02T16:32:56Z</time>
      </trkpt>
      <trkpt lat="43.78204" lon="5.88504">
        <ele>508.321</ele>
        <time>2020-09-02T16:32:57Z</time>
      </trkpt>
      <trkpt lat="43.78198" lon="5.88513">
        <ele>508.108</ele>
        <time>2020-09-02T16:32:58Z</time>
      </trkpt>
      <trkpt lat="43.78191" lon="5.88524">
        <ele>508.085</ele>
        <time>2020-09-02T16:32:59Z</time>
      </trkpt>
      <trkpt lat="43.78184" lon="5.88535">
        <ele>507.564</ele>
        <time>2020-09-02T16:33:00Z</time>
      </trkpt>
      <trkpt lat="43.78177" lon="5.88548">
        <ele>507.294</ele>
        <time>2020-09-02T16:33:01Z</time>
      </trkpt>
      <trkpt lat="43.7817" lon="5.8856">
        <ele>506.911</ele>
        <time>2020-09-02T16:33:02Z</time>
      </trkpt>
      <trkpt lat="43.78163" lon="5.88572">
        <ele>506.962</ele>
        <time>2020-09-02T16:33:03Z</time>
      </trkpt>
      <trkpt lat="43.78155" lon="5.88583">
        <ele>507.67</ele>
        <time>2020-09-02T16:33:04Z</time>
      </trkpt>
      <trkpt lat="43.78147" lon="5.88592">
        <ele>507.836</ele>
        <time>2020-09-02T16:33:05Z</time>
      </trkpt>
      <trkpt lat="43.78141" lon="5.88602">
        <ele>508.039</ele>
        <time>2020-09-02T16:33:06Z</time>
      </trkpt>
      <trkpt lat="43.78135" lon="5.88613">
        <ele>508.198</ele>
        <time>2020-09-02T16:33:07Z</time>
      </trkpt>
      <trkpt lat="43.78128" lon="5.88626">
        <ele>507.915</ele>
        <time>2020-09-02T16:33:08Z</time>
      </trkpt>
      <trkpt lat="43.78123" lon="5.88638">
        <ele>507.926</ele>
        <time>2020-09-02T16:33:09Z</time>
      </trkpt>
      <trkpt lat="43.78118" lon="5.88651">
        <ele>508.208</ele>
        <time>2020-09-02T16:33:10Z</time>
      </trkpt>
      <trkpt lat="43.78113" lon="5.88663">
        <ele>508.427</ele>
        <time>2020-09-02T16:33:11Z</time>
      </trkpt>
      <trkpt lat="43.78108" lon="5.88674">
        <ele>508.876</ele>
        <time>2020-09-02T16:33:12Z</time>
      </trkpt>
      <trkpt lat="43.781" lon="5.88685">
        <ele>509.016</ele>
        <time>2020-09-02T16:33:13Z</time>
      </trkpt>
      <trkpt lat="43.78091" lon="5.88695">
        <ele>509.013</ele>
        <time>2020-09-02T16:33:14Z</time>
      </trkpt>
      <trkpt lat="43.78082" lon="5.88705">
        <ele>509.114</ele>
        <time>2020-09-02T16:33:15Z</time>
      </trkpt>
      <trkpt lat="43.78073" lon="5.88713">
        <ele>508.792</ele>
        <time>2020-09-02T16:33:16Z</time>
      </trkpt>
      <trkpt lat="43.78065" lon="5.88722">
        <ele>508.538</ele>
        <time>2020-09-02T16:33:17Z</time>
      </trkpt>
      <trkpt lat="43.78058" lon="5.88732">
        <ele>508.491</ele>
        <time>2020-09-02T16:33:18Z</time>
      </trkpt>
      <trkpt lat="43.78051" lon="5.88741">
        <ele>508.356</ele>
        <time>2020-09-02T16:33:19Z</time>
      </trkpt>
      <trkpt lat="43.78044" lon="5.88751">
        <ele>508.459</ele>
        <time>2020-09-02T16:33:20Z</time>
      </trkpt>
      <trkpt lat="43.78038" lon="5.88762">
        <ele>508.214</ele>
        <time>2020-09-02T16:33:21Z</time>
      </trkpt>
      <trkpt lat="43.78033" lon="5.88773">
        <ele>507.808</ele>
        <time>2020-09-02T16:33:22Z</time>
      </trkpt>
      <trkpt lat="43.78027" lon="5.88785">
        <ele>507.783</ele>
        <time>2020-09-02T16:33:23Z</time>
      </trkpt>
      <trkpt lat="43.78022" lon="5.88798">
        <ele>507.492</ele>
        <time>2020-09-02T16:33:24Z</time>
      </trkpt>
      <trkpt lat="43.78016" lon="5.88811">
        <ele>507.152</ele>
        <time>2020-09-02T16:33:25Z</time>
      </trkpt>
      <trkpt lat="43.78011" lon="5.88822">
        <ele>506.939</ele>
        <time>2020-09-02T16:33:26Z</time>
      </trkpt>
      <trkpt lat="43.78005" lon="5.88834">
        <ele>506.75</ele>
        <time>2020-09-02T16:33:27Z</time>
      </trkpt>
      <trkpt lat="43.77997" lon="5.88844">
        <ele>506.358</ele>
        <time>2020-09-02T16:33:28Z</time>
      </trkpt>
      <trkpt lat="43.77988" lon="5.88854">
        <ele>506.294</ele>
        <time>2020-09-02T16:33:29Z</time>
      </trkpt>
      <trkpt lat="43.7798" lon="5.88865">
        <ele>505.767</ele>
        <time>2020-09-02T16:33:30Z</time>
      </trkpt>
      <trkpt lat="43.7797" lon="5.88874">
        <ele>505.744</ele>
        <time>2020-09-02T16:33:31Z</time>
      </trkpt>
      <trkpt lat="43.77959" lon="5.88884">
        <ele>505.305</ele>
        <time>2020-09-02T16:33:32Z</time>
      </trkpt>
      <trkpt lat="43.77948" lon="5.88895">
        <ele>505.715</ele>
        <time>2020-09-02T16:33:33Z</time>
      </trkpt>
      <trkpt lat="43.77937" lon="5.88904">
        <ele>505.908</ele>
        <time>2020-09-02T16:33:34Z</time>
      </trkpt>
      <trkpt lat="43.77928" lon="5.88912">
        <ele>506.372</ele>
        <time>2020-09-02T16:33:35Z</time>
      </trkpt>
      <trkpt lat="43.77919" lon="5.8892">
        <ele>506.781</ele>
        <time>2020-09-02T16:33:36Z</time>
      </trkpt>
      <trkpt lat="43.77909" lon="5.88928">
        <ele>506.871</ele>
        <time>2020-09-02T16:33:37Z</time>
      </trkpt>
      <trkpt lat="43.779" lon="5.88934">
        <ele>507.228</ele>
        <time>2020-09-02T16:33:38Z</time>
      </trkpt>
      <trkpt lat="43.7789" lon="5.8894">
        <ele>507.059</ele>
        <time>2020-09-02T16:33:39Z</time>
      </trkpt>
      <trkpt lat="43.77881" lon="5.88947">
        <ele>507.127</ele>
        <time>2020-09-02T16:33:40Z</time>
      </trkpt>
      <trkpt lat="43.77873" lon="5.88953">
        <ele>506.733</ele>
        <time>2020-09-02T16:33:41Z</time>
      </trkpt>
      <trkpt lat="43.77867" lon="5.8896">
        <ele>506.596</ele>
        <time>2020-09-02T16:33:42Z</time>
      </trkpt>
      <trkpt lat="43.77861" lon="5.88967">
        <ele>506.012</ele>
        <time>2020-09-02T16:33:43Z</time>
      </trkpt>
      <trkpt lat="43.77854" lon="5.88975">
        <ele>505.432</ele>
        <time>2020-09-02T16:33:44Z</time>
      </trkpt>
      <trkpt lat="43.77845" lon="5.88984">
        <ele>504.505</ele>
        <time>2020-09-02T16:33:45Z</time>
      </trkpt>
      <trkpt lat="43.77836" lon="5.88991">
        <ele>503.608</ele>
        <time>2020-09-02T16:33:46Z</time>
      </trkpt>
      <trkpt lat="43.77827" lon="5.88998">
        <ele>502.839</ele>
        <time>2020-09-02T16:33:47Z</time>
      </trkpt>
      <trkpt lat="43.77818" lon="5.89005">
        <ele>502.458</ele>
        <time>2020-09-02T16:33:48Z</time>
      </trkpt>
      <trkpt lat="43.77809" lon="5.89011">
        <ele>501.788</ele>
        <time>2020-09-02T16:33:49Z</time>
      </trkpt>
      <trkpt lat="43.77801" lon="5.89016">
        <ele>501.055</ele>
        <time>2020-09-02T16:33:50Z</time>
      </trkpt>
      <trkpt lat="43.77793" lon="5.89018">
        <ele>500.726</ele>
        <time>2020-09-02T16:33:51Z</time>
      </trkpt>
      <trkpt lat="43.77787" lon="5.89018">
        <ele>500.624</ele>
        <time>2020-09-02T16:33:52Z</time>
      </trkpt>
      <trkpt lat="43.7778" lon="5.89014">
        <ele>501.09</ele>
        <time>2020-09-02T16:33:54Z</time>
      </trkpt>
      <trkpt lat="43.7778" lon="5.89005">
        <ele>500.063</ele>
        <time>2020-09-02T16:33:57Z</time>
      </trkpt>
      <trkpt lat="43.77778" lon="5.88994">
        <ele>499.885</ele>
        <time>2020-09-02T16:33:59Z</time>
      </trkpt>
      <trkpt lat="43.77777" lon="5.88986">
        <ele>499.489</ele>
        <time>2020-09-02T16:34:00Z</time>
      </trkpt>
      <trkpt lat="43.77776" lon="5.88979">
        <ele>498.917</ele>
        <time>2020-09-02T16:34:01Z</time>
      </trkpt>
      <trkpt lat="43.77775" lon="5.88971">
        <ele>497.708</ele>
        <time>2020-09-02T16:34:02Z</time>
      </trkpt>
      <trkpt lat="43.77773" lon="5.88963">
        <ele>496.526</ele>
        <time>2020-09-02T16:34:03Z</time>
      </trkpt>
      <trkpt lat="43.77772" lon="5.88956">
        <ele>495.155</ele>
        <time>2020-09-02T16:34:04Z</time>
      </trkpt>
      <trkpt lat="43.77771" lon="5.88949">
        <ele>494.065</ele>
        <time>2020-09-02T16:34:05Z</time>
      </trkpt>
      <trkpt lat="43.77769" lon="5.88942">
        <ele>493.082</ele>
        <time>2020-09-02T16:34:06Z</time>
      </trkpt>
      <trkpt lat="43.77767" lon="5.88936">
        <ele>492.013</ele>
        <time>2020-09-02T16:34:07Z</time>
      </trkpt>
      <trkpt lat="43.77764" lon="5.8893">
        <ele>491.151</ele>
        <time>2020-09-02T16:34:08Z</time>
      </trkpt>
      <trkpt lat="43.7776" lon="5.88925">
        <ele>490.617</ele>
        <time>2020-09-02T16:34:09Z</time>
      </trkpt>
      <trkpt lat="43.77756" lon="5.88919">
        <ele>489.62</ele>
        <time>2020-09-02T16:34:10Z</time>
      </trkpt>
      <trkpt lat="43.77752" lon="5.88912">
        <ele>488.591</ele>
        <time>2020-09-02T16:34:11Z</time>
      </trkpt>
      <trkpt lat="43.77748" lon="5.88907">
        <ele>487.781</ele>
        <time>2020-09-02T16:34:12Z</time>
      </trkpt>
      <trkpt lat="43.77742" lon="5.88901">
        <ele>486.619</ele>
        <time>2020-09-02T16:34:13Z</time>
      </trkpt>
      <trkpt lat="43.77737" lon="5.88895">
        <ele>485.708</ele>
        <time>2020-09-02T16:34:14Z</time>
      </trkpt>
      <trkpt lat="43.77733" lon="5.88888">
        <ele>484.387</ele>
        <time>2020-09-02T16:34:15Z</time>
      </trkpt>
      <trkpt lat="43.77729" lon="5.88881">
        <ele>483.446</ele>
        <time>2020-09-02T16:34:16Z</time>
      </trkpt>
      <trkpt lat="43.77724" lon="5.88873">
        <ele>482.586</ele>
        <time>2020-09-02T16:34:17Z</time>
      </trkpt>
      <trkpt lat="43.7772" lon="5.88864">
        <ele>481.533</ele>
        <time>2020-09-02T16:34:18Z</time>
      </trkpt>
      <trkpt lat="43.77716" lon="5.88856">
        <ele>481.194</ele>
        <time>2020-09-02T16:34:19Z</time>
      </trkpt>
      <trkpt lat="43.77713" lon="5.88846">
        <ele>480.722</ele>
        <time>2020-09-02T16:34:20Z</time>
      </trkpt>
      <trkpt lat="43.7771" lon="5.88838">
        <ele>480.278</ele>
        <time>2020-09-02T16:34:21Z</time>
      </trkpt>
      <trkpt lat="43.77709" lon="5.8883">
        <ele>479.571</ele>
        <time>2020-09-02T16:34:22Z</time>
      </trkpt>
      <trkpt lat="43.77709" lon="5.88821">
        <ele>478.717</ele>
        <time>2020-09-02T16:34:23Z</time>
      </trkpt>
      <trkpt lat="43.77708" lon="5.88813">
        <ele>478.487</ele>
        <time>2020-09-02T16:34:24Z</time>
      </trkpt>
      <trkpt lat="43.77708" lon="5.88805">
        <ele>477.615</ele>
        <time>2020-09-02T16:34:25Z</time>
      </trkpt>
      <trkpt lat="43.77708" lon="5.88797">
        <ele>476.408</ele>
        <time>2020-09-02T16:34:26Z</time>
      </trkpt>
      <trkpt lat="43.77709" lon="5.88789">
        <ele>475.969</ele>
        <time>2020-09-02T16:34:27Z</time>
      </trkpt>
      <trkpt lat="43.77711" lon="5.88783">
        <ele>473.938</ele>
        <time>2020-09-02T16:34:28Z</time>
      </trkpt>
      <trkpt lat="43.77712" lon="5.88775">
        <ele>473.458</ele>
        <time>2020-09-02T16:34:29Z</time>
      </trkpt>
      <trkpt lat="43.77715" lon="5.88767">
        <ele>472.325</ele>
        <time>2020-09-02T16:34:30Z</time>
      </trkpt>
      <trkpt lat="43.77717" lon="5.8876">
        <ele>471.766</ele>
        <time>2020-09-02T16:34:31Z</time>
      </trkpt>
      <trkpt lat="43.7772" lon="5.88753">
        <ele>470.784</ele>
        <time>2020-09-02T16:34:32Z</time>
      </trkpt>
      <trkpt lat="43.77722" lon="5.88746">
        <ele>470.14</ele>
        <time>2020-09-02T16:34:33Z</time>
      </trkpt>
      <trkpt lat="43.77724" lon="5.88739">
        <ele>468.823</ele>
        <time>2020-09-02T16:34:34Z</time>
      </trkpt>
      <trkpt lat="43.77728" lon="5.88732">
        <ele>467.711</ele>
        <time>2020-09-02T16:34:36Z</time>
      </trkpt>
      <trkpt lat="43.77731" lon="5.88724">
        <ele>466.121</ele>
        <time>2020-09-02T16:34:38Z</time>
      </trkpt>
      <trkpt lat="43.77735" lon="5.88715">
        <ele>465.303</ele>
        <time>2020-09-02T16:34:40Z</time>
      </trkpt>
      <trkpt lat="43.7774" lon="5.88709">
        <ele>464.608</ele>
        <time>2020-09-02T16:34:42Z</time>
      </trkpt>
      <trkpt lat="43.77744" lon="5.88704">
        <ele>464.099</ele>
        <time>2020-09-02T16:34:43Z</time>
      </trkpt>
      <trkpt lat="43.77747" lon="5.88699">
        <ele>463.438</ele>
        <time>2020-09-02T16:34:44Z</time>
      </trkpt>
      <trkpt lat="43.7775" lon="5.88694">
        <ele>463.028</ele>
        <time>2020-09-02T16:34:45Z</time>
      </trkpt>
      <trkpt lat="43.77754" lon="5.88689">
        <ele>462.445</ele>
        <time>2020-09-02T16:34:46Z</time>
      </trkpt>
      <trkpt lat="43.77758" lon="5.88685">
        <ele>461.176</ele>
        <time>2020-09-02T16:34:47Z</time>
      </trkpt>
      <trkpt lat="43.77761" lon="5.88679">
        <ele>460.674</ele>
        <time>2020-09-02T16:34:48Z</time>
      </trkpt>
      <trkpt lat="43.77764" lon="5.88674">
        <ele>459.94</ele>
        <time>2020-09-02T16:34:49Z</time>
      </trkpt>
      <trkpt lat="43.77772" lon="5.88667">
        <ele>458.623</ele>
        <time>2020-09-02T16:34:51Z</time>
      </trkpt>
      <trkpt lat="43.77775" lon="5.88659">
        <ele>457.196</ele>
        <time>2020-09-02T16:34:53Z</time>
      </trkpt>
      <trkpt lat="43.77772" lon="5.88646">
        <ele>456.531</ele>
        <time>2020-09-02T16:34:55Z</time>
      </trkpt>
      <trkpt lat="43.77768" lon="5.88638">
        <ele>455.924</ele>
        <time>2020-09-02T16:34:56Z</time>
      </trkpt>
      <trkpt lat="43.77765" lon="5.88631">
        <ele>455.408</ele>
        <time>2020-09-02T16:34:57Z</time>
      </trkpt>
      <trkpt lat="43.77762" lon="5.88622">
        <ele>455.247</ele>
        <time>2020-09-02T16:34:58Z</time>
      </trkpt>
      <trkpt lat="43.77759" lon="5.88613">
        <ele>453.816</ele>
        <time>2020-09-02T16:34:59Z</time>
      </trkpt>
      <trkpt lat="43.77756" lon="5.88603">
        <ele>453.146</ele>
        <time>2020-09-02T16:35:00Z</time>
      </trkpt>
      <trkpt lat="43.77754" lon="5.88593">
        <ele>450.873</ele>
        <time>2020-09-02T16:35:01Z</time>
      </trkpt>
      <trkpt lat="43.77751" lon="5.88583">
        <ele>450.324</ele>
        <time>2020-09-02T16:35:02Z</time>
      </trkpt>
      <trkpt lat="43.77747" lon="5.88572">
        <ele>449.982</ele>
        <time>2020-09-02T16:35:03Z</time>
      </trkpt>
      <trkpt lat="43.77744" lon="5.88562">
        <ele>449.218</ele>
        <time>2020-09-02T16:35:04Z</time>
      </trkpt>
      <trkpt lat="43.7774" lon="5.88553">
        <ele>448.321</ele>
        <time>2020-09-02T16:35:05Z</time>
      </trkpt>
      <trkpt lat="43.77734" lon="5.88544">
        <ele>447.449</ele>
        <time>2020-09-02T16:35:06Z</time>
      </trkpt>
      <trkpt lat="43.77729" lon="5.88536">
        <ele>446.902</ele>
        <time>2020-09-02T16:35:07Z</time>
      </trkpt>
      <trkpt lat="43.77723" lon="5.88528">
        <ele>446.022</ele>
        <time>2020-09-02T16:35:08Z</time>
      </trkpt>
      <trkpt lat="43.77718" lon="5.8852">
        <ele>445.208</ele>
        <time>2020-09-02T16:35:09Z</time>
      </trkpt>
      <trkpt lat="43.77713" lon="5.88514">
        <ele>444.742</ele>
        <time>2020-09-02T16:35:10Z</time>
      </trkpt>
      <trkpt lat="43.77707" lon="5.88507">
        <ele>443.951</ele>
        <time>2020-09-02T16:35:11Z</time>
      </trkpt>
      <trkpt lat="43.77701" lon="5.88502">
        <ele>443.291</ele>
        <time>2020-09-02T16:35:12Z</time>
      </trkpt>
      <trkpt lat="43.77693" lon="5.88498">
        <ele>442.418</ele>
        <time>2020-09-02T16:35:13Z</time>
      </trkpt>
      <trkpt lat="43.77686" lon="5.88495">
        <ele>441.929</ele>
        <time>2020-09-02T16:35:14Z</time>
      </trkpt>
      <trkpt lat="43.77677" lon="5.8849">
        <ele>441.027</ele>
        <time>2020-09-02T16:35:15Z</time>
      </trkpt>
      <trkpt lat="43.77668" lon="5.88484">
        <ele>440.393</ele>
        <time>2020-09-02T16:35:16Z</time>
      </trkpt>
      <trkpt lat="43.7766" lon="5.8848">
        <ele>439.756</ele>
        <time>2020-09-02T16:35:17Z</time>
      </trkpt>
      <trkpt lat="43.77651" lon="5.88475">
        <ele>439.556</ele>
        <time>2020-09-02T16:35:18Z</time>
      </trkpt>
      <trkpt lat="43.77643" lon="5.8847">
        <ele>439.059</ele>
        <time>2020-09-02T16:35:19Z</time>
      </trkpt>
      <trkpt lat="43.77634" lon="5.88464">
        <ele>438.814</ele>
        <time>2020-09-02T16:35:20Z</time>
      </trkpt>
      <trkpt lat="43.77626" lon="5.88458">
        <ele>438.408</ele>
        <time>2020-09-02T16:35:21Z</time>
      </trkpt>
      <trkpt lat="43.77618" lon="5.88451">
        <ele>437.683</ele>
        <time>2020-09-02T16:35:22Z</time>
      </trkpt>
      <trkpt lat="43.7761" lon="5.88446">
        <ele>436.982</ele>
        <time>2020-09-02T16:35:23Z</time>
      </trkpt>
      <trkpt lat="43.77603" lon="5.88441">
        <ele>436.692</ele>
        <time>2020-09-02T16:35:24Z</time>
      </trkpt>
      <trkpt lat="43.77595" lon="5.88437">
        <ele>435.729</ele>
        <time>2020-09-02T16:35:25Z</time>
      </trkpt>
      <trkpt lat="43.77587" lon="5.88432">
        <ele>435.33</ele>
        <time>2020-09-02T16:35:26Z</time>
      </trkpt>
      <trkpt lat="43.7758" lon="5.88426">
        <ele>434.898</ele>
        <time>2020-09-02T16:35:27Z</time>
      </trkpt>
      <trkpt lat="43.77573" lon="5.88419">
        <ele>434.414</ele>
        <time>2020-09-02T16:35:28Z</time>
      </trkpt>
      <trkpt lat="43.77564" lon="5.88411">
        <ele>433.657</ele>
        <time>2020-09-02T16:35:29Z</time>
      </trkpt>
      <trkpt lat="43.77558" lon="5.88402">
        <ele>432.933</ele>
        <time>2020-09-02T16:35:30Z</time>
      </trkpt>
      <trkpt lat="43.7755" lon="5.88393">
        <ele>432.523</ele>
        <time>2020-09-02T16:35:31Z</time>
      </trkpt>
      <trkpt lat="43.77542" lon="5.88391">
        <ele>432.515</ele>
        <time>2020-09-02T16:35:32Z</time>
      </trkpt>
      <trkpt lat="43.77535" lon="5.88386">
        <ele>431.408</ele>
        <time>2020-09-02T16:35:33Z</time>
      </trkpt>
      <trkpt lat="43.77526" lon="5.88384">
        <ele>431.111</ele>
        <time>2020-09-02T16:35:34Z</time>
      </trkpt>
      <trkpt lat="43.77516" lon="5.88382">
        <ele>430.83</ele>
        <time>2020-09-02T16:35:35Z</time>
      </trkpt>
      <trkpt lat="43.77505" lon="5.8838">
        <ele>430.51</ele>
        <time>2020-09-02T16:35:36Z</time>
      </trkpt>
      <trkpt lat="43.77494" lon="5.88379">
        <ele>430.257</ele>
        <time>2020-09-02T16:35:37Z</time>
      </trkpt>
      <trkpt lat="43.77484" lon="5.88377">
        <ele>429.578</ele>
        <time>2020-09-02T16:35:38Z</time>
      </trkpt>
      <trkpt lat="43.77475" lon="5.88375">
        <ele>429.316</ele>
        <time>2020-09-02T16:35:39Z</time>
      </trkpt>
      <trkpt lat="43.77466" lon="5.88372">
        <ele>429.162</ele>
        <time>2020-09-02T16:35:40Z</time>
      </trkpt>
      <trkpt lat="43.77457" lon="5.8837">
        <ele>428.915</ele>
        <time>2020-09-02T16:35:41Z</time>
      </trkpt>
      <trkpt lat="43.77448" lon="5.88366">
        <ele>428.251</ele>
        <time>2020-09-02T16:35:42Z</time>
      </trkpt>
      <trkpt lat="43.77438" lon="5.8836">
        <ele>427.301</ele>
        <time>2020-09-02T16:35:43Z</time>
      </trkpt>
      <trkpt lat="43.77428" lon="5.88354">
        <ele>426.411</ele>
        <time>2020-09-02T16:35:44Z</time>
      </trkpt>
      <trkpt lat="43.77418" lon="5.88347">
        <ele>425.608</ele>
        <time>2020-09-02T16:35:45Z</time>
      </trkpt>
      <trkpt lat="43.77409" lon="5.8834">
        <ele>425.083</ele>
        <time>2020-09-02T16:35:46Z</time>
      </trkpt>
      <trkpt lat="43.774" lon="5.88334">
        <ele>424.192</ele>
        <time>2020-09-02T16:35:47Z</time>
      </trkpt>
      <trkpt lat="43.77392" lon="5.88329">
        <ele>422.552</ele>
        <time>2020-09-02T16:35:48Z</time>
      </trkpt>
      <trkpt lat="43.77386" lon="5.88326">
        <ele>421.879</ele>
        <time>2020-09-02T16:35:49Z</time>
      </trkpt>
      <trkpt lat="43.7738" lon="5.88323">
        <ele>420.72</ele>
        <time>2020-09-02T16:35:50Z</time>
      </trkpt>
      <trkpt lat="43.77376" lon="5.88319">
        <ele>420.088</ele>
        <time>2020-09-02T16:35:51Z</time>
      </trkpt>
      <trkpt lat="43.77372" lon="5.88314">
        <ele>419.534</ele>
        <time>2020-09-02T16:35:52Z</time>
      </trkpt>
      <trkpt lat="43.77368" lon="5.88306">
        <ele>418.897</ele>
        <time>2020-09-02T16:35:53Z</time>
      </trkpt>
      <trkpt lat="43.77363" lon="5.883">
        <ele>418.877</ele>
        <time>2020-09-02T16:35:54Z</time>
      </trkpt>
      <trkpt lat="43.77358" lon="5.88296">
        <ele>418.961</ele>
        <time>2020-09-02T16:35:55Z</time>
      </trkpt>
      <trkpt lat="43.77351" lon="5.88294">
        <ele>418.027</ele>
        <time>2020-09-02T16:35:56Z</time>
      </trkpt>
      <trkpt lat="43.77345" lon="5.88293">
        <ele>417.808</ele>
        <time>2020-09-02T16:35:57Z</time>
      </trkpt>
      <trkpt lat="43.77336" lon="5.88293">
        <ele>417.555</ele>
        <time>2020-09-02T16:35:58Z</time>
      </trkpt>
      <trkpt lat="43.77326" lon="5.88295">
        <ele>416.854</ele>
        <time>2020-09-02T16:35:59Z</time>
      </trkpt>
      <trkpt lat="43.77315" lon="5.88297">
        <ele>416.074</ele>
        <time>2020-09-02T16:36:00Z</time>
      </trkpt>
      <trkpt lat="43.77305" lon="5.88299">
        <ele>415.421</ele>
        <time>2020-09-02T16:36:01Z</time>
      </trkpt>
      <trkpt lat="43.77295" lon="5.88302">
        <ele>414.622</ele>
        <time>2020-09-02T16:36:02Z</time>
      </trkpt>
      <trkpt lat="43.77286" lon="5.88303">
        <ele>413.89</ele>
        <time>2020-09-02T16:36:03Z</time>
      </trkpt>
      <trkpt lat="43.77277" lon="5.88304">
        <ele>412.866</ele>
        <time>2020-09-02T16:36:04Z</time>
      </trkpt>
      <trkpt lat="43.77267" lon="5.88305">
        <ele>411.559</ele>
        <time>2020-09-02T16:36:05Z</time>
      </trkpt>
      <trkpt lat="43.77258" lon="5.88307">
        <ele>411.585</ele>
        <time>2020-09-02T16:36:06Z</time>
      </trkpt>
      <trkpt lat="43.7725" lon="5.88308">
        <ele>411.289</ele>
        <time>2020-09-02T16:36:07Z</time>
      </trkpt>
      <trkpt lat="43.77242" lon="5.88308">
        <ele>411.317</ele>
        <time>2020-09-02T16:36:08Z</time>
      </trkpt>
      <trkpt lat="43.77234" lon="5.88307">
        <ele>410.508</ele>
        <time>2020-09-02T16:36:09Z</time>
      </trkpt>
      <trkpt lat="43.77225" lon="5.88303">
        <ele>410.286</ele>
        <time>2020-09-02T16:36:10Z</time>
      </trkpt>
      <trkpt lat="43.77217" lon="5.88297">
        <ele>409.985</ele>
        <time>2020-09-02T16:36:11Z</time>
      </trkpt>
      <trkpt lat="43.77209" lon="5.8829">
        <ele>410.085</ele>
        <time>2020-09-02T16:36:12Z</time>
      </trkpt>
      <trkpt lat="43.77201" lon="5.88284">
        <ele>409.892</ele>
        <time>2020-09-02T16:36:13Z</time>
      </trkpt>
      <trkpt lat="43.77193" lon="5.88278">
        <ele>409.573</ele>
        <time>2020-09-02T16:36:14Z</time>
      </trkpt>
      <trkpt lat="43.77184" lon="5.88273">
        <ele>408.481</ele>
        <time>2020-09-02T16:36:15Z</time>
      </trkpt>
      <trkpt lat="43.77175" lon="5.88268">
        <ele>407.097</ele>
        <time>2020-09-02T16:36:16Z</time>
      </trkpt>
      <trkpt lat="43.77165" lon="5.88268">
        <ele>406.89</ele>
        <time>2020-09-02T16:36:17Z</time>
      </trkpt>
      <trkpt lat="43.77156" lon="5.88268">
        <ele>405.987</ele>
        <time>2020-09-02T16:36:18Z</time>
      </trkpt>
      <trkpt lat="43.77148" lon="5.88266">
        <ele>405.242</ele>
        <time>2020-09-02T16:36:19Z</time>
      </trkpt>
      <trkpt lat="43.7714" lon="5.88263">
        <ele>404.326</ele>
        <time>2020-09-02T16:36:20Z</time>
      </trkpt>
      <trkpt lat="43.77133" lon="5.88262">
        <ele>403.808</ele>
        <time>2020-09-02T16:36:21Z</time>
      </trkpt>
      <trkpt lat="43.77126" lon="5.88264">
        <ele>403.356</ele>
        <time>2020-09-02T16:36:22Z</time>
      </trkpt>
      <trkpt lat="43.77119" lon="5.8827">
        <ele>402.855</ele>
        <time>2020-09-02T16:36:23Z</time>
      </trkpt>
      <trkpt lat="43.77112" lon="5.88276">
        <ele>402.375</ele>
        <time>2020-09-02T16:36:24Z</time>
      </trkpt>
      <trkpt lat="43.77104" lon="5.88281">
        <ele>401.772</ele>
        <time>2020-09-02T16:36:25Z</time>
      </trkpt>
      <trkpt lat="43.77095" lon="5.88286">
        <ele>401.183</ele>
        <time>2020-09-02T16:36:26Z</time>
      </trkpt>
      <trkpt lat="43.77086" lon="5.8829">
        <ele>400.071</ele>
        <time>2020-09-02T16:36:27Z</time>
      </trkpt>
      <trkpt lat="43.77076" lon="5.88295">
        <ele>399.837</ele>
        <time>2020-09-02T16:36:28Z</time>
      </trkpt>
      <trkpt lat="43.77067" lon="5.88299">
        <ele>399.62</ele>
        <time>2020-09-02T16:36:29Z</time>
      </trkpt>
      <trkpt lat="43.77057" lon="5.88304">
        <ele>400.192</ele>
        <time>2020-09-02T16:36:30Z</time>
      </trkpt>
      <trkpt lat="43.77048" lon="5.88309">
        <ele>399.873</ele>
        <time>2020-09-02T16:36:31Z</time>
      </trkpt>
      <trkpt lat="43.7704" lon="5.88314">
        <ele>399.62</ele>
        <time>2020-09-02T16:36:32Z</time>
      </trkpt>
      <trkpt lat="43.7703" lon="5.88318">
        <ele>399.308</ele>
        <time>2020-09-02T16:36:33Z</time>
      </trkpt>
      <trkpt lat="43.77021" lon="5.88323">
        <ele>399.047</ele>
        <time>2020-09-02T16:36:34Z</time>
      </trkpt>
      <trkpt lat="43.77013" lon="5.88325">
        <ele>398.446</ele>
        <time>2020-09-02T16:36:35Z</time>
      </trkpt>
      <trkpt lat="43.77005" lon="5.88326">
        <ele>397.926</ele>
        <time>2020-09-02T16:36:36Z</time>
      </trkpt>
      <trkpt lat="43.76997" lon="5.88327">
        <ele>397.963</ele>
        <time>2020-09-02T16:36:37Z</time>
      </trkpt>
      <trkpt lat="43.76991" lon="5.88325">
        <ele>397.974</ele>
        <time>2020-09-02T16:36:38Z</time>
      </trkpt>
      <trkpt lat="43.76984" lon="5.88321">
        <ele>397.392</ele>
        <time>2020-09-02T16:36:39Z</time>
      </trkpt>
      <trkpt lat="43.76974" lon="5.88316">
        <ele>396.658</ele>
        <time>2020-09-02T16:36:40Z</time>
      </trkpt>
      <trkpt lat="43.76964" lon="5.88311">
        <ele>396.041</ele>
        <time>2020-09-02T16:36:41Z</time>
      </trkpt>
      <trkpt lat="43.76955" lon="5.88306">
        <ele>395.662</ele>
        <time>2020-09-02T16:36:42Z</time>
      </trkpt>
      <trkpt lat="43.76944" lon="5.883">
        <ele>394.783</ele>
        <time>2020-09-02T16:36:43Z</time>
      </trkpt>
      <trkpt lat="43.76934" lon="5.88295">
        <ele>394.011</ele>
        <time>2020-09-02T16:36:44Z</time>
      </trkpt>
      <trkpt lat="43.76924" lon="5.8829">
        <ele>393.908</ele>
        <time>2020-09-02T16:36:45Z</time>
      </trkpt>
      <trkpt lat="43.76913" lon="5.88287">
        <ele>393.054</ele>
        <time>2020-09-02T16:36:46Z</time>
      </trkpt>
      <trkpt lat="43.76903" lon="5.88284">
        <ele>392.533</ele>
        <time>2020-09-02T16:36:47Z</time>
      </trkpt>
      <trkpt lat="43.76894" lon="5.8828">
        <ele>391.753</ele>
        <time>2020-09-02T16:36:48Z</time>
      </trkpt>
      <trkpt lat="43.76884" lon="5.88276">
        <ele>391.55</ele>
        <time>2020-09-02T16:36:49Z</time>
      </trkpt>
      <trkpt lat="43.76875" lon="5.88271">
        <ele>391.761</ele>
        <time>2020-09-02T16:36:50Z</time>
      </trkpt>
      <trkpt lat="43.76865" lon="5.88264">
        <ele>391.259</ele>
        <time>2020-09-02T16:36:51Z</time>
      </trkpt>
      <trkpt lat="43.76856" lon="5.88255">
        <ele>391.115</ele>
        <time>2020-09-02T16:36:52Z</time>
      </trkpt>
      <trkpt lat="43.76847" lon="5.88248">
        <ele>391.418</ele>
        <time>2020-09-02T16:36:53Z</time>
      </trkpt>
      <trkpt lat="43.76838" lon="5.88241">
        <ele>391.096</ele>
        <time>2020-09-02T16:36:54Z</time>
      </trkpt>
      <trkpt lat="43.76831" lon="5.88234">
        <ele>390.631</ele>
        <time>2020-09-02T16:36:55Z</time>
      </trkpt>
      <trkpt lat="43.76823" lon="5.8823">
        <ele>390.524</ele>
        <time>2020-09-02T16:36:56Z</time>
      </trkpt>
      <trkpt lat="43.76813" lon="5.88229">
        <ele>389.908</ele>
        <time>2020-09-02T16:36:57Z</time>
      </trkpt>
      <trkpt lat="43.76803" lon="5.88227">
        <ele>389.557</ele>
        <time>2020-09-02T16:36:58Z</time>
      </trkpt>
      <trkpt lat="43.76792" lon="5.88226">
        <ele>388.616</ele>
        <time>2020-09-02T16:36:59Z</time>
      </trkpt>
      <trkpt lat="43.7678" lon="5.88227">
        <ele>388.156</ele>
        <time>2020-09-02T16:37:00Z</time>
      </trkpt>
      <trkpt lat="43.76769" lon="5.88228">
        <ele>387.883</ele>
        <time>2020-09-02T16:37:01Z</time>
      </trkpt>
      <trkpt lat="43.76757" lon="5.88229">
        <ele>387.524</ele>
        <time>2020-09-02T16:37:02Z</time>
      </trkpt>
      <trkpt lat="43.76747" lon="5.8823">
        <ele>386.812</ele>
        <time>2020-09-02T16:37:03Z</time>
      </trkpt>
      <trkpt lat="43.76735" lon="5.88232">
        <ele>386.048</ele>
        <time>2020-09-02T16:37:04Z</time>
      </trkpt>
      <trkpt lat="43.76723" lon="5.88235">
        <ele>385.471</ele>
        <time>2020-09-02T16:37:05Z</time>
      </trkpt>
      <trkpt lat="43.76714" lon="5.88238">
        <ele>385.182</ele>
        <time>2020-09-02T16:37:06Z</time>
      </trkpt>
      <trkpt lat="43.76706" lon="5.88242">
        <ele>384.843</ele>
        <time>2020-09-02T16:37:07Z</time>
      </trkpt>
      <trkpt lat="43.76698" lon="5.88247">
        <ele>384.617</ele>
        <time>2020-09-02T16:37:08Z</time>
      </trkpt>
      <trkpt lat="43.76692" lon="5.88253">
        <ele>384.608</ele>
        <time>2020-09-02T16:37:09Z</time>
      </trkpt>
      <trkpt lat="43.76689" lon="5.88263">
        <ele>384.146</ele>
        <time>2020-09-02T16:37:10Z</time>
      </trkpt>
      <trkpt lat="43.76684" lon="5.88273">
        <ele>383.475</ele>
        <time>2020-09-02T16:37:11Z</time>
      </trkpt>
      <trkpt lat="43.76678" lon="5.88283">
        <ele>383.165</ele>
        <time>2020-09-02T16:37:12Z</time>
      </trkpt>
      <trkpt lat="43.76671" lon="5.8829">
        <ele>383.282</ele>
        <time>2020-09-02T16:37:13Z</time>
      </trkpt>
      <trkpt lat="43.76665" lon="5.88297">
        <ele>383.383</ele>
        <time>2020-09-02T16:37:14Z</time>
      </trkpt>
      <trkpt lat="43.76656" lon="5.88303">
        <ele>381.981</ele>
        <time>2020-09-02T16:37:15Z</time>
      </trkpt>
      <trkpt lat="43.76648" lon="5.88308">
        <ele>381.977</ele>
        <time>2020-09-02T16:37:16Z</time>
      </trkpt>
      <trkpt lat="43.76639" lon="5.88311">
        <ele>381.57</ele>
        <time>2020-09-02T16:37:17Z</time>
      </trkpt>
      <trkpt lat="43.76628" lon="5.88314">
        <ele>381.163</ele>
        <time>2020-09-02T16:37:18Z</time>
      </trkpt>
      <trkpt lat="43.76619" lon="5.88316">
        <ele>381.044</ele>
        <time>2020-09-02T16:37:19Z</time>
      </trkpt>
      <trkpt lat="43.76609" lon="5.88318">
        <ele>380.918</ele>
        <time>2020-09-02T16:37:20Z</time>
      </trkpt>
      <trkpt lat="43.766" lon="5.88318">
        <ele>380.708</ele>
        <time>2020-09-02T16:37:21Z</time>
      </trkpt>
      <trkpt lat="43.7659" lon="5.88319">
        <ele>380.814</ele>
        <time>2020-09-02T16:37:22Z</time>
      </trkpt>
      <trkpt lat="43.7658" lon="5.88318">
        <ele>381.393</ele>
        <time>2020-09-02T16:37:23Z</time>
      </trkpt>
      <trkpt lat="43.76569" lon="5.88318">
        <ele>381.693</ele>
        <time>2020-09-02T16:37:24Z</time>
      </trkpt>
      <trkpt lat="43.76559" lon="5.88315">
        <ele>381.85</ele>
        <time>2020-09-02T16:37:25Z</time>
      </trkpt>
      <trkpt lat="43.76548" lon="5.88313">
        <ele>382.341</ele>
        <time>2020-09-02T16:37:26Z</time>
      </trkpt>
      <trkpt lat="43.76538" lon="5.88311">
        <ele>382.749</ele>
        <time>2020-09-02T16:37:27Z</time>
      </trkpt>
      <trkpt lat="43.76528" lon="5.88308">
        <ele>383.285</ele>
        <time>2020-09-02T16:37:28Z</time>
      </trkpt>
      <trkpt lat="43.76518" lon="5.88306">
        <ele>381.868</ele>
        <time>2020-09-02T16:37:29Z</time>
      </trkpt>
      <trkpt lat="43.76508" lon="5.88303">
        <ele>382.251</ele>
        <time>2020-09-02T16:37:30Z</time>
      </trkpt>
      <trkpt lat="43.765" lon="5.88297">
        <ele>382.001</ele>
        <time>2020-09-02T16:37:31Z</time>
      </trkpt>
      <trkpt lat="43.76492" lon="5.88291">
        <ele>381.711</ele>
        <time>2020-09-02T16:37:32Z</time>
      </trkpt>
      <trkpt lat="43.76485" lon="5.88282">
        <ele>381.508</ele>
        <time>2020-09-02T16:37:33Z</time>
      </trkpt>
      <trkpt lat="43.76478" lon="5.88273">
        <ele>381.293</ele>
        <time>2020-09-02T16:37:34Z</time>
      </trkpt>
      <trkpt lat="43.76473" lon="5.88268">
        <ele>382.212</ele>
        <time>2020-09-02T16:37:35Z</time>
      </trkpt>
      <trkpt lat="43.76466" lon="5.88263">
        <ele>381.142</ele>
        <time>2020-09-02T16:37:36Z</time>
      </trkpt>
      <trkpt lat="43.76459" lon="5.88259">
        <ele>381.349</ele>
        <time>2020-09-02T16:37:37Z</time>
      </trkpt>
      <trkpt lat="43.7645" lon="5.88265">
        <ele>381.94</ele>
        <time>2020-09-02T16:37:38Z</time>
      </trkpt>
      <trkpt lat="43.7644" lon="5.88267">
        <ele>382.338</ele>
        <time>2020-09-02T16:37:39Z</time>
      </trkpt>
      <trkpt lat="43.76431" lon="5.88269">
        <ele>381.814</ele>
        <time>2020-09-02T16:37:40Z</time>
      </trkpt>
      <trkpt lat="43.76421" lon="5.8827">
        <ele>382.037</ele>
        <time>2020-09-02T16:37:41Z</time>
      </trkpt>
      <trkpt lat="43.76412" lon="5.8827">
        <ele>382.136</ele>
        <time>2020-09-02T16:37:42Z</time>
      </trkpt>
      <trkpt lat="43.76401" lon="5.88268">
        <ele>381.517</ele>
        <time>2020-09-02T16:37:43Z</time>
      </trkpt>
      <trkpt lat="43.76392" lon="5.88265">
        <ele>381.718</ele>
        <time>2020-09-02T16:37:44Z</time>
      </trkpt>
      <trkpt lat="43.76381" lon="5.88264">
        <ele>382.108</ele>
        <time>2020-09-02T16:37:45Z</time>
      </trkpt>
      <trkpt lat="43.76371" lon="5.88265">
        <ele>382.661</ele>
        <time>2020-09-02T16:37:46Z</time>
      </trkpt>
      <trkpt lat="43.76362" lon="5.88268">
        <ele>382.57</ele>
        <time>2020-09-02T16:37:47Z</time>
      </trkpt>
      <trkpt lat="43.76353" lon="5.88269">
        <ele>381.99</ele>
        <time>2020-09-02T16:37:48Z</time>
      </trkpt>
      <trkpt lat="43.76343" lon="5.88273">
        <ele>382.997</ele>
        <time>2020-09-02T16:37:49Z</time>
      </trkpt>
      <trkpt lat="43.76334" lon="5.88277">
        <ele>383.378</ele>
        <time>2020-09-02T16:37:50Z</time>
      </trkpt>
      <trkpt lat="43.76323" lon="5.88282">
        <ele>383.226</ele>
        <time>2020-09-02T16:37:51Z</time>
      </trkpt>
      <trkpt lat="43.76313" lon="5.88286">
        <ele>383.182</ele>
        <time>2020-09-02T16:37:52Z</time>
      </trkpt>
      <trkpt lat="43.76303" lon="5.8829">
        <ele>383.065</ele>
        <time>2020-09-02T16:37:53Z</time>
      </trkpt>
      <trkpt lat="43.76294" lon="5.88293">
        <ele>383.061</ele>
        <time>2020-09-02T16:37:54Z</time>
      </trkpt>
      <trkpt lat="43.76284" lon="5.88297">
        <ele>383.021</ele>
        <time>2020-09-02T16:37:55Z</time>
      </trkpt>
      <trkpt lat="43.76276" lon="5.88302">
        <ele>382.813</ele>
        <time>2020-09-02T16:37:56Z</time>
      </trkpt>
      <trkpt lat="43.76268" lon="5.88307">
        <ele>383.108</ele>
        <time>2020-09-02T16:37:57Z</time>
      </trkpt>
      <trkpt lat="43.7626" lon="5.88313">
        <ele>382.954</ele>
        <time>2020-09-02T16:37:58Z</time>
      </trkpt>
      <trkpt lat="43.76253" lon="5.88318">
        <ele>383.033</ele>
        <time>2020-09-02T16:37:59Z</time>
      </trkpt>
      <trkpt lat="43.76244" lon="5.88324">
        <ele>382.753</ele>
        <time>2020-09-02T16:38:00Z</time>
      </trkpt>
      <trkpt lat="43.76238" lon="5.8833">
        <ele>382.75</ele>
        <time>2020-09-02T16:38:01Z</time>
      </trkpt>
      <trkpt lat="43.76234" lon="5.88335">
        <ele>383.481</ele>
        <time>2020-09-02T16:38:02Z</time>
      </trkpt>
      <trkpt lat="43.7623" lon="5.88339">
        <ele>384.189</ele>
        <time>2020-09-02T16:38:03Z</time>
      </trkpt>
      <trkpt lat="43.76224" lon="5.88343">
        <ele>382.895</ele>
        <time>2020-09-02T16:38:06Z</time>
      </trkpt>
      <trkpt lat="43.76214" lon="5.88347">
        <ele>380.868</ele>
        <time>2020-09-02T16:38:39Z</time>
      </trkpt>
      <trkpt lat="43.7621" lon="5.88352">
        <ele>381.168</ele>
        <time>2020-09-02T16:38:40Z</time>
      </trkpt>
      <trkpt lat="43.76205" lon="5.88354">
        <ele>381.942</ele>
        <time>2020-09-02T16:38:41Z</time>
      </trkpt>
      <trkpt lat="43.762" lon="5.88358">
        <ele>381.526</ele>
        <time>2020-09-02T16:38:42Z</time>
      </trkpt>
      <trkpt lat="43.76195" lon="5.88363">
        <ele>381.208</ele>
        <time>2020-09-02T16:38:43Z</time>
      </trkpt>
      <trkpt lat="43.76191" lon="5.88367">
        <ele>380.554</ele>
        <time>2020-09-02T16:38:44Z</time>
      </trkpt>
      <trkpt lat="43.76187" lon="5.88372">
        <ele>380.123</ele>
        <time>2020-09-02T16:38:45Z</time>
      </trkpt>
      <trkpt lat="43.76183" lon="5.88375">
        <ele>380.293</ele>
        <time>2020-09-02T16:38:47Z</time>
      </trkpt>
      <trkpt lat="43.76178" lon="5.88381">
        <ele>379.86</ele>
        <time>2020-09-02T16:38:49Z</time>
      </trkpt>
      <trkpt lat="43.76173" lon="5.88388">
        <ele>378.921</ele>
        <time>2020-09-02T16:38:50Z</time>
      </trkpt>
      <trkpt lat="43.76169" lon="5.88394">
        <ele>378.599</ele>
        <time>2020-09-02T16:38:51Z</time>
      </trkpt>
      <trkpt lat="43.76165" lon="5.88402">
        <ele>377.945</ele>
        <time>2020-09-02T16:38:52Z</time>
      </trkpt>
      <trkpt lat="43.76161" lon="5.88411">
        <ele>377.388</ele>
        <time>2020-09-02T16:38:53Z</time>
      </trkpt>
      <trkpt lat="43.76156" lon="5.88421">
        <ele>376.776</ele>
        <time>2020-09-02T16:38:54Z</time>
      </trkpt>
      <trkpt lat="43.76152" lon="5.88431">
        <ele>375.89</ele>
        <time>2020-09-02T16:38:55Z</time>
      </trkpt>
      <trkpt lat="43.76147" lon="5.88443">
        <ele>375.019</ele>
        <time>2020-09-02T16:38:56Z</time>
      </trkpt>
      <trkpt lat="43.76143" lon="5.88455">
        <ele>373.808</ele>
        <time>2020-09-02T16:38:57Z</time>
      </trkpt>
      <trkpt lat="43.76138" lon="5.88466">
        <ele>373.015</ele>
        <time>2020-09-02T16:38:58Z</time>
      </trkpt>
      <trkpt lat="43.76133" lon="5.88477">
        <ele>372.334</ele>
        <time>2020-09-02T16:38:59Z</time>
      </trkpt>
      <trkpt lat="43.76127" lon="5.88487">
        <ele>371.744</ele>
        <time>2020-09-02T16:39:00Z</time>
      </trkpt>
      <trkpt lat="43.76121" lon="5.88496">
        <ele>371.061</ele>
        <time>2020-09-02T16:39:01Z</time>
      </trkpt>
      <trkpt lat="43.76115" lon="5.88505">
        <ele>370.662</ele>
        <time>2020-09-02T16:39:02Z</time>
      </trkpt>
      <trkpt lat="43.76108" lon="5.88512">
        <ele>369.93</ele>
        <time>2020-09-02T16:39:03Z</time>
      </trkpt>
      <trkpt lat="43.761" lon="5.88519">
        <ele>369.396</ele>
        <time>2020-09-02T16:39:04Z</time>
      </trkpt>
      <trkpt lat="43.76092" lon="5.88525">
        <ele>368.539</ele>
        <time>2020-09-02T16:39:05Z</time>
      </trkpt>
      <trkpt lat="43.76084" lon="5.88531">
        <ele>367.626</ele>
        <time>2020-09-02T16:39:06Z</time>
      </trkpt>
      <trkpt lat="43.76075" lon="5.88536">
        <ele>367.047</ele>
        <time>2020-09-02T16:39:07Z</time>
      </trkpt>
      <trkpt lat="43.76066" lon="5.88539">
        <ele>366.411</ele>
        <time>2020-09-02T16:39:08Z</time>
      </trkpt>
      <trkpt lat="43.76057" lon="5.88542">
        <ele>365.908</ele>
        <time>2020-09-02T16:39:09Z</time>
      </trkpt>
      <trkpt lat="43.76048" lon="5.88544">
        <ele>365.25</ele>
        <time>2020-09-02T16:39:10Z</time>
      </trkpt>
      <trkpt lat="43.76039" lon="5.88545">
        <ele>364.369</ele>
        <time>2020-09-02T16:39:11Z</time>
      </trkpt>
      <trkpt lat="43.76029" lon="5.88545">
        <ele>363.439</ele>
        <time>2020-09-02T16:39:12Z</time>
      </trkpt>
      <trkpt lat="43.7602" lon="5.88544">
        <ele>362.946</ele>
        <time>2020-09-02T16:39:13Z</time>
      </trkpt>
      <trkpt lat="43.76011" lon="5.88542">
        <ele>362.277</ele>
        <time>2020-09-02T16:39:14Z</time>
      </trkpt>
      <trkpt lat="43.76002" lon="5.8854">
        <ele>361.675</ele>
        <time>2020-09-02T16:39:15Z</time>
      </trkpt>
      <trkpt lat="43.75992" lon="5.88538">
        <ele>360.891</ele>
        <time>2020-09-02T16:39:16Z</time>
      </trkpt>
      <trkpt lat="43.75983" lon="5.88536">
        <ele>360.524</ele>
        <time>2020-09-02T16:39:17Z</time>
      </trkpt>
      <trkpt lat="43.75974" lon="5.88533">
        <ele>359.741</ele>
        <time>2020-09-02T16:39:18Z</time>
      </trkpt>
      <trkpt lat="43.75965" lon="5.8853">
        <ele>359.281</ele>
        <time>2020-09-02T16:39:19Z</time>
      </trkpt>
      <trkpt lat="43.75956" lon="5.88528">
        <ele>358.809</ele>
        <time>2020-09-02T16:39:20Z</time>
      </trkpt>
      <trkpt lat="43.75947" lon="5.88525">
        <ele>358.108</ele>
        <time>2020-09-02T16:39:21Z</time>
      </trkpt>
      <trkpt lat="43.75939" lon="5.88523">
        <ele>357.582</ele>
        <time>2020-09-02T16:39:22Z</time>
      </trkpt>
      <trkpt lat="43.7593" lon="5.8852">
        <ele>357.191</ele>
        <time>2020-09-02T16:39:23Z</time>
      </trkpt>
      <trkpt lat="43.75922" lon="5.88517">
        <ele>356.791</ele>
        <time>2020-09-02T16:39:24Z</time>
      </trkpt>
      <trkpt lat="43.75914" lon="5.88515">
        <ele>356.428</ele>
        <time>2020-09-02T16:39:25Z</time>
      </trkpt>
      <trkpt lat="43.75907" lon="5.88512">
        <ele>356.069</ele>
        <time>2020-09-02T16:39:26Z</time>
      </trkpt>
      <trkpt lat="43.759" lon="5.88511">
        <ele>355.717</ele>
        <time>2020-09-02T16:39:27Z</time>
      </trkpt>
      <trkpt lat="43.75893" lon="5.88509">
        <ele>355.463</ele>
        <time>2020-09-02T16:39:28Z</time>
      </trkpt>
      <trkpt lat="43.75887" lon="5.88508">
        <ele>354.666</ele>
        <time>2020-09-02T16:39:29Z</time>
      </trkpt>
      <trkpt lat="43.75882" lon="5.88506">
        <ele>354.217</ele>
        <time>2020-09-02T16:39:30Z</time>
      </trkpt>
      <trkpt lat="43.75878" lon="5.88504">
        <ele>353.987</ele>
        <time>2020-09-02T16:39:31Z</time>
      </trkpt>
      <trkpt lat="43.75873" lon="5.88503">
        <ele>353.715</ele>
        <time>2020-09-02T16:39:32Z</time>
      </trkpt>
      <trkpt lat="43.75869" lon="5.88508">
        <ele>353.508</ele>
        <time>2020-09-02T16:39:36Z</time>
      </trkpt>
      <trkpt lat="43.75864" lon="5.88509">
        <ele>353.279</ele>
        <time>2020-09-02T16:41:01Z</time>
      </trkpt>
      <trkpt lat="43.7586" lon="5.88507">
        <ele>351.338</ele>
        <time>2020-09-02T16:41:17Z</time>
      </trkpt>
      <trkpt lat="43.75855" lon="5.88507">
        <ele>352.058</ele>
        <time>2020-09-02T16:41:22Z</time>
      </trkpt>
      <trkpt lat="43.7586" lon="5.88505">
        <ele>355.635</ele>
        <time>2020-09-02T16:44:00Z</time>
      </trkpt>
      <trkpt lat="43.75863" lon="5.8851">
        <ele>353.836</ele>
        <time>2020-09-02T17:05:35Z</time>
      </trkpt>
      <trkpt lat="43.75867" lon="5.88513">
        <ele>353.554</ele>
        <time>2020-09-02T17:05:41Z</time>
      </trkpt>
      <trkpt lat="43.75871" lon="5.88517">
        <ele>354.27</ele>
        <time>2020-09-02T17:05:47Z</time>
      </trkpt>
      <trkpt lat="43.75876" lon="5.88515">
        <ele>352.713</ele>
        <time>2020-09-02T17:06:28Z</time>
      </trkpt>
      <trkpt lat="43.75872" lon="5.88511">
        <ele>353.823</ele>
        <time>2020-09-02T17:09:34Z</time>
      </trkpt>
      <trkpt lat="43.75868" lon="5.88505">
        <ele>351.683</ele>
        <time>2020-09-02T17:09:37Z</time>
      </trkpt>
      <trkpt lat="43.75863" lon="5.88504">
        <ele>350.611</ele>
        <time>2020-09-02T17:09:40Z</time>
      </trkpt>
      <trkpt lat="43.7586" lon="5.88512">
        <ele>350.108</ele>
        <time>2020-09-02T17:09:42Z</time>
      </trkpt>
      <trkpt lat="43.75857" lon="5.88522">
        <ele>350.09</ele>
        <time>2020-09-02T17:09:44Z</time>
      </trkpt>
      <trkpt lat="43.75856" lon="5.88534">
        <ele>349.059</ele>
        <time>2020-09-02T17:09:46Z</time>
      </trkpt>
      <trkpt lat="43.75855" lon="5.88543">
        <ele>348.919</ele>
        <time>2020-09-02T17:09:47Z</time>
      </trkpt>
      <trkpt lat="43.75855" lon="5.88551">
        <ele>348.556</ele>
        <time>2020-09-02T17:09:48Z</time>
      </trkpt>
      <trkpt lat="43.75853" lon="5.88563">
        <ele>347.697</ele>
        <time>2020-09-02T17:09:50Z</time>
      </trkpt>
      <trkpt lat="43.75852" lon="5.88573">
        <ele>347.255</ele>
        <time>2020-09-02T17:09:52Z</time>
      </trkpt>
      <trkpt lat="43.75848" lon="5.88584">
        <ele>346.821</ele>
        <time>2020-09-02T17:09:54Z</time>
      </trkpt>
      <trkpt lat="43.75846" lon="5.88595">
        <ele>346.524</ele>
        <time>2020-09-02T17:09:56Z</time>
      </trkpt>
      <trkpt lat="43.75843" lon="5.886">
        <ele>346.148</ele>
        <time>2020-09-02T17:09:57Z</time>
      </trkpt>
      <trkpt lat="43.75838" lon="5.88611">
        <ele>345.261</ele>
        <time>2020-09-02T17:09:59Z</time>
      </trkpt>
      <trkpt lat="43.75837" lon="5.88618">
        <ele>345.017</ele>
        <time>2020-09-02T17:10:00Z</time>
      </trkpt>
      <trkpt lat="43.75835" lon="5.88625">
        <ele>345.008</ele>
        <time>2020-09-02T17:10:01Z</time>
      </trkpt>
      <trkpt lat="43.75834" lon="5.88632">
        <ele>344.882</ele>
        <time>2020-09-02T17:10:02Z</time>
      </trkpt>
      <trkpt lat="43.75832" lon="5.8864">
        <ele>345.091</ele>
        <time>2020-09-02T17:10:03Z</time>
      </trkpt>
      <trkpt lat="43.7583" lon="5.88651">
        <ele>343.271</ele>
        <time>2020-09-02T17:10:04Z</time>
      </trkpt>
      <trkpt lat="43.75828" lon="5.8866">
        <ele>342.758</ele>
        <time>2020-09-02T17:10:05Z</time>
      </trkpt>
      <trkpt lat="43.75829" lon="5.88669">
        <ele>342.389</ele>
        <time>2020-09-02T17:10:06Z</time>
      </trkpt>
      <trkpt lat="43.7583" lon="5.88678">
        <ele>341.247</ele>
        <time>2020-09-02T17:10:07Z</time>
      </trkpt>
      <trkpt lat="43.75829" lon="5.88686">
        <ele>341.083</ele>
        <time>2020-09-02T17:10:08Z</time>
      </trkpt>
      <trkpt lat="43.75824" lon="5.88694">
        <ele>340.656</ele>
        <time>2020-09-02T17:10:09Z</time>
      </trkpt>
      <trkpt lat="43.75822" lon="5.88703">
        <ele>340.761</ele>
        <time>2020-09-02T17:10:10Z</time>
      </trkpt>
      <trkpt lat="43.75819" lon="5.88712">
        <ele>339.321</ele>
        <time>2020-09-02T17:10:11Z</time>
      </trkpt>
      <trkpt lat="43.75818" lon="5.88722">
        <ele>338.313</ele>
        <time>2020-09-02T17:10:12Z</time>
      </trkpt>
      <trkpt lat="43.75816" lon="5.88731">
        <ele>338.108</ele>
        <time>2020-09-02T17:10:13Z</time>
      </trkpt>
      <trkpt lat="43.75814" lon="5.8874">
        <ele>337.264</ele>
        <time>2020-09-02T17:10:14Z</time>
      </trkpt>
      <trkpt lat="43.75812" lon="5.88747">
        <ele>337.113</ele>
        <time>2020-09-02T17:10:15Z</time>
      </trkpt>
      <trkpt lat="43.75809" lon="5.88757">
        <ele>336.583</ele>
        <time>2020-09-02T17:10:17Z</time>
      </trkpt>
      <trkpt lat="43.75805" lon="5.88761">
        <ele>336.83</ele>
        <time>2020-09-02T17:10:19Z</time>
      </trkpt>
      <trkpt lat="43.758" lon="5.88765">
        <ele>337.261</ele>
        <time>2020-09-02T17:10:22Z</time>
      </trkpt>
      <trkpt lat="43.75794" lon="5.88768">
        <ele>337.239</ele>
        <time>2020-09-02T17:10:24Z</time>
      </trkpt>
      <trkpt lat="43.75784" lon="5.88773">
        <ele>336.435</ele>
        <time>2020-09-02T17:10:26Z</time>
      </trkpt>
      <trkpt lat="43.75779" lon="5.88775">
        <ele>336.358</ele>
        <time>2020-09-02T17:10:27Z</time>
      </trkpt>
      <trkpt lat="43.75772" lon="5.88777">
        <ele>335.712</ele>
        <time>2020-09-02T17:10:28Z</time>
      </trkpt>
      <trkpt lat="43.75765" lon="5.88779">
        <ele>335.832</ele>
        <time>2020-09-02T17:10:29Z</time>
      </trkpt>
      <trkpt lat="43.75758" lon="5.88782">
        <ele>336.005</ele>
        <time>2020-09-02T17:10:30Z</time>
      </trkpt>
      <trkpt lat="43.7575" lon="5.88784">
        <ele>336.008</ele>
        <time>2020-09-02T17:10:31Z</time>
      </trkpt>
      <trkpt lat="43.75741" lon="5.88787">
        <ele>335.999</ele>
        <time>2020-09-02T17:10:32Z</time>
      </trkpt>
      <trkpt lat="43.75733" lon="5.8879">
        <ele>336.358</ele>
        <time>2020-09-02T17:10:33Z</time>
      </trkpt>
      <trkpt lat="43.75725" lon="5.88794">
        <ele>336.948</ele>
        <time>2020-09-02T17:10:34Z</time>
      </trkpt>
      <trkpt lat="43.75715" lon="5.88797">
        <ele>337.665</ele>
        <time>2020-09-02T17:10:35Z</time>
      </trkpt>
      <trkpt lat="43.75705" lon="5.888">
        <ele>338.476</ele>
        <time>2020-09-02T17:10:36Z</time>
      </trkpt>
      <trkpt lat="43.75695" lon="5.88803">
        <ele>338.724</ele>
        <time>2020-09-02T17:10:37Z</time>
      </trkpt>
      <trkpt lat="43.75685" lon="5.88805">
        <ele>338.99</ele>
        <time>2020-09-02T17:10:38Z</time>
      </trkpt>
      <trkpt lat="43.75678" lon="5.88801">
        <ele>338.733</ele>
        <time>2020-09-02T17:10:39Z</time>
      </trkpt>
      <trkpt lat="43.7567" lon="5.88795">
        <ele>339.353</ele>
        <time>2020-09-02T17:10:40Z</time>
      </trkpt>
      <trkpt lat="43.75662" lon="5.88786">
        <ele>339.604</ele>
        <time>2020-09-02T17:10:41Z</time>
      </trkpt>
      <trkpt lat="43.75657" lon="5.88777">
        <ele>339.814</ele>
        <time>2020-09-02T17:10:42Z</time>
      </trkpt>
      <trkpt lat="43.75651" lon="5.88767">
        <ele>340.308</ele>
        <time>2020-09-02T17:10:43Z</time>
      </trkpt>
      <trkpt lat="43.75646" lon="5.88755">
        <ele>340.843</ele>
        <time>2020-09-02T17:10:44Z</time>
      </trkpt>
      <trkpt lat="43.75642" lon="5.88744">
        <ele>341.692</ele>
        <time>2020-09-02T17:10:45Z</time>
      </trkpt>
      <trkpt lat="43.75639" lon="5.88734">
        <ele>342.342</ele>
        <time>2020-09-02T17:10:46Z</time>
      </trkpt>
      <trkpt lat="43.75638" lon="5.88725">
        <ele>342.669</ele>
        <time>2020-09-02T17:10:47Z</time>
      </trkpt>
      <trkpt lat="43.75638" lon="5.88716">
        <ele>342.87</ele>
        <time>2020-09-02T17:10:48Z</time>
      </trkpt>
      <trkpt lat="43.75638" lon="5.88707">
        <ele>343.328</ele>
        <time>2020-09-02T17:10:49Z</time>
      </trkpt>
      <trkpt lat="43.75638" lon="5.887">
        <ele>343.354</ele>
        <time>2020-09-02T17:10:50Z</time>
      </trkpt>
      <trkpt lat="43.75637" lon="5.88693">
        <ele>343.587</ele>
        <time>2020-09-02T17:10:51Z</time>
      </trkpt>
      <trkpt lat="43.75632" lon="5.88687">
        <ele>343.313</ele>
        <time>2020-09-02T17:10:53Z</time>
      </trkpt>
      <trkpt lat="43.75627" lon="5.88693">
        <ele>343.943</ele>
        <time>2020-09-02T17:10:55Z</time>
      </trkpt>
      <trkpt lat="43.75625" lon="5.88699">
        <ele>343.607</ele>
        <time>2020-09-02T17:10:58Z</time>
      </trkpt>
      <trkpt lat="43.75626" lon="5.88706">
        <ele>337.308</ele>
        <time>2020-09-02T17:11:30Z</time>
      </trkpt>
      <trkpt lat="43.75625" lon="5.88712">
        <ele>336.879</ele>
        <time>2020-09-02T17:12:49Z</time>
      </trkpt>
      <trkpt lat="43.75624" lon="5.88719">
        <ele>343.328</ele>
        <time>2020-09-02T17:13:09Z</time>
      </trkpt>
      <trkpt lat="43.75627" lon="5.88715">
        <ele>344.688</ele>
        <time>2020-09-02T17:13:22Z</time>
      </trkpt>
      <trkpt lat="43.75629" lon="5.88722">
        <ele>346.845</ele>
        <time>2020-09-02T17:14:53Z</time>
      </trkpt>
      <trkpt lat="43.75629" lon="5.8873">
        <ele>346.936</ele>
        <time>2020-09-02T17:15:23Z</time>
      </trkpt>
      <trkpt lat="43.75629" lon="5.88737">
        <ele>347.954</ele>
        <time>2020-09-02T17:18:04Z</time>
      </trkpt>
      <trkpt lat="43.75635" lon="5.88743">
        <ele>346.78</ele>
        <time>2020-09-02T17:18:09Z</time>
      </trkpt>
      <trkpt lat="43.75638" lon="5.8875">
        <ele>346.523</ele>
        <time>2020-09-02T17:18:10Z</time>
      </trkpt>
      <trkpt lat="43.75641" lon="5.88758">
        <ele>346.554</ele>
        <time>2020-09-02T17:18:11Z</time>
      </trkpt>
      <trkpt lat="43.75645" lon="5.88768">
        <ele>346.456</ele>
        <time>2020-09-02T17:18:12Z</time>
      </trkpt>
      <trkpt lat="43.75651" lon="5.88779">
        <ele>345.511</ele>
        <time>2020-09-02T17:18:13Z</time>
      </trkpt>
      <trkpt lat="43.75656" lon="5.88789">
        <ele>345.008</ele>
        <time>2020-09-02T17:18:14Z</time>
      </trkpt>
      <trkpt lat="43.75662" lon="5.88797">
        <ele>344.473</ele>
        <time>2020-09-02T17:18:15Z</time>
      </trkpt>
      <trkpt lat="43.75667" lon="5.88805">
        <ele>343.992</ele>
        <time>2020-09-02T17:18:16Z</time>
      </trkpt>
      <trkpt lat="43.75673" lon="5.88809">
        <ele>343.852</ele>
        <time>2020-09-02T17:18:17Z</time>
      </trkpt>
      <trkpt lat="43.7568" lon="5.88811">
        <ele>343.499</ele>
        <time>2020-09-02T17:18:18Z</time>
      </trkpt>
      <trkpt lat="43.75688" lon="5.8881">
        <ele>343.58</ele>
        <time>2020-09-02T17:18:19Z</time>
      </trkpt>
      <trkpt lat="43.75696" lon="5.88808">
        <ele>343.628</ele>
        <time>2020-09-02T17:18:20Z</time>
      </trkpt>
      <trkpt lat="43.75704" lon="5.88805">
        <ele>342.884</ele>
        <time>2020-09-02T17:18:21Z</time>
      </trkpt>
      <trkpt lat="43.75713" lon="5.88802">
        <ele>342.367</ele>
        <time>2020-09-02T17:18:22Z</time>
      </trkpt>
      <trkpt lat="43.75721" lon="5.88799">
        <ele>341.392</ele>
        <time>2020-09-02T17:18:23Z</time>
      </trkpt>
      <trkpt lat="43.7573" lon="5.88797">
        <ele>340.673</ele>
        <time>2020-09-02T17:18:24Z</time>
      </trkpt>
      <trkpt lat="43.75738" lon="5.88794">
        <ele>339.92</ele>
        <time>2020-09-02T17:18:25Z</time>
      </trkpt>
      <trkpt lat="43.75746" lon="5.88791">
        <ele>339.608</ele>
        <time>2020-09-02T17:18:26Z</time>
      </trkpt>
      <trkpt lat="43.75754" lon="5.88788">
        <ele>339.257</ele>
        <time>2020-09-02T17:18:27Z</time>
      </trkpt>
      <trkpt lat="43.75761" lon="5.88785">
        <ele>339.226</ele>
        <time>2020-09-02T17:18:28Z</time>
      </trkpt>
      <trkpt lat="43.75767" lon="5.88782">
        <ele>338.836</ele>
        <time>2020-09-02T17:18:29Z</time>
      </trkpt>
      <trkpt lat="43.75773" lon="5.8878">
        <ele>338.653</ele>
        <time>2020-09-02T17:18:30Z</time>
      </trkpt>
      <trkpt lat="43.75778" lon="5.88777">
        <ele>338.414</ele>
        <time>2020-09-02T17:18:31Z</time>
      </trkpt>
      <trkpt lat="43.75783" lon="5.88775">
        <ele>338.192</ele>
        <time>2020-09-02T17:18:32Z</time>
      </trkpt>
      <trkpt lat="43.75788" lon="5.88774">
        <ele>337.848</ele>
        <time>2020-09-02T17:18:34Z</time>
      </trkpt>
      <trkpt lat="43.75788" lon="5.88785">
        <ele>338.151</ele>
        <time>2020-09-02T17:18:41Z</time>
      </trkpt>
      <trkpt lat="43.75784" lon="5.8879">
        <ele>337.911</ele>
        <time>2020-09-02T17:18:42Z</time>
      </trkpt>
      <trkpt lat="43.75779" lon="5.88795">
        <ele>337.721</ele>
        <time>2020-09-02T17:18:43Z</time>
      </trkpt>
      <trkpt lat="43.75775" lon="5.88801">
        <ele>337.603</ele>
        <time>2020-09-02T17:18:44Z</time>
      </trkpt>
      <trkpt lat="43.75768" lon="5.88809">
        <ele>337.108</ele>
        <time>2020-09-02T17:18:45Z</time>
      </trkpt>
      <trkpt lat="43.75762" lon="5.88817">
        <ele>337.189</ele>
        <time>2020-09-02T17:18:46Z</time>
      </trkpt>
      <trkpt lat="43.75755" lon="5.88826">
        <ele>336.488</ele>
        <time>2020-09-02T17:18:47Z</time>
      </trkpt>
      <trkpt lat="43.7575" lon="5.88839">
        <ele>335.188</ele>
        <time>2020-09-02T17:18:48Z</time>
      </trkpt>
      <trkpt lat="43.75745" lon="5.88851">
        <ele>333.895</ele>
        <time>2020-09-02T17:18:49Z</time>
      </trkpt>
      <trkpt lat="43.7574" lon="5.88865">
        <ele>332.456</ele>
        <time>2020-09-02T17:18:50Z</time>
      </trkpt>
      <trkpt lat="43.75736" lon="5.88879">
        <ele>331.414</ele>
        <time>2020-09-02T17:18:51Z</time>
      </trkpt>
      <trkpt lat="43.75732" lon="5.88893">
        <ele>331.02</ele>
        <time>2020-09-02T17:18:52Z</time>
      </trkpt>
      <trkpt lat="43.75728" lon="5.88906">
        <ele>330.543</ele>
        <time>2020-09-02T17:18:53Z</time>
      </trkpt>
      <trkpt lat="43.75723" lon="5.8892">
        <ele>330.012</ele>
        <time>2020-09-02T17:18:54Z</time>
      </trkpt>
      <trkpt lat="43.75717" lon="5.88932">
        <ele>329.532</ele>
        <time>2020-09-02T17:18:55Z</time>
      </trkpt>
      <trkpt lat="43.75709" lon="5.88944">
        <ele>329.305</ele>
        <time>2020-09-02T17:18:56Z</time>
      </trkpt>
      <trkpt lat="43.75701" lon="5.88955">
        <ele>329.008</ele>
        <time>2020-09-02T17:18:57Z</time>
      </trkpt>
      <trkpt lat="43.75694" lon="5.88964">
        <ele>328.329</ele>
        <time>2020-09-02T17:18:58Z</time>
      </trkpt>
      <trkpt lat="43.75687" lon="5.88973">
        <ele>328.178</ele>
        <time>2020-09-02T17:18:59Z</time>
      </trkpt>
      <trkpt lat="43.75681" lon="5.88982">
        <ele>327.678</ele>
        <time>2020-09-02T17:19:00Z</time>
      </trkpt>
      <trkpt lat="43.75674" lon="5.88991">
        <ele>327.415</ele>
        <time>2020-09-02T17:19:01Z</time>
      </trkpt>
      <trkpt lat="43.75666" lon="5.89">
        <ele>327.196</ele>
        <time>2020-09-02T17:19:02Z</time>
      </trkpt>
      <trkpt lat="43.75657" lon="5.89007">
        <ele>327.164</ele>
        <time>2020-09-02T17:19:03Z</time>
      </trkpt>
      <trkpt lat="43.75647" lon="5.89014">
        <ele>327.14</ele>
        <time>2020-09-02T17:19:04Z</time>
      </trkpt>
      <trkpt lat="43.75636" lon="5.89019">
        <ele>327.063</ele>
        <time>2020-09-02T17:19:05Z</time>
      </trkpt>
      <trkpt lat="43.75627" lon="5.89024">
        <ele>327.122</ele>
        <time>2020-09-02T17:19:06Z</time>
      </trkpt>
      <trkpt lat="43.75616" lon="5.89027">
        <ele>327.162</ele>
        <time>2020-09-02T17:19:07Z</time>
      </trkpt>
      <trkpt lat="43.75606" lon="5.8903">
        <ele>326.808</ele>
        <time>2020-09-02T17:19:08Z</time>
      </trkpt>
      <trkpt lat="43.75595" lon="5.89033">
        <ele>326.508</ele>
        <time>2020-09-02T17:19:09Z</time>
      </trkpt>
      <trkpt lat="43.75587" lon="5.89035">
        <ele>325.69</ele>
        <time>2020-09-02T17:19:10Z</time>
      </trkpt>
      <trkpt lat="43.75576" lon="5.8904">
        <ele>325.629</ele>
        <time>2020-09-02T17:19:11Z</time>
      </trkpt>
      <trkpt lat="43.75565" lon="5.89044">
        <ele>325.559</ele>
        <time>2020-09-02T17:19:12Z</time>
      </trkpt>
      <trkpt lat="43.75554" lon="5.89049">
        <ele>325.446</ele>
        <time>2020-09-02T17:19:13Z</time>
      </trkpt>
      <trkpt lat="43.75542" lon="5.89054">
        <ele>324.647</ele>
        <time>2020-09-02T17:19:14Z</time>
      </trkpt>
      <trkpt lat="43.75532" lon="5.89059">
        <ele>323.055</ele>
        <time>2020-09-02T17:19:15Z</time>
      </trkpt>
      <trkpt lat="43.75521" lon="5.89063">
        <ele>322.671</ele>
        <time>2020-09-02T17:19:16Z</time>
      </trkpt>
      <trkpt lat="43.75512" lon="5.89067">
        <ele>321.554</ele>
        <time>2020-09-02T17:19:17Z</time>
      </trkpt>
      <trkpt lat="43.75502" lon="5.89071">
        <ele>320.924</ele>
        <time>2020-09-02T17:19:18Z</time>
      </trkpt>
      <trkpt lat="43.75495" lon="5.89074">
        <ele>320.304</ele>
        <time>2020-09-02T17:19:19Z</time>
      </trkpt>
      <trkpt lat="43.75491" lon="5.89078">
        <ele>320.114</ele>
        <time>2020-09-02T17:19:20Z</time>
      </trkpt>
      <trkpt lat="43.75485" lon="5.89081">
        <ele>320.008</ele>
        <time>2020-09-02T17:19:21Z</time>
      </trkpt>
      <trkpt lat="43.75479" lon="5.89081">
        <ele>319.85</ele>
        <time>2020-09-02T17:19:22Z</time>
      </trkpt>
      <trkpt lat="43.75472" lon="5.89081">
        <ele>319.689</ele>
        <time>2020-09-02T17:19:23Z</time>
      </trkpt>
      <trkpt lat="43.75465" lon="5.89077">
        <ele>320.459</ele>
        <time>2020-09-02T17:19:24Z</time>
      </trkpt>
      <trkpt lat="43.75462" lon="5.89072">
        <ele>320.726</ele>
        <time>2020-09-02T17:19:25Z</time>
      </trkpt>
      <trkpt lat="43.75459" lon="5.89065">
        <ele>320.577</ele>
        <time>2020-09-02T17:19:26Z</time>
      </trkpt>
      <trkpt lat="43.75456" lon="5.89057">
        <ele>320.465</ele>
        <time>2020-09-02T17:19:27Z</time>
      </trkpt>
      <trkpt lat="43.75455" lon="5.89049">
        <ele>320.491</ele>
        <time>2020-09-02T17:19:28Z</time>
      </trkpt>
      <trkpt lat="43.75454" lon="5.8904">
        <ele>320.674</ele>
        <time>2020-09-02T17:19:29Z</time>
      </trkpt>
      <trkpt lat="43.75454" lon="5.89031">
        <ele>320.438</ele>
        <time>2020-09-02T17:19:30Z</time>
      </trkpt>
      <trkpt lat="43.75452" lon="5.89024">
        <ele>320.17</ele>
        <time>2020-09-02T17:19:31Z</time>
      </trkpt>
      <trkpt lat="43.75451" lon="5.89015">
        <ele>320.017</ele>
        <time>2020-09-02T17:19:32Z</time>
      </trkpt>
      <trkpt lat="43.75449" lon="5.89006">
        <ele>320.408</ele>
        <time>2020-09-02T17:19:33Z</time>
      </trkpt>
      <trkpt lat="43.75445" lon="5.88997">
        <ele>320.191</ele>
        <time>2020-09-02T17:19:34Z</time>
      </trkpt>
      <trkpt lat="43.7544" lon="5.88989">
        <ele>320.01</ele>
        <time>2020-09-02T17:19:35Z</time>
      </trkpt>
      <trkpt lat="43.75434" lon="5.88984">
        <ele>319.87</ele>
        <time>2020-09-02T17:19:36Z</time>
      </trkpt>
      <trkpt lat="43.75427" lon="5.88981">
        <ele>319.587</ele>
        <time>2020-09-02T17:19:37Z</time>
      </trkpt>
      <trkpt lat="43.7542" lon="5.88981">
        <ele>319.428</ele>
        <time>2020-09-02T17:19:38Z</time>
      </trkpt>
      <trkpt lat="43.75412" lon="5.88981">
        <ele>319.086</ele>
        <time>2020-09-02T17:19:39Z</time>
      </trkpt>
      <trkpt lat="43.75405" lon="5.88983">
        <ele>318.332</ele>
        <time>2020-09-02T17:19:40Z</time>
      </trkpt>
      <trkpt lat="43.75398" lon="5.88984">
        <ele>317.495</ele>
        <time>2020-09-02T17:19:41Z</time>
      </trkpt>
      <trkpt lat="43.75391" lon="5.88985">
        <ele>316.974</ele>
        <time>2020-09-02T17:19:42Z</time>
      </trkpt>
      <trkpt lat="43.75385" lon="5.88986">
        <ele>316.556</ele>
        <time>2020-09-02T17:19:43Z</time>
      </trkpt>
      <trkpt lat="43.75379" lon="5.88987">
        <ele>316.121</ele>
        <time>2020-09-02T17:19:44Z</time>
      </trkpt>
      <trkpt lat="43.75372" lon="5.88988">
        <ele>316.108</ele>
        <time>2020-09-02T17:19:45Z</time>
      </trkpt>
      <trkpt lat="43.75367" lon="5.88989">
        <ele>315.935</ele>
        <time>2020-09-02T17:19:46Z</time>
      </trkpt>
      <trkpt lat="43.75361" lon="5.88989">
        <ele>315.974</ele>
        <time>2020-09-02T17:19:47Z</time>
      </trkpt>
      <trkpt lat="43.75355" lon="5.8899">
        <ele>315.954</ele>
        <time>2020-09-02T17:19:48Z</time>
      </trkpt>
      <trkpt lat="43.75349" lon="5.88991">
        <ele>316.031</ele>
        <time>2020-09-02T17:19:49Z</time>
      </trkpt>
      <trkpt lat="43.75343" lon="5.8899">
        <ele>315.862</ele>
        <time>2020-09-02T17:19:50Z</time>
      </trkpt>
      <trkpt lat="43.75337" lon="5.88987">
        <ele>315.64</ele>
        <time>2020-09-02T17:19:51Z</time>
      </trkpt>
      <trkpt lat="43.75331" lon="5.88981">
        <ele>316.386</ele>
        <time>2020-09-02T17:19:52Z</time>
      </trkpt>
      <trkpt lat="43.75325" lon="5.88971">
        <ele>316.529</ele>
        <time>2020-09-02T17:19:53Z</time>
      </trkpt>
      <trkpt lat="43.75322" lon="5.88959">
        <ele>316.797</ele>
        <time>2020-09-02T17:19:54Z</time>
      </trkpt>
      <trkpt lat="43.7532" lon="5.88944">
        <ele>316.623</ele>
        <time>2020-09-02T17:19:55Z</time>
      </trkpt>
      <trkpt lat="43.75318" lon="5.88928">
        <ele>316.625</ele>
        <time>2020-09-02T17:19:56Z</time>
      </trkpt>
      <trkpt lat="43.75317" lon="5.88912">
        <ele>316.308</ele>
        <time>2020-09-02T17:19:57Z</time>
      </trkpt>
      <trkpt lat="43.75314" lon="5.88894">
        <ele>316.127</ele>
        <time>2020-09-02T17:19:58Z</time>
      </trkpt>
      <trkpt lat="43.75312" lon="5.88876">
        <ele>316.136</ele>
        <time>2020-09-02T17:19:59Z</time>
      </trkpt>
      <trkpt lat="43.75311" lon="5.88857">
        <ele>316.056</ele>
        <time>2020-09-02T17:20:00Z</time>
      </trkpt>
      <trkpt lat="43.75311" lon="5.88837">
        <ele>315.973</ele>
        <time>2020-09-02T17:20:01Z</time>
      </trkpt>
      <trkpt lat="43.7531" lon="5.88816">
        <ele>316.084</ele>
        <time>2020-09-02T17:20:02Z</time>
      </trkpt>
      <trkpt lat="43.75309" lon="5.88796">
        <ele>315.692</ele>
        <time>2020-09-02T17:20:03Z</time>
      </trkpt>
      <trkpt lat="43.75308" lon="5.88776">
        <ele>315.518</ele>
        <time>2020-09-02T17:20:04Z</time>
      </trkpt>
      <trkpt lat="43.75303" lon="5.88756">
        <ele>315.551</ele>
        <time>2020-09-02T17:20:05Z</time>
      </trkpt>
      <trkpt lat="43.75297" lon="5.88737">
        <ele>315.638</ele>
        <time>2020-09-02T17:20:06Z</time>
      </trkpt>
      <trkpt lat="43.75292" lon="5.88718">
        <ele>315.77</ele>
        <time>2020-09-02T17:20:07Z</time>
      </trkpt>
      <trkpt lat="43.75287" lon="5.88698">
        <ele>315.817</ele>
        <time>2020-09-02T17:20:08Z</time>
      </trkpt>
      <trkpt lat="43.75281" lon="5.88678">
        <ele>316.508</ele>
        <time>2020-09-02T17:20:09Z</time>
      </trkpt>
      <trkpt lat="43.75273" lon="5.8866">
        <ele>316.431</ele>
        <time>2020-09-02T17:20:10Z</time>
      </trkpt>
      <trkpt lat="43.75266" lon="5.88642">
        <ele>316.35</ele>
        <time>2020-09-02T17:20:11Z</time>
      </trkpt>
      <trkpt lat="43.75259" lon="5.88626">
        <ele>316.43</ele>
        <time>2020-09-02T17:20:12Z</time>
      </trkpt>
      <trkpt lat="43.75253" lon="5.88612">
        <ele>316.177</ele>
        <time>2020-09-02T17:20:13Z</time>
      </trkpt>
      <trkpt lat="43.75242" lon="5.88604">
        <ele>315.798</ele>
        <time>2020-09-02T17:20:14Z</time>
      </trkpt>
      <trkpt lat="43.75233" lon="5.88593">
        <ele>316.196</ele>
        <time>2020-09-02T17:20:15Z</time>
      </trkpt>
      <trkpt lat="43.75221" lon="5.88585">
        <ele>317.232</ele>
        <time>2020-09-02T17:20:16Z</time>
      </trkpt>
      <trkpt lat="43.75209" lon="5.8858">
        <ele>319.225</ele>
        <time>2020-09-02T17:20:17Z</time>
      </trkpt>
      <trkpt lat="43.75197" lon="5.88577">
        <ele>319.358</ele>
        <time>2020-09-02T17:20:18Z</time>
      </trkpt>
      <trkpt lat="43.75185" lon="5.88578">
        <ele>320.352</ele>
        <time>2020-09-02T17:20:19Z</time>
      </trkpt>
      <trkpt lat="43.75173" lon="5.88578">
        <ele>321.017</ele>
        <time>2020-09-02T17:20:20Z</time>
      </trkpt>
      <trkpt lat="43.75162" lon="5.88578">
        <ele>321.708</ele>
        <time>2020-09-02T17:20:21Z</time>
      </trkpt>
      <trkpt lat="43.75155" lon="5.88579">
        <ele>322.443</ele>
        <time>2020-09-02T17:20:22Z</time>
      </trkpt>
      <trkpt lat="43.75147" lon="5.88574">
        <ele>323.012</ele>
        <time>2020-09-02T17:20:23Z</time>
      </trkpt>
      <trkpt lat="43.75139" lon="5.88568">
        <ele>323.362</ele>
        <time>2020-09-02T17:20:24Z</time>
      </trkpt>
      <trkpt lat="43.75141" lon="5.88556">
        <ele>323.279</ele>
        <time>2020-09-02T17:20:25Z</time>
      </trkpt>
      <trkpt lat="43.7514" lon="5.88545">
        <ele>323.68</ele>
        <time>2020-09-02T17:20:26Z</time>
      </trkpt>
      <trkpt lat="43.75137" lon="5.88532">
        <ele>323.618</ele>
        <time>2020-09-02T17:20:27Z</time>
      </trkpt>
      <trkpt lat="43.75133" lon="5.88519">
        <ele>324.054</ele>
        <time>2020-09-02T17:20:28Z</time>
      </trkpt>
      <trkpt lat="43.75128" lon="5.88505">
        <ele>323.817</ele>
        <time>2020-09-02T17:20:29Z</time>
      </trkpt>
      <trkpt lat="43.75114" lon="5.88502">
        <ele>323.917</ele>
        <time>2020-09-02T17:20:30Z</time>
      </trkpt>
      <trkpt lat="43.75102" lon="5.88495">
        <ele>324.287</ele>
        <time>2020-09-02T17:20:31Z</time>
      </trkpt>
      <trkpt lat="43.7509" lon="5.88489">
        <ele>324.915</ele>
        <time>2020-09-02T17:20:32Z</time>
      </trkpt>
      <trkpt lat="43.75077" lon="5.88483">
        <ele>325.308</ele>
        <time>2020-09-02T17:20:33Z</time>
      </trkpt>
      <trkpt lat="43.75064" lon="5.88472">
        <ele>326.039</ele>
        <time>2020-09-02T17:20:34Z</time>
      </trkpt>
      <trkpt lat="43.75057" lon="5.8846">
        <ele>326.168</ele>
        <time>2020-09-02T17:20:35Z</time>
      </trkpt>
      <trkpt lat="43.7505" lon="5.88448">
        <ele>325.858</ele>
        <time>2020-09-02T17:20:36Z</time>
      </trkpt>
      <trkpt lat="43.75042" lon="5.88436">
        <ele>325.695</ele>
        <time>2020-09-02T17:20:37Z</time>
      </trkpt>
      <trkpt lat="43.75034" lon="5.88422">
        <ele>325.696</ele>
        <time>2020-09-02T17:20:38Z</time>
      </trkpt>
      <trkpt lat="43.75025" lon="5.88408">
        <ele>325.524</ele>
        <time>2020-09-02T17:20:39Z</time>
      </trkpt>
      <trkpt lat="43.75015" lon="5.88396">
        <ele>325.43</ele>
        <time>2020-09-02T17:20:40Z</time>
      </trkpt>
      <trkpt lat="43.75003" lon="5.88389">
        <ele>325.733</ele>
        <time>2020-09-02T17:20:41Z</time>
      </trkpt>
      <trkpt lat="43.74989" lon="5.88388">
        <ele>325.946</ele>
        <time>2020-09-02T17:20:42Z</time>
      </trkpt>
      <trkpt lat="43.74975" lon="5.8839">
        <ele>326.488</ele>
        <time>2020-09-02T17:20:43Z</time>
      </trkpt>
      <trkpt lat="43.74961" lon="5.88395">
        <ele>326.816</ele>
        <time>2020-09-02T17:20:44Z</time>
      </trkpt>
      <trkpt lat="43.74949" lon="5.88398">
        <ele>326.408</ele>
        <time>2020-09-02T17:20:45Z</time>
      </trkpt>
      <trkpt lat="43.74937" lon="5.88399">
        <ele>326.052</ele>
        <time>2020-09-02T17:20:46Z</time>
      </trkpt>
      <trkpt lat="43.74925" lon="5.88396">
        <ele>326.661</ele>
        <time>2020-09-02T17:20:47Z</time>
      </trkpt>
      <trkpt lat="43.74913" lon="5.8839">
        <ele>327.151</ele>
        <time>2020-09-02T17:20:48Z</time>
      </trkpt>
      <trkpt lat="43.74901" lon="5.8838">
        <ele>327.628</ele>
        <time>2020-09-02T17:20:49Z</time>
      </trkpt>
      <trkpt lat="43.74892" lon="5.88363">
        <ele>327.499</ele>
        <time>2020-09-02T17:20:50Z</time>
      </trkpt>
      <trkpt lat="43.74894" lon="5.88344">
        <ele>328.837</ele>
        <time>2020-09-02T17:20:51Z</time>
      </trkpt>
      <trkpt lat="43.74889" lon="5.88328">
        <ele>329.163</ele>
        <time>2020-09-02T17:20:52Z</time>
      </trkpt>
      <trkpt lat="43.74882" lon="5.88313">
        <ele>328.546</ele>
        <time>2020-09-02T17:20:53Z</time>
      </trkpt>
      <trkpt lat="43.74873" lon="5.88299">
        <ele>328.811</ele>
        <time>2020-09-02T17:20:54Z</time>
      </trkpt>
      <trkpt lat="43.74864" lon="5.88287">
        <ele>328.421</ele>
        <time>2020-09-02T17:20:55Z</time>
      </trkpt>
      <trkpt lat="43.74853" lon="5.88279">
        <ele>329.203</ele>
        <time>2020-09-02T17:20:56Z</time>
      </trkpt>
      <trkpt lat="43.74843" lon="5.88274">
        <ele>328.808</ele>
        <time>2020-09-02T17:20:57Z</time>
      </trkpt>
      <trkpt lat="43.74831" lon="5.88271">
        <ele>328.869</ele>
        <time>2020-09-02T17:20:58Z</time>
      </trkpt>
      <trkpt lat="43.74818" lon="5.88273">
        <ele>328.748</ele>
        <time>2020-09-02T17:20:59Z</time>
      </trkpt>
      <trkpt lat="43.74806" lon="5.88277">
        <ele>328.618</ele>
        <time>2020-09-02T17:21:00Z</time>
      </trkpt>
      <trkpt lat="43.74795" lon="5.8828">
        <ele>328.295</ele>
        <time>2020-09-02T17:21:01Z</time>
      </trkpt>
      <trkpt lat="43.74783" lon="5.88283">
        <ele>328.046</ele>
        <time>2020-09-02T17:21:02Z</time>
      </trkpt>
      <trkpt lat="43.74771" lon="5.88285">
        <ele>328.094</ele>
        <time>2020-09-02T17:21:03Z</time>
      </trkpt>
      <trkpt lat="43.7476" lon="5.88269">
        <ele>328.44</ele>
        <time>2020-09-02T17:21:04Z</time>
      </trkpt>
      <trkpt lat="43.7475" lon="5.88259">
        <ele>328.333</ele>
        <time>2020-09-02T17:21:05Z</time>
      </trkpt>
      <trkpt lat="43.74739" lon="5.88249">
        <ele>329.469</ele>
        <time>2020-09-02T17:21:06Z</time>
      </trkpt>
      <trkpt lat="43.74729" lon="5.88238">
        <ele>329.604</ele>
        <time>2020-09-02T17:21:07Z</time>
      </trkpt>
      <trkpt lat="43.7472" lon="5.88228">
        <ele>329.824</ele>
        <time>2020-09-02T17:21:08Z</time>
      </trkpt>
      <trkpt lat="43.74711" lon="5.88216">
        <ele>329.508</ele>
        <time>2020-09-02T17:21:09Z</time>
      </trkpt>
      <trkpt lat="43.74705" lon="5.88201">
        <ele>328.774</ele>
        <time>2020-09-02T17:21:10Z</time>
      </trkpt>
      <trkpt lat="43.747" lon="5.88184">
        <ele>328.693</ele>
        <time>2020-09-02T17:21:11Z</time>
      </trkpt>
      <trkpt lat="43.74695" lon="5.88166">
        <ele>328.183</ele>
        <time>2020-09-02T17:21:12Z</time>
      </trkpt>
      <trkpt lat="43.7469" lon="5.88149">
        <ele>328.41</ele>
        <time>2020-09-02T17:21:13Z</time>
      </trkpt>
      <trkpt lat="43.74684" lon="5.88131">
        <ele>329.591</ele>
        <time>2020-09-02T17:21:14Z</time>
      </trkpt>
      <trkpt lat="43.74679" lon="5.88114">
        <ele>329.319</ele>
        <time>2020-09-02T17:21:15Z</time>
      </trkpt>
      <trkpt lat="43.74674" lon="5.88098">
        <ele>329.685</ele>
        <time>2020-09-02T17:21:16Z</time>
      </trkpt>
      <trkpt lat="43.74667" lon="5.88086">
        <ele>329.218</ele>
        <time>2020-09-02T17:21:17Z</time>
      </trkpt>
      <trkpt lat="43.7466" lon="5.88078">
        <ele>328.821</ele>
        <time>2020-09-02T17:21:18Z</time>
      </trkpt>
      <trkpt lat="43.74652" lon="5.88069">
        <ele>328.741</ele>
        <time>2020-09-02T17:21:19Z</time>
      </trkpt>
      <trkpt lat="43.74643" lon="5.88063">
        <ele>328.505</ele>
        <time>2020-09-02T17:21:20Z</time>
      </trkpt>
      <trkpt lat="43.74631" lon="5.88059">
        <ele>328.508</ele>
        <time>2020-09-02T17:21:21Z</time>
      </trkpt>
      <trkpt lat="43.74623" lon="5.88051">
        <ele>328.34</ele>
        <time>2020-09-02T17:21:22Z</time>
      </trkpt>
      <trkpt lat="43.74618" lon="5.8804">
        <ele>328.289</ele>
        <time>2020-09-02T17:21:23Z</time>
      </trkpt>
      <trkpt lat="43.74616" lon="5.8803">
        <ele>327.979</ele>
        <time>2020-09-02T17:21:24Z</time>
      </trkpt>
      <trkpt lat="43.74637" lon="5.88016">
        <ele>328.416</ele>
        <time>2020-09-02T17:21:25Z</time>
      </trkpt>
      <trkpt lat="43.74643" lon="5.88005">
        <ele>328.167</ele>
        <time>2020-09-02T17:21:26Z</time>
      </trkpt>
      <trkpt lat="43.74645" lon="5.8799">
        <ele>328.035</ele>
        <time>2020-09-02T17:21:27Z</time>
      </trkpt>
      <trkpt lat="43.74646" lon="5.87976">
        <ele>327.621</ele>
        <time>2020-09-02T17:21:28Z</time>
      </trkpt>
      <trkpt lat="43.74641" lon="5.87959">
        <ele>328.194</ele>
        <time>2020-09-02T17:21:29Z</time>
      </trkpt>
      <trkpt lat="43.74636" lon="5.87943">
        <ele>328.698</ele>
        <time>2020-09-02T17:21:30Z</time>
      </trkpt>
      <trkpt lat="43.7463" lon="5.87925">
        <ele>329.715</ele>
        <time>2020-09-02T17:21:31Z</time>
      </trkpt>
      <trkpt lat="43.74625" lon="5.87906">
        <ele>330.226</ele>
        <time>2020-09-02T17:21:32Z</time>
      </trkpt>
      <trkpt lat="43.7462" lon="5.87887">
        <ele>330.708</ele>
        <time>2020-09-02T17:21:33Z</time>
      </trkpt>
      <trkpt lat="43.74615" lon="5.87866">
        <ele>331.427</ele>
        <time>2020-09-02T17:21:34Z</time>
      </trkpt>
      <trkpt lat="43.74613" lon="5.87845">
        <ele>331.836</ele>
        <time>2020-09-02T17:21:35Z</time>
      </trkpt>
      <trkpt lat="43.74612" lon="5.87824">
        <ele>332.176</ele>
        <time>2020-09-02T17:21:36Z</time>
      </trkpt>
      <trkpt lat="43.74615" lon="5.87801">
        <ele>332.193</ele>
        <time>2020-09-02T17:21:37Z</time>
      </trkpt>
      <trkpt lat="43.74618" lon="5.87779">
        <ele>331.684</ele>
        <time>2020-09-02T17:21:38Z</time>
      </trkpt>
      <trkpt lat="43.74623" lon="5.8776">
        <ele>331.892</ele>
        <time>2020-09-02T17:21:39Z</time>
      </trkpt>
      <trkpt lat="43.74628" lon="5.87742">
        <ele>331.638</ele>
        <time>2020-09-02T17:21:40Z</time>
      </trkpt>
      <trkpt lat="43.7463" lon="5.87725">
        <ele>331.581</ele>
        <time>2020-09-02T17:21:41Z</time>
      </trkpt>
      <trkpt lat="43.74629" lon="5.87707">
        <ele>330.746</ele>
        <time>2020-09-02T17:21:42Z</time>
      </trkpt>
      <trkpt lat="43.74628" lon="5.87689">
        <ele>330.888</ele>
        <time>2020-09-02T17:21:43Z</time>
      </trkpt>
      <trkpt lat="43.74623" lon="5.8767">
        <ele>330.916</ele>
        <time>2020-09-02T17:21:44Z</time>
      </trkpt>
      <trkpt lat="43.74617" lon="5.87652">
        <ele>331.008</ele>
        <time>2020-09-02T17:21:45Z</time>
      </trkpt>
      <trkpt lat="43.74612" lon="5.87633">
        <ele>330.892</ele>
        <time>2020-09-02T17:21:46Z</time>
      </trkpt>
      <trkpt lat="43.74605" lon="5.87613">
        <ele>330.991</ele>
        <time>2020-09-02T17:21:47Z</time>
      </trkpt>
      <trkpt lat="43.74599" lon="5.87594">
        <ele>331.441</ele>
        <time>2020-09-02T17:21:48Z</time>
      </trkpt>
      <trkpt lat="43.74591" lon="5.87576">
        <ele>331.288</ele>
        <time>2020-09-02T17:21:49Z</time>
      </trkpt>
      <trkpt lat="43.74584" lon="5.87558">
        <ele>331.529</ele>
        <time>2020-09-02T17:21:50Z</time>
      </trkpt>
      <trkpt lat="43.74575" lon="5.8754">
        <ele>331.347</ele>
        <time>2020-09-02T17:21:51Z</time>
      </trkpt>
      <trkpt lat="43.74563" lon="5.87526">
        <ele>330.763</ele>
        <time>2020-09-02T17:21:52Z</time>
      </trkpt>
      <trkpt lat="43.74552" lon="5.87512">
        <ele>330.796</ele>
        <time>2020-09-02T17:21:53Z</time>
      </trkpt>
      <trkpt lat="43.74542" lon="5.87498">
        <ele>330.892</ele>
        <time>2020-09-02T17:21:54Z</time>
      </trkpt>
      <trkpt lat="43.74532" lon="5.87485">
        <ele>330.973</ele>
        <time>2020-09-02T17:21:55Z</time>
      </trkpt>
      <trkpt lat="43.74522" lon="5.87473">
        <ele>331.32</ele>
        <time>2020-09-02T17:21:56Z</time>
      </trkpt>
      <trkpt lat="43.74515" lon="5.87464">
        <ele>331.708</ele>
        <time>2020-09-02T17:21:57Z</time>
      </trkpt>
      <trkpt lat="43.74507" lon="5.87454">
        <ele>331.677</ele>
        <time>2020-09-02T17:21:58Z</time>
      </trkpt>
      <trkpt lat="43.74497" lon="5.87445">
        <ele>330.946</ele>
        <time>2020-09-02T17:21:59Z</time>
      </trkpt>
      <trkpt lat="43.74489" lon="5.87437">
        <ele>330.476</ele>
        <time>2020-09-02T17:22:00Z</time>
      </trkpt>
      <trkpt lat="43.74479" lon="5.8743">
        <ele>330.073</ele>
        <time>2020-09-02T17:22:01Z</time>
      </trkpt>
      <trkpt lat="43.74469" lon="5.87422">
        <ele>329.614</ele>
        <time>2020-09-02T17:22:02Z</time>
      </trkpt>
      <trkpt lat="43.74459" lon="5.87416">
        <ele>328.912</ele>
        <time>2020-09-02T17:22:03Z</time>
      </trkpt>
      <trkpt lat="43.74449" lon="5.8741">
        <ele>328.048</ele>
        <time>2020-09-02T17:22:04Z</time>
      </trkpt>
      <trkpt lat="43.74439" lon="5.87405">
        <ele>327.521</ele>
        <time>2020-09-02T17:22:05Z</time>
      </trkpt>
      <trkpt lat="43.74429" lon="5.87404">
        <ele>326.981</ele>
        <time>2020-09-02T17:22:06Z</time>
      </trkpt>
      <trkpt lat="43.74418" lon="5.87405">
        <ele>326.561</ele>
        <time>2020-09-02T17:22:07Z</time>
      </trkpt>
      <trkpt lat="43.74409" lon="5.8741">
        <ele>325.717</ele>
        <time>2020-09-02T17:22:08Z</time>
      </trkpt>
      <trkpt lat="43.744" lon="5.87407">
        <ele>325.108</ele>
        <time>2020-09-02T17:22:09Z</time>
      </trkpt>
      <trkpt lat="43.74391" lon="5.87399">
        <ele>325.166</ele>
        <time>2020-09-02T17:22:10Z</time>
      </trkpt>
      <trkpt lat="43.74382" lon="5.87389">
        <ele>324.945</ele>
        <time>2020-09-02T17:22:11Z</time>
      </trkpt>
      <trkpt lat="43.74372" lon="5.87383">
        <ele>323.495</ele>
        <time>2020-09-02T17:22:12Z</time>
      </trkpt>
      <trkpt lat="43.7436" lon="5.87381">
        <ele>322.842</ele>
        <time>2020-09-02T17:22:13Z</time>
      </trkpt>
      <trkpt lat="43.74347" lon="5.87381">
        <ele>322.153</ele>
        <time>2020-09-02T17:22:14Z</time>
      </trkpt>
      <trkpt lat="43.74334" lon="5.87383">
        <ele>321.621</ele>
        <time>2020-09-02T17:22:15Z</time>
      </trkpt>
      <trkpt lat="43.74321" lon="5.87387">
        <ele>321.657</ele>
        <time>2020-09-02T17:22:16Z</time>
      </trkpt>
      <trkpt lat="43.74309" lon="5.87394">
        <ele>320.82</ele>
        <time>2020-09-02T17:22:17Z</time>
      </trkpt>
      <trkpt lat="43.74299" lon="5.87402">
        <ele>320.123</ele>
        <time>2020-09-02T17:22:18Z</time>
      </trkpt>
      <trkpt lat="43.7429" lon="5.87409">
        <ele>319.683</ele>
        <time>2020-09-02T17:22:19Z</time>
      </trkpt>
      <trkpt lat="43.7428" lon="5.87415">
        <ele>319.311</ele>
        <time>2020-09-02T17:22:20Z</time>
      </trkpt>
      <trkpt lat="43.7427" lon="5.87418">
        <ele>318.908</ele>
        <time>2020-09-02T17:22:21Z</time>
      </trkpt>
      <trkpt lat="43.7426" lon="5.87421">
        <ele>318.51</ele>
        <time>2020-09-02T17:22:22Z</time>
      </trkpt>
      <trkpt lat="43.7425" lon="5.87419">
        <ele>317.629</ele>
        <time>2020-09-02T17:22:23Z</time>
      </trkpt>
      <trkpt lat="43.7424" lon="5.87414">
        <ele>317.019</ele>
        <time>2020-09-02T17:22:24Z</time>
      </trkpt>
      <trkpt lat="43.74231" lon="5.87407">
        <ele>316.566</ele>
        <time>2020-09-02T17:22:25Z</time>
      </trkpt>
      <trkpt lat="43.74221" lon="5.87398">
        <ele>316.047</ele>
        <time>2020-09-02T17:22:26Z</time>
      </trkpt>
      <trkpt lat="43.74212" lon="5.87386">
        <ele>316.195</ele>
        <time>2020-09-02T17:22:27Z</time>
      </trkpt>
      <trkpt lat="43.74203" lon="5.87374">
        <ele>315.761</ele>
        <time>2020-09-02T17:22:28Z</time>
      </trkpt>
      <trkpt lat="43.74195" lon="5.87361">
        <ele>315.144</ele>
        <time>2020-09-02T17:22:29Z</time>
      </trkpt>
      <trkpt lat="43.74185" lon="5.87346">
        <ele>314.468</ele>
        <time>2020-09-02T17:22:30Z</time>
      </trkpt>
      <trkpt lat="43.74176" lon="5.87332">
        <ele>313.842</ele>
        <time>2020-09-02T17:22:31Z</time>
      </trkpt>
      <trkpt lat="43.74165" lon="5.87316">
        <ele>313.526</ele>
        <time>2020-09-02T17:22:32Z</time>
      </trkpt>
      <trkpt lat="43.74154" lon="5.87302">
        <ele>312.808</ele>
        <time>2020-09-02T17:22:33Z</time>
      </trkpt>
      <trkpt lat="43.74145" lon="5.87288">
        <ele>312.554</ele>
        <time>2020-09-02T17:22:34Z</time>
      </trkpt>
      <trkpt lat="43.74135" lon="5.87274">
        <ele>311.943</ele>
        <time>2020-09-02T17:22:35Z</time>
      </trkpt>
      <trkpt lat="43.74125" lon="5.87262">
        <ele>311.323</ele>
        <time>2020-09-02T17:22:36Z</time>
      </trkpt>
      <trkpt lat="43.74114" lon="5.8725">
        <ele>310.85</ele>
        <time>2020-09-02T17:22:37Z</time>
      </trkpt>
      <trkpt lat="43.74101" lon="5.87239">
        <ele>310.811</ele>
        <time>2020-09-02T17:22:38Z</time>
      </trkpt>
      <trkpt lat="43.74088" lon="5.8723">
        <ele>310.459</ele>
        <time>2020-09-02T17:22:39Z</time>
      </trkpt>
      <trkpt lat="43.74074" lon="5.8722">
        <ele>310.095</ele>
        <time>2020-09-02T17:22:40Z</time>
      </trkpt>
      <trkpt lat="43.7406" lon="5.87211">
        <ele>309.898</ele>
        <time>2020-09-02T17:22:41Z</time>
      </trkpt>
      <trkpt lat="43.74045" lon="5.87204">
        <ele>309.612</ele>
        <time>2020-09-02T17:22:42Z</time>
      </trkpt>
      <trkpt lat="43.74029" lon="5.87197">
        <ele>309.732</ele>
        <time>2020-09-02T17:22:43Z</time>
      </trkpt>
      <trkpt lat="43.74014" lon="5.87189">
        <ele>309.705</ele>
        <time>2020-09-02T17:22:44Z</time>
      </trkpt>
      <trkpt lat="43.73999" lon="5.87182">
        <ele>309.608</ele>
        <time>2020-09-02T17:22:45Z</time>
      </trkpt>
      <trkpt lat="43.73986" lon="5.87173">
        <ele>309.469</ele>
        <time>2020-09-02T17:22:46Z</time>
      </trkpt>
      <trkpt lat="43.73975" lon="5.87164">
        <ele>309.328</ele>
        <time>2020-09-02T17:22:47Z</time>
      </trkpt>
      <trkpt lat="43.73965" lon="5.87152">
        <ele>308.818</ele>
        <time>2020-09-02T17:22:48Z</time>
      </trkpt>
      <trkpt lat="43.73956" lon="5.87136">
        <ele>308.895</ele>
        <time>2020-09-02T17:22:49Z</time>
      </trkpt>
      <trkpt lat="43.73948" lon="5.87119">
        <ele>309.186</ele>
        <time>2020-09-02T17:22:50Z</time>
      </trkpt>
      <trkpt lat="43.7394" lon="5.87099">
        <ele>308.844</ele>
        <time>2020-09-02T17:22:51Z</time>
      </trkpt>
      <trkpt lat="43.73933" lon="5.87078">
        <ele>309.36</ele>
        <time>2020-09-02T17:22:52Z</time>
      </trkpt>
      <trkpt lat="43.73925" lon="5.87056">
        <ele>309.253</ele>
        <time>2020-09-02T17:22:53Z</time>
      </trkpt>
      <trkpt lat="43.73917" lon="5.87034">
        <ele>309.014</ele>
        <time>2020-09-02T17:22:54Z</time>
      </trkpt>
      <trkpt lat="43.73909" lon="5.87011">
        <ele>308.854</ele>
        <time>2020-09-02T17:22:55Z</time>
      </trkpt>
      <trkpt lat="43.73901" lon="5.86988">
        <ele>308.709</ele>
        <time>2020-09-02T17:22:56Z</time>
      </trkpt>
      <trkpt lat="43.73892" lon="5.86964">
        <ele>308.908</ele>
        <time>2020-09-02T17:22:57Z</time>
      </trkpt>
      <trkpt lat="43.73884" lon="5.86941">
        <ele>308.749</ele>
        <time>2020-09-02T17:22:58Z</time>
      </trkpt>
      <trkpt lat="43.73877" lon="5.8692">
        <ele>308.768</ele>
        <time>2020-09-02T17:22:59Z</time>
      </trkpt>
      <trkpt lat="43.7387" lon="5.86901">
        <ele>308.748</ele>
        <time>2020-09-02T17:23:00Z</time>
      </trkpt>
      <trkpt lat="43.73863" lon="5.86884">
        <ele>308.435</ele>
        <time>2020-09-02T17:23:01Z</time>
      </trkpt>
      <trkpt lat="43.73852" lon="5.86869">
        <ele>308.256</ele>
        <time>2020-09-02T17:23:02Z</time>
      </trkpt>
      <trkpt lat="43.73841" lon="5.86853">
        <ele>307.974</ele>
        <time>2020-09-02T17:23:03Z</time>
      </trkpt>
      <trkpt lat="43.73828" lon="5.86839">
        <ele>308.05</ele>
        <time>2020-09-02T17:23:04Z</time>
      </trkpt>
      <trkpt lat="43.73815" lon="5.86824">
        <ele>308.473</ele>
        <time>2020-09-02T17:23:05Z</time>
      </trkpt>
      <trkpt lat="43.73801" lon="5.86808">
        <ele>308.593</ele>
        <time>2020-09-02T17:23:06Z</time>
      </trkpt>
      <trkpt lat="43.73787" lon="5.86792">
        <ele>308.465</ele>
        <time>2020-09-02T17:23:07Z</time>
      </trkpt>
      <trkpt lat="43.73773" lon="5.86776">
        <ele>308.321</ele>
        <time>2020-09-02T17:23:08Z</time>
      </trkpt>
      <trkpt lat="43.73759" lon="5.86758">
        <ele>308.108</ele>
        <time>2020-09-02T17:23:09Z</time>
      </trkpt>
      <trkpt lat="43.73744" lon="5.86741">
        <ele>308.197</ele>
        <time>2020-09-02T17:23:10Z</time>
      </trkpt>
      <trkpt lat="43.7373" lon="5.86723">
        <ele>308.056</ele>
        <time>2020-09-02T17:23:11Z</time>
      </trkpt>
      <trkpt lat="43.73716" lon="5.86706">
        <ele>308.316</ele>
        <time>2020-09-02T17:23:12Z</time>
      </trkpt>
      <trkpt lat="43.73702" lon="5.8669">
        <ele>308.373</ele>
        <time>2020-09-02T17:23:13Z</time>
      </trkpt>
      <trkpt lat="43.73688" lon="5.86674">
        <ele>308.124</ele>
        <time>2020-09-02T17:23:14Z</time>
      </trkpt>
      <trkpt lat="43.73674" lon="5.8666">
        <ele>308.022</ele>
        <time>2020-09-02T17:23:15Z</time>
      </trkpt>
      <trkpt lat="43.73657" lon="5.86646">
        <ele>307.878</ele>
        <time>2020-09-02T17:23:16Z</time>
      </trkpt>
      <trkpt lat="43.73643" lon="5.86633">
        <ele>307.831</ele>
        <time>2020-09-02T17:23:17Z</time>
      </trkpt>
      <trkpt lat="43.73629" lon="5.86619">
        <ele>307.794</ele>
        <time>2020-09-02T17:23:18Z</time>
      </trkpt>
      <trkpt lat="43.73615" lon="5.86604">
        <ele>308.057</ele>
        <time>2020-09-02T17:23:19Z</time>
      </trkpt>
      <trkpt lat="43.73603" lon="5.86587">
        <ele>307.622</ele>
        <time>2020-09-02T17:23:20Z</time>
      </trkpt>
      <trkpt lat="43.73595" lon="5.86569">
        <ele>307.108</ele>
        <time>2020-09-02T17:23:21Z</time>
      </trkpt>
      <trkpt lat="43.73585" lon="5.86553">
        <ele>307.017</ele>
        <time>2020-09-02T17:23:22Z</time>
      </trkpt>
      <trkpt lat="43.73572" lon="5.86539">
        <ele>307.436</ele>
        <time>2020-09-02T17:23:23Z</time>
      </trkpt>
      <trkpt lat="43.73559" lon="5.86526">
        <ele>308.026</ele>
        <time>2020-09-02T17:23:24Z</time>
      </trkpt>
      <trkpt lat="43.73546" lon="5.86512">
        <ele>308.083</ele>
        <time>2020-09-02T17:23:25Z</time>
      </trkpt>
      <trkpt lat="43.73532" lon="5.86499">
        <ele>308.124</ele>
        <time>2020-09-02T17:23:26Z</time>
      </trkpt>
      <trkpt lat="43.73518" lon="5.86485">
        <ele>308.252</ele>
        <time>2020-09-02T17:23:27Z</time>
      </trkpt>
      <trkpt lat="43.73505" lon="5.86473">
        <ele>308.098</ele>
        <time>2020-09-02T17:23:28Z</time>
      </trkpt>
      <trkpt lat="43.73491" lon="5.86462">
        <ele>307.861</ele>
        <time>2020-09-02T17:23:29Z</time>
      </trkpt>
      <trkpt lat="43.73477" lon="5.86452">
        <ele>307.554</ele>
        <time>2020-09-02T17:23:30Z</time>
      </trkpt>
      <trkpt lat="43.7346" lon="5.86445">
        <ele>307.856</ele>
        <time>2020-09-02T17:23:31Z</time>
      </trkpt>
      <trkpt lat="43.73443" lon="5.86438">
        <ele>307.411</ele>
        <time>2020-09-02T17:23:32Z</time>
      </trkpt>
      <trkpt lat="43.73428" lon="5.8643">
        <ele>307.108</ele>
        <time>2020-09-02T17:23:33Z</time>
      </trkpt>
      <trkpt lat="43.73415" lon="5.8642">
        <ele>306.543</ele>
        <time>2020-09-02T17:23:34Z</time>
      </trkpt>
      <trkpt lat="43.73401" lon="5.8641">
        <ele>306.912</ele>
        <time>2020-09-02T17:23:35Z</time>
      </trkpt>
      <trkpt lat="43.73388" lon="5.86398">
        <ele>306.912</ele>
        <time>2020-09-02T17:23:36Z</time>
      </trkpt>
      <trkpt lat="43.73376" lon="5.86384">
        <ele>307.019</ele>
        <time>2020-09-02T17:23:37Z</time>
      </trkpt>
      <trkpt lat="43.73365" lon="5.86369">
        <ele>306.32</ele>
        <time>2020-09-02T17:23:38Z</time>
      </trkpt>
      <trkpt lat="43.73353" lon="5.86353">
        <ele>306.018</ele>
        <time>2020-09-02T17:23:39Z</time>
      </trkpt>
      <trkpt lat="43.7334" lon="5.86336">
        <ele>306.074</ele>
        <time>2020-09-02T17:23:40Z</time>
      </trkpt>
      <trkpt lat="43.73328" lon="5.86319">
        <ele>305.677</ele>
        <time>2020-09-02T17:23:41Z</time>
      </trkpt>
      <trkpt lat="43.73315" lon="5.86301">
        <ele>305.552</ele>
        <time>2020-09-02T17:23:42Z</time>
      </trkpt>
      <trkpt lat="43.73303" lon="5.86283">
        <ele>305.253</ele>
        <time>2020-09-02T17:23:43Z</time>
      </trkpt>
      <trkpt lat="43.7329" lon="5.86264">
        <ele>305.208</ele>
        <time>2020-09-02T17:23:44Z</time>
      </trkpt>
      <trkpt lat="43.73277" lon="5.86245">
        <ele>304.508</ele>
        <time>2020-09-02T17:23:45Z</time>
      </trkpt>
      <trkpt lat="43.73264" lon="5.86225">
        <ele>304.983</ele>
        <time>2020-09-02T17:23:46Z</time>
      </trkpt>
      <trkpt lat="43.73251" lon="5.86207">
        <ele>304.872</ele>
        <time>2020-09-02T17:23:47Z</time>
      </trkpt>
      <trkpt lat="43.73237" lon="5.86188">
        <ele>304.792</ele>
        <time>2020-09-02T17:23:48Z</time>
      </trkpt>
      <trkpt lat="43.73224" lon="5.86169">
        <ele>304.219</ele>
        <time>2020-09-02T17:23:49Z</time>
      </trkpt>
      <trkpt lat="43.73212" lon="5.8615">
        <ele>304.26</ele>
        <time>2020-09-02T17:23:50Z</time>
      </trkpt>
      <trkpt lat="43.732" lon="5.86131">
        <ele>304.298</ele>
        <time>2020-09-02T17:23:51Z</time>
      </trkpt>
      <trkpt lat="43.73189" lon="5.86111">
        <ele>304.214</ele>
        <time>2020-09-02T17:23:52Z</time>
      </trkpt>
      <trkpt lat="43.7318" lon="5.86089">
        <ele>303.997</ele>
        <time>2020-09-02T17:23:53Z</time>
      </trkpt>
      <trkpt lat="43.73169" lon="5.86067">
        <ele>304.098</ele>
        <time>2020-09-02T17:23:54Z</time>
      </trkpt>
      <trkpt lat="43.7316" lon="5.86043">
        <ele>304.215</ele>
        <time>2020-09-02T17:23:55Z</time>
      </trkpt>
      <trkpt lat="43.7315" lon="5.86019">
        <ele>304.326</ele>
        <time>2020-09-02T17:23:56Z</time>
      </trkpt>
      <trkpt lat="43.7314" lon="5.85995">
        <ele>304.308</ele>
        <time>2020-09-02T17:23:57Z</time>
      </trkpt>
      <trkpt lat="43.73131" lon="5.8597">
        <ele>304.777</ele>
        <time>2020-09-02T17:23:58Z</time>
      </trkpt>
      <trkpt lat="43.73122" lon="5.85946">
        <ele>304.446</ele>
        <time>2020-09-02T17:23:59Z</time>
      </trkpt>
      <trkpt lat="43.73112" lon="5.85922">
        <ele>303.256</ele>
        <time>2020-09-02T17:24:00Z</time>
      </trkpt>
      <trkpt lat="43.73102" lon="5.85897">
        <ele>302.813</ele>
        <time>2020-09-02T17:24:01Z</time>
      </trkpt>
      <trkpt lat="43.73091" lon="5.85873">
        <ele>302.954</ele>
        <time>2020-09-02T17:24:02Z</time>
      </trkpt>
      <trkpt lat="43.73082" lon="5.8585">
        <ele>302.972</ele>
        <time>2020-09-02T17:24:03Z</time>
      </trkpt>
      <trkpt lat="43.73072" lon="5.85826">
        <ele>302.588</ele>
        <time>2020-09-02T17:24:04Z</time>
      </trkpt>
      <trkpt lat="43.73062" lon="5.85804">
        <ele>301.791</ele>
        <time>2020-09-02T17:24:05Z</time>
      </trkpt>
      <trkpt lat="43.73054" lon="5.85781">
        <ele>301.236</ele>
        <time>2020-09-02T17:24:06Z</time>
      </trkpt>
      <trkpt lat="43.73046" lon="5.8576">
        <ele>300.817</ele>
        <time>2020-09-02T17:24:07Z</time>
      </trkpt>
      <trkpt lat="43.73038" lon="5.85741">
        <ele>300.618</ele>
        <time>2020-09-02T17:24:08Z</time>
      </trkpt>
      <trkpt lat="43.73031" lon="5.85723">
        <ele>300.208</ele>
        <time>2020-09-02T17:24:09Z</time>
      </trkpt>
      <trkpt lat="43.73023" lon="5.85704">
        <ele>300.231</ele>
        <time>2020-09-02T17:24:10Z</time>
      </trkpt>
      <trkpt lat="43.73015" lon="5.85686">
        <ele>300.19</ele>
        <time>2020-09-02T17:24:11Z</time>
      </trkpt>
      <trkpt lat="43.73008" lon="5.85666">
        <ele>300.29</ele>
        <time>2020-09-02T17:24:12Z</time>
      </trkpt>
      <trkpt lat="43.72999" lon="5.85645">
        <ele>299.867</ele>
        <time>2020-09-02T17:24:13Z</time>
      </trkpt>
      <trkpt lat="43.7299" lon="5.85625">
        <ele>299.898</ele>
        <time>2020-09-02T17:24:14Z</time>
      </trkpt>
      <trkpt lat="43.72983" lon="5.85605">
        <ele>299.676</ele>
        <time>2020-09-02T17:24:15Z</time>
      </trkpt>
      <trkpt lat="43.72976" lon="5.85586">
        <ele>299.282</ele>
        <time>2020-09-02T17:24:16Z</time>
      </trkpt>
      <trkpt lat="43.72967" lon="5.85566">
        <ele>299.035</ele>
        <time>2020-09-02T17:24:17Z</time>
      </trkpt>
      <trkpt lat="43.72959" lon="5.85545">
        <ele>298.994</ele>
        <time>2020-09-02T17:24:18Z</time>
      </trkpt>
      <trkpt lat="43.7295" lon="5.85524">
        <ele>298.557</ele>
        <time>2020-09-02T17:24:19Z</time>
      </trkpt>
      <trkpt lat="43.72941" lon="5.85503">
        <ele>298.222</ele>
        <time>2020-09-02T17:24:20Z</time>
      </trkpt>
      <trkpt lat="43.72932" lon="5.85483">
        <ele>297.908</ele>
        <time>2020-09-02T17:24:21Z</time>
      </trkpt>
      <trkpt lat="43.72924" lon="5.85461">
        <ele>297.657</ele>
        <time>2020-09-02T17:24:22Z</time>
      </trkpt>
      <trkpt lat="43.72917" lon="5.85439">
        <ele>297.956</ele>
        <time>2020-09-02T17:24:23Z</time>
      </trkpt>
      <trkpt lat="43.72911" lon="5.85416">
        <ele>297.746</ele>
        <time>2020-09-02T17:24:24Z</time>
      </trkpt>
      <trkpt lat="43.72905" lon="5.85392">
        <ele>298.273</ele>
        <time>2020-09-02T17:24:25Z</time>
      </trkpt>
      <trkpt lat="43.72899" lon="5.85368">
        <ele>298.214</ele>
        <time>2020-09-02T17:24:26Z</time>
      </trkpt>
      <trkpt lat="43.72894" lon="5.85343">
        <ele>297.942</ele>
        <time>2020-09-02T17:24:27Z</time>
      </trkpt>
      <trkpt lat="43.72889" lon="5.85316">
        <ele>297.248</ele>
        <time>2020-09-02T17:24:28Z</time>
      </trkpt>
      <trkpt lat="43.72885" lon="5.8529">
        <ele>297.081</ele>
        <time>2020-09-02T17:24:29Z</time>
      </trkpt>
      <trkpt lat="43.72881" lon="5.85264">
        <ele>297.056</ele>
        <time>2020-09-02T17:24:30Z</time>
      </trkpt>
      <trkpt lat="43.72878" lon="5.85238">
        <ele>296.859</ele>
        <time>2020-09-02T17:24:31Z</time>
      </trkpt>
      <trkpt lat="43.72874" lon="5.85212">
        <ele>296.714</ele>
        <time>2020-09-02T17:24:32Z</time>
      </trkpt>
      <trkpt lat="43.72872" lon="5.85186">
        <ele>296.808</ele>
        <time>2020-09-02T17:24:33Z</time>
      </trkpt>
      <trkpt lat="43.72867" lon="5.8516">
        <ele>296.423</ele>
        <time>2020-09-02T17:24:34Z</time>
      </trkpt>
      <trkpt lat="43.72862" lon="5.85134">
        <ele>296.352</ele>
        <time>2020-09-02T17:24:35Z</time>
      </trkpt>
      <trkpt lat="43.72859" lon="5.85111">
        <ele>295.912</ele>
        <time>2020-09-02T17:24:36Z</time>
      </trkpt>
      <trkpt lat="43.72854" lon="5.85085">
        <ele>295.869</ele>
        <time>2020-09-02T17:24:37Z</time>
      </trkpt>
      <trkpt lat="43.7285" lon="5.8506">
        <ele>295.62</ele>
        <time>2020-09-02T17:24:38Z</time>
      </trkpt>
      <trkpt lat="43.72848" lon="5.85035">
        <ele>295.058</ele>
        <time>2020-09-02T17:24:39Z</time>
      </trkpt>
      <trkpt lat="43.72844" lon="5.85011">
        <ele>294.794</ele>
        <time>2020-09-02T17:24:40Z</time>
      </trkpt>
      <trkpt lat="43.72842" lon="5.84988">
        <ele>295.027</ele>
        <time>2020-09-02T17:24:41Z</time>
      </trkpt>
      <trkpt lat="43.72839" lon="5.84966">
        <ele>294.926</ele>
        <time>2020-09-02T17:24:42Z</time>
      </trkpt>
      <trkpt lat="43.72837" lon="5.84942">
        <ele>295.147</ele>
        <time>2020-09-02T17:24:43Z</time>
      </trkpt>
      <trkpt lat="43.72831" lon="5.84918">
        <ele>294.311</ele>
        <time>2020-09-02T17:24:44Z</time>
      </trkpt>
      <trkpt lat="43.72828" lon="5.84895">
        <ele>294.108</ele>
        <time>2020-09-02T17:24:45Z</time>
      </trkpt>
      <trkpt lat="43.72828" lon="5.84872">
        <ele>294.65</ele>
        <time>2020-09-02T17:24:46Z</time>
      </trkpt>
      <trkpt lat="43.72824" lon="5.84848">
        <ele>294.739</ele>
        <time>2020-09-02T17:24:47Z</time>
      </trkpt>
      <trkpt lat="43.72821" lon="5.84824">
        <ele>294.779</ele>
        <time>2020-09-02T17:24:48Z</time>
      </trkpt>
      <trkpt lat="43.72818" lon="5.84801">
        <ele>295.066</ele>
        <time>2020-09-02T17:24:49Z</time>
      </trkpt>
      <trkpt lat="43.72814" lon="5.84778">
        <ele>295.247</ele>
        <time>2020-09-02T17:24:50Z</time>
      </trkpt>
      <trkpt lat="43.7281" lon="5.84758">
        <ele>295.795</ele>
        <time>2020-09-02T17:24:51Z</time>
      </trkpt>
      <trkpt lat="43.72805" lon="5.84736">
        <ele>295.661</ele>
        <time>2020-09-02T17:24:52Z</time>
      </trkpt>
      <trkpt lat="43.72802" lon="5.84716">
        <ele>295.244</ele>
        <time>2020-09-02T17:24:53Z</time>
      </trkpt>
      <trkpt lat="43.728" lon="5.84697">
        <ele>295.499</ele>
        <time>2020-09-02T17:24:54Z</time>
      </trkpt>
      <trkpt lat="43.72791" lon="5.84679">
        <ele>294.307</ele>
        <time>2020-09-02T17:24:55Z</time>
      </trkpt>
      <trkpt lat="43.72786" lon="5.84663">
        <ele>294.127</ele>
        <time>2020-09-02T17:24:56Z</time>
      </trkpt>
      <trkpt lat="43.72782" lon="5.84647">
        <ele>293.908</ele>
        <time>2020-09-02T17:24:57Z</time>
      </trkpt>
      <trkpt lat="43.72771" lon="5.84635">
        <ele>293.997</ele>
        <time>2020-09-02T17:24:58Z</time>
      </trkpt>
      <trkpt lat="43.72764" lon="5.84623">
        <ele>293.536</ele>
        <time>2020-09-02T17:24:59Z</time>
      </trkpt>
      <trkpt lat="43.72753" lon="5.84609">
        <ele>293.556</ele>
        <time>2020-09-02T17:25:00Z</time>
      </trkpt>
      <trkpt lat="43.72744" lon="5.84596">
        <ele>293.383</ele>
        <time>2020-09-02T17:25:01Z</time>
      </trkpt>
      <trkpt lat="43.72738" lon="5.84583">
        <ele>293.094</ele>
        <time>2020-09-02T17:25:02Z</time>
      </trkpt>
      <trkpt lat="43.72732" lon="5.84568">
        <ele>293.062</ele>
        <time>2020-09-02T17:25:03Z</time>
      </trkpt>
      <trkpt lat="43.72726" lon="5.84552">
        <ele>293.078</ele>
        <time>2020-09-02T17:25:04Z</time>
      </trkpt>
      <trkpt lat="43.72721" lon="5.84536">
        <ele>292.741</ele>
        <time>2020-09-02T17:25:05Z</time>
      </trkpt>
      <trkpt lat="43.72717" lon="5.84519">
        <ele>292.855</ele>
        <time>2020-09-02T17:25:06Z</time>
      </trkpt>
      <trkpt lat="43.72711" lon="5.84504">
        <ele>293.407</ele>
        <time>2020-09-02T17:25:07Z</time>
      </trkpt>
      <trkpt lat="43.72707" lon="5.84488">
        <ele>293.917</ele>
        <time>2020-09-02T17:25:08Z</time>
      </trkpt>
      <trkpt lat="43.72703" lon="5.84474">
        <ele>294.008</ele>
        <time>2020-09-02T17:25:09Z</time>
      </trkpt>
      <trkpt lat="43.72698" lon="5.84467">
        <ele>294.453</ele>
        <time>2020-09-02T17:25:10Z</time>
      </trkpt>
      <trkpt lat="43.72692" lon="5.84462">
        <ele>295.252</ele>
        <time>2020-09-02T17:25:12Z</time>
      </trkpt>
      <trkpt lat="43.72689" lon="5.84452">
        <ele>295.442</ele>
        <time>2020-09-02T17:25:14Z</time>
      </trkpt>
      <trkpt lat="43.72687" lon="5.84443">
        <ele>294.659</ele>
        <time>2020-09-02T17:25:15Z</time>
      </trkpt>
      <trkpt lat="43.72685" lon="5.84432">
        <ele>294.84</ele>
        <time>2020-09-02T17:25:16Z</time>
      </trkpt>
      <trkpt lat="43.72682" lon="5.84421">
        <ele>294.628</ele>
        <time>2020-09-02T17:25:17Z</time>
      </trkpt>
      <trkpt lat="43.72676" lon="5.84408">
        <ele>295.164</ele>
        <time>2020-09-02T17:25:18Z</time>
      </trkpt>
      <trkpt lat="43.7267" lon="5.84396">
        <ele>295.277</ele>
        <time>2020-09-02T17:25:19Z</time>
      </trkpt>
      <trkpt lat="43.72663" lon="5.84384">
        <ele>294.737</ele>
        <time>2020-09-02T17:25:20Z</time>
      </trkpt>
      <trkpt lat="43.72656" lon="5.84369">
        <ele>294.849</ele>
        <time>2020-09-02T17:25:21Z</time>
      </trkpt>
      <trkpt lat="43.72648" lon="5.84353">
        <ele>294.313</ele>
        <time>2020-09-02T17:25:22Z</time>
      </trkpt>
      <trkpt lat="43.7264" lon="5.84336">
        <ele>294.008</ele>
        <time>2020-09-02T17:25:23Z</time>
      </trkpt>
      <trkpt lat="43.72631" lon="5.84319">
        <ele>293.881</ele>
        <time>2020-09-02T17:25:24Z</time>
      </trkpt>
      <trkpt lat="43.72622" lon="5.843">
        <ele>293.83</ele>
        <time>2020-09-02T17:25:25Z</time>
      </trkpt>
      <trkpt lat="43.72612" lon="5.84281">
        <ele>293.71</ele>
        <time>2020-09-02T17:25:26Z</time>
      </trkpt>
      <trkpt lat="43.72602" lon="5.84261">
        <ele>294.167</ele>
        <time>2020-09-02T17:25:27Z</time>
      </trkpt>
      <trkpt lat="43.72593" lon="5.84241">
        <ele>294.178</ele>
        <time>2020-09-02T17:25:28Z</time>
      </trkpt>
      <trkpt lat="43.72585" lon="5.84219">
        <ele>293.216</ele>
        <time>2020-09-02T17:25:29Z</time>
      </trkpt>
      <trkpt lat="43.72576" lon="5.842">
        <ele>293.482</ele>
        <time>2020-09-02T17:25:30Z</time>
      </trkpt>
      <trkpt lat="43.72564" lon="5.84181">
        <ele>293.235</ele>
        <time>2020-09-02T17:25:31Z</time>
      </trkpt>
      <trkpt lat="43.72552" lon="5.84163">
        <ele>293.119</ele>
        <time>2020-09-02T17:25:32Z</time>
      </trkpt>
      <trkpt lat="43.72537" lon="5.84147">
        <ele>292.909</ele>
        <time>2020-09-02T17:25:33Z</time>
      </trkpt>
      <trkpt lat="43.72522" lon="5.84133">
        <ele>292.819</ele>
        <time>2020-09-02T17:25:34Z</time>
      </trkpt>
      <trkpt lat="43.72508" lon="5.84119">
        <ele>293.108</ele>
        <time>2020-09-02T17:25:35Z</time>
      </trkpt>
      <trkpt lat="43.72494" lon="5.84105">
        <ele>293.469</ele>
        <time>2020-09-02T17:25:36Z</time>
      </trkpt>
      <trkpt lat="43.72487" lon="5.84088">
        <ele>292.278</ele>
        <time>2020-09-02T17:25:37Z</time>
      </trkpt>
      <trkpt lat="43.72479" lon="5.84071">
        <ele>291.928</ele>
        <time>2020-09-02T17:25:38Z</time>
      </trkpt>
      <trkpt lat="43.72475" lon="5.84054">
        <ele>291.685</ele>
        <time>2020-09-02T17:25:39Z</time>
      </trkpt>
      <trkpt lat="43.72476" lon="5.84037">
        <ele>291.566</ele>
        <time>2020-09-02T17:25:40Z</time>
      </trkpt>
      <trkpt lat="43.72482" lon="5.84024">
        <ele>291.314</ele>
        <time>2020-09-02T17:25:41Z</time>
      </trkpt>
      <trkpt lat="43.72491" lon="5.84016">
        <ele>290.44</ele>
        <time>2020-09-02T17:25:42Z</time>
      </trkpt>
      <trkpt lat="43.72501" lon="5.84012">
        <ele>290.173</ele>
        <time>2020-09-02T17:25:43Z</time>
      </trkpt>
      <trkpt lat="43.72515" lon="5.84008">
        <ele>289.847</ele>
        <time>2020-09-02T17:25:44Z</time>
      </trkpt>
      <trkpt lat="43.7253" lon="5.84004">
        <ele>289.529</ele>
        <time>2020-09-02T17:25:45Z</time>
      </trkpt>
      <trkpt lat="43.72545" lon="5.83997">
        <ele>288.821</ele>
        <time>2020-09-02T17:25:46Z</time>
      </trkpt>
      <trkpt lat="43.72559" lon="5.83988">
        <ele>288.308</ele>
        <time>2020-09-02T17:25:47Z</time>
      </trkpt>
      <trkpt lat="43.72573" lon="5.83976">
        <ele>287.552</ele>
        <time>2020-09-02T17:25:48Z</time>
      </trkpt>
      <trkpt lat="43.72587" lon="5.83962">
        <ele>287.541</ele>
        <time>2020-09-02T17:25:49Z</time>
      </trkpt>
      <trkpt lat="43.72603" lon="5.83947">
        <ele>287.251</ele>
        <time>2020-09-02T17:25:50Z</time>
      </trkpt>
      <trkpt lat="43.72619" lon="5.83933">
        <ele>286.998</ele>
        <time>2020-09-02T17:25:51Z</time>
      </trkpt>
      <trkpt lat="43.72635" lon="5.83917">
        <ele>287.029</ele>
        <time>2020-09-02T17:25:52Z</time>
      </trkpt>
      <trkpt lat="43.72651" lon="5.83899">
        <ele>286.617</ele>
        <time>2020-09-02T17:25:53Z</time>
      </trkpt>
      <trkpt lat="43.72666" lon="5.83883">
        <ele>286.433</ele>
        <time>2020-09-02T17:25:54Z</time>
      </trkpt>
      <trkpt lat="43.7268" lon="5.83869">
        <ele>286.386</ele>
        <time>2020-09-02T17:25:55Z</time>
      </trkpt>
      <trkpt lat="43.72695" lon="5.83852">
        <ele>286.168</ele>
        <time>2020-09-02T17:25:56Z</time>
      </trkpt>
      <trkpt lat="43.72709" lon="5.83838">
        <ele>286.142</ele>
        <time>2020-09-02T17:25:57Z</time>
      </trkpt>
      <trkpt lat="43.72724" lon="5.83826">
        <ele>286.026</ele>
        <time>2020-09-02T17:25:58Z</time>
      </trkpt>
      <trkpt lat="43.72738" lon="5.83814">
        <ele>285.308</ele>
        <time>2020-09-02T17:25:59Z</time>
      </trkpt>
      <trkpt lat="43.72751" lon="5.83804">
        <ele>285.184</ele>
        <time>2020-09-02T17:26:00Z</time>
      </trkpt>
      <trkpt lat="43.72762" lon="5.83794">
        <ele>284.513</ele>
        <time>2020-09-02T17:26:01Z</time>
      </trkpt>
      <trkpt lat="43.72771" lon="5.83779">
        <ele>284.213</ele>
        <time>2020-09-02T17:26:02Z</time>
      </trkpt>
      <trkpt lat="43.7278" lon="5.83762">
        <ele>284.23</ele>
        <time>2020-09-02T17:26:03Z</time>
      </trkpt>
      <trkpt lat="43.72787" lon="5.83742">
        <ele>284.331</ele>
        <time>2020-09-02T17:26:04Z</time>
      </trkpt>
      <trkpt lat="43.72795" lon="5.83722">
        <ele>283.739</ele>
        <time>2020-09-02T17:26:05Z</time>
      </trkpt>
      <trkpt lat="43.72802" lon="5.837">
        <ele>283.985</ele>
        <time>2020-09-02T17:26:06Z</time>
      </trkpt>
      <trkpt lat="43.72811" lon="5.83677">
        <ele>284.058</ele>
        <time>2020-09-02T17:26:07Z</time>
      </trkpt>
      <trkpt lat="43.72819" lon="5.83654">
        <ele>284.235</ele>
        <time>2020-09-02T17:26:08Z</time>
      </trkpt>
      <trkpt lat="43.72827" lon="5.83629">
        <ele>284.486</ele>
        <time>2020-09-02T17:26:09Z</time>
      </trkpt>
      <trkpt lat="43.72836" lon="5.83605">
        <ele>284.414</ele>
        <time>2020-09-02T17:26:10Z</time>
      </trkpt>
      <trkpt lat="43.72846" lon="5.8358">
        <ele>284.408</ele>
        <time>2020-09-02T17:26:11Z</time>
      </trkpt>
      <trkpt lat="43.72855" lon="5.83556">
        <ele>284.271</ele>
        <time>2020-09-02T17:26:12Z</time>
      </trkpt>
      <trkpt lat="43.72864" lon="5.83532">
        <ele>284.18</ele>
        <time>2020-09-02T17:26:13Z</time>
      </trkpt>
      <trkpt lat="43.72871" lon="5.83508">
        <ele>284.66</ele>
        <time>2020-09-02T17:26:14Z</time>
      </trkpt>
      <trkpt lat="43.72876" lon="5.83485">
        <ele>284.617</ele>
        <time>2020-09-02T17:26:15Z</time>
      </trkpt>
      <trkpt lat="43.72877" lon="5.8346">
        <ele>284.738</ele>
        <time>2020-09-02T17:26:16Z</time>
      </trkpt>
      <trkpt lat="43.72876" lon="5.83435">
        <ele>284.666</ele>
        <time>2020-09-02T17:26:17Z</time>
      </trkpt>
      <trkpt lat="43.72872" lon="5.83409">
        <ele>284.782</ele>
        <time>2020-09-02T17:26:18Z</time>
      </trkpt>
      <trkpt lat="43.72869" lon="5.83382">
        <ele>284.515</ele>
        <time>2020-09-02T17:26:19Z</time>
      </trkpt>
      <trkpt lat="43.72866" lon="5.83355">
        <ele>284.271</ele>
        <time>2020-09-02T17:26:20Z</time>
      </trkpt>
      <trkpt lat="43.72863" lon="5.83326">
        <ele>283.941</ele>
        <time>2020-09-02T17:26:21Z</time>
      </trkpt>
      <trkpt lat="43.7286" lon="5.83297">
        <ele>283.615</ele>
        <time>2020-09-02T17:26:22Z</time>
      </trkpt>
      <trkpt lat="43.72857" lon="5.83268">
        <ele>283.608</ele>
        <time>2020-09-02T17:26:23Z</time>
      </trkpt>
      <trkpt lat="43.72853" lon="5.83239">
        <ele>283.765</ele>
        <time>2020-09-02T17:26:24Z</time>
      </trkpt>
      <trkpt lat="43.7285" lon="5.83209">
        <ele>283.974</ele>
        <time>2020-09-02T17:26:25Z</time>
      </trkpt>
      <trkpt lat="43.72846" lon="5.83179">
        <ele>283.674</ele>
        <time>2020-09-02T17:26:26Z</time>
      </trkpt>
      <trkpt lat="43.72843" lon="5.83148">
        <ele>283.871</ele>
        <time>2020-09-02T17:26:27Z</time>
      </trkpt>
      <trkpt lat="43.72839" lon="5.83118">
        <ele>283.982</ele>
        <time>2020-09-02T17:26:28Z</time>
      </trkpt>
      <trkpt lat="43.72836" lon="5.83088">
        <ele>283.83</ele>
        <time>2020-09-02T17:26:29Z</time>
      </trkpt>
      <trkpt lat="43.72832" lon="5.83058">
        <ele>283.586</ele>
        <time>2020-09-02T17:26:30Z</time>
      </trkpt>
      <trkpt lat="43.72829" lon="5.83028">
        <ele>283.949</ele>
        <time>2020-09-02T17:26:31Z</time>
      </trkpt>
      <trkpt lat="43.72825" lon="5.82997">
        <ele>284.066</ele>
        <time>2020-09-02T17:26:32Z</time>
      </trkpt>
      <trkpt lat="43.72821" lon="5.82965">
        <ele>283.529</ele>
        <time>2020-09-02T17:26:33Z</time>
      </trkpt>
      <trkpt lat="43.72817" lon="5.82933">
        <ele>283.821</ele>
        <time>2020-09-02T17:26:34Z</time>
      </trkpt>
      <trkpt lat="43.72814" lon="5.82901">
        <ele>284.008</ele>
        <time>2020-09-02T17:26:35Z</time>
      </trkpt>
      <trkpt lat="43.7281" lon="5.8287">
        <ele>284.064</ele>
        <time>2020-09-02T17:26:36Z</time>
      </trkpt>
      <trkpt lat="43.72808" lon="5.82842">
        <ele>284.523</ele>
        <time>2020-09-02T17:26:37Z</time>
      </trkpt>
      <trkpt lat="43.72805" lon="5.82816">
        <ele>284.893</ele>
        <time>2020-09-02T17:26:38Z</time>
      </trkpt>
      <trkpt lat="43.72803" lon="5.8279">
        <ele>284.94</ele>
        <time>2020-09-02T17:26:39Z</time>
      </trkpt>
      <trkpt lat="43.728" lon="5.82765">
        <ele>284.571</ele>
        <time>2020-09-02T17:26:40Z</time>
      </trkpt>
      <trkpt lat="43.72798" lon="5.8274">
        <ele>284.199</ele>
        <time>2020-09-02T17:26:41Z</time>
      </trkpt>
      <trkpt lat="43.72795" lon="5.82715">
        <ele>284.315</ele>
        <time>2020-09-02T17:26:42Z</time>
      </trkpt>
      <trkpt lat="43.72792" lon="5.8269">
        <ele>284.138</ele>
        <time>2020-09-02T17:26:43Z</time>
      </trkpt>
      <trkpt lat="43.72789" lon="5.82665">
        <ele>284.058</ele>
        <time>2020-09-02T17:26:44Z</time>
      </trkpt>
      <trkpt lat="43.72786" lon="5.82639">
        <ele>284.252</ele>
        <time>2020-09-02T17:26:45Z</time>
      </trkpt>
      <trkpt lat="43.72784" lon="5.82613">
        <ele>283.917</ele>
        <time>2020-09-02T17:26:46Z</time>
      </trkpt>
      <trkpt lat="43.72781" lon="5.82588">
        <ele>283.708</ele>
        <time>2020-09-02T17:26:47Z</time>
      </trkpt>
      <trkpt lat="43.72779" lon="5.82562">
        <ele>283.093</ele>
        <time>2020-09-02T17:26:48Z</time>
      </trkpt>
      <trkpt lat="43.72776" lon="5.82536">
        <ele>282.832</ele>
        <time>2020-09-02T17:26:49Z</time>
      </trkpt>
      <trkpt lat="43.72773" lon="5.82509">
        <ele>282.572</ele>
        <time>2020-09-02T17:26:50Z</time>
      </trkpt>
      <trkpt lat="43.7277" lon="5.82482">
        <ele>282.179</ele>
        <time>2020-09-02T17:26:51Z</time>
      </trkpt>
      <trkpt lat="43.72765" lon="5.82454">
        <ele>281.64</ele>
        <time>2020-09-02T17:26:52Z</time>
      </trkpt>
      <trkpt lat="43.72763" lon="5.82426">
        <ele>282.118</ele>
        <time>2020-09-02T17:26:53Z</time>
      </trkpt>
      <trkpt lat="43.7276" lon="5.82398">
        <ele>282.344</ele>
        <time>2020-09-02T17:26:54Z</time>
      </trkpt>
      <trkpt lat="43.72757" lon="5.8237">
        <ele>282.527</ele>
        <time>2020-09-02T17:26:55Z</time>
      </trkpt>
      <trkpt lat="43.72754" lon="5.82343">
        <ele>282.681</ele>
        <time>2020-09-02T17:26:56Z</time>
      </trkpt>
      <trkpt lat="43.72751" lon="5.82315">
        <ele>282.861</ele>
        <time>2020-09-02T17:26:57Z</time>
      </trkpt>
      <trkpt lat="43.72747" lon="5.82287">
        <ele>283.817</ele>
        <time>2020-09-02T17:26:58Z</time>
      </trkpt>
      <trkpt lat="43.72744" lon="5.82258">
        <ele>283.208</ele>
        <time>2020-09-02T17:26:59Z</time>
      </trkpt>
      <trkpt lat="43.72741" lon="5.82229">
        <ele>283.926</ele>
        <time>2020-09-02T17:27:00Z</time>
      </trkpt>
      <trkpt lat="43.72738" lon="5.822">
        <ele>284.375</ele>
        <time>2020-09-02T17:27:01Z</time>
      </trkpt>
      <trkpt lat="43.72735" lon="5.82171">
        <ele>284.245</ele>
        <time>2020-09-02T17:27:02Z</time>
      </trkpt>
      <trkpt lat="43.72732" lon="5.82142">
        <ele>284.222</ele>
        <time>2020-09-02T17:27:03Z</time>
      </trkpt>
      <trkpt lat="43.72729" lon="5.82111">
        <ele>284.413</ele>
        <time>2020-09-02T17:27:04Z</time>
      </trkpt>
      <trkpt lat="43.72726" lon="5.82082">
        <ele>283.421</ele>
        <time>2020-09-02T17:27:05Z</time>
      </trkpt>
      <trkpt lat="43.72724" lon="5.82052">
        <ele>283.487</ele>
        <time>2020-09-02T17:27:06Z</time>
      </trkpt>
      <trkpt lat="43.7272" lon="5.82023">
        <ele>283.14</ele>
        <time>2020-09-02T17:27:07Z</time>
      </trkpt>
      <trkpt lat="43.72716" lon="5.81994">
        <ele>282.931</ele>
        <time>2020-09-02T17:27:08Z</time>
      </trkpt>
      <trkpt lat="43.72712" lon="5.81964">
        <ele>282.261</ele>
        <time>2020-09-02T17:27:09Z</time>
      </trkpt>
      <trkpt lat="43.72708" lon="5.81934">
        <ele>281.707</ele>
        <time>2020-09-02T17:27:10Z</time>
      </trkpt>
      <trkpt lat="43.72705" lon="5.81905">
        <ele>281.908</ele>
        <time>2020-09-02T17:27:11Z</time>
      </trkpt>
      <trkpt lat="43.727" lon="5.81876">
        <ele>281.371</ele>
        <time>2020-09-02T17:27:12Z</time>
      </trkpt>
      <trkpt lat="43.72697" lon="5.81848">
        <ele>281.68</ele>
        <time>2020-09-02T17:27:13Z</time>
      </trkpt>
      <trkpt lat="43.72695" lon="5.81823">
        <ele>282.06</ele>
        <time>2020-09-02T17:27:14Z</time>
      </trkpt>
      <trkpt lat="43.72693" lon="5.81799">
        <ele>282.217</ele>
        <time>2020-09-02T17:27:15Z</time>
      </trkpt>
      <trkpt lat="43.7269" lon="5.81775">
        <ele>282.218</ele>
        <time>2020-09-02T17:27:16Z</time>
      </trkpt>
      <trkpt lat="43.72688" lon="5.81754">
        <ele>282.226</ele>
        <time>2020-09-02T17:27:17Z</time>
      </trkpt>
      <trkpt lat="43.72686" lon="5.81735">
        <ele>282.042</ele>
        <time>2020-09-02T17:27:18Z</time>
      </trkpt>
      <trkpt lat="43.72683" lon="5.81716">
        <ele>281.975</ele>
        <time>2020-09-02T17:27:19Z</time>
      </trkpt>
      <trkpt lat="43.72681" lon="5.81697">
        <ele>281.533</ele>
        <time>2020-09-02T17:27:20Z</time>
      </trkpt>
      <trkpt lat="43.72679" lon="5.81682">
        <ele>281.423</ele>
        <time>2020-09-02T17:27:21Z</time>
      </trkpt>
      <trkpt lat="43.72676" lon="5.81664">
        <ele>280.815</ele>
        <time>2020-09-02T17:27:22Z</time>
      </trkpt>
      <trkpt lat="43.72674" lon="5.81647">
        <ele>280.208</ele>
        <time>2020-09-02T17:27:23Z</time>
      </trkpt>
      <trkpt lat="43.72673" lon="5.81627">
        <ele>280.661</ele>
        <time>2020-09-02T17:27:24Z</time>
      </trkpt>
      <trkpt lat="43.72671" lon="5.81609">
        <ele>281.04</ele>
        <time>2020-09-02T17:27:25Z</time>
      </trkpt>
      <trkpt lat="43.72667" lon="5.81587">
        <ele>280.82</ele>
        <time>2020-09-02T17:27:26Z</time>
      </trkpt>
      <trkpt lat="43.72664" lon="5.81565">
        <ele>280.817</ele>
        <time>2020-09-02T17:27:27Z</time>
      </trkpt>
      <trkpt lat="43.72663" lon="5.81545">
        <ele>280.958</ele>
        <time>2020-09-02T17:27:28Z</time>
      </trkpt>
      <trkpt lat="43.72662" lon="5.81525">
        <ele>281.146</ele>
        <time>2020-09-02T17:27:29Z</time>
      </trkpt>
      <trkpt lat="43.72659" lon="5.81505">
        <ele>281.342</ele>
        <time>2020-09-02T17:27:30Z</time>
      </trkpt>
      <trkpt lat="43.72657" lon="5.81484">
        <ele>281.195</ele>
        <time>2020-09-02T17:27:31Z</time>
      </trkpt>
      <trkpt lat="43.72655" lon="5.81465">
        <ele>281.316</ele>
        <time>2020-09-02T17:27:32Z</time>
      </trkpt>
      <trkpt lat="43.72653" lon="5.81446">
        <ele>281.376</ele>
        <time>2020-09-02T17:27:33Z</time>
      </trkpt>
      <trkpt lat="43.72651" lon="5.8143">
        <ele>281.613</ele>
        <time>2020-09-02T17:27:34Z</time>
      </trkpt>
      <trkpt lat="43.72648" lon="5.81412">
        <ele>281.708</ele>
        <time>2020-09-02T17:27:35Z</time>
      </trkpt>
      <trkpt lat="43.72645" lon="5.81395">
        <ele>282.339</ele>
        <time>2020-09-02T17:27:36Z</time>
      </trkpt>
      <trkpt lat="43.72645" lon="5.81379">
        <ele>282.348</ele>
        <time>2020-09-02T17:27:37Z</time>
      </trkpt>
      <trkpt lat="43.72643" lon="5.81364">
        <ele>282.598</ele>
        <time>2020-09-02T17:27:38Z</time>
      </trkpt>
      <trkpt lat="43.72642" lon="5.81353">
        <ele>282.885</ele>
        <time>2020-09-02T17:27:39Z</time>
      </trkpt>
      <trkpt lat="43.72639" lon="5.81342">
        <ele>282.936</ele>
        <time>2020-09-02T17:27:40Z</time>
      </trkpt>
      <trkpt lat="43.72639" lon="5.81335">
        <ele>283.314</ele>
        <time>2020-09-02T17:27:41Z</time>
      </trkpt>
      <trkpt lat="43.72638" lon="5.81327">
        <ele>283.54</ele>
        <time>2020-09-02T17:27:43Z</time>
      </trkpt>
      <trkpt lat="43.72642" lon="5.81323">
        <ele>283.713</ele>
        <time>2020-09-02T17:27:51Z</time>
      </trkpt>
      <trkpt lat="43.72649" lon="5.81319">
        <ele>283.473</ele>
        <time>2020-09-02T17:27:53Z</time>
      </trkpt>
      <trkpt lat="43.72657" lon="5.81317">
        <ele>283.685</ele>
        <time>2020-09-02T17:27:55Z</time>
      </trkpt>
      <trkpt lat="43.72665" lon="5.81315">
        <ele>284.113</ele>
        <time>2020-09-02T17:27:57Z</time>
      </trkpt>
      <trkpt lat="43.72673" lon="5.81311">
        <ele>284.808</ele>
        <time>2020-09-02T17:27:59Z</time>
      </trkpt>
      <trkpt lat="43.72677" lon="5.81307">
        <ele>284.455</ele>
        <time>2020-09-02T17:28:01Z</time>
      </trkpt>
      <trkpt lat="43.72681" lon="5.81303">
        <ele>285.844</ele>
        <time>2020-09-02T17:28:18Z</time>
      </trkpt>
      <trkpt lat="43.72682" lon="5.8129">
        <ele>285.144</ele>
        <time>2020-09-02T17:28:20Z</time>
      </trkpt>
      <trkpt lat="43.72681" lon="5.8128">
        <ele>285.111</ele>
        <time>2020-09-02T17:28:21Z</time>
      </trkpt>
      <trkpt lat="43.7268" lon="5.8127">
        <ele>285.322</ele>
        <time>2020-09-02T17:28:22Z</time>
      </trkpt>
      <trkpt lat="43.72679" lon="5.81258">
        <ele>284.79</ele>
        <time>2020-09-02T17:28:23Z</time>
      </trkpt>
      <trkpt lat="43.72679" lon="5.81245">
        <ele>284.576</ele>
        <time>2020-09-02T17:28:24Z</time>
      </trkpt>
      <trkpt lat="43.72678" lon="5.81233">
        <ele>284.089</ele>
        <time>2020-09-02T17:28:25Z</time>
      </trkpt>
      <trkpt lat="43.72679" lon="5.81221">
        <ele>283.386</ele>
        <time>2020-09-02T17:28:26Z</time>
      </trkpt>
      <trkpt lat="43.72679" lon="5.81208">
        <ele>283.06</ele>
        <time>2020-09-02T17:28:27Z</time>
      </trkpt>
      <trkpt lat="43.72678" lon="5.81196">
        <ele>283.126</ele>
        <time>2020-09-02T17:28:28Z</time>
      </trkpt>
      <trkpt lat="43.72676" lon="5.81183">
        <ele>283.308</ele>
        <time>2020-09-02T17:28:29Z</time>
      </trkpt>
      <trkpt lat="43.72674" lon="5.8117">
        <ele>282.976</ele>
        <time>2020-09-02T17:28:30Z</time>
      </trkpt>
      <trkpt lat="43.72671" lon="5.81156">
        <ele>283.425</ele>
        <time>2020-09-02T17:28:31Z</time>
      </trkpt>
      <trkpt lat="43.72668" lon="5.81143">
        <ele>283.035</ele>
        <time>2020-09-02T17:28:32Z</time>
      </trkpt>
      <trkpt lat="43.72663" lon="5.81131">
        <ele>283.132</ele>
        <time>2020-09-02T17:28:33Z</time>
      </trkpt>
      <trkpt lat="43.72658" lon="5.81121">
        <ele>282.943</ele>
        <time>2020-09-02T17:28:34Z</time>
      </trkpt>
      <trkpt lat="43.72653" lon="5.81111">
        <ele>282.691</ele>
        <time>2020-09-02T17:28:35Z</time>
      </trkpt>
      <trkpt lat="43.72647" lon="5.81103">
        <ele>283.017</ele>
        <time>2020-09-02T17:28:36Z</time>
      </trkpt>
      <trkpt lat="43.72633" lon="5.81097">
        <ele>282.76</ele>
        <time>2020-09-02T17:28:37Z</time>
      </trkpt>
      <trkpt lat="43.72626" lon="5.81091">
        <ele>283.089</ele>
        <time>2020-09-02T17:28:38Z</time>
      </trkpt>
      <trkpt lat="43.72616" lon="5.81088">
        <ele>281.706</ele>
        <time>2020-09-02T17:28:39Z</time>
      </trkpt>
      <trkpt lat="43.72609" lon="5.81086">
        <ele>280.926</ele>
        <time>2020-09-02T17:28:40Z</time>
      </trkpt>
      <trkpt lat="43.72602" lon="5.81084">
        <ele>280.808</ele>
        <time>2020-09-02T17:28:41Z</time>
      </trkpt>
      <trkpt lat="43.72594" lon="5.81084">
        <ele>281.196</ele>
        <time>2020-09-02T17:28:42Z</time>
      </trkpt>
      <trkpt lat="43.72585" lon="5.81083">
        <ele>281.185</ele>
        <time>2020-09-02T17:28:43Z</time>
      </trkpt>
      <trkpt lat="43.72575" lon="5.81082">
        <ele>281.175</ele>
        <time>2020-09-02T17:28:44Z</time>
      </trkpt>
      <trkpt lat="43.72564" lon="5.8108">
        <ele>281.352</ele>
        <time>2020-09-02T17:28:45Z</time>
      </trkpt>
      <trkpt lat="43.72552" lon="5.81079">
        <ele>280.523</ele>
        <time>2020-09-02T17:28:46Z</time>
      </trkpt>
      <trkpt lat="43.7254" lon="5.81076">
        <ele>280.651</ele>
        <time>2020-09-02T17:28:47Z</time>
      </trkpt>
      <trkpt lat="43.72527" lon="5.81074">
        <ele>281.147</ele>
        <time>2020-09-02T17:28:48Z</time>
      </trkpt>
      <trkpt lat="43.72514" lon="5.81073">
        <ele>280.05</ele>
        <time>2020-09-02T17:28:49Z</time>
      </trkpt>
      <trkpt lat="43.725" lon="5.81071">
        <ele>279.291</ele>
        <time>2020-09-02T17:28:50Z</time>
      </trkpt>
      <trkpt lat="43.72486" lon="5.8107">
        <ele>278.981</ele>
        <time>2020-09-02T17:28:51Z</time>
      </trkpt>
      <trkpt lat="43.72473" lon="5.81068">
        <ele>278.919</ele>
        <time>2020-09-02T17:28:52Z</time>
      </trkpt>
      <trkpt lat="43.72458" lon="5.81066">
        <ele>279.508</ele>
        <time>2020-09-02T17:28:53Z</time>
      </trkpt>
      <trkpt lat="43.72446" lon="5.81063">
        <ele>278.967</ele>
        <time>2020-09-02T17:28:54Z</time>
      </trkpt>
      <trkpt lat="43.72433" lon="5.81062">
        <ele>278.936</ele>
        <time>2020-09-02T17:28:55Z</time>
      </trkpt>
      <trkpt lat="43.72421" lon="5.8106">
        <ele>279.046</ele>
        <time>2020-09-02T17:28:56Z</time>
      </trkpt>
      <trkpt lat="43.72409" lon="5.81059">
        <ele>279.183</ele>
        <time>2020-09-02T17:28:57Z</time>
      </trkpt>
      <trkpt lat="43.72399" lon="5.81057">
        <ele>278.824</ele>
        <time>2020-09-02T17:28:58Z</time>
      </trkpt>
      <trkpt lat="43.72389" lon="5.81056">
        <ele>279.042</ele>
        <time>2020-09-02T17:28:59Z</time>
      </trkpt>
      <trkpt lat="43.72379" lon="5.81054">
        <ele>279.018</ele>
        <time>2020-09-02T17:29:00Z</time>
      </trkpt>
      <trkpt lat="43.72369" lon="5.81052">
        <ele>279.281</ele>
        <time>2020-09-02T17:29:01Z</time>
      </trkpt>
      <trkpt lat="43.72358" lon="5.8105">
        <ele>278.862</ele>
        <time>2020-09-02T17:29:02Z</time>
      </trkpt>
      <trkpt lat="43.72348" lon="5.81049">
        <ele>279.083</ele>
        <time>2020-09-02T17:29:03Z</time>
      </trkpt>
      <trkpt lat="43.72338" lon="5.81046">
        <ele>278.811</ele>
        <time>2020-09-02T17:29:04Z</time>
      </trkpt>
      <trkpt lat="43.72327" lon="5.81045">
        <ele>279.108</ele>
        <time>2020-09-02T17:29:05Z</time>
      </trkpt>
      <trkpt lat="43.72318" lon="5.81044">
        <ele>280.034</ele>
        <time>2020-09-02T17:29:06Z</time>
      </trkpt>
      <trkpt lat="43.7231" lon="5.81045">
        <ele>278.793</ele>
        <time>2020-09-02T17:29:07Z</time>
      </trkpt>
      <trkpt lat="43.72303" lon="5.81045">
        <ele>278.013</ele>
        <time>2020-09-02T17:29:08Z</time>
      </trkpt>
      <trkpt lat="43.72297" lon="5.81042">
        <ele>277.54</ele>
        <time>2020-09-02T17:29:09Z</time>
      </trkpt>
      <trkpt lat="43.7229" lon="5.81038">
        <ele>277.651</ele>
        <time>2020-09-02T17:29:10Z</time>
      </trkpt>
      <trkpt lat="43.72284" lon="5.81037">
        <ele>277.599</ele>
        <time>2020-09-02T17:29:11Z</time>
      </trkpt>
      <trkpt lat="43.72276" lon="5.81038">
        <ele>277.545</ele>
        <time>2020-09-02T17:29:12Z</time>
      </trkpt>
      <trkpt lat="43.72271" lon="5.81042">
        <ele>277.228</ele>
        <time>2020-09-02T17:29:13Z</time>
      </trkpt>
      <trkpt lat="43.72267" lon="5.81049">
        <ele>277.446</ele>
        <time>2020-09-02T17:29:14Z</time>
      </trkpt>
      <trkpt lat="43.72266" lon="5.8106">
        <ele>277.488</ele>
        <time>2020-09-02T17:29:15Z</time>
      </trkpt>
      <trkpt lat="43.72266" lon="5.81069">
        <ele>277.616</ele>
        <time>2020-09-02T17:29:16Z</time>
      </trkpt>
      <trkpt lat="43.72267" lon="5.8108">
        <ele>277.308</ele>
        <time>2020-09-02T17:29:17Z</time>
      </trkpt>
      <trkpt lat="43.72266" lon="5.81092">
        <ele>277.562</ele>
        <time>2020-09-02T17:29:18Z</time>
      </trkpt>
      <trkpt lat="43.72264" lon="5.81106">
        <ele>278.421</ele>
        <time>2020-09-02T17:29:19Z</time>
      </trkpt>
      <trkpt lat="43.72262" lon="5.8112">
        <ele>279.461</ele>
        <time>2020-09-02T17:29:20Z</time>
      </trkpt>
      <trkpt lat="43.72261" lon="5.81133">
        <ele>280.768</ele>
        <time>2020-09-02T17:29:21Z</time>
      </trkpt>
      <trkpt lat="43.72259" lon="5.81145">
        <ele>281.439</ele>
        <time>2020-09-02T17:29:22Z</time>
      </trkpt>
      <trkpt lat="43.72258" lon="5.81155">
        <ele>282.237</ele>
        <time>2020-09-02T17:29:23Z</time>
      </trkpt>
      <trkpt lat="43.72255" lon="5.81166">
        <ele>283.073</ele>
        <time>2020-09-02T17:29:24Z</time>
      </trkpt>
      <trkpt lat="43.72253" lon="5.81178">
        <ele>283.916</ele>
        <time>2020-09-02T17:29:25Z</time>
      </trkpt>
      <trkpt lat="43.7225" lon="5.81191">
        <ele>284.581</ele>
        <time>2020-09-02T17:29:26Z</time>
      </trkpt>
      <trkpt lat="43.72248" lon="5.81205">
        <ele>285.061</ele>
        <time>2020-09-02T17:29:27Z</time>
      </trkpt>
      <trkpt lat="43.72246" lon="5.81217">
        <ele>286.017</ele>
        <time>2020-09-02T17:29:28Z</time>
      </trkpt>
      <trkpt lat="43.72244" lon="5.81229">
        <ele>286.908</ele>
        <time>2020-09-02T17:29:29Z</time>
      </trkpt>
      <trkpt lat="43.72242" lon="5.81239">
        <ele>287.676</ele>
        <time>2020-09-02T17:29:30Z</time>
      </trkpt>
      <trkpt lat="43.72238" lon="5.81249">
        <ele>288.675</ele>
        <time>2020-09-02T17:29:31Z</time>
      </trkpt>
      <trkpt lat="43.72234" lon="5.81258">
        <ele>289.055</ele>
        <time>2020-09-02T17:29:32Z</time>
      </trkpt>
      <trkpt lat="43.72226" lon="5.81267">
        <ele>288.362</ele>
        <time>2020-09-02T17:29:33Z</time>
      </trkpt>
      <trkpt lat="43.72218" lon="5.81272">
        <ele>288.473</ele>
        <time>2020-09-02T17:29:34Z</time>
      </trkpt>
      <trkpt lat="43.7221" lon="5.81274">
        <ele>288.831</ele>
        <time>2020-09-02T17:29:35Z</time>
      </trkpt>
      <trkpt lat="43.72202" lon="5.81277">
        <ele>289.267</ele>
        <time>2020-09-02T17:29:36Z</time>
      </trkpt>
      <trkpt lat="43.72196" lon="5.81279">
        <ele>288.67</ele>
        <time>2020-09-02T17:29:37Z</time>
      </trkpt>
      <trkpt lat="43.72188" lon="5.81282">
        <ele>289.059</ele>
        <time>2020-09-02T17:29:38Z</time>
      </trkpt>
      <trkpt lat="43.72183" lon="5.81286">
        <ele>289.603</ele>
        <time>2020-09-02T17:29:39Z</time>
      </trkpt>
      <trkpt lat="43.72177" lon="5.81289">
        <ele>290.223</ele>
        <time>2020-09-02T17:29:40Z</time>
      </trkpt>
      <trkpt lat="43.7217" lon="5.8129">
        <ele>290.608</ele>
        <time>2020-09-02T17:29:41Z</time>
      </trkpt>
      <trkpt lat="43.72161" lon="5.81291">
        <ele>290.983</ele>
        <time>2020-09-02T17:29:42Z</time>
      </trkpt>
      <trkpt lat="43.72155" lon="5.8129">
        <ele>291.322</ele>
        <time>2020-09-02T17:29:43Z</time>
      </trkpt>
      <trkpt lat="43.72149" lon="5.81288">
        <ele>292.122</ele>
        <time>2020-09-02T17:29:44Z</time>
      </trkpt>
      <trkpt lat="43.72143" lon="5.81284">
        <ele>292.639</ele>
        <time>2020-09-02T17:29:45Z</time>
      </trkpt>
      <trkpt lat="43.72136" lon="5.81281">
        <ele>293.29</ele>
        <time>2020-09-02T17:29:46Z</time>
      </trkpt>
      <trkpt lat="43.7213" lon="5.81279">
        <ele>293.988</ele>
        <time>2020-09-02T17:29:47Z</time>
      </trkpt>
      <trkpt lat="43.72123" lon="5.81275">
        <ele>294.154</ele>
        <time>2020-09-02T17:29:48Z</time>
      </trkpt>
      <trkpt lat="43.72117" lon="5.81271">
        <ele>294.737</ele>
        <time>2020-09-02T17:29:49Z</time>
      </trkpt>
      <trkpt lat="43.72112" lon="5.81266">
        <ele>295.131</ele>
        <time>2020-09-02T17:29:50Z</time>
      </trkpt>
      <trkpt lat="43.72107" lon="5.81261">
        <ele>295.461</ele>
        <time>2020-09-02T17:29:51Z</time>
      </trkpt>
      <trkpt lat="43.72103" lon="5.81256">
        <ele>295.707</ele>
        <time>2020-09-02T17:29:52Z</time>
      </trkpt>
      <trkpt lat="43.72096" lon="5.81251">
        <ele>296.008</ele>
        <time>2020-09-02T17:29:54Z</time>
      </trkpt>
      <trkpt lat="43.72093" lon="5.81247">
        <ele>296.551</ele>
        <time>2020-09-02T17:30:03Z</time>
      </trkpt>
      <trkpt lat="43.72098" lon="5.81246">
        <ele>298.11</ele>
        <time>2020-09-02T17:30:43Z</time>
      </trkpt>
      <trkpt lat="43.72093" lon="5.81248">
        <ele>297.97</ele>
        <time>2020-09-02T17:30:59Z</time>
      </trkpt>
      <trkpt lat="43.7209" lon="5.81244">
        <ele>296.967</ele>
        <time>2020-09-02T17:31:17Z</time>
      </trkpt>
      <trkpt lat="43.72094" lon="5.81248">
        <ele>295.088</ele>
        <time>2020-09-02T17:33:23Z</time>
      </trkpt>
      <trkpt lat="43.72093" lon="5.81242">
        <ele>292.636</ele>
        <time>2020-09-02T17:34:04Z</time>
      </trkpt>
      <trkpt lat="43.72088" lon="5.81236">
        <ele>292.542</ele>
        <time>2020-09-02T17:34:06Z</time>
      </trkpt>
      <trkpt lat="43.72081" lon="5.81229">
        <ele>292.575</ele>
        <time>2020-09-02T17:34:08Z</time>
      </trkpt>
      <trkpt lat="43.72075" lon="5.81223">
        <ele>293.339</ele>
        <time>2020-09-02T17:34:10Z</time>
      </trkpt>
      <trkpt lat="43.7207" lon="5.81219">
        <ele>294.401</ele>
        <time>2020-09-02T17:34:12Z</time>
      </trkpt>
      <trkpt lat="43.72065" lon="5.81215">
        <ele>294.721</ele>
        <time>2020-09-02T17:34:14Z</time>
      </trkpt>
      <trkpt lat="43.72059" lon="5.8121">
        <ele>295.008</ele>
        <time>2020-09-02T17:34:16Z</time>
      </trkpt>
      <trkpt lat="43.72056" lon="5.81207">
        <ele>295.281</ele>
        <time>2020-09-02T17:34:18Z</time>
      </trkpt>
      <trkpt lat="43.72049" lon="5.81201">
        <ele>294.77</ele>
        <time>2020-09-02T17:34:20Z</time>
      </trkpt>
      <trkpt lat="43.72044" lon="5.81197">
        <ele>294.44</ele>
        <time>2020-09-02T17:34:21Z</time>
      </trkpt>
      <trkpt lat="43.7204" lon="5.81192">
        <ele>294.767</ele>
        <time>2020-09-02T17:34:22Z</time>
      </trkpt>
      <trkpt lat="43.72034" lon="5.81186">
        <ele>295.088</ele>
        <time>2020-09-02T17:34:23Z</time>
      </trkpt>
      <trkpt lat="43.72028" lon="5.81179">
        <ele>294.846</ele>
        <time>2020-09-02T17:34:24Z</time>
      </trkpt>
      <trkpt lat="43.72022" lon="5.81172">
        <ele>294.452</ele>
        <time>2020-09-02T17:34:25Z</time>
      </trkpt>
      <trkpt lat="43.72017" lon="5.81165">
        <ele>294.565</ele>
        <time>2020-09-02T17:34:26Z</time>
      </trkpt>
      <trkpt lat="43.72012" lon="5.81156">
        <ele>294.458</ele>
        <time>2020-09-02T17:34:27Z</time>
      </trkpt>
      <trkpt lat="43.72008" lon="5.81148">
        <ele>294.652</ele>
        <time>2020-09-02T17:34:28Z</time>
      </trkpt>
      <trkpt lat="43.72005" lon="5.81143">
        <ele>294.917</ele>
        <time>2020-09-02T17:34:29Z</time>
      </trkpt>
      <trkpt lat="43.72002" lon="5.81136">
        <ele>295.208</ele>
        <time>2020-09-02T17:34:30Z</time>
      </trkpt>
      <trkpt lat="43.71997" lon="5.8113">
        <ele>295.093</ele>
        <time>2020-09-02T17:34:31Z</time>
      </trkpt>
      <trkpt lat="43.71993" lon="5.81123">
        <ele>295.252</ele>
        <time>2020-09-02T17:34:32Z</time>
      </trkpt>
      <trkpt lat="43.71989" lon="5.81116">
        <ele>295.092</ele>
        <time>2020-09-02T17:34:33Z</time>
      </trkpt>
      <trkpt lat="43.71985" lon="5.81102">
        <ele>295.129</ele>
        <time>2020-09-02T17:34:34Z</time>
      </trkpt>
      <trkpt lat="43.71983" lon="5.81091">
        <ele>295.31</ele>
        <time>2020-09-02T17:34:35Z</time>
      </trkpt>
      <trkpt lat="43.71981" lon="5.81077">
        <ele>295.828</ele>
        <time>2020-09-02T17:34:36Z</time>
      </trkpt>
      <trkpt lat="43.71979" lon="5.81065">
        <ele>297.124</ele>
        <time>2020-09-02T17:34:37Z</time>
      </trkpt>
      <trkpt lat="43.71976" lon="5.81052">
        <ele>298.137</ele>
        <time>2020-09-02T17:34:38Z</time>
      </trkpt>
      <trkpt lat="43.71974" lon="5.81041">
        <ele>299.121</ele>
        <time>2020-09-02T17:34:39Z</time>
      </trkpt>
      <trkpt lat="43.71969" lon="5.81031">
        <ele>300.041</ele>
        <time>2020-09-02T17:34:40Z</time>
      </trkpt>
      <trkpt lat="43.71962" lon="5.81025">
        <ele>300.605</ele>
        <time>2020-09-02T17:34:41Z</time>
      </trkpt>
      <trkpt lat="43.71955" lon="5.81021">
        <ele>300.808</ele>
        <time>2020-09-02T17:34:42Z</time>
      </trkpt>
      <trkpt lat="43.71944" lon="5.81017">
        <ele>301.74</ele>
        <time>2020-09-02T17:34:43Z</time>
      </trkpt>
      <trkpt lat="43.71933" lon="5.81013">
        <ele>302.559</ele>
        <time>2020-09-02T17:34:44Z</time>
      </trkpt>
      <trkpt lat="43.71922" lon="5.81012">
        <ele>303.669</ele>
        <time>2020-09-02T17:34:45Z</time>
      </trkpt>
      <trkpt lat="43.71911" lon="5.81009">
        <ele>304.636</ele>
        <time>2020-09-02T17:34:46Z</time>
      </trkpt>
      <trkpt lat="43.71901" lon="5.81004">
        <ele>306.297</ele>
        <time>2020-09-02T17:34:47Z</time>
      </trkpt>
      <trkpt lat="43.71891" lon="5.80999">
        <ele>308.025</ele>
        <time>2020-09-02T17:34:48Z</time>
      </trkpt>
      <trkpt lat="43.71881" lon="5.80994">
        <ele>309.661</ele>
        <time>2020-09-02T17:34:49Z</time>
      </trkpt>
      <trkpt lat="43.71872" lon="5.80989">
        <ele>310.164</ele>
        <time>2020-09-02T17:34:50Z</time>
      </trkpt>
      <trkpt lat="43.71864" lon="5.8098">
        <ele>310.814</ele>
        <time>2020-09-02T17:34:51Z</time>
      </trkpt>
      <trkpt lat="43.71857" lon="5.8097">
        <ele>311.054</ele>
        <time>2020-09-02T17:34:52Z</time>
      </trkpt>
      <trkpt lat="43.71849" lon="5.80961">
        <ele>312.109</ele>
        <time>2020-09-02T17:34:53Z</time>
      </trkpt>
      <trkpt lat="43.71842" lon="5.80953">
        <ele>311.408</ele>
        <time>2020-09-02T17:34:54Z</time>
      </trkpt>
      <trkpt lat="43.71834" lon="5.80942">
        <ele>311.879</ele>
        <time>2020-09-02T17:34:55Z</time>
      </trkpt>
      <trkpt lat="43.71826" lon="5.80933">
        <ele>311.778</ele>
        <time>2020-09-02T17:34:56Z</time>
      </trkpt>
      <trkpt lat="43.71819" lon="5.80923">
        <ele>312.348</ele>
        <time>2020-09-02T17:34:57Z</time>
      </trkpt>
      <trkpt lat="43.71812" lon="5.80913">
        <ele>314.365</ele>
        <time>2020-09-02T17:34:58Z</time>
      </trkpt>
      <trkpt lat="43.71806" lon="5.80903">
        <ele>315.036</ele>
        <time>2020-09-02T17:34:59Z</time>
      </trkpt>
      <trkpt lat="43.71796" lon="5.80893">
        <ele>316.344</ele>
        <time>2020-09-02T17:35:00Z</time>
      </trkpt>
      <trkpt lat="43.71786" lon="5.80884">
        <ele>318.07</ele>
        <time>2020-09-02T17:35:01Z</time>
      </trkpt>
      <trkpt lat="43.7178" lon="5.80875">
        <ele>319.463</ele>
        <time>2020-09-02T17:35:02Z</time>
      </trkpt>
      <trkpt lat="43.71771" lon="5.80867">
        <ele>321.383</ele>
        <time>2020-09-02T17:35:03Z</time>
      </trkpt>
      <trkpt lat="43.71762" lon="5.80859">
        <ele>323.125</ele>
        <time>2020-09-02T17:35:04Z</time>
      </trkpt>
      <trkpt lat="43.71752" lon="5.80851">
        <ele>326.017</ele>
        <time>2020-09-02T17:35:05Z</time>
      </trkpt>
      <trkpt lat="43.71744" lon="5.80842">
        <ele>327.808</ele>
        <time>2020-09-02T17:35:06Z</time>
      </trkpt>
      <trkpt lat="43.71733" lon="5.80833">
        <ele>328.726</ele>
        <time>2020-09-02T17:35:07Z</time>
      </trkpt>
      <trkpt lat="43.71723" lon="5.80825">
        <ele>331.125</ele>
        <time>2020-09-02T17:35:08Z</time>
      </trkpt>
      <trkpt lat="43.71713" lon="5.8082">
        <ele>332.935</ele>
        <time>2020-09-02T17:35:09Z</time>
      </trkpt>
      <trkpt lat="43.71703" lon="5.80817">
        <ele>333.772</ele>
        <time>2020-09-02T17:35:10Z</time>
      </trkpt>
      <trkpt lat="43.71695" lon="5.80814">
        <ele>335.223</ele>
        <time>2020-09-02T17:35:11Z</time>
      </trkpt>
      <trkpt lat="43.71687" lon="5.80811">
        <ele>337.251</ele>
        <time>2020-09-02T17:35:12Z</time>
      </trkpt>
      <trkpt lat="43.71679" lon="5.80808">
        <ele>338.067</ele>
        <time>2020-09-02T17:35:13Z</time>
      </trkpt>
      <trkpt lat="43.71671" lon="5.80808">
        <ele>339.16</ele>
        <time>2020-09-02T17:35:14Z</time>
      </trkpt>
      <trkpt lat="43.71666" lon="5.80806">
        <ele>340.217</ele>
        <time>2020-09-02T17:35:15Z</time>
      </trkpt>
      <trkpt lat="43.7166" lon="5.80804">
        <ele>340.687</ele>
        <time>2020-09-02T17:35:16Z</time>
      </trkpt>
      <trkpt lat="43.71652" lon="5.80802">
        <ele>341.715</ele>
        <time>2020-09-02T17:35:18Z</time>
      </trkpt>
      <trkpt lat="43.71644" lon="5.80804">
        <ele>342.108</ele>
        <time>2020-09-02T17:35:20Z</time>
      </trkpt>
      <trkpt lat="43.71635" lon="5.80804">
        <ele>343.229</ele>
        <time>2020-09-02T17:35:22Z</time>
      </trkpt>
      <trkpt lat="43.7163" lon="5.80804">
        <ele>343.558</ele>
        <time>2020-09-02T17:35:23Z</time>
      </trkpt>
      <trkpt lat="43.71622" lon="5.80803">
        <ele>343.068</ele>
        <time>2020-09-02T17:35:24Z</time>
      </trkpt>
      <trkpt lat="43.71615" lon="5.80803">
        <ele>342.425</ele>
        <time>2020-09-02T17:35:25Z</time>
      </trkpt>
      <trkpt lat="43.71609" lon="5.80803">
        <ele>342.076</ele>
        <time>2020-09-02T17:35:26Z</time>
      </trkpt>
      <trkpt lat="43.71602" lon="5.80803">
        <ele>341.764</ele>
        <time>2020-09-02T17:35:27Z</time>
      </trkpt>
      <trkpt lat="43.71596" lon="5.80806">
        <ele>340.05</ele>
        <time>2020-09-02T17:35:28Z</time>
      </trkpt>
      <trkpt lat="43.71589" lon="5.80807">
        <ele>338.733</ele>
        <time>2020-09-02T17:35:29Z</time>
      </trkpt>
      <trkpt lat="43.71583" lon="5.80808">
        <ele>337.692</ele>
        <time>2020-09-02T17:35:30Z</time>
      </trkpt>
      <trkpt lat="43.71576" lon="5.80806">
        <ele>338.873</ele>
        <time>2020-09-02T17:35:31Z</time>
      </trkpt>
      <trkpt lat="43.71567" lon="5.80806">
        <ele>339.02</ele>
        <time>2020-09-02T17:35:32Z</time>
      </trkpt>
      <trkpt lat="43.71559" lon="5.80806">
        <ele>338.208</ele>
        <time>2020-09-02T17:35:33Z</time>
      </trkpt>
      <trkpt lat="43.71553" lon="5.80804">
        <ele>336.857</ele>
        <time>2020-09-02T17:35:34Z</time>
      </trkpt>
      <trkpt lat="43.71547" lon="5.80799">
        <ele>336.496</ele>
        <time>2020-09-02T17:35:35Z</time>
      </trkpt>
      <trkpt lat="43.71539" lon="5.80796">
        <ele>335.956</ele>
        <time>2020-09-02T17:35:36Z</time>
      </trkpt>
      <trkpt lat="43.71532" lon="5.8079">
        <ele>335.783</ele>
        <time>2020-09-02T17:35:37Z</time>
      </trkpt>
      <trkpt lat="43.71525" lon="5.80782">
        <ele>335.034</ele>
        <time>2020-09-02T17:35:38Z</time>
      </trkpt>
      <trkpt lat="43.71518" lon="5.80777">
        <ele>334.412</ele>
        <time>2020-09-02T17:35:39Z</time>
      </trkpt>
      <trkpt lat="43.71509" lon="5.80774">
        <ele>333.768</ele>
        <time>2020-09-02T17:35:40Z</time>
      </trkpt>
      <trkpt lat="43.715" lon="5.80771">
        <ele>332.011</ele>
        <time>2020-09-02T17:35:41Z</time>
      </trkpt>
      <trkpt lat="43.71491" lon="5.80771">
        <ele>330.169</ele>
        <time>2020-09-02T17:35:42Z</time>
      </trkpt>
      <trkpt lat="43.71479" lon="5.80769">
        <ele>328.204</ele>
        <time>2020-09-02T17:35:43Z</time>
      </trkpt>
      <trkpt lat="43.71467" lon="5.80768">
        <ele>327.924</ele>
        <time>2020-09-02T17:35:44Z</time>
      </trkpt>
      <trkpt lat="43.71456" lon="5.80767">
        <ele>327.108</ele>
        <time>2020-09-02T17:35:45Z</time>
      </trkpt>
      <trkpt lat="43.71448" lon="5.80766">
        <ele>324.814</ele>
        <time>2020-09-02T17:35:46Z</time>
      </trkpt>
      <trkpt lat="43.71439" lon="5.80761">
        <ele>323.073</ele>
        <time>2020-09-02T17:35:47Z</time>
      </trkpt>
      <trkpt lat="43.71431" lon="5.80759">
        <ele>322.873</ele>
        <time>2020-09-02T17:35:48Z</time>
      </trkpt>
      <trkpt lat="43.71423" lon="5.80757">
        <ele>321.96</ele>
        <time>2020-09-02T17:35:49Z</time>
      </trkpt>
      <trkpt lat="43.71418" lon="5.80753">
        <ele>319.881</ele>
        <time>2020-09-02T17:35:50Z</time>
      </trkpt>
      <trkpt lat="43.71413" lon="5.8075">
        <ele>319.059</ele>
        <time>2020-09-02T17:35:51Z</time>
      </trkpt>
      <trkpt lat="43.71407" lon="5.80745">
        <ele>319.245</ele>
        <time>2020-09-02T17:35:52Z</time>
      </trkpt>
      <trkpt lat="43.71401" lon="5.8074">
        <ele>319.578</ele>
        <time>2020-09-02T17:35:53Z</time>
      </trkpt>
      <trkpt lat="43.71399" lon="5.80727">
        <ele>319.981</ele>
        <time>2020-09-02T17:35:54Z</time>
      </trkpt>
      <trkpt lat="43.71395" lon="5.80717">
        <ele>319.161</ele>
        <time>2020-09-02T17:35:55Z</time>
      </trkpt>
      <trkpt lat="43.71393" lon="5.80705">
        <ele>317.217</ele>
        <time>2020-09-02T17:35:56Z</time>
      </trkpt>
      <trkpt lat="43.71392" lon="5.80694">
        <ele>317.108</ele>
        <time>2020-09-02T17:35:57Z</time>
      </trkpt>
      <trkpt lat="43.71389" lon="5.80683">
        <ele>316.736</ele>
        <time>2020-09-02T17:35:58Z</time>
      </trkpt>
      <trkpt lat="43.71387" lon="5.80674">
        <ele>316.455</ele>
        <time>2020-09-02T17:35:59Z</time>
      </trkpt>
      <trkpt lat="43.71383" lon="5.80664">
        <ele>315.355</ele>
        <time>2020-09-02T17:36:00Z</time>
      </trkpt>
      <trkpt lat="43.7138" lon="5.80656">
        <ele>315.582</ele>
        <time>2020-09-02T17:36:01Z</time>
      </trkpt>
      <trkpt lat="43.71376" lon="5.80647">
        <ele>315.153</ele>
        <time>2020-09-02T17:36:02Z</time>
      </trkpt>
      <trkpt lat="43.71371" lon="5.8064">
        <ele>315.091</ele>
        <time>2020-09-02T17:36:03Z</time>
      </trkpt>
      <trkpt lat="43.71365" lon="5.80633">
        <ele>314.917</ele>
        <time>2020-09-02T17:36:04Z</time>
      </trkpt>
      <trkpt lat="43.71359" lon="5.80628">
        <ele>314.58</ele>
        <time>2020-09-02T17:36:05Z</time>
      </trkpt>
      <trkpt lat="43.71351" lon="5.80623">
        <ele>314.089</ele>
        <time>2020-09-02T17:36:06Z</time>
      </trkpt>
      <trkpt lat="43.71342" lon="5.80617">
        <ele>313.906</ele>
        <time>2020-09-02T17:36:07Z</time>
      </trkpt>
      <trkpt lat="43.71331" lon="5.80612">
        <ele>313.826</ele>
        <time>2020-09-02T17:36:08Z</time>
      </trkpt>
      <trkpt lat="43.71322" lon="5.80606">
        <ele>312.308</ele>
        <time>2020-09-02T17:36:09Z</time>
      </trkpt>
      <trkpt lat="43.71312" lon="5.806">
        <ele>312.256</ele>
        <time>2020-09-02T17:36:10Z</time>
      </trkpt>
      <trkpt lat="43.71302" lon="5.80594">
        <ele>312.395</ele>
        <time>2020-09-02T17:36:11Z</time>
      </trkpt>
      <trkpt lat="43.71293" lon="5.80589">
        <ele>312.325</ele>
        <time>2020-09-02T17:36:12Z</time>
      </trkpt>
      <trkpt lat="43.71284" lon="5.80585">
        <ele>312.352</ele>
        <time>2020-09-02T17:36:13Z</time>
      </trkpt>
      <trkpt lat="43.71275" lon="5.80583">
        <ele>312.183</ele>
        <time>2020-09-02T17:36:14Z</time>
      </trkpt>
      <trkpt lat="43.71267" lon="5.8058">
        <ele>311.031</ele>
        <time>2020-09-02T17:36:15Z</time>
      </trkpt>
      <trkpt lat="43.71258" lon="5.80578">
        <ele>310.737</ele>
        <time>2020-09-02T17:36:16Z</time>
      </trkpt>
      <trkpt lat="43.7125" lon="5.80575">
        <ele>309.77</ele>
        <time>2020-09-02T17:36:17Z</time>
      </trkpt>
      <trkpt lat="43.71242" lon="5.8057">
        <ele>309.727</ele>
        <time>2020-09-02T17:36:18Z</time>
      </trkpt>
      <trkpt lat="43.71234" lon="5.80564">
        <ele>309.168</ele>
        <time>2020-09-02T17:36:19Z</time>
      </trkpt>
      <trkpt lat="43.71227" lon="5.80559">
        <ele>307.614</ele>
        <time>2020-09-02T17:36:20Z</time>
      </trkpt>
      <trkpt lat="43.71221" lon="5.80552">
        <ele>307.208</ele>
        <time>2020-09-02T17:36:21Z</time>
      </trkpt>
      <trkpt lat="43.71215" lon="5.80543">
        <ele>306.41</ele>
        <time>2020-09-02T17:36:22Z</time>
      </trkpt>
      <trkpt lat="43.71209" lon="5.80533">
        <ele>306.219</ele>
        <time>2020-09-02T17:36:23Z</time>
      </trkpt>
      <trkpt lat="43.71203" lon="5.80525">
        <ele>305.019</ele>
        <time>2020-09-02T17:36:24Z</time>
      </trkpt>
      <trkpt lat="43.71197" lon="5.80518">
        <ele>304.476</ele>
        <time>2020-09-02T17:36:25Z</time>
      </trkpt>
      <trkpt lat="43.71192" lon="5.80511">
        <ele>303.987</ele>
        <time>2020-09-02T17:36:26Z</time>
      </trkpt>
      <trkpt lat="43.71187" lon="5.80504">
        <ele>303.665</ele>
        <time>2020-09-02T17:36:27Z</time>
      </trkpt>
      <trkpt lat="43.71184" lon="5.80495">
        <ele>303.071</ele>
        <time>2020-09-02T17:36:28Z</time>
      </trkpt>
      <trkpt lat="43.71179" lon="5.80486">
        <ele>303.014</ele>
        <time>2020-09-02T17:36:29Z</time>
      </trkpt>
      <trkpt lat="43.71175" lon="5.80476">
        <ele>303.019</ele>
        <time>2020-09-02T17:36:30Z</time>
      </trkpt>
      <trkpt lat="43.71171" lon="5.80466">
        <ele>302.209</ele>
        <time>2020-09-02T17:36:31Z</time>
      </trkpt>
      <trkpt lat="43.71166" lon="5.80456">
        <ele>301.919</ele>
        <time>2020-09-02T17:36:32Z</time>
      </trkpt>
      <trkpt lat="43.71162" lon="5.80446">
        <ele>301.608</ele>
        <time>2020-09-02T17:36:33Z</time>
      </trkpt>
      <trkpt lat="43.71158" lon="5.80434">
        <ele>301.349</ele>
        <time>2020-09-02T17:36:34Z</time>
      </trkpt>
      <trkpt lat="43.71155" lon="5.80422">
        <ele>300.848</ele>
        <time>2020-09-02T17:36:35Z</time>
      </trkpt>
      <trkpt lat="43.71154" lon="5.8041">
        <ele>300.998</ele>
        <time>2020-09-02T17:36:36Z</time>
      </trkpt>
      <trkpt lat="43.71154" lon="5.80397">
        <ele>301.055</ele>
        <time>2020-09-02T17:36:37Z</time>
      </trkpt>
      <trkpt lat="43.71157" lon="5.80384">
        <ele>300.856</ele>
        <time>2020-09-02T17:36:38Z</time>
      </trkpt>
      <trkpt lat="43.7116" lon="5.80371">
        <ele>300.674</ele>
        <time>2020-09-02T17:36:39Z</time>
      </trkpt>
      <trkpt lat="43.71162" lon="5.80359">
        <ele>300.22</ele>
        <time>2020-09-02T17:36:40Z</time>
      </trkpt>
      <trkpt lat="43.71164" lon="5.80348">
        <ele>299.473</ele>
        <time>2020-09-02T17:36:41Z</time>
      </trkpt>
      <trkpt lat="43.71167" lon="5.80338">
        <ele>299.161</ele>
        <time>2020-09-02T17:36:42Z</time>
      </trkpt>
      <trkpt lat="43.7117" lon="5.80329">
        <ele>298.621</ele>
        <time>2020-09-02T17:36:43Z</time>
      </trkpt>
      <trkpt lat="43.71174" lon="5.80322">
        <ele>297.913</ele>
        <time>2020-09-02T17:36:44Z</time>
      </trkpt>
      <trkpt lat="43.71178" lon="5.80315">
        <ele>297.108</ele>
        <time>2020-09-02T17:36:45Z</time>
      </trkpt>
      <trkpt lat="43.71181" lon="5.80309">
        <ele>297.324</ele>
        <time>2020-09-02T17:36:46Z</time>
      </trkpt>
      <trkpt lat="43.71181" lon="5.80302">
        <ele>297.213</ele>
        <time>2020-09-02T17:36:47Z</time>
      </trkpt>
      <trkpt lat="43.71181" lon="5.80295">
        <ele>296.913</ele>
        <time>2020-09-02T17:36:48Z</time>
      </trkpt>
      <trkpt lat="43.71179" lon="5.80288">
        <ele>296.66</ele>
        <time>2020-09-02T17:36:49Z</time>
      </trkpt>
      <trkpt lat="43.71176" lon="5.80281">
        <ele>296.411</ele>
        <time>2020-09-02T17:36:50Z</time>
      </trkpt>
      <trkpt lat="43.7117" lon="5.80276">
        <ele>296.499</ele>
        <time>2020-09-02T17:36:51Z</time>
      </trkpt>
      <trkpt lat="43.71165" lon="5.80276">
        <ele>295.915</ele>
        <time>2020-09-02T17:36:52Z</time>
      </trkpt>
      <trkpt lat="43.71161" lon="5.80271">
        <ele>295.788</ele>
        <time>2020-09-02T17:36:53Z</time>
      </trkpt>
      <trkpt lat="43.71157" lon="5.80266">
        <ele>296.015</ele>
        <time>2020-09-02T17:36:54Z</time>
      </trkpt>
      <trkpt lat="43.71151" lon="5.80259">
        <ele>295.465</ele>
        <time>2020-09-02T17:36:55Z</time>
      </trkpt>
      <trkpt lat="43.71144" lon="5.80252">
        <ele>294.811</ele>
        <time>2020-09-02T17:36:56Z</time>
      </trkpt>
      <trkpt lat="43.71137" lon="5.80243">
        <ele>294.408</ele>
        <time>2020-09-02T17:36:57Z</time>
      </trkpt>
      <trkpt lat="43.71129" lon="5.80233">
        <ele>294.169</ele>
        <time>2020-09-02T17:36:58Z</time>
      </trkpt>
      <trkpt lat="43.71121" lon="5.80224">
        <ele>294.658</ele>
        <time>2020-09-02T17:36:59Z</time>
      </trkpt>
      <trkpt lat="43.71115" lon="5.80211">
        <ele>293.498</ele>
        <time>2020-09-02T17:37:00Z</time>
      </trkpt>
      <trkpt lat="43.71106" lon="5.80201">
        <ele>294.025</ele>
        <time>2020-09-02T17:37:01Z</time>
      </trkpt>
      <trkpt lat="43.71098" lon="5.80191">
        <ele>294.466</ele>
        <time>2020-09-02T17:37:02Z</time>
      </trkpt>
      <trkpt lat="43.71089" lon="5.80181">
        <ele>294.874</ele>
        <time>2020-09-02T17:37:03Z</time>
      </trkpt>
      <trkpt lat="43.71082" lon="5.80172">
        <ele>295.56</ele>
        <time>2020-09-02T17:37:04Z</time>
      </trkpt>
      <trkpt lat="43.71075" lon="5.80163">
        <ele>295.193</ele>
        <time>2020-09-02T17:37:05Z</time>
      </trkpt>
      <trkpt lat="43.71069" lon="5.80155">
        <ele>295.498</ele>
        <time>2020-09-02T17:37:06Z</time>
      </trkpt>
      <trkpt lat="43.71064" lon="5.80149">
        <ele>295.415</ele>
        <time>2020-09-02T17:37:07Z</time>
      </trkpt>
      <trkpt lat="43.71059" lon="5.80144">
        <ele>295.726</ele>
        <time>2020-09-02T17:37:08Z</time>
      </trkpt>
      <trkpt lat="43.71052" lon="5.80141">
        <ele>296.008</ele>
        <time>2020-09-02T17:37:09Z</time>
      </trkpt>
      <trkpt lat="43.71046" lon="5.80141">
        <ele>295.877</ele>
        <time>2020-09-02T17:37:10Z</time>
      </trkpt>
      <trkpt lat="43.7104" lon="5.80146">
        <ele>295.726</ele>
        <time>2020-09-02T17:37:11Z</time>
      </trkpt>
      <trkpt lat="43.71033" lon="5.80153">
        <ele>295.546</ele>
        <time>2020-09-02T17:37:12Z</time>
      </trkpt>
      <trkpt lat="43.71025" lon="5.80165">
        <ele>295.873</ele>
        <time>2020-09-02T17:37:13Z</time>
      </trkpt>
      <trkpt lat="43.71018" lon="5.80175">
        <ele>295.584</ele>
        <time>2020-09-02T17:37:14Z</time>
      </trkpt>
      <trkpt lat="43.71011" lon="5.80185">
        <ele>295.582</ele>
        <time>2020-09-02T17:37:15Z</time>
      </trkpt>
      <trkpt lat="43.71005" lon="5.80191">
        <ele>296.078</ele>
        <time>2020-09-02T17:37:16Z</time>
      </trkpt>
      <trkpt lat="43.71" lon="5.80191">
        <ele>296.271</ele>
        <time>2020-09-02T17:37:17Z</time>
      </trkpt>
      <trkpt lat="43.70994" lon="5.80193">
        <ele>296.237</ele>
        <time>2020-09-02T17:37:18Z</time>
      </trkpt>
      <trkpt lat="43.70989" lon="5.802">
        <ele>296.449</ele>
        <time>2020-09-02T17:37:19Z</time>
      </trkpt>
      <trkpt lat="43.70983" lon="5.80206">
        <ele>297.113</ele>
        <time>2020-09-02T17:37:20Z</time>
      </trkpt>
      <trkpt lat="43.70976" lon="5.80213">
        <ele>297.408</ele>
        <time>2020-09-02T17:37:21Z</time>
      </trkpt>
      <trkpt lat="43.7097" lon="5.80218">
        <ele>298.081</ele>
        <time>2020-09-02T17:37:22Z</time>
      </trkpt>
      <trkpt lat="43.70965" lon="5.80224">
        <ele>298.09</ele>
        <time>2020-09-02T17:37:23Z</time>
      </trkpt>
      <trkpt lat="43.7096" lon="5.80228">
        <ele>298.22</ele>
        <time>2020-09-02T17:37:24Z</time>
      </trkpt>
      <trkpt lat="43.70956" lon="5.80233">
        <ele>298.617</ele>
        <time>2020-09-02T17:37:25Z</time>
      </trkpt>
      <trkpt lat="43.70952" lon="5.80243">
        <ele>297.818</ele>
        <time>2020-09-02T17:37:27Z</time>
      </trkpt>
      <trkpt lat="43.70952" lon="5.80251">
        <ele>298.056</ele>
        <time>2020-09-02T17:37:28Z</time>
      </trkpt>
      <trkpt lat="43.70952" lon="5.80261">
        <ele>298.192</ele>
        <time>2020-09-02T17:37:29Z</time>
      </trkpt>
      <trkpt lat="43.70952" lon="5.80271">
        <ele>298.225</ele>
        <time>2020-09-02T17:37:30Z</time>
      </trkpt>
      <trkpt lat="43.70952" lon="5.80281">
        <ele>298.287</ele>
        <time>2020-09-02T17:37:31Z</time>
      </trkpt>
      <trkpt lat="43.7095" lon="5.8029">
        <ele>298.342</ele>
        <time>2020-09-02T17:37:32Z</time>
      </trkpt>
      <trkpt lat="43.70948" lon="5.80299">
        <ele>298.326</ele>
        <time>2020-09-02T17:37:33Z</time>
      </trkpt>
      <trkpt lat="43.70944" lon="5.80308">
        <ele>297.808</ele>
        <time>2020-09-02T17:37:34Z</time>
      </trkpt>
      <trkpt lat="43.7094" lon="5.80318">
        <ele>297.536</ele>
        <time>2020-09-02T17:37:35Z</time>
      </trkpt>
      <trkpt lat="43.70936" lon="5.80327">
        <ele>297.035</ele>
        <time>2020-09-02T17:37:36Z</time>
      </trkpt>
      <trkpt lat="43.70932" lon="5.80336">
        <ele>297.695</ele>
        <time>2020-09-02T17:37:37Z</time>
      </trkpt>
      <trkpt lat="43.70928" lon="5.80345">
        <ele>297.982</ele>
        <time>2020-09-02T17:37:38Z</time>
      </trkpt>
      <trkpt lat="43.70923" lon="5.80354">
        <ele>297.573</ele>
        <time>2020-09-02T17:37:39Z</time>
      </trkpt>
      <trkpt lat="43.70919" lon="5.80365">
        <ele>297.771</ele>
        <time>2020-09-02T17:37:40Z</time>
      </trkpt>
      <trkpt lat="43.70915" lon="5.80374">
        <ele>297.547</ele>
        <time>2020-09-02T17:37:41Z</time>
      </trkpt>
      <trkpt lat="43.70911" lon="5.80383">
        <ele>297.58</ele>
        <time>2020-09-02T17:37:42Z</time>
      </trkpt>
      <trkpt lat="43.70907" lon="5.80391">
        <ele>297.773</ele>
        <time>2020-09-02T17:37:43Z</time>
      </trkpt>
      <trkpt lat="43.70906" lon="5.804">
        <ele>297.685</ele>
        <time>2020-09-02T17:37:44Z</time>
      </trkpt>
      <trkpt lat="43.70903" lon="5.80409">
        <ele>297.513</ele>
        <time>2020-09-02T17:37:45Z</time>
      </trkpt>
      <trkpt lat="43.709" lon="5.80418">
        <ele>297.808</ele>
        <time>2020-09-02T17:37:46Z</time>
      </trkpt>
      <trkpt lat="43.70896" lon="5.80427">
        <ele>297.885</ele>
        <time>2020-09-02T17:37:47Z</time>
      </trkpt>
      <trkpt lat="43.70893" lon="5.80437">
        <ele>298.164</ele>
        <time>2020-09-02T17:37:48Z</time>
      </trkpt>
      <trkpt lat="43.70889" lon="5.80446">
        <ele>298.854</ele>
        <time>2020-09-02T17:37:49Z</time>
      </trkpt>
      <trkpt lat="43.70885" lon="5.80454">
        <ele>299.341</ele>
        <time>2020-09-02T17:37:50Z</time>
      </trkpt>
      <trkpt lat="43.70881" lon="5.8046">
        <ele>299.652</ele>
        <time>2020-09-02T17:37:51Z</time>
      </trkpt>
      <trkpt lat="43.70878" lon="5.80468">
        <ele>299.52</ele>
        <time>2020-09-02T17:37:52Z</time>
      </trkpt>
      <trkpt lat="43.70873" lon="5.80475">
        <ele>299.246</ele>
        <time>2020-09-02T17:37:53Z</time>
      </trkpt>
      <trkpt lat="43.70868" lon="5.80484">
        <ele>299.359</ele>
        <time>2020-09-02T17:37:54Z</time>
      </trkpt>
      <trkpt lat="43.70864" lon="5.80492">
        <ele>299.393</ele>
        <time>2020-09-02T17:37:55Z</time>
      </trkpt>
      <trkpt lat="43.70858" lon="5.80499">
        <ele>299.465</ele>
        <time>2020-09-02T17:37:56Z</time>
      </trkpt>
      <trkpt lat="43.70856" lon="5.80507">
        <ele>298.521</ele>
        <time>2020-09-02T17:37:57Z</time>
      </trkpt>
      <trkpt lat="43.70853" lon="5.80515">
        <ele>298.108</ele>
        <time>2020-09-02T17:37:58Z</time>
      </trkpt>
      <trkpt lat="43.70849" lon="5.80523">
        <ele>297.947</ele>
        <time>2020-09-02T17:37:59Z</time>
      </trkpt>
      <trkpt lat="43.70845" lon="5.8053">
        <ele>297.116</ele>
        <time>2020-09-02T17:38:00Z</time>
      </trkpt>
      <trkpt lat="43.70841" lon="5.80535">
        <ele>296.866</ele>
        <time>2020-09-02T17:38:01Z</time>
      </trkpt>
      <trkpt lat="43.70837" lon="5.80542">
        <ele>297.033</ele>
        <time>2020-09-02T17:38:02Z</time>
      </trkpt>
      <trkpt lat="43.70832" lon="5.8055">
        <ele>297.464</ele>
        <time>2020-09-02T17:38:03Z</time>
      </trkpt>
      <trkpt lat="43.7083" lon="5.80556">
        <ele>297.222</ele>
        <time>2020-09-02T17:38:04Z</time>
      </trkpt>
      <trkpt lat="43.70826" lon="5.80563">
        <ele>297.188</ele>
        <time>2020-09-02T17:38:05Z</time>
      </trkpt>
      <trkpt lat="43.70822" lon="5.8057">
        <ele>297.471</ele>
        <time>2020-09-02T17:38:06Z</time>
      </trkpt>
      <trkpt lat="43.70816" lon="5.80575">
        <ele>297.469</ele>
        <time>2020-09-02T17:38:07Z</time>
      </trkpt>
      <trkpt lat="43.70811" lon="5.80582">
        <ele>297.604</ele>
        <time>2020-09-02T17:38:08Z</time>
      </trkpt>
      <trkpt lat="43.70806" lon="5.80589">
        <ele>297.424</ele>
        <time>2020-09-02T17:38:09Z</time>
      </trkpt>
      <trkpt lat="43.708" lon="5.80598">
        <ele>298.208</ele>
        <time>2020-09-02T17:38:10Z</time>
      </trkpt>
      <trkpt lat="43.70794" lon="5.80605">
        <ele>298.284</ele>
        <time>2020-09-02T17:38:11Z</time>
      </trkpt>
      <trkpt lat="43.70789" lon="5.80613">
        <ele>298.323</ele>
        <time>2020-09-02T17:38:12Z</time>
      </trkpt>
      <trkpt lat="43.70783" lon="5.8062">
        <ele>298.233</ele>
        <time>2020-09-02T17:38:13Z</time>
      </trkpt>
      <trkpt lat="43.70778" lon="5.80627">
        <ele>298.25</ele>
        <time>2020-09-02T17:38:14Z</time>
      </trkpt>
      <trkpt lat="43.70773" lon="5.80633">
        <ele>298.231</ele>
        <time>2020-09-02T17:38:15Z</time>
      </trkpt>
      <trkpt lat="43.7077" lon="5.80642">
        <ele>298.379</ele>
        <time>2020-09-02T17:38:16Z</time>
      </trkpt>
      <trkpt lat="43.70767" lon="5.80649">
        <ele>298.495</ele>
        <time>2020-09-02T17:38:17Z</time>
      </trkpt>
      <trkpt lat="43.70761" lon="5.80658">
        <ele>298.878</ele>
        <time>2020-09-02T17:38:18Z</time>
      </trkpt>
      <trkpt lat="43.70755" lon="5.80666">
        <ele>299.078</ele>
        <time>2020-09-02T17:38:19Z</time>
      </trkpt>
      <trkpt lat="43.70748" lon="5.80673">
        <ele>299.333</ele>
        <time>2020-09-02T17:38:20Z</time>
      </trkpt>
      <trkpt lat="43.70741" lon="5.8068">
        <ele>299.426</ele>
        <time>2020-09-02T17:38:21Z</time>
      </trkpt>
      <trkpt lat="43.70735" lon="5.80689">
        <ele>300.108</ele>
        <time>2020-09-02T17:38:22Z</time>
      </trkpt>
      <trkpt lat="43.70727" lon="5.80696">
        <ele>300.165</ele>
        <time>2020-09-02T17:38:23Z</time>
      </trkpt>
      <trkpt lat="43.7072" lon="5.80703">
        <ele>300.444</ele>
        <time>2020-09-02T17:38:24Z</time>
      </trkpt>
      <trkpt lat="43.70715" lon="5.80712">
        <ele>300.764</ele>
        <time>2020-09-02T17:38:25Z</time>
      </trkpt>
      <trkpt lat="43.70709" lon="5.8072">
        <ele>300.831</ele>
        <time>2020-09-02T17:38:26Z</time>
      </trkpt>
      <trkpt lat="43.70703" lon="5.80728">
        <ele>301.112</ele>
        <time>2020-09-02T17:38:27Z</time>
      </trkpt>
      <trkpt lat="43.70697" lon="5.80737">
        <ele>301.46</ele>
        <time>2020-09-02T17:38:28Z</time>
      </trkpt>
      <trkpt lat="43.7069" lon="5.80746">
        <ele>301.796</ele>
        <time>2020-09-02T17:38:29Z</time>
      </trkpt>
      <trkpt lat="43.70685" lon="5.80754">
        <ele>302.349</ele>
        <time>2020-09-02T17:38:30Z</time>
      </trkpt>
      <trkpt lat="43.70678" lon="5.80762">
        <ele>302.378</ele>
        <time>2020-09-02T17:38:31Z</time>
      </trkpt>
      <trkpt lat="43.70671" lon="5.80769">
        <ele>302.533</ele>
        <time>2020-09-02T17:38:32Z</time>
      </trkpt>
      <trkpt lat="43.70664" lon="5.80779">
        <ele>302.726</ele>
        <time>2020-09-02T17:38:33Z</time>
      </trkpt>
      <trkpt lat="43.70657" lon="5.80789">
        <ele>302.908</ele>
        <time>2020-09-02T17:38:34Z</time>
      </trkpt>
      <trkpt lat="43.7065" lon="5.80799">
        <ele>303.015</ele>
        <time>2020-09-02T17:38:35Z</time>
      </trkpt>
      <trkpt lat="43.70644" lon="5.80807">
        <ele>303.234</ele>
        <time>2020-09-02T17:38:36Z</time>
      </trkpt>
      <trkpt lat="43.70637" lon="5.80815">
        <ele>303.394</ele>
        <time>2020-09-02T17:38:37Z</time>
      </trkpt>
      <trkpt lat="43.7063" lon="5.80821">
        <ele>303.131</ele>
        <time>2020-09-02T17:38:38Z</time>
      </trkpt>
      <trkpt lat="43.70622" lon="5.80828">
        <ele>302.992</ele>
        <time>2020-09-02T17:38:39Z</time>
      </trkpt>
      <trkpt lat="43.70614" lon="5.80833">
        <ele>302.66</ele>
        <time>2020-09-02T17:38:40Z</time>
      </trkpt>
      <trkpt lat="43.70608" lon="5.80835">
        <ele>302.226</ele>
        <time>2020-09-02T17:38:41Z</time>
      </trkpt>
      <trkpt lat="43.70601" lon="5.80836">
        <ele>302.489</ele>
        <time>2020-09-02T17:38:42Z</time>
      </trkpt>
      <trkpt lat="43.70596" lon="5.80838">
        <ele>301.859</ele>
        <time>2020-09-02T17:38:43Z</time>
      </trkpt>
      <trkpt lat="43.70591" lon="5.8084">
        <ele>301.703</ele>
        <time>2020-09-02T17:38:44Z</time>
      </trkpt>
      <trkpt lat="43.70587" lon="5.80843">
        <ele>301.323</ele>
        <time>2020-09-02T17:38:45Z</time>
      </trkpt>
      <trkpt lat="43.70582" lon="5.80846">
        <ele>301.808</ele>
        <time>2020-09-02T17:38:47Z</time>
      </trkpt>
      <trkpt lat="43.70579" lon="5.8084">
        <ele>300.233</ele>
        <time>2020-09-02T17:38:50Z</time>
      </trkpt>
      <trkpt lat="43.70573" lon="5.80835">
        <ele>299.972</ele>
        <time>2020-09-02T17:38:52Z</time>
      </trkpt>
      <trkpt lat="43.70567" lon="5.80832">
        <ele>300.092</ele>
        <time>2020-09-02T17:38:53Z</time>
      </trkpt>
      <trkpt lat="43.70563" lon="5.80827">
        <ele>299.979</ele>
        <time>2020-09-02T17:38:54Z</time>
      </trkpt>
      <trkpt lat="43.70559" lon="5.80822">
        <ele>300.04</ele>
        <time>2020-09-02T17:38:55Z</time>
      </trkpt>
      <trkpt lat="43.70555" lon="5.80817">
        <ele>300.648</ele>
        <time>2020-09-02T17:38:56Z</time>
      </trkpt>
      <trkpt lat="43.70551" lon="5.80811">
        <ele>300.734</ele>
        <time>2020-09-02T17:38:57Z</time>
      </trkpt>
      <trkpt lat="43.70549" lon="5.80803">
        <ele>301.237</ele>
        <time>2020-09-02T17:38:58Z</time>
      </trkpt>
      <trkpt lat="43.70544" lon="5.80795">
        <ele>301.546</ele>
        <time>2020-09-02T17:38:59Z</time>
      </trkpt>
      <trkpt lat="43.7054" lon="5.80788">
        <ele>302.088</ele>
        <time>2020-09-02T17:39:00Z</time>
      </trkpt>
      <trkpt lat="43.70536" lon="5.80781">
        <ele>302.116</ele>
        <time>2020-09-02T17:39:01Z</time>
      </trkpt>
      <trkpt lat="43.70533" lon="5.80773">
        <ele>302.408</ele>
        <time>2020-09-02T17:39:02Z</time>
      </trkpt>
      <trkpt lat="43.70528" lon="5.80767">
        <ele>301.982</ele>
        <time>2020-09-02T17:39:03Z</time>
      </trkpt>
      <trkpt lat="43.70525" lon="5.80762">
        <ele>301.681</ele>
        <time>2020-09-02T17:39:04Z</time>
      </trkpt>
      <trkpt lat="43.7052" lon="5.80753">
        <ele>302.161</ele>
        <time>2020-09-02T17:39:06Z</time>
      </trkpt>
      <trkpt lat="43.7052" lon="5.80742">
        <ele>303.088</ele>
        <time>2020-09-02T17:39:08Z</time>
      </trkpt>
      <trkpt lat="43.70515" lon="5.8073">
        <ele>303.189</ele>
        <time>2020-09-02T17:39:10Z</time>
      </trkpt>
      <trkpt lat="43.70511" lon="5.80722">
        <ele>302.227</ele>
        <time>2020-09-02T17:39:12Z</time>
      </trkpt>
      <trkpt lat="43.70508" lon="5.80713">
        <ele>302.393</ele>
        <time>2020-09-02T17:39:13Z</time>
      </trkpt>
      <trkpt lat="43.70505" lon="5.80707">
        <ele>302.036</ele>
        <time>2020-09-02T17:39:14Z</time>
      </trkpt>
      <trkpt lat="43.70503" lon="5.80701">
        <ele>302.082</ele>
        <time>2020-09-02T17:39:15Z</time>
      </trkpt>
      <trkpt lat="43.70504" lon="5.80694">
        <ele>301.043</ele>
        <time>2020-09-02T17:39:16Z</time>
      </trkpt>
      <trkpt lat="43.70502" lon="5.80687">
        <ele>300.717</ele>
        <time>2020-09-02T17:39:17Z</time>
      </trkpt>
      <trkpt lat="43.70497" lon="5.80685">
        <ele>301.408</ele>
        <time>2020-09-02T17:39:18Z</time>
      </trkpt>
      <trkpt lat="43.70493" lon="5.80683">
        <ele>301.736</ele>
        <time>2020-09-02T17:39:19Z</time>
      </trkpt>
      <trkpt lat="43.70488" lon="5.80682">
        <ele>301.965</ele>
        <time>2020-09-02T17:39:20Z</time>
      </trkpt>
      <trkpt lat="43.70483" lon="5.80679">
        <ele>301.855</ele>
        <time>2020-09-02T17:39:21Z</time>
      </trkpt>
      <trkpt lat="43.70476" lon="5.80677">
        <ele>302.012</ele>
        <time>2020-09-02T17:39:22Z</time>
      </trkpt>
      <trkpt lat="43.70471" lon="5.80673">
        <ele>302.283</ele>
        <time>2020-09-02T17:39:23Z</time>
      </trkpt>
      <trkpt lat="43.70465" lon="5.80672">
        <ele>302.291</ele>
        <time>2020-09-02T17:39:24Z</time>
      </trkpt>
      <trkpt lat="43.70457" lon="5.80672">
        <ele>302.577</ele>
        <time>2020-09-02T17:39:25Z</time>
      </trkpt>
      <trkpt lat="43.7045" lon="5.80675">
        <ele>302.48</ele>
        <time>2020-09-02T17:39:26Z</time>
      </trkpt>
      <trkpt lat="43.70443" lon="5.80675">
        <ele>302.987</ele>
        <time>2020-09-02T17:39:27Z</time>
      </trkpt>
      <trkpt lat="43.70439" lon="5.80675">
        <ele>302.942</ele>
        <time>2020-09-02T17:39:28Z</time>
      </trkpt>
      <trkpt lat="43.70435" lon="5.8067">
        <ele>303.326</ele>
        <time>2020-09-02T17:39:29Z</time>
      </trkpt>
      <trkpt lat="43.7043" lon="5.80665">
        <ele>303.708</ele>
        <time>2020-09-02T17:39:30Z</time>
      </trkpt>
      <trkpt lat="43.70426" lon="5.80661">
        <ele>304.016</ele>
        <time>2020-09-02T17:39:31Z</time>
      </trkpt>
      <trkpt lat="43.70421" lon="5.80655">
        <ele>303.995</ele>
        <time>2020-09-02T17:39:32Z</time>
      </trkpt>
      <trkpt lat="43.70417" lon="5.80649">
        <ele>304.775</ele>
        <time>2020-09-02T17:39:33Z</time>
      </trkpt>
      <trkpt lat="43.70414" lon="5.80644">
        <ele>303.832</ele>
        <time>2020-09-02T17:39:34Z</time>
      </trkpt>
      <trkpt lat="43.70411" lon="5.80638">
        <ele>303.583</ele>
        <time>2020-09-02T17:39:35Z</time>
      </trkpt>
      <trkpt lat="43.70409" lon="5.80631">
        <ele>303.991</ele>
        <time>2020-09-02T17:39:36Z</time>
      </trkpt>
      <trkpt lat="43.70408" lon="5.80626">
        <ele>304.577</ele>
        <time>2020-09-02T17:39:37Z</time>
      </trkpt>
      <trkpt lat="43.70406" lon="5.80618">
        <ele>305.14</ele>
        <time>2020-09-02T17:39:38Z</time>
      </trkpt>
      <trkpt lat="43.70405" lon="5.80608">
        <ele>305.774</ele>
        <time>2020-09-02T17:39:40Z</time>
      </trkpt>
      <trkpt lat="43.704" lon="5.80596">
        <ele>305.756</ele>
        <time>2020-09-02T17:39:42Z</time>
      </trkpt>
      <trkpt lat="43.70398" lon="5.80591">
        <ele>306.121</ele>
        <time>2020-09-02T17:39:43Z</time>
      </trkpt>
      <trkpt lat="43.70395" lon="5.80584">
        <ele>306.508</ele>
        <time>2020-09-02T17:39:44Z</time>
      </trkpt>
      <trkpt lat="43.7039" lon="5.80576">
        <ele>306.415</ele>
        <time>2020-09-02T17:39:45Z</time>
      </trkpt>
      <trkpt lat="43.70388" lon="5.80569">
        <ele>306.074</ele>
        <time>2020-09-02T17:39:46Z</time>
      </trkpt>
      <trkpt lat="43.70385" lon="5.80562">
        <ele>306.634</ele>
        <time>2020-09-02T17:39:47Z</time>
      </trkpt>
      <trkpt lat="43.70379" lon="5.80556">
        <ele>306.641</ele>
        <time>2020-09-02T17:39:48Z</time>
      </trkpt>
      <trkpt lat="43.70375" lon="5.80551">
        <ele>306.812</ele>
        <time>2020-09-02T17:39:49Z</time>
      </trkpt>
      <trkpt lat="43.70373" lon="5.80546">
        <ele>307.12</ele>
        <time>2020-09-02T17:39:50Z</time>
      </trkpt>
      <trkpt lat="43.70369" lon="5.80539">
        <ele>306.856</ele>
        <time>2020-09-02T17:39:52Z</time>
      </trkpt>
      <trkpt lat="43.70363" lon="5.80531">
        <ele>305.969</ele>
        <time>2020-09-02T17:39:54Z</time>
      </trkpt>
      <trkpt lat="43.7036" lon="5.80525">
        <ele>305.226</ele>
        <time>2020-09-02T17:39:56Z</time>
      </trkpt>
      <trkpt lat="43.70353" lon="5.80523">
        <ele>305.347</ele>
        <time>2020-09-02T17:39:57Z</time>
      </trkpt>
      <trkpt lat="43.70344" lon="5.80522">
        <ele>304.711</ele>
        <time>2020-09-02T17:39:59Z</time>
      </trkpt>
      <trkpt lat="43.70339" lon="5.80523">
        <ele>304.008</ele>
        <time>2020-09-02T17:40:00Z</time>
      </trkpt>
      <trkpt lat="43.70333" lon="5.80522">
        <ele>303.41</ele>
        <time>2020-09-02T17:40:02Z</time>
      </trkpt>
      <trkpt lat="43.70328" lon="5.80523">
        <ele>303.239</ele>
        <time>2020-09-02T17:40:03Z</time>
      </trkpt>
      <trkpt lat="43.70321" lon="5.80526">
        <ele>303.629</ele>
        <time>2020-09-02T17:40:04Z</time>
      </trkpt>
      <trkpt lat="43.70313" lon="5.8053">
        <ele>303.586</ele>
        <time>2020-09-02T17:40:05Z</time>
      </trkpt>
      <trkpt lat="43.70309" lon="5.80534">
        <ele>303.767</ele>
        <time>2020-09-02T17:40:06Z</time>
      </trkpt>
      <trkpt lat="43.70304" lon="5.80539">
        <ele>303.235</ele>
        <time>2020-09-02T17:40:07Z</time>
      </trkpt>
      <trkpt lat="43.70299" lon="5.80548">
        <ele>303.291</ele>
        <time>2020-09-02T17:40:09Z</time>
      </trkpt>
      <trkpt lat="43.70294" lon="5.80557">
        <ele>304.384</ele>
        <time>2020-09-02T17:40:11Z</time>
      </trkpt>
      <trkpt lat="43.70291" lon="5.80563">
        <ele>304.926</ele>
        <time>2020-09-02T17:40:12Z</time>
      </trkpt>
      <trkpt lat="43.70286" lon="5.80571">
        <ele>304.547</ele>
        <time>2020-09-02T17:40:14Z</time>
      </trkpt>
      <trkpt lat="43.70283" lon="5.80576">
        <ele>305.111</ele>
        <time>2020-09-02T17:40:16Z</time>
      </trkpt>
      <trkpt lat="43.70276" lon="5.80582">
        <ele>306.108</ele>
        <time>2020-09-02T17:40:18Z</time>
      </trkpt>
      <trkpt lat="43.7027" lon="5.80586">
        <ele>306.21</ele>
        <time>2020-09-02T17:40:20Z</time>
      </trkpt>
      <trkpt lat="43.70264" lon="5.80589">
        <ele>306.529</ele>
        <time>2020-09-02T17:40:22Z</time>
      </trkpt>
      <trkpt lat="43.7026" lon="5.80592">
        <ele>306.889</ele>
        <time>2020-09-02T17:40:24Z</time>
      </trkpt>
      <trkpt lat="43.70253" lon="5.80595">
        <ele>304.776</ele>
        <time>2020-09-02T17:40:26Z</time>
      </trkpt>
      <trkpt lat="43.70247" lon="5.80599">
        <ele>304.387</ele>
        <time>2020-09-02T17:40:28Z</time>
      </trkpt>
      <trkpt lat="43.70241" lon="5.80607">
        <ele>304.585</ele>
        <time>2020-09-02T17:40:30Z</time>
      </trkpt>
      <trkpt lat="43.70237" lon="5.80617">
        <ele>305.721</ele>
        <time>2020-09-02T17:40:32Z</time>
      </trkpt>
      <trkpt lat="43.70231" lon="5.80624">
        <ele>306.584</ele>
        <time>2020-09-02T17:40:34Z</time>
      </trkpt>
      <trkpt lat="43.70224" lon="5.80627">
        <ele>306.231</ele>
        <time>2020-09-02T17:40:36Z</time>
      </trkpt>
      <trkpt lat="43.70218" lon="5.80633">
        <ele>305.961</ele>
        <time>2020-09-02T17:40:38Z</time>
      </trkpt>
      <trkpt lat="43.70214" lon="5.80643">
        <ele>306.207</ele>
        <time>2020-09-02T17:40:40Z</time>
      </trkpt>
      <trkpt lat="43.70211" lon="5.8065">
        <ele>307.408</ele>
        <time>2020-09-02T17:40:42Z</time>
      </trkpt>
      <trkpt lat="43.70207" lon="5.80655">
        <ele>307.561</ele>
        <time>2020-09-02T17:40:44Z</time>
      </trkpt>
      <trkpt lat="43.70205" lon="5.80661">
        <ele>307.54</ele>
        <time>2020-09-02T17:40:46Z</time>
      </trkpt>
      <trkpt lat="43.70208" lon="5.80674">
        <ele>307.56</ele>
        <time>2020-09-02T17:40:48Z</time>
      </trkpt>
      <trkpt lat="43.70207" lon="5.80686">
        <ele>308.177</ele>
        <time>2020-09-02T17:40:50Z</time>
      </trkpt>
      <trkpt lat="43.70207" lon="5.80693">
        <ele>309.578</ele>
        <time>2020-09-02T17:40:52Z</time>
      </trkpt>
      <trkpt lat="43.70211" lon="5.80699">
        <ele>310.266</ele>
        <time>2020-09-02T17:40:54Z</time>
      </trkpt>
      <trkpt lat="43.7021" lon="5.80706">
        <ele>309.282</ele>
        <time>2020-09-02T17:40:56Z</time>
      </trkpt>
      <trkpt lat="43.70208" lon="5.80712">
        <ele>308.465</ele>
        <time>2020-09-02T17:40:59Z</time>
      </trkpt>
      <trkpt lat="43.70205" lon="5.80717">
        <ele>308.452</ele>
        <time>2020-09-02T17:41:01Z</time>
      </trkpt>
      <trkpt lat="43.70204" lon="5.80725">
        <ele>309.053</ele>
        <time>2020-09-02T17:41:03Z</time>
      </trkpt>
      <trkpt lat="43.70204" lon="5.80733">
        <ele>309.708</ele>
        <time>2020-09-02T17:41:05Z</time>
      </trkpt>
      <trkpt lat="43.70202" lon="5.80739">
        <ele>310.608</ele>
        <time>2020-09-02T17:41:07Z</time>
      </trkpt>
      <trkpt lat="43.70198" lon="5.80746">
        <ele>310.583</ele>
        <time>2020-09-02T17:41:09Z</time>
      </trkpt>
      <trkpt lat="43.70193" lon="5.80753">
        <ele>310.352</ele>
        <time>2020-09-02T17:41:11Z</time>
      </trkpt>
      <trkpt lat="43.70187" lon="5.80761">
        <ele>310.922</ele>
        <time>2020-09-02T17:41:13Z</time>
      </trkpt>
      <trkpt lat="43.70183" lon="5.80765">
        <ele>311.479</ele>
        <time>2020-09-02T17:41:14Z</time>
      </trkpt>
      <trkpt lat="43.70178" lon="5.80771">
        <ele>311.88</ele>
        <time>2020-09-02T17:41:16Z</time>
      </trkpt>
      <trkpt lat="43.70172" lon="5.80775">
        <ele>311.378</ele>
        <time>2020-09-02T17:41:18Z</time>
      </trkpt>
      <trkpt lat="43.70165" lon="5.80782">
        <ele>310.484</ele>
        <time>2020-09-02T17:41:20Z</time>
      </trkpt>
      <trkpt lat="43.70159" lon="5.80789">
        <ele>311.347</ele>
        <time>2020-09-02T17:41:22Z</time>
      </trkpt>
      <trkpt lat="43.70154" lon="5.80793">
        <ele>311.256</ele>
        <time>2020-09-02T17:41:23Z</time>
      </trkpt>
      <trkpt lat="43.70149" lon="5.80796">
        <ele>311.559</ele>
        <time>2020-09-02T17:41:24Z</time>
      </trkpt>
      <trkpt lat="43.70144" lon="5.80798">
        <ele>311.514</ele>
        <time>2020-09-02T17:41:25Z</time>
      </trkpt>
      <trkpt lat="43.70137" lon="5.80803">
        <ele>310.808</ele>
        <time>2020-09-02T17:41:27Z</time>
      </trkpt>
      <trkpt lat="43.7013" lon="5.80808">
        <ele>311.243</ele>
        <time>2020-09-02T17:41:29Z</time>
      </trkpt>
      <trkpt lat="43.70125" lon="5.80811">
        <ele>311.372</ele>
        <time>2020-09-02T17:41:31Z</time>
      </trkpt>
      <trkpt lat="43.70118" lon="5.80812">
        <ele>311.842</ele>
        <time>2020-09-02T17:41:33Z</time>
      </trkpt>
      <trkpt lat="43.70111" lon="5.8081">
        <ele>310.589</ele>
        <time>2020-09-02T17:41:35Z</time>
      </trkpt>
      <trkpt lat="43.70105" lon="5.80807">
        <ele>309.84</ele>
        <time>2020-09-02T17:41:37Z</time>
      </trkpt>
      <trkpt lat="43.701" lon="5.80799">
        <ele>309.068</ele>
        <time>2020-09-02T17:41:39Z</time>
      </trkpt>
      <trkpt lat="43.70096" lon="5.80793">
        <ele>309.564</ele>
        <time>2020-09-02T17:41:41Z</time>
      </trkpt>
      <trkpt lat="43.7009" lon="5.80792">
        <ele>310.067</ele>
        <time>2020-09-02T17:41:43Z</time>
      </trkpt>
      <trkpt lat="43.70085" lon="5.80793">
        <ele>309.125</ele>
        <time>2020-09-02T17:41:45Z</time>
      </trkpt>
      <trkpt lat="43.70078" lon="5.80794">
        <ele>308.526</ele>
        <time>2020-09-02T17:41:47Z</time>
      </trkpt>
      <trkpt lat="43.70071" lon="5.80793">
        <ele>309.108</ele>
        <time>2020-09-02T17:41:49Z</time>
      </trkpt>
      <trkpt lat="43.70064" lon="5.80793">
        <ele>310.308</ele>
        <time>2020-09-02T17:41:51Z</time>
      </trkpt>
      <trkpt lat="43.70059" lon="5.80795">
        <ele>309.26</ele>
        <time>2020-09-02T17:41:53Z</time>
      </trkpt>
      <trkpt lat="43.70055" lon="5.80802">
        <ele>309.849</ele>
        <time>2020-09-02T17:41:55Z</time>
      </trkpt>
      <trkpt lat="43.70051" lon="5.80815">
        <ele>310.669</ele>
        <time>2020-09-02T17:41:56Z</time>
      </trkpt>
      <trkpt lat="43.70049" lon="5.80824">
        <ele>310.566</ele>
        <time>2020-09-02T17:41:57Z</time>
      </trkpt>
      <trkpt lat="43.70047" lon="5.80831">
        <ele>310.667</ele>
        <time>2020-09-02T17:41:58Z</time>
      </trkpt>
      <trkpt lat="43.70043" lon="5.80837">
        <ele>310.915</ele>
        <time>2020-09-02T17:41:59Z</time>
      </trkpt>
      <trkpt lat="43.70041" lon="5.80842">
        <ele>311.581</ele>
        <time>2020-09-02T17:42:00Z</time>
      </trkpt>
      <trkpt lat="43.70037" lon="5.80852">
        <ele>311.994</ele>
        <time>2020-09-02T17:42:02Z</time>
      </trkpt>
      <trkpt lat="43.70035" lon="5.80858">
        <ele>312.032</ele>
        <time>2020-09-02T17:42:03Z</time>
      </trkpt>
      <trkpt lat="43.7003" lon="5.80869">
        <ele>312.092</ele>
        <time>2020-09-02T17:42:05Z</time>
      </trkpt>
      <trkpt lat="43.70028" lon="5.80876">
        <ele>311.511</ele>
        <time>2020-09-02T17:42:06Z</time>
      </trkpt>
      <trkpt lat="43.70027" lon="5.80883">
        <ele>312.108</ele>
        <time>2020-09-02T17:42:07Z</time>
      </trkpt>
      <trkpt lat="43.70029" lon="5.8089">
        <ele>312.411</ele>
        <time>2020-09-02T17:42:08Z</time>
      </trkpt>
      <trkpt lat="43.70026" lon="5.809">
        <ele>313.18</ele>
        <time>2020-09-02T17:42:10Z</time>
      </trkpt>
      <trkpt lat="43.70026" lon="5.80909">
        <ele>314.42</ele>
        <time>2020-09-02T17:42:12Z</time>
      </trkpt>
      <trkpt lat="43.70026" lon="5.80918">
        <ele>315.077</ele>
        <time>2020-09-02T17:42:14Z</time>
      </trkpt>
      <trkpt lat="43.70027" lon="5.80929">
        <ele>315.448</ele>
        <time>2020-09-02T17:42:16Z</time>
      </trkpt>
      <trkpt lat="43.70028" lon="5.80936">
        <ele>315.596</ele>
        <time>2020-09-02T17:42:17Z</time>
      </trkpt>
      <trkpt lat="43.7003" lon="5.80948">
        <ele>316.142</ele>
        <time>2020-09-02T17:42:19Z</time>
      </trkpt>
      <trkpt lat="43.70034" lon="5.80954">
        <ele>316.785</ele>
        <time>2020-09-02T17:42:20Z</time>
      </trkpt>
      <trkpt lat="43.7004" lon="5.80963">
        <ele>317.286</ele>
        <time>2020-09-02T17:42:22Z</time>
      </trkpt>
      <trkpt lat="43.70041" lon="5.80969">
        <ele>317.16</ele>
        <time>2020-09-02T17:42:23Z</time>
      </trkpt>
      <trkpt lat="43.70049" lon="5.80979">
        <ele>317.326</ele>
        <time>2020-09-02T17:42:25Z</time>
      </trkpt>
      <trkpt lat="43.70055" lon="5.80985">
        <ele>317.308</ele>
        <time>2020-09-02T17:42:26Z</time>
      </trkpt>
      <trkpt lat="43.70062" lon="5.80992">
        <ele>317.746</ele>
        <time>2020-09-02T17:42:28Z</time>
      </trkpt>
      <trkpt lat="43.70068" lon="5.8099">
        <ele>318.355</ele>
        <time>2020-09-02T17:42:29Z</time>
      </trkpt>
      <trkpt lat="43.70075" lon="5.80991">
        <ele>317.875</ele>
        <time>2020-09-02T17:42:32Z</time>
      </trkpt>
      <trkpt lat="43.7008" lon="5.80989">
        <ele>318.052</ele>
        <time>2020-09-02T17:42:33Z</time>
      </trkpt>
      <trkpt lat="43.70085" lon="5.80988">
        <ele>317.983</ele>
        <time>2020-09-02T17:42:34Z</time>
      </trkpt>
      <trkpt lat="43.7009" lon="5.80987">
        <ele>317.841</ele>
        <time>2020-09-02T17:42:35Z</time>
      </trkpt>
      <trkpt lat="43.70098" lon="5.80979">
        <ele>317.757</ele>
        <time>2020-09-02T17:42:37Z</time>
      </trkpt>
      <trkpt lat="43.70105" lon="5.80971">
        <ele>317.14</ele>
        <time>2020-09-02T17:42:39Z</time>
      </trkpt>
      <trkpt lat="43.70112" lon="5.80964">
        <ele>316.014</ele>
        <time>2020-09-02T17:42:41Z</time>
      </trkpt>
      <trkpt lat="43.70117" lon="5.80963">
        <ele>315.954</ele>
        <time>2020-09-02T17:42:42Z</time>
      </trkpt>
      <trkpt lat="43.70124" lon="5.8096">
        <ele>316.309</ele>
        <time>2020-09-02T17:42:44Z</time>
      </trkpt>
      <trkpt lat="43.7013" lon="5.80957">
        <ele>317.008</ele>
        <time>2020-09-02T17:42:46Z</time>
      </trkpt>
      <trkpt lat="43.70136" lon="5.80953">
        <ele>317.379</ele>
        <time>2020-09-02T17:42:48Z</time>
      </trkpt>
      <trkpt lat="43.70145" lon="5.8095">
        <ele>317.398</ele>
        <time>2020-09-02T17:42:50Z</time>
      </trkpt>
      <trkpt lat="43.70152" lon="5.8095">
        <ele>317.368</ele>
        <time>2020-09-02T17:42:52Z</time>
      </trkpt>
      <trkpt lat="43.70161" lon="5.80946">
        <ele>316.235</ele>
        <time>2020-09-02T17:42:54Z</time>
      </trkpt>
      <trkpt lat="43.70165" lon="5.80943">
        <ele>316.166</ele>
        <time>2020-09-02T17:42:55Z</time>
      </trkpt>
      <trkpt lat="43.70172" lon="5.8094">
        <ele>315.754</ele>
        <time>2020-09-02T17:42:57Z</time>
      </trkpt>
      <trkpt lat="43.7018" lon="5.80938">
        <ele>315.42</ele>
        <time>2020-09-02T17:42:59Z</time>
      </trkpt>
      <trkpt lat="43.70186" lon="5.80938">
        <ele>316.123</ele>
        <time>2020-09-02T17:43:00Z</time>
      </trkpt>
      <trkpt lat="43.70191" lon="5.80939">
        <ele>316.382</ele>
        <time>2020-09-02T17:43:01Z</time>
      </trkpt>
      <trkpt lat="43.70197" lon="5.80941">
        <ele>316.443</ele>
        <time>2020-09-02T17:43:02Z</time>
      </trkpt>
      <trkpt lat="43.70202" lon="5.80941">
        <ele>316.417</ele>
        <time>2020-09-02T17:43:03Z</time>
      </trkpt>
      <trkpt lat="43.70207" lon="5.80941">
        <ele>316.208</ele>
        <time>2020-09-02T17:43:04Z</time>
      </trkpt>
      <trkpt lat="43.70212" lon="5.80941">
        <ele>316.276</ele>
        <time>2020-09-02T17:43:05Z</time>
      </trkpt>
      <trkpt lat="43.70218" lon="5.80942">
        <ele>316.555</ele>
        <time>2020-09-02T17:43:06Z</time>
      </trkpt>
      <trkpt lat="43.70224" lon="5.80947">
        <ele>317.515</ele>
        <time>2020-09-02T17:43:08Z</time>
      </trkpt>
      <trkpt lat="43.70224" lon="5.80958">
        <ele>317.552</ele>
        <time>2020-09-02T17:43:10Z</time>
      </trkpt>
      <trkpt lat="43.70225" lon="5.80965">
        <ele>317.253</ele>
        <time>2020-09-02T17:43:11Z</time>
      </trkpt>
      <trkpt lat="43.70226" lon="5.80972">
        <ele>317.131</ele>
        <time>2020-09-02T17:43:12Z</time>
      </trkpt>
      <trkpt lat="43.70228" lon="5.80984">
        <ele>316.927</ele>
        <time>2020-09-02T17:43:14Z</time>
      </trkpt>
      <trkpt lat="43.70227" lon="5.80991">
        <ele>316.83</ele>
        <time>2020-09-02T17:43:15Z</time>
      </trkpt>
      <trkpt lat="43.70227" lon="5.80999">
        <ele>316.812</ele>
        <time>2020-09-02T17:43:16Z</time>
      </trkpt>
      <trkpt lat="43.70226" lon="5.81006">
        <ele>316.832</ele>
        <time>2020-09-02T17:43:17Z</time>
      </trkpt>
      <trkpt lat="43.70227" lon="5.81012">
        <ele>316.505</ele>
        <time>2020-09-02T17:43:18Z</time>
      </trkpt>
      <trkpt lat="43.70229" lon="5.81019">
        <ele>317.108</ele>
        <time>2020-09-02T17:43:19Z</time>
      </trkpt>
      <trkpt lat="43.70229" lon="5.8103">
        <ele>317.869</ele>
        <time>2020-09-02T17:43:21Z</time>
      </trkpt>
      <trkpt lat="43.70229" lon="5.81041">
        <ele>317.358</ele>
        <time>2020-09-02T17:43:23Z</time>
      </trkpt>
      <trkpt lat="43.70228" lon="5.81047">
        <ele>317.118</ele>
        <time>2020-09-02T17:43:24Z</time>
      </trkpt>
      <trkpt lat="43.70227" lon="5.81054">
        <ele>316.955</ele>
        <time>2020-09-02T17:43:25Z</time>
      </trkpt>
      <trkpt lat="43.70225" lon="5.81061">
        <ele>316.856</ele>
        <time>2020-09-02T17:43:26Z</time>
      </trkpt>
      <trkpt lat="43.70225" lon="5.81067">
        <ele>316.194</ele>
        <time>2020-09-02T17:43:27Z</time>
      </trkpt>
      <trkpt lat="43.70224" lon="5.81078">
        <ele>318.03</ele>
        <time>2020-09-02T17:43:29Z</time>
      </trkpt>
      <trkpt lat="43.70221" lon="5.8109">
        <ele>318.493</ele>
        <time>2020-09-02T17:43:31Z</time>
      </trkpt>
      <trkpt lat="43.70219" lon="5.81097">
        <ele>318.633</ele>
        <time>2020-09-02T17:43:32Z</time>
      </trkpt>
      <trkpt lat="43.70218" lon="5.81103">
        <ele>319.223</ele>
        <time>2020-09-02T17:43:33Z</time>
      </trkpt>
      <trkpt lat="43.70215" lon="5.81113">
        <ele>320.215</ele>
        <time>2020-09-02T17:43:35Z</time>
      </trkpt>
      <trkpt lat="43.70212" lon="5.81119">
        <ele>320.208</ele>
        <time>2020-09-02T17:43:36Z</time>
      </trkpt>
      <trkpt lat="43.70206" lon="5.81128">
        <ele>318.751</ele>
        <time>2020-09-02T17:43:38Z</time>
      </trkpt>
      <trkpt lat="43.70202" lon="5.81134">
        <ele>318.18</ele>
        <time>2020-09-02T17:43:40Z</time>
      </trkpt>
      <trkpt lat="43.70198" lon="5.81138">
        <ele>316.58</ele>
        <time>2020-09-02T17:43:41Z</time>
      </trkpt>
      <trkpt lat="43.70193" lon="5.81144">
        <ele>318.057</ele>
        <time>2020-09-02T17:43:43Z</time>
      </trkpt>
      <trkpt lat="43.70188" lon="5.81153">
        <ele>321.318</ele>
        <time>2020-09-02T17:43:46Z</time>
      </trkpt>
      <trkpt lat="43.70184" lon="5.81162">
        <ele>322.886</ele>
        <time>2020-09-02T17:43:48Z</time>
      </trkpt>
      <trkpt lat="43.70181" lon="5.81171">
        <ele>323.452</ele>
        <time>2020-09-02T17:43:50Z</time>
      </trkpt>
      <trkpt lat="43.70179" lon="5.8118">
        <ele>323.875</ele>
        <time>2020-09-02T17:43:52Z</time>
      </trkpt>
      <trkpt lat="43.70178" lon="5.81186">
        <ele>323.942</ele>
        <time>2020-09-02T17:43:53Z</time>
      </trkpt>
      <trkpt lat="43.70177" lon="5.81193">
        <ele>323.922</ele>
        <time>2020-09-02T17:43:54Z</time>
      </trkpt>
      <trkpt lat="43.70176" lon="5.812">
        <ele>323.614</ele>
        <time>2020-09-02T17:43:55Z</time>
      </trkpt>
      <trkpt lat="43.70175" lon="5.81209">
        <ele>323.108</ele>
        <time>2020-09-02T17:43:56Z</time>
      </trkpt>
      <trkpt lat="43.70173" lon="5.81216">
        <ele>322.432</ele>
        <time>2020-09-02T17:43:57Z</time>
      </trkpt>
      <trkpt lat="43.70173" lon="5.81224">
        <ele>322.481</ele>
        <time>2020-09-02T17:43:58Z</time>
      </trkpt>
      <trkpt lat="43.70171" lon="5.81232">
        <ele>322.031</ele>
        <time>2020-09-02T17:43:59Z</time>
      </trkpt>
      <trkpt lat="43.7017" lon="5.8124">
        <ele>322.038</ele>
        <time>2020-09-02T17:44:00Z</time>
      </trkpt>
      <trkpt lat="43.70169" lon="5.81247">
        <ele>322.329</ele>
        <time>2020-09-02T17:44:01Z</time>
      </trkpt>
      <trkpt lat="43.70171" lon="5.81258">
        <ele>322.637</ele>
        <time>2020-09-02T17:44:03Z</time>
      </trkpt>
      <trkpt lat="43.70172" lon="5.81266">
        <ele>322.713</ele>
        <time>2020-09-02T17:44:04Z</time>
      </trkpt>
      <trkpt lat="43.70174" lon="5.81273">
        <ele>322.456</ele>
        <time>2020-09-02T17:44:05Z</time>
      </trkpt>
      <trkpt lat="43.70176" lon="5.8128">
        <ele>322.256</ele>
        <time>2020-09-02T17:44:06Z</time>
      </trkpt>
      <trkpt lat="43.70179" lon="5.81287">
        <ele>323.559</ele>
        <time>2020-09-02T17:44:07Z</time>
      </trkpt>
      <trkpt lat="43.70182" lon="5.81293">
        <ele>323.814</ele>
        <time>2020-09-02T17:44:08Z</time>
      </trkpt>
      <trkpt lat="43.70185" lon="5.81299">
        <ele>324.008</ele>
        <time>2020-09-02T17:44:09Z</time>
      </trkpt>
      <trkpt lat="43.70188" lon="5.81305">
        <ele>324.453</ele>
        <time>2020-09-02T17:44:10Z</time>
      </trkpt>
      <trkpt lat="43.70195" lon="5.81313">
        <ele>324.152</ele>
        <time>2020-09-02T17:44:12Z</time>
      </trkpt>
      <trkpt lat="43.70199" lon="5.81318">
        <ele>324.442</ele>
        <time>2020-09-02T17:44:13Z</time>
      </trkpt>
      <trkpt lat="43.70203" lon="5.81323">
        <ele>324.029</ele>
        <time>2020-09-02T17:44:14Z</time>
      </trkpt>
      <trkpt lat="43.70209" lon="5.81328">
        <ele>324.52</ele>
        <time>2020-09-02T17:44:15Z</time>
      </trkpt>
      <trkpt lat="43.70214" lon="5.81332">
        <ele>325.238</ele>
        <time>2020-09-02T17:44:16Z</time>
      </trkpt>
      <trkpt lat="43.70219" lon="5.81334">
        <ele>325.284</ele>
        <time>2020-09-02T17:44:17Z</time>
      </trkpt>
      <trkpt lat="43.70223" lon="5.81342">
        <ele>324.737</ele>
        <time>2020-09-02T17:44:19Z</time>
      </trkpt>
      <trkpt lat="43.70227" lon="5.81346">
        <ele>324.893</ele>
        <time>2020-09-02T17:44:20Z</time>
      </trkpt>
      <trkpt lat="43.70233" lon="5.81351">
        <ele>324.665</ele>
        <time>2020-09-02T17:44:22Z</time>
      </trkpt>
      <trkpt lat="43.7024" lon="5.81358">
        <ele>325.721</ele>
        <time>2020-09-02T17:44:24Z</time>
      </trkpt>
      <trkpt lat="43.70245" lon="5.81364">
        <ele>327.208</ele>
        <time>2020-09-02T17:44:26Z</time>
      </trkpt>
      <trkpt lat="43.70251" lon="5.8137">
        <ele>326.357</ele>
        <time>2020-09-02T17:44:28Z</time>
      </trkpt>
      <trkpt lat="43.70255" lon="5.81374">
        <ele>325.856</ele>
        <time>2020-09-02T17:44:30Z</time>
      </trkpt>
      <trkpt lat="43.70257" lon="5.81384">
        <ele>326.486</ele>
        <time>2020-09-02T17:44:34Z</time>
      </trkpt>
      <trkpt lat="43.70254" lon="5.81394">
        <ele>326.793</ele>
        <time>2020-09-02T17:44:36Z</time>
      </trkpt>
      <trkpt lat="43.70251" lon="5.81404">
        <ele>327.124</ele>
        <time>2020-09-02T17:44:38Z</time>
      </trkpt>
      <trkpt lat="43.70248" lon="5.81413">
        <ele>327.822</ele>
        <time>2020-09-02T17:44:40Z</time>
      </trkpt>
      <trkpt lat="43.70244" lon="5.81422">
        <ele>328.238</ele>
        <time>2020-09-02T17:44:42Z</time>
      </trkpt>
      <trkpt lat="43.70241" lon="5.8143">
        <ele>328.481</ele>
        <time>2020-09-02T17:44:44Z</time>
      </trkpt>
      <trkpt lat="43.70236" lon="5.81435">
        <ele>329.622</ele>
        <time>2020-09-02T17:44:46Z</time>
      </trkpt>
      <trkpt lat="43.70232" lon="5.81438">
        <ele>330.962</ele>
        <time>2020-09-02T17:44:48Z</time>
      </trkpt>
      <trkpt lat="43.70225" lon="5.81441">
        <ele>331.408</ele>
        <time>2020-09-02T17:44:50Z</time>
      </trkpt>
      <trkpt lat="43.7022" lon="5.81444">
        <ele>331.908</ele>
        <time>2020-09-02T17:44:52Z</time>
      </trkpt>
      <trkpt lat="43.70216" lon="5.81448">
        <ele>334.13</ele>
        <time>2020-09-02T17:45:00Z</time>
      </trkpt>
      <trkpt lat="43.70211" lon="5.81456">
        <ele>335.289</ele>
        <time>2020-09-02T17:45:02Z</time>
      </trkpt>
      <trkpt lat="43.70207" lon="5.81465">
        <ele>336.729</ele>
        <time>2020-09-02T17:45:04Z</time>
      </trkpt>
      <trkpt lat="43.70203" lon="5.8147">
        <ele>336.666</ele>
        <time>2020-09-02T17:45:05Z</time>
      </trkpt>
      <trkpt lat="43.70195" lon="5.81474">
        <ele>338.277</ele>
        <time>2020-09-02T17:45:07Z</time>
      </trkpt>
      <trkpt lat="43.70189" lon="5.81475">
        <ele>339.235</ele>
        <time>2020-09-02T17:45:08Z</time>
      </trkpt>
      <trkpt lat="43.70184" lon="5.81478">
        <ele>340.381</ele>
        <time>2020-09-02T17:45:09Z</time>
      </trkpt>
      <trkpt lat="43.7018" lon="5.81478">
        <ele>340.384</ele>
        <time>2020-09-02T17:45:10Z</time>
      </trkpt>
      <trkpt lat="43.70169" lon="5.81484">
        <ele>340.273</ele>
        <time>2020-09-02T17:45:12Z</time>
      </trkpt>
      <trkpt lat="43.70164" lon="5.81487">
        <ele>340.985</ele>
        <time>2020-09-02T17:45:13Z</time>
      </trkpt>
      <trkpt lat="43.70159" lon="5.81489">
        <ele>341.913</ele>
        <time>2020-09-02T17:45:14Z</time>
      </trkpt>
      <trkpt lat="43.70152" lon="5.81493">
        <ele>342.308</ele>
        <time>2020-09-02T17:45:16Z</time>
      </trkpt>
      <trkpt lat="43.70147" lon="5.81498">
        <ele>343.095</ele>
        <time>2020-09-02T17:45:18Z</time>
      </trkpt>
      <trkpt lat="43.70143" lon="5.815">
        <ele>343.274</ele>
        <time>2020-09-02T17:45:19Z</time>
      </trkpt>
      <trkpt lat="43.70135" lon="5.81507">
        <ele>343.544</ele>
        <time>2020-09-02T17:45:21Z</time>
      </trkpt>
      <trkpt lat="43.70129" lon="5.81515">
        <ele>344.361</ele>
        <time>2020-09-02T17:45:22Z</time>
      </trkpt>
      <trkpt lat="43.70122" lon="5.81521">
        <ele>344.122</ele>
        <time>2020-09-02T17:45:24Z</time>
      </trkpt>
      <trkpt lat="43.70118" lon="5.81524">
        <ele>343.96</ele>
        <time>2020-09-02T17:45:25Z</time>
      </trkpt>
      <trkpt lat="43.70114" lon="5.8153">
        <ele>344.756</ele>
        <time>2020-09-02T17:45:26Z</time>
      </trkpt>
      <trkpt lat="43.70112" lon="5.81537">
        <ele>344.399</ele>
        <time>2020-09-02T17:45:27Z</time>
      </trkpt>
      <trkpt lat="43.7011" lon="5.81544">
        <ele>344.437</ele>
        <time>2020-09-02T17:45:28Z</time>
      </trkpt>
      <trkpt lat="43.70108" lon="5.81551">
        <ele>344.449</ele>
        <time>2020-09-02T17:45:29Z</time>
      </trkpt>
      <trkpt lat="43.70107" lon="5.81559">
        <ele>344.713</ele>
        <time>2020-09-02T17:45:30Z</time>
      </trkpt>
      <trkpt lat="43.70106" lon="5.81565">
        <ele>344.708</ele>
        <time>2020-09-02T17:45:31Z</time>
      </trkpt>
      <trkpt lat="43.70104" lon="5.81572">
        <ele>344.151</ele>
        <time>2020-09-02T17:45:32Z</time>
      </trkpt>
      <trkpt lat="43.701" lon="5.81578">
        <ele>344.32</ele>
        <time>2020-09-02T17:45:33Z</time>
      </trkpt>
      <trkpt lat="43.70096" lon="5.81583">
        <ele>344.26</ele>
        <time>2020-09-02T17:45:34Z</time>
      </trkpt>
      <trkpt lat="43.70091" lon="5.81589">
        <ele>344.567</ele>
        <time>2020-09-02T17:45:35Z</time>
      </trkpt>
      <trkpt lat="43.70086" lon="5.81594">
        <ele>345.128</ele>
        <time>2020-09-02T17:45:36Z</time>
      </trkpt>
      <trkpt lat="43.70081" lon="5.81599">
        <ele>345.636</ele>
        <time>2020-09-02T17:45:37Z</time>
      </trkpt>
      <trkpt lat="43.70076" lon="5.81604">
        <ele>346.082</ele>
        <time>2020-09-02T17:45:38Z</time>
      </trkpt>
      <trkpt lat="43.70071" lon="5.81608">
        <ele>346.755</ele>
        <time>2020-09-02T17:45:39Z</time>
      </trkpt>
      <trkpt lat="43.70067" lon="5.81613">
        <ele>346.381</ele>
        <time>2020-09-02T17:45:40Z</time>
      </trkpt>
      <trkpt lat="43.70063" lon="5.81619">
        <ele>347.261</ele>
        <time>2020-09-02T17:45:41Z</time>
      </trkpt>
      <trkpt lat="43.7006" lon="5.8163">
        <ele>348.717</ele>
        <time>2020-09-02T17:45:43Z</time>
      </trkpt>
      <trkpt lat="43.70058" lon="5.81643">
        <ele>349.108</ele>
        <time>2020-09-02T17:45:45Z</time>
      </trkpt>
      <trkpt lat="43.70056" lon="5.81649">
        <ele>349.696</ele>
        <time>2020-09-02T17:45:46Z</time>
      </trkpt>
      <trkpt lat="43.70053" lon="5.81656">
        <ele>349.945</ele>
        <time>2020-09-02T17:45:48Z</time>
      </trkpt>
      <trkpt lat="43.70045" lon="5.81653">
        <ele>350.855</ele>
        <time>2020-09-02T17:45:50Z</time>
      </trkpt>
      <trkpt lat="43.7004" lon="5.81651">
        <ele>351.462</ele>
        <time>2020-09-02T17:45:51Z</time>
      </trkpt>
      <trkpt lat="43.70032" lon="5.81645">
        <ele>353.043</ele>
        <time>2020-09-02T17:45:53Z</time>
      </trkpt>
      <trkpt lat="43.7003" lon="5.81632">
        <ele>354.311</ele>
        <time>2020-09-02T17:45:55Z</time>
      </trkpt>
      <trkpt lat="43.7003" lon="5.81626">
        <ele>354.827</ele>
        <time>2020-09-02T17:45:56Z</time>
      </trkpt>
      <trkpt lat="43.70028" lon="5.81615">
        <ele>356.04</ele>
        <time>2020-09-02T17:45:58Z</time>
      </trkpt>
      <trkpt lat="43.70026" lon="5.81608">
        <ele>357.591</ele>
        <time>2020-09-02T17:46:01Z</time>
      </trkpt>
      <trkpt lat="43.70023" lon="5.81614">
        <ele>357.381</ele>
        <time>2020-09-02T17:46:03Z</time>
      </trkpt>
      <trkpt lat="43.70019" lon="5.81619">
        <ele>357.619</ele>
        <time>2020-09-02T17:46:04Z</time>
      </trkpt>
      <trkpt lat="43.70015" lon="5.81623">
        <ele>357.908</ele>
        <time>2020-09-02T17:46:05Z</time>
      </trkpt>
      <trkpt lat="43.70011" lon="5.81627">
        <ele>358.787</ele>
        <time>2020-09-02T17:46:06Z</time>
      </trkpt>
      <trkpt lat="43.70006" lon="5.8163">
        <ele>358.666</ele>
        <time>2020-09-02T17:46:07Z</time>
      </trkpt>
      <trkpt lat="43.70001" lon="5.81634">
        <ele>358.866</ele>
        <time>2020-09-02T17:46:08Z</time>
      </trkpt>
      <trkpt lat="43.69998" lon="5.81639">
        <ele>359.143</ele>
        <time>2020-09-02T17:46:09Z</time>
      </trkpt>
      <trkpt lat="43.6999" lon="5.81645">
        <ele>358.824</ele>
        <time>2020-09-02T17:46:10Z</time>
      </trkpt>
      <trkpt lat="43.69984" lon="5.81651">
        <ele>358.822</ele>
        <time>2020-09-02T17:46:11Z</time>
      </trkpt>
      <trkpt lat="43.69979" lon="5.81656">
        <ele>358.878</ele>
        <time>2020-09-02T17:46:12Z</time>
      </trkpt>
      <trkpt lat="43.69975" lon="5.81661">
        <ele>358.521</ele>
        <time>2020-09-02T17:46:13Z</time>
      </trkpt>
      <trkpt lat="43.69969" lon="5.81667">
        <ele>357.617</ele>
        <time>2020-09-02T17:46:14Z</time>
      </trkpt>
      <trkpt lat="43.69961" lon="5.81675">
        <ele>355.787</ele>
        <time>2020-09-02T17:46:16Z</time>
      </trkpt>
      <trkpt lat="43.69956" lon="5.8168">
        <ele>355.815</ele>
        <time>2020-09-02T17:46:17Z</time>
      </trkpt>
      <trkpt lat="43.69952" lon="5.81684">
        <ele>356.108</ele>
        <time>2020-09-02T17:46:18Z</time>
      </trkpt>
      <trkpt lat="43.69948" lon="5.81689">
        <ele>355.689</ele>
        <time>2020-09-02T17:46:19Z</time>
      </trkpt>
      <trkpt lat="43.69946" lon="5.81696">
        <ele>355.018</ele>
        <time>2020-09-02T17:46:20Z</time>
      </trkpt>
      <trkpt lat="43.69942" lon="5.81703">
        <ele>355.038</ele>
        <time>2020-09-02T17:46:21Z</time>
      </trkpt>
      <trkpt lat="43.69938" lon="5.81714">
        <ele>352.755</ele>
        <time>2020-09-02T17:46:22Z</time>
      </trkpt>
      <trkpt lat="43.69933" lon="5.81724">
        <ele>352.486</ele>
        <time>2020-09-02T17:46:23Z</time>
      </trkpt>
      <trkpt lat="43.69928" lon="5.81734">
        <ele>352.674</ele>
        <time>2020-09-02T17:46:24Z</time>
      </trkpt>
      <trkpt lat="43.69923" lon="5.81744">
        <ele>352.96</ele>
        <time>2020-09-02T17:46:25Z</time>
      </trkpt>
      <trkpt lat="43.69919" lon="5.81754">
        <ele>353.623</ele>
        <time>2020-09-02T17:46:26Z</time>
      </trkpt>
      <trkpt lat="43.69914" lon="5.81762">
        <ele>354.095</ele>
        <time>2020-09-02T17:46:27Z</time>
      </trkpt>
      <trkpt lat="43.69911" lon="5.81771">
        <ele>353.549</ele>
        <time>2020-09-02T17:46:28Z</time>
      </trkpt>
      <trkpt lat="43.69907" lon="5.81778">
        <ele>354.723</ele>
        <time>2020-09-02T17:46:29Z</time>
      </trkpt>
      <trkpt lat="43.69901" lon="5.81787">
        <ele>354.108</ele>
        <time>2020-09-02T17:46:30Z</time>
      </trkpt>
      <trkpt lat="43.69896" lon="5.81795">
        <ele>354.397</ele>
        <time>2020-09-02T17:46:31Z</time>
      </trkpt>
      <trkpt lat="43.69891" lon="5.81802">
        <ele>353.796</ele>
        <time>2020-09-02T17:46:32Z</time>
      </trkpt>
      <trkpt lat="43.69887" lon="5.81809">
        <ele>354.366</ele>
        <time>2020-09-02T17:46:33Z</time>
      </trkpt>
      <trkpt lat="43.69886" lon="5.81816">
        <ele>354.863</ele>
        <time>2020-09-02T17:46:34Z</time>
      </trkpt>
      <trkpt lat="43.69884" lon="5.81826">
        <ele>354.724</ele>
        <time>2020-09-02T17:46:35Z</time>
      </trkpt>
      <trkpt lat="43.69883" lon="5.81837">
        <ele>354.242</ele>
        <time>2020-09-02T17:46:36Z</time>
      </trkpt>
      <trkpt lat="43.69881" lon="5.81846">
        <ele>355.348</ele>
        <time>2020-09-02T17:46:37Z</time>
      </trkpt>
      <trkpt lat="43.69881" lon="5.81857">
        <ele>355.921</ele>
        <time>2020-09-02T17:46:38Z</time>
      </trkpt>
      <trkpt lat="43.69879" lon="5.81867">
        <ele>356.372</ele>
        <time>2020-09-02T17:46:39Z</time>
      </trkpt>
      <trkpt lat="43.69878" lon="5.81877">
        <ele>357.213</ele>
        <time>2020-09-02T17:46:40Z</time>
      </trkpt>
      <trkpt lat="43.69875" lon="5.81887">
        <ele>357.414</ele>
        <time>2020-09-02T17:46:41Z</time>
      </trkpt>
      <trkpt lat="43.69872" lon="5.81896">
        <ele>357.008</ele>
        <time>2020-09-02T17:46:42Z</time>
      </trkpt>
      <trkpt lat="43.69868" lon="5.81906">
        <ele>357.075</ele>
        <time>2020-09-02T17:46:43Z</time>
      </trkpt>
      <trkpt lat="43.69862" lon="5.81915">
        <ele>356.274</ele>
        <time>2020-09-02T17:46:44Z</time>
      </trkpt>
      <trkpt lat="43.69857" lon="5.81923">
        <ele>357.114</ele>
        <time>2020-09-02T17:46:45Z</time>
      </trkpt>
      <trkpt lat="43.69851" lon="5.81931">
        <ele>358.051</ele>
        <time>2020-09-02T17:46:46Z</time>
      </trkpt>
      <trkpt lat="43.69846" lon="5.81937">
        <ele>358.692</ele>
        <time>2020-09-02T17:46:47Z</time>
      </trkpt>
      <trkpt lat="43.69841" lon="5.81946">
        <ele>359.08</ele>
        <time>2020-09-02T17:46:48Z</time>
      </trkpt>
      <trkpt lat="43.69836" lon="5.81953">
        <ele>359.766</ele>
        <time>2020-09-02T17:46:49Z</time>
      </trkpt>
      <trkpt lat="43.69829" lon="5.81961">
        <ele>360.199</ele>
        <time>2020-09-02T17:46:50Z</time>
      </trkpt>
      <trkpt lat="43.69823" lon="5.81968">
        <ele>361.927</ele>
        <time>2020-09-02T17:46:51Z</time>
      </trkpt>
      <trkpt lat="43.69817" lon="5.81973">
        <ele>362.468</ele>
        <time>2020-09-02T17:46:52Z</time>
      </trkpt>
      <trkpt lat="43.69807" lon="5.81979">
        <ele>363.314</ele>
        <time>2020-09-02T17:46:53Z</time>
      </trkpt>
      <trkpt lat="43.698" lon="5.81986">
        <ele>363.608</ele>
        <time>2020-09-02T17:46:54Z</time>
      </trkpt>
      <trkpt lat="43.69795" lon="5.81995">
        <ele>363.37</ele>
        <time>2020-09-02T17:46:55Z</time>
      </trkpt>
      <trkpt lat="43.69789" lon="5.82002">
        <ele>363.279</ele>
        <time>2020-09-02T17:46:56Z</time>
      </trkpt>
      <trkpt lat="43.69783" lon="5.82009">
        <ele>363.519</ele>
        <time>2020-09-02T17:46:57Z</time>
      </trkpt>
      <trkpt lat="43.69777" lon="5.82017">
        <ele>363.996</ele>
        <time>2020-09-02T17:46:58Z</time>
      </trkpt>
      <trkpt lat="43.69774" lon="5.82027">
        <ele>364.017</ele>
        <time>2020-09-02T17:46:59Z</time>
      </trkpt>
      <trkpt lat="43.69771" lon="5.82039">
        <ele>364.895</ele>
        <time>2020-09-02T17:47:00Z</time>
      </trkpt>
      <trkpt lat="43.6977" lon="5.8205">
        <ele>365.581</ele>
        <time>2020-09-02T17:47:01Z</time>
      </trkpt>
      <trkpt lat="43.6977" lon="5.82059">
        <ele>365.754</ele>
        <time>2020-09-02T17:47:02Z</time>
      </trkpt>
      <trkpt lat="43.6977" lon="5.82067">
        <ele>365.815</ele>
        <time>2020-09-02T17:47:03Z</time>
      </trkpt>
      <trkpt lat="43.69768" lon="5.82076">
        <ele>366.565</ele>
        <time>2020-09-02T17:47:04Z</time>
      </trkpt>
      <trkpt lat="43.69767" lon="5.82087">
        <ele>366.611</ele>
        <time>2020-09-02T17:47:05Z</time>
      </trkpt>
      <trkpt lat="43.69764" lon="5.82096">
        <ele>367.008</ele>
        <time>2020-09-02T17:47:06Z</time>
      </trkpt>
      <trkpt lat="43.69757" lon="5.82105">
        <ele>367.069</ele>
        <time>2020-09-02T17:47:07Z</time>
      </trkpt>
      <trkpt lat="43.69752" lon="5.82113">
        <ele>367.528</ele>
        <time>2020-09-02T17:47:08Z</time>
      </trkpt>
      <trkpt lat="43.69745" lon="5.82123">
        <ele>367.268</ele>
        <time>2020-09-02T17:47:09Z</time>
      </trkpt>
      <trkpt lat="43.6974" lon="5.82132">
        <ele>366.885</ele>
        <time>2020-09-02T17:47:10Z</time>
      </trkpt>
      <trkpt lat="43.69738" lon="5.82143">
        <ele>367.216</ele>
        <time>2020-09-02T17:47:11Z</time>
      </trkpt>
      <trkpt lat="43.69736" lon="5.82154">
        <ele>366.924</ele>
        <time>2020-09-02T17:47:12Z</time>
      </trkpt>
      <trkpt lat="43.69735" lon="5.82165">
        <ele>367.15</ele>
        <time>2020-09-02T17:47:13Z</time>
      </trkpt>
      <trkpt lat="43.69733" lon="5.82179">
        <ele>366.553</ele>
        <time>2020-09-02T17:47:14Z</time>
      </trkpt>
      <trkpt lat="43.69731" lon="5.8219">
        <ele>367.287</ele>
        <time>2020-09-02T17:47:15Z</time>
      </trkpt>
      <trkpt lat="43.69728" lon="5.822">
        <ele>368.242</ele>
        <time>2020-09-02T17:47:16Z</time>
      </trkpt>
      <trkpt lat="43.69725" lon="5.82209">
        <ele>368.026</ele>
        <time>2020-09-02T17:47:17Z</time>
      </trkpt>
      <trkpt lat="43.69722" lon="5.82218">
        <ele>368.508</ele>
        <time>2020-09-02T17:47:18Z</time>
      </trkpt>
      <trkpt lat="43.69717" lon="5.82225">
        <ele>368.246</ele>
        <time>2020-09-02T17:47:19Z</time>
      </trkpt>
      <trkpt lat="43.69711" lon="5.82229">
        <ele>368.655</ele>
        <time>2020-09-02T17:47:20Z</time>
      </trkpt>
      <trkpt lat="43.69705" lon="5.82231">
        <ele>369.065</ele>
        <time>2020-09-02T17:47:21Z</time>
      </trkpt>
      <trkpt lat="43.69698" lon="5.82232">
        <ele>369.022</ele>
        <time>2020-09-02T17:47:22Z</time>
      </trkpt>
      <trkpt lat="43.69691" lon="5.82234">
        <ele>369.343</ele>
        <time>2020-09-02T17:47:23Z</time>
      </trkpt>
      <trkpt lat="43.69682" lon="5.82237">
        <ele>370.061</ele>
        <time>2020-09-02T17:47:24Z</time>
      </trkpt>
      <trkpt lat="43.69675" lon="5.82235">
        <ele>370.817</ele>
        <time>2020-09-02T17:47:25Z</time>
      </trkpt>
      <trkpt lat="43.69668" lon="5.82239">
        <ele>371.12</ele>
        <time>2020-09-02T17:47:26Z</time>
      </trkpt>
      <trkpt lat="43.69663" lon="5.82249">
        <ele>371.588</ele>
        <time>2020-09-02T17:47:27Z</time>
      </trkpt>
      <trkpt lat="43.69658" lon="5.82259">
        <ele>371.824</ele>
        <time>2020-09-02T17:47:28Z</time>
      </trkpt>
      <trkpt lat="43.69651" lon="5.8227">
        <ele>371.726</ele>
        <time>2020-09-02T17:47:29Z</time>
      </trkpt>
      <trkpt lat="43.69646" lon="5.8228">
        <ele>371.308</ele>
        <time>2020-09-02T17:47:30Z</time>
      </trkpt>
      <trkpt lat="43.69641" lon="5.82291">
        <ele>371.156</ele>
        <time>2020-09-02T17:47:31Z</time>
      </trkpt>
      <trkpt lat="43.69635" lon="5.82302">
        <ele>371.385</ele>
        <time>2020-09-02T17:47:32Z</time>
      </trkpt>
      <trkpt lat="43.69629" lon="5.82312">
        <ele>371.465</ele>
        <time>2020-09-02T17:47:33Z</time>
      </trkpt>
      <trkpt lat="43.69623" lon="5.82323">
        <ele>371.822</ele>
        <time>2020-09-02T17:47:34Z</time>
      </trkpt>
      <trkpt lat="43.69619" lon="5.82334">
        <ele>372.553</ele>
        <time>2020-09-02T17:47:35Z</time>
      </trkpt>
      <trkpt lat="43.69614" lon="5.82345">
        <ele>372.821</ele>
        <time>2020-09-02T17:47:36Z</time>
      </trkpt>
      <trkpt lat="43.69609" lon="5.82356">
        <ele>373.337</ele>
        <time>2020-09-02T17:47:37Z</time>
      </trkpt>
      <trkpt lat="43.69603" lon="5.82366">
        <ele>374.04</ele>
        <time>2020-09-02T17:47:38Z</time>
      </trkpt>
      <trkpt lat="43.69598" lon="5.82378">
        <ele>374.669</ele>
        <time>2020-09-02T17:47:39Z</time>
      </trkpt>
      <trkpt lat="43.69595" lon="5.82389">
        <ele>375.204</ele>
        <time>2020-09-02T17:47:40Z</time>
      </trkpt>
      <trkpt lat="43.69589" lon="5.82399">
        <ele>376.324</ele>
        <time>2020-09-02T17:47:41Z</time>
      </trkpt>
      <trkpt lat="43.69584" lon="5.82405">
        <ele>376.608</ele>
        <time>2020-09-02T17:47:42Z</time>
      </trkpt>
      <trkpt lat="43.6958" lon="5.82412">
        <ele>377.214</ele>
        <time>2020-09-02T17:47:43Z</time>
      </trkpt>
      <trkpt lat="43.69574" lon="5.8242">
        <ele>377.273</ele>
        <time>2020-09-02T17:47:44Z</time>
      </trkpt>
      <trkpt lat="43.69567" lon="5.82429">
        <ele>377.363</ele>
        <time>2020-09-02T17:47:45Z</time>
      </trkpt>
      <trkpt lat="43.69559" lon="5.82438">
        <ele>377.61</ele>
        <time>2020-09-02T17:47:46Z</time>
      </trkpt>
      <trkpt lat="43.69552" lon="5.82448">
        <ele>377.741</ele>
        <time>2020-09-02T17:47:47Z</time>
      </trkpt>
      <trkpt lat="43.69544" lon="5.82457">
        <ele>377.299</ele>
        <time>2020-09-02T17:47:48Z</time>
      </trkpt>
      <trkpt lat="43.69534" lon="5.82465">
        <ele>376.345</ele>
        <time>2020-09-02T17:47:49Z</time>
      </trkpt>
      <trkpt lat="43.69528" lon="5.82471">
        <ele>375.878</ele>
        <time>2020-09-02T17:47:50Z</time>
      </trkpt>
      <trkpt lat="43.69522" lon="5.82475">
        <ele>375.343</ele>
        <time>2020-09-02T17:47:51Z</time>
      </trkpt>
      <trkpt lat="43.69515" lon="5.82479">
        <ele>374.964</ele>
        <time>2020-09-02T17:47:52Z</time>
      </trkpt>
      <trkpt lat="43.6951" lon="5.82483">
        <ele>374.71</ele>
        <time>2020-09-02T17:47:53Z</time>
      </trkpt>
      <trkpt lat="43.69504" lon="5.82485">
        <ele>374.608</ele>
        <time>2020-09-02T17:47:54Z</time>
      </trkpt>
      <trkpt lat="43.69497" lon="5.82486">
        <ele>373.752</ele>
        <time>2020-09-02T17:47:55Z</time>
      </trkpt>
      <trkpt lat="43.6949" lon="5.82488">
        <ele>373.021</ele>
        <time>2020-09-02T17:47:56Z</time>
      </trkpt>
      <trkpt lat="43.69482" lon="5.82489">
        <ele>372.751</ele>
        <time>2020-09-02T17:47:57Z</time>
      </trkpt>
      <trkpt lat="43.69472" lon="5.82492">
        <ele>372.568</ele>
        <time>2020-09-02T17:47:58Z</time>
      </trkpt>
      <trkpt lat="43.69462" lon="5.82494">
        <ele>372.159</ele>
        <time>2020-09-02T17:47:59Z</time>
      </trkpt>
      <trkpt lat="43.69451" lon="5.82497">
        <ele>371.527</ele>
        <time>2020-09-02T17:48:00Z</time>
      </trkpt>
      <trkpt lat="43.69442" lon="5.82499">
        <ele>370.973</ele>
        <time>2020-09-02T17:48:01Z</time>
      </trkpt>
      <trkpt lat="43.69432" lon="5.82505">
        <ele>370.466</ele>
        <time>2020-09-02T17:48:02Z</time>
      </trkpt>
      <trkpt lat="43.69424" lon="5.82508">
        <ele>370.918</ele>
        <time>2020-09-02T17:48:03Z</time>
      </trkpt>
      <trkpt lat="43.69416" lon="5.8251">
        <ele>370.698</ele>
        <time>2020-09-02T17:48:04Z</time>
      </trkpt>
      <trkpt lat="43.69408" lon="5.82513">
        <ele>370.517</ele>
        <time>2020-09-02T17:48:05Z</time>
      </trkpt>
      <trkpt lat="43.69401" lon="5.82517">
        <ele>370.408</ele>
        <time>2020-09-02T17:48:06Z</time>
      </trkpt>
      <trkpt lat="43.69396" lon="5.82513">
        <ele>371.079</ele>
        <time>2020-09-02T17:48:08Z</time>
      </trkpt>
      <trkpt lat="43.69389" lon="5.82513">
        <ele>370.868</ele>
        <time>2020-09-02T17:48:10Z</time>
      </trkpt>
      <trkpt lat="43.69386" lon="5.82508">
        <ele>374.668</ele>
        <time>2020-09-02T17:50:53Z</time>
      </trkpt>
      <trkpt lat="43.69381" lon="5.82506">
        <ele>374.475</ele>
        <time>2020-09-02T17:50:56Z</time>
      </trkpt>
      <trkpt lat="43.69373" lon="5.82504">
        <ele>375.156</ele>
        <time>2020-09-02T17:50:57Z</time>
      </trkpt>
      <trkpt lat="43.69368" lon="5.82502">
        <ele>375.634</ele>
        <time>2020-09-02T17:50:58Z</time>
      </trkpt>
      <trkpt lat="43.69361" lon="5.82499">
        <ele>376.26</ele>
        <time>2020-09-02T17:50:59Z</time>
      </trkpt>
      <trkpt lat="43.69355" lon="5.82495">
        <ele>376.243</ele>
        <time>2020-09-02T17:51:00Z</time>
      </trkpt>
      <trkpt lat="43.69348" lon="5.82494">
        <ele>376.696</ele>
        <time>2020-09-02T17:51:01Z</time>
      </trkpt>
      <trkpt lat="43.69343" lon="5.82492">
        <ele>376.631</ele>
        <time>2020-09-02T17:51:02Z</time>
      </trkpt>
      <trkpt lat="43.69337" lon="5.82489">
        <ele>376.724</ele>
        <time>2020-09-02T17:51:03Z</time>
      </trkpt>
      <trkpt lat="43.69331" lon="5.82486">
        <ele>376.808</ele>
        <time>2020-09-02T17:51:04Z</time>
      </trkpt>
      <trkpt lat="43.69325" lon="5.82485">
        <ele>377.217</ele>
        <time>2020-09-02T17:51:05Z</time>
      </trkpt>
      <trkpt lat="43.69319" lon="5.82483">
        <ele>377.566</ele>
        <time>2020-09-02T17:51:06Z</time>
      </trkpt>
      <trkpt lat="43.69313" lon="5.82478">
        <ele>377.686</ele>
        <time>2020-09-02T17:51:07Z</time>
      </trkpt>
      <trkpt lat="43.69307" lon="5.82472">
        <ele>378.013</ele>
        <time>2020-09-02T17:51:08Z</time>
      </trkpt>
      <trkpt lat="43.69301" lon="5.82466">
        <ele>378.544</ele>
        <time>2020-09-02T17:51:09Z</time>
      </trkpt>
      <trkpt lat="43.69295" lon="5.8246">
        <ele>379.032</ele>
        <time>2020-09-02T17:51:10Z</time>
      </trkpt>
      <trkpt lat="43.69287" lon="5.82454">
        <ele>379.818</ele>
        <time>2020-09-02T17:51:11Z</time>
      </trkpt>
      <trkpt lat="43.69281" lon="5.82446">
        <ele>380.011</ele>
        <time>2020-09-02T17:51:12Z</time>
      </trkpt>
      <trkpt lat="43.69274" lon="5.82439">
        <ele>381.362</ele>
        <time>2020-09-02T17:51:13Z</time>
      </trkpt>
      <trkpt lat="43.69267" lon="5.82433">
        <ele>382.083</ele>
        <time>2020-09-02T17:51:14Z</time>
      </trkpt>
      <trkpt lat="43.6926" lon="5.82426">
        <ele>382.211</ele>
        <time>2020-09-02T17:51:15Z</time>
      </trkpt>
      <trkpt lat="43.69253" lon="5.8242">
        <ele>382.608</ele>
        <time>2020-09-02T17:51:16Z</time>
      </trkpt>
      <trkpt lat="43.69246" lon="5.82415">
        <ele>384.054</ele>
        <time>2020-09-02T17:51:17Z</time>
      </trkpt>
      <trkpt lat="43.69239" lon="5.82409">
        <ele>384.263</ele>
        <time>2020-09-02T17:51:18Z</time>
      </trkpt>
      <trkpt lat="43.69233" lon="5.82404">
        <ele>384.283</ele>
        <time>2020-09-02T17:51:19Z</time>
      </trkpt>
      <trkpt lat="43.69228" lon="5.82398">
        <ele>384.83</ele>
        <time>2020-09-02T17:51:20Z</time>
      </trkpt>
      <trkpt lat="43.69224" lon="5.82391">
        <ele>384.951</ele>
        <time>2020-09-02T17:51:21Z</time>
      </trkpt>
      <trkpt lat="43.69221" lon="5.82382">
        <ele>384.429</ele>
        <time>2020-09-02T17:51:22Z</time>
      </trkpt>
      <trkpt lat="43.69219" lon="5.82374">
        <ele>384.695</ele>
        <time>2020-09-02T17:51:23Z</time>
      </trkpt>
      <trkpt lat="43.69218" lon="5.82366">
        <ele>386.438</ele>
        <time>2020-09-02T17:51:24Z</time>
      </trkpt>
      <trkpt lat="43.69218" lon="5.82355">
        <ele>387.616</ele>
        <time>2020-09-02T17:51:25Z</time>
      </trkpt>
      <trkpt lat="43.69217" lon="5.82346">
        <ele>388.376</ele>
        <time>2020-09-02T17:51:26Z</time>
      </trkpt>
      <trkpt lat="43.69216" lon="5.82338">
        <ele>389.113</ele>
        <time>2020-09-02T17:51:27Z</time>
      </trkpt>
      <trkpt lat="43.69212" lon="5.82332">
        <ele>389.808</ele>
        <time>2020-09-02T17:51:28Z</time>
      </trkpt>
      <trkpt lat="43.69206" lon="5.82329">
        <ele>389.879</ele>
        <time>2020-09-02T17:51:29Z</time>
      </trkpt>
      <trkpt lat="43.692" lon="5.82325">
        <ele>389.688</ele>
        <time>2020-09-02T17:51:30Z</time>
      </trkpt>
      <trkpt lat="43.69191" lon="5.82323">
        <ele>390.188</ele>
        <time>2020-09-02T17:51:31Z</time>
      </trkpt>
      <trkpt lat="43.69183" lon="5.8232">
        <ele>390.515</ele>
        <time>2020-09-02T17:51:32Z</time>
      </trkpt>
      <trkpt lat="43.69176" lon="5.82316">
        <ele>390.896</ele>
        <time>2020-09-02T17:51:33Z</time>
      </trkpt>
      <trkpt lat="43.69169" lon="5.82312">
        <ele>391.344</ele>
        <time>2020-09-02T17:51:34Z</time>
      </trkpt>
      <trkpt lat="43.69166" lon="5.82304">
        <ele>391.85</ele>
        <time>2020-09-02T17:51:35Z</time>
      </trkpt>
      <trkpt lat="43.69161" lon="5.82297">
        <ele>393.153</ele>
        <time>2020-09-02T17:51:36Z</time>
      </trkpt>
      <trkpt lat="43.69156" lon="5.82291">
        <ele>392.542</ele>
        <time>2020-09-02T17:51:37Z</time>
      </trkpt>
      <trkpt lat="43.69151" lon="5.82286">
        <ele>393.222</ele>
        <time>2020-09-02T17:51:38Z</time>
      </trkpt>
      <trkpt lat="43.69144" lon="5.82281">
        <ele>393.514</ele>
        <time>2020-09-02T17:51:39Z</time>
      </trkpt>
      <trkpt lat="43.69138" lon="5.82277">
        <ele>393.608</ele>
        <time>2020-09-02T17:51:40Z</time>
      </trkpt>
      <trkpt lat="43.69131" lon="5.82274">
        <ele>394.072</ele>
        <time>2020-09-02T17:51:41Z</time>
      </trkpt>
      <trkpt lat="43.69125" lon="5.8227">
        <ele>394.591</ele>
        <time>2020-09-02T17:51:42Z</time>
      </trkpt>
      <trkpt lat="43.69119" lon="5.8227">
        <ele>394.651</ele>
        <time>2020-09-02T17:51:43Z</time>
      </trkpt>
      <trkpt lat="43.69113" lon="5.82272">
        <ele>394.658</ele>
        <time>2020-09-02T17:51:44Z</time>
      </trkpt>
      <trkpt lat="43.69107" lon="5.82274">
        <ele>394.689</ele>
        <time>2020-09-02T17:51:45Z</time>
      </trkpt>
      <trkpt lat="43.69099" lon="5.82277">
        <ele>394.947</ele>
        <time>2020-09-02T17:51:46Z</time>
      </trkpt>
      <trkpt lat="43.69091" lon="5.82279">
        <ele>395.133</ele>
        <time>2020-09-02T17:51:47Z</time>
      </trkpt>
      <trkpt lat="43.69083" lon="5.8228">
        <ele>395.596</ele>
        <time>2020-09-02T17:51:48Z</time>
      </trkpt>
      <trkpt lat="43.69075" lon="5.8228">
        <ele>396.131</ele>
        <time>2020-09-02T17:51:49Z</time>
      </trkpt>
      <trkpt lat="43.69067" lon="5.82281">
        <ele>396.361</ele>
        <time>2020-09-02T17:51:50Z</time>
      </trkpt>
      <trkpt lat="43.69062" lon="5.82285">
        <ele>396.907</ele>
        <time>2020-09-02T17:51:51Z</time>
      </trkpt>
      <trkpt lat="43.69058" lon="5.82287">
        <ele>397.708</ele>
        <time>2020-09-02T17:51:52Z</time>
      </trkpt>
      <trkpt lat="43.6905" lon="5.82281">
        <ele>400.551</ele>
        <time>2020-09-02T17:52:01Z</time>
      </trkpt>
      <trkpt lat="43.69045" lon="5.82276">
        <ele>401.66</ele>
        <time>2020-09-02T17:52:02Z</time>
      </trkpt>
      <trkpt lat="43.69041" lon="5.8227">
        <ele>402.28</ele>
        <time>2020-09-02T17:52:03Z</time>
      </trkpt>
      <trkpt lat="43.69037" lon="5.82265">
        <ele>402.447</ele>
        <time>2020-09-02T17:52:04Z</time>
      </trkpt>
      <trkpt lat="43.69033" lon="5.8226">
        <ele>402.628</ele>
        <time>2020-09-02T17:52:05Z</time>
      </trkpt>
      <trkpt lat="43.69028" lon="5.82256">
        <ele>402.826</ele>
        <time>2020-09-02T17:52:06Z</time>
      </trkpt>
      <trkpt lat="43.69024" lon="5.82252">
        <ele>403.422</ele>
        <time>2020-09-02T17:52:07Z</time>
      </trkpt>
      <trkpt lat="43.69022" lon="5.82246">
        <ele>404.045</ele>
        <time>2020-09-02T17:52:08Z</time>
      </trkpt>
      <trkpt lat="43.69021" lon="5.82239">
        <ele>404.899</ele>
        <time>2020-09-02T17:52:09Z</time>
      </trkpt>
      <trkpt lat="43.69022" lon="5.82232">
        <ele>405.207</ele>
        <time>2020-09-02T17:52:10Z</time>
      </trkpt>
      <trkpt lat="43.69023" lon="5.82223">
        <ele>405.427</ele>
        <time>2020-09-02T17:52:11Z</time>
      </trkpt>
      <trkpt lat="43.69022" lon="5.82213">
        <ele>405.908</ele>
        <time>2020-09-02T17:52:12Z</time>
      </trkpt>
      <trkpt lat="43.69022" lon="5.82204">
        <ele>406.667</ele>
        <time>2020-09-02T17:52:13Z</time>
      </trkpt>
      <trkpt lat="43.69023" lon="5.82197">
        <ele>406.866</ele>
        <time>2020-09-02T17:52:14Z</time>
      </trkpt>
      <trkpt lat="43.69022" lon="5.82188">
        <ele>407.826</ele>
        <time>2020-09-02T17:52:15Z</time>
      </trkpt>
      <trkpt lat="43.69024" lon="5.8218">
        <ele>408.423</ele>
        <time>2020-09-02T17:52:16Z</time>
      </trkpt>
      <trkpt lat="43.69025" lon="5.82171">
        <ele>409.224</ele>
        <time>2020-09-02T17:52:17Z</time>
      </trkpt>
      <trkpt lat="43.69028" lon="5.82163">
        <ele>409.552</ele>
        <time>2020-09-02T17:52:18Z</time>
      </trkpt>
      <trkpt lat="43.69029" lon="5.82155">
        <ele>411.328</ele>
        <time>2020-09-02T17:52:19Z</time>
      </trkpt>
      <trkpt lat="43.6903" lon="5.82146">
        <ele>411.781</ele>
        <time>2020-09-02T17:52:20Z</time>
      </trkpt>
      <trkpt lat="43.69031" lon="5.82137">
        <ele>411.756</ele>
        <time>2020-09-02T17:52:21Z</time>
      </trkpt>
      <trkpt lat="43.69032" lon="5.82128">
        <ele>412.359</ele>
        <time>2020-09-02T17:52:22Z</time>
      </trkpt>
      <trkpt lat="43.69033" lon="5.82118">
        <ele>412.614</ele>
        <time>2020-09-02T17:52:23Z</time>
      </trkpt>
      <trkpt lat="43.69035" lon="5.82109">
        <ele>413.908</ele>
        <time>2020-09-02T17:52:24Z</time>
      </trkpt>
      <trkpt lat="43.69035" lon="5.821">
        <ele>415.353</ele>
        <time>2020-09-02T17:52:25Z</time>
      </trkpt>
      <trkpt lat="43.69035" lon="5.82092">
        <ele>415.822</ele>
        <time>2020-09-02T17:52:26Z</time>
      </trkpt>
      <trkpt lat="43.69035" lon="5.82084">
        <ele>416.852</ele>
        <time>2020-09-02T17:52:27Z</time>
      </trkpt>
      <trkpt lat="43.69035" lon="5.82074">
        <ele>417.119</ele>
        <time>2020-09-02T17:52:28Z</time>
      </trkpt>
      <trkpt lat="43.69035" lon="5.82066">
        <ele>417.61</ele>
        <time>2020-09-02T17:52:29Z</time>
      </trkpt>
      <trkpt lat="43.69037" lon="5.82056">
        <ele>418.598</ele>
        <time>2020-09-02T17:52:30Z</time>
      </trkpt>
      <trkpt lat="43.69037" lon="5.82046">
        <ele>420.014</ele>
        <time>2020-09-02T17:52:31Z</time>
      </trkpt>
      <trkpt lat="43.69038" lon="5.82036">
        <ele>421.337</ele>
        <time>2020-09-02T17:52:32Z</time>
      </trkpt>
      <trkpt lat="43.6904" lon="5.82029">
        <ele>422.323</ele>
        <time>2020-09-02T17:52:33Z</time>
      </trkpt>
      <trkpt lat="43.6904" lon="5.82021">
        <ele>423.683</ele>
        <time>2020-09-02T17:52:34Z</time>
      </trkpt>
      <trkpt lat="43.6904" lon="5.82013">
        <ele>424.711</ele>
        <time>2020-09-02T17:52:35Z</time>
      </trkpt>
      <trkpt lat="43.69039" lon="5.82004">
        <ele>425.508</ele>
        <time>2020-09-02T17:52:36Z</time>
      </trkpt>
      <trkpt lat="43.69038" lon="5.81995">
        <ele>426.48</ele>
        <time>2020-09-02T17:52:37Z</time>
      </trkpt>
      <trkpt lat="43.69041" lon="5.81986">
        <ele>426.919</ele>
        <time>2020-09-02T17:52:38Z</time>
      </trkpt>
      <trkpt lat="43.69042" lon="5.81977">
        <ele>428.289</ele>
        <time>2020-09-02T17:52:39Z</time>
      </trkpt>
      <trkpt lat="43.69043" lon="5.81969">
        <ele>429.396</ele>
        <time>2020-09-02T17:52:40Z</time>
      </trkpt>
      <trkpt lat="43.69045" lon="5.81959">
        <ele>429.737</ele>
        <time>2020-09-02T17:52:41Z</time>
      </trkpt>
      <trkpt lat="43.69045" lon="5.81951">
        <ele>430.945</ele>
        <time>2020-09-02T17:52:42Z</time>
      </trkpt>
      <trkpt lat="43.69045" lon="5.81944">
        <ele>431.671</ele>
        <time>2020-09-02T17:52:43Z</time>
      </trkpt>
      <trkpt lat="43.69042" lon="5.81935">
        <ele>432.084</ele>
        <time>2020-09-02T17:52:44Z</time>
      </trkpt>
      <trkpt lat="43.6904" lon="5.81926">
        <ele>432.848</ele>
        <time>2020-09-02T17:52:45Z</time>
      </trkpt>
      <trkpt lat="43.69038" lon="5.81917">
        <ele>433.361</ele>
        <time>2020-09-02T17:52:46Z</time>
      </trkpt>
      <trkpt lat="43.69037" lon="5.81908">
        <ele>433.417</ele>
        <time>2020-09-02T17:52:47Z</time>
      </trkpt>
      <trkpt lat="43.69039" lon="5.81896">
        <ele>433.808</ele>
        <time>2020-09-02T17:52:48Z</time>
      </trkpt>
      <trkpt lat="43.69039" lon="5.81886">
        <ele>433.972</ele>
        <time>2020-09-02T17:52:49Z</time>
      </trkpt>
      <trkpt lat="43.69036" lon="5.8188">
        <ele>433.831</ele>
        <time>2020-09-02T17:52:50Z</time>
      </trkpt>
      <trkpt lat="43.69033" lon="5.81873">
        <ele>433.581</ele>
        <time>2020-09-02T17:52:51Z</time>
      </trkpt>
      <trkpt lat="43.69028" lon="5.81866">
        <ele>433.668</ele>
        <time>2020-09-02T17:52:52Z</time>
      </trkpt>
      <trkpt lat="43.69025" lon="5.81859">
        <ele>433.599</ele>
        <time>2020-09-02T17:52:53Z</time>
      </trkpt>
      <trkpt lat="43.69023" lon="5.81851">
        <ele>433.317</ele>
        <time>2020-09-02T17:52:54Z</time>
      </trkpt>
      <trkpt lat="43.69023" lon="5.81843">
        <ele>432.993</ele>
        <time>2020-09-02T17:52:55Z</time>
      </trkpt>
      <trkpt lat="43.69025" lon="5.81835">
        <ele>432.876</ele>
        <time>2020-09-02T17:52:56Z</time>
      </trkpt>
      <trkpt lat="43.69027" lon="5.81828">
        <ele>432.211</ele>
        <time>2020-09-02T17:52:57Z</time>
      </trkpt>
      <trkpt lat="43.69029" lon="5.81822">
        <ele>431.621</ele>
        <time>2020-09-02T17:52:58Z</time>
      </trkpt>
      <trkpt lat="43.6903" lon="5.81816">
        <ele>431.903</ele>
        <time>2020-09-02T17:53:01Z</time>
      </trkpt>
      <trkpt lat="43.69025" lon="5.81807">
        <ele>431.408</ele>
        <time>2020-09-02T17:53:16Z</time>
      </trkpt>
      <trkpt lat="43.69021" lon="5.81801">
        <ele>431.759</ele>
        <time>2020-09-02T17:53:17Z</time>
      </trkpt>
      <trkpt lat="43.69018" lon="5.81793">
        <ele>431.318</ele>
        <time>2020-09-02T17:53:18Z</time>
      </trkpt>
      <trkpt lat="43.69015" lon="5.81786">
        <ele>431.538</ele>
        <time>2020-09-02T17:53:19Z</time>
      </trkpt>
      <trkpt lat="43.6901" lon="5.81777">
        <ele>431.035</ele>
        <time>2020-09-02T17:53:20Z</time>
      </trkpt>
      <trkpt lat="43.69006" lon="5.81769">
        <ele>430.716</ele>
        <time>2020-09-02T17:53:21Z</time>
      </trkpt>
      <trkpt lat="43.69001" lon="5.8176">
        <ele>430.974</ele>
        <time>2020-09-02T17:53:22Z</time>
      </trkpt>
      <trkpt lat="43.68997" lon="5.81753">
        <ele>431.13</ele>
        <time>2020-09-02T17:53:23Z</time>
      </trkpt>
      <trkpt lat="43.68993" lon="5.81745">
        <ele>430.813</ele>
        <time>2020-09-02T17:53:24Z</time>
      </trkpt>
      <trkpt lat="43.6899" lon="5.81736">
        <ele>431.092</ele>
        <time>2020-09-02T17:53:25Z</time>
      </trkpt>
      <trkpt lat="43.68981" lon="5.81726">
        <ele>431.473</ele>
        <time>2020-09-02T17:53:26Z</time>
      </trkpt>
      <trkpt lat="43.68977" lon="5.81717">
        <ele>431.72</ele>
        <time>2020-09-02T17:53:27Z</time>
      </trkpt>
      <trkpt lat="43.68975" lon="5.81705">
        <ele>430.608</ele>
        <time>2020-09-02T17:53:28Z</time>
      </trkpt>
      <trkpt lat="43.68971" lon="5.81696">
        <ele>431.367</ele>
        <time>2020-09-02T17:53:29Z</time>
      </trkpt>
      <trkpt lat="43.68968" lon="5.81686">
        <ele>431.796</ele>
        <time>2020-09-02T17:53:30Z</time>
      </trkpt>
      <trkpt lat="43.68966" lon="5.81675">
        <ele>432.276</ele>
        <time>2020-09-02T17:53:31Z</time>
      </trkpt>
      <trkpt lat="43.68961" lon="5.81667">
        <ele>432.533</ele>
        <time>2020-09-02T17:53:32Z</time>
      </trkpt>
      <trkpt lat="43.68958" lon="5.81658">
        <ele>432.894</ele>
        <time>2020-09-02T17:53:33Z</time>
      </trkpt>
      <trkpt lat="43.68954" lon="5.81647">
        <ele>432.952</ele>
        <time>2020-09-02T17:53:34Z</time>
      </trkpt>
      <trkpt lat="43.68951" lon="5.81638">
        <ele>432.998</ele>
        <time>2020-09-02T17:53:35Z</time>
      </trkpt>
      <trkpt lat="43.6895" lon="5.81629">
        <ele>433.261</ele>
        <time>2020-09-02T17:53:36Z</time>
      </trkpt>
      <trkpt lat="43.68947" lon="5.81618">
        <ele>433.136</ele>
        <time>2020-09-02T17:53:37Z</time>
      </trkpt>
      <trkpt lat="43.68946" lon="5.81608">
        <ele>432.617</ele>
        <time>2020-09-02T17:53:38Z</time>
      </trkpt>
      <trkpt lat="43.68944" lon="5.81598">
        <ele>433.018</ele>
        <time>2020-09-02T17:53:39Z</time>
      </trkpt>
      <trkpt lat="43.68944" lon="5.81591">
        <ele>433.108</ele>
        <time>2020-09-02T17:53:40Z</time>
      </trkpt>
      <trkpt lat="43.68942" lon="5.81582">
        <ele>433.461</ele>
        <time>2020-09-02T17:53:41Z</time>
      </trkpt>
      <trkpt lat="43.68941" lon="5.81576">
        <ele>434.39</ele>
        <time>2020-09-02T17:53:42Z</time>
      </trkpt>
      <trkpt lat="43.68936" lon="5.81568">
        <ele>434.43</ele>
        <time>2020-09-02T17:53:43Z</time>
      </trkpt>
      <trkpt lat="43.68932" lon="5.81564">
        <ele>434.527</ele>
        <time>2020-09-02T17:53:44Z</time>
      </trkpt>
      <trkpt lat="43.68926" lon="5.8156">
        <ele>434.428</ele>
        <time>2020-09-02T17:53:45Z</time>
      </trkpt>
      <trkpt lat="43.6892" lon="5.81557">
        <ele>434.056</ele>
        <time>2020-09-02T17:53:46Z</time>
      </trkpt>
      <trkpt lat="43.68915" lon="5.81554">
        <ele>434.162</ele>
        <time>2020-09-02T17:53:47Z</time>
      </trkpt>
      <trkpt lat="43.68909" lon="5.81551">
        <ele>434.055</ele>
        <time>2020-09-02T17:53:48Z</time>
      </trkpt>
      <trkpt lat="43.68903" lon="5.81547">
        <ele>434.346</ele>
        <time>2020-09-02T17:53:49Z</time>
      </trkpt>
      <trkpt lat="43.689" lon="5.81543">
        <ele>433.588</ele>
        <time>2020-09-02T17:53:50Z</time>
      </trkpt>
      <trkpt lat="43.68894" lon="5.81537">
        <ele>434.416</ele>
        <time>2020-09-02T17:53:52Z</time>
      </trkpt>
      <trkpt lat="43.6889" lon="5.81533">
        <ele>434.308</ele>
        <time>2020-09-02T17:53:53Z</time>
      </trkpt>
      <trkpt lat="43.68886" lon="5.81527">
        <ele>434.662</ele>
        <time>2020-09-02T17:53:54Z</time>
      </trkpt>
      <trkpt lat="43.68884" lon="5.81522">
        <ele>434.421</ele>
        <time>2020-09-02T17:53:55Z</time>
      </trkpt>
      <trkpt lat="43.68882" lon="5.81515">
        <ele>434.641</ele>
        <time>2020-09-02T17:53:56Z</time>
      </trkpt>
      <trkpt lat="43.68879" lon="5.8151">
        <ele>434.998</ele>
        <time>2020-09-02T17:53:57Z</time>
      </trkpt>
      <trkpt lat="43.68877" lon="5.81503">
        <ele>434.989</ele>
        <time>2020-09-02T17:53:58Z</time>
      </trkpt>
      <trkpt lat="43.68874" lon="5.81497">
        <ele>434.577</ele>
        <time>2020-09-02T17:53:59Z</time>
      </trkpt>
      <trkpt lat="43.68871" lon="5.81492">
        <ele>434.293</ele>
        <time>2020-09-02T17:54:00Z</time>
      </trkpt>
      <trkpt lat="43.68867" lon="5.81487">
        <ele>433.996</ele>
        <time>2020-09-02T17:54:01Z</time>
      </trkpt>
      <trkpt lat="43.68862" lon="5.81479">
        <ele>432.774</ele>
        <time>2020-09-02T17:54:03Z</time>
      </trkpt>
      <trkpt lat="43.68863" lon="5.81468">
        <ele>430.756</ele>
        <time>2020-09-02T17:54:05Z</time>
      </trkpt>
      <trkpt lat="43.68866" lon="5.81462">
        <ele>430.821</ele>
        <time>2020-09-02T17:54:06Z</time>
      </trkpt>
      <trkpt lat="43.68873" lon="5.81454">
        <ele>429.308</ele>
        <time>2020-09-02T17:54:07Z</time>
      </trkpt>
      <trkpt lat="43.68877" lon="5.81446">
        <ele>429.065</ele>
        <time>2020-09-02T17:54:08Z</time>
      </trkpt>
      <trkpt lat="43.68881" lon="5.81435">
        <ele>429.844</ele>
        <time>2020-09-02T17:54:09Z</time>
      </trkpt>
      <trkpt lat="43.68885" lon="5.81422">
        <ele>430.274</ele>
        <time>2020-09-02T17:54:10Z</time>
      </trkpt>
      <trkpt lat="43.68888" lon="5.81408">
        <ele>429.831</ele>
        <time>2020-09-02T17:54:11Z</time>
      </trkpt>
      <trkpt lat="43.68891" lon="5.81394">
        <ele>429.552</ele>
        <time>2020-09-02T17:54:12Z</time>
      </trkpt>
      <trkpt lat="43.68893" lon="5.81382">
        <ele>428.77</ele>
        <time>2020-09-02T17:54:13Z</time>
      </trkpt>
      <trkpt lat="43.68893" lon="5.81369">
        <ele>427.996</ele>
        <time>2020-09-02T17:54:14Z</time>
      </trkpt>
      <trkpt lat="43.68893" lon="5.81359">
        <ele>428.319</ele>
        <time>2020-09-02T17:54:15Z</time>
      </trkpt>
      <trkpt lat="43.68891" lon="5.81349">
        <ele>427.885</ele>
        <time>2020-09-02T17:54:16Z</time>
      </trkpt>
      <trkpt lat="43.68888" lon="5.8134">
        <ele>427.889</ele>
        <time>2020-09-02T17:54:17Z</time>
      </trkpt>
      <trkpt lat="43.6888" lon="5.81335">
        <ele>427.917</ele>
        <time>2020-09-02T17:54:18Z</time>
      </trkpt>
      <trkpt lat="43.68871" lon="5.8133">
        <ele>427.908</ele>
        <time>2020-09-02T17:54:19Z</time>
      </trkpt>
      <trkpt lat="43.68861" lon="5.81325">
        <ele>427.236</ele>
        <time>2020-09-02T17:54:20Z</time>
      </trkpt>
      <trkpt lat="43.6885" lon="5.81321">
        <ele>426.315</ele>
        <time>2020-09-02T17:54:21Z</time>
      </trkpt>
      <trkpt lat="43.68838" lon="5.81316">
        <ele>425.985</ele>
        <time>2020-09-02T17:54:22Z</time>
      </trkpt>
      <trkpt lat="43.68827" lon="5.81309">
        <ele>425.182</ele>
        <time>2020-09-02T17:54:23Z</time>
      </trkpt>
      <trkpt lat="43.68816" lon="5.81302">
        <ele>425.033</ele>
        <time>2020-09-02T17:54:24Z</time>
      </trkpt>
      <trkpt lat="43.68805" lon="5.81294">
        <ele>424.861</ele>
        <time>2020-09-02T17:54:25Z</time>
      </trkpt>
      <trkpt lat="43.68795" lon="5.81286">
        <ele>423.967</ele>
        <time>2020-09-02T17:54:26Z</time>
      </trkpt>
      <trkpt lat="43.68785" lon="5.8128">
        <ele>423.24</ele>
        <time>2020-09-02T17:54:27Z</time>
      </trkpt>
      <trkpt lat="43.68774" lon="5.81275">
        <ele>422.444</ele>
        <time>2020-09-02T17:54:28Z</time>
      </trkpt>
      <trkpt lat="43.68762" lon="5.81271">
        <ele>421.905</ele>
        <time>2020-09-02T17:54:29Z</time>
      </trkpt>
      <trkpt lat="43.6875" lon="5.81266">
        <ele>421.615</ele>
        <time>2020-09-02T17:54:30Z</time>
      </trkpt>
      <trkpt lat="43.68739" lon="5.81262">
        <ele>421.308</ele>
        <time>2020-09-02T17:54:31Z</time>
      </trkpt>
      <trkpt lat="43.68728" lon="5.81259">
        <ele>421.092</ele>
        <time>2020-09-02T17:54:32Z</time>
      </trkpt>
      <trkpt lat="43.68718" lon="5.81259">
        <ele>420.521</ele>
        <time>2020-09-02T17:54:33Z</time>
      </trkpt>
      <trkpt lat="43.68707" lon="5.81261">
        <ele>420.071</ele>
        <time>2020-09-02T17:54:34Z</time>
      </trkpt>
      <trkpt lat="43.68696" lon="5.81263">
        <ele>419.748</ele>
        <time>2020-09-02T17:54:35Z</time>
      </trkpt>
      <trkpt lat="43.68686" lon="5.81266">
        <ele>419.359</ele>
        <time>2020-09-02T17:54:36Z</time>
      </trkpt>
      <trkpt lat="43.68676" lon="5.81268">
        <ele>419.077</ele>
        <time>2020-09-02T17:54:37Z</time>
      </trkpt>
      <trkpt lat="43.68667" lon="5.81268">
        <ele>418.523</ele>
        <time>2020-09-02T17:54:38Z</time>
      </trkpt>
      <trkpt lat="43.68658" lon="5.81266">
        <ele>417.796</ele>
        <time>2020-09-02T17:54:39Z</time>
      </trkpt>
      <trkpt lat="43.6865" lon="5.8126">
        <ele>417.412</ele>
        <time>2020-09-02T17:54:40Z</time>
      </trkpt>
      <trkpt lat="43.68641" lon="5.81252">
        <ele>417.132</ele>
        <time>2020-09-02T17:54:41Z</time>
      </trkpt>
      <trkpt lat="43.68631" lon="5.81246">
        <ele>415.905</ele>
        <time>2020-09-02T17:54:42Z</time>
      </trkpt>
      <trkpt lat="43.6862" lon="5.81241">
        <ele>414.808</ele>
        <time>2020-09-02T17:54:43Z</time>
      </trkpt>
      <trkpt lat="43.68607" lon="5.81237">
        <ele>414.639</ele>
        <time>2020-09-02T17:54:44Z</time>
      </trkpt>
      <trkpt lat="43.68595" lon="5.81234">
        <ele>414.378</ele>
        <time>2020-09-02T17:54:45Z</time>
      </trkpt>
      <trkpt lat="43.68583" lon="5.8123">
        <ele>413.818</ele>
        <time>2020-09-02T17:54:46Z</time>
      </trkpt>
      <trkpt lat="43.68573" lon="5.81227">
        <ele>413.785</ele>
        <time>2020-09-02T17:54:47Z</time>
      </trkpt>
      <trkpt lat="43.68563" lon="5.81224">
        <ele>413.366</ele>
        <time>2020-09-02T17:54:48Z</time>
      </trkpt>
      <trkpt lat="43.68555" lon="5.81218">
        <ele>413.124</ele>
        <time>2020-09-02T17:54:49Z</time>
      </trkpt>
      <trkpt lat="43.68547" lon="5.81209">
        <ele>411.41</ele>
        <time>2020-09-02T17:54:50Z</time>
      </trkpt>
      <trkpt lat="43.68539" lon="5.81198">
        <ele>411.483</ele>
        <time>2020-09-02T17:54:51Z</time>
      </trkpt>
      <trkpt lat="43.68532" lon="5.81186">
        <ele>411.218</ele>
        <time>2020-09-02T17:54:52Z</time>
      </trkpt>
      <trkpt lat="43.68524" lon="5.81174">
        <ele>410.698</ele>
        <time>2020-09-02T17:54:53Z</time>
      </trkpt>
      <trkpt lat="43.68515" lon="5.81165">
        <ele>410.317</ele>
        <time>2020-09-02T17:54:54Z</time>
      </trkpt>
      <trkpt lat="43.68507" lon="5.81157">
        <ele>410.308</ele>
        <time>2020-09-02T17:54:55Z</time>
      </trkpt>
      <trkpt lat="43.68498" lon="5.8115">
        <ele>409.949</ele>
        <time>2020-09-02T17:54:56Z</time>
      </trkpt>
      <trkpt lat="43.68488" lon="5.81148">
        <ele>409.188</ele>
        <time>2020-09-02T17:54:57Z</time>
      </trkpt>
      <trkpt lat="43.68478" lon="5.81148">
        <ele>408.858</ele>
        <time>2020-09-02T17:54:58Z</time>
      </trkpt>
      <trkpt lat="43.68468" lon="5.81149">
        <ele>408.725</ele>
        <time>2020-09-02T17:54:59Z</time>
      </trkpt>
      <trkpt lat="43.68456" lon="5.81152">
        <ele>408.486</ele>
        <time>2020-09-02T17:55:00Z</time>
      </trkpt>
      <trkpt lat="43.68444" lon="5.81154">
        <ele>408.184</ele>
        <time>2020-09-02T17:55:01Z</time>
      </trkpt>
      <trkpt lat="43.68433" lon="5.81156">
        <ele>408.03</ele>
        <time>2020-09-02T17:55:02Z</time>
      </trkpt>
      <trkpt lat="43.68424" lon="5.81151">
        <ele>407.393</ele>
        <time>2020-09-02T17:55:03Z</time>
      </trkpt>
      <trkpt lat="43.68413" lon="5.81149">
        <ele>406.719</ele>
        <time>2020-09-02T17:55:04Z</time>
      </trkpt>
      <trkpt lat="43.68402" lon="5.81145">
        <ele>406.309</ele>
        <time>2020-09-02T17:55:05Z</time>
      </trkpt>
      <trkpt lat="43.68391" lon="5.81137">
        <ele>405.119</ele>
        <time>2020-09-02T17:55:06Z</time>
      </trkpt>
      <trkpt lat="43.68377" lon="5.81131">
        <ele>404.908</ele>
        <time>2020-09-02T17:55:07Z</time>
      </trkpt>
      <trkpt lat="43.68365" lon="5.81125">
        <ele>404.219</ele>
        <time>2020-09-02T17:55:08Z</time>
      </trkpt>
      <trkpt lat="43.68353" lon="5.81119">
        <ele>403.028</ele>
        <time>2020-09-02T17:55:09Z</time>
      </trkpt>
      <trkpt lat="43.68342" lon="5.81113">
        <ele>402.738</ele>
        <time>2020-09-02T17:55:10Z</time>
      </trkpt>
      <trkpt lat="43.68331" lon="5.81102">
        <ele>401.955</ele>
        <time>2020-09-02T17:55:11Z</time>
      </trkpt>
      <trkpt lat="43.6832" lon="5.81092">
        <ele>401.436</ele>
        <time>2020-09-02T17:55:12Z</time>
      </trkpt>
      <trkpt lat="43.68311" lon="5.81081">
        <ele>401.174</ele>
        <time>2020-09-02T17:55:13Z</time>
      </trkpt>
      <trkpt lat="43.68303" lon="5.81069">
        <ele>400.34</ele>
        <time>2020-09-02T17:55:14Z</time>
      </trkpt>
      <trkpt lat="43.68296" lon="5.81055">
        <ele>399.863</ele>
        <time>2020-09-02T17:55:15Z</time>
      </trkpt>
      <trkpt lat="43.68291" lon="5.81044">
        <ele>399.741</ele>
        <time>2020-09-02T17:55:16Z</time>
      </trkpt>
      <trkpt lat="43.68284" lon="5.81033">
        <ele>399.081</ele>
        <time>2020-09-02T17:55:17Z</time>
      </trkpt>
      <trkpt lat="43.68275" lon="5.81024">
        <ele>399.109</ele>
        <time>2020-09-02T17:55:18Z</time>
      </trkpt>
      <trkpt lat="43.68267" lon="5.81017">
        <ele>398.408</ele>
        <time>2020-09-02T17:55:19Z</time>
      </trkpt>
      <trkpt lat="43.68257" lon="5.81011">
        <ele>397.982</ele>
        <time>2020-09-02T17:55:20Z</time>
      </trkpt>
      <trkpt lat="43.68246" lon="5.81006">
        <ele>398.381</ele>
        <time>2020-09-02T17:55:21Z</time>
      </trkpt>
      <trkpt lat="43.68234" lon="5.81002">
        <ele>398.091</ele>
        <time>2020-09-02T17:55:22Z</time>
      </trkpt>
      <trkpt lat="43.68222" lon="5.80998">
        <ele>398.148</ele>
        <time>2020-09-02T17:55:23Z</time>
      </trkpt>
      <trkpt lat="43.6821" lon="5.80992">
        <ele>397.629</ele>
        <time>2020-09-02T17:55:24Z</time>
      </trkpt>
      <trkpt lat="43.68202" lon="5.80985">
        <ele>397.447</ele>
        <time>2020-09-02T17:55:25Z</time>
      </trkpt>
      <trkpt lat="43.68194" lon="5.80976">
        <ele>396.453</ele>
        <time>2020-09-02T17:55:26Z</time>
      </trkpt>
      <trkpt lat="43.68186" lon="5.80965">
        <ele>396.536</ele>
        <time>2020-09-02T17:55:27Z</time>
      </trkpt>
      <trkpt lat="43.68179" lon="5.80954">
        <ele>396.369</ele>
        <time>2020-09-02T17:55:28Z</time>
      </trkpt>
      <trkpt lat="43.68174" lon="5.80943">
        <ele>396.204</ele>
        <time>2020-09-02T17:55:29Z</time>
      </trkpt>
      <trkpt lat="43.68168" lon="5.8093">
        <ele>396.124</ele>
        <time>2020-09-02T17:55:30Z</time>
      </trkpt>
      <trkpt lat="43.68165" lon="5.80918">
        <ele>395.408</ele>
        <time>2020-09-02T17:55:31Z</time>
      </trkpt>
      <trkpt lat="43.68165" lon="5.80904">
        <ele>395.574</ele>
        <time>2020-09-02T17:55:32Z</time>
      </trkpt>
      <trkpt lat="43.68166" lon="5.80886">
        <ele>395.593</ele>
        <time>2020-09-02T17:55:33Z</time>
      </trkpt>
      <trkpt lat="43.68164" lon="5.80869">
        <ele>395.453</ele>
        <time>2020-09-02T17:55:34Z</time>
      </trkpt>
      <trkpt lat="43.68164" lon="5.80855">
        <ele>395.05</ele>
        <time>2020-09-02T17:55:35Z</time>
      </trkpt>
      <trkpt lat="43.68163" lon="5.80841">
        <ele>395.381</ele>
        <time>2020-09-02T17:55:36Z</time>
      </trkpt>
      <trkpt lat="43.68159" lon="5.8083">
        <ele>395.279</ele>
        <time>2020-09-02T17:55:37Z</time>
      </trkpt>
      <trkpt lat="43.68152" lon="5.8082">
        <ele>395.275</ele>
        <time>2020-09-02T17:55:38Z</time>
      </trkpt>
      <trkpt lat="43.68144" lon="5.80811">
        <ele>394.298</ele>
        <time>2020-09-02T17:55:39Z</time>
      </trkpt>
      <trkpt lat="43.68134" lon="5.80802">
        <ele>392.812</ele>
        <time>2020-09-02T17:55:40Z</time>
      </trkpt>
      <trkpt lat="43.68122" lon="5.80794">
        <ele>392.132</ele>
        <time>2020-09-02T17:55:41Z</time>
      </trkpt>
      <trkpt lat="43.68111" lon="5.80786">
        <ele>392.305</ele>
        <time>2020-09-02T17:55:42Z</time>
      </trkpt>
      <trkpt lat="43.68101" lon="5.80779">
        <ele>391.708</ele>
        <time>2020-09-02T17:55:43Z</time>
      </trkpt>
      <trkpt lat="43.68092" lon="5.80771">
        <ele>391.539</ele>
        <time>2020-09-02T17:55:44Z</time>
      </trkpt>
      <trkpt lat="43.68083" lon="5.80763">
        <ele>391.318</ele>
        <time>2020-09-02T17:55:45Z</time>
      </trkpt>
      <trkpt lat="43.68074" lon="5.80755">
        <ele>391.228</ele>
        <time>2020-09-02T17:55:46Z</time>
      </trkpt>
      <trkpt lat="43.68067" lon="5.80745">
        <ele>391.495</ele>
        <time>2020-09-02T17:55:47Z</time>
      </trkpt>
      <trkpt lat="43.68061" lon="5.80734">
        <ele>390.986</ele>
        <time>2020-09-02T17:55:48Z</time>
      </trkpt>
      <trkpt lat="43.68059" lon="5.80719">
        <ele>389.344</ele>
        <time>2020-09-02T17:55:49Z</time>
      </trkpt>
      <trkpt lat="43.68056" lon="5.80708">
        <ele>389.18</ele>
        <time>2020-09-02T17:55:50Z</time>
      </trkpt>
      <trkpt lat="43.68055" lon="5.80696">
        <ele>388.223</ele>
        <time>2020-09-02T17:55:51Z</time>
      </trkpt>
      <trkpt lat="43.68057" lon="5.80686">
        <ele>388.233</ele>
        <time>2020-09-02T17:55:52Z</time>
      </trkpt>
      <trkpt lat="43.6806" lon="5.80675">
        <ele>388.023</ele>
        <time>2020-09-02T17:55:53Z</time>
      </trkpt>
      <trkpt lat="43.6806" lon="5.80663">
        <ele>387.715</ele>
        <time>2020-09-02T17:55:54Z</time>
      </trkpt>
      <trkpt lat="43.68059" lon="5.80651">
        <ele>386.408</ele>
        <time>2020-09-02T17:55:55Z</time>
      </trkpt>
      <trkpt lat="43.68056" lon="5.80641">
        <ele>385.061</ele>
        <time>2020-09-02T17:55:56Z</time>
      </trkpt>
      <trkpt lat="43.68051" lon="5.8063">
        <ele>383.56</ele>
        <time>2020-09-02T17:55:57Z</time>
      </trkpt>
      <trkpt lat="43.68043" lon="5.80629">
        <ele>383.47</ele>
        <time>2020-09-02T17:55:58Z</time>
      </trkpt>
      <trkpt lat="43.68038" lon="5.80629">
        <ele>382.457</ele>
        <time>2020-09-02T17:55:59Z</time>
      </trkpt>
      <trkpt lat="43.68031" lon="5.80629">
        <ele>382.228</ele>
        <time>2020-09-02T17:56:00Z</time>
      </trkpt>
      <trkpt lat="43.68023" lon="5.8064">
        <ele>382.216</ele>
        <time>2020-09-02T17:56:01Z</time>
      </trkpt>
      <trkpt lat="43.68013" lon="5.80647">
        <ele>382.052</ele>
        <time>2020-09-02T17:56:02Z</time>
      </trkpt>
      <trkpt lat="43.68003" lon="5.80655">
        <ele>381.815</ele>
        <time>2020-09-02T17:56:03Z</time>
      </trkpt>
      <trkpt lat="43.67993" lon="5.80664">
        <ele>381.618</ele>
        <time>2020-09-02T17:56:04Z</time>
      </trkpt>
      <trkpt lat="43.67985" lon="5.80672">
        <ele>380.998</ele>
        <time>2020-09-02T17:56:05Z</time>
      </trkpt>
      <trkpt lat="43.67977" lon="5.80679">
        <ele>381.017</ele>
        <time>2020-09-02T17:56:06Z</time>
      </trkpt>
      <trkpt lat="43.67971" lon="5.80687">
        <ele>381.008</ele>
        <time>2020-09-02T17:56:07Z</time>
      </trkpt>
      <trkpt lat="43.67964" lon="5.80694">
        <ele>380.179</ele>
        <time>2020-09-02T17:56:08Z</time>
      </trkpt>
      <trkpt lat="43.67959" lon="5.80694">
        <ele>378.638</ele>
        <time>2020-09-02T17:56:09Z</time>
      </trkpt>
      <trkpt lat="43.67951" lon="5.80696">
        <ele>378.388</ele>
        <time>2020-09-02T17:56:10Z</time>
      </trkpt>
      <trkpt lat="43.67941" lon="5.80693">
        <ele>378.455</ele>
        <time>2020-09-02T17:56:11Z</time>
      </trkpt>
      <trkpt lat="43.67932" lon="5.80689">
        <ele>377.786</ele>
        <time>2020-09-02T17:56:12Z</time>
      </trkpt>
      <trkpt lat="43.6792" lon="5.80682">
        <ele>378.044</ele>
        <time>2020-09-02T17:56:13Z</time>
      </trkpt>
      <trkpt lat="43.67908" lon="5.80674">
        <ele>378.64</ele>
        <time>2020-09-02T17:56:14Z</time>
      </trkpt>
      <trkpt lat="43.67896" lon="5.80665">
        <ele>378.223</ele>
        <time>2020-09-02T17:56:15Z</time>
      </trkpt>
      <trkpt lat="43.67885" lon="5.80654">
        <ele>377.778</ele>
        <time>2020-09-02T17:56:16Z</time>
      </trkpt>
      <trkpt lat="43.67876" lon="5.80644">
        <ele>376.633</ele>
        <time>2020-09-02T17:56:17Z</time>
      </trkpt>
      <trkpt lat="43.67867" lon="5.80635">
        <ele>376.126</ele>
        <time>2020-09-02T17:56:18Z</time>
      </trkpt>
      <trkpt lat="43.67859" lon="5.80623">
        <ele>374.708</ele>
        <time>2020-09-02T17:56:19Z</time>
      </trkpt>
      <trkpt lat="43.67853" lon="5.80608">
        <ele>373.865</ele>
        <time>2020-09-02T17:56:20Z</time>
      </trkpt>
      <trkpt lat="43.67847" lon="5.80593">
        <ele>373.664</ele>
        <time>2020-09-02T17:56:21Z</time>
      </trkpt>
      <trkpt lat="43.67841" lon="5.80577">
        <ele>373.184</ele>
        <time>2020-09-02T17:56:22Z</time>
      </trkpt>
      <trkpt lat="43.67837" lon="5.80561">
        <ele>373.161</ele>
        <time>2020-09-02T17:56:23Z</time>
      </trkpt>
      <trkpt lat="43.67833" lon="5.80545">
        <ele>372.472</ele>
        <time>2020-09-02T17:56:24Z</time>
      </trkpt>
      <trkpt lat="43.6783" lon="5.8053">
        <ele>371.91</ele>
        <time>2020-09-02T17:56:25Z</time>
      </trkpt>
      <trkpt lat="43.67826" lon="5.80516">
        <ele>371.856</ele>
        <time>2020-09-02T17:56:26Z</time>
      </trkpt>
      <trkpt lat="43.67822" lon="5.80502">
        <ele>371.459</ele>
        <time>2020-09-02T17:56:27Z</time>
      </trkpt>
      <trkpt lat="43.67818" lon="5.80489">
        <ele>371.725</ele>
        <time>2020-09-02T17:56:28Z</time>
      </trkpt>
      <trkpt lat="43.67812" lon="5.8048">
        <ele>371.726</ele>
        <time>2020-09-02T17:56:29Z</time>
      </trkpt>
      <trkpt lat="43.67806" lon="5.80471">
        <ele>371.908</ele>
        <time>2020-09-02T17:56:30Z</time>
      </trkpt>
      <trkpt lat="43.67798" lon="5.80462">
        <ele>372.308</ele>
        <time>2020-09-02T17:56:31Z</time>
      </trkpt>
      <trkpt lat="43.6779" lon="5.80451">
        <ele>372.31</ele>
        <time>2020-09-02T17:56:32Z</time>
      </trkpt>
      <trkpt lat="43.67781" lon="5.80444">
        <ele>372.669</ele>
        <time>2020-09-02T17:56:33Z</time>
      </trkpt>
      <trkpt lat="43.6777" lon="5.80437">
        <ele>372.449</ele>
        <time>2020-09-02T17:56:34Z</time>
      </trkpt>
      <trkpt lat="43.67762" lon="5.8043">
        <ele>371.746</ele>
        <time>2020-09-02T17:56:35Z</time>
      </trkpt>
      <trkpt lat="43.67754" lon="5.80421">
        <ele>370.437</ele>
        <time>2020-09-02T17:56:36Z</time>
      </trkpt>
      <trkpt lat="43.67747" lon="5.80411">
        <ele>370.015</ele>
        <time>2020-09-02T17:56:37Z</time>
      </trkpt>
      <trkpt lat="43.67741" lon="5.80399">
        <ele>369.241</ele>
        <time>2020-09-02T17:56:38Z</time>
      </trkpt>
      <trkpt lat="43.67736" lon="5.80386">
        <ele>368.754</ele>
        <time>2020-09-02T17:56:39Z</time>
      </trkpt>
      <trkpt lat="43.67731" lon="5.80375">
        <ele>368.017</ele>
        <time>2020-09-02T17:56:40Z</time>
      </trkpt>
      <trkpt lat="43.67727" lon="5.80365">
        <ele>367.387</ele>
        <time>2020-09-02T17:56:41Z</time>
      </trkpt>
      <trkpt lat="43.67725" lon="5.80352">
        <ele>367.015</ele>
        <time>2020-09-02T17:56:42Z</time>
      </trkpt>
      <trkpt lat="43.67724" lon="5.8034">
        <ele>366.108</ele>
        <time>2020-09-02T17:56:43Z</time>
      </trkpt>
      <trkpt lat="43.67725" lon="5.80327">
        <ele>364.899</ele>
        <time>2020-09-02T17:56:44Z</time>
      </trkpt>
      <trkpt lat="43.67727" lon="5.80314">
        <ele>364.098</ele>
        <time>2020-09-02T17:56:45Z</time>
      </trkpt>
      <trkpt lat="43.67729" lon="5.80302">
        <ele>364.078</ele>
        <time>2020-09-02T17:56:46Z</time>
      </trkpt>
      <trkpt lat="43.67731" lon="5.80292">
        <ele>363.925</ele>
        <time>2020-09-02T17:56:47Z</time>
      </trkpt>
      <trkpt lat="43.67733" lon="5.80285">
        <ele>363.876</ele>
        <time>2020-09-02T17:56:48Z</time>
      </trkpt>
      <trkpt lat="43.67736" lon="5.80276">
        <ele>362.844</ele>
        <time>2020-09-02T17:56:50Z</time>
      </trkpt>
      <trkpt lat="43.6774" lon="5.80269">
        <ele>362.67</ele>
        <time>2020-09-02T17:56:51Z</time>
      </trkpt>
      <trkpt lat="43.67743" lon="5.80261">
        <ele>362.743</ele>
        <time>2020-09-02T17:56:52Z</time>
      </trkpt>
      <trkpt lat="43.67747" lon="5.8025">
        <ele>362.774</ele>
        <time>2020-09-02T17:56:53Z</time>
      </trkpt>
      <trkpt lat="43.67751" lon="5.80237">
        <ele>362.856</ele>
        <time>2020-09-02T17:56:54Z</time>
      </trkpt>
      <trkpt lat="43.67756" lon="5.80223">
        <ele>362.721</ele>
        <time>2020-09-02T17:56:55Z</time>
      </trkpt>
      <trkpt lat="43.67762" lon="5.80208">
        <ele>362.008</ele>
        <time>2020-09-02T17:56:56Z</time>
      </trkpt>
      <trkpt lat="43.67767" lon="5.80193">
        <ele>362.235</ele>
        <time>2020-09-02T17:56:57Z</time>
      </trkpt>
      <trkpt lat="43.67771" lon="5.80179">
        <ele>362.814</ele>
        <time>2020-09-02T17:56:58Z</time>
      </trkpt>
      <trkpt lat="43.67772" lon="5.80163">
        <ele>362.484</ele>
        <time>2020-09-02T17:56:59Z</time>
      </trkpt>
      <trkpt lat="43.67771" lon="5.80147">
        <ele>362.111</ele>
        <time>2020-09-02T17:57:00Z</time>
      </trkpt>
      <trkpt lat="43.67767" lon="5.80132">
        <ele>362.362</ele>
        <time>2020-09-02T17:57:01Z</time>
      </trkpt>
      <trkpt lat="43.6776" lon="5.80119">
        <ele>362.47</ele>
        <time>2020-09-02T17:57:02Z</time>
      </trkpt>
      <trkpt lat="43.67752" lon="5.80108">
        <ele>361.946</ele>
        <time>2020-09-02T17:57:03Z</time>
      </trkpt>
      <trkpt lat="43.67743" lon="5.80095">
        <ele>361.529</ele>
        <time>2020-09-02T17:57:04Z</time>
      </trkpt>
      <trkpt lat="43.67733" lon="5.80083">
        <ele>361.483</ele>
        <time>2020-09-02T17:57:05Z</time>
      </trkpt>
      <trkpt lat="43.67724" lon="5.80069">
        <ele>361.525</ele>
        <time>2020-09-02T17:57:06Z</time>
      </trkpt>
      <trkpt lat="43.67715" lon="5.80056">
        <ele>361.717</ele>
        <time>2020-09-02T17:57:07Z</time>
      </trkpt>
      <trkpt lat="43.67707" lon="5.80045">
        <ele>361.108</ele>
        <time>2020-09-02T17:57:08Z</time>
      </trkpt>
      <trkpt lat="43.677" lon="5.80032">
        <ele>360.556</ele>
        <time>2020-09-02T17:57:09Z</time>
      </trkpt>
      <trkpt lat="43.67698" lon="5.8002">
        <ele>360.565</ele>
        <time>2020-09-02T17:57:10Z</time>
      </trkpt>
      <trkpt lat="43.67697" lon="5.80008">
        <ele>360.065</ele>
        <time>2020-09-02T17:57:11Z</time>
      </trkpt>
      <trkpt lat="43.67699" lon="5.79999">
        <ele>359.032</ele>
        <time>2020-09-02T17:57:12Z</time>
      </trkpt>
      <trkpt lat="43.67701" lon="5.79989">
        <ele>359.393</ele>
        <time>2020-09-02T17:57:13Z</time>
      </trkpt>
      <trkpt lat="43.67707" lon="5.79976">
        <ele>358.811</ele>
        <time>2020-09-02T17:57:14Z</time>
      </trkpt>
      <trkpt lat="43.67716" lon="5.79967">
        <ele>359.287</ele>
        <time>2020-09-02T17:57:15Z</time>
      </trkpt>
      <trkpt lat="43.67724" lon="5.79958">
        <ele>359.31</ele>
        <time>2020-09-02T17:57:16Z</time>
      </trkpt>
      <trkpt lat="43.67733" lon="5.79948">
        <ele>359.873</ele>
        <time>2020-09-02T17:57:17Z</time>
      </trkpt>
      <trkpt lat="43.67743" lon="5.79939">
        <ele>359.785</ele>
        <time>2020-09-02T17:57:18Z</time>
      </trkpt>
      <trkpt lat="43.67754" lon="5.79929">
        <ele>359.113</ele>
        <time>2020-09-02T17:57:19Z</time>
      </trkpt>
      <trkpt lat="43.67765" lon="5.79919">
        <ele>359.108</ele>
        <time>2020-09-02T17:57:20Z</time>
      </trkpt>
      <trkpt lat="43.67778" lon="5.7991">
        <ele>358.415</ele>
        <time>2020-09-02T17:57:21Z</time>
      </trkpt>
      <trkpt lat="43.67791" lon="5.79897">
        <ele>356.394</ele>
        <time>2020-09-02T17:57:22Z</time>
      </trkpt>
      <trkpt lat="43.67803" lon="5.79887">
        <ele>356.194</ele>
        <time>2020-09-02T17:57:23Z</time>
      </trkpt>
      <trkpt lat="43.67818" lon="5.79879">
        <ele>356.351</ele>
        <time>2020-09-02T17:57:24Z</time>
      </trkpt>
      <trkpt lat="43.6783" lon="5.79869">
        <ele>356.672</ele>
        <time>2020-09-02T17:57:25Z</time>
      </trkpt>
      <trkpt lat="43.67844" lon="5.7986">
        <ele>356.85</ele>
        <time>2020-09-02T17:57:26Z</time>
      </trkpt>
      <trkpt lat="43.67857" lon="5.7985">
        <ele>356.766</ele>
        <time>2020-09-02T17:57:27Z</time>
      </trkpt>
      <trkpt lat="43.67868" lon="5.7984">
        <ele>357.189</ele>
        <time>2020-09-02T17:57:28Z</time>
      </trkpt>
      <trkpt lat="43.67878" lon="5.79827">
        <ele>356.396</ele>
        <time>2020-09-02T17:57:29Z</time>
      </trkpt>
      <trkpt lat="43.67886" lon="5.79812">
        <ele>356.031</ele>
        <time>2020-09-02T17:57:30Z</time>
      </trkpt>
      <trkpt lat="43.67893" lon="5.79797">
        <ele>356.124</ele>
        <time>2020-09-02T17:57:31Z</time>
      </trkpt>
      <trkpt lat="43.67897" lon="5.79781">
        <ele>356.508</ele>
        <time>2020-09-02T17:57:32Z</time>
      </trkpt>
      <trkpt lat="43.67892" lon="5.79761">
        <ele>356.157</ele>
        <time>2020-09-02T17:57:33Z</time>
      </trkpt>
      <trkpt lat="43.67888" lon="5.79744">
        <ele>355.386</ele>
        <time>2020-09-02T17:57:34Z</time>
      </trkpt>
      <trkpt lat="43.67884" lon="5.79728">
        <ele>354.336</ele>
        <time>2020-09-02T17:57:35Z</time>
      </trkpt>
      <trkpt lat="43.6788" lon="5.79713">
        <ele>353.163</ele>
        <time>2020-09-02T17:57:36Z</time>
      </trkpt>
      <trkpt lat="43.67878" lon="5.79696">
        <ele>353.514</ele>
        <time>2020-09-02T17:57:37Z</time>
      </trkpt>
      <trkpt lat="43.67879" lon="5.79681">
        <ele>353.122</ele>
        <time>2020-09-02T17:57:38Z</time>
      </trkpt>
      <trkpt lat="43.67883" lon="5.79664">
        <ele>352.648</ele>
        <time>2020-09-02T17:57:39Z</time>
      </trkpt>
      <trkpt lat="43.67887" lon="5.79646">
        <ele>353.191</ele>
        <time>2020-09-02T17:57:40Z</time>
      </trkpt>
      <trkpt lat="43.67891" lon="5.79628">
        <ele>352.796</ele>
        <time>2020-09-02T17:57:41Z</time>
      </trkpt>
      <trkpt lat="43.67896" lon="5.79608">
        <ele>352.031</ele>
        <time>2020-09-02T17:57:42Z</time>
      </trkpt>
      <trkpt lat="43.679" lon="5.79586">
        <ele>351.924</ele>
        <time>2020-09-02T17:57:43Z</time>
      </trkpt>
      <trkpt lat="43.67904" lon="5.79565">
        <ele>352.108</ele>
        <time>2020-09-02T17:57:44Z</time>
      </trkpt>
      <trkpt lat="43.67909" lon="5.79542">
        <ele>352.567</ele>
        <time>2020-09-02T17:57:45Z</time>
      </trkpt>
      <trkpt lat="43.67913" lon="5.79522">
        <ele>352.626</ele>
        <time>2020-09-02T17:57:46Z</time>
      </trkpt>
      <trkpt lat="43.67919" lon="5.79502">
        <ele>351.986</ele>
        <time>2020-09-02T17:57:47Z</time>
      </trkpt>
      <trkpt lat="43.67925" lon="5.79483">
        <ele>351.173</ele>
        <time>2020-09-02T17:57:48Z</time>
      </trkpt>
      <trkpt lat="43.67933" lon="5.79465">
        <ele>351.194</ele>
        <time>2020-09-02T17:57:49Z</time>
      </trkpt>
      <trkpt lat="43.67941" lon="5.79448">
        <ele>350.862</ele>
        <time>2020-09-02T17:57:50Z</time>
      </trkpt>
      <trkpt lat="43.67946" lon="5.79434">
        <ele>350.858</ele>
        <time>2020-09-02T17:57:51Z</time>
      </trkpt>
      <trkpt lat="43.67952" lon="5.7942">
        <ele>351.391</ele>
        <time>2020-09-02T17:57:52Z</time>
      </trkpt>
      <trkpt lat="43.67953" lon="5.79406">
        <ele>350.841</ele>
        <time>2020-09-02T17:57:53Z</time>
      </trkpt>
      <trkpt lat="43.67951" lon="5.79393">
        <ele>350.581</ele>
        <time>2020-09-02T17:57:54Z</time>
      </trkpt>
      <trkpt lat="43.67949" lon="5.79379">
        <ele>350.809</ele>
        <time>2020-09-02T17:57:55Z</time>
      </trkpt>
      <trkpt lat="43.67939" lon="5.79369">
        <ele>350.708</ele>
        <time>2020-09-02T17:57:56Z</time>
      </trkpt>
      <trkpt lat="43.67931" lon="5.79357">
        <ele>350.412</ele>
        <time>2020-09-02T17:57:57Z</time>
      </trkpt>
      <trkpt lat="43.67922" lon="5.79345">
        <ele>350.391</ele>
        <time>2020-09-02T17:57:58Z</time>
      </trkpt>
      <trkpt lat="43.67912" lon="5.79332">
        <ele>350.491</ele>
        <time>2020-09-02T17:57:59Z</time>
      </trkpt>
      <trkpt lat="43.67904" lon="5.79321">
        <ele>349.828</ele>
        <time>2020-09-02T17:58:00Z</time>
      </trkpt>
      <trkpt lat="43.67895" lon="5.79309">
        <ele>349.859</ele>
        <time>2020-09-02T17:58:01Z</time>
      </trkpt>
      <trkpt lat="43.67886" lon="5.79299">
        <ele>349.777</ele>
        <time>2020-09-02T17:58:02Z</time>
      </trkpt>
      <trkpt lat="43.67877" lon="5.79286">
        <ele>349.283</ele>
        <time>2020-09-02T17:58:03Z</time>
      </trkpt>
      <trkpt lat="43.6787" lon="5.79272">
        <ele>348.236</ele>
        <time>2020-09-02T17:58:04Z</time>
      </trkpt>
      <trkpt lat="43.67863" lon="5.7926">
        <ele>347.633</ele>
        <time>2020-09-02T17:58:05Z</time>
      </trkpt>
      <trkpt lat="43.67857" lon="5.79246">
        <ele>347.423</ele>
        <time>2020-09-02T17:58:06Z</time>
      </trkpt>
      <trkpt lat="43.67852" lon="5.7923">
        <ele>347.115</ele>
        <time>2020-09-02T17:58:07Z</time>
      </trkpt>
      <trkpt lat="43.67848" lon="5.79211">
        <ele>347.508</ele>
        <time>2020-09-02T17:58:08Z</time>
      </trkpt>
      <trkpt lat="43.67845" lon="5.79192">
        <ele>346.841</ele>
        <time>2020-09-02T17:58:09Z</time>
      </trkpt>
      <trkpt lat="43.67845" lon="5.79173">
        <ele>345.69</ele>
        <time>2020-09-02T17:58:10Z</time>
      </trkpt>
      <trkpt lat="43.67845" lon="5.79154">
        <ele>345.67</ele>
        <time>2020-09-02T17:58:11Z</time>
      </trkpt>
      <trkpt lat="43.67845" lon="5.79133">
        <ele>345.517</ele>
        <time>2020-09-02T17:58:12Z</time>
      </trkpt>
      <trkpt lat="43.67847" lon="5.79113">
        <ele>345.018</ele>
        <time>2020-09-02T17:58:13Z</time>
      </trkpt>
      <trkpt lat="43.67847" lon="5.79094">
        <ele>344.986</ele>
        <time>2020-09-02T17:58:14Z</time>
      </trkpt>
      <trkpt lat="43.67845" lon="5.79077">
        <ele>344.682</ele>
        <time>2020-09-02T17:58:15Z</time>
      </trkpt>
      <trkpt lat="43.67843" lon="5.79059">
        <ele>344.045</ele>
        <time>2020-09-02T17:58:16Z</time>
      </trkpt>
      <trkpt lat="43.67842" lon="5.79043">
        <ele>343.191</ele>
        <time>2020-09-02T17:58:17Z</time>
      </trkpt>
      <trkpt lat="43.67839" lon="5.79028">
        <ele>342.881</ele>
        <time>2020-09-02T17:58:18Z</time>
      </trkpt>
      <trkpt lat="43.67838" lon="5.79012">
        <ele>342.819</ele>
        <time>2020-09-02T17:58:19Z</time>
      </trkpt>
      <trkpt lat="43.67836" lon="5.78999">
        <ele>342.008</ele>
        <time>2020-09-02T17:58:20Z</time>
      </trkpt>
      <trkpt lat="43.67831" lon="5.78986">
        <ele>341.737</ele>
        <time>2020-09-02T17:58:21Z</time>
      </trkpt>
      <trkpt lat="43.67826" lon="5.78972">
        <ele>341.716</ele>
        <time>2020-09-02T17:58:22Z</time>
      </trkpt>
      <trkpt lat="43.6782" lon="5.7896">
        <ele>341.016</ele>
        <time>2020-09-02T17:58:23Z</time>
      </trkpt>
      <trkpt lat="43.67812" lon="5.78949">
        <ele>340.873</ele>
        <time>2020-09-02T17:58:24Z</time>
      </trkpt>
      <trkpt lat="43.67801" lon="5.78939">
        <ele>340.274</ele>
        <time>2020-09-02T17:58:25Z</time>
      </trkpt>
      <trkpt lat="43.67789" lon="5.78931">
        <ele>340.182</ele>
        <time>2020-09-02T17:58:26Z</time>
      </trkpt>
      <trkpt lat="43.67776" lon="5.78924">
        <ele>338.838</ele>
        <time>2020-09-02T17:58:27Z</time>
      </trkpt>
      <trkpt lat="43.67763" lon="5.78918">
        <ele>338.971</ele>
        <time>2020-09-02T17:58:28Z</time>
      </trkpt>
      <trkpt lat="43.67749" lon="5.78913">
        <ele>338.672</ele>
        <time>2020-09-02T17:58:29Z</time>
      </trkpt>
      <trkpt lat="43.67735" lon="5.78906">
        <ele>338.313</ele>
        <time>2020-09-02T17:58:30Z</time>
      </trkpt>
      <trkpt lat="43.67721" lon="5.78899">
        <ele>338.714</ele>
        <time>2020-09-02T17:58:31Z</time>
      </trkpt>
      <trkpt lat="43.67708" lon="5.78893">
        <ele>338.408</ele>
        <time>2020-09-02T17:58:32Z</time>
      </trkpt>
      <trkpt lat="43.67696" lon="5.78886">
        <ele>337.965</ele>
        <time>2020-09-02T17:58:33Z</time>
      </trkpt>
      <trkpt lat="43.67685" lon="5.78878">
        <ele>337.144</ele>
        <time>2020-09-02T17:58:34Z</time>
      </trkpt>
      <trkpt lat="43.67676" lon="5.78869">
        <ele>337.164</ele>
        <time>2020-09-02T17:58:35Z</time>
      </trkpt>
      <trkpt lat="43.67668" lon="5.78857">
        <ele>336.551</ele>
        <time>2020-09-02T17:58:36Z</time>
      </trkpt>
      <trkpt lat="43.6766" lon="5.78843">
        <ele>336.322</ele>
        <time>2020-09-02T17:58:37Z</time>
      </trkpt>
      <trkpt lat="43.67653" lon="5.78831">
        <ele>336.29</ele>
        <time>2020-09-02T17:58:38Z</time>
      </trkpt>
      <trkpt lat="43.67646" lon="5.7882">
        <ele>335.716</ele>
        <time>2020-09-02T17:58:39Z</time>
      </trkpt>
      <trkpt lat="43.67639" lon="5.7881">
        <ele>335.629</ele>
        <time>2020-09-02T17:58:40Z</time>
      </trkpt>
      <trkpt lat="43.67633" lon="5.78802">
        <ele>335.096</ele>
        <time>2020-09-02T17:58:41Z</time>
      </trkpt>
      <trkpt lat="43.67627" lon="5.78797">
        <ele>334.931</ele>
        <time>2020-09-02T17:58:42Z</time>
      </trkpt>
      <trkpt lat="43.67622" lon="5.78791">
        <ele>334.924</ele>
        <time>2020-09-02T17:58:43Z</time>
      </trkpt>
      <trkpt lat="43.67619" lon="5.78786">
        <ele>334.208</ele>
        <time>2020-09-02T17:58:44Z</time>
      </trkpt>
      <trkpt lat="43.67615" lon="5.78781">
        <ele>333.817</ele>
        <time>2020-09-02T17:58:45Z</time>
      </trkpt>
      <trkpt lat="43.67607" lon="5.78779">
        <ele>333.386</ele>
        <time>2020-09-02T17:58:47Z</time>
      </trkpt>
      <trkpt lat="43.67597" lon="5.7878">
        <ele>332.576</ele>
        <time>2020-09-02T17:58:49Z</time>
      </trkpt>
      <trkpt lat="43.67591" lon="5.78779">
        <ele>332.383</ele>
        <time>2020-09-02T17:58:50Z</time>
      </trkpt>
      <trkpt lat="43.67585" lon="5.78779">
        <ele>331.764</ele>
        <time>2020-09-02T17:58:51Z</time>
      </trkpt>
      <trkpt lat="43.67578" lon="5.78778">
        <ele>331.742</ele>
        <time>2020-09-02T17:58:52Z</time>
      </trkpt>
      <trkpt lat="43.67571" lon="5.78779">
        <ele>332.018</ele>
        <time>2020-09-02T17:58:53Z</time>
      </trkpt>
      <trkpt lat="43.67563" lon="5.78779">
        <ele>332.411</ele>
        <time>2020-09-02T17:58:54Z</time>
      </trkpt>
      <trkpt lat="43.67558" lon="5.78783">
        <ele>332.251</ele>
        <time>2020-09-02T17:58:55Z</time>
      </trkpt>
      <trkpt lat="43.67553" lon="5.78786">
        <ele>333.001</ele>
        <time>2020-09-02T17:58:56Z</time>
      </trkpt>
      <trkpt lat="43.67549" lon="5.78795">
        <ele>333.711</ele>
        <time>2020-09-02T17:58:58Z</time>
      </trkpt>
      <trkpt lat="43.67552" lon="5.78806">
        <ele>334.308</ele>
        <time>2020-09-02T17:59:00Z</time>
      </trkpt>
      <trkpt lat="43.67551" lon="5.78815">
        <ele>334.853</ele>
        <time>2020-09-02T17:59:01Z</time>
      </trkpt>
      <trkpt lat="43.67551" lon="5.78825">
        <ele>335.142</ele>
        <time>2020-09-02T17:59:02Z</time>
      </trkpt>
      <trkpt lat="43.67549" lon="5.78832">
        <ele>335.432</ele>
        <time>2020-09-02T17:59:03Z</time>
      </trkpt>
      <trkpt lat="43.67548" lon="5.78839">
        <ele>335.659</ele>
        <time>2020-09-02T17:59:04Z</time>
      </trkpt>
      <trkpt lat="43.67546" lon="5.78847">
        <ele>335.72</ele>
        <time>2020-09-02T17:59:05Z</time>
      </trkpt>
      <trkpt lat="43.67544" lon="5.78856">
        <ele>335.598</ele>
        <time>2020-09-02T17:59:06Z</time>
      </trkpt>
      <trkpt lat="43.6754" lon="5.78863">
        <ele>335.824</ele>
        <time>2020-09-02T17:59:07Z</time>
      </trkpt>
      <trkpt lat="43.67536" lon="5.7887">
        <ele>335.947</ele>
        <time>2020-09-02T17:59:08Z</time>
      </trkpt>
      <trkpt lat="43.67533" lon="5.78877">
        <ele>335.921</ele>
        <time>2020-09-02T17:59:09Z</time>
      </trkpt>
      <trkpt lat="43.67528" lon="5.78884">
        <ele>336.341</ele>
        <time>2020-09-02T17:59:10Z</time>
      </trkpt>
      <trkpt lat="43.67524" lon="5.7889">
        <ele>336.505</ele>
        <time>2020-09-02T17:59:11Z</time>
      </trkpt>
      <trkpt lat="43.6752" lon="5.78896">
        <ele>336.708</ele>
        <time>2020-09-02T17:59:12Z</time>
      </trkpt>
      <trkpt lat="43.67516" lon="5.78902">
        <ele>337.32</ele>
        <time>2020-09-02T17:59:13Z</time>
      </trkpt>
      <trkpt lat="43.67511" lon="5.78909">
        <ele>337.549</ele>
        <time>2020-09-02T17:59:14Z</time>
      </trkpt>
      <trkpt lat="43.67505" lon="5.78915">
        <ele>337.419</ele>
        <time>2020-09-02T17:59:15Z</time>
      </trkpt>
      <trkpt lat="43.675" lon="5.78921">
        <ele>337.826</ele>
        <time>2020-09-02T17:59:16Z</time>
      </trkpt>
      <trkpt lat="43.67493" lon="5.78927">
        <ele>338.637</ele>
        <time>2020-09-02T17:59:17Z</time>
      </trkpt>
      <trkpt lat="43.67486" lon="5.78934">
        <ele>339.465</ele>
        <time>2020-09-02T17:59:18Z</time>
      </trkpt>
      <trkpt lat="43.6748" lon="5.78941">
        <ele>339.171</ele>
        <time>2020-09-02T17:59:19Z</time>
      </trkpt>
      <trkpt lat="43.67473" lon="5.78949">
        <ele>339.314</ele>
        <time>2020-09-02T17:59:20Z</time>
      </trkpt>
      <trkpt lat="43.67467" lon="5.78956">
        <ele>339.447</ele>
        <time>2020-09-02T17:59:21Z</time>
      </trkpt>
      <trkpt lat="43.6746" lon="5.78963">
        <ele>339.829</ele>
        <time>2020-09-02T17:59:22Z</time>
      </trkpt>
      <trkpt lat="43.67454" lon="5.78971">
        <ele>340.721</ele>
        <time>2020-09-02T17:59:23Z</time>
      </trkpt>
      <trkpt lat="43.67448" lon="5.7898">
        <ele>341.108</ele>
        <time>2020-09-02T17:59:24Z</time>
      </trkpt>
      <trkpt lat="43.67443" lon="5.78991">
        <ele>341.742</ele>
        <time>2020-09-02T17:59:25Z</time>
      </trkpt>
      <trkpt lat="43.67438" lon="5.79002">
        <ele>341.871</ele>
        <time>2020-09-02T17:59:26Z</time>
      </trkpt>
      <trkpt lat="43.67433" lon="5.79012">
        <ele>342.171</ele>
        <time>2020-09-02T17:59:27Z</time>
      </trkpt>
      <trkpt lat="43.6743" lon="5.79021">
        <ele>342.628</ele>
        <time>2020-09-02T17:59:28Z</time>
      </trkpt>
      <trkpt lat="43.6743" lon="5.79031">
        <ele>342.919</ele>
        <time>2020-09-02T17:59:29Z</time>
      </trkpt>
      <trkpt lat="43.6743" lon="5.79038">
        <ele>343.997</ele>
        <time>2020-09-02T17:59:30Z</time>
      </trkpt>
      <trkpt lat="43.67436" lon="5.79044">
        <ele>344.183</ele>
        <time>2020-09-02T17:59:31Z</time>
      </trkpt>
      <trkpt lat="43.67443" lon="5.7905">
        <ele>344.176</ele>
        <time>2020-09-02T17:59:32Z</time>
      </trkpt>
      <trkpt lat="43.67451" lon="5.79054">
        <ele>344.681</ele>
        <time>2020-09-02T17:59:33Z</time>
      </trkpt>
      <trkpt lat="43.67458" lon="5.79058">
        <ele>345.261</ele>
        <time>2020-09-02T17:59:34Z</time>
      </trkpt>
      <trkpt lat="43.67464" lon="5.79065">
        <ele>345.417</ele>
        <time>2020-09-02T17:59:35Z</time>
      </trkpt>
      <trkpt lat="43.67468" lon="5.79072">
        <ele>345.808</ele>
        <time>2020-09-02T17:59:36Z</time>
      </trkpt>
      <trkpt lat="43.6747" lon="5.79081">
        <ele>346.116</ele>
        <time>2020-09-02T17:59:37Z</time>
      </trkpt>
      <trkpt lat="43.6747" lon="5.79088">
        <ele>346.865</ele>
        <time>2020-09-02T17:59:38Z</time>
      </trkpt>
      <trkpt lat="43.67469" lon="5.79097">
        <ele>347.645</ele>
        <time>2020-09-02T17:59:39Z</time>
      </trkpt>
      <trkpt lat="43.67467" lon="5.79106">
        <ele>348.152</ele>
        <time>2020-09-02T17:59:40Z</time>
      </trkpt>
      <trkpt lat="43.67463" lon="5.79112">
        <ele>348.463</ele>
        <time>2020-09-02T17:59:41Z</time>
      </trkpt>
      <trkpt lat="43.67456" lon="5.79122">
        <ele>348.341</ele>
        <time>2020-09-02T17:59:42Z</time>
      </trkpt>
      <trkpt lat="43.67452" lon="5.7913">
        <ele>348.487</ele>
        <time>2020-09-02T17:59:43Z</time>
      </trkpt>
      <trkpt lat="43.67448" lon="5.79138">
        <ele>348.79</ele>
        <time>2020-09-02T17:59:44Z</time>
      </trkpt>
      <trkpt lat="43.67444" lon="5.79144">
        <ele>349.146</ele>
        <time>2020-09-02T17:59:45Z</time>
      </trkpt>
      <trkpt lat="43.67437" lon="5.79149">
        <ele>348.588</ele>
        <time>2020-09-02T17:59:46Z</time>
      </trkpt>
      <trkpt lat="43.67431" lon="5.79154">
        <ele>348.416</ele>
        <time>2020-09-02T17:59:47Z</time>
      </trkpt>
      <trkpt lat="43.67423" lon="5.79159">
        <ele>347.708</ele>
        <time>2020-09-02T17:59:48Z</time>
      </trkpt>
      <trkpt lat="43.67414" lon="5.79166">
        <ele>346.842</ele>
        <time>2020-09-02T17:59:49Z</time>
      </trkpt>
      <trkpt lat="43.67404" lon="5.7917">
        <ele>347.051</ele>
        <time>2020-09-02T17:59:50Z</time>
      </trkpt>
      <trkpt lat="43.67397" lon="5.79176">
        <ele>347.211</ele>
        <time>2020-09-02T17:59:51Z</time>
      </trkpt>
      <trkpt lat="43.67389" lon="5.79183">
        <ele>347.438</ele>
        <time>2020-09-02T17:59:52Z</time>
      </trkpt>
      <trkpt lat="43.67381" lon="5.79189">
        <ele>348.099</ele>
        <time>2020-09-02T17:59:53Z</time>
      </trkpt>
      <trkpt lat="43.67373" lon="5.79195">
        <ele>348.817</ele>
        <time>2020-09-02T17:59:54Z</time>
      </trkpt>
      <trkpt lat="43.67365" lon="5.792">
        <ele>348.833</ele>
        <time>2020-09-02T17:59:55Z</time>
      </trkpt>
      <trkpt lat="43.67358" lon="5.79205">
        <ele>349.286</ele>
        <time>2020-09-02T17:59:56Z</time>
      </trkpt>
      <trkpt lat="43.67354" lon="5.79207">
        <ele>349.527</ele>
        <time>2020-09-02T17:59:57Z</time>
      </trkpt>
      <trkpt lat="43.67348" lon="5.79214">
        <ele>349.868</ele>
        <time>2020-09-02T17:59:58Z</time>
      </trkpt>
      <trkpt lat="43.67344" lon="5.79219">
        <ele>350.214</ele>
        <time>2020-09-02T17:59:59Z</time>
      </trkpt>
      <trkpt lat="43.67339" lon="5.79225">
        <ele>351.108</ele>
        <time>2020-09-02T18:00:00Z</time>
      </trkpt>
      <trkpt lat="43.67334" lon="5.79228">
        <ele>351.76</ele>
        <time>2020-09-02T18:00:01Z</time>
      </trkpt>
      <trkpt lat="43.67328" lon="5.79231">
        <ele>352.219</ele>
        <time>2020-09-02T18:00:02Z</time>
      </trkpt>
      <trkpt lat="43.67322" lon="5.7923">
        <ele>352.819</ele>
        <time>2020-09-02T18:00:03Z</time>
      </trkpt>
      <trkpt lat="43.67315" lon="5.79228">
        <ele>352.716</ele>
        <time>2020-09-02T18:00:04Z</time>
      </trkpt>
      <trkpt lat="43.67309" lon="5.79225">
        <ele>353.277</ele>
        <time>2020-09-02T18:00:05Z</time>
      </trkpt>
      <trkpt lat="43.67301" lon="5.79222">
        <ele>353.285</ele>
        <time>2020-09-02T18:00:06Z</time>
      </trkpt>
      <trkpt lat="43.67293" lon="5.79219">
        <ele>353.431</ele>
        <time>2020-09-02T18:00:07Z</time>
      </trkpt>
      <trkpt lat="43.67284" lon="5.79215">
        <ele>353.594</ele>
        <time>2020-09-02T18:00:08Z</time>
      </trkpt>
      <trkpt lat="43.67275" lon="5.79211">
        <ele>353.715</ele>
        <time>2020-09-02T18:00:09Z</time>
      </trkpt>
      <trkpt lat="43.67267" lon="5.79205">
        <ele>353.865</ele>
        <time>2020-09-02T18:00:10Z</time>
      </trkpt>
      <trkpt lat="43.67258" lon="5.79202">
        <ele>355.011</ele>
        <time>2020-09-02T18:00:11Z</time>
      </trkpt>
      <trkpt lat="43.67252" lon="5.79203">
        <ele>355.208</ele>
        <time>2020-09-02T18:00:12Z</time>
      </trkpt>
      <trkpt lat="43.67245" lon="5.79205">
        <ele>355.679</ele>
        <time>2020-09-02T18:00:13Z</time>
      </trkpt>
      <trkpt lat="43.67238" lon="5.7921">
        <ele>355.928</ele>
        <time>2020-09-02T18:00:14Z</time>
      </trkpt>
      <trkpt lat="43.67231" lon="5.79216">
        <ele>355.948</ele>
        <time>2020-09-02T18:00:15Z</time>
      </trkpt>
      <trkpt lat="43.67226" lon="5.79224">
        <ele>355.635</ele>
        <time>2020-09-02T18:00:16Z</time>
      </trkpt>
      <trkpt lat="43.6722" lon="5.79233">
        <ele>356.096</ele>
        <time>2020-09-02T18:00:17Z</time>
      </trkpt>
      <trkpt lat="43.67215" lon="5.7924">
        <ele>356.744</ele>
        <time>2020-09-02T18:00:18Z</time>
      </trkpt>
      <trkpt lat="43.67211" lon="5.79246">
        <ele>357.36</ele>
        <time>2020-09-02T18:00:19Z</time>
      </trkpt>
      <trkpt lat="43.67203" lon="5.79251">
        <ele>361.933</ele>
        <time>2020-09-02T18:01:06Z</time>
      </trkpt>
      <trkpt lat="43.67198" lon="5.79251">
        <ele>361.788</ele>
        <time>2020-09-02T18:01:07Z</time>
      </trkpt>
      <trkpt lat="43.67193" lon="5.79251">
        <ele>361.824</ele>
        <time>2020-09-02T18:01:08Z</time>
      </trkpt>
      <trkpt lat="43.67188" lon="5.79252">
        <ele>361.826</ele>
        <time>2020-09-02T18:01:09Z</time>
      </trkpt>
      <trkpt lat="43.67181" lon="5.79253">
        <ele>362.008</ele>
        <time>2020-09-02T18:01:10Z</time>
      </trkpt>
      <trkpt lat="43.67174" lon="5.79255">
        <ele>362.076</ele>
        <time>2020-09-02T18:01:11Z</time>
      </trkpt>
      <trkpt lat="43.67167" lon="5.79255">
        <ele>362.385</ele>
        <time>2020-09-02T18:01:12Z</time>
      </trkpt>
      <trkpt lat="43.67161" lon="5.79253">
        <ele>362.975</ele>
        <time>2020-09-02T18:01:13Z</time>
      </trkpt>
      <trkpt lat="43.67155" lon="5.79249">
        <ele>363.552</ele>
        <time>2020-09-02T18:01:14Z</time>
      </trkpt>
      <trkpt lat="43.67149" lon="5.79243">
        <ele>364.433</ele>
        <time>2020-09-02T18:01:15Z</time>
      </trkpt>
      <trkpt lat="43.67143" lon="5.79237">
        <ele>364.821</ele>
        <time>2020-09-02T18:01:16Z</time>
      </trkpt>
      <trkpt lat="43.67135" lon="5.79232">
        <ele>365.347</ele>
        <time>2020-09-02T18:01:17Z</time>
      </trkpt>
      <trkpt lat="43.67127" lon="5.79227">
        <ele>365.22</ele>
        <time>2020-09-02T18:01:18Z</time>
      </trkpt>
      <trkpt lat="43.67119" lon="5.79221">
        <ele>365.444</ele>
        <time>2020-09-02T18:01:19Z</time>
      </trkpt>
      <trkpt lat="43.67112" lon="5.79214">
        <ele>365.905</ele>
        <time>2020-09-02T18:01:20Z</time>
      </trkpt>
      <trkpt lat="43.67105" lon="5.79208">
        <ele>366.115</ele>
        <time>2020-09-02T18:01:21Z</time>
      </trkpt>
      <trkpt lat="43.67099" lon="5.79201">
        <ele>366.308</ele>
        <time>2020-09-02T18:01:22Z</time>
      </trkpt>
      <trkpt lat="43.67092" lon="5.79193">
        <ele>367.072</ele>
        <time>2020-09-02T18:01:23Z</time>
      </trkpt>
      <trkpt lat="43.67086" lon="5.79184">
        <ele>367.591</ele>
        <time>2020-09-02T18:01:24Z</time>
      </trkpt>
      <trkpt lat="43.6708" lon="5.79175">
        <ele>368.211</ele>
        <time>2020-09-02T18:01:25Z</time>
      </trkpt>
      <trkpt lat="43.67074" lon="5.79164">
        <ele>369.268</ele>
        <time>2020-09-02T18:01:26Z</time>
      </trkpt>
      <trkpt lat="43.67067" lon="5.79153">
        <ele>370.169</ele>
        <time>2020-09-02T18:01:27Z</time>
      </trkpt>
      <trkpt lat="43.67061" lon="5.79142">
        <ele>370.827</ele>
        <time>2020-09-02T18:01:28Z</time>
      </trkpt>
      <trkpt lat="43.67055" lon="5.79132">
        <ele>372.083</ele>
        <time>2020-09-02T18:01:29Z</time>
      </trkpt>
      <trkpt lat="43.6705" lon="5.79124">
        <ele>372.746</ele>
        <time>2020-09-02T18:01:30Z</time>
      </trkpt>
      <trkpt lat="43.67043" lon="5.79116">
        <ele>373.315</ele>
        <time>2020-09-02T18:01:31Z</time>
      </trkpt>
      <trkpt lat="43.67037" lon="5.79111">
        <ele>374.465</ele>
        <time>2020-09-02T18:01:32Z</time>
      </trkpt>
      <trkpt lat="43.67032" lon="5.79107">
        <ele>375.311</ele>
        <time>2020-09-02T18:01:33Z</time>
      </trkpt>
      <trkpt lat="43.67028" lon="5.79104">
        <ele>376.208</ele>
        <time>2020-09-02T18:01:34Z</time>
      </trkpt>
      <trkpt lat="43.67023" lon="5.791">
        <ele>378.229</ele>
        <time>2020-09-02T18:01:45Z</time>
      </trkpt>
      <trkpt lat="43.67019" lon="5.79101">
        <ele>377.518</ele>
        <time>2020-09-02T18:01:47Z</time>
      </trkpt>
      <trkpt lat="43.6701" lon="5.79108">
        <ele>377.548</ele>
        <time>2020-09-02T18:01:49Z</time>
      </trkpt>
      <trkpt lat="43.67003" lon="5.79111">
        <ele>377.435</ele>
        <time>2020-09-02T18:01:50Z</time>
      </trkpt>
      <trkpt lat="43.66996" lon="5.79114">
        <ele>377.066</ele>
        <time>2020-09-02T18:01:51Z</time>
      </trkpt>
      <trkpt lat="43.66989" lon="5.79117">
        <ele>376.354</ele>
        <time>2020-09-02T18:01:52Z</time>
      </trkpt>
      <trkpt lat="43.66984" lon="5.79122">
        <ele>376.08</ele>
        <time>2020-09-02T18:01:53Z</time>
      </trkpt>
      <trkpt lat="43.66981" lon="5.79129">
        <ele>375.743</ele>
        <time>2020-09-02T18:01:54Z</time>
      </trkpt>
      <trkpt lat="43.66979" lon="5.79137">
        <ele>375.138</ele>
        <time>2020-09-02T18:01:55Z</time>
      </trkpt>
      <trkpt lat="43.66978" lon="5.79144">
        <ele>374.47</ele>
        <time>2020-09-02T18:01:56Z</time>
      </trkpt>
      <trkpt lat="43.66975" lon="5.79152">
        <ele>374.017</ele>
        <time>2020-09-02T18:01:57Z</time>
      </trkpt>
      <trkpt lat="43.66972" lon="5.7916">
        <ele>373.408</ele>
        <time>2020-09-02T18:01:58Z</time>
      </trkpt>
      <trkpt lat="43.66967" lon="5.79167">
        <ele>372.951</ele>
        <time>2020-09-02T18:01:59Z</time>
      </trkpt>
      <trkpt lat="43.66962" lon="5.79174">
        <ele>372.87</ele>
        <time>2020-09-02T18:02:00Z</time>
      </trkpt>
      <trkpt lat="43.66957" lon="5.79178">
        <ele>372.75</ele>
        <time>2020-09-02T18:02:01Z</time>
      </trkpt>
      <trkpt lat="43.66951" lon="5.79182">
        <ele>372.977</ele>
        <time>2020-09-02T18:02:02Z</time>
      </trkpt>
      <trkpt lat="43.66944" lon="5.79185">
        <ele>373.088</ele>
        <time>2020-09-02T18:02:03Z</time>
      </trkpt>
      <trkpt lat="43.66937" lon="5.79189">
        <ele>373.786</ele>
        <time>2020-09-02T18:02:04Z</time>
      </trkpt>
      <trkpt lat="43.6693" lon="5.79194">
        <ele>373.862</ele>
        <time>2020-09-02T18:02:05Z</time>
      </trkpt>
      <trkpt lat="43.66923" lon="5.79196">
        <ele>373.965</ele>
        <time>2020-09-02T18:02:06Z</time>
      </trkpt>
      <trkpt lat="43.6692" lon="5.792">
        <ele>374.253</ele>
        <time>2020-09-02T18:02:07Z</time>
      </trkpt>
      <trkpt lat="43.66916" lon="5.79212">
        <ele>375.004</ele>
        <time>2020-09-02T18:02:09Z</time>
      </trkpt>
      <trkpt lat="43.66915" lon="5.7922">
        <ele>375.414</ele>
        <time>2020-09-02T18:02:10Z</time>
      </trkpt>
      <trkpt lat="43.66912" lon="5.79229">
        <ele>375.608</ele>
        <time>2020-09-02T18:02:11Z</time>
      </trkpt>
      <trkpt lat="43.66909" lon="5.79238">
        <ele>375.993</ele>
        <time>2020-09-02T18:02:12Z</time>
      </trkpt>
      <trkpt lat="43.66905" lon="5.79247">
        <ele>376.382</ele>
        <time>2020-09-02T18:02:13Z</time>
      </trkpt>
      <trkpt lat="43.66902" lon="5.79255">
        <ele>376.212</ele>
        <time>2020-09-02T18:02:14Z</time>
      </trkpt>
      <trkpt lat="43.66898" lon="5.79262">
        <ele>376.689</ele>
        <time>2020-09-02T18:02:15Z</time>
      </trkpt>
      <trkpt lat="43.66893" lon="5.79269">
        <ele>376.84</ele>
        <time>2020-09-02T18:02:16Z</time>
      </trkpt>
      <trkpt lat="43.66888" lon="5.79276">
        <ele>376.858</ele>
        <time>2020-09-02T18:02:17Z</time>
      </trkpt>
      <trkpt lat="43.66883" lon="5.79283">
        <ele>377.344</ele>
        <time>2020-09-02T18:02:18Z</time>
      </trkpt>
      <trkpt lat="43.66878" lon="5.7929">
        <ele>377.537</ele>
        <time>2020-09-02T18:02:19Z</time>
      </trkpt>
      <trkpt lat="43.66874" lon="5.79296">
        <ele>378.141</ele>
        <time>2020-09-02T18:02:20Z</time>
      </trkpt>
      <trkpt lat="43.66868" lon="5.79302">
        <ele>378.881</ele>
        <time>2020-09-02T18:02:21Z</time>
      </trkpt>
      <trkpt lat="43.66861" lon="5.79308">
        <ele>378.809</ele>
        <time>2020-09-02T18:02:22Z</time>
      </trkpt>
      <trkpt lat="43.66854" lon="5.79315">
        <ele>379.308</ele>
        <time>2020-09-02T18:02:23Z</time>
      </trkpt>
      <trkpt lat="43.66847" lon="5.79322">
        <ele>379.862</ele>
        <time>2020-09-02T18:02:24Z</time>
      </trkpt>
      <trkpt lat="43.6684" lon="5.79331">
        <ele>380.551</ele>
        <time>2020-09-02T18:02:25Z</time>
      </trkpt>
      <trkpt lat="43.66834" lon="5.7934">
        <ele>380.661</ele>
        <time>2020-09-02T18:02:26Z</time>
      </trkpt>
      <trkpt lat="43.66828" lon="5.79347">
        <ele>380.868</ele>
        <time>2020-09-02T18:02:27Z</time>
      </trkpt>
      <trkpt lat="43.66821" lon="5.79352">
        <ele>381.039</ele>
        <time>2020-09-02T18:02:28Z</time>
      </trkpt>
      <trkpt lat="43.66813" lon="5.79355">
        <ele>381.387</ele>
        <time>2020-09-02T18:02:29Z</time>
      </trkpt>
      <trkpt lat="43.66805" lon="5.79357">
        <ele>381.413</ele>
        <time>2020-09-02T18:02:30Z</time>
      </trkpt>
      <trkpt lat="43.66797" lon="5.79358">
        <ele>381.216</ele>
        <time>2020-09-02T18:02:31Z</time>
      </trkpt>
      <trkpt lat="43.66788" lon="5.79362">
        <ele>381.489</ele>
        <time>2020-09-02T18:02:32Z</time>
      </trkpt>
      <trkpt lat="43.66779" lon="5.79368">
        <ele>382.006</ele>
        <time>2020-09-02T18:02:33Z</time>
      </trkpt>
      <trkpt lat="43.66769" lon="5.79374">
        <ele>382.826</ele>
        <time>2020-09-02T18:02:34Z</time>
      </trkpt>
      <trkpt lat="43.66758" lon="5.79379">
        <ele>383.208</ele>
        <time>2020-09-02T18:02:35Z</time>
      </trkpt>
      <trkpt lat="43.66747" lon="5.79384">
        <ele>383.516</ele>
        <time>2020-09-02T18:02:36Z</time>
      </trkpt>
      <trkpt lat="43.66736" lon="5.79389">
        <ele>384.115</ele>
        <time>2020-09-02T18:02:37Z</time>
      </trkpt>
      <trkpt lat="43.66725" lon="5.79393">
        <ele>384.375</ele>
        <time>2020-09-02T18:02:38Z</time>
      </trkpt>
      <trkpt lat="43.66715" lon="5.79398">
        <ele>384.582</ele>
        <time>2020-09-02T18:02:39Z</time>
      </trkpt>
      <trkpt lat="43.66705" lon="5.79404">
        <ele>384.583</ele>
        <time>2020-09-02T18:02:40Z</time>
      </trkpt>
      <trkpt lat="43.66694" lon="5.79411">
        <ele>385.361</ele>
        <time>2020-09-02T18:02:41Z</time>
      </trkpt>
      <trkpt lat="43.66684" lon="5.79417">
        <ele>385.167</ele>
        <time>2020-09-02T18:02:42Z</time>
      </trkpt>
      <trkpt lat="43.66674" lon="5.79424">
        <ele>385.38</ele>
        <time>2020-09-02T18:02:43Z</time>
      </trkpt>
      <trkpt lat="43.66663" lon="5.7943">
        <ele>386.023</ele>
        <time>2020-09-02T18:02:44Z</time>
      </trkpt>
      <trkpt lat="43.6665" lon="5.79435">
        <ele>386.383</ele>
        <time>2020-09-02T18:02:45Z</time>
      </trkpt>
      <trkpt lat="43.66637" lon="5.79439">
        <ele>386.511</ele>
        <time>2020-09-02T18:02:46Z</time>
      </trkpt>
      <trkpt lat="43.66624" lon="5.79443">
        <ele>387.008</ele>
        <time>2020-09-02T18:02:47Z</time>
      </trkpt>
      <trkpt lat="43.66612" lon="5.79447">
        <ele>386.96</ele>
        <time>2020-09-02T18:02:48Z</time>
      </trkpt>
      <trkpt lat="43.66602" lon="5.79449">
        <ele>387.129</ele>
        <time>2020-09-02T18:02:49Z</time>
      </trkpt>
      <trkpt lat="43.66594" lon="5.79449">
        <ele>387.879</ele>
        <time>2020-09-02T18:02:50Z</time>
      </trkpt>
      <trkpt lat="43.66586" lon="5.79447">
        <ele>388.786</ele>
        <time>2020-09-02T18:02:51Z</time>
      </trkpt>
      <trkpt lat="43.66579" lon="5.79449">
        <ele>389.727</ele>
        <time>2020-09-02T18:02:52Z</time>
      </trkpt>
      <trkpt lat="43.66574" lon="5.79454">
        <ele>389.745</ele>
        <time>2020-09-02T18:02:53Z</time>
      </trkpt>
      <trkpt lat="43.66568" lon="5.79461">
        <ele>389.981</ele>
        <time>2020-09-02T18:02:54Z</time>
      </trkpt>
      <trkpt lat="43.66564" lon="5.79469">
        <ele>391.124</ele>
        <time>2020-09-02T18:02:55Z</time>
      </trkpt>
      <trkpt lat="43.66558" lon="5.79473">
        <ele>391.277</ele>
        <time>2020-09-02T18:02:56Z</time>
      </trkpt>
      <trkpt lat="43.66553" lon="5.79474">
        <ele>391.961</ele>
        <time>2020-09-02T18:02:57Z</time>
      </trkpt>
      <trkpt lat="43.66547" lon="5.79476">
        <ele>392.327</ele>
        <time>2020-09-02T18:02:58Z</time>
      </trkpt>
      <trkpt lat="43.66542" lon="5.79479">
        <ele>392.208</ele>
        <time>2020-09-02T18:02:59Z</time>
      </trkpt>
      <trkpt lat="43.66538" lon="5.79483">
        <ele>392.785</ele>
        <time>2020-09-02T18:03:00Z</time>
      </trkpt>
      <trkpt lat="43.66534" lon="5.79489">
        <ele>393.284</ele>
        <time>2020-09-02T18:03:01Z</time>
      </trkpt>
      <trkpt lat="43.6653" lon="5.79497">
        <ele>393.644</ele>
        <time>2020-09-02T18:03:02Z</time>
      </trkpt>
      <trkpt lat="43.66527" lon="5.79502">
        <ele>394.011</ele>
        <time>2020-09-02T18:03:03Z</time>
      </trkpt>
      <trkpt lat="43.66522" lon="5.79507">
        <ele>394.712</ele>
        <time>2020-09-02T18:03:05Z</time>
      </trkpt>
      <trkpt lat="43.66518" lon="5.79508">
        <ele>394.98</ele>
        <time>2020-09-02T18:03:07Z</time>
      </trkpt>
      <trkpt lat="43.66512" lon="5.7951">
        <ele>394.856</ele>
        <time>2020-09-02T18:03:09Z</time>
      </trkpt>
      <trkpt lat="43.66505" lon="5.79509">
        <ele>394.989</ele>
        <time>2020-09-02T18:03:11Z</time>
      </trkpt>
      <trkpt lat="43.665" lon="5.79508">
        <ele>395.045</ele>
        <time>2020-09-02T18:03:12Z</time>
      </trkpt>
      <trkpt lat="43.66495" lon="5.79508">
        <ele>395.047</ele>
        <time>2020-09-02T18:03:13Z</time>
      </trkpt>
      <trkpt lat="43.66488" lon="5.79509">
        <ele>395.011</ele>
        <time>2020-09-02T18:03:15Z</time>
      </trkpt>
      <trkpt lat="43.66482" lon="5.79512">
        <ele>395.308</ele>
        <time>2020-09-02T18:03:17Z</time>
      </trkpt>
      <trkpt lat="43.66477" lon="5.79514">
        <ele>395.542</ele>
        <time>2020-09-02T18:03:19Z</time>
      </trkpt>
      <trkpt lat="43.66471" lon="5.79518">
        <ele>395.921</ele>
        <time>2020-09-02T18:03:22Z</time>
      </trkpt>
      <trkpt lat="43.66465" lon="5.79521">
        <ele>396.171</ele>
        <time>2020-09-02T18:03:24Z</time>
      </trkpt>
      <trkpt lat="43.66456" lon="5.79527">
        <ele>396.268</ele>
        <time>2020-09-02T18:03:26Z</time>
      </trkpt>
      <trkpt lat="43.66451" lon="5.7953">
        <ele>396.329</ele>
        <time>2020-09-02T18:03:27Z</time>
      </trkpt>
      <trkpt lat="43.66446" lon="5.79532">
        <ele>396.237</ele>
        <time>2020-09-02T18:03:28Z</time>
      </trkpt>
      <trkpt lat="43.6644" lon="5.79533">
        <ele>396.633</ele>
        <time>2020-09-02T18:03:29Z</time>
      </trkpt>
      <trkpt lat="43.66432" lon="5.79535">
        <ele>397.156</ele>
        <time>2020-09-02T18:03:30Z</time>
      </trkpt>
      <trkpt lat="43.66424" lon="5.79536">
        <ele>397.424</ele>
        <time>2020-09-02T18:03:31Z</time>
      </trkpt>
      <trkpt lat="43.66416" lon="5.79536">
        <ele>397.404</ele>
        <time>2020-09-02T18:03:32Z</time>
      </trkpt>
      <trkpt lat="43.66407" lon="5.79538">
        <ele>398.214</ele>
        <time>2020-09-02T18:03:33Z</time>
      </trkpt>
      <trkpt lat="43.66399" lon="5.7954">
        <ele>398.608</ele>
        <time>2020-09-02T18:03:34Z</time>
      </trkpt>
      <trkpt lat="43.66391" lon="5.79542">
        <ele>399.03</ele>
        <time>2020-09-02T18:03:35Z</time>
      </trkpt>
      <trkpt lat="43.66384" lon="5.79541">
        <ele>399.229</ele>
        <time>2020-09-02T18:03:36Z</time>
      </trkpt>
      <trkpt lat="43.66378" lon="5.79538">
        <ele>399.259</ele>
        <time>2020-09-02T18:03:37Z</time>
      </trkpt>
      <trkpt lat="43.66372" lon="5.79536">
        <ele>398.976</ele>
        <time>2020-09-02T18:03:38Z</time>
      </trkpt>
      <trkpt lat="43.66365" lon="5.79537">
        <ele>399.327</ele>
        <time>2020-09-02T18:03:39Z</time>
      </trkpt>
      <trkpt lat="43.66357" lon="5.79539">
        <ele>399.665</ele>
        <time>2020-09-02T18:03:40Z</time>
      </trkpt>
      <trkpt lat="43.66348" lon="5.79541">
        <ele>399.921</ele>
        <time>2020-09-02T18:03:41Z</time>
      </trkpt>
      <trkpt lat="43.66339" lon="5.79545">
        <ele>400.214</ele>
        <time>2020-09-02T18:03:42Z</time>
      </trkpt>
      <trkpt lat="43.6633" lon="5.79548">
        <ele>400.791</ele>
        <time>2020-09-02T18:03:43Z</time>
      </trkpt>
      <trkpt lat="43.6632" lon="5.79551">
        <ele>401.281</ele>
        <time>2020-09-02T18:03:44Z</time>
      </trkpt>
      <trkpt lat="43.6631" lon="5.79554">
        <ele>402.119</ele>
        <time>2020-09-02T18:03:45Z</time>
      </trkpt>
      <trkpt lat="43.66302" lon="5.79557">
        <ele>402.908</ele>
        <time>2020-09-02T18:03:46Z</time>
      </trkpt>
      <trkpt lat="43.66294" lon="5.79559">
        <ele>403.467</ele>
        <time>2020-09-02T18:03:47Z</time>
      </trkpt>
      <trkpt lat="43.66284" lon="5.79559">
        <ele>403.796</ele>
        <time>2020-09-02T18:03:48Z</time>
      </trkpt>
      <trkpt lat="43.66275" lon="5.79559">
        <ele>404.356</ele>
        <time>2020-09-02T18:03:49Z</time>
      </trkpt>
      <trkpt lat="43.66267" lon="5.79559">
        <ele>404.743</ele>
        <time>2020-09-02T18:03:50Z</time>
      </trkpt>
      <trkpt lat="43.66261" lon="5.79563">
        <ele>405.354</ele>
        <time>2020-09-02T18:03:51Z</time>
      </trkpt>
      <trkpt lat="43.66258" lon="5.79569">
        <ele>405.622</ele>
        <time>2020-09-02T18:03:52Z</time>
      </trkpt>
      <trkpt lat="43.66256" lon="5.79575">
        <ele>405.738</ele>
        <time>2020-09-02T18:03:53Z</time>
      </trkpt>
      <trkpt lat="43.66254" lon="5.79582">
        <ele>406.131</ele>
        <time>2020-09-02T18:03:54Z</time>
      </trkpt>
      <trkpt lat="43.66248" lon="5.79591">
        <ele>406.524</ele>
        <time>2020-09-02T18:03:56Z</time>
      </trkpt>
      <trkpt lat="43.66244" lon="5.79594">
        <ele>406.704</ele>
        <time>2020-09-02T18:03:57Z</time>
      </trkpt>
      <trkpt lat="43.6624" lon="5.796">
        <ele>406.714</ele>
        <time>2020-09-02T18:03:58Z</time>
      </trkpt>
      <trkpt lat="43.66237" lon="5.79605">
        <ele>406.308</ele>
        <time>2020-09-02T18:03:59Z</time>
      </trkpt>
      <trkpt lat="43.66235" lon="5.79612">
        <ele>406.52</ele>
        <time>2020-09-02T18:04:00Z</time>
      </trkpt>
      <trkpt lat="43.66235" lon="5.79619">
        <ele>407.169</ele>
        <time>2020-09-02T18:04:01Z</time>
      </trkpt>
      <trkpt lat="43.66237" lon="5.79628">
        <ele>407.999</ele>
        <time>2020-09-02T18:04:02Z</time>
      </trkpt>
      <trkpt lat="43.66237" lon="5.79638">
        <ele>408.376</ele>
        <time>2020-09-02T18:04:03Z</time>
      </trkpt>
      <trkpt lat="43.66237" lon="5.79646">
        <ele>408.977</ele>
        <time>2020-09-02T18:04:04Z</time>
      </trkpt>
      <trkpt lat="43.66238" lon="5.79656">
        <ele>408.325</ele>
        <time>2020-09-02T18:04:05Z</time>
      </trkpt>
      <trkpt lat="43.66235" lon="5.79668">
        <ele>409.041</ele>
        <time>2020-09-02T18:04:07Z</time>
      </trkpt>
      <trkpt lat="43.66228" lon="5.79672">
        <ele>409.814</ele>
        <time>2020-09-02T18:04:09Z</time>
      </trkpt>
      <trkpt lat="43.66224" lon="5.79673">
        <ele>409.417</ele>
        <time>2020-09-02T18:04:10Z</time>
      </trkpt>
      <trkpt lat="43.66215" lon="5.79667">
        <ele>408.587</ele>
        <time>2020-09-02T18:04:12Z</time>
      </trkpt>
      <trkpt lat="43.66211" lon="5.79661">
        <ele>408.215</ele>
        <time>2020-09-02T18:04:13Z</time>
      </trkpt>
      <trkpt lat="43.66205" lon="5.79652">
        <ele>408.208</ele>
        <time>2020-09-02T18:04:14Z</time>
      </trkpt>
      <trkpt lat="43.662" lon="5.79644">
        <ele>408.329</ele>
        <time>2020-09-02T18:04:15Z</time>
      </trkpt>
      <trkpt lat="43.66194" lon="5.79634">
        <ele>408.768</ele>
        <time>2020-09-02T18:04:16Z</time>
      </trkpt>
      <trkpt lat="43.66188" lon="5.79619">
        <ele>409.168</ele>
        <time>2020-09-02T18:04:17Z</time>
      </trkpt>
      <trkpt lat="43.66183" lon="5.79607">
        <ele>409.295</ele>
        <time>2020-09-02T18:04:18Z</time>
      </trkpt>
      <trkpt lat="43.6618" lon="5.79595">
        <ele>409.296</ele>
        <time>2020-09-02T18:04:19Z</time>
      </trkpt>
      <trkpt lat="43.66177" lon="5.79581">
        <ele>409.534</ele>
        <time>2020-09-02T18:04:20Z</time>
      </trkpt>
      <trkpt lat="43.66174" lon="5.79567">
        <ele>409.69</ele>
        <time>2020-09-02T18:04:21Z</time>
      </trkpt>
      <trkpt lat="43.66171" lon="5.79553">
        <ele>409.483</ele>
        <time>2020-09-02T18:04:22Z</time>
      </trkpt>
      <trkpt lat="43.6617" lon="5.79539">
        <ele>410.237</ele>
        <time>2020-09-02T18:04:23Z</time>
      </trkpt>
      <trkpt lat="43.66169" lon="5.79523">
        <ele>410.649</ele>
        <time>2020-09-02T18:04:24Z</time>
      </trkpt>
      <trkpt lat="43.66168" lon="5.79508">
        <ele>410.913</ele>
        <time>2020-09-02T18:04:25Z</time>
      </trkpt>
      <trkpt lat="43.6617" lon="5.79493">
        <ele>411.408</ele>
        <time>2020-09-02T18:04:26Z</time>
      </trkpt>
      <trkpt lat="43.66172" lon="5.79479">
        <ele>411.641</ele>
        <time>2020-09-02T18:04:27Z</time>
      </trkpt>
      <trkpt lat="43.66177" lon="5.79462">
        <ele>411.04</ele>
        <time>2020-09-02T18:04:28Z</time>
      </trkpt>
      <trkpt lat="43.66182" lon="5.79446">
        <ele>411.08</ele>
        <time>2020-09-02T18:04:29Z</time>
      </trkpt>
      <trkpt lat="43.66187" lon="5.79432">
        <ele>411.367</ele>
        <time>2020-09-02T18:04:30Z</time>
      </trkpt>
      <trkpt lat="43.66193" lon="5.79417">
        <ele>411.448</ele>
        <time>2020-09-02T18:04:31Z</time>
      </trkpt>
      <trkpt lat="43.662" lon="5.79405">
        <ele>411.686</ele>
        <time>2020-09-02T18:04:32Z</time>
      </trkpt>
      <trkpt lat="43.66207" lon="5.79394">
        <ele>411.842</ele>
        <time>2020-09-02T18:04:33Z</time>
      </trkpt>
      <trkpt lat="43.66213" lon="5.79385">
        <ele>412.585</ele>
        <time>2020-09-02T18:04:34Z</time>
      </trkpt>
      <trkpt lat="43.66218" lon="5.79379">
        <ele>412.835</ele>
        <time>2020-09-02T18:04:35Z</time>
      </trkpt>
      <trkpt lat="43.66221" lon="5.79376">
        <ele>412.786</ele>
        <time>2020-09-02T18:04:36Z</time>
      </trkpt>
      <trkpt lat="43.66229" lon="5.79373">
        <ele>413.014</ele>
        <time>2020-09-02T18:04:38Z</time>
      </trkpt>
      <trkpt lat="43.66233" lon="5.79377">
        <ele>413.608</ele>
        <time>2020-09-02T18:05:14Z</time>
      </trkpt>
      <trkpt lat="43.66238" lon="5.79371">
        <ele>413.531</ele>
        <time>2020-09-02T18:05:36Z</time>
      </trkpt>
      <trkpt lat="43.66241" lon="5.79365">
        <ele>413.65</ele>
        <time>2020-09-02T18:05:38Z</time>
      </trkpt>
      <trkpt lat="43.66242" lon="5.79358">
        <ele>413.85</ele>
        <time>2020-09-02T18:05:40Z</time>
      </trkpt>
      <trkpt lat="43.66243" lon="5.7935">
        <ele>412.857</ele>
        <time>2020-09-02T18:05:42Z</time>
      </trkpt>
      <trkpt lat="43.66245" lon="5.79343">
        <ele>413.188</ele>
        <time>2020-09-02T18:05:43Z</time>
      </trkpt>
      <trkpt lat="43.66249" lon="5.79337">
        <ele>412.816</ele>
        <time>2020-09-02T18:05:44Z</time>
      </trkpt>
      <trkpt lat="43.66255" lon="5.79332">
        <ele>412.632</ele>
        <time>2020-09-02T18:05:45Z</time>
      </trkpt>
      <trkpt lat="43.6626" lon="5.79324">
        <ele>412.615</ele>
        <time>2020-09-02T18:05:46Z</time>
      </trkpt>
      <trkpt lat="43.66266" lon="5.79316">
        <ele>412.586</ele>
        <time>2020-09-02T18:05:47Z</time>
      </trkpt>
      <trkpt lat="43.66272" lon="5.79307">
        <ele>412.66</ele>
        <time>2020-09-02T18:05:48Z</time>
      </trkpt>
      <trkpt lat="43.66279" lon="5.79298">
        <ele>412.526</ele>
        <time>2020-09-02T18:05:49Z</time>
      </trkpt>
      <trkpt lat="43.66285" lon="5.79288">
        <ele>412.608</ele>
        <time>2020-09-02T18:05:50Z</time>
      </trkpt>
      <trkpt lat="43.66291" lon="5.79277">
        <ele>412.766</ele>
        <time>2020-09-02T18:05:51Z</time>
      </trkpt>
      <trkpt lat="43.66296" lon="5.79265">
        <ele>412.985</ele>
        <time>2020-09-02T18:05:52Z</time>
      </trkpt>
      <trkpt lat="43.66301" lon="5.79254">
        <ele>412.845</ele>
        <time>2020-09-02T18:05:53Z</time>
      </trkpt>
      <trkpt lat="43.66305" lon="5.79241">
        <ele>412.612</ele>
        <time>2020-09-02T18:05:54Z</time>
      </trkpt>
      <trkpt lat="43.66306" lon="5.79225">
        <ele>412.943</ele>
        <time>2020-09-02T18:05:55Z</time>
      </trkpt>
      <trkpt lat="43.66308" lon="5.79209">
        <ele>413.061</ele>
        <time>2020-09-02T18:05:56Z</time>
      </trkpt>
      <trkpt lat="43.66308" lon="5.79192">
        <ele>413.567</ele>
        <time>2020-09-02T18:05:57Z</time>
      </trkpt>
      <trkpt lat="43.66307" lon="5.79176">
        <ele>413.34</ele>
        <time>2020-09-02T18:05:58Z</time>
      </trkpt>
      <trkpt lat="43.66307" lon="5.79159">
        <ele>414.182</ele>
        <time>2020-09-02T18:05:59Z</time>
      </trkpt>
      <trkpt lat="43.66306" lon="5.79143">
        <ele>414.243</ele>
        <time>2020-09-02T18:06:00Z</time>
      </trkpt>
      <trkpt lat="43.66306" lon="5.79126">
        <ele>414.817</ele>
        <time>2020-09-02T18:06:01Z</time>
      </trkpt>
      <trkpt lat="43.66305" lon="5.7911">
        <ele>414.608</ele>
        <time>2020-09-02T18:06:02Z</time>
      </trkpt>
      <trkpt lat="43.66304" lon="5.79094">
        <ele>414.676</ele>
        <time>2020-09-02T18:06:03Z</time>
      </trkpt>
      <trkpt lat="43.66305" lon="5.79078">
        <ele>414.475</ele>
        <time>2020-09-02T18:06:04Z</time>
      </trkpt>
      <trkpt lat="43.66306" lon="5.79062">
        <ele>413.495</ele>
        <time>2020-09-02T18:06:05Z</time>
      </trkpt>
      <trkpt lat="43.66308" lon="5.79046">
        <ele>413.272</ele>
        <time>2020-09-02T18:06:06Z</time>
      </trkpt>
      <trkpt lat="43.66312" lon="5.7903">
        <ele>412.483</ele>
        <time>2020-09-02T18:06:07Z</time>
      </trkpt>
      <trkpt lat="43.66318" lon="5.79016">
        <ele>412.221</ele>
        <time>2020-09-02T18:06:08Z</time>
      </trkpt>
      <trkpt lat="43.66327" lon="5.79003">
        <ele>411.857</ele>
        <time>2020-09-02T18:06:09Z</time>
      </trkpt>
      <trkpt lat="43.66336" lon="5.7899">
        <ele>411.57</ele>
        <time>2020-09-02T18:06:10Z</time>
      </trkpt>
      <trkpt lat="43.66345" lon="5.78977">
        <ele>410.611</ele>
        <time>2020-09-02T18:06:11Z</time>
      </trkpt>
      <trkpt lat="43.66352" lon="5.78961">
        <ele>409.921</ele>
        <time>2020-09-02T18:06:12Z</time>
      </trkpt>
      <trkpt lat="43.66358" lon="5.78944">
        <ele>409.003</ele>
        <time>2020-09-02T18:06:13Z</time>
      </trkpt>
      <trkpt lat="43.66361" lon="5.78925">
        <ele>408.008</ele>
        <time>2020-09-02T18:06:14Z</time>
      </trkpt>
      <trkpt lat="43.66363" lon="5.78907">
        <ele>407.879</ele>
        <time>2020-09-02T18:06:15Z</time>
      </trkpt>
      <trkpt lat="43.66363" lon="5.78887">
        <ele>407.518</ele>
        <time>2020-09-02T18:06:16Z</time>
      </trkpt>
      <trkpt lat="43.6636" lon="5.78867">
        <ele>407.368</ele>
        <time>2020-09-02T18:06:17Z</time>
      </trkpt>
      <trkpt lat="43.66356" lon="5.78849">
        <ele>407.155</ele>
        <time>2020-09-02T18:06:18Z</time>
      </trkpt>
      <trkpt lat="43.66349" lon="5.7883">
        <ele>407.146</ele>
        <time>2020-09-02T18:06:19Z</time>
      </trkpt>
      <trkpt lat="43.66342" lon="5.78812">
        <ele>406.474</ele>
        <time>2020-09-02T18:06:20Z</time>
      </trkpt>
      <trkpt lat="43.66336" lon="5.78793">
        <ele>405.44</ele>
        <time>2020-09-02T18:06:21Z</time>
      </trkpt>
      <trkpt lat="43.66332" lon="5.78773">
        <ele>404.913</ele>
        <time>2020-09-02T18:06:22Z</time>
      </trkpt>
      <trkpt lat="43.6633" lon="5.78751">
        <ele>404.219</ele>
        <time>2020-09-02T18:06:23Z</time>
      </trkpt>
      <trkpt lat="43.66329" lon="5.7873">
        <ele>403.609</ele>
        <time>2020-09-02T18:06:24Z</time>
      </trkpt>
      <trkpt lat="43.66333" lon="5.78709">
        <ele>402.719</ele>
        <time>2020-09-02T18:06:25Z</time>
      </trkpt>
      <trkpt lat="43.66336" lon="5.78688">
        <ele>402.108</ele>
        <time>2020-09-02T18:06:26Z</time>
      </trkpt>
      <trkpt lat="43.6634" lon="5.78667">
        <ele>401.859</ele>
        <time>2020-09-02T18:06:27Z</time>
      </trkpt>
      <trkpt lat="43.66344" lon="5.78647">
        <ele>400.888</ele>
        <time>2020-09-02T18:06:28Z</time>
      </trkpt>
      <trkpt lat="43.66349" lon="5.78625">
        <ele>399.918</ele>
        <time>2020-09-02T18:06:29Z</time>
      </trkpt>
      <trkpt lat="43.66353" lon="5.78605">
        <ele>399.465</ele>
        <time>2020-09-02T18:06:30Z</time>
      </trkpt>
      <trkpt lat="43.66358" lon="5.78584">
        <ele>398.426</ele>
        <time>2020-09-02T18:06:31Z</time>
      </trkpt>
      <trkpt lat="43.66362" lon="5.78564">
        <ele>397.444</ele>
        <time>2020-09-02T18:06:32Z</time>
      </trkpt>
      <trkpt lat="43.66367" lon="5.78543">
        <ele>396.93</ele>
        <time>2020-09-02T18:06:33Z</time>
      </trkpt>
      <trkpt lat="43.66371" lon="5.78521">
        <ele>396.693</ele>
        <time>2020-09-02T18:06:34Z</time>
      </trkpt>
      <trkpt lat="43.66375" lon="5.78499">
        <ele>395.634</ele>
        <time>2020-09-02T18:06:35Z</time>
      </trkpt>
      <trkpt lat="43.66379" lon="5.78478">
        <ele>395.155</ele>
        <time>2020-09-02T18:06:36Z</time>
      </trkpt>
      <trkpt lat="43.66383" lon="5.78456">
        <ele>394.71</ele>
        <time>2020-09-02T18:06:37Z</time>
      </trkpt>
      <trkpt lat="43.66387" lon="5.78435">
        <ele>394.108</ele>
        <time>2020-09-02T18:06:38Z</time>
      </trkpt>
      <trkpt lat="43.66391" lon="5.78415">
        <ele>393.691</ele>
        <time>2020-09-02T18:06:39Z</time>
      </trkpt>
      <trkpt lat="43.66394" lon="5.78397">
        <ele>393.21</ele>
        <time>2020-09-02T18:06:40Z</time>
      </trkpt>
      <trkpt lat="43.66396" lon="5.78379">
        <ele>392.96</ele>
        <time>2020-09-02T18:06:41Z</time>
      </trkpt>
      <trkpt lat="43.66397" lon="5.78363">
        <ele>393.027</ele>
        <time>2020-09-02T18:06:42Z</time>
      </trkpt>
      <trkpt lat="43.66395" lon="5.78348">
        <ele>392.898</ele>
        <time>2020-09-02T18:06:43Z</time>
      </trkpt>
      <trkpt lat="43.66391" lon="5.78337">
        <ele>393.346</ele>
        <time>2020-09-02T18:06:44Z</time>
      </trkpt>
      <trkpt lat="43.66386" lon="5.78325">
        <ele>392.822</ele>
        <time>2020-09-02T18:06:45Z</time>
      </trkpt>
      <trkpt lat="43.66382" lon="5.78315">
        <ele>393.795</ele>
        <time>2020-09-02T18:06:46Z</time>
      </trkpt>
      <trkpt lat="43.66377" lon="5.78307">
        <ele>392.961</ele>
        <time>2020-09-02T18:06:47Z</time>
      </trkpt>
      <trkpt lat="43.66374" lon="5.78302">
        <ele>392.521</ele>
        <time>2020-09-02T18:06:48Z</time>
      </trkpt>
      <trkpt lat="43.66374" lon="5.7829">
        <ele>391.713</ele>
        <time>2020-09-02T18:06:50Z</time>
      </trkpt>
      <trkpt lat="43.66377" lon="5.78285">
        <ele>391.708</ele>
        <time>2020-09-02T18:06:51Z</time>
      </trkpt>
      <trkpt lat="43.66381" lon="5.78278">
        <ele>392.074</ele>
        <time>2020-09-02T18:06:52Z</time>
      </trkpt>
      <trkpt lat="43.66387" lon="5.78273">
        <ele>391.723</ele>
        <time>2020-09-02T18:06:53Z</time>
      </trkpt>
      <trkpt lat="43.66394" lon="5.78271">
        <ele>392.183</ele>
        <time>2020-09-02T18:06:54Z</time>
      </trkpt>
      <trkpt lat="43.66399" lon="5.78269">
        <ele>392.41</ele>
        <time>2020-09-02T18:06:55Z</time>
      </trkpt>
      <trkpt lat="43.66405" lon="5.78269">
        <ele>393.581</ele>
        <time>2020-09-02T18:06:56Z</time>
      </trkpt>
      <trkpt lat="43.6641" lon="5.78265">
        <ele>394.139</ele>
        <time>2020-09-02T18:06:57Z</time>
      </trkpt>
      <trkpt lat="43.66414" lon="5.78261">
        <ele>394.475</ele>
        <time>2020-09-02T18:06:58Z</time>
      </trkpt>
      <trkpt lat="43.6642" lon="5.78255">
        <ele>395.168</ele>
        <time>2020-09-02T18:06:59Z</time>
      </trkpt>
      <trkpt lat="43.66427" lon="5.7825">
        <ele>394.992</ele>
        <time>2020-09-02T18:07:00Z</time>
      </trkpt>
      <trkpt lat="43.66434" lon="5.78244">
        <ele>395.773</ele>
        <time>2020-09-02T18:07:01Z</time>
      </trkpt>
      <trkpt lat="43.66443" lon="5.78238">
        <ele>397.62</ele>
        <time>2020-09-02T18:07:02Z</time>
      </trkpt>
      <trkpt lat="43.66453" lon="5.78233">
        <ele>398.408</ele>
        <time>2020-09-02T18:07:03Z</time>
      </trkpt>
      <trkpt lat="43.66462" lon="5.78228">
        <ele>399.497</ele>
        <time>2020-09-02T18:07:04Z</time>
      </trkpt>
      <trkpt lat="43.66472" lon="5.78224">
        <ele>400.336</ele>
        <time>2020-09-02T18:07:05Z</time>
      </trkpt>
      <trkpt lat="43.66479" lon="5.78219">
        <ele>402.666</ele>
        <time>2020-09-02T18:07:06Z</time>
      </trkpt>
      <trkpt lat="43.66486" lon="5.78215">
        <ele>403.113</ele>
        <time>2020-09-02T18:07:07Z</time>
      </trkpt>
      <trkpt lat="43.66492" lon="5.78207">
        <ele>403.824</ele>
        <time>2020-09-02T18:07:08Z</time>
      </trkpt>
      <trkpt lat="43.66498" lon="5.78199">
        <ele>404.912</ele>
        <time>2020-09-02T18:07:09Z</time>
      </trkpt>
      <trkpt lat="43.66505" lon="5.7819">
        <ele>405.358</ele>
        <time>2020-09-02T18:07:10Z</time>
      </trkpt>
      <trkpt lat="43.6651" lon="5.78182">
        <ele>407.381</ele>
        <time>2020-09-02T18:07:11Z</time>
      </trkpt>
      <trkpt lat="43.66515" lon="5.78179">
        <ele>408.565</ele>
        <time>2020-09-02T18:07:12Z</time>
      </trkpt>
      <trkpt lat="43.66518" lon="5.78174">
        <ele>409.168</ele>
        <time>2020-09-02T18:07:13Z</time>
      </trkpt>
      <trkpt lat="43.66516" lon="5.78163">
        <ele>408.614</ele>
        <time>2020-09-02T18:07:15Z</time>
      </trkpt>
      <trkpt lat="43.66516" lon="5.78153">
        <ele>409.608</ele>
        <time>2020-09-02T18:07:17Z</time>
      </trkpt>
      <trkpt lat="43.66516" lon="5.78147">
        <ele>409.814</ele>
        <time>2020-09-02T18:07:18Z</time>
      </trkpt>
      <trkpt lat="43.66518" lon="5.78137">
        <ele>410.923</ele>
        <time>2020-09-02T18:07:20Z</time>
      </trkpt>
      <trkpt lat="43.6652" lon="5.7813">
        <ele>411.183</ele>
        <time>2020-09-02T18:07:21Z</time>
      </trkpt>
      <trkpt lat="43.66522" lon="5.78121">
        <ele>411.52</ele>
        <time>2020-09-02T18:07:22Z</time>
      </trkpt>
      <trkpt lat="43.66525" lon="5.78111">
        <ele>411.681</ele>
        <time>2020-09-02T18:07:23Z</time>
      </trkpt>
      <trkpt lat="43.66529" lon="5.781">
        <ele>411.749</ele>
        <time>2020-09-02T18:07:24Z</time>
      </trkpt>
      <trkpt lat="43.66533" lon="5.7809">
        <ele>412.155</ele>
        <time>2020-09-02T18:07:25Z</time>
      </trkpt>
      <trkpt lat="43.66537" lon="5.7808">
        <ele>411.888</ele>
        <time>2020-09-02T18:07:26Z</time>
      </trkpt>
      <trkpt lat="43.6654" lon="5.7807">
        <ele>410.887</ele>
        <time>2020-09-02T18:07:27Z</time>
      </trkpt>
      <trkpt lat="43.66542" lon="5.78061">
        <ele>410.642</ele>
        <time>2020-09-02T18:07:28Z</time>
      </trkpt>
      <trkpt lat="43.66541" lon="5.78051">
        <ele>411.226</ele>
        <time>2020-09-02T18:07:29Z</time>
      </trkpt>
      <trkpt lat="43.66541" lon="5.78041">
        <ele>411.508</ele>
        <time>2020-09-02T18:07:30Z</time>
      </trkpt>
      <trkpt lat="43.66541" lon="5.78029">
        <ele>411.466</ele>
        <time>2020-09-02T18:07:31Z</time>
      </trkpt>
      <trkpt lat="43.66543" lon="5.78017">
        <ele>411.685</ele>
        <time>2020-09-02T18:07:32Z</time>
      </trkpt>
      <trkpt lat="43.66546" lon="5.78008">
        <ele>412.315</ele>
        <time>2020-09-02T18:07:33Z</time>
      </trkpt>
      <trkpt lat="43.66547" lon="5.78">
        <ele>411.772</ele>
        <time>2020-09-02T18:07:34Z</time>
      </trkpt>
      <trkpt lat="43.66549" lon="5.77994">
        <ele>411.133</ele>
        <time>2020-09-02T18:07:35Z</time>
      </trkpt>
      <trkpt lat="43.6655" lon="5.77985">
        <ele>411.081</ele>
        <time>2020-09-02T18:07:37Z</time>
      </trkpt>
      <trkpt lat="43.66543" lon="5.7798">
        <ele>410.877</ele>
        <time>2020-09-02T18:07:39Z</time>
      </trkpt>
      <trkpt lat="43.66538" lon="5.77979">
        <ele>410.68</ele>
        <time>2020-09-02T18:07:40Z</time>
      </trkpt>
      <trkpt lat="43.66532" lon="5.7798">
        <ele>410.633</ele>
        <time>2020-09-02T18:07:41Z</time>
      </trkpt>
      <trkpt lat="43.66525" lon="5.7798">
        <ele>411.323</ele>
        <time>2020-09-02T18:07:42Z</time>
      </trkpt>
      <trkpt lat="43.66518" lon="5.77978">
        <ele>411.415</ele>
        <time>2020-09-02T18:07:43Z</time>
      </trkpt>
      <trkpt lat="43.66512" lon="5.77973">
        <ele>411.308</ele>
        <time>2020-09-02T18:07:44Z</time>
      </trkpt>
      <trkpt lat="43.66507" lon="5.77966">
        <ele>411.311</ele>
        <time>2020-09-02T18:07:45Z</time>
      </trkpt>
      <trkpt lat="43.66502" lon="5.77958">
        <ele>411.45</ele>
        <time>2020-09-02T18:07:46Z</time>
      </trkpt>
      <trkpt lat="43.66496" lon="5.77952">
        <ele>411.24</ele>
        <time>2020-09-02T18:07:47Z</time>
      </trkpt>
      <trkpt lat="43.6649" lon="5.7795">
        <ele>412.417</ele>
        <time>2020-09-02T18:07:48Z</time>
      </trkpt>
      <trkpt lat="43.6648" lon="5.77947">
        <ele>412.698</ele>
        <time>2020-09-02T18:07:49Z</time>
      </trkpt>
      <trkpt lat="43.6647" lon="5.77945">
        <ele>412.346</ele>
        <time>2020-09-02T18:07:50Z</time>
      </trkpt>
      <trkpt lat="43.66463" lon="5.77942">
        <ele>411.312</ele>
        <time>2020-09-02T18:07:51Z</time>
      </trkpt>
      <trkpt lat="43.66456" lon="5.77938">
        <ele>410.625</ele>
        <time>2020-09-02T18:07:52Z</time>
      </trkpt>
      <trkpt lat="43.6645" lon="5.77931">
        <ele>410.192</ele>
        <time>2020-09-02T18:07:53Z</time>
      </trkpt>
      <trkpt lat="43.66447" lon="5.7792">
        <ele>409.873</ele>
        <time>2020-09-02T18:07:54Z</time>
      </trkpt>
      <trkpt lat="43.66443" lon="5.77911">
        <ele>409.22</ele>
        <time>2020-09-02T18:07:55Z</time>
      </trkpt>
      <trkpt lat="43.66439" lon="5.779">
        <ele>408.908</ele>
        <time>2020-09-02T18:07:56Z</time>
      </trkpt>
      <trkpt lat="43.66436" lon="5.77889">
        <ele>408.627</ele>
        <time>2020-09-02T18:07:57Z</time>
      </trkpt>
      <trkpt lat="43.66434" lon="5.77877">
        <ele>407.616</ele>
        <time>2020-09-02T18:07:58Z</time>
      </trkpt>
      <trkpt lat="43.66432" lon="5.77865">
        <ele>406.176</ele>
        <time>2020-09-02T18:07:59Z</time>
      </trkpt>
      <trkpt lat="43.6643" lon="5.77854">
        <ele>406.133</ele>
        <time>2020-09-02T18:08:00Z</time>
      </trkpt>
      <trkpt lat="43.66428" lon="5.77843">
        <ele>405.594</ele>
        <time>2020-09-02T18:08:01Z</time>
      </trkpt>
      <trkpt lat="43.66425" lon="5.77832">
        <ele>404.492</ele>
        <time>2020-09-02T18:08:02Z</time>
      </trkpt>
      <trkpt lat="43.66421" lon="5.77822">
        <ele>403.528</ele>
        <time>2020-09-02T18:08:03Z</time>
      </trkpt>
      <trkpt lat="43.66416" lon="5.7781">
        <ele>403.211</ele>
        <time>2020-09-02T18:08:04Z</time>
      </trkpt>
      <trkpt lat="43.6641" lon="5.77799">
        <ele>403.384</ele>
        <time>2020-09-02T18:08:05Z</time>
      </trkpt>
      <trkpt lat="43.66404" lon="5.7779">
        <ele>403.507</ele>
        <time>2020-09-02T18:08:06Z</time>
      </trkpt>
      <trkpt lat="43.66398" lon="5.77781">
        <ele>402.717</ele>
        <time>2020-09-02T18:08:07Z</time>
      </trkpt>
      <trkpt lat="43.66392" lon="5.77773">
        <ele>402.908</ele>
        <time>2020-09-02T18:08:08Z</time>
      </trkpt>
      <trkpt lat="43.66385" lon="5.77773">
        <ele>404.036</ele>
        <time>2020-09-02T18:08:09Z</time>
      </trkpt>
      <trkpt lat="43.66379" lon="5.7777">
        <ele>405.165</ele>
        <time>2020-09-02T18:08:10Z</time>
      </trkpt>
      <trkpt lat="43.66373" lon="5.77774">
        <ele>405.195</ele>
        <time>2020-09-02T18:08:11Z</time>
      </trkpt>
      <trkpt lat="43.66365" lon="5.77777">
        <ele>404.942</ele>
        <time>2020-09-02T18:08:12Z</time>
      </trkpt>
      <trkpt lat="43.66358" lon="5.77779">
        <ele>404.183</ele>
        <time>2020-09-02T18:08:13Z</time>
      </trkpt>
      <trkpt lat="43.6635" lon="5.77776">
        <ele>404.061</ele>
        <time>2020-09-02T18:08:14Z</time>
      </trkpt>
      <trkpt lat="43.66342" lon="5.77774">
        <ele>404.087</ele>
        <time>2020-09-02T18:08:15Z</time>
      </trkpt>
      <trkpt lat="43.66334" lon="5.77774">
        <ele>404.52</ele>
        <time>2020-09-02T18:08:16Z</time>
      </trkpt>
      <trkpt lat="43.66325" lon="5.77776">
        <ele>404.543</ele>
        <time>2020-09-02T18:08:17Z</time>
      </trkpt>
      <trkpt lat="43.66315" lon="5.7778">
        <ele>405.564</ele>
        <time>2020-09-02T18:08:18Z</time>
      </trkpt>
      <trkpt lat="43.66305" lon="5.77782">
        <ele>406.91</ele>
        <time>2020-09-02T18:08:19Z</time>
      </trkpt>
      <trkpt lat="43.66296" lon="5.77782">
        <ele>407.208</ele>
        <time>2020-09-02T18:08:20Z</time>
      </trkpt>
      <trkpt lat="43.66288" lon="5.77782">
        <ele>407.082</ele>
        <time>2020-09-02T18:08:21Z</time>
      </trkpt>
      <trkpt lat="43.66283" lon="5.77777">
        <ele>406.971</ele>
        <time>2020-09-02T18:08:23Z</time>
      </trkpt>
      <trkpt lat="43.66282" lon="5.77771">
        <ele>407.361</ele>
        <time>2020-09-02T18:08:25Z</time>
      </trkpt>
      <trkpt lat="43.66293" lon="5.77762">
        <ele>407.628</ele>
        <time>2020-09-02T18:08:27Z</time>
      </trkpt>
      <trkpt lat="43.66298" lon="5.77759">
        <ele>406.729</ele>
        <time>2020-09-02T18:08:28Z</time>
      </trkpt>
      <trkpt lat="43.66306" lon="5.77757">
        <ele>406.197</ele>
        <time>2020-09-02T18:08:29Z</time>
      </trkpt>
      <trkpt lat="43.66314" lon="5.77754">
        <ele>405.653</ele>
        <time>2020-09-02T18:08:30Z</time>
      </trkpt>
      <trkpt lat="43.6632" lon="5.77751">
        <ele>405.156</ele>
        <time>2020-09-02T18:08:31Z</time>
      </trkpt>
      <trkpt lat="43.66327" lon="5.77746">
        <ele>405.154</ele>
        <time>2020-09-02T18:08:32Z</time>
      </trkpt>
      <trkpt lat="43.66334" lon="5.77737">
        <ele>404.756</ele>
        <time>2020-09-02T18:08:33Z</time>
      </trkpt>
      <trkpt lat="43.66341" lon="5.77727">
        <ele>404.111</ele>
        <time>2020-09-02T18:08:34Z</time>
      </trkpt>
      <trkpt lat="43.66349" lon="5.7772">
        <ele>403.308</ele>
        <time>2020-09-02T18:08:35Z</time>
      </trkpt>
      <trkpt lat="43.66357" lon="5.77714">
        <ele>402.543</ele>
        <time>2020-09-02T18:08:36Z</time>
      </trkpt>
      <trkpt lat="43.66366" lon="5.77705">
        <ele>401.992</ele>
        <time>2020-09-02T18:08:37Z</time>
      </trkpt>
      <trkpt lat="43.66374" lon="5.77698">
        <ele>401.362</ele>
        <time>2020-09-02T18:08:38Z</time>
      </trkpt>
      <trkpt lat="43.6638" lon="5.77689">
        <ele>400.749</ele>
        <time>2020-09-02T18:08:39Z</time>
      </trkpt>
      <trkpt lat="43.66388" lon="5.77683">
        <ele>400.07</ele>
        <time>2020-09-02T18:08:40Z</time>
      </trkpt>
      <trkpt lat="43.66395" lon="5.77678">
        <ele>399.558</ele>
        <time>2020-09-02T18:08:41Z</time>
      </trkpt>
      <trkpt lat="43.66401" lon="5.77671">
        <ele>398.654</ele>
        <time>2020-09-02T18:08:42Z</time>
      </trkpt>
      <trkpt lat="43.66407" lon="5.77663">
        <ele>398.597</ele>
        <time>2020-09-02T18:08:43Z</time>
      </trkpt>
      <trkpt lat="43.66413" lon="5.77658">
        <ele>397.923</ele>
        <time>2020-09-02T18:08:44Z</time>
      </trkpt>
      <trkpt lat="43.66419" lon="5.77652">
        <ele>397.083</ele>
        <time>2020-09-02T18:08:45Z</time>
      </trkpt>
      <trkpt lat="43.66425" lon="5.77644">
        <ele>396.411</ele>
        <time>2020-09-02T18:08:46Z</time>
      </trkpt>
      <trkpt lat="43.6643" lon="5.77636">
        <ele>395.808</ele>
        <time>2020-09-02T18:08:47Z</time>
      </trkpt>
      <trkpt lat="43.66435" lon="5.77629">
        <ele>395.46</ele>
        <time>2020-09-02T18:08:48Z</time>
      </trkpt>
      <trkpt lat="43.66441" lon="5.77623">
        <ele>394.869</ele>
        <time>2020-09-02T18:08:49Z</time>
      </trkpt>
      <trkpt lat="43.66448" lon="5.77617">
        <ele>393.839</ele>
        <time>2020-09-02T18:08:50Z</time>
      </trkpt>
      <trkpt lat="43.66456" lon="5.77612">
        <ele>393.266</ele>
        <time>2020-09-02T18:08:51Z</time>
      </trkpt>
      <trkpt lat="43.66463" lon="5.77609">
        <ele>393.257</ele>
        <time>2020-09-02T18:08:52Z</time>
      </trkpt>
      <trkpt lat="43.66471" lon="5.77605">
        <ele>392.875</ele>
        <time>2020-09-02T18:08:53Z</time>
      </trkpt>
      <trkpt lat="43.66478" lon="5.776">
        <ele>391.971</ele>
        <time>2020-09-02T18:08:54Z</time>
      </trkpt>
      <trkpt lat="43.66485" lon="5.77596">
        <ele>391.234</ele>
        <time>2020-09-02T18:08:55Z</time>
      </trkpt>
      <trkpt lat="43.66494" lon="5.77593">
        <ele>390.435</ele>
        <time>2020-09-02T18:08:56Z</time>
      </trkpt>
      <trkpt lat="43.66501" lon="5.77592">
        <ele>389.586</ele>
        <time>2020-09-02T18:08:57Z</time>
      </trkpt>
      <trkpt lat="43.66508" lon="5.77591">
        <ele>388.914</ele>
        <time>2020-09-02T18:08:58Z</time>
      </trkpt>
      <trkpt lat="43.66515" lon="5.7759">
        <ele>387.608</ele>
        <time>2020-09-02T18:08:59Z</time>
      </trkpt>
      <trkpt lat="43.66521" lon="5.7759">
        <ele>386.961</ele>
        <time>2020-09-02T18:09:00Z</time>
      </trkpt>
      <trkpt lat="43.66526" lon="5.77594">
        <ele>385.81</ele>
        <time>2020-09-02T18:09:01Z</time>
      </trkpt>
      <trkpt lat="43.66531" lon="5.77601">
        <ele>385.48</ele>
        <time>2020-09-02T18:09:03Z</time>
      </trkpt>
      <trkpt lat="43.66535" lon="5.77605">
        <ele>385.177</ele>
        <time>2020-09-02T18:09:05Z</time>
      </trkpt>
      <trkpt lat="43.66537" lon="5.77598">
        <ele>384.158</ele>
        <time>2020-09-02T18:09:14Z</time>
      </trkpt>
      <trkpt lat="43.6654" lon="5.77584">
        <ele>383.196</ele>
        <time>2020-09-02T18:09:16Z</time>
      </trkpt>
      <trkpt lat="43.66544" lon="5.77578">
        <ele>383.052</ele>
        <time>2020-09-02T18:09:17Z</time>
      </trkpt>
      <trkpt lat="43.66547" lon="5.77573">
        <ele>382.355</ele>
        <time>2020-09-02T18:09:18Z</time>
      </trkpt>
      <trkpt lat="43.6655" lon="5.77567">
        <ele>382.414</ele>
        <time>2020-09-02T18:09:19Z</time>
      </trkpt>
      <trkpt lat="43.66552" lon="5.77561">
        <ele>382.154</ele>
        <time>2020-09-02T18:09:20Z</time>
      </trkpt>
      <trkpt lat="43.66554" lon="5.77553">
        <ele>380.609</ele>
        <time>2020-09-02T18:09:21Z</time>
      </trkpt>
      <trkpt lat="43.66557" lon="5.77547">
        <ele>380.408</ele>
        <time>2020-09-02T18:09:22Z</time>
      </trkpt>
      <trkpt lat="43.66561" lon="5.77539">
        <ele>379.969</ele>
        <time>2020-09-02T18:09:23Z</time>
      </trkpt>
      <trkpt lat="43.66565" lon="5.77532">
        <ele>380.078</ele>
        <time>2020-09-02T18:09:24Z</time>
      </trkpt>
      <trkpt lat="43.66572" lon="5.77528">
        <ele>379.658</ele>
        <time>2020-09-02T18:09:25Z</time>
      </trkpt>
      <trkpt lat="43.66578" lon="5.77521">
        <ele>378.295</ele>
        <time>2020-09-02T18:09:26Z</time>
      </trkpt>
      <trkpt lat="43.66583" lon="5.77515">
        <ele>378.146</ele>
        <time>2020-09-02T18:09:27Z</time>
      </trkpt>
      <trkpt lat="43.66586" lon="5.77508">
        <ele>377.794</ele>
        <time>2020-09-02T18:09:28Z</time>
      </trkpt>
      <trkpt lat="43.66586" lon="5.77498">
        <ele>377.63</ele>
        <time>2020-09-02T18:09:30Z</time>
      </trkpt>
      <trkpt lat="43.66586" lon="5.7749">
        <ele>377.943</ele>
        <time>2020-09-02T18:09:31Z</time>
      </trkpt>
      <trkpt lat="43.66586" lon="5.77482">
        <ele>378.858</ele>
        <time>2020-09-02T18:09:32Z</time>
      </trkpt>
      <trkpt lat="43.66588" lon="5.77473">
        <ele>378.852</ele>
        <time>2020-09-02T18:09:33Z</time>
      </trkpt>
      <trkpt lat="43.66589" lon="5.77464">
        <ele>379.717</ele>
        <time>2020-09-02T18:09:34Z</time>
      </trkpt>
      <trkpt lat="43.66589" lon="5.77455">
        <ele>380.308</ele>
        <time>2020-09-02T18:09:35Z</time>
      </trkpt>
      <trkpt lat="43.66588" lon="5.77448">
        <ele>381.073</ele>
        <time>2020-09-02T18:09:36Z</time>
      </trkpt>
      <trkpt lat="43.66587" lon="5.77442">
        <ele>381.812</ele>
        <time>2020-09-02T18:09:37Z</time>
      </trkpt>
      <trkpt lat="43.66583" lon="5.77437">
        <ele>382.622</ele>
        <time>2020-09-02T18:09:38Z</time>
      </trkpt>
      <trkpt lat="43.66579" lon="5.7743">
        <ele>383.119</ele>
        <time>2020-09-02T18:09:39Z</time>
      </trkpt>
      <trkpt lat="43.66575" lon="5.77423">
        <ele>383.64</ele>
        <time>2020-09-02T18:09:40Z</time>
      </trkpt>
      <trkpt lat="43.6657" lon="5.77412">
        <ele>384.518</ele>
        <time>2020-09-02T18:09:42Z</time>
      </trkpt>
      <trkpt lat="43.66567" lon="5.77406">
        <ele>384.354</ele>
        <time>2020-09-02T18:09:43Z</time>
      </trkpt>
      <trkpt lat="43.66566" lon="5.77394">
        <ele>384.257</ele>
        <time>2020-09-02T18:09:45Z</time>
      </trkpt>
      <trkpt lat="43.66568" lon="5.77384">
        <ele>384.123</ele>
        <time>2020-09-02T18:09:46Z</time>
      </trkpt>
      <trkpt lat="43.66571" lon="5.77375">
        <ele>383.883</ele>
        <time>2020-09-02T18:09:47Z</time>
      </trkpt>
      <trkpt lat="43.66574" lon="5.77368">
        <ele>384.011</ele>
        <time>2020-09-02T18:09:48Z</time>
      </trkpt>
      <trkpt lat="43.6658" lon="5.77363">
        <ele>384.208</ele>
        <time>2020-09-02T18:09:49Z</time>
      </trkpt>
      <trkpt lat="43.66584" lon="5.77355">
        <ele>383.62</ele>
        <time>2020-09-02T18:09:50Z</time>
      </trkpt>
      <trkpt lat="43.66589" lon="5.77349">
        <ele>383.699</ele>
        <time>2020-09-02T18:09:51Z</time>
      </trkpt>
      <trkpt lat="43.66596" lon="5.77337">
        <ele>383.729</ele>
        <time>2020-09-02T18:09:52Z</time>
      </trkpt>
      <trkpt lat="43.66601" lon="5.7733">
        <ele>384.096</ele>
        <time>2020-09-02T18:09:53Z</time>
      </trkpt>
      <trkpt lat="43.66607" lon="5.77324">
        <ele>384.147</ele>
        <time>2020-09-02T18:09:54Z</time>
      </trkpt>
      <trkpt lat="43.66613" lon="5.77318">
        <ele>384.085</ele>
        <time>2020-09-02T18:09:55Z</time>
      </trkpt>
      <trkpt lat="43.66619" lon="5.77312">
        <ele>384.081</ele>
        <time>2020-09-02T18:09:56Z</time>
      </trkpt>
      <trkpt lat="43.66618" lon="5.77302">
        <ele>383.944</ele>
        <time>2020-09-02T18:09:58Z</time>
      </trkpt>
      <trkpt lat="43.66611" lon="5.77292">
        <ele>384.465</ele>
        <time>2020-09-02T18:10:00Z</time>
      </trkpt>
      <trkpt lat="43.66606" lon="5.77285">
        <ele>383.768</ele>
        <time>2020-09-02T18:10:02Z</time>
      </trkpt>
      <trkpt lat="43.66601" lon="5.77279">
        <ele>384.714</ele>
        <time>2020-09-02T18:10:04Z</time>
      </trkpt>
      <trkpt lat="43.66592" lon="5.77277">
        <ele>385.008</ele>
        <time>2020-09-02T18:10:06Z</time>
      </trkpt>
      <trkpt lat="43.66583" lon="5.77273">
        <ele>385.854</ele>
        <time>2020-09-02T18:10:08Z</time>
      </trkpt>
      <trkpt lat="43.66578" lon="5.77265">
        <ele>385.963</ele>
        <time>2020-09-02T18:10:10Z</time>
      </trkpt>
      <trkpt lat="43.66577" lon="5.77257">
        <ele>387.133</ele>
        <time>2020-09-02T18:10:13Z</time>
      </trkpt>
      <trkpt lat="43.66575" lon="5.77246">
        <ele>387.11</ele>
        <time>2020-09-02T18:10:15Z</time>
      </trkpt>
      <trkpt lat="43.66571" lon="5.77233">
        <ele>388.421</ele>
        <time>2020-09-02T18:10:17Z</time>
      </trkpt>
      <trkpt lat="43.66567" lon="5.77224">
        <ele>387.999</ele>
        <time>2020-09-02T18:10:18Z</time>
      </trkpt>
      <trkpt lat="43.66566" lon="5.77215">
        <ele>388.455</ele>
        <time>2020-09-02T18:10:19Z</time>
      </trkpt>
      <trkpt lat="43.66563" lon="5.77208">
        <ele>388.828</ele>
        <time>2020-09-02T18:10:20Z</time>
      </trkpt>
      <trkpt lat="43.6656" lon="5.77201">
        <ele>389.158</ele>
        <time>2020-09-02T18:10:21Z</time>
      </trkpt>
      <trkpt lat="43.66556" lon="5.77194">
        <ele>389.452</ele>
        <time>2020-09-02T18:10:22Z</time>
      </trkpt>
      <trkpt lat="43.66553" lon="5.77186">
        <ele>390.117</ele>
        <time>2020-09-02T18:10:23Z</time>
      </trkpt>
      <trkpt lat="43.66547" lon="5.77178">
        <ele>390.108</ele>
        <time>2020-09-02T18:10:24Z</time>
      </trkpt>
      <trkpt lat="43.6654" lon="5.7717">
        <ele>389.553</ele>
        <time>2020-09-02T18:10:25Z</time>
      </trkpt>
      <trkpt lat="43.66535" lon="5.77164">
        <ele>390.032</ele>
        <time>2020-09-02T18:10:26Z</time>
      </trkpt>
      <trkpt lat="43.6653" lon="5.77158">
        <ele>390.052</ele>
        <time>2020-09-02T18:10:27Z</time>
      </trkpt>
      <trkpt lat="43.66526" lon="5.77152">
        <ele>389.659</ele>
        <time>2020-09-02T18:10:28Z</time>
      </trkpt>
      <trkpt lat="43.66523" lon="5.77145">
        <ele>389.52</ele>
        <time>2020-09-02T18:10:29Z</time>
      </trkpt>
      <trkpt lat="43.66527" lon="5.77138">
        <ele>388.668</ele>
        <time>2020-09-02T18:10:30Z</time>
      </trkpt>
      <trkpt lat="43.6653" lon="5.77132">
        <ele>389.054</ele>
        <time>2020-09-02T18:10:31Z</time>
      </trkpt>
      <trkpt lat="43.66534" lon="5.77128">
        <ele>387.687</ele>
        <time>2020-09-02T18:10:32Z</time>
      </trkpt>
      <trkpt lat="43.66538" lon="5.77125">
        <ele>387.499</ele>
        <time>2020-09-02T18:10:33Z</time>
      </trkpt>
      <trkpt lat="43.66543" lon="5.77118">
        <ele>386.607</ele>
        <time>2020-09-02T18:10:34Z</time>
      </trkpt>
      <trkpt lat="43.6655" lon="5.77116">
        <ele>385.727</ele>
        <time>2020-09-02T18:10:35Z</time>
      </trkpt>
      <trkpt lat="43.66553" lon="5.77111">
        <ele>385.708</ele>
        <time>2020-09-02T18:10:36Z</time>
      </trkpt>
      <trkpt lat="43.66557" lon="5.77099">
        <ele>384.987</ele>
        <time>2020-09-02T18:10:37Z</time>
      </trkpt>
      <trkpt lat="43.66561" lon="5.77091">
        <ele>384.516</ele>
        <time>2020-09-02T18:10:38Z</time>
      </trkpt>
      <trkpt lat="43.66568" lon="5.77084">
        <ele>384.046</ele>
        <time>2020-09-02T18:10:39Z</time>
      </trkpt>
      <trkpt lat="43.66574" lon="5.77077">
        <ele>383.753</ele>
        <time>2020-09-02T18:10:40Z</time>
      </trkpt>
      <trkpt lat="43.66581" lon="5.77073">
        <ele>383.734</ele>
        <time>2020-09-02T18:10:41Z</time>
      </trkpt>
      <trkpt lat="43.66588" lon="5.77062">
        <ele>382.432</ele>
        <time>2020-09-02T18:10:42Z</time>
      </trkpt>
      <trkpt lat="43.66596" lon="5.77053">
        <ele>382.448</ele>
        <time>2020-09-02T18:10:43Z</time>
      </trkpt>
      <trkpt lat="43.66603" lon="5.77044">
        <ele>382.851</ele>
        <time>2020-09-02T18:10:44Z</time>
      </trkpt>
      <trkpt lat="43.6661" lon="5.77032">
        <ele>382.452</ele>
        <time>2020-09-02T18:10:45Z</time>
      </trkpt>
      <trkpt lat="43.66616" lon="5.77021">
        <ele>382.853</ele>
        <time>2020-09-02T18:10:46Z</time>
      </trkpt>
      <trkpt lat="43.66621" lon="5.77011">
        <ele>383.208</ele>
        <time>2020-09-02T18:10:47Z</time>
      </trkpt>
      <trkpt lat="43.66627" lon="5.77002">
        <ele>383.808</ele>
        <time>2020-09-02T18:10:48Z</time>
      </trkpt>
      <trkpt lat="43.66632" lon="5.76994">
        <ele>384.493</ele>
        <time>2020-09-02T18:10:49Z</time>
      </trkpt>
      <trkpt lat="43.66638" lon="5.76987">
        <ele>384.832</ele>
        <time>2020-09-02T18:10:50Z</time>
      </trkpt>
      <trkpt lat="43.66642" lon="5.76982">
        <ele>385.322</ele>
        <time>2020-09-02T18:10:51Z</time>
      </trkpt>
      <trkpt lat="43.66648" lon="5.76973">
        <ele>385.769</ele>
        <time>2020-09-02T18:10:52Z</time>
      </trkpt>
      <trkpt lat="43.66655" lon="5.76965">
        <ele>385.85</ele>
        <time>2020-09-02T18:10:53Z</time>
      </trkpt>
      <trkpt lat="43.66662" lon="5.76956">
        <ele>385.858</ele>
        <time>2020-09-02T18:10:54Z</time>
      </trkpt>
      <trkpt lat="43.66669" lon="5.76947">
        <ele>385.624</ele>
        <time>2020-09-02T18:10:55Z</time>
      </trkpt>
      <trkpt lat="43.66674" lon="5.76937">
        <ele>385.657</ele>
        <time>2020-09-02T18:10:56Z</time>
      </trkpt>
      <trkpt lat="43.66681" lon="5.76927">
        <ele>385.612</ele>
        <time>2020-09-02T18:10:57Z</time>
      </trkpt>
      <trkpt lat="43.66688" lon="5.76918">
        <ele>385.932</ele>
        <time>2020-09-02T18:10:58Z</time>
      </trkpt>
      <trkpt lat="43.66695" lon="5.76908">
        <ele>386.305</ele>
        <time>2020-09-02T18:10:59Z</time>
      </trkpt>
      <trkpt lat="43.667" lon="5.76897">
        <ele>386.708</ele>
        <time>2020-09-02T18:11:00Z</time>
      </trkpt>
      <trkpt lat="43.66707" lon="5.76886">
        <ele>388.269</ele>
        <time>2020-09-02T18:11:01Z</time>
      </trkpt>
      <trkpt lat="43.66715" lon="5.76878">
        <ele>388.848</ele>
        <time>2020-09-02T18:11:02Z</time>
      </trkpt>
      <trkpt lat="43.66724" lon="5.76872">
        <ele>388.948</ele>
        <time>2020-09-02T18:11:03Z</time>
      </trkpt>
      <trkpt lat="43.66734" lon="5.76869">
        <ele>388.995</ele>
        <time>2020-09-02T18:11:04Z</time>
      </trkpt>
      <trkpt lat="43.66744" lon="5.76869">
        <ele>388.966</ele>
        <time>2020-09-02T18:11:05Z</time>
      </trkpt>
      <trkpt lat="43.66754" lon="5.7687">
        <ele>389.214</ele>
        <time>2020-09-02T18:11:06Z</time>
      </trkpt>
      <trkpt lat="43.66762" lon="5.76874">
        <ele>390.41</ele>
        <time>2020-09-02T18:11:07Z</time>
      </trkpt>
      <trkpt lat="43.6677" lon="5.76877">
        <ele>390.663</ele>
        <time>2020-09-02T18:11:08Z</time>
      </trkpt>
      <trkpt lat="43.66778" lon="5.7688">
        <ele>390.286</ele>
        <time>2020-09-02T18:11:09Z</time>
      </trkpt>
      <trkpt lat="43.66786" lon="5.7688">
        <ele>390.16</ele>
        <time>2020-09-02T18:11:10Z</time>
      </trkpt>
      <trkpt lat="43.66793" lon="5.7688">
        <ele>390.526</ele>
        <time>2020-09-02T18:11:11Z</time>
      </trkpt>
      <trkpt lat="43.66801" lon="5.76877">
        <ele>390.508</ele>
        <time>2020-09-02T18:11:12Z</time>
      </trkpt>
      <trkpt lat="43.6681" lon="5.76874">
        <ele>391.136</ele>
        <time>2020-09-02T18:11:13Z</time>
      </trkpt>
      <trkpt lat="43.6682" lon="5.76869">
        <ele>391.525</ele>
        <time>2020-09-02T18:11:14Z</time>
      </trkpt>
      <trkpt lat="43.6683" lon="5.76866">
        <ele>391.225</ele>
        <time>2020-09-02T18:11:15Z</time>
      </trkpt>
      <trkpt lat="43.6684" lon="5.76864">
        <ele>391.692</ele>
        <time>2020-09-02T18:11:16Z</time>
      </trkpt>
      <trkpt lat="43.66851" lon="5.76865">
        <ele>391.133</ele>
        <time>2020-09-02T18:11:17Z</time>
      </trkpt>
      <trkpt lat="43.66861" lon="5.76865">
        <ele>391.811</ele>
        <time>2020-09-02T18:11:18Z</time>
      </trkpt>
      <trkpt lat="43.66872" lon="5.76867">
        <ele>391.677</ele>
        <time>2020-09-02T18:11:19Z</time>
      </trkpt>
      <trkpt lat="43.66879" lon="5.76872">
        <ele>391.69</ele>
        <time>2020-09-02T18:11:20Z</time>
      </trkpt>
      <trkpt lat="43.66885" lon="5.76876">
        <ele>391.649</ele>
        <time>2020-09-02T18:11:21Z</time>
      </trkpt>
      <trkpt lat="43.66892" lon="5.7688">
        <ele>391.502</ele>
        <time>2020-09-02T18:11:22Z</time>
      </trkpt>
      <trkpt lat="43.66904" lon="5.76878">
        <ele>391.822</ele>
        <time>2020-09-02T18:11:23Z</time>
      </trkpt>
      <trkpt lat="43.66911" lon="5.76875">
        <ele>392.208</ele>
        <time>2020-09-02T18:11:24Z</time>
      </trkpt>
      <trkpt lat="43.66918" lon="5.76871">
        <ele>392.482</ele>
        <time>2020-09-02T18:11:25Z</time>
      </trkpt>
      <trkpt lat="43.66925" lon="5.76871">
        <ele>392.571</ele>
        <time>2020-09-02T18:11:26Z</time>
      </trkpt>
      <trkpt lat="43.66932" lon="5.76869">
        <ele>392.641</ele>
        <time>2020-09-02T18:11:27Z</time>
      </trkpt>
      <trkpt lat="43.6694" lon="5.7687">
        <ele>391.868</ele>
        <time>2020-09-02T18:11:28Z</time>
      </trkpt>
      <trkpt lat="43.66948" lon="5.7687">
        <ele>391.759</ele>
        <time>2020-09-02T18:11:29Z</time>
      </trkpt>
      <trkpt lat="43.66956" lon="5.76869">
        <ele>391.477</ele>
        <time>2020-09-02T18:11:30Z</time>
      </trkpt>
      <trkpt lat="43.66961" lon="5.76868">
        <ele>390.973</ele>
        <time>2020-09-02T18:11:31Z</time>
      </trkpt>
      <trkpt lat="43.66966" lon="5.76865">
        <ele>390.546</ele>
        <time>2020-09-02T18:11:32Z</time>
      </trkpt>
      <trkpt lat="43.66972" lon="5.76861">
        <ele>390.085</ele>
        <time>2020-09-02T18:11:33Z</time>
      </trkpt>
      <trkpt lat="43.66978" lon="5.76858">
        <ele>389.689</ele>
        <time>2020-09-02T18:11:34Z</time>
      </trkpt>
      <trkpt lat="43.66983" lon="5.76853">
        <ele>388.717</ele>
        <time>2020-09-02T18:11:35Z</time>
      </trkpt>
      <trkpt lat="43.66989" lon="5.76847">
        <ele>388.308</ele>
        <time>2020-09-02T18:11:36Z</time>
      </trkpt>
      <trkpt lat="43.66993" lon="5.7684">
        <ele>388.046</ele>
        <time>2020-09-02T18:11:37Z</time>
      </trkpt>
      <trkpt lat="43.66998" lon="5.76834">
        <ele>387.655</ele>
        <time>2020-09-02T18:11:38Z</time>
      </trkpt>
      <trkpt lat="43.67002" lon="5.76826">
        <ele>387.535</ele>
        <time>2020-09-02T18:11:39Z</time>
      </trkpt>
      <trkpt lat="43.67007" lon="5.76819">
        <ele>387.262</ele>
        <time>2020-09-02T18:11:40Z</time>
      </trkpt>
      <trkpt lat="43.67011" lon="5.76813">
        <ele>387.183</ele>
        <time>2020-09-02T18:11:41Z</time>
      </trkpt>
      <trkpt lat="43.67016" lon="5.76805">
        <ele>386.461</ele>
        <time>2020-09-02T18:11:42Z</time>
      </trkpt>
      <trkpt lat="43.67022" lon="5.76803">
        <ele>386.387</ele>
        <time>2020-09-02T18:11:43Z</time>
      </trkpt>
      <trkpt lat="43.6703" lon="5.768">
        <ele>386.48</ele>
        <time>2020-09-02T18:11:44Z</time>
      </trkpt>
      <trkpt lat="43.67038" lon="5.76795">
        <ele>386.646</ele>
        <time>2020-09-02T18:11:45Z</time>
      </trkpt>
      <trkpt lat="43.67046" lon="5.7679">
        <ele>386.688</ele>
        <time>2020-09-02T18:11:46Z</time>
      </trkpt>
      <trkpt lat="43.67053" lon="5.76785">
        <ele>386.516</ele>
        <time>2020-09-02T18:11:47Z</time>
      </trkpt>
      <trkpt lat="43.67062" lon="5.7678">
        <ele>386.608</ele>
        <time>2020-09-02T18:11:48Z</time>
      </trkpt>
      <trkpt lat="43.6707" lon="5.76773">
        <ele>386.052</ele>
        <time>2020-09-02T18:11:49Z</time>
      </trkpt>
      <trkpt lat="43.67079" lon="5.76765">
        <ele>386.021</ele>
        <time>2020-09-02T18:11:50Z</time>
      </trkpt>
      <trkpt lat="43.67088" lon="5.76756">
        <ele>385.911</ele>
        <time>2020-09-02T18:11:51Z</time>
      </trkpt>
      <trkpt lat="43.67097" lon="5.76747">
        <ele>385.758</ele>
        <time>2020-09-02T18:11:52Z</time>
      </trkpt>
      <trkpt lat="43.67104" lon="5.76739">
        <ele>385.689</ele>
        <time>2020-09-02T18:11:53Z</time>
      </trkpt>
      <trkpt lat="43.6711" lon="5.76731">
        <ele>385.557</ele>
        <time>2020-09-02T18:11:54Z</time>
      </trkpt>
      <trkpt lat="43.67116" lon="5.76725">
        <ele>384.823</ele>
        <time>2020-09-02T18:11:55Z</time>
      </trkpt>
      <trkpt lat="43.67122" lon="5.76723">
        <ele>383.846</ele>
        <time>2020-09-02T18:11:56Z</time>
      </trkpt>
      <trkpt lat="43.67129" lon="5.7672">
        <ele>383.688</ele>
        <time>2020-09-02T18:11:57Z</time>
      </trkpt>
      <trkpt lat="43.67136" lon="5.76719">
        <ele>383.124</ele>
        <time>2020-09-02T18:11:58Z</time>
      </trkpt>
      <trkpt lat="43.67142" lon="5.76717">
        <ele>383.026</ele>
        <time>2020-09-02T18:11:59Z</time>
      </trkpt>
      <trkpt lat="43.67148" lon="5.76718">
        <ele>383.508</ele>
        <time>2020-09-02T18:12:00Z</time>
      </trkpt>
      <trkpt lat="43.67154" lon="5.76718">
        <ele>385.266</ele>
        <time>2020-09-02T18:12:01Z</time>
      </trkpt>
      <trkpt lat="43.6716" lon="5.76717">
        <ele>384.695</ele>
        <time>2020-09-02T18:12:02Z</time>
      </trkpt>
      <trkpt lat="43.67166" lon="5.76716">
        <ele>384.475</ele>
        <time>2020-09-02T18:12:03Z</time>
      </trkpt>
      <trkpt lat="43.67172" lon="5.76717">
        <ele>384.812</ele>
        <time>2020-09-02T18:12:04Z</time>
      </trkpt>
      <trkpt lat="43.6718" lon="5.76719">
        <ele>384.633</ele>
        <time>2020-09-02T18:12:05Z</time>
      </trkpt>
      <trkpt lat="43.67185" lon="5.76721">
        <ele>384.231</ele>
        <time>2020-09-02T18:12:06Z</time>
      </trkpt>
      <trkpt lat="43.67191" lon="5.76725">
        <ele>384.097</ele>
        <time>2020-09-02T18:12:07Z</time>
      </trkpt>
      <trkpt lat="43.67196" lon="5.7673">
        <ele>383.73</ele>
        <time>2020-09-02T18:12:08Z</time>
      </trkpt>
      <trkpt lat="43.672" lon="5.76733">
        <ele>383.527</ele>
        <time>2020-09-02T18:12:09Z</time>
      </trkpt>
      <trkpt lat="43.67206" lon="5.76736">
        <ele>382.368</ele>
        <time>2020-09-02T18:12:10Z</time>
      </trkpt>
      <trkpt lat="43.67211" lon="5.76738">
        <ele>381.914</ele>
        <time>2020-09-02T18:12:11Z</time>
      </trkpt>
      <trkpt lat="43.67217" lon="5.76741">
        <ele>382.008</ele>
        <time>2020-09-02T18:12:12Z</time>
      </trkpt>
      <trkpt lat="43.67222" lon="5.76743">
        <ele>381.68</ele>
        <time>2020-09-02T18:12:13Z</time>
      </trkpt>
      <trkpt lat="43.6723" lon="5.76744">
        <ele>380.989</ele>
        <time>2020-09-02T18:12:14Z</time>
      </trkpt>
      <trkpt lat="43.67236" lon="5.76743">
        <ele>381.279</ele>
        <time>2020-09-02T18:12:15Z</time>
      </trkpt>
      <trkpt lat="43.67242" lon="5.76739">
        <ele>381.246</ele>
        <time>2020-09-02T18:12:16Z</time>
      </trkpt>
      <trkpt lat="43.67249" lon="5.76734">
        <ele>380.617</ele>
        <time>2020-09-02T18:12:17Z</time>
      </trkpt>
      <trkpt lat="43.67257" lon="5.76728">
        <ele>380.495</ele>
        <time>2020-09-02T18:12:18Z</time>
      </trkpt>
      <trkpt lat="43.67266" lon="5.76723">
        <ele>379.951</ele>
        <time>2020-09-02T18:12:19Z</time>
      </trkpt>
      <trkpt lat="43.67274" lon="5.76716">
        <ele>379.584</ele>
        <time>2020-09-02T18:12:20Z</time>
      </trkpt>
      <trkpt lat="43.67281" lon="5.7671">
        <ele>379.581</ele>
        <time>2020-09-02T18:12:21Z</time>
      </trkpt>
      <trkpt lat="43.67288" lon="5.76699">
        <ele>379.361</ele>
        <time>2020-09-02T18:12:22Z</time>
      </trkpt>
      <trkpt lat="43.67296" lon="5.76692">
        <ele>379.017</ele>
        <time>2020-09-02T18:12:23Z</time>
      </trkpt>
      <trkpt lat="43.67303" lon="5.76686">
        <ele>378.908</ele>
        <time>2020-09-02T18:12:24Z</time>
      </trkpt>
      <trkpt lat="43.67311" lon="5.76681">
        <ele>379.096</ele>
        <time>2020-09-02T18:12:25Z</time>
      </trkpt>
      <trkpt lat="43.67317" lon="5.76676">
        <ele>379.325</ele>
        <time>2020-09-02T18:12:26Z</time>
      </trkpt>
      <trkpt lat="43.6732" lon="5.76669">
        <ele>379.185</ele>
        <time>2020-09-02T18:12:27Z</time>
      </trkpt>
      <trkpt lat="43.67325" lon="5.76663">
        <ele>378.942</ele>
        <time>2020-09-02T18:12:28Z</time>
      </trkpt>
      <trkpt lat="43.67329" lon="5.76656">
        <ele>379.093</ele>
        <time>2020-09-02T18:12:29Z</time>
      </trkpt>
      <trkpt lat="43.67331" lon="5.76644">
        <ele>378.951</ele>
        <time>2020-09-02T18:12:30Z</time>
      </trkpt>
      <trkpt lat="43.67335" lon="5.76637">
        <ele>379.477</ele>
        <time>2020-09-02T18:12:31Z</time>
      </trkpt>
      <trkpt lat="43.67339" lon="5.7663">
        <ele>379.18</ele>
        <time>2020-09-02T18:12:32Z</time>
      </trkpt>
      <trkpt lat="43.67342" lon="5.76621">
        <ele>379.031</ele>
        <time>2020-09-02T18:12:33Z</time>
      </trkpt>
      <trkpt lat="43.67345" lon="5.76612">
        <ele>378.461</ele>
        <time>2020-09-02T18:12:34Z</time>
      </trkpt>
      <trkpt lat="43.6735" lon="5.76603">
        <ele>377.507</ele>
        <time>2020-09-02T18:12:35Z</time>
      </trkpt>
      <trkpt lat="43.67355" lon="5.76597">
        <ele>377.108</ele>
        <time>2020-09-02T18:12:36Z</time>
      </trkpt>
      <trkpt lat="43.6736" lon="5.76592">
        <ele>376.431</ele>
        <time>2020-09-02T18:12:37Z</time>
      </trkpt>
      <trkpt lat="43.67364" lon="5.76587">
        <ele>375.91</ele>
        <time>2020-09-02T18:12:38Z</time>
      </trkpt>
      <trkpt lat="43.67368" lon="5.76585">
        <ele>374.95</ele>
        <time>2020-09-02T18:12:39Z</time>
      </trkpt>
      <trkpt lat="43.67363" lon="5.76584">
        <ele>374.597</ele>
        <time>2020-09-02T18:12:40Z</time>
      </trkpt>
      <trkpt lat="43.67358" lon="5.76579">
        <ele>373.098</ele>
        <time>2020-09-02T18:12:42Z</time>
      </trkpt>
      <trkpt lat="43.67354" lon="5.76574">
        <ele>372.796</ele>
        <time>2020-09-02T18:12:43Z</time>
      </trkpt>
      <trkpt lat="43.67348" lon="5.7657">
        <ele>372.532</ele>
        <time>2020-09-02T18:12:44Z</time>
      </trkpt>
      <trkpt lat="43.67343" lon="5.76563">
        <ele>371.715</ele>
        <time>2020-09-02T18:12:45Z</time>
      </trkpt>
      <trkpt lat="43.67337" lon="5.76557">
        <ele>371.444</ele>
        <time>2020-09-02T18:12:46Z</time>
      </trkpt>
      <trkpt lat="43.6733" lon="5.76554">
        <ele>371.405</ele>
        <time>2020-09-02T18:12:47Z</time>
      </trkpt>
      <trkpt lat="43.67323" lon="5.76551">
        <ele>371.115</ele>
        <time>2020-09-02T18:12:48Z</time>
      </trkpt>
      <trkpt lat="43.67314" lon="5.76547">
        <ele>370.608</ele>
        <time>2020-09-02T18:12:49Z</time>
      </trkpt>
      <trkpt lat="43.67306" lon="5.76544">
        <ele>369.532</ele>
        <time>2020-09-02T18:12:50Z</time>
      </trkpt>
      <trkpt lat="43.67297" lon="5.76543">
        <ele>368.981</ele>
        <time>2020-09-02T18:12:51Z</time>
      </trkpt>
      <trkpt lat="43.6729" lon="5.76546">
        <ele>368.831</ele>
        <time>2020-09-02T18:12:52Z</time>
      </trkpt>
      <trkpt lat="43.67282" lon="5.7655">
        <ele>368.438</ele>
        <time>2020-09-02T18:12:53Z</time>
      </trkpt>
      <trkpt lat="43.67274" lon="5.76554">
        <ele>367.029</ele>
        <time>2020-09-02T18:12:54Z</time>
      </trkpt>
      <trkpt lat="43.67266" lon="5.76556">
        <ele>366.937</ele>
        <time>2020-09-02T18:12:55Z</time>
      </trkpt>
      <trkpt lat="43.67258" lon="5.76559">
        <ele>366.783</ele>
        <time>2020-09-02T18:12:56Z</time>
      </trkpt>
      <trkpt lat="43.6725" lon="5.76562">
        <ele>366.766</ele>
        <time>2020-09-02T18:12:57Z</time>
      </trkpt>
      <trkpt lat="43.67242" lon="5.76561">
        <ele>366.683</ele>
        <time>2020-09-02T18:12:58Z</time>
      </trkpt>
      <trkpt lat="43.67236" lon="5.76558">
        <ele>366.525</ele>
        <time>2020-09-02T18:12:59Z</time>
      </trkpt>
      <trkpt lat="43.6723" lon="5.76552">
        <ele>366.417</ele>
        <time>2020-09-02T18:13:00Z</time>
      </trkpt>
      <trkpt lat="43.67232" lon="5.76542">
        <ele>366.108</ele>
        <time>2020-09-02T18:13:01Z</time>
      </trkpt>
      <trkpt lat="43.67228" lon="5.76535">
        <ele>365.226</ele>
        <time>2020-09-02T18:13:02Z</time>
      </trkpt>
      <trkpt lat="43.67223" lon="5.76528">
        <ele>364.225</ele>
        <time>2020-09-02T18:13:03Z</time>
      </trkpt>
      <trkpt lat="43.67217" lon="5.76523">
        <ele>364.115</ele>
        <time>2020-09-02T18:13:04Z</time>
      </trkpt>
      <trkpt lat="43.6721" lon="5.76517">
        <ele>362.782</ele>
        <time>2020-09-02T18:13:05Z</time>
      </trkpt>
      <trkpt lat="43.67202" lon="5.76513">
        <ele>361.943</ele>
        <time>2020-09-02T18:13:06Z</time>
      </trkpt>
      <trkpt lat="43.67194" lon="5.76509">
        <ele>361.941</ele>
        <time>2020-09-02T18:13:07Z</time>
      </trkpt>
      <trkpt lat="43.67187" lon="5.76508">
        <ele>361.587</ele>
        <time>2020-09-02T18:13:08Z</time>
      </trkpt>
      <trkpt lat="43.6718" lon="5.76507">
        <ele>361.76</ele>
        <time>2020-09-02T18:13:09Z</time>
      </trkpt>
      <trkpt lat="43.67175" lon="5.76509">
        <ele>361.576</ele>
        <time>2020-09-02T18:13:10Z</time>
      </trkpt>
      <trkpt lat="43.67174" lon="5.76503">
        <ele>360.69</ele>
        <time>2020-09-02T18:13:13Z</time>
      </trkpt>
      <trkpt lat="43.67173" lon="5.76494">
        <ele>359.719</ele>
        <time>2020-09-02T18:13:15Z</time>
      </trkpt>
      <trkpt lat="43.67172" lon="5.76487">
        <ele>359.508</ele>
        <time>2020-09-02T18:13:16Z</time>
      </trkpt>
      <trkpt lat="43.67172" lon="5.76478">
        <ele>359.435</ele>
        <time>2020-09-02T18:13:17Z</time>
      </trkpt>
      <trkpt lat="43.67173" lon="5.76471">
        <ele>358.864</ele>
        <time>2020-09-02T18:13:18Z</time>
      </trkpt>
      <trkpt lat="43.67172" lon="5.76463">
        <ele>359.064</ele>
        <time>2020-09-02T18:13:20Z</time>
      </trkpt>
      <trkpt lat="43.67171" lon="5.76454">
        <ele>359.091</ele>
        <time>2020-09-02T18:13:23Z</time>
      </trkpt>
      <trkpt lat="43.67169" lon="5.76448">
        <ele>359.182</ele>
        <time>2020-09-02T18:13:24Z</time>
      </trkpt>
      <trkpt lat="43.67166" lon="5.76441">
        <ele>358.38</ele>
        <time>2020-09-02T18:13:26Z</time>
      </trkpt>
      <trkpt lat="43.67158" lon="5.76442">
        <ele>358.626</ele>
        <time>2020-09-02T18:13:28Z</time>
      </trkpt>
      <trkpt lat="43.67152" lon="5.76445">
        <ele>358.149</ele>
        <time>2020-09-02T18:13:29Z</time>
      </trkpt>
      <trkpt lat="43.67146" lon="5.76449">
        <ele>358.569</ele>
        <time>2020-09-02T18:13:30Z</time>
      </trkpt>
      <trkpt lat="43.67139" lon="5.76453">
        <ele>358.104</ele>
        <time>2020-09-02T18:13:31Z</time>
      </trkpt>
      <trkpt lat="43.67132" lon="5.76459">
        <ele>358.224</ele>
        <time>2020-09-02T18:13:32Z</time>
      </trkpt>
      <trkpt lat="43.67125" lon="5.76465">
        <ele>358.708</ele>
        <time>2020-09-02T18:13:33Z</time>
      </trkpt>
      <trkpt lat="43.67119" lon="5.76472">
        <ele>359.084</ele>
        <time>2020-09-02T18:13:34Z</time>
      </trkpt>
      <trkpt lat="43.67112" lon="5.76477">
        <ele>358.983</ele>
        <time>2020-09-02T18:13:35Z</time>
      </trkpt>
      <trkpt lat="43.67105" lon="5.7648">
        <ele>359.323</ele>
        <time>2020-09-02T18:13:36Z</time>
      </trkpt>
      <trkpt lat="43.67098" lon="5.76481">
        <ele>359.68</ele>
        <time>2020-09-02T18:13:37Z</time>
      </trkpt>
      <trkpt lat="43.6709" lon="5.76483">
        <ele>360.021</ele>
        <time>2020-09-02T18:13:38Z</time>
      </trkpt>
      <trkpt lat="43.67081" lon="5.76486">
        <ele>360.989</ele>
        <time>2020-09-02T18:13:39Z</time>
      </trkpt>
      <trkpt lat="43.67073" lon="5.7649">
        <ele>361.125</ele>
        <time>2020-09-02T18:13:40Z</time>
      </trkpt>
      <trkpt lat="43.67066" lon="5.76494">
        <ele>361.828</ele>
        <time>2020-09-02T18:13:41Z</time>
      </trkpt>
      <trkpt lat="43.67059" lon="5.76498">
        <ele>362.329</ele>
        <time>2020-09-02T18:13:42Z</time>
      </trkpt>
      <trkpt lat="43.67053" lon="5.765">
        <ele>363.1</ele>
        <time>2020-09-02T18:13:43Z</time>
      </trkpt>
      <trkpt lat="43.67048" lon="5.76503">
        <ele>363.82</ele>
        <time>2020-09-02T18:13:44Z</time>
      </trkpt>
      <trkpt lat="43.6704" lon="5.76505">
        <ele>363.908</ele>
        <time>2020-09-02T18:13:45Z</time>
      </trkpt>
      <trkpt lat="43.67032" lon="5.76506">
        <ele>364.27</ele>
        <time>2020-09-02T18:13:46Z</time>
      </trkpt>
      <trkpt lat="43.67024" lon="5.76509">
        <ele>364.929</ele>
        <time>2020-09-02T18:13:47Z</time>
      </trkpt>
      <trkpt lat="43.67016" lon="5.76512">
        <ele>364.979</ele>
        <time>2020-09-02T18:13:48Z</time>
      </trkpt>
      <trkpt lat="43.67007" lon="5.76514">
        <ele>365.246</ele>
        <time>2020-09-02T18:13:49Z</time>
      </trkpt>
      <trkpt lat="43.66997" lon="5.76516">
        <ele>365.517</ele>
        <time>2020-09-02T18:13:50Z</time>
      </trkpt>
      <trkpt lat="43.66987" lon="5.76516">
        <ele>365.955</ele>
        <time>2020-09-02T18:13:51Z</time>
      </trkpt>
      <trkpt lat="43.66978" lon="5.76518">
        <ele>366.081</ele>
        <time>2020-09-02T18:13:52Z</time>
      </trkpt>
      <trkpt lat="43.6697" lon="5.76521">
        <ele>366.274</ele>
        <time>2020-09-02T18:13:53Z</time>
      </trkpt>
      <trkpt lat="43.66961" lon="5.7652">
        <ele>366.455</ele>
        <time>2020-09-02T18:13:54Z</time>
      </trkpt>
      <trkpt lat="43.66954" lon="5.76518">
        <ele>367.107</ele>
        <time>2020-09-02T18:13:55Z</time>
      </trkpt>
      <trkpt lat="43.66948" lon="5.76513">
        <ele>367.317</ele>
        <time>2020-09-02T18:13:56Z</time>
      </trkpt>
      <trkpt lat="43.66943" lon="5.7651">
        <ele>366.808</ele>
        <time>2020-09-02T18:13:57Z</time>
      </trkpt>
      <trkpt lat="43.66939" lon="5.76505">
        <ele>367.373</ele>
        <time>2020-09-02T18:13:58Z</time>
      </trkpt>
      <trkpt lat="43.66939" lon="5.76495">
        <ele>367.722</ele>
        <time>2020-09-02T18:14:00Z</time>
      </trkpt>
      <trkpt lat="43.66941" lon="5.76486">
        <ele>368.792</ele>
        <time>2020-09-02T18:14:02Z</time>
      </trkpt>
      <trkpt lat="43.66943" lon="5.76481">
        <ele>368.859</ele>
        <time>2020-09-02T18:14:03Z</time>
      </trkpt>
      <trkpt lat="43.66947" lon="5.76472">
        <ele>369.66</ele>
        <time>2020-09-02T18:14:04Z</time>
      </trkpt>
      <trkpt lat="43.66951" lon="5.76462">
        <ele>370.668</ele>
        <time>2020-09-02T18:14:05Z</time>
      </trkpt>
      <trkpt lat="43.66956" lon="5.76453">
        <ele>371.334</ele>
        <time>2020-09-02T18:14:06Z</time>
      </trkpt>
      <trkpt lat="43.66959" lon="5.76441">
        <ele>372.897</ele>
        <time>2020-09-02T18:14:07Z</time>
      </trkpt>
      <trkpt lat="43.66962" lon="5.76427">
        <ele>373.454</ele>
        <time>2020-09-02T18:14:08Z</time>
      </trkpt>
      <trkpt lat="43.66965" lon="5.76416">
        <ele>375.056</ele>
        <time>2020-09-02T18:14:09Z</time>
      </trkpt>
      <trkpt lat="43.6697" lon="5.76407">
        <ele>377.011</ele>
        <time>2020-09-02T18:14:10Z</time>
      </trkpt>
      <trkpt lat="43.66974" lon="5.76398">
        <ele>378.508</ele>
        <time>2020-09-02T18:14:11Z</time>
      </trkpt>
      <trkpt lat="43.66976" lon="5.76385">
        <ele>380.173</ele>
        <time>2020-09-02T18:14:12Z</time>
      </trkpt>
      <trkpt lat="43.66978" lon="5.76373">
        <ele>381.352</ele>
        <time>2020-09-02T18:14:13Z</time>
      </trkpt>
      <trkpt lat="43.66981" lon="5.76361">
        <ele>384.252</ele>
        <time>2020-09-02T18:14:14Z</time>
      </trkpt>
      <trkpt lat="43.66982" lon="5.7635">
        <ele>385.069</ele>
        <time>2020-09-02T18:14:15Z</time>
      </trkpt>
      <trkpt lat="43.66985" lon="5.76339">
        <ele>385.77</ele>
        <time>2020-09-02T18:14:16Z</time>
      </trkpt>
      <trkpt lat="43.66988" lon="5.76329">
        <ele>386.628</ele>
        <time>2020-09-02T18:14:17Z</time>
      </trkpt>
      <trkpt lat="43.6699" lon="5.76316">
        <ele>390.064</ele>
        <time>2020-09-02T18:14:18Z</time>
      </trkpt>
      <trkpt lat="43.6699" lon="5.76305">
        <ele>391.257</ele>
        <time>2020-09-02T18:14:19Z</time>
      </trkpt>
      <trkpt lat="43.66988" lon="5.76295">
        <ele>391.882</ele>
        <time>2020-09-02T18:14:20Z</time>
      </trkpt>
      <trkpt lat="43.66985" lon="5.7629">
        <ele>393.943</ele>
        <time>2020-09-02T18:14:21Z</time>
      </trkpt>
      <trkpt lat="43.66979" lon="5.76287">
        <ele>394.217</ele>
        <time>2020-09-02T18:14:22Z</time>
      </trkpt>
      <trkpt lat="43.66972" lon="5.76284">
        <ele>395.008</ele>
        <time>2020-09-02T18:14:23Z</time>
      </trkpt>
      <trkpt lat="43.66962" lon="5.76279">
        <ele>395.496</ele>
        <time>2020-09-02T18:14:24Z</time>
      </trkpt>
      <trkpt lat="43.66952" lon="5.76273">
        <ele>395.345</ele>
        <time>2020-09-02T18:14:25Z</time>
      </trkpt>
      <trkpt lat="43.66942" lon="5.76265">
        <ele>395.565</ele>
        <time>2020-09-02T18:14:26Z</time>
      </trkpt>
      <trkpt lat="43.66934" lon="5.76256">
        <ele>396.272</ele>
        <time>2020-09-02T18:14:27Z</time>
      </trkpt>
      <trkpt lat="43.66926" lon="5.76249">
        <ele>398.243</ele>
        <time>2020-09-02T18:14:28Z</time>
      </trkpt>
      <trkpt lat="43.6692" lon="5.76247">
        <ele>399.461</ele>
        <time>2020-09-02T18:14:29Z</time>
      </trkpt>
      <trkpt lat="43.66914" lon="5.76246">
        <ele>400.587</ele>
        <time>2020-09-02T18:14:30Z</time>
      </trkpt>
      <trkpt lat="43.66909" lon="5.76246">
        <ele>401.24</ele>
        <time>2020-09-02T18:14:31Z</time>
      </trkpt>
      <trkpt lat="43.669" lon="5.76255">
        <ele>401.787</ele>
        <time>2020-09-02T18:14:32Z</time>
      </trkpt>
      <trkpt lat="43.66892" lon="5.7626">
        <ele>402.542</ele>
        <time>2020-09-02T18:14:33Z</time>
      </trkpt>
      <trkpt lat="43.66885" lon="5.76262">
        <ele>403.026</ele>
        <time>2020-09-02T18:14:34Z</time>
      </trkpt>
      <trkpt lat="43.6688" lon="5.76261">
        <ele>403.408</ele>
        <time>2020-09-02T18:14:35Z</time>
      </trkpt>
      <trkpt lat="43.66875" lon="5.76257">
        <ele>404.346</ele>
        <time>2020-09-02T18:14:36Z</time>
      </trkpt>
      <trkpt lat="43.6687" lon="5.76253">
        <ele>404.625</ele>
        <time>2020-09-02T18:14:37Z</time>
      </trkpt>
      <trkpt lat="43.66864" lon="5.76245">
        <ele>405.885</ele>
        <time>2020-09-02T18:14:38Z</time>
      </trkpt>
      <trkpt lat="43.66857" lon="5.76236">
        <ele>406.582</ele>
        <time>2020-09-02T18:14:39Z</time>
      </trkpt>
      <trkpt lat="43.6685" lon="5.76227">
        <ele>406.713</ele>
        <time>2020-09-02T18:14:40Z</time>
      </trkpt>
      <trkpt lat="43.66843" lon="5.76218">
        <ele>406.631</ele>
        <time>2020-09-02T18:14:41Z</time>
      </trkpt>
      <trkpt lat="43.66836" lon="5.76211">
        <ele>406.647</ele>
        <time>2020-09-02T18:14:42Z</time>
      </trkpt>
      <trkpt lat="43.66828" lon="5.76204">
        <ele>406.97</ele>
        <time>2020-09-02T18:14:43Z</time>
      </trkpt>
      <trkpt lat="43.66821" lon="5.76196">
        <ele>406.592</ele>
        <time>2020-09-02T18:14:44Z</time>
      </trkpt>
      <trkpt lat="43.66815" lon="5.76187">
        <ele>406.473</ele>
        <time>2020-09-02T18:14:45Z</time>
      </trkpt>
      <trkpt lat="43.6681" lon="5.76178">
        <ele>406.02</ele>
        <time>2020-09-02T18:14:46Z</time>
      </trkpt>
      <trkpt lat="43.66807" lon="5.76166">
        <ele>405.808</ele>
        <time>2020-09-02T18:14:47Z</time>
      </trkpt>
      <trkpt lat="43.66804" lon="5.76153">
        <ele>406.027</ele>
        <time>2020-09-02T18:14:48Z</time>
      </trkpt>
      <trkpt lat="43.66803" lon="5.76135">
        <ele>405.396</ele>
        <time>2020-09-02T18:14:49Z</time>
      </trkpt>
      <trkpt lat="43.66802" lon="5.7612">
        <ele>404.536</ele>
        <time>2020-09-02T18:14:50Z</time>
      </trkpt>
      <trkpt lat="43.66801" lon="5.76104">
        <ele>403.383</ele>
        <time>2020-09-02T18:14:51Z</time>
      </trkpt>
      <trkpt lat="43.668" lon="5.76088">
        <ele>403.054</ele>
        <time>2020-09-02T18:14:52Z</time>
      </trkpt>
      <trkpt lat="43.66799" lon="5.76069">
        <ele>401.352</ele>
        <time>2020-09-02T18:14:53Z</time>
      </trkpt>
      <trkpt lat="43.66797" lon="5.76055">
        <ele>401.388</ele>
        <time>2020-09-02T18:14:54Z</time>
      </trkpt>
      <trkpt lat="43.66795" lon="5.7604">
        <ele>401.761</ele>
        <time>2020-09-02T18:14:55Z</time>
      </trkpt>
      <trkpt lat="43.66794" lon="5.76025">
        <ele>401.563</ele>
        <time>2020-09-02T18:14:56Z</time>
      </trkpt>
      <trkpt lat="43.66788" lon="5.76013">
        <ele>401.544</ele>
        <time>2020-09-02T18:14:57Z</time>
      </trkpt>
      <trkpt lat="43.66785" lon="5.76001">
        <ele>401.918</ele>
        <time>2020-09-02T18:14:58Z</time>
      </trkpt>
      <trkpt lat="43.66781" lon="5.75988">
        <ele>402.008</ele>
        <time>2020-09-02T18:14:59Z</time>
      </trkpt>
      <trkpt lat="43.66778" lon="5.75976">
        <ele>402.374</ele>
        <time>2020-09-02T18:15:00Z</time>
      </trkpt>
      <trkpt lat="43.66777" lon="5.75962">
        <ele>402.123</ele>
        <time>2020-09-02T18:15:01Z</time>
      </trkpt>
      <trkpt lat="43.66779" lon="5.75949">
        <ele>401.563</ele>
        <time>2020-09-02T18:15:02Z</time>
      </trkpt>
      <trkpt lat="43.66782" lon="5.75936">
        <ele>402.19</ele>
        <time>2020-09-02T18:15:03Z</time>
      </trkpt>
      <trkpt lat="43.66786" lon="5.75923">
        <ele>402.341</ele>
        <time>2020-09-02T18:15:04Z</time>
      </trkpt>
      <trkpt lat="43.66791" lon="5.7591">
        <ele>402.749</ele>
        <time>2020-09-02T18:15:05Z</time>
      </trkpt>
      <trkpt lat="43.66794" lon="5.75897">
        <ele>403.025</ele>
        <time>2020-09-02T18:15:06Z</time>
      </trkpt>
      <trkpt lat="43.66795" lon="5.75883">
        <ele>403.838</ele>
        <time>2020-09-02T18:15:07Z</time>
      </trkpt>
      <trkpt lat="43.66798" lon="5.7587">
        <ele>403.685</ele>
        <time>2020-09-02T18:15:08Z</time>
      </trkpt>
      <trkpt lat="43.66799" lon="5.75857">
        <ele>403.489</ele>
        <time>2020-09-02T18:15:09Z</time>
      </trkpt>
      <trkpt lat="43.668" lon="5.75845">
        <ele>403.617</ele>
        <time>2020-09-02T18:15:10Z</time>
      </trkpt>
      <trkpt lat="43.66803" lon="5.7583">
        <ele>403.808</ele>
        <time>2020-09-02T18:15:11Z</time>
      </trkpt>
      <trkpt lat="43.66807" lon="5.75815">
        <ele>402.776</ele>
        <time>2020-09-02T18:15:12Z</time>
      </trkpt>
      <trkpt lat="43.66812" lon="5.75801">
        <ele>403.175</ele>
        <time>2020-09-02T18:15:13Z</time>
      </trkpt>
      <trkpt lat="43.66818" lon="5.75788">
        <ele>403.065</ele>
        <time>2020-09-02T18:15:14Z</time>
      </trkpt>
      <trkpt lat="43.66824" lon="5.75776">
        <ele>402.442</ele>
        <time>2020-09-02T18:15:15Z</time>
      </trkpt>
      <trkpt lat="43.66828" lon="5.75764">
        <ele>401.623</ele>
        <time>2020-09-02T18:15:16Z</time>
      </trkpt>
      <trkpt lat="43.66832" lon="5.7575">
        <ele>401.611</ele>
        <time>2020-09-02T18:15:17Z</time>
      </trkpt>
      <trkpt lat="43.66835" lon="5.75736">
        <ele>401.787</ele>
        <time>2020-09-02T18:15:18Z</time>
      </trkpt>
      <trkpt lat="43.66839" lon="5.75721">
        <ele>401.48</ele>
        <time>2020-09-02T18:15:19Z</time>
      </trkpt>
      <trkpt lat="43.66842" lon="5.75706">
        <ele>401.177</ele>
        <time>2020-09-02T18:15:20Z</time>
      </trkpt>
      <trkpt lat="43.66845" lon="5.75691">
        <ele>401.561</ele>
        <time>2020-09-02T18:15:21Z</time>
      </trkpt>
      <trkpt lat="43.6685" lon="5.75677">
        <ele>401.627</ele>
        <time>2020-09-02T18:15:22Z</time>
      </trkpt>
      <trkpt lat="43.66855" lon="5.75662">
        <ele>400.808</ele>
        <time>2020-09-02T18:15:23Z</time>
      </trkpt>
      <trkpt lat="43.6686" lon="5.75647">
        <ele>400.745</ele>
        <time>2020-09-02T18:15:24Z</time>
      </trkpt>
      <trkpt lat="43.66865" lon="5.75633">
        <ele>400.794</ele>
        <time>2020-09-02T18:15:25Z</time>
      </trkpt>
      <trkpt lat="43.66866" lon="5.75613">
        <ele>400.854</ele>
        <time>2020-09-02T18:15:26Z</time>
      </trkpt>
      <trkpt lat="43.66869" lon="5.75595">
        <ele>400.781</ele>
        <time>2020-09-02T18:15:27Z</time>
      </trkpt>
      <trkpt lat="43.66873" lon="5.75579">
        <ele>399.632</ele>
        <time>2020-09-02T18:15:28Z</time>
      </trkpt>
      <trkpt lat="43.66876" lon="5.75566">
        <ele>400.15</ele>
        <time>2020-09-02T18:15:29Z</time>
      </trkpt>
      <trkpt lat="43.66877" lon="5.75551">
        <ele>400.356</ele>
        <time>2020-09-02T18:15:30Z</time>
      </trkpt>
      <trkpt lat="43.66877" lon="5.75536">
        <ele>400.439</ele>
        <time>2020-09-02T18:15:31Z</time>
      </trkpt>
      <trkpt lat="43.66874" lon="5.75521">
        <ele>399.749</ele>
        <time>2020-09-02T18:15:32Z</time>
      </trkpt>
      <trkpt lat="43.66871" lon="5.75506">
        <ele>399.302</ele>
        <time>2020-09-02T18:15:33Z</time>
      </trkpt>
      <trkpt lat="43.66868" lon="5.75493">
        <ele>399.022</ele>
        <time>2020-09-02T18:15:34Z</time>
      </trkpt>
      <trkpt lat="43.66866" lon="5.7548">
        <ele>399.108</ele>
        <time>2020-09-02T18:15:35Z</time>
      </trkpt>
      <trkpt lat="43.66867" lon="5.75472">
        <ele>398.592</ele>
        <time>2020-09-02T18:15:36Z</time>
      </trkpt>
      <trkpt lat="43.66868" lon="5.75461">
        <ele>399.191</ele>
        <time>2020-09-02T18:15:37Z</time>
      </trkpt>
      <trkpt lat="43.66871" lon="5.75448">
        <ele>398.611</ele>
        <time>2020-09-02T18:15:38Z</time>
      </trkpt>
      <trkpt lat="43.66872" lon="5.75436">
        <ele>398.738</ele>
        <time>2020-09-02T18:15:39Z</time>
      </trkpt>
      <trkpt lat="43.66874" lon="5.75425">
        <ele>398.549</ele>
        <time>2020-09-02T18:15:40Z</time>
      </trkpt>
      <trkpt lat="43.66879" lon="5.75415">
        <ele>397.947</ele>
        <time>2020-09-02T18:15:41Z</time>
      </trkpt>
      <trkpt lat="43.66886" lon="5.75408">
        <ele>398.253</ele>
        <time>2020-09-02T18:15:42Z</time>
      </trkpt>
      <trkpt lat="43.66894" lon="5.75399">
        <ele>397.996</ele>
        <time>2020-09-02T18:15:43Z</time>
      </trkpt>
      <trkpt lat="43.66901" lon="5.75389">
        <ele>397.554</ele>
        <time>2020-09-02T18:15:44Z</time>
      </trkpt>
      <trkpt lat="43.66908" lon="5.75379">
        <ele>397.756</ele>
        <time>2020-09-02T18:15:45Z</time>
      </trkpt>
      <trkpt lat="43.66913" lon="5.75369">
        <ele>397.311</ele>
        <time>2020-09-02T18:15:46Z</time>
      </trkpt>
      <trkpt lat="43.66916" lon="5.75357">
        <ele>397.608</ele>
        <time>2020-09-02T18:15:47Z</time>
      </trkpt>
      <trkpt lat="43.66917" lon="5.75346">
        <ele>397.393</ele>
        <time>2020-09-02T18:15:48Z</time>
      </trkpt>
      <trkpt lat="43.66919" lon="5.75333">
        <ele>397.422</ele>
        <time>2020-09-02T18:15:49Z</time>
      </trkpt>
      <trkpt lat="43.66921" lon="5.75321">
        <ele>397.922</ele>
        <time>2020-09-02T18:15:50Z</time>
      </trkpt>
      <trkpt lat="43.66924" lon="5.75308">
        <ele>398.129</ele>
        <time>2020-09-02T18:15:51Z</time>
      </trkpt>
      <trkpt lat="43.66928" lon="5.75294">
        <ele>398.16</ele>
        <time>2020-09-02T18:15:52Z</time>
      </trkpt>
      <trkpt lat="43.66934" lon="5.75283">
        <ele>398.178</ele>
        <time>2020-09-02T18:15:53Z</time>
      </trkpt>
      <trkpt lat="43.6694" lon="5.75273">
        <ele>398.124</ele>
        <time>2020-09-02T18:15:54Z</time>
      </trkpt>
      <trkpt lat="43.66947" lon="5.75266">
        <ele>397.877</ele>
        <time>2020-09-02T18:15:55Z</time>
      </trkpt>
      <trkpt lat="43.66953" lon="5.75259">
        <ele>397.656</ele>
        <time>2020-09-02T18:15:56Z</time>
      </trkpt>
      <trkpt lat="43.6696" lon="5.75252">
        <ele>397.759</ele>
        <time>2020-09-02T18:15:57Z</time>
      </trkpt>
      <trkpt lat="43.66965" lon="5.75245">
        <ele>397.514</ele>
        <time>2020-09-02T18:15:58Z</time>
      </trkpt>
      <trkpt lat="43.66969" lon="5.75237">
        <ele>397.508</ele>
        <time>2020-09-02T18:15:59Z</time>
      </trkpt>
      <trkpt lat="43.66972" lon="5.75229">
        <ele>397.313</ele>
        <time>2020-09-02T18:16:00Z</time>
      </trkpt>
      <trkpt lat="43.66974" lon="5.75221">
        <ele>397.342</ele>
        <time>2020-09-02T18:16:01Z</time>
      </trkpt>
      <trkpt lat="43.66975" lon="5.7521">
        <ele>397.132</ele>
        <time>2020-09-02T18:16:02Z</time>
      </trkpt>
      <trkpt lat="43.66978" lon="5.75198">
        <ele>396.579</ele>
        <time>2020-09-02T18:16:03Z</time>
      </trkpt>
      <trkpt lat="43.6698" lon="5.75185">
        <ele>396.22</ele>
        <time>2020-09-02T18:16:04Z</time>
      </trkpt>
      <trkpt lat="43.66982" lon="5.75172">
        <ele>395.958</ele>
        <time>2020-09-02T18:16:05Z</time>
      </trkpt>
      <trkpt lat="43.66983" lon="5.7516">
        <ele>395.684</ele>
        <time>2020-09-02T18:16:06Z</time>
      </trkpt>
      <trkpt lat="43.66983" lon="5.75151">
        <ele>395.197</ele>
        <time>2020-09-02T18:16:07Z</time>
      </trkpt>
      <trkpt lat="43.66984" lon="5.75144">
        <ele>394.758</ele>
        <time>2020-09-02T18:16:08Z</time>
      </trkpt>
      <trkpt lat="43.66987" lon="5.75136">
        <ele>393.552</ele>
        <time>2020-09-02T18:16:09Z</time>
      </trkpt>
      <trkpt lat="43.6699" lon="5.75128">
        <ele>392.617</ele>
        <time>2020-09-02T18:16:10Z</time>
      </trkpt>
      <trkpt lat="43.66994" lon="5.7512">
        <ele>391.908</ele>
        <time>2020-09-02T18:16:11Z</time>
      </trkpt>
      <trkpt lat="43.66997" lon="5.7511">
        <ele>390.653</ele>
        <time>2020-09-02T18:16:12Z</time>
      </trkpt>
      <trkpt lat="43.66999" lon="5.75099">
        <ele>389.712</ele>
        <time>2020-09-02T18:16:13Z</time>
      </trkpt>
      <trkpt lat="43.67" lon="5.75089">
        <ele>389.262</ele>
        <time>2020-09-02T18:16:14Z</time>
      </trkpt>
      <trkpt lat="43.67002" lon="5.75077">
        <ele>388.749</ele>
        <time>2020-09-02T18:16:15Z</time>
      </trkpt>
      <trkpt lat="43.67005" lon="5.75065">
        <ele>388.53</ele>
        <time>2020-09-02T18:16:16Z</time>
      </trkpt>
      <trkpt lat="43.67009" lon="5.75051">
        <ele>388.068</ele>
        <time>2020-09-02T18:16:17Z</time>
      </trkpt>
      <trkpt lat="43.67013" lon="5.75036">
        <ele>386.924</ele>
        <time>2020-09-02T18:16:18Z</time>
      </trkpt>
      <trkpt lat="43.67019" lon="5.75023">
        <ele>386.417</ele>
        <time>2020-09-02T18:16:19Z</time>
      </trkpt>
      <trkpt lat="43.67024" lon="5.75011">
        <ele>385.685</ele>
        <time>2020-09-02T18:16:20Z</time>
      </trkpt>
      <trkpt lat="43.67031" lon="5.74999">
        <ele>384.689</ele>
        <time>2020-09-02T18:16:21Z</time>
      </trkpt>
      <trkpt lat="43.67039" lon="5.7499">
        <ele>383.717</ele>
        <time>2020-09-02T18:16:22Z</time>
      </trkpt>
      <trkpt lat="43.67047" lon="5.74981">
        <ele>382.608</ele>
        <time>2020-09-02T18:16:23Z</time>
      </trkpt>
      <trkpt lat="43.67058" lon="5.74971">
        <ele>380.296</ele>
        <time>2020-09-02T18:16:24Z</time>
      </trkpt>
      <trkpt lat="43.67067" lon="5.74962">
        <ele>378.955</ele>
        <time>2020-09-02T18:16:25Z</time>
      </trkpt>
      <trkpt lat="43.67076" lon="5.74953">
        <ele>376.535</ele>
        <time>2020-09-02T18:16:26Z</time>
      </trkpt>
      <trkpt lat="43.67085" lon="5.74946">
        <ele>376.132</ele>
        <time>2020-09-02T18:16:27Z</time>
      </trkpt>
      <trkpt lat="43.67093" lon="5.74936">
        <ele>375.593</ele>
        <time>2020-09-02T18:16:28Z</time>
      </trkpt>
      <trkpt lat="43.67103" lon="5.74926">
        <ele>373.681</ele>
        <time>2020-09-02T18:16:29Z</time>
      </trkpt>
      <trkpt lat="43.6711" lon="5.74917">
        <ele>372.357</ele>
        <time>2020-09-02T18:16:30Z</time>
      </trkpt>
      <trkpt lat="43.67119" lon="5.74908">
        <ele>371.75</ele>
        <time>2020-09-02T18:16:31Z</time>
      </trkpt>
      <trkpt lat="43.67127" lon="5.74899">
        <ele>370.354</ele>
        <time>2020-09-02T18:16:32Z</time>
      </trkpt>
      <trkpt lat="43.67135" lon="5.74889">
        <ele>369.356</ele>
        <time>2020-09-02T18:16:33Z</time>
      </trkpt>
      <trkpt lat="43.67143" lon="5.7488">
        <ele>368.111</ele>
        <time>2020-09-02T18:16:34Z</time>
      </trkpt>
      <trkpt lat="43.67151" lon="5.74871">
        <ele>367.008</ele>
        <time>2020-09-02T18:16:35Z</time>
      </trkpt>
      <trkpt lat="43.67157" lon="5.7486">
        <ele>365.913</ele>
        <time>2020-09-02T18:16:36Z</time>
      </trkpt>
      <trkpt lat="43.67161" lon="5.74849">
        <ele>365.552</ele>
        <time>2020-09-02T18:16:37Z</time>
      </trkpt>
      <trkpt lat="43.67166" lon="5.74836">
        <ele>364.872</ele>
        <time>2020-09-02T18:16:38Z</time>
      </trkpt>
      <trkpt lat="43.67169" lon="5.74823">
        <ele>363.579</ele>
        <time>2020-09-02T18:16:39Z</time>
      </trkpt>
      <trkpt lat="43.67174" lon="5.74811">
        <ele>362.61</ele>
        <time>2020-09-02T18:16:40Z</time>
      </trkpt>
      <trkpt lat="43.67177" lon="5.74797">
        <ele>360.928</ele>
        <time>2020-09-02T18:16:41Z</time>
      </trkpt>
      <trkpt lat="43.67181" lon="5.74781">
        <ele>359.264</ele>
        <time>2020-09-02T18:16:42Z</time>
      </trkpt>
      <trkpt lat="43.67185" lon="5.74762">
        <ele>357.367</ele>
        <time>2020-09-02T18:16:43Z</time>
      </trkpt>
      <trkpt lat="43.67189" lon="5.74746">
        <ele>355.762</ele>
        <time>2020-09-02T18:16:44Z</time>
      </trkpt>
      <trkpt lat="43.67193" lon="5.74729">
        <ele>354.583</ele>
        <time>2020-09-02T18:16:45Z</time>
      </trkpt>
      <trkpt lat="43.67198" lon="5.74715">
        <ele>352.911</ele>
        <time>2020-09-02T18:16:46Z</time>
      </trkpt>
      <trkpt lat="43.67203" lon="5.74701">
        <ele>350.808</ele>
        <time>2020-09-02T18:16:47Z</time>
      </trkpt>
      <trkpt lat="43.67208" lon="5.74688">
        <ele>350.434</ele>
        <time>2020-09-02T18:16:48Z</time>
      </trkpt>
      <trkpt lat="43.67214" lon="5.74675">
        <ele>350.313</ele>
        <time>2020-09-02T18:16:49Z</time>
      </trkpt>
      <trkpt lat="43.6722" lon="5.74659">
        <ele>347.593</ele>
        <time>2020-09-02T18:16:50Z</time>
      </trkpt>
      <trkpt lat="43.67228" lon="5.74645">
        <ele>345.09</ele>
        <time>2020-09-02T18:16:51Z</time>
      </trkpt>
      <trkpt lat="43.67237" lon="5.74633">
        <ele>343.961</ele>
        <time>2020-09-02T18:16:52Z</time>
      </trkpt>
      <trkpt lat="43.67245" lon="5.7462">
        <ele>343.159</ele>
        <time>2020-09-02T18:16:53Z</time>
      </trkpt>
      <trkpt lat="43.67253" lon="5.74611">
        <ele>341.035</ele>
        <time>2020-09-02T18:16:54Z</time>
      </trkpt>
      <trkpt lat="43.6726" lon="5.74598">
        <ele>340.138</ele>
        <time>2020-09-02T18:16:55Z</time>
      </trkpt>
      <trkpt lat="43.67265" lon="5.74584">
        <ele>339.292</ele>
        <time>2020-09-02T18:16:56Z</time>
      </trkpt>
      <trkpt lat="43.6727" lon="5.74571">
        <ele>338.773</ele>
        <time>2020-09-02T18:16:57Z</time>
      </trkpt>
      <trkpt lat="43.67274" lon="5.74559">
        <ele>337.92</ele>
        <time>2020-09-02T18:16:58Z</time>
      </trkpt>
      <trkpt lat="43.67276" lon="5.74546">
        <ele>335.708</ele>
        <time>2020-09-02T18:16:59Z</time>
      </trkpt>
      <trkpt lat="43.67277" lon="5.74533">
        <ele>333.187</ele>
        <time>2020-09-02T18:17:00Z</time>
      </trkpt>
      <trkpt lat="43.67278" lon="5.74519">
        <ele>333.386</ele>
        <time>2020-09-02T18:17:01Z</time>
      </trkpt>
      <trkpt lat="43.67279" lon="5.74503">
        <ele>332.976</ele>
        <time>2020-09-02T18:17:02Z</time>
      </trkpt>
      <trkpt lat="43.6728" lon="5.74488">
        <ele>330.923</ele>
        <time>2020-09-02T18:17:03Z</time>
      </trkpt>
      <trkpt lat="43.6728" lon="5.74472">
        <ele>330.294</ele>
        <time>2020-09-02T18:17:04Z</time>
      </trkpt>
      <trkpt lat="43.67279" lon="5.74457">
        <ele>330.222</ele>
        <time>2020-09-02T18:17:05Z</time>
      </trkpt>
      <trkpt lat="43.67278" lon="5.7444">
        <ele>329.828</ele>
        <time>2020-09-02T18:17:06Z</time>
      </trkpt>
      <trkpt lat="43.67276" lon="5.74423">
        <ele>328.691</ele>
        <time>2020-09-02T18:17:07Z</time>
      </trkpt>
      <trkpt lat="43.67274" lon="5.74404">
        <ele>328.414</ele>
        <time>2020-09-02T18:17:08Z</time>
      </trkpt>
      <trkpt lat="43.67271" lon="5.74388">
        <ele>327.354</ele>
        <time>2020-09-02T18:17:09Z</time>
      </trkpt>
      <trkpt lat="43.67269" lon="5.74372">
        <ele>326.009</ele>
        <time>2020-09-02T18:17:10Z</time>
      </trkpt>
      <trkpt lat="43.67266" lon="5.74355">
        <ele>325.008</ele>
        <time>2020-09-02T18:17:11Z</time>
      </trkpt>
      <trkpt lat="43.67265" lon="5.74339">
        <ele>323.969</ele>
        <time>2020-09-02T18:17:12Z</time>
      </trkpt>
      <trkpt lat="43.67265" lon="5.74324">
        <ele>323.438</ele>
        <time>2020-09-02T18:17:13Z</time>
      </trkpt>
      <trkpt lat="43.67265" lon="5.7431">
        <ele>323.638</ele>
        <time>2020-09-02T18:17:14Z</time>
      </trkpt>
      <trkpt lat="43.67267" lon="5.74297">
        <ele>321.825</ele>
        <time>2020-09-02T18:17:15Z</time>
      </trkpt>
      <trkpt lat="43.6727" lon="5.74285">
        <ele>321.156</ele>
        <time>2020-09-02T18:17:16Z</time>
      </trkpt>
      <trkpt lat="43.67272" lon="5.74271">
        <ele>319.334</ele>
        <time>2020-09-02T18:17:17Z</time>
      </trkpt>
      <trkpt lat="43.67273" lon="5.74256">
        <ele>317.84</ele>
        <time>2020-09-02T18:17:18Z</time>
      </trkpt>
      <trkpt lat="43.67273" lon="5.74242">
        <ele>317.173</ele>
        <time>2020-09-02T18:17:19Z</time>
      </trkpt>
      <trkpt lat="43.67275" lon="5.74228">
        <ele>315.944</ele>
        <time>2020-09-02T18:17:20Z</time>
      </trkpt>
      <trkpt lat="43.67274" lon="5.74215">
        <ele>313.505</ele>
        <time>2020-09-02T18:17:21Z</time>
      </trkpt>
      <trkpt lat="43.67272" lon="5.74199">
        <ele>311.915</ele>
        <time>2020-09-02T18:17:22Z</time>
      </trkpt>
      <trkpt lat="43.6727" lon="5.74186">
        <ele>311.308</ele>
        <time>2020-09-02T18:17:23Z</time>
      </trkpt>
      <trkpt lat="43.67268" lon="5.7417">
        <ele>309.912</ele>
        <time>2020-09-02T18:17:24Z</time>
      </trkpt>
      <trkpt lat="43.67265" lon="5.74154">
        <ele>308.211</ele>
        <time>2020-09-02T18:17:25Z</time>
      </trkpt>
      <trkpt lat="43.67263" lon="5.74141">
        <ele>307.061</ele>
        <time>2020-09-02T18:17:26Z</time>
      </trkpt>
      <trkpt lat="43.6726" lon="5.74127">
        <ele>306.288</ele>
        <time>2020-09-02T18:17:27Z</time>
      </trkpt>
      <trkpt lat="43.67258" lon="5.74112">
        <ele>305.539</ele>
        <time>2020-09-02T18:17:28Z</time>
      </trkpt>
      <trkpt lat="43.67256" lon="5.74098">
        <ele>305.997</ele>
        <time>2020-09-02T18:17:29Z</time>
      </trkpt>
      <trkpt lat="43.67256" lon="5.74084">
        <ele>305.233</ele>
        <time>2020-09-02T18:17:30Z</time>
      </trkpt>
      <trkpt lat="43.67256" lon="5.7407">
        <ele>305.126</ele>
        <time>2020-09-02T18:17:31Z</time>
      </trkpt>
      <trkpt lat="43.67259" lon="5.74058">
        <ele>304.424</ele>
        <time>2020-09-02T18:17:32Z</time>
      </trkpt>
      <trkpt lat="43.67259" lon="5.74049">
        <ele>303.104</ele>
        <time>2020-09-02T18:17:33Z</time>
      </trkpt>
      <trkpt lat="43.67257" lon="5.74039">
        <ele>302.414</ele>
        <time>2020-09-02T18:17:34Z</time>
      </trkpt>
      <trkpt lat="43.67254" lon="5.74029">
        <ele>301.508</ele>
        <time>2020-09-02T18:17:35Z</time>
      </trkpt>
      <trkpt lat="43.67249" lon="5.74019">
        <ele>300.66</ele>
        <time>2020-09-02T18:17:36Z</time>
      </trkpt>
      <trkpt lat="43.67241" lon="5.74008">
        <ele>300.129</ele>
        <time>2020-09-02T18:17:37Z</time>
      </trkpt>
      <trkpt lat="43.67233" lon="5.73995">
        <ele>299.719</ele>
        <time>2020-09-02T18:17:38Z</time>
      </trkpt>
      <trkpt lat="43.67226" lon="5.73984">
        <ele>297.816</ele>
        <time>2020-09-02T18:17:39Z</time>
      </trkpt>
      <trkpt lat="43.67219" lon="5.73973">
        <ele>296.837</ele>
        <time>2020-09-02T18:17:40Z</time>
      </trkpt>
      <trkpt lat="43.67215" lon="5.73959">
        <ele>293.825</ele>
        <time>2020-09-02T18:17:41Z</time>
      </trkpt>
      <trkpt lat="43.6721" lon="5.73946">
        <ele>293.141</ele>
        <time>2020-09-02T18:17:42Z</time>
      </trkpt>
      <trkpt lat="43.67207" lon="5.73937">
        <ele>292.834</ele>
        <time>2020-09-02T18:17:43Z</time>
      </trkpt>
      <trkpt lat="43.67204" lon="5.73928">
        <ele>292.651</ele>
        <time>2020-09-02T18:17:44Z</time>
      </trkpt>
      <trkpt lat="43.67202" lon="5.73918">
        <ele>292.301</ele>
        <time>2020-09-02T18:17:45Z</time>
      </trkpt>
      <trkpt lat="43.67201" lon="5.73907">
        <ele>291.811</ele>
        <time>2020-09-02T18:17:46Z</time>
      </trkpt>
      <trkpt lat="43.672" lon="5.73896">
        <ele>290.508</ele>
        <time>2020-09-02T18:17:47Z</time>
      </trkpt>
      <trkpt lat="43.67198" lon="5.73885">
        <ele>290.233</ele>
        <time>2020-09-02T18:17:48Z</time>
      </trkpt>
      <trkpt lat="43.67197" lon="5.73875">
        <ele>290.082</ele>
        <time>2020-09-02T18:17:49Z</time>
      </trkpt>
      <trkpt lat="43.67195" lon="5.73868">
        <ele>290.172</ele>
        <time>2020-09-02T18:17:50Z</time>
      </trkpt>
      <trkpt lat="43.67193" lon="5.73861">
        <ele>289.979</ele>
        <time>2020-09-02T18:17:51Z</time>
      </trkpt>
      <trkpt lat="43.67191" lon="5.73854">
        <ele>290.19</ele>
        <time>2020-09-02T18:17:52Z</time>
      </trkpt>
      <trkpt lat="43.67188" lon="5.73848">
        <ele>290.138</ele>
        <time>2020-09-02T18:17:53Z</time>
      </trkpt>
      <trkpt lat="43.67186" lon="5.73842">
        <ele>290.374</ele>
        <time>2020-09-02T18:17:54Z</time>
      </trkpt>
      <trkpt lat="43.67185" lon="5.73835">
        <ele>289.837</ele>
        <time>2020-09-02T18:17:55Z</time>
      </trkpt>
      <trkpt lat="43.67182" lon="5.73824">
        <ele>290.231</ele>
        <time>2020-09-02T18:17:57Z</time>
      </trkpt>
      <trkpt lat="43.6718" lon="5.73817">
        <ele>288.861</ele>
        <time>2020-09-02T18:19:47Z</time>
      </trkpt>
      <trkpt lat="43.67178" lon="5.73807">
        <ele>289.307</ele>
        <time>2020-09-02T18:19:49Z</time>
      </trkpt>
      <trkpt lat="43.67177" lon="5.73799">
        <ele>288.908</ele>
        <time>2020-09-02T18:19:50Z</time>
      </trkpt>
      <trkpt lat="43.67176" lon="5.73789">
        <ele>289.171</ele>
        <time>2020-09-02T18:19:51Z</time>
      </trkpt>
      <trkpt lat="43.67176" lon="5.73777">
        <ele>289.76</ele>
        <time>2020-09-02T18:19:52Z</time>
      </trkpt>
      <trkpt lat="43.67175" lon="5.73765">
        <ele>290.87</ele>
        <time>2020-09-02T18:19:53Z</time>
      </trkpt>
      <trkpt lat="43.67174" lon="5.73752">
        <ele>291.037</ele>
        <time>2020-09-02T18:19:54Z</time>
      </trkpt>
      <trkpt lat="43.67174" lon="5.73736">
        <ele>291.238</ele>
        <time>2020-09-02T18:19:55Z</time>
      </trkpt>
      <trkpt lat="43.67175" lon="5.73721">
        <ele>291.866</ele>
        <time>2020-09-02T18:19:56Z</time>
      </trkpt>
      <trkpt lat="43.67179" lon="5.73705">
        <ele>292.052</ele>
        <time>2020-09-02T18:19:57Z</time>
      </trkpt>
      <trkpt lat="43.67185" lon="5.73689">
        <ele>290.625</ele>
        <time>2020-09-02T18:19:58Z</time>
      </trkpt>
      <trkpt lat="43.67194" lon="5.73675">
        <ele>290.988</ele>
        <time>2020-09-02T18:19:59Z</time>
      </trkpt>
      <trkpt lat="43.67204" lon="5.73663">
        <ele>291.124</ele>
        <time>2020-09-02T18:20:00Z</time>
      </trkpt>
      <trkpt lat="43.67215" lon="5.73651">
        <ele>291.126</ele>
        <time>2020-09-02T18:20:01Z</time>
      </trkpt>
      <trkpt lat="43.67228" lon="5.73638">
        <ele>290.908</ele>
        <time>2020-09-02T18:20:02Z</time>
      </trkpt>
      <trkpt lat="43.67241" lon="5.73625">
        <ele>290.616</ele>
        <time>2020-09-02T18:20:03Z</time>
      </trkpt>
      <trkpt lat="43.67255" lon="5.73612">
        <ele>290.135</ele>
        <time>2020-09-02T18:20:04Z</time>
      </trkpt>
      <trkpt lat="43.67268" lon="5.73599">
        <ele>290.025</ele>
        <time>2020-09-02T18:20:05Z</time>
      </trkpt>
      <trkpt lat="43.67282" lon="5.73587">
        <ele>288.962</ele>
        <time>2020-09-02T18:20:06Z</time>
      </trkpt>
      <trkpt lat="43.67295" lon="5.73574">
        <ele>288.283</ele>
        <time>2020-09-02T18:20:07Z</time>
      </trkpt>
      <trkpt lat="43.67308" lon="5.73559">
        <ele>287.751</ele>
        <time>2020-09-02T18:20:08Z</time>
      </trkpt>
      <trkpt lat="43.6732" lon="5.73542">
        <ele>286.687</ele>
        <time>2020-09-02T18:20:09Z</time>
      </trkpt>
      <trkpt lat="43.67332" lon="5.73526">
        <ele>286.19</ele>
        <time>2020-09-02T18:20:10Z</time>
      </trkpt>
      <trkpt lat="43.67341" lon="5.73504">
        <ele>286.191</ele>
        <time>2020-09-02T18:20:11Z</time>
      </trkpt>
      <trkpt lat="43.67347" lon="5.73479">
        <ele>285.681</ele>
        <time>2020-09-02T18:20:12Z</time>
      </trkpt>
      <trkpt lat="43.67354" lon="5.73455">
        <ele>285.619</ele>
        <time>2020-09-02T18:20:13Z</time>
      </trkpt>
      <trkpt lat="43.6736" lon="5.7343">
        <ele>285.408</ele>
        <time>2020-09-02T18:20:14Z</time>
      </trkpt>
      <trkpt lat="43.67366" lon="5.73403">
        <ele>284.787</ele>
        <time>2020-09-02T18:20:15Z</time>
      </trkpt>
      <trkpt lat="43.67372" lon="5.7338">
        <ele>284.656</ele>
        <time>2020-09-02T18:20:16Z</time>
      </trkpt>
      <trkpt lat="43.6738" lon="5.73358">
        <ele>283.626</ele>
        <time>2020-09-02T18:20:17Z</time>
      </trkpt>
      <trkpt lat="43.67388" lon="5.73338">
        <ele>283.113</ele>
        <time>2020-09-02T18:20:18Z</time>
      </trkpt>
      <trkpt lat="43.67399" lon="5.73318">
        <ele>283.144</ele>
        <time>2020-09-02T18:20:19Z</time>
      </trkpt>
      <trkpt lat="43.67412" lon="5.73299">
        <ele>283.022</ele>
        <time>2020-09-02T18:20:20Z</time>
      </trkpt>
      <trkpt lat="43.67424" lon="5.7328">
        <ele>282.968</ele>
        <time>2020-09-02T18:20:21Z</time>
      </trkpt>
      <trkpt lat="43.67437" lon="5.73262">
        <ele>283.071</ele>
        <time>2020-09-02T18:20:22Z</time>
      </trkpt>
      <trkpt lat="43.67449" lon="5.73246">
        <ele>282.611</ele>
        <time>2020-09-02T18:20:23Z</time>
      </trkpt>
      <trkpt lat="43.6746" lon="5.73231">
        <ele>282.721</ele>
        <time>2020-09-02T18:20:24Z</time>
      </trkpt>
      <trkpt lat="43.67473" lon="5.73219">
        <ele>282.903</ele>
        <time>2020-09-02T18:20:25Z</time>
      </trkpt>
      <trkpt lat="43.67487" lon="5.7321">
        <ele>282.908</ele>
        <time>2020-09-02T18:20:26Z</time>
      </trkpt>
      <trkpt lat="43.67503" lon="5.73203">
        <ele>282.849</ele>
        <time>2020-09-02T18:20:27Z</time>
      </trkpt>
      <trkpt lat="43.67521" lon="5.73197">
        <ele>282.698</ele>
        <time>2020-09-02T18:20:28Z</time>
      </trkpt>
      <trkpt lat="43.67539" lon="5.7319">
        <ele>282.218</ele>
        <time>2020-09-02T18:20:29Z</time>
      </trkpt>
      <trkpt lat="43.67557" lon="5.73182">
        <ele>282.085</ele>
        <time>2020-09-02T18:20:30Z</time>
      </trkpt>
      <trkpt lat="43.67573" lon="5.73175">
        <ele>281.926</ele>
        <time>2020-09-02T18:20:31Z</time>
      </trkpt>
      <trkpt lat="43.67589" lon="5.7317">
        <ele>281.654</ele>
        <time>2020-09-02T18:20:32Z</time>
      </trkpt>
      <trkpt lat="43.67605" lon="5.73165">
        <ele>280.12</ele>
        <time>2020-09-02T18:20:33Z</time>
      </trkpt>
      <trkpt lat="43.67622" lon="5.7316">
        <ele>280.283</ele>
        <time>2020-09-02T18:20:34Z</time>
      </trkpt>
      <trkpt lat="43.67639" lon="5.73154">
        <ele>280.089</ele>
        <time>2020-09-02T18:20:35Z</time>
      </trkpt>
      <trkpt lat="43.67656" lon="5.73148">
        <ele>280.306</ele>
        <time>2020-09-02T18:20:36Z</time>
      </trkpt>
      <trkpt lat="43.67672" lon="5.73142">
        <ele>280.426</ele>
        <time>2020-09-02T18:20:37Z</time>
      </trkpt>
      <trkpt lat="43.67686" lon="5.73135">
        <ele>280.308</ele>
        <time>2020-09-02T18:20:38Z</time>
      </trkpt>
      <trkpt lat="43.677" lon="5.73126">
        <ele>280.196</ele>
        <time>2020-09-02T18:20:39Z</time>
      </trkpt>
      <trkpt lat="43.67711" lon="5.73115">
        <ele>280.045</ele>
        <time>2020-09-02T18:20:40Z</time>
      </trkpt>
      <trkpt lat="43.67721" lon="5.73099">
        <ele>280.535</ele>
        <time>2020-09-02T18:20:41Z</time>
      </trkpt>
      <trkpt lat="43.6773" lon="5.73082">
        <ele>280.562</ele>
        <time>2020-09-02T18:20:42Z</time>
      </trkpt>
      <trkpt lat="43.67738" lon="5.73064">
        <ele>280.313</ele>
        <time>2020-09-02T18:20:43Z</time>
      </trkpt>
      <trkpt lat="43.67746" lon="5.73044">
        <ele>280.311</ele>
        <time>2020-09-02T18:20:44Z</time>
      </trkpt>
      <trkpt lat="43.67754" lon="5.73025">
        <ele>280.667</ele>
        <time>2020-09-02T18:20:45Z</time>
      </trkpt>
      <trkpt lat="43.6776" lon="5.73006">
        <ele>280.62</ele>
        <time>2020-09-02T18:20:46Z</time>
      </trkpt>
      <trkpt lat="43.67763" lon="5.72987">
        <ele>280.275</ele>
        <time>2020-09-02T18:20:47Z</time>
      </trkpt>
      <trkpt lat="43.67762" lon="5.72967">
        <ele>279.928</ele>
        <time>2020-09-02T18:20:48Z</time>
      </trkpt>
      <trkpt lat="43.67757" lon="5.72947">
        <ele>279.62</ele>
        <time>2020-09-02T18:20:49Z</time>
      </trkpt>
      <trkpt lat="43.67748" lon="5.72927">
        <ele>279.808</ele>
        <time>2020-09-02T18:20:50Z</time>
      </trkpt>
      <trkpt lat="43.67737" lon="5.7291">
        <ele>279.415</ele>
        <time>2020-09-02T18:20:51Z</time>
      </trkpt>
      <trkpt lat="43.67727" lon="5.72893">
        <ele>279.734</ele>
        <time>2020-09-02T18:20:52Z</time>
      </trkpt>
      <trkpt lat="43.6772" lon="5.72874">
        <ele>279.654</ele>
        <time>2020-09-02T18:20:53Z</time>
      </trkpt>
      <trkpt lat="43.67717" lon="5.72853">
        <ele>279.431</ele>
        <time>2020-09-02T18:20:54Z</time>
      </trkpt>
      <trkpt lat="43.67715" lon="5.72833">
        <ele>279.692</ele>
        <time>2020-09-02T18:20:55Z</time>
      </trkpt>
      <trkpt lat="43.67716" lon="5.72813">
        <ele>279.43</ele>
        <time>2020-09-02T18:20:56Z</time>
      </trkpt>
      <trkpt lat="43.67724" lon="5.72799">
        <ele>279.346</ele>
        <time>2020-09-02T18:20:57Z</time>
      </trkpt>
      <trkpt lat="43.67739" lon="5.72783">
        <ele>279.959</ele>
        <time>2020-09-02T18:20:58Z</time>
      </trkpt>
      <trkpt lat="43.67749" lon="5.72765">
        <ele>280.061</ele>
        <time>2020-09-02T18:20:59Z</time>
      </trkpt>
      <trkpt lat="43.67759" lon="5.72748">
        <ele>280.221</ele>
        <time>2020-09-02T18:21:00Z</time>
      </trkpt>
      <trkpt lat="43.6777" lon="5.7273">
        <ele>280.013</ele>
        <time>2020-09-02T18:21:01Z</time>
      </trkpt>
      <trkpt lat="43.67781" lon="5.72713">
        <ele>279.308</ele>
        <time>2020-09-02T18:21:02Z</time>
      </trkpt>
      <trkpt lat="43.67793" lon="5.72695">
        <ele>278.644</ele>
        <time>2020-09-02T18:21:03Z</time>
      </trkpt>
      <trkpt lat="43.67806" lon="5.72677">
        <ele>277.773</ele>
        <time>2020-09-02T18:21:04Z</time>
      </trkpt>
      <trkpt lat="43.67818" lon="5.72658">
        <ele>277.233</ele>
        <time>2020-09-02T18:21:05Z</time>
      </trkpt>
      <trkpt lat="43.67831" lon="5.72639">
        <ele>277.05</ele>
        <time>2020-09-02T18:21:06Z</time>
      </trkpt>
      <trkpt lat="43.67843" lon="5.72622">
        <ele>277.061</ele>
        <time>2020-09-02T18:21:07Z</time>
      </trkpt>
      <trkpt lat="43.67853" lon="5.72605">
        <ele>276.449</ele>
        <time>2020-09-02T18:21:08Z</time>
      </trkpt>
      <trkpt lat="43.6786" lon="5.72585">
        <ele>276.585</ele>
        <time>2020-09-02T18:21:09Z</time>
      </trkpt>
      <trkpt lat="43.67862" lon="5.72566">
        <ele>276.438</ele>
        <time>2020-09-02T18:21:10Z</time>
      </trkpt>
      <trkpt lat="43.6786" lon="5.72547">
        <ele>276.854</ele>
        <time>2020-09-02T18:21:11Z</time>
      </trkpt>
      <trkpt lat="43.67853" lon="5.72529">
        <ele>276.856</ele>
        <time>2020-09-02T18:21:12Z</time>
      </trkpt>
      <trkpt lat="43.67845" lon="5.7251">
        <ele>276.811</ele>
        <time>2020-09-02T18:21:13Z</time>
      </trkpt>
      <trkpt lat="43.67838" lon="5.72489">
        <ele>276.708</ele>
        <time>2020-09-02T18:21:14Z</time>
      </trkpt>
      <trkpt lat="43.67833" lon="5.72467">
        <ele>276.863</ele>
        <time>2020-09-02T18:21:15Z</time>
      </trkpt>
      <trkpt lat="43.67829" lon="5.72443">
        <ele>276.862</ele>
        <time>2020-09-02T18:21:16Z</time>
      </trkpt>
      <trkpt lat="43.67825" lon="5.72419">
        <ele>277.032</ele>
        <time>2020-09-02T18:21:17Z</time>
      </trkpt>
      <trkpt lat="43.67821" lon="5.72395">
        <ele>276.889</ele>
        <time>2020-09-02T18:21:18Z</time>
      </trkpt>
      <trkpt lat="43.67816" lon="5.72373">
        <ele>277.53</ele>
        <time>2020-09-02T18:21:19Z</time>
      </trkpt>
      <trkpt lat="43.67809" lon="5.72352">
        <ele>277.568</ele>
        <time>2020-09-02T18:21:20Z</time>
      </trkpt>
      <trkpt lat="43.67808" lon="5.72333">
        <ele>277.424</ele>
        <time>2020-09-02T18:21:21Z</time>
      </trkpt>
      <trkpt lat="43.67809" lon="5.72313">
        <ele>277.377</ele>
        <time>2020-09-02T18:21:22Z</time>
      </trkpt>
      <trkpt lat="43.67812" lon="5.72296">
        <ele>277.498</ele>
        <time>2020-09-02T18:21:23Z</time>
      </trkpt>
      <trkpt lat="43.67819" lon="5.72281">
        <ele>277.215</ele>
        <time>2020-09-02T18:21:24Z</time>
      </trkpt>
      <trkpt lat="43.67827" lon="5.72265">
        <ele>276.926</ele>
        <time>2020-09-02T18:21:25Z</time>
      </trkpt>
      <trkpt lat="43.67837" lon="5.72249">
        <ele>276.408</ele>
        <time>2020-09-02T18:21:26Z</time>
      </trkpt>
      <trkpt lat="43.67848" lon="5.72232">
        <ele>275.347</ele>
        <time>2020-09-02T18:21:27Z</time>
      </trkpt>
      <trkpt lat="43.67859" lon="5.72216">
        <ele>274.876</ele>
        <time>2020-09-02T18:21:28Z</time>
      </trkpt>
      <trkpt lat="43.6787" lon="5.722">
        <ele>274.576</ele>
        <time>2020-09-02T18:21:29Z</time>
      </trkpt>
      <trkpt lat="43.67884" lon="5.72194">
        <ele>273.783</ele>
        <time>2020-09-02T18:21:30Z</time>
      </trkpt>
      <trkpt lat="43.67899" lon="5.72191">
        <ele>273.644</ele>
        <time>2020-09-02T18:21:31Z</time>
      </trkpt>
      <trkpt lat="43.67914" lon="5.72188">
        <ele>273.912</ele>
        <time>2020-09-02T18:21:32Z</time>
      </trkpt>
      <trkpt lat="43.67931" lon="5.72185">
        <ele>273.828</ele>
        <time>2020-09-02T18:21:33Z</time>
      </trkpt>
      <trkpt lat="43.67946" lon="5.72179">
        <ele>273.891</ele>
        <time>2020-09-02T18:21:34Z</time>
      </trkpt>
      <trkpt lat="43.67959" lon="5.72166">
        <ele>273.596</ele>
        <time>2020-09-02T18:21:35Z</time>
      </trkpt>
      <trkpt lat="43.67971" lon="5.72146">
        <ele>273.431</ele>
        <time>2020-09-02T18:21:36Z</time>
      </trkpt>
      <trkpt lat="43.67984" lon="5.72128">
        <ele>272.924</ele>
        <time>2020-09-02T18:21:37Z</time>
      </trkpt>
      <trkpt lat="43.67996" lon="5.7211">
        <ele>271.808</ele>
        <time>2020-09-02T18:21:38Z</time>
      </trkpt>
      <trkpt lat="43.68005" lon="5.72088">
        <ele>271.347</ele>
        <time>2020-09-02T18:21:39Z</time>
      </trkpt>
      <trkpt lat="43.68013" lon="5.72064">
        <ele>270.796</ele>
        <time>2020-09-02T18:21:40Z</time>
      </trkpt>
      <trkpt lat="43.68019" lon="5.72041">
        <ele>270.996</ele>
        <time>2020-09-02T18:21:41Z</time>
      </trkpt>
      <trkpt lat="43.68023" lon="5.72018">
        <ele>271.173</ele>
        <time>2020-09-02T18:21:42Z</time>
      </trkpt>
      <trkpt lat="43.68025" lon="5.71998">
        <ele>270.744</ele>
        <time>2020-09-02T18:21:43Z</time>
      </trkpt>
      <trkpt lat="43.68029" lon="5.71979">
        <ele>270.552</ele>
        <time>2020-09-02T18:21:44Z</time>
      </trkpt>
      <trkpt lat="43.68036" lon="5.71961">
        <ele>270.828</ele>
        <time>2020-09-02T18:21:45Z</time>
      </trkpt>
      <trkpt lat="43.68047" lon="5.71947">
        <ele>271.011</ele>
        <time>2020-09-02T18:21:46Z</time>
      </trkpt>
      <trkpt lat="43.68059" lon="5.71938">
        <ele>271.669</ele>
        <time>2020-09-02T18:21:47Z</time>
      </trkpt>
      <trkpt lat="43.68073" lon="5.71931">
        <ele>272.304</ele>
        <time>2020-09-02T18:21:48Z</time>
      </trkpt>
      <trkpt lat="43.68083" lon="5.71918">
        <ele>272.324</ele>
        <time>2020-09-02T18:21:49Z</time>
      </trkpt>
      <trkpt lat="43.68089" lon="5.71903">
        <ele>272.308</ele>
        <time>2020-09-02T18:21:50Z</time>
      </trkpt>
      <trkpt lat="43.68091" lon="5.71885">
        <ele>272.124</ele>
        <time>2020-09-02T18:21:51Z</time>
      </trkpt>
      <trkpt lat="43.68089" lon="5.71869">
        <ele>272.813</ele>
        <time>2020-09-02T18:21:52Z</time>
      </trkpt>
      <trkpt lat="43.68085" lon="5.71853">
        <ele>273.013</ele>
        <time>2020-09-02T18:21:53Z</time>
      </trkpt>
      <trkpt lat="43.68083" lon="5.71839">
        <ele>273.23</ele>
        <time>2020-09-02T18:21:54Z</time>
      </trkpt>
      <trkpt lat="43.68084" lon="5.71824">
        <ele>273.141</ele>
        <time>2020-09-02T18:21:55Z</time>
      </trkpt>
      <trkpt lat="43.68087" lon="5.7181">
        <ele>273.329</ele>
        <time>2020-09-02T18:21:56Z</time>
      </trkpt>
      <trkpt lat="43.68094" lon="5.71799">
        <ele>273.755</ele>
        <time>2020-09-02T18:21:57Z</time>
      </trkpt>
      <trkpt lat="43.68102" lon="5.71786">
        <ele>273.698</ele>
        <time>2020-09-02T18:21:58Z</time>
      </trkpt>
      <trkpt lat="43.6811" lon="5.71771">
        <ele>274.153</ele>
        <time>2020-09-02T18:21:59Z</time>
      </trkpt>
      <trkpt lat="43.68118" lon="5.71755">
        <ele>274.004</ele>
        <time>2020-09-02T18:22:00Z</time>
      </trkpt>
      <trkpt lat="43.68126" lon="5.71739">
        <ele>274.114</ele>
        <time>2020-09-02T18:22:01Z</time>
      </trkpt>
      <trkpt lat="43.68135" lon="5.71721">
        <ele>274.108</ele>
        <time>2020-09-02T18:22:02Z</time>
      </trkpt>
      <trkpt lat="43.68142" lon="5.71702">
        <ele>274.553</ele>
        <time>2020-09-02T18:22:03Z</time>
      </trkpt>
      <trkpt lat="43.68147" lon="5.71683">
        <ele>274.392</ele>
        <time>2020-09-02T18:22:04Z</time>
      </trkpt>
      <trkpt lat="43.68152" lon="5.71664">
        <ele>274.112</ele>
        <time>2020-09-02T18:22:05Z</time>
      </trkpt>
      <trkpt lat="43.68163" lon="5.71649">
        <ele>273.319</ele>
        <time>2020-09-02T18:22:06Z</time>
      </trkpt>
      <trkpt lat="43.68176" lon="5.71639">
        <ele>273.18</ele>
        <time>2020-09-02T18:22:07Z</time>
      </trkpt>
      <trkpt lat="43.68189" lon="5.71628">
        <ele>273.318</ele>
        <time>2020-09-02T18:22:08Z</time>
      </trkpt>
      <trkpt lat="43.68203" lon="5.71619">
        <ele>273.374</ele>
        <time>2020-09-02T18:22:09Z</time>
      </trkpt>
      <trkpt lat="43.68216" lon="5.71607">
        <ele>274.277</ele>
        <time>2020-09-02T18:22:10Z</time>
      </trkpt>
      <trkpt lat="43.68231" lon="5.71594">
        <ele>273.932</ele>
        <time>2020-09-02T18:22:11Z</time>
      </trkpt>
      <trkpt lat="43.68245" lon="5.71581">
        <ele>274.092</ele>
        <time>2020-09-02T18:22:12Z</time>
      </trkpt>
      <trkpt lat="43.68257" lon="5.71566">
        <ele>273.711</ele>
        <time>2020-09-02T18:22:13Z</time>
      </trkpt>
      <trkpt lat="43.68269" lon="5.71551">
        <ele>273.408</ele>
        <time>2020-09-02T18:22:14Z</time>
      </trkpt>
      <trkpt lat="43.68281" lon="5.71535">
        <ele>273.181</ele>
        <time>2020-09-02T18:22:15Z</time>
      </trkpt>
      <trkpt lat="43.68293" lon="5.71518">
        <ele>272.24</ele>
        <time>2020-09-02T18:22:16Z</time>
      </trkpt>
      <trkpt lat="43.68307" lon="5.71499">
        <ele>271.52</ele>
        <time>2020-09-02T18:22:17Z</time>
      </trkpt>
      <trkpt lat="43.6832" lon="5.71481">
        <ele>271.467</ele>
        <time>2020-09-02T18:22:18Z</time>
      </trkpt>
      <trkpt lat="43.68334" lon="5.71462">
        <ele>271.258</ele>
        <time>2020-09-02T18:22:19Z</time>
      </trkpt>
      <trkpt lat="43.68348" lon="5.71443">
        <ele>270.566</ele>
        <time>2020-09-02T18:22:20Z</time>
      </trkpt>
      <trkpt lat="43.68362" lon="5.71423">
        <ele>270.762</ele>
        <time>2020-09-02T18:22:21Z</time>
      </trkpt>
      <trkpt lat="43.68374" lon="5.71402">
        <ele>270.275</ele>
        <time>2020-09-02T18:22:22Z</time>
      </trkpt>
      <trkpt lat="43.68387" lon="5.71381">
        <ele>269.235</ele>
        <time>2020-09-02T18:22:23Z</time>
      </trkpt>
      <trkpt lat="43.684" lon="5.7136">
        <ele>269.286</ele>
        <time>2020-09-02T18:22:24Z</time>
      </trkpt>
      <trkpt lat="43.68411" lon="5.7134">
        <ele>269.614</ele>
        <time>2020-09-02T18:22:25Z</time>
      </trkpt>
      <trkpt lat="43.68419" lon="5.71319">
        <ele>269.308</ele>
        <time>2020-09-02T18:22:26Z</time>
      </trkpt>
      <trkpt lat="43.68427" lon="5.71297">
        <ele>268.891</ele>
        <time>2020-09-02T18:22:27Z</time>
      </trkpt>
      <trkpt lat="43.68435" lon="5.71273">
        <ele>268.74</ele>
        <time>2020-09-02T18:22:28Z</time>
      </trkpt>
      <trkpt lat="43.68443" lon="5.7125">
        <ele>268.24</ele>
        <time>2020-09-02T18:22:29Z</time>
      </trkpt>
      <trkpt lat="43.68451" lon="5.71228">
        <ele>268.187</ele>
        <time>2020-09-02T18:22:30Z</time>
      </trkpt>
      <trkpt lat="43.68459" lon="5.71206">
        <ele>268.278</ele>
        <time>2020-09-02T18:22:31Z</time>
      </trkpt>
      <trkpt lat="43.68467" lon="5.71185">
        <ele>268.276</ele>
        <time>2020-09-02T18:22:32Z</time>
      </trkpt>
      <trkpt lat="43.68475" lon="5.71165">
        <ele>268.512</ele>
        <time>2020-09-02T18:22:33Z</time>
      </trkpt>
      <trkpt lat="43.68483" lon="5.71148">
        <ele>268.285</ele>
        <time>2020-09-02T18:22:34Z</time>
      </trkpt>
      <trkpt lat="43.68492" lon="5.71134">
        <ele>268.184</ele>
        <time>2020-09-02T18:22:35Z</time>
      </trkpt>
      <trkpt lat="43.68503" lon="5.71121">
        <ele>267.907</ele>
        <time>2020-09-02T18:22:36Z</time>
      </trkpt>
      <trkpt lat="43.68515" lon="5.71111">
        <ele>267.517</ele>
        <time>2020-09-02T18:22:37Z</time>
      </trkpt>
      <trkpt lat="43.68527" lon="5.71103">
        <ele>266.808</ele>
        <time>2020-09-02T18:22:38Z</time>
      </trkpt>
      <trkpt lat="43.68538" lon="5.71096">
        <ele>266.266</ele>
        <time>2020-09-02T18:22:39Z</time>
      </trkpt>
      <trkpt lat="43.68548" lon="5.71089">
        <ele>265.875</ele>
        <time>2020-09-02T18:22:40Z</time>
      </trkpt>
      <trkpt lat="43.68556" lon="5.71083">
        <ele>265.665</ele>
        <time>2020-09-02T18:22:41Z</time>
      </trkpt>
      <trkpt lat="43.68562" lon="5.71079">
        <ele>265.372</ele>
        <time>2020-09-02T18:22:42Z</time>
      </trkpt>
      <trkpt lat="43.68568" lon="5.71074">
        <ele>265.043</ele>
        <time>2020-09-02T18:22:44Z</time>
      </trkpt>
      <trkpt lat="43.68572" lon="5.7107">
        <ele>264.881</ele>
        <time>2020-09-02T18:22:46Z</time>
      </trkpt>
      <trkpt lat="43.68577" lon="5.71066">
        <ele>264.517</ele>
        <time>2020-09-02T18:22:48Z</time>
      </trkpt>
      <trkpt lat="43.6858" lon="5.71058">
        <ele>264.19</ele>
        <time>2020-09-02T18:22:50Z</time>
      </trkpt>
      <trkpt lat="43.6858" lon="5.71049">
        <ele>264.226</ele>
        <time>2020-09-02T18:22:51Z</time>
      </trkpt>
      <trkpt lat="43.68578" lon="5.71039">
        <ele>263.947</ele>
        <time>2020-09-02T18:22:52Z</time>
      </trkpt>
      <trkpt lat="43.68575" lon="5.71028">
        <ele>264.211</ele>
        <time>2020-09-02T18:22:53Z</time>
      </trkpt>
      <trkpt lat="43.68573" lon="5.71015">
        <ele>264.208</ele>
        <time>2020-09-02T18:22:54Z</time>
      </trkpt>
      <trkpt lat="43.68572" lon="5.70999">
        <ele>264.22</ele>
        <time>2020-09-02T18:22:55Z</time>
      </trkpt>
      <trkpt lat="43.6857" lon="5.70983">
        <ele>264.139</ele>
        <time>2020-09-02T18:22:56Z</time>
      </trkpt>
      <trkpt lat="43.68569" lon="5.70969">
        <ele>264.079</ele>
        <time>2020-09-02T18:22:57Z</time>
      </trkpt>
      <trkpt lat="43.68568" lon="5.70955">
        <ele>263.836</ele>
        <time>2020-09-02T18:22:58Z</time>
      </trkpt>
      <trkpt lat="43.68567" lon="5.70943">
        <ele>263.817</ele>
        <time>2020-09-02T18:22:59Z</time>
      </trkpt>
      <trkpt lat="43.68568" lon="5.70933">
        <ele>264.085</ele>
        <time>2020-09-02T18:23:00Z</time>
      </trkpt>
      <trkpt lat="43.68568" lon="5.70922">
        <ele>264.271</ele>
        <time>2020-09-02T18:23:01Z</time>
      </trkpt>
      <trkpt lat="43.68569" lon="5.70913">
        <ele>264.624</ele>
        <time>2020-09-02T18:23:02Z</time>
      </trkpt>
      <trkpt lat="43.68569" lon="5.70905">
        <ele>264.439</ele>
        <time>2020-09-02T18:23:03Z</time>
      </trkpt>
      <trkpt lat="43.68569" lon="5.70897">
        <ele>264.401</ele>
        <time>2020-09-02T18:23:04Z</time>
      </trkpt>
      <trkpt lat="43.6857" lon="5.7089">
        <ele>264.721</ele>
        <time>2020-09-02T18:23:05Z</time>
      </trkpt>
      <trkpt lat="43.6857" lon="5.70883">
        <ele>264.908</ele>
        <time>2020-09-02T18:23:06Z</time>
      </trkpt>
      <trkpt lat="43.68572" lon="5.70874">
        <ele>265.281</ele>
        <time>2020-09-02T18:23:07Z</time>
      </trkpt>
      <trkpt lat="43.68571" lon="5.70864">
        <ele>265.88</ele>
        <time>2020-09-02T18:23:09Z</time>
      </trkpt>
      <trkpt lat="43.6857" lon="5.70857">
        <ele>264.28</ele>
        <time>2020-09-02T18:23:11Z</time>
      </trkpt>
      <trkpt lat="43.68571" lon="5.70849">
        <ele>264.337</ele>
        <time>2020-09-02T18:23:17Z</time>
      </trkpt>
      <trkpt lat="43.6857" lon="5.70836">
        <ele>264.958</ele>
        <time>2020-09-02T18:23:19Z</time>
      </trkpt>
      <trkpt lat="43.68571" lon="5.70827">
        <ele>264.546</ele>
        <time>2020-09-02T18:23:20Z</time>
      </trkpt>
      <trkpt lat="43.68572" lon="5.70816">
        <ele>266.062</ele>
        <time>2020-09-02T18:23:21Z</time>
      </trkpt>
      <trkpt lat="43.68574" lon="5.70805">
        <ele>266.165</ele>
        <time>2020-09-02T18:23:22Z</time>
      </trkpt>
      <trkpt lat="43.68574" lon="5.70793">
        <ele>266.284</ele>
        <time>2020-09-02T18:23:23Z</time>
      </trkpt>
      <trkpt lat="43.68575" lon="5.7078">
        <ele>266.107</ele>
        <time>2020-09-02T18:23:24Z</time>
      </trkpt>
      <trkpt lat="43.68575" lon="5.70767">
        <ele>266.217</ele>
        <time>2020-09-02T18:23:25Z</time>
      </trkpt>
      <trkpt lat="43.68575" lon="5.70752">
        <ele>266.908</ele>
        <time>2020-09-02T18:23:26Z</time>
      </trkpt>
      <trkpt lat="43.68576" lon="5.70736">
        <ele>266.856</ele>
        <time>2020-09-02T18:23:27Z</time>
      </trkpt>
      <trkpt lat="43.68576" lon="5.7072">
        <ele>267.435</ele>
        <time>2020-09-02T18:23:28Z</time>
      </trkpt>
      <trkpt lat="43.68577" lon="5.70703">
        <ele>267.295</ele>
        <time>2020-09-02T18:23:29Z</time>
      </trkpt>
      <trkpt lat="43.68578" lon="5.70685">
        <ele>267.562</ele>
        <time>2020-09-02T18:23:30Z</time>
      </trkpt>
      <trkpt lat="43.68578" lon="5.70666">
        <ele>267.153</ele>
        <time>2020-09-02T18:23:31Z</time>
      </trkpt>
      <trkpt lat="43.68579" lon="5.70646">
        <ele>267.191</ele>
        <time>2020-09-02T18:23:32Z</time>
      </trkpt>
      <trkpt lat="43.68579" lon="5.70626">
        <ele>267.557</ele>
        <time>2020-09-02T18:23:33Z</time>
      </trkpt>
      <trkpt lat="43.6858" lon="5.70606">
        <ele>267.55</ele>
        <time>2020-09-02T18:23:34Z</time>
      </trkpt>
      <trkpt lat="43.6858" lon="5.70587">
        <ele>267.628</ele>
        <time>2020-09-02T18:23:35Z</time>
      </trkpt>
      <trkpt lat="43.68581" lon="5.70568">
        <ele>267.689</ele>
        <time>2020-09-02T18:23:36Z</time>
      </trkpt>
      <trkpt lat="43.68583" lon="5.70549">
        <ele>268.217</ele>
        <time>2020-09-02T18:23:37Z</time>
      </trkpt>
      <trkpt lat="43.68586" lon="5.70532">
        <ele>269.608</ele>
        <time>2020-09-02T18:23:38Z</time>
      </trkpt>
      <trkpt lat="43.68589" lon="5.70514">
        <ele>268.47</ele>
        <time>2020-09-02T18:23:39Z</time>
      </trkpt>
      <trkpt lat="43.68593" lon="5.70495">
        <ele>268.149</ele>
        <time>2020-09-02T18:23:40Z</time>
      </trkpt>
      <trkpt lat="43.68599" lon="5.70476">
        <ele>267.879</ele>
        <time>2020-09-02T18:23:41Z</time>
      </trkpt>
      <trkpt lat="43.68605" lon="5.70457">
        <ele>268.336</ele>
        <time>2020-09-02T18:23:42Z</time>
      </trkpt>
      <trkpt lat="43.68613" lon="5.70438">
        <ele>268.677</ele>
        <time>2020-09-02T18:23:43Z</time>
      </trkpt>
      <trkpt lat="43.68621" lon="5.70418">
        <ele>268.545</ele>
        <time>2020-09-02T18:23:44Z</time>
      </trkpt>
      <trkpt lat="43.68629" lon="5.70399">
        <ele>268.221</ele>
        <time>2020-09-02T18:23:45Z</time>
      </trkpt>
      <trkpt lat="43.68638" lon="5.7038">
        <ele>267.674</ele>
        <time>2020-09-02T18:23:46Z</time>
      </trkpt>
      <trkpt lat="43.68647" lon="5.70361">
        <ele>267.134</ele>
        <time>2020-09-02T18:23:47Z</time>
      </trkpt>
      <trkpt lat="43.68657" lon="5.70342">
        <ele>266.855</ele>
        <time>2020-09-02T18:23:48Z</time>
      </trkpt>
      <trkpt lat="43.68666" lon="5.70323">
        <ele>266.71</ele>
        <time>2020-09-02T18:23:49Z</time>
      </trkpt>
      <trkpt lat="43.68676" lon="5.70305">
        <ele>266.808</ele>
        <time>2020-09-02T18:23:50Z</time>
      </trkpt>
      <trkpt lat="43.68687" lon="5.70285">
        <ele>266.921</ele>
        <time>2020-09-02T18:23:51Z</time>
      </trkpt>
      <trkpt lat="43.68697" lon="5.70267">
        <ele>266.73</ele>
        <time>2020-09-02T18:23:52Z</time>
      </trkpt>
      <trkpt lat="43.68707" lon="5.70247">
        <ele>266.66</ele>
        <time>2020-09-02T18:23:53Z</time>
      </trkpt>
      <trkpt lat="43.68716" lon="5.70227">
        <ele>266.557</ele>
        <time>2020-09-02T18:23:54Z</time>
      </trkpt>
      <trkpt lat="43.68726" lon="5.70208">
        <ele>266.238</ele>
        <time>2020-09-02T18:23:55Z</time>
      </trkpt>
      <trkpt lat="43.68736" lon="5.70188">
        <ele>265.916</ele>
        <time>2020-09-02T18:23:56Z</time>
      </trkpt>
      <trkpt lat="43.68747" lon="5.70169">
        <ele>266.552</ele>
        <time>2020-09-02T18:23:57Z</time>
      </trkpt>
      <trkpt lat="43.68757" lon="5.70149">
        <ele>266.755</ele>
        <time>2020-09-02T18:23:58Z</time>
      </trkpt>
      <trkpt lat="43.68766" lon="5.7013">
        <ele>267.087</ele>
        <time>2020-09-02T18:23:59Z</time>
      </trkpt>
      <trkpt lat="43.68776" lon="5.7011">
        <ele>267.042</ele>
        <time>2020-09-02T18:24:00Z</time>
      </trkpt>
      <trkpt lat="43.68786" lon="5.7009">
        <ele>267.126</ele>
        <time>2020-09-02T18:24:01Z</time>
      </trkpt>
      <trkpt lat="43.68795" lon="5.70069">
        <ele>267.508</ele>
        <time>2020-09-02T18:24:02Z</time>
      </trkpt>
      <trkpt lat="43.68804" lon="5.70047">
        <ele>267.126</ele>
        <time>2020-09-02T18:24:03Z</time>
      </trkpt>
      <trkpt lat="43.68813" lon="5.70024">
        <ele>266.565</ele>
        <time>2020-09-02T18:24:04Z</time>
      </trkpt>
      <trkpt lat="43.68822" lon="5.7">
        <ele>266.865</ele>
        <time>2020-09-02T18:24:05Z</time>
      </trkpt>
      <trkpt lat="43.6883" lon="5.69976">
        <ele>266.742</ele>
        <time>2020-09-02T18:24:06Z</time>
      </trkpt>
      <trkpt lat="43.68838" lon="5.69952">
        <ele>266.823</ele>
        <time>2020-09-02T18:24:07Z</time>
      </trkpt>
      <trkpt lat="43.68845" lon="5.69927">
        <ele>266.951</ele>
        <time>2020-09-02T18:24:08Z</time>
      </trkpt>
      <trkpt lat="43.68851" lon="5.69901">
        <ele>268.187</ele>
        <time>2020-09-02T18:24:09Z</time>
      </trkpt>
      <trkpt lat="43.68856" lon="5.69874">
        <ele>268.34</ele>
        <time>2020-09-02T18:24:10Z</time>
      </trkpt>
      <trkpt lat="43.6886" lon="5.69846">
        <ele>268.053</ele>
        <time>2020-09-02T18:24:11Z</time>
      </trkpt>
      <trkpt lat="43.68864" lon="5.69817">
        <ele>268.204</ele>
        <time>2020-09-02T18:24:12Z</time>
      </trkpt>
      <trkpt lat="43.68866" lon="5.69786">
        <ele>267.214</ele>
        <time>2020-09-02T18:24:13Z</time>
      </trkpt>
      <trkpt lat="43.68869" lon="5.69756">
        <ele>267.708</ele>
        <time>2020-09-02T18:24:14Z</time>
      </trkpt>
      <trkpt lat="43.68872" lon="5.69726">
        <ele>268.093</ele>
        <time>2020-09-02T18:24:15Z</time>
      </trkpt>
      <trkpt lat="43.68875" lon="5.69695">
        <ele>268.452</ele>
        <time>2020-09-02T18:24:16Z</time>
      </trkpt>
      <trkpt lat="43.68879" lon="5.69665">
        <ele>269.582</ele>
        <time>2020-09-02T18:24:17Z</time>
      </trkpt>
      <trkpt lat="43.6888" lon="5.69635">
        <ele>270.789</ele>
        <time>2020-09-02T18:24:18Z</time>
      </trkpt>
      <trkpt lat="43.68883" lon="5.69604">
        <ele>271.46</ele>
        <time>2020-09-02T18:24:19Z</time>
      </trkpt>
      <trkpt lat="43.68886" lon="5.69573">
        <ele>271.848</ele>
        <time>2020-09-02T18:24:20Z</time>
      </trkpt>
      <trkpt lat="43.68889" lon="5.69543">
        <ele>273.214</ele>
        <time>2020-09-02T18:24:21Z</time>
      </trkpt>
      <trkpt lat="43.68891" lon="5.6951">
        <ele>273.787</ele>
        <time>2020-09-02T18:24:22Z</time>
      </trkpt>
      <trkpt lat="43.68893" lon="5.69479">
        <ele>274.038</ele>
        <time>2020-09-02T18:24:23Z</time>
      </trkpt>
      <trkpt lat="43.68894" lon="5.69448">
        <ele>274.07</ele>
        <time>2020-09-02T18:24:24Z</time>
      </trkpt>
      <trkpt lat="43.68896" lon="5.69416">
        <ele>275.017</ele>
        <time>2020-09-02T18:24:25Z</time>
      </trkpt>
      <trkpt lat="43.68898" lon="5.69385">
        <ele>275.608</ele>
        <time>2020-09-02T18:24:26Z</time>
      </trkpt>
      <trkpt lat="43.689" lon="5.69354">
        <ele>275.651</ele>
        <time>2020-09-02T18:24:27Z</time>
      </trkpt>
      <trkpt lat="43.68902" lon="5.69323">
        <ele>276.06</ele>
        <time>2020-09-02T18:24:28Z</time>
      </trkpt>
      <trkpt lat="43.68904" lon="5.69293">
        <ele>275.79</ele>
        <time>2020-09-02T18:24:29Z</time>
      </trkpt>
      <trkpt lat="43.68906" lon="5.69263">
        <ele>275.697</ele>
        <time>2020-09-02T18:24:30Z</time>
      </trkpt>
      <trkpt lat="43.68908" lon="5.69233">
        <ele>274.258</ele>
        <time>2020-09-02T18:24:31Z</time>
      </trkpt>
      <trkpt lat="43.68909" lon="5.69203">
        <ele>274.276</ele>
        <time>2020-09-02T18:24:32Z</time>
      </trkpt>
      <trkpt lat="43.68911" lon="5.69173">
        <ele>273.632</ele>
        <time>2020-09-02T18:24:33Z</time>
      </trkpt>
      <trkpt lat="43.68913" lon="5.69145">
        <ele>273.655</ele>
        <time>2020-09-02T18:24:34Z</time>
      </trkpt>
      <trkpt lat="43.68914" lon="5.69115">
        <ele>274.128</ele>
        <time>2020-09-02T18:24:35Z</time>
      </trkpt>
      <trkpt lat="43.68915" lon="5.69086">
        <ele>274.489</ele>
        <time>2020-09-02T18:24:36Z</time>
      </trkpt>
      <trkpt lat="43.68916" lon="5.69057">
        <ele>274.517</ele>
        <time>2020-09-02T18:24:37Z</time>
      </trkpt>
      <trkpt lat="43.68916" lon="5.69028">
        <ele>274.708</ele>
        <time>2020-09-02T18:24:38Z</time>
      </trkpt>
      <trkpt lat="43.68917" lon="5.69">
        <ele>274.84</ele>
        <time>2020-09-02T18:24:39Z</time>
      </trkpt>
      <trkpt lat="43.68918" lon="5.68971">
        <ele>274.499</ele>
        <time>2020-09-02T18:24:40Z</time>
      </trkpt>
      <trkpt lat="43.68919" lon="5.68943">
        <ele>274.729</ele>
        <time>2020-09-02T18:24:41Z</time>
      </trkpt>
      <trkpt lat="43.68919" lon="5.68914">
        <ele>275.086</ele>
        <time>2020-09-02T18:24:42Z</time>
      </trkpt>
      <trkpt lat="43.68919" lon="5.68885">
        <ele>275.167</ele>
        <time>2020-09-02T18:24:43Z</time>
      </trkpt>
      <trkpt lat="43.68919" lon="5.68857">
        <ele>275.515</ele>
        <time>2020-09-02T18:24:44Z</time>
      </trkpt>
      <trkpt lat="43.68918" lon="5.68828">
        <ele>275.111</ele>
        <time>2020-09-02T18:24:45Z</time>
      </trkpt>
      <trkpt lat="43.68918" lon="5.68798">
        <ele>275.454</ele>
        <time>2020-09-02T18:24:46Z</time>
      </trkpt>
      <trkpt lat="43.68918" lon="5.6877">
        <ele>275.062</ele>
        <time>2020-09-02T18:24:47Z</time>
      </trkpt>
      <trkpt lat="43.68917" lon="5.68741">
        <ele>274.383</ele>
        <time>2020-09-02T18:24:48Z</time>
      </trkpt>
      <trkpt lat="43.68919" lon="5.68712">
        <ele>273.411</ele>
        <time>2020-09-02T18:24:49Z</time>
      </trkpt>
      <trkpt lat="43.68919" lon="5.68683">
        <ele>272.708</ele>
        <time>2020-09-02T18:24:50Z</time>
      </trkpt>
      <trkpt lat="43.68919" lon="5.68653">
        <ele>271.674</ele>
        <time>2020-09-02T18:24:51Z</time>
      </trkpt>
      <trkpt lat="43.6892" lon="5.68624">
        <ele>271.613</ele>
        <time>2020-09-02T18:24:52Z</time>
      </trkpt>
      <trkpt lat="43.6892" lon="5.68594">
        <ele>269.653</ele>
        <time>2020-09-02T18:24:53Z</time>
      </trkpt>
      <trkpt lat="43.6892" lon="5.68565">
        <ele>269.02</ele>
        <time>2020-09-02T18:24:54Z</time>
      </trkpt>
      <trkpt lat="43.68921" lon="5.68534">
        <ele>269.441</ele>
        <time>2020-09-02T18:24:55Z</time>
      </trkpt>
      <trkpt lat="43.68924" lon="5.68505">
        <ele>268.949</ele>
        <time>2020-09-02T18:24:56Z</time>
      </trkpt>
      <trkpt lat="43.68926" lon="5.68476">
        <ele>269.315</ele>
        <time>2020-09-02T18:24:57Z</time>
      </trkpt>
      <trkpt lat="43.68928" lon="5.68447">
        <ele>270.658</ele>
        <time>2020-09-02T18:24:58Z</time>
      </trkpt>
      <trkpt lat="43.6893" lon="5.68418">
        <ele>270.572</ele>
        <time>2020-09-02T18:24:59Z</time>
      </trkpt>
      <trkpt lat="43.68931" lon="5.68389">
        <ele>270.613</ele>
        <time>2020-09-02T18:25:00Z</time>
      </trkpt>
      <trkpt lat="43.68933" lon="5.6836">
        <ele>270.814</ele>
        <time>2020-09-02T18:25:01Z</time>
      </trkpt>
      <trkpt lat="43.68935" lon="5.68331">
        <ele>271.508</ele>
        <time>2020-09-02T18:25:02Z</time>
      </trkpt>
      <trkpt lat="43.68937" lon="5.68303">
        <ele>271.345</ele>
        <time>2020-09-02T18:25:03Z</time>
      </trkpt>
      <trkpt lat="43.68939" lon="5.68276">
        <ele>271.074</ele>
        <time>2020-09-02T18:25:04Z</time>
      </trkpt>
      <trkpt lat="43.68942" lon="5.6825">
        <ele>270.734</ele>
        <time>2020-09-02T18:25:05Z</time>
      </trkpt>
      <trkpt lat="43.68945" lon="5.68225">
        <ele>270.461</ele>
        <time>2020-09-02T18:25:06Z</time>
      </trkpt>
      <trkpt lat="43.68948" lon="5.682">
        <ele>270.172</ele>
        <time>2020-09-02T18:25:07Z</time>
      </trkpt>
      <trkpt lat="43.68952" lon="5.68176">
        <ele>269.52</ele>
        <time>2020-09-02T18:25:08Z</time>
      </trkpt>
      <trkpt lat="43.68958" lon="5.68153">
        <ele>269.136</ele>
        <time>2020-09-02T18:25:09Z</time>
      </trkpt>
      <trkpt lat="43.68965" lon="5.6813">
        <ele>268.399</ele>
        <time>2020-09-02T18:25:10Z</time>
      </trkpt>
      <trkpt lat="43.68975" lon="5.68108">
        <ele>267.875</ele>
        <time>2020-09-02T18:25:11Z</time>
      </trkpt>
      <trkpt lat="43.68984" lon="5.68086">
        <ele>266.928</ele>
        <time>2020-09-02T18:25:12Z</time>
      </trkpt>
      <trkpt lat="43.68994" lon="5.68063">
        <ele>266.32</ele>
        <time>2020-09-02T18:25:13Z</time>
      </trkpt>
      <trkpt lat="43.69003" lon="5.68039">
        <ele>266.708</ele>
        <time>2020-09-02T18:25:14Z</time>
      </trkpt>
      <trkpt lat="43.69011" lon="5.68014">
        <ele>266.565</ele>
        <time>2020-09-02T18:25:15Z</time>
      </trkpt>
      <trkpt lat="43.69017" lon="5.6799">
        <ele>265.844</ele>
        <time>2020-09-02T18:25:16Z</time>
      </trkpt>
      <trkpt lat="43.69023" lon="5.67964">
        <ele>266.924</ele>
        <time>2020-09-02T18:25:17Z</time>
      </trkpt>
      <trkpt lat="43.69025" lon="5.67936">
        <ele>266.521</ele>
        <time>2020-09-02T18:25:18Z</time>
      </trkpt>
      <trkpt lat="43.69026" lon="5.6791">
        <ele>265.442</ele>
        <time>2020-09-02T18:25:19Z</time>
      </trkpt>
      <trkpt lat="43.69025" lon="5.67882">
        <ele>265.37</ele>
        <time>2020-09-02T18:25:20Z</time>
      </trkpt>
      <trkpt lat="43.69023" lon="5.67853">
        <ele>264.256</ele>
        <time>2020-09-02T18:25:21Z</time>
      </trkpt>
      <trkpt lat="43.69019" lon="5.67825">
        <ele>263.439</ele>
        <time>2020-09-02T18:25:22Z</time>
      </trkpt>
      <trkpt lat="43.69016" lon="5.67795">
        <ele>262.528</ele>
        <time>2020-09-02T18:25:23Z</time>
      </trkpt>
      <trkpt lat="43.69013" lon="5.67766">
        <ele>261.989</ele>
        <time>2020-09-02T18:25:24Z</time>
      </trkpt>
      <trkpt lat="43.6901" lon="5.67738">
        <ele>261.517</ele>
        <time>2020-09-02T18:25:25Z</time>
      </trkpt>
      <trkpt lat="43.69008" lon="5.67712">
        <ele>261.808</ele>
        <time>2020-09-02T18:25:26Z</time>
      </trkpt>
      <trkpt lat="43.69009" lon="5.67686">
        <ele>261.58</ele>
        <time>2020-09-02T18:25:27Z</time>
      </trkpt>
      <trkpt lat="43.69012" lon="5.67661">
        <ele>260.359</ele>
        <time>2020-09-02T18:25:28Z</time>
      </trkpt>
      <trkpt lat="43.69014" lon="5.67635">
        <ele>259.719</ele>
        <time>2020-09-02T18:25:29Z</time>
      </trkpt>
      <trkpt lat="43.69017" lon="5.67608">
        <ele>260.246</ele>
        <time>2020-09-02T18:25:30Z</time>
      </trkpt>
      <trkpt lat="43.69019" lon="5.67581">
        <ele>260.547</ele>
        <time>2020-09-02T18:25:31Z</time>
      </trkpt>
      <trkpt lat="43.69021" lon="5.67555">
        <ele>260.515</ele>
        <time>2020-09-02T18:25:32Z</time>
      </trkpt>
      <trkpt lat="43.69021" lon="5.67533">
        <ele>260.251</ele>
        <time>2020-09-02T18:25:33Z</time>
      </trkpt>
      <trkpt lat="43.69021" lon="5.6751">
        <ele>259.764</ele>
        <time>2020-09-02T18:25:34Z</time>
      </trkpt>
      <trkpt lat="43.69022" lon="5.6749">
        <ele>259.851</ele>
        <time>2020-09-02T18:25:35Z</time>
      </trkpt>
      <trkpt lat="43.69022" lon="5.67471">
        <ele>259.601</ele>
        <time>2020-09-02T18:25:36Z</time>
      </trkpt>
      <trkpt lat="43.69023" lon="5.67453">
        <ele>259.611</ele>
        <time>2020-09-02T18:25:37Z</time>
      </trkpt>
      <trkpt lat="43.69024" lon="5.67434">
        <ele>260.108</ele>
        <time>2020-09-02T18:25:38Z</time>
      </trkpt>
      <trkpt lat="43.69026" lon="5.67417">
        <ele>260.053</ele>
        <time>2020-09-02T18:25:39Z</time>
      </trkpt>
      <trkpt lat="43.69027" lon="5.67402">
        <ele>259.782</ele>
        <time>2020-09-02T18:25:40Z</time>
      </trkpt>
      <trkpt lat="43.69029" lon="5.67387">
        <ele>258.722</ele>
        <time>2020-09-02T18:25:41Z</time>
      </trkpt>
      <trkpt lat="43.6903" lon="5.67373">
        <ele>257.669</ele>
        <time>2020-09-02T18:25:42Z</time>
      </trkpt>
      <trkpt lat="43.69032" lon="5.67358">
        <ele>257.66</ele>
        <time>2020-09-02T18:25:43Z</time>
      </trkpt>
      <trkpt lat="43.69034" lon="5.67345">
        <ele>257.168</ele>
        <time>2020-09-02T18:25:44Z</time>
      </trkpt>
      <trkpt lat="43.69037" lon="5.67333">
        <ele>257.844</ele>
        <time>2020-09-02T18:25:45Z</time>
      </trkpt>
      <trkpt lat="43.6904" lon="5.67319">
        <ele>257.377</ele>
        <time>2020-09-02T18:25:46Z</time>
      </trkpt>
      <trkpt lat="43.69043" lon="5.67304">
        <ele>257.458</ele>
        <time>2020-09-02T18:25:47Z</time>
      </trkpt>
      <trkpt lat="43.69044" lon="5.67285">
        <ele>256.952</ele>
        <time>2020-09-02T18:25:48Z</time>
      </trkpt>
      <trkpt lat="43.69044" lon="5.67266">
        <ele>256.317</ele>
        <time>2020-09-02T18:25:49Z</time>
      </trkpt>
      <trkpt lat="43.69044" lon="5.67245">
        <ele>255.408</ele>
        <time>2020-09-02T18:25:50Z</time>
      </trkpt>
      <trkpt lat="43.69044" lon="5.67223">
        <ele>254.963</ele>
        <time>2020-09-02T18:25:51Z</time>
      </trkpt>
      <trkpt lat="43.69046" lon="5.67201">
        <ele>254.452</ele>
        <time>2020-09-02T18:25:52Z</time>
      </trkpt>
      <trkpt lat="43.69047" lon="5.67179">
        <ele>254.442</ele>
        <time>2020-09-02T18:25:53Z</time>
      </trkpt>
      <trkpt lat="43.69048" lon="5.67157">
        <ele>253.769</ele>
        <time>2020-09-02T18:25:54Z</time>
      </trkpt>
      <trkpt lat="43.69048" lon="5.67136">
        <ele>253.08</ele>
        <time>2020-09-02T18:25:55Z</time>
      </trkpt>
      <trkpt lat="43.69046" lon="5.67114">
        <ele>252.628</ele>
        <time>2020-09-02T18:25:56Z</time>
      </trkpt>
      <trkpt lat="43.69043" lon="5.67095">
        <ele>252.644</ele>
        <time>2020-09-02T18:25:57Z</time>
      </trkpt>
      <trkpt lat="43.69035" lon="5.67074">
        <ele>252.587</ele>
        <time>2020-09-02T18:25:58Z</time>
      </trkpt>
      <trkpt lat="43.69025" lon="5.67054">
        <ele>251.326</ele>
        <time>2020-09-02T18:25:59Z</time>
      </trkpt>
      <trkpt lat="43.69017" lon="5.67033">
        <ele>251.347</ele>
        <time>2020-09-02T18:26:00Z</time>
      </trkpt>
      <trkpt lat="43.69009" lon="5.6701">
        <ele>251.511</ele>
        <time>2020-09-02T18:26:01Z</time>
      </trkpt>
      <trkpt lat="43.69001" lon="5.66988">
        <ele>251.308</ele>
        <time>2020-09-02T18:26:02Z</time>
      </trkpt>
      <trkpt lat="43.68994" lon="5.66966">
        <ele>250.95</ele>
        <time>2020-09-02T18:26:03Z</time>
      </trkpt>
      <trkpt lat="43.68986" lon="5.66945">
        <ele>251.299</ele>
        <time>2020-09-02T18:26:04Z</time>
      </trkpt>
      <trkpt lat="43.68978" lon="5.66925">
        <ele>251.679</ele>
        <time>2020-09-02T18:26:05Z</time>
      </trkpt>
      <trkpt lat="43.68969" lon="5.66907">
        <ele>251.436</ele>
        <time>2020-09-02T18:26:06Z</time>
      </trkpt>
      <trkpt lat="43.6896" lon="5.66891">
        <ele>251.237</ele>
        <time>2020-09-02T18:26:07Z</time>
      </trkpt>
      <trkpt lat="43.68951" lon="5.66875">
        <ele>250.925</ele>
        <time>2020-09-02T18:26:08Z</time>
      </trkpt>
      <trkpt lat="43.68941" lon="5.66859">
        <ele>250.821</ele>
        <time>2020-09-02T18:26:09Z</time>
      </trkpt>
      <trkpt lat="43.68933" lon="5.66841">
        <ele>250.774</ele>
        <time>2020-09-02T18:26:10Z</time>
      </trkpt>
      <trkpt lat="43.68926" lon="5.66821">
        <ele>251.317</ele>
        <time>2020-09-02T18:26:11Z</time>
      </trkpt>
      <trkpt lat="43.68917" lon="5.66803">
        <ele>251.187</ele>
        <time>2020-09-02T18:26:12Z</time>
      </trkpt>
      <trkpt lat="43.6891" lon="5.66784">
        <ele>250.415</ele>
        <time>2020-09-02T18:26:13Z</time>
      </trkpt>
      <trkpt lat="43.68902" lon="5.66768">
        <ele>250.208</ele>
        <time>2020-09-02T18:26:14Z</time>
      </trkpt>
      <trkpt lat="43.68895" lon="5.66755">
        <ele>250.659</ele>
        <time>2020-09-02T18:26:15Z</time>
      </trkpt>
      <trkpt lat="43.68891" lon="5.66742">
        <ele>249.568</ele>
        <time>2020-09-02T18:26:16Z</time>
      </trkpt>
      <trkpt lat="43.68893" lon="5.66729">
        <ele>248.538</ele>
        <time>2020-09-02T18:26:17Z</time>
      </trkpt>
      <trkpt lat="43.68897" lon="5.66719">
        <ele>248.355</ele>
        <time>2020-09-02T18:26:18Z</time>
      </trkpt>
      <trkpt lat="43.68903" lon="5.66714">
        <ele>247.896</ele>
        <time>2020-09-02T18:26:19Z</time>
      </trkpt>
      <trkpt lat="43.68911" lon="5.66714">
        <ele>247.794</ele>
        <time>2020-09-02T18:26:20Z</time>
      </trkpt>
      <trkpt lat="43.6892" lon="5.66715">
        <ele>246.89</ele>
        <time>2020-09-02T18:26:21Z</time>
      </trkpt>
      <trkpt lat="43.6893" lon="5.66717">
        <ele>245.943</ele>
        <time>2020-09-02T18:26:22Z</time>
      </trkpt>
      <trkpt lat="43.68942" lon="5.66717">
        <ele>245.213</ele>
        <time>2020-09-02T18:26:23Z</time>
      </trkpt>
      <trkpt lat="43.68955" lon="5.66719">
        <ele>244.843</ele>
        <time>2020-09-02T18:26:24Z</time>
      </trkpt>
      <trkpt lat="43.68968" lon="5.6672">
        <ele>244.007</ele>
        <time>2020-09-02T18:26:25Z</time>
      </trkpt>
      <trkpt lat="43.68982" lon="5.6672">
        <ele>243.908</ele>
        <time>2020-09-02T18:26:26Z</time>
      </trkpt>
      <trkpt lat="43.68997" lon="5.66721">
        <ele>244.179</ele>
        <time>2020-09-02T18:26:27Z</time>
      </trkpt>
      <trkpt lat="43.69012" lon="5.66723">
        <ele>243.818</ele>
        <time>2020-09-02T18:26:28Z</time>
      </trkpt>
      <trkpt lat="43.69028" lon="5.66725">
        <ele>244.188</ele>
        <time>2020-09-02T18:26:29Z</time>
      </trkpt>
      <trkpt lat="43.69044" lon="5.66726">
        <ele>244.295</ele>
        <time>2020-09-02T18:26:30Z</time>
      </trkpt>
      <trkpt lat="43.6906" lon="5.66728">
        <ele>244.546</ele>
        <time>2020-09-02T18:26:31Z</time>
      </trkpt>
      <trkpt lat="43.69074" lon="5.66732">
        <ele>245.094</ele>
        <time>2020-09-02T18:26:32Z</time>
      </trkpt>
      <trkpt lat="43.69088" lon="5.6674">
        <ele>246.06</ele>
        <time>2020-09-02T18:26:33Z</time>
      </trkpt>
      <trkpt lat="43.69102" lon="5.6675">
        <ele>247.763</ele>
        <time>2020-09-02T18:26:34Z</time>
      </trkpt>
      <trkpt lat="43.69111" lon="5.66765">
        <ele>248.979</ele>
        <time>2020-09-02T18:26:35Z</time>
      </trkpt>
      <trkpt lat="43.69122" lon="5.6678">
        <ele>249.305</ele>
        <time>2020-09-02T18:26:36Z</time>
      </trkpt>
      <trkpt lat="43.69135" lon="5.66793">
        <ele>249.125</ele>
        <time>2020-09-02T18:26:37Z</time>
      </trkpt>
      <trkpt lat="43.6915" lon="5.66803">
        <ele>248.908</ele>
        <time>2020-09-02T18:26:38Z</time>
      </trkpt>
      <trkpt lat="43.69166" lon="5.66812">
        <ele>248.355</ele>
        <time>2020-09-02T18:26:39Z</time>
      </trkpt>
      <trkpt lat="43.69183" lon="5.6682">
        <ele>248.264</ele>
        <time>2020-09-02T18:26:40Z</time>
      </trkpt>
      <trkpt lat="43.69201" lon="5.66829">
        <ele>248.214</ele>
        <time>2020-09-02T18:26:41Z</time>
      </trkpt>
      <trkpt lat="43.69218" lon="5.66838">
        <ele>248.721</ele>
        <time>2020-09-02T18:26:42Z</time>
      </trkpt>
      <trkpt lat="43.69235" lon="5.66847">
        <ele>249.192</ele>
        <time>2020-09-02T18:26:43Z</time>
      </trkpt>
      <trkpt lat="43.69252" lon="5.66856">
        <ele>248.99</ele>
        <time>2020-09-02T18:26:44Z</time>
      </trkpt>
      <trkpt lat="43.69269" lon="5.66866">
        <ele>248.366</ele>
        <time>2020-09-02T18:26:45Z</time>
      </trkpt>
      <trkpt lat="43.69285" lon="5.66873">
        <ele>248.489</ele>
        <time>2020-09-02T18:26:46Z</time>
      </trkpt>
      <trkpt lat="43.693" lon="5.66877">
        <ele>249.181</ele>
        <time>2020-09-02T18:26:47Z</time>
      </trkpt>
      <trkpt lat="43.69317" lon="5.66874">
        <ele>249.861</ele>
        <time>2020-09-02T18:26:48Z</time>
      </trkpt>
      <trkpt lat="43.69331" lon="5.66867">
        <ele>249.217</ele>
        <time>2020-09-02T18:26:49Z</time>
      </trkpt>
      <trkpt lat="43.69347" lon="5.66859">
        <ele>249.508</ele>
        <time>2020-09-02T18:26:50Z</time>
      </trkpt>
      <trkpt lat="43.69364" lon="5.6685">
        <ele>250.296</ele>
        <time>2020-09-02T18:26:51Z</time>
      </trkpt>
      <trkpt lat="43.69381" lon="5.66843">
        <ele>250.935</ele>
        <time>2020-09-02T18:26:52Z</time>
      </trkpt>
      <trkpt lat="43.69398" lon="5.66837">
        <ele>251.755</ele>
        <time>2020-09-02T18:26:53Z</time>
      </trkpt>
      <trkpt lat="43.69418" lon="5.66833">
        <ele>252.452</ele>
        <time>2020-09-02T18:26:54Z</time>
      </trkpt>
      <trkpt lat="43.69437" lon="5.66835">
        <ele>252.993</ele>
        <time>2020-09-02T18:26:55Z</time>
      </trkpt>
      <trkpt lat="43.69455" lon="5.66841">
        <ele>252.681</ele>
        <time>2020-09-02T18:26:56Z</time>
      </trkpt>
      <trkpt lat="43.69473" lon="5.66852">
        <ele>252.337</ele>
        <time>2020-09-02T18:26:57Z</time>
      </trkpt>
      <trkpt lat="43.69491" lon="5.66864">
        <ele>252.38</ele>
        <time>2020-09-02T18:26:58Z</time>
      </trkpt>
      <trkpt lat="43.69508" lon="5.66879">
        <ele>251.925</ele>
        <time>2020-09-02T18:26:59Z</time>
      </trkpt>
      <trkpt lat="43.69525" lon="5.66894">
        <ele>252.426</ele>
        <time>2020-09-02T18:27:00Z</time>
      </trkpt>
      <trkpt lat="43.69542" lon="5.66908">
        <ele>252.608</ele>
        <time>2020-09-02T18:27:01Z</time>
      </trkpt>
      <trkpt lat="43.69563" lon="5.6692">
        <ele>252.408</ele>
        <time>2020-09-02T18:27:02Z</time>
      </trkpt>
      <trkpt lat="43.69585" lon="5.6693">
        <ele>252.24</ele>
        <time>2020-09-02T18:27:03Z</time>
      </trkpt>
      <trkpt lat="43.69607" lon="5.6694">
        <ele>252.249</ele>
        <time>2020-09-02T18:27:04Z</time>
      </trkpt>
      <trkpt lat="43.69629" lon="5.66949">
        <ele>251.489</ele>
        <time>2020-09-02T18:27:05Z</time>
      </trkpt>
      <trkpt lat="43.69651" lon="5.66958">
        <ele>250.596</ele>
        <time>2020-09-02T18:27:06Z</time>
      </trkpt>
      <trkpt lat="43.69673" lon="5.66968">
        <ele>250.837</ele>
        <time>2020-09-02T18:27:07Z</time>
      </trkpt>
      <trkpt lat="43.69693" lon="5.66976">
        <ele>250.765</ele>
        <time>2020-09-02T18:27:08Z</time>
      </trkpt>
      <trkpt lat="43.69712" lon="5.66983">
        <ele>250.681</ele>
        <time>2020-09-02T18:27:09Z</time>
      </trkpt>
      <trkpt lat="43.69731" lon="5.6699">
        <ele>250.924</ele>
        <time>2020-09-02T18:27:10Z</time>
      </trkpt>
      <trkpt lat="43.69747" lon="5.66997">
        <ele>251.824</ele>
        <time>2020-09-02T18:27:11Z</time>
      </trkpt>
      <trkpt lat="43.69764" lon="5.67005">
        <ele>251.504</ele>
        <time>2020-09-02T18:27:12Z</time>
      </trkpt>
      <trkpt lat="43.6978" lon="5.67012">
        <ele>251.714</ele>
        <time>2020-09-02T18:27:13Z</time>
      </trkpt>
      <trkpt lat="43.69795" lon="5.67025">
        <ele>253.008</ele>
        <time>2020-09-02T18:27:14Z</time>
      </trkpt>
      <trkpt lat="43.69809" lon="5.67039">
        <ele>253.97</ele>
        <time>2020-09-02T18:27:15Z</time>
      </trkpt>
      <trkpt lat="43.69823" lon="5.67054">
        <ele>253.879</ele>
        <time>2020-09-02T18:27:16Z</time>
      </trkpt>
      <trkpt lat="43.69839" lon="5.67072">
        <ele>254.119</ele>
        <time>2020-09-02T18:27:17Z</time>
      </trkpt>
      <trkpt lat="43.69854" lon="5.67089">
        <ele>253.256</ele>
        <time>2020-09-02T18:27:18Z</time>
      </trkpt>
      <trkpt lat="43.6987" lon="5.67108">
        <ele>252.547</ele>
        <time>2020-09-02T18:27:19Z</time>
      </trkpt>
      <trkpt lat="43.69886" lon="5.67126">
        <ele>252.345</ele>
        <time>2020-09-02T18:27:20Z</time>
      </trkpt>
      <trkpt lat="43.69902" lon="5.67146">
        <ele>252.471</ele>
        <time>2020-09-02T18:27:21Z</time>
      </trkpt>
      <trkpt lat="43.69918" lon="5.67165">
        <ele>252.214</ele>
        <time>2020-09-02T18:27:22Z</time>
      </trkpt>
      <trkpt lat="43.69935" lon="5.67185">
        <ele>251.939</ele>
        <time>2020-09-02T18:27:23Z</time>
      </trkpt>
      <trkpt lat="43.69953" lon="5.67205">
        <ele>251.401</ele>
        <time>2020-09-02T18:27:24Z</time>
      </trkpt>
      <trkpt lat="43.6997" lon="5.67224">
        <ele>250.921</ele>
        <time>2020-09-02T18:27:25Z</time>
      </trkpt>
      <trkpt lat="43.69987" lon="5.67245">
        <ele>251.108</ele>
        <time>2020-09-02T18:27:26Z</time>
      </trkpt>
      <trkpt lat="43.70004" lon="5.67263">
        <ele>250.641</ele>
        <time>2020-09-02T18:27:27Z</time>
      </trkpt>
      <trkpt lat="43.70019" lon="5.6728">
        <ele>250.78</ele>
        <time>2020-09-02T18:27:28Z</time>
      </trkpt>
      <trkpt lat="43.70034" lon="5.67299">
        <ele>249.96</ele>
        <time>2020-09-02T18:27:29Z</time>
      </trkpt>
      <trkpt lat="43.70046" lon="5.67314">
        <ele>250.187</ele>
        <time>2020-09-02T18:27:30Z</time>
      </trkpt>
      <trkpt lat="43.70056" lon="5.6733">
        <ele>249.788</ele>
        <time>2020-09-02T18:27:31Z</time>
      </trkpt>
      <trkpt lat="43.70064" lon="5.67348">
        <ele>249.046</ele>
        <time>2020-09-02T18:27:32Z</time>
      </trkpt>
      <trkpt lat="43.70065" lon="5.67369">
        <ele>249.072</ele>
        <time>2020-09-02T18:27:33Z</time>
      </trkpt>
      <trkpt lat="43.70065" lon="5.67388">
        <ele>249.035</ele>
        <time>2020-09-02T18:27:34Z</time>
      </trkpt>
      <trkpt lat="43.70063" lon="5.67411">
        <ele>249.287</ele>
        <time>2020-09-02T18:27:35Z</time>
      </trkpt>
      <trkpt lat="43.70055" lon="5.67432">
        <ele>249.242</ele>
        <time>2020-09-02T18:27:36Z</time>
      </trkpt>
      <trkpt lat="43.7005" lon="5.67456">
        <ele>249.026</ele>
        <time>2020-09-02T18:27:37Z</time>
      </trkpt>
      <trkpt lat="43.70048" lon="5.67483">
        <ele>248.708</ele>
        <time>2020-09-02T18:27:38Z</time>
      </trkpt>
      <trkpt lat="43.70046" lon="5.6751">
        <ele>248.766</ele>
        <time>2020-09-02T18:27:39Z</time>
      </trkpt>
      <trkpt lat="43.70047" lon="5.6754">
        <ele>248.825</ele>
        <time>2020-09-02T18:27:40Z</time>
      </trkpt>
      <trkpt lat="43.7005" lon="5.67569">
        <ele>248.135</ele>
        <time>2020-09-02T18:27:41Z</time>
      </trkpt>
      <trkpt lat="43.7005" lon="5.67599">
        <ele>247.652</ele>
        <time>2020-09-02T18:27:42Z</time>
      </trkpt>
      <trkpt lat="43.70052" lon="5.67631">
        <ele>247.613</ele>
        <time>2020-09-02T18:27:43Z</time>
      </trkpt>
      <trkpt lat="43.70055" lon="5.67664">
        <ele>245.721</ele>
        <time>2020-09-02T18:27:44Z</time>
      </trkpt>
      <trkpt lat="43.70057" lon="5.67696">
        <ele>245.797</ele>
        <time>2020-09-02T18:27:45Z</time>
      </trkpt>
      <trkpt lat="43.70059" lon="5.6773">
        <ele>245.74</ele>
        <time>2020-09-02T18:27:46Z</time>
      </trkpt>
      <trkpt lat="43.70061" lon="5.67763">
        <ele>245.011</ele>
        <time>2020-09-02T18:27:47Z</time>
      </trkpt>
      <trkpt lat="43.70063" lon="5.67795">
        <ele>244.421</ele>
        <time>2020-09-02T18:27:48Z</time>
      </trkpt>
      <trkpt lat="43.70064" lon="5.67829">
        <ele>244.103</ele>
        <time>2020-09-02T18:27:49Z</time>
      </trkpt>
      <trkpt lat="43.70064" lon="5.67862">
        <ele>244.408</ele>
        <time>2020-09-02T18:27:50Z</time>
      </trkpt>
      <trkpt lat="43.70063" lon="5.67896">
        <ele>244.859</ele>
        <time>2020-09-02T18:27:51Z</time>
      </trkpt>
      <trkpt lat="43.70061" lon="5.6793">
        <ele>244.058</ele>
        <time>2020-09-02T18:27:52Z</time>
      </trkpt>
      <trkpt lat="43.70059" lon="5.67962">
        <ele>244.288</ele>
        <time>2020-09-02T18:27:53Z</time>
      </trkpt>
      <trkpt lat="43.70058" lon="5.67995">
        <ele>244.655</ele>
        <time>2020-09-02T18:27:54Z</time>
      </trkpt>
      <trkpt lat="43.70058" lon="5.68028">
        <ele>244.376</ele>
        <time>2020-09-02T18:27:55Z</time>
      </trkpt>
      <trkpt lat="43.70059" lon="5.6806">
        <ele>244.074</ele>
        <time>2020-09-02T18:27:56Z</time>
      </trkpt>
      <trkpt lat="43.70061" lon="5.68092">
        <ele>244.13</ele>
        <time>2020-09-02T18:27:57Z</time>
      </trkpt>
      <trkpt lat="43.70064" lon="5.68123">
        <ele>244.133</ele>
        <time>2020-09-02T18:27:58Z</time>
      </trkpt>
      <trkpt lat="43.70068" lon="5.68155">
        <ele>243.585</ele>
        <time>2020-09-02T18:27:59Z</time>
      </trkpt>
      <trkpt lat="43.70067" lon="5.68188">
        <ele>243.089</ele>
        <time>2020-09-02T18:28:00Z</time>
      </trkpt>
      <trkpt lat="43.70064" lon="5.68219">
        <ele>242.817</ele>
        <time>2020-09-02T18:28:01Z</time>
      </trkpt>
      <trkpt lat="43.70059" lon="5.68249">
        <ele>243.008</ele>
        <time>2020-09-02T18:28:02Z</time>
      </trkpt>
      <trkpt lat="43.70051" lon="5.68278">
        <ele>242.946</ele>
        <time>2020-09-02T18:28:03Z</time>
      </trkpt>
      <trkpt lat="43.70041" lon="5.68306">
        <ele>243.255</ele>
        <time>2020-09-02T18:28:04Z</time>
      </trkpt>
      <trkpt lat="43.70032" lon="5.68332">
        <ele>243.295</ele>
        <time>2020-09-02T18:28:05Z</time>
      </trkpt>
      <trkpt lat="43.70022" lon="5.68359">
        <ele>243.432</ele>
        <time>2020-09-02T18:28:06Z</time>
      </trkpt>
      <trkpt lat="43.70012" lon="5.68383">
        <ele>243.833</ele>
        <time>2020-09-02T18:28:07Z</time>
      </trkpt>
      <trkpt lat="43.70003" lon="5.68409">
        <ele>243.621</ele>
        <time>2020-09-02T18:28:08Z</time>
      </trkpt>
      <trkpt lat="43.69996" lon="5.68435">
        <ele>243.767</ele>
        <time>2020-09-02T18:28:09Z</time>
      </trkpt>
      <trkpt lat="43.6999" lon="5.68462">
        <ele>244.09</ele>
        <time>2020-09-02T18:28:10Z</time>
      </trkpt>
      <trkpt lat="43.69986" lon="5.68489">
        <ele>243.992</ele>
        <time>2020-09-02T18:28:11Z</time>
      </trkpt>
      <trkpt lat="43.69982" lon="5.68517">
        <ele>243.873</ele>
        <time>2020-09-02T18:28:12Z</time>
      </trkpt>
      <trkpt lat="43.69979" lon="5.68544">
        <ele>244.02</ele>
        <time>2020-09-02T18:28:13Z</time>
      </trkpt>
      <trkpt lat="43.69974" lon="5.68571">
        <ele>244.608</ele>
        <time>2020-09-02T18:28:14Z</time>
      </trkpt>
      <trkpt lat="43.69971" lon="5.68599">
        <ele>244.977</ele>
        <time>2020-09-02T18:28:15Z</time>
      </trkpt>
      <trkpt lat="43.69967" lon="5.68628">
        <ele>245.226</ele>
        <time>2020-09-02T18:28:16Z</time>
      </trkpt>
      <trkpt lat="43.69965" lon="5.68657">
        <ele>245.646</ele>
        <time>2020-09-02T18:28:17Z</time>
      </trkpt>
      <trkpt lat="43.69964" lon="5.68687">
        <ele>245.973</ele>
        <time>2020-09-02T18:28:18Z</time>
      </trkpt>
      <trkpt lat="43.69964" lon="5.68717">
        <ele>245.834</ele>
        <time>2020-09-02T18:28:19Z</time>
      </trkpt>
      <trkpt lat="43.69965" lon="5.68747">
        <ele>245.932</ele>
        <time>2020-09-02T18:28:20Z</time>
      </trkpt>
      <trkpt lat="43.69966" lon="5.68777">
        <ele>246.228</ele>
        <time>2020-09-02T18:28:21Z</time>
      </trkpt>
      <trkpt lat="43.69966" lon="5.68808">
        <ele>246.341</ele>
        <time>2020-09-02T18:28:22Z</time>
      </trkpt>
      <trkpt lat="43.69967" lon="5.68838">
        <ele>246.437</ele>
        <time>2020-09-02T18:28:23Z</time>
      </trkpt>
      <trkpt lat="43.69967" lon="5.68869">
        <ele>246.749</ele>
        <time>2020-09-02T18:28:24Z</time>
      </trkpt>
      <trkpt lat="43.69967" lon="5.689">
        <ele>247.113</ele>
        <time>2020-09-02T18:28:25Z</time>
      </trkpt>
      <trkpt lat="43.69966" lon="5.6893">
        <ele>247.608</ele>
        <time>2020-09-02T18:28:26Z</time>
      </trkpt>
      <trkpt lat="43.69965" lon="5.68961">
        <ele>247.771</ele>
        <time>2020-09-02T18:28:27Z</time>
      </trkpt>
      <trkpt lat="43.69963" lon="5.68991">
        <ele>247.91</ele>
        <time>2020-09-02T18:28:28Z</time>
      </trkpt>
      <trkpt lat="43.69961" lon="5.6902">
        <ele>248.16</ele>
        <time>2020-09-02T18:28:29Z</time>
      </trkpt>
      <trkpt lat="43.69959" lon="5.69048">
        <ele>248.247</ele>
        <time>2020-09-02T18:28:30Z</time>
      </trkpt>
      <trkpt lat="43.69957" lon="5.69073">
        <ele>248.318</ele>
        <time>2020-09-02T18:28:31Z</time>
      </trkpt>
      <trkpt lat="43.69954" lon="5.69097">
        <ele>248.746</ele>
        <time>2020-09-02T18:28:32Z</time>
      </trkpt>
      <trkpt lat="43.69952" lon="5.69119">
        <ele>248.952</ele>
        <time>2020-09-02T18:28:33Z</time>
      </trkpt>
      <trkpt lat="43.69949" lon="5.69139">
        <ele>249.025</ele>
        <time>2020-09-02T18:28:34Z</time>
      </trkpt>
      <trkpt lat="43.69946" lon="5.69158">
        <ele>249.131</ele>
        <time>2020-09-02T18:28:35Z</time>
      </trkpt>
      <trkpt lat="43.69944" lon="5.69173">
        <ele>249.261</ele>
        <time>2020-09-02T18:28:36Z</time>
      </trkpt>
      <trkpt lat="43.69945" lon="5.69186">
        <ele>249.407</ele>
        <time>2020-09-02T18:28:37Z</time>
      </trkpt>
      <trkpt lat="43.69949" lon="5.69196">
        <ele>249.108</ele>
        <time>2020-09-02T18:28:38Z</time>
      </trkpt>
      <trkpt lat="43.69956" lon="5.69201">
        <ele>249.341</ele>
        <time>2020-09-02T18:28:39Z</time>
      </trkpt>
      <trkpt lat="43.69966" lon="5.69205">
        <ele>249.49</ele>
        <time>2020-09-02T18:28:40Z</time>
      </trkpt>
      <trkpt lat="43.69977" lon="5.6921">
        <ele>249.31</ele>
        <time>2020-09-02T18:28:41Z</time>
      </trkpt>
      <trkpt lat="43.69988" lon="5.69218">
        <ele>249.347</ele>
        <time>2020-09-02T18:28:42Z</time>
      </trkpt>
      <trkpt lat="43.7" lon="5.69226">
        <ele>249.678</ele>
        <time>2020-09-02T18:28:43Z</time>
      </trkpt>
      <trkpt lat="43.70012" lon="5.69236">
        <ele>249.816</ele>
        <time>2020-09-02T18:28:44Z</time>
      </trkpt>
      <trkpt lat="43.70025" lon="5.69246">
        <ele>250.232</ele>
        <time>2020-09-02T18:28:45Z</time>
      </trkpt>
      <trkpt lat="43.70039" lon="5.69257">
        <ele>250.435</ele>
        <time>2020-09-02T18:28:46Z</time>
      </trkpt>
      <trkpt lat="43.70054" lon="5.69268">
        <ele>250.992</ele>
        <time>2020-09-02T18:28:47Z</time>
      </trkpt>
      <trkpt lat="43.70069" lon="5.69277">
        <ele>251.073</ele>
        <time>2020-09-02T18:28:48Z</time>
      </trkpt>
      <trkpt lat="43.70083" lon="5.69291">
        <ele>251.32</ele>
        <time>2020-09-02T18:28:49Z</time>
      </trkpt>
      <trkpt lat="43.70098" lon="5.69302">
        <ele>251.708</ele>
        <time>2020-09-02T18:28:50Z</time>
      </trkpt>
      <trkpt lat="43.70116" lon="5.69314">
        <ele>251.387</ele>
        <time>2020-09-02T18:28:51Z</time>
      </trkpt>
      <trkpt lat="43.70133" lon="5.69321">
        <ele>251.626</ele>
        <time>2020-09-02T18:28:52Z</time>
      </trkpt>
      <trkpt lat="43.70153" lon="5.69326">
        <ele>252.086</ele>
        <time>2020-09-02T18:28:53Z</time>
      </trkpt>
      <trkpt lat="43.70173" lon="5.69326">
        <ele>252.093</ele>
        <time>2020-09-02T18:28:54Z</time>
      </trkpt>
      <trkpt lat="43.70194" lon="5.69323">
        <ele>252.444</ele>
        <time>2020-09-02T18:28:55Z</time>
      </trkpt>
      <trkpt lat="43.70216" lon="5.69322">
        <ele>253.052</ele>
        <time>2020-09-02T18:28:56Z</time>
      </trkpt>
      <trkpt lat="43.70238" lon="5.69325">
        <ele>253.578</ele>
        <time>2020-09-02T18:28:57Z</time>
      </trkpt>
      <trkpt lat="43.7026" lon="5.69328">
        <ele>253.621</ele>
        <time>2020-09-02T18:28:58Z</time>
      </trkpt>
      <trkpt lat="43.70282" lon="5.69334">
        <ele>253.927</ele>
        <time>2020-09-02T18:28:59Z</time>
      </trkpt>
      <trkpt lat="43.70303" lon="5.6935">
        <ele>254.668</ele>
        <time>2020-09-02T18:29:00Z</time>
      </trkpt>
      <trkpt lat="43.70324" lon="5.69363">
        <ele>254.814</ele>
        <time>2020-09-02T18:29:01Z</time>
      </trkpt>
      <trkpt lat="43.70345" lon="5.69377">
        <ele>255.608</ele>
        <time>2020-09-02T18:29:02Z</time>
      </trkpt>
      <trkpt lat="43.70366" lon="5.69392">
        <ele>255.61</ele>
        <time>2020-09-02T18:29:03Z</time>
      </trkpt>
      <trkpt lat="43.70388" lon="5.69405">
        <ele>255.959</ele>
        <time>2020-09-02T18:29:04Z</time>
      </trkpt>
      <trkpt lat="43.7041" lon="5.69417">
        <ele>256.629</ele>
        <time>2020-09-02T18:29:05Z</time>
      </trkpt>
      <trkpt lat="43.70433" lon="5.69431">
        <ele>256.076</ele>
        <time>2020-09-02T18:29:06Z</time>
      </trkpt>
      <trkpt lat="43.70455" lon="5.69445">
        <ele>256.377</ele>
        <time>2020-09-02T18:29:07Z</time>
      </trkpt>
      <trkpt lat="43.70478" lon="5.69459">
        <ele>257.155</ele>
        <time>2020-09-02T18:29:08Z</time>
      </trkpt>
      <trkpt lat="43.70501" lon="5.69472">
        <ele>257.671</ele>
        <time>2020-09-02T18:29:09Z</time>
      </trkpt>
      <trkpt lat="43.70523" lon="5.69486">
        <ele>258.634</ele>
        <time>2020-09-02T18:29:10Z</time>
      </trkpt>
      <trkpt lat="43.70545" lon="5.695">
        <ele>258.811</ele>
        <time>2020-09-02T18:29:11Z</time>
      </trkpt>
      <trkpt lat="43.70567" lon="5.69512">
        <ele>259.021</ele>
        <time>2020-09-02T18:29:12Z</time>
      </trkpt>
      <trkpt lat="43.70589" lon="5.69523">
        <ele>259.503</ele>
        <time>2020-09-02T18:29:13Z</time>
      </trkpt>
      <trkpt lat="43.70612" lon="5.69532">
        <ele>259.708</ele>
        <time>2020-09-02T18:29:14Z</time>
      </trkpt>
      <trkpt lat="43.70635" lon="5.69539">
        <ele>260.739</ele>
        <time>2020-09-02T18:29:15Z</time>
      </trkpt>
      <trkpt lat="43.70658" lon="5.69543">
        <ele>261.688</ele>
        <time>2020-09-02T18:29:16Z</time>
      </trkpt>
      <trkpt lat="43.70681" lon="5.69546">
        <ele>262.048</ele>
        <time>2020-09-02T18:29:17Z</time>
      </trkpt>
      <trkpt lat="43.70703" lon="5.69546">
        <ele>261.835</ele>
        <time>2020-09-02T18:29:18Z</time>
      </trkpt>
      <trkpt lat="43.70724" lon="5.69545">
        <ele>262.416</ele>
        <time>2020-09-02T18:29:19Z</time>
      </trkpt>
      <trkpt lat="43.70745" lon="5.69542">
        <ele>262.454</ele>
        <time>2020-09-02T18:29:20Z</time>
      </trkpt>
      <trkpt lat="43.70765" lon="5.69538">
        <ele>262.05</ele>
        <time>2020-09-02T18:29:21Z</time>
      </trkpt>
      <trkpt lat="43.70781" lon="5.69536">
        <ele>262.753</ele>
        <time>2020-09-02T18:29:22Z</time>
      </trkpt>
      <trkpt lat="43.70793" lon="5.69534">
        <ele>263.042</ele>
        <time>2020-09-02T18:29:23Z</time>
      </trkpt>
      <trkpt lat="43.70801" lon="5.69532">
        <ele>263.122</ele>
        <time>2020-09-02T18:29:24Z</time>
      </trkpt>
      <trkpt lat="43.70806" lon="5.69528">
        <ele>263.114</ele>
        <time>2020-09-02T18:29:25Z</time>
      </trkpt>
      <trkpt lat="43.70809" lon="5.69521">
        <ele>263.408</ele>
        <time>2020-09-02T18:29:27Z</time>
      </trkpt>
      <trkpt lat="43.70811" lon="5.69514">
        <ele>264.792</ele>
        <time>2020-09-02T18:31:09Z</time>
      </trkpt>
      <trkpt lat="43.70816" lon="5.69509">
        <ele>265.671</ele>
        <time>2020-09-02T18:31:11Z</time>
      </trkpt>
      <trkpt lat="43.70826" lon="5.69504">
        <ele>267.041</ele>
        <time>2020-09-02T18:31:13Z</time>
      </trkpt>
      <trkpt lat="43.70831" lon="5.69501">
        <ele>267.858</ele>
        <time>2020-09-02T18:31:14Z</time>
      </trkpt>
      <trkpt lat="43.70836" lon="5.69496">
        <ele>269.069</ele>
        <time>2020-09-02T18:31:15Z</time>
      </trkpt>
      <trkpt lat="43.70843" lon="5.69491">
        <ele>269.617</ele>
        <time>2020-09-02T18:31:16Z</time>
      </trkpt>
      <trkpt lat="43.7085" lon="5.69486">
        <ele>270.793</ele>
        <time>2020-09-02T18:31:17Z</time>
      </trkpt>
      <trkpt lat="43.70857" lon="5.69481">
        <ele>272.466</ele>
        <time>2020-09-02T18:31:18Z</time>
      </trkpt>
      <trkpt lat="43.70866" lon="5.69475">
        <ele>274.467</ele>
        <time>2020-09-02T18:31:19Z</time>
      </trkpt>
      <trkpt lat="43.70873" lon="5.69468">
        <ele>275.681</ele>
        <time>2020-09-02T18:31:20Z</time>
      </trkpt>
      <trkpt lat="43.70879" lon="5.69462">
        <ele>277.219</ele>
        <time>2020-09-02T18:31:21Z</time>
      </trkpt>
      <trkpt lat="43.70885" lon="5.69454">
        <ele>279.008</ele>
        <time>2020-09-02T18:31:22Z</time>
      </trkpt>
      <trkpt lat="43.7089" lon="5.69446">
        <ele>280.354</ele>
        <time>2020-09-02T18:31:23Z</time>
      </trkpt>
      <trkpt lat="43.70895" lon="5.69438">
        <ele>281.743</ele>
        <time>2020-09-02T18:31:24Z</time>
      </trkpt>
      <trkpt lat="43.70901" lon="5.69429">
        <ele>282.823</ele>
        <time>2020-09-02T18:31:25Z</time>
      </trkpt>
      <trkpt lat="43.70908" lon="5.69421">
        <ele>284.46</ele>
        <time>2020-09-02T18:31:26Z</time>
      </trkpt>
      <trkpt lat="43.70915" lon="5.69412">
        <ele>286.891</ele>
        <time>2020-09-02T18:31:27Z</time>
      </trkpt>
      <trkpt lat="43.70922" lon="5.69403">
        <ele>288.259</ele>
        <time>2020-09-02T18:31:28Z</time>
      </trkpt>
      <trkpt lat="43.70928" lon="5.69395">
        <ele>289.955</ele>
        <time>2020-09-02T18:31:29Z</time>
      </trkpt>
      <trkpt lat="43.70933" lon="5.69386">
        <ele>291.568</ele>
        <time>2020-09-02T18:31:30Z</time>
      </trkpt>
      <trkpt lat="43.70938" lon="5.69379">
        <ele>292.819</ele>
        <time>2020-09-02T18:31:31Z</time>
      </trkpt>
      <trkpt lat="43.70941" lon="5.69371">
        <ele>294.309</ele>
        <time>2020-09-02T18:31:32Z</time>
      </trkpt>
      <trkpt lat="43.70941" lon="5.69363">
        <ele>294.819</ele>
        <time>2020-09-02T18:31:33Z</time>
      </trkpt>
      <trkpt lat="43.70941" lon="5.69353">
        <ele>296.308</ele>
        <time>2020-09-02T18:31:34Z</time>
      </trkpt>
      <trkpt lat="43.70942" lon="5.69343">
        <ele>297.449</ele>
        <time>2020-09-02T18:31:35Z</time>
      </trkpt>
      <trkpt lat="43.70944" lon="5.69334">
        <ele>299.458</ele>
        <time>2020-09-02T18:31:36Z</time>
      </trkpt>
      <trkpt lat="43.70947" lon="5.69326">
        <ele>300.838</ele>
        <time>2020-09-02T18:31:37Z</time>
      </trkpt>
      <trkpt lat="43.70951" lon="5.69317">
        <ele>301.975</ele>
        <time>2020-09-02T18:31:38Z</time>
      </trkpt>
      <trkpt lat="43.70957" lon="5.6931">
        <ele>303.536</ele>
        <time>2020-09-02T18:31:39Z</time>
      </trkpt>
      <trkpt lat="43.70962" lon="5.69304">
        <ele>305.184</ele>
        <time>2020-09-02T18:31:40Z</time>
      </trkpt>
      <trkpt lat="43.70969" lon="5.693">
        <ele>307.05</ele>
        <time>2020-09-02T18:31:41Z</time>
      </trkpt>
      <trkpt lat="43.70975" lon="5.69298">
        <ele>307.693</ele>
        <time>2020-09-02T18:31:42Z</time>
      </trkpt>
      <trkpt lat="43.7098" lon="5.69296">
        <ele>309.065</ele>
        <time>2020-09-02T18:31:43Z</time>
      </trkpt>
      <trkpt lat="43.70985" lon="5.69299">
        <ele>310.668</ele>
        <time>2020-09-02T18:31:44Z</time>
      </trkpt>
      <trkpt lat="43.70995" lon="5.69298">
        <ele>313.614</ele>
        <time>2020-09-02T18:31:46Z</time>
      </trkpt>
      <trkpt lat="43.71001" lon="5.69295">
        <ele>315.008</ele>
        <time>2020-09-02T18:31:47Z</time>
      </trkpt>
      <trkpt lat="43.71008" lon="5.6929">
        <ele>316.434</ele>
        <time>2020-09-02T18:31:48Z</time>
      </trkpt>
      <trkpt lat="43.71014" lon="5.69286">
        <ele>317.933</ele>
        <time>2020-09-02T18:31:49Z</time>
      </trkpt>
      <trkpt lat="43.71021" lon="5.69279">
        <ele>318.553</ele>
        <time>2020-09-02T18:31:50Z</time>
      </trkpt>
      <trkpt lat="43.71027" lon="5.6927">
        <ele>319.74</ele>
        <time>2020-09-02T18:31:51Z</time>
      </trkpt>
      <trkpt lat="43.71031" lon="5.69261">
        <ele>321.141</ele>
        <time>2020-09-02T18:31:52Z</time>
      </trkpt>
      <trkpt lat="43.71035" lon="5.69253">
        <ele>322.789</ele>
        <time>2020-09-02T18:31:53Z</time>
      </trkpt>
      <trkpt lat="43.71042" lon="5.69247">
        <ele>323.595</ele>
        <time>2020-09-02T18:31:54Z</time>
      </trkpt>
      <trkpt lat="43.71048" lon="5.69242">
        <ele>325.038</ele>
        <time>2020-09-02T18:31:55Z</time>
      </trkpt>
      <trkpt lat="43.71056" lon="5.69238">
        <ele>326.393</ele>
        <time>2020-09-02T18:31:56Z</time>
      </trkpt>
      <trkpt lat="43.71064" lon="5.69233">
        <ele>327.965</ele>
        <time>2020-09-02T18:31:57Z</time>
      </trkpt>
      <trkpt lat="43.71072" lon="5.69228">
        <ele>328.821</ele>
        <time>2020-09-02T18:31:58Z</time>
      </trkpt>
      <trkpt lat="43.71082" lon="5.69226">
        <ele>331.808</ele>
        <time>2020-09-02T18:31:59Z</time>
      </trkpt>
      <trkpt lat="43.7109" lon="5.69223">
        <ele>333.587</ele>
        <time>2020-09-02T18:32:00Z</time>
      </trkpt>
      <trkpt lat="43.71099" lon="5.6922">
        <ele>335.546</ele>
        <time>2020-09-02T18:32:01Z</time>
      </trkpt>
      <trkpt lat="43.71108" lon="5.6922">
        <ele>336.686</ele>
        <time>2020-09-02T18:32:02Z</time>
      </trkpt>
      <trkpt lat="43.71117" lon="5.69218">
        <ele>339.063</ele>
        <time>2020-09-02T18:32:03Z</time>
      </trkpt>
      <trkpt lat="43.71127" lon="5.69218">
        <ele>340.554</ele>
        <time>2020-09-02T18:32:04Z</time>
      </trkpt>
      <trkpt lat="43.71137" lon="5.69219">
        <ele>342.732</ele>
        <time>2020-09-02T18:32:05Z</time>
      </trkpt>
      <trkpt lat="43.71145" lon="5.69222">
        <ele>345.168</ele>
        <time>2020-09-02T18:32:06Z</time>
      </trkpt>
      <trkpt lat="43.71155" lon="5.69226">
        <ele>346.541</ele>
        <time>2020-09-02T18:32:07Z</time>
      </trkpt>
      <trkpt lat="43.71164" lon="5.69229">
        <ele>348.421</ele>
        <time>2020-09-02T18:32:08Z</time>
      </trkpt>
      <trkpt lat="43.71174" lon="5.69233">
        <ele>350.541</ele>
        <time>2020-09-02T18:32:09Z</time>
      </trkpt>
      <trkpt lat="43.71181" lon="5.69237">
        <ele>352.805</ele>
        <time>2020-09-02T18:32:10Z</time>
      </trkpt>
      <trkpt lat="43.71188" lon="5.6924">
        <ele>353.508</ele>
        <time>2020-09-02T18:32:11Z</time>
      </trkpt>
      <trkpt lat="43.71195" lon="5.69244">
        <ele>354.23</ele>
        <time>2020-09-02T18:32:12Z</time>
      </trkpt>
      <trkpt lat="43.71203" lon="5.69248">
        <ele>355.189</ele>
        <time>2020-09-02T18:32:13Z</time>
      </trkpt>
      <trkpt lat="43.71212" lon="5.69249">
        <ele>356.059</ele>
        <time>2020-09-02T18:32:14Z</time>
      </trkpt>
      <trkpt lat="43.71221" lon="5.69248">
        <ele>357.176</ele>
        <time>2020-09-02T18:32:15Z</time>
      </trkpt>
      <trkpt lat="43.71228" lon="5.69245">
        <ele>357.897</ele>
        <time>2020-09-02T18:32:16Z</time>
      </trkpt>
      <trkpt lat="43.71234" lon="5.69241">
        <ele>358.565</ele>
        <time>2020-09-02T18:32:17Z</time>
      </trkpt>
      <trkpt lat="43.71242" lon="5.69236">
        <ele>359.761</ele>
        <time>2020-09-02T18:32:18Z</time>
      </trkpt>
      <trkpt lat="43.7125" lon="5.69232">
        <ele>360.384</ele>
        <time>2020-09-02T18:32:19Z</time>
      </trkpt>
      <trkpt lat="43.71259" lon="5.69229">
        <ele>360.271</ele>
        <time>2020-09-02T18:32:20Z</time>
      </trkpt>
      <trkpt lat="43.71269" lon="5.69225">
        <ele>360.641</ele>
        <time>2020-09-02T18:32:21Z</time>
      </trkpt>
      <trkpt lat="43.71279" lon="5.69221">
        <ele>360.515</ele>
        <time>2020-09-02T18:32:22Z</time>
      </trkpt>
      <trkpt lat="43.71291" lon="5.69218">
        <ele>360.308</ele>
        <time>2020-09-02T18:32:23Z</time>
      </trkpt>
      <trkpt lat="43.71301" lon="5.69214">
        <ele>360.425</ele>
        <time>2020-09-02T18:32:24Z</time>
      </trkpt>
      <trkpt lat="43.71311" lon="5.69211">
        <ele>360.344</ele>
        <time>2020-09-02T18:32:25Z</time>
      </trkpt>
      <trkpt lat="43.7132" lon="5.69209">
        <ele>360.294</ele>
        <time>2020-09-02T18:32:26Z</time>
      </trkpt>
      <trkpt lat="43.71331" lon="5.69205">
        <ele>360.091</ele>
        <time>2020-09-02T18:32:27Z</time>
      </trkpt>
      <trkpt lat="43.71341" lon="5.69201">
        <ele>360.082</ele>
        <time>2020-09-02T18:32:28Z</time>
      </trkpt>
      <trkpt lat="43.7135" lon="5.69195">
        <ele>360.66</ele>
        <time>2020-09-02T18:32:29Z</time>
      </trkpt>
      <trkpt lat="43.71359" lon="5.69188">
        <ele>360.956</ele>
        <time>2020-09-02T18:32:30Z</time>
      </trkpt>
      <trkpt lat="43.71369" lon="5.69182">
        <ele>361.179</ele>
        <time>2020-09-02T18:32:31Z</time>
      </trkpt>
      <trkpt lat="43.7138" lon="5.69178">
        <ele>361.193</ele>
        <time>2020-09-02T18:32:32Z</time>
      </trkpt>
      <trkpt lat="43.71389" lon="5.69175">
        <ele>360.865</ele>
        <time>2020-09-02T18:32:33Z</time>
      </trkpt>
      <trkpt lat="43.71398" lon="5.6917">
        <ele>360.821</ele>
        <time>2020-09-02T18:32:34Z</time>
      </trkpt>
      <trkpt lat="43.71407" lon="5.69164">
        <ele>360.708</ele>
        <time>2020-09-02T18:32:35Z</time>
      </trkpt>
      <trkpt lat="43.71416" lon="5.69157">
        <ele>360.177</ele>
        <time>2020-09-02T18:32:36Z</time>
      </trkpt>
      <trkpt lat="43.71426" lon="5.69151">
        <ele>360.096</ele>
        <time>2020-09-02T18:32:37Z</time>
      </trkpt>
      <trkpt lat="43.71436" lon="5.69145">
        <ele>360.056</ele>
        <time>2020-09-02T18:32:38Z</time>
      </trkpt>
      <trkpt lat="43.71446" lon="5.6914">
        <ele>360.023</ele>
        <time>2020-09-02T18:32:39Z</time>
      </trkpt>
      <trkpt lat="43.71457" lon="5.69134">
        <ele>359.514</ele>
        <time>2020-09-02T18:32:40Z</time>
      </trkpt>
      <trkpt lat="43.71467" lon="5.69128">
        <ele>359.292</ele>
        <time>2020-09-02T18:32:41Z</time>
      </trkpt>
      <trkpt lat="43.71476" lon="5.69121">
        <ele>359.378</ele>
        <time>2020-09-02T18:32:42Z</time>
      </trkpt>
      <trkpt lat="43.71484" lon="5.69114">
        <ele>359.481</ele>
        <time>2020-09-02T18:32:43Z</time>
      </trkpt>
      <trkpt lat="43.71493" lon="5.69106">
        <ele>359.432</ele>
        <time>2020-09-02T18:32:44Z</time>
      </trkpt>
      <trkpt lat="43.71502" lon="5.69098">
        <ele>359.992</ele>
        <time>2020-09-02T18:32:45Z</time>
      </trkpt>
      <trkpt lat="43.71512" lon="5.69091">
        <ele>360.311</ele>
        <time>2020-09-02T18:32:46Z</time>
      </trkpt>
      <trkpt lat="43.71522" lon="5.69084">
        <ele>361.008</ele>
        <time>2020-09-02T18:32:47Z</time>
      </trkpt>
      <trkpt lat="43.71532" lon="5.69077">
        <ele>361.941</ele>
        <time>2020-09-02T18:32:48Z</time>
      </trkpt>
      <trkpt lat="43.71542" lon="5.69071">
        <ele>363.16</ele>
        <time>2020-09-02T18:32:49Z</time>
      </trkpt>
      <trkpt lat="43.71552" lon="5.69066">
        <ele>363.77</ele>
        <time>2020-09-02T18:32:50Z</time>
      </trkpt>
      <trkpt lat="43.71562" lon="5.6906">
        <ele>364.657</ele>
        <time>2020-09-02T18:32:51Z</time>
      </trkpt>
      <trkpt lat="43.71571" lon="5.69054">
        <ele>365.568</ele>
        <time>2020-09-02T18:32:52Z</time>
      </trkpt>
      <trkpt lat="43.71582" lon="5.6905">
        <ele>366.256</ele>
        <time>2020-09-02T18:32:53Z</time>
      </trkpt>
      <trkpt lat="43.71592" lon="5.69047">
        <ele>367.522</ele>
        <time>2020-09-02T18:32:54Z</time>
      </trkpt>
      <trkpt lat="43.71603" lon="5.69044">
        <ele>368.395</ele>
        <time>2020-09-02T18:32:55Z</time>
      </trkpt>
      <trkpt lat="43.71613" lon="5.69039">
        <ele>369.369</ele>
        <time>2020-09-02T18:32:56Z</time>
      </trkpt>
      <trkpt lat="43.71624" lon="5.69034">
        <ele>370.204</ele>
        <time>2020-09-02T18:32:57Z</time>
      </trkpt>
      <trkpt lat="43.71634" lon="5.6903">
        <ele>371.424</ele>
        <time>2020-09-02T18:32:58Z</time>
      </trkpt>
      <trkpt lat="43.71645" lon="5.69025">
        <ele>372.608</ele>
        <time>2020-09-02T18:32:59Z</time>
      </trkpt>
      <trkpt lat="43.71655" lon="5.69022">
        <ele>374.434</ele>
        <time>2020-09-02T18:33:00Z</time>
      </trkpt>
      <trkpt lat="43.71665" lon="5.6902">
        <ele>375.563</ele>
        <time>2020-09-02T18:33:01Z</time>
      </trkpt>
      <trkpt lat="43.71676" lon="5.69017">
        <ele>376.893</ele>
        <time>2020-09-02T18:33:02Z</time>
      </trkpt>
      <trkpt lat="43.71687" lon="5.69015">
        <ele>377.53</ele>
        <time>2020-09-02T18:33:03Z</time>
      </trkpt>
      <trkpt lat="43.71697" lon="5.69012">
        <ele>379.151</ele>
        <time>2020-09-02T18:33:04Z</time>
      </trkpt>
      <trkpt lat="43.71709" lon="5.69009">
        <ele>380.939</ele>
        <time>2020-09-02T18:33:05Z</time>
      </trkpt>
      <trkpt lat="43.71719" lon="5.69005">
        <ele>382.235</ele>
        <time>2020-09-02T18:33:06Z</time>
      </trkpt>
      <trkpt lat="43.7173" lon="5.69001">
        <ele>382.778</ele>
        <time>2020-09-02T18:33:07Z</time>
      </trkpt>
      <trkpt lat="43.71739" lon="5.68998">
        <ele>382.223</ele>
        <time>2020-09-02T18:33:08Z</time>
      </trkpt>
      <trkpt lat="43.71748" lon="5.68996">
        <ele>382.883</ele>
        <time>2020-09-02T18:33:09Z</time>
      </trkpt>
      <trkpt lat="43.71758" lon="5.68997">
        <ele>382.611</ele>
        <time>2020-09-02T18:33:10Z</time>
      </trkpt>
      <trkpt lat="43.71768" lon="5.69">
        <ele>382.908</ele>
        <time>2020-09-02T18:33:11Z</time>
      </trkpt>
      <trkpt lat="43.71779" lon="5.69002">
        <ele>384.09</ele>
        <time>2020-09-02T18:33:12Z</time>
      </trkpt>
      <trkpt lat="43.7179" lon="5.69005">
        <ele>385.049</ele>
        <time>2020-09-02T18:33:13Z</time>
      </trkpt>
      <trkpt lat="43.71801" lon="5.69008">
        <ele>386.599</ele>
        <time>2020-09-02T18:33:14Z</time>
      </trkpt>
      <trkpt lat="43.71812" lon="5.6901">
        <ele>386.626</ele>
        <time>2020-09-02T18:33:15Z</time>
      </trkpt>
      <trkpt lat="43.71822" lon="5.69012">
        <ele>386.727</ele>
        <time>2020-09-02T18:33:16Z</time>
      </trkpt>
      <trkpt lat="43.71834" lon="5.69014">
        <ele>386.745</ele>
        <time>2020-09-02T18:33:17Z</time>
      </trkpt>
      <trkpt lat="43.71846" lon="5.69015">
        <ele>387.011</ele>
        <time>2020-09-02T18:33:18Z</time>
      </trkpt>
      <trkpt lat="43.71857" lon="5.69018">
        <ele>387.274</ele>
        <time>2020-09-02T18:33:19Z</time>
      </trkpt>
      <trkpt lat="43.71868" lon="5.6902">
        <ele>387.331</ele>
        <time>2020-09-02T18:33:20Z</time>
      </trkpt>
      <trkpt lat="43.7188" lon="5.69022">
        <ele>387.861</ele>
        <time>2020-09-02T18:33:21Z</time>
      </trkpt>
      <trkpt lat="43.71891" lon="5.69023">
        <ele>388.407</ele>
        <time>2020-09-02T18:33:22Z</time>
      </trkpt>
      <trkpt lat="43.71904" lon="5.69021">
        <ele>388.708</ele>
        <time>2020-09-02T18:33:23Z</time>
      </trkpt>
      <trkpt lat="43.71915" lon="5.69021">
        <ele>388.951</ele>
        <time>2020-09-02T18:33:24Z</time>
      </trkpt>
      <trkpt lat="43.71927" lon="5.69019">
        <ele>389.04</ele>
        <time>2020-09-02T18:33:25Z</time>
      </trkpt>
      <trkpt lat="43.71939" lon="5.69018">
        <ele>389.28</ele>
        <time>2020-09-02T18:33:26Z</time>
      </trkpt>
      <trkpt lat="43.7195" lon="5.6902">
        <ele>389.687</ele>
        <time>2020-09-02T18:33:27Z</time>
      </trkpt>
      <trkpt lat="43.71962" lon="5.69022">
        <ele>389.968</ele>
        <time>2020-09-02T18:33:28Z</time>
      </trkpt>
      <trkpt lat="43.71974" lon="5.69022">
        <ele>390.346</ele>
        <time>2020-09-02T18:33:29Z</time>
      </trkpt>
      <trkpt lat="43.71985" lon="5.6902">
        <ele>390.722</ele>
        <time>2020-09-02T18:33:30Z</time>
      </trkpt>
      <trkpt lat="43.71994" lon="5.69016">
        <ele>390.235</ele>
        <time>2020-09-02T18:33:31Z</time>
      </trkpt>
      <trkpt lat="43.72003" lon="5.6901">
        <ele>390.199</ele>
        <time>2020-09-02T18:33:32Z</time>
      </trkpt>
      <trkpt lat="43.72013" lon="5.69002">
        <ele>390.707</ele>
        <time>2020-09-02T18:33:33Z</time>
      </trkpt>
      <trkpt lat="43.72022" lon="5.68993">
        <ele>390.827</ele>
        <time>2020-09-02T18:33:34Z</time>
      </trkpt>
      <trkpt lat="43.72032" lon="5.68985">
        <ele>391.208</ele>
        <time>2020-09-02T18:33:35Z</time>
      </trkpt>
      <trkpt lat="43.72041" lon="5.68977">
        <ele>391.447</ele>
        <time>2020-09-02T18:33:36Z</time>
      </trkpt>
      <trkpt lat="43.72051" lon="5.68968">
        <ele>391.696</ele>
        <time>2020-09-02T18:33:37Z</time>
      </trkpt>
      <trkpt lat="43.7206" lon="5.68959">
        <ele>391.926</ele>
        <time>2020-09-02T18:33:38Z</time>
      </trkpt>
      <trkpt lat="43.7207" lon="5.68949">
        <ele>392.683</ele>
        <time>2020-09-02T18:33:39Z</time>
      </trkpt>
      <trkpt lat="43.72078" lon="5.68936">
        <ele>392.964</ele>
        <time>2020-09-02T18:33:40Z</time>
      </trkpt>
      <trkpt lat="43.72087" lon="5.68926">
        <ele>393.182</ele>
        <time>2020-09-02T18:33:41Z</time>
      </trkpt>
      <trkpt lat="43.72096" lon="5.68918">
        <ele>393.398</ele>
        <time>2020-09-02T18:33:42Z</time>
      </trkpt>
      <trkpt lat="43.72105" lon="5.68909">
        <ele>394.171</ele>
        <time>2020-09-02T18:33:43Z</time>
      </trkpt>
      <trkpt lat="43.72114" lon="5.68899">
        <ele>394.219</ele>
        <time>2020-09-02T18:33:44Z</time>
      </trkpt>
      <trkpt lat="43.72123" lon="5.68889">
        <ele>395.009</ele>
        <time>2020-09-02T18:33:45Z</time>
      </trkpt>
      <trkpt lat="43.7213" lon="5.68878">
        <ele>395.319</ele>
        <time>2020-09-02T18:33:46Z</time>
      </trkpt>
      <trkpt lat="43.72138" lon="5.68869">
        <ele>395.208</ele>
        <time>2020-09-02T18:33:47Z</time>
      </trkpt>
      <trkpt lat="43.72146" lon="5.68858">
        <ele>395.329</ele>
        <time>2020-09-02T18:33:48Z</time>
      </trkpt>
      <trkpt lat="43.72156" lon="5.6885">
        <ele>396.938</ele>
        <time>2020-09-02T18:33:49Z</time>
      </trkpt>
      <trkpt lat="43.72165" lon="5.68842">
        <ele>397.688</ele>
        <time>2020-09-02T18:33:50Z</time>
      </trkpt>
      <trkpt lat="43.72175" lon="5.68834">
        <ele>398.165</ele>
        <time>2020-09-02T18:33:51Z</time>
      </trkpt>
      <trkpt lat="43.72185" lon="5.68826">
        <ele>398.796</ele>
        <time>2020-09-02T18:33:52Z</time>
      </trkpt>
      <trkpt lat="43.72194" lon="5.6882">
        <ele>399.644</ele>
        <time>2020-09-02T18:33:53Z</time>
      </trkpt>
      <trkpt lat="43.72204" lon="5.68815">
        <ele>399.99</ele>
        <time>2020-09-02T18:33:54Z</time>
      </trkpt>
      <trkpt lat="43.72213" lon="5.68812">
        <ele>400.253</ele>
        <time>2020-09-02T18:33:55Z</time>
      </trkpt>
      <trkpt lat="43.72221" lon="5.68811">
        <ele>401.096</ele>
        <time>2020-09-02T18:33:56Z</time>
      </trkpt>
      <trkpt lat="43.72228" lon="5.68811">
        <ele>401.531</ele>
        <time>2020-09-02T18:33:57Z</time>
      </trkpt>
      <trkpt lat="43.72236" lon="5.6881">
        <ele>401.324</ele>
        <time>2020-09-02T18:33:58Z</time>
      </trkpt>
      <trkpt lat="43.72244" lon="5.68808">
        <ele>402.208</ele>
        <time>2020-09-02T18:33:59Z</time>
      </trkpt>
      <trkpt lat="43.72252" lon="5.68808">
        <ele>403.187</ele>
        <time>2020-09-02T18:34:00Z</time>
      </trkpt>
      <trkpt lat="43.72261" lon="5.68808">
        <ele>403.956</ele>
        <time>2020-09-02T18:34:01Z</time>
      </trkpt>
      <trkpt lat="43.7227" lon="5.68808">
        <ele>403.916</ele>
        <time>2020-09-02T18:34:02Z</time>
      </trkpt>
      <trkpt lat="43.72279" lon="5.6881">
        <ele>404.723</ele>
        <time>2020-09-02T18:34:03Z</time>
      </trkpt>
      <trkpt lat="43.72287" lon="5.68811">
        <ele>405.354</ele>
        <time>2020-09-02T18:34:04Z</time>
      </trkpt>
      <trkpt lat="43.72295" lon="5.68813">
        <ele>405.862</ele>
        <time>2020-09-02T18:34:05Z</time>
      </trkpt>
      <trkpt lat="43.72302" lon="5.68812">
        <ele>406.478</ele>
        <time>2020-09-02T18:34:06Z</time>
      </trkpt>
      <trkpt lat="43.72309" lon="5.6881">
        <ele>406.861</ele>
        <time>2020-09-02T18:34:07Z</time>
      </trkpt>
      <trkpt lat="43.72317" lon="5.68807">
        <ele>407.397</ele>
        <time>2020-09-02T18:34:08Z</time>
      </trkpt>
      <trkpt lat="43.72325" lon="5.68804">
        <ele>407.923</ele>
        <time>2020-09-02T18:34:09Z</time>
      </trkpt>
      <trkpt lat="43.72333" lon="5.68801">
        <ele>408.325</ele>
        <time>2020-09-02T18:34:10Z</time>
      </trkpt>
      <trkpt lat="43.72341" lon="5.68799">
        <ele>409.408</ele>
        <time>2020-09-02T18:34:11Z</time>
      </trkpt>
      <trkpt lat="43.72348" lon="5.68798">
        <ele>410.487</ele>
        <time>2020-09-02T18:34:12Z</time>
      </trkpt>
      <trkpt lat="43.72356" lon="5.68797">
        <ele>411.216</ele>
        <time>2020-09-02T18:34:13Z</time>
      </trkpt>
      <trkpt lat="43.72364" lon="5.68796">
        <ele>411.766</ele>
        <time>2020-09-02T18:34:14Z</time>
      </trkpt>
      <trkpt lat="43.72373" lon="5.68796">
        <ele>412.173</ele>
        <time>2020-09-02T18:34:15Z</time>
      </trkpt>
      <trkpt lat="43.72382" lon="5.68796">
        <ele>412.444</ele>
        <time>2020-09-02T18:34:16Z</time>
      </trkpt>
      <trkpt lat="43.72391" lon="5.68797">
        <ele>413.612</ele>
        <time>2020-09-02T18:34:17Z</time>
      </trkpt>
      <trkpt lat="43.724" lon="5.68799">
        <ele>414.478</ele>
        <time>2020-09-02T18:34:18Z</time>
      </trkpt>
      <trkpt lat="43.72408" lon="5.68802">
        <ele>414.921</ele>
        <time>2020-09-02T18:34:19Z</time>
      </trkpt>
      <trkpt lat="43.72414" lon="5.68807">
        <ele>415.285</ele>
        <time>2020-09-02T18:34:20Z</time>
      </trkpt>
      <trkpt lat="43.7242" lon="5.6881">
        <ele>415.489</ele>
        <time>2020-09-02T18:34:21Z</time>
      </trkpt>
      <trkpt lat="43.72426" lon="5.68813">
        <ele>415.617</ele>
        <time>2020-09-02T18:34:22Z</time>
      </trkpt>
      <trkpt lat="43.72434" lon="5.68815">
        <ele>415.908</ele>
        <time>2020-09-02T18:34:24Z</time>
      </trkpt>
      <trkpt lat="43.72438" lon="5.68818">
        <ele>416.566</ele>
        <time>2020-09-02T18:34:25Z</time>
      </trkpt>
      <trkpt lat="43.72444" lon="5.68821">
        <ele>417.595</ele>
        <time>2020-09-02T18:34:26Z</time>
      </trkpt>
      <trkpt lat="43.72449" lon="5.68822">
        <ele>417.515</ele>
        <time>2020-09-02T18:34:27Z</time>
      </trkpt>
      <trkpt lat="43.72454" lon="5.68822">
        <ele>418.472</ele>
        <time>2020-09-02T18:34:28Z</time>
      </trkpt>
      <trkpt lat="43.72459" lon="5.68821">
        <ele>419.173</ele>
        <time>2020-09-02T18:34:29Z</time>
      </trkpt>
      <trkpt lat="43.72465" lon="5.68822">
        <ele>419.181</ele>
        <time>2020-09-02T18:34:30Z</time>
      </trkpt>
      <trkpt lat="43.7247" lon="5.68821">
        <ele>419.567</ele>
        <time>2020-09-02T18:34:31Z</time>
      </trkpt>
      <trkpt lat="43.72476" lon="5.6882">
        <ele>420.44</ele>
        <time>2020-09-02T18:34:32Z</time>
      </trkpt>
      <trkpt lat="43.72481" lon="5.68819">
        <ele>420.367</ele>
        <time>2020-09-02T18:34:33Z</time>
      </trkpt>
      <trkpt lat="43.72487" lon="5.68818">
        <ele>420.581</ele>
        <time>2020-09-02T18:34:34Z</time>
      </trkpt>
      <trkpt lat="43.72494" lon="5.68819">
        <ele>421.419</ele>
        <time>2020-09-02T18:34:35Z</time>
      </trkpt>
      <trkpt lat="43.72501" lon="5.68821">
        <ele>421.908</ele>
        <time>2020-09-02T18:34:36Z</time>
      </trkpt>
      <trkpt lat="43.72507" lon="5.68822">
        <ele>421.954</ele>
        <time>2020-09-02T18:34:37Z</time>
      </trkpt>
      <trkpt lat="43.72515" lon="5.68826">
        <ele>422.443</ele>
        <time>2020-09-02T18:34:38Z</time>
      </trkpt>
      <trkpt lat="43.72522" lon="5.6883">
        <ele>422.883</ele>
        <time>2020-09-02T18:34:39Z</time>
      </trkpt>
      <trkpt lat="43.72529" lon="5.68836">
        <ele>422.95</ele>
        <time>2020-09-02T18:34:40Z</time>
      </trkpt>
      <trkpt lat="43.72535" lon="5.68842">
        <ele>423.161</ele>
        <time>2020-09-02T18:34:41Z</time>
      </trkpt>
      <trkpt lat="43.7254" lon="5.6885">
        <ele>423.539</ele>
        <time>2020-09-02T18:34:42Z</time>
      </trkpt>
      <trkpt lat="43.72543" lon="5.6886">
        <ele>424.055</ele>
        <time>2020-09-02T18:34:43Z</time>
      </trkpt>
      <trkpt lat="43.72547" lon="5.68868">
        <ele>424.238</ele>
        <time>2020-09-02T18:34:44Z</time>
      </trkpt>
      <trkpt lat="43.72552" lon="5.68876">
        <ele>424.662</ele>
        <time>2020-09-02T18:34:45Z</time>
      </trkpt>
      <trkpt lat="43.72557" lon="5.68884">
        <ele>425.083</ele>
        <time>2020-09-02T18:34:46Z</time>
      </trkpt>
      <trkpt lat="43.72562" lon="5.68891">
        <ele>426.411</ele>
        <time>2020-09-02T18:34:47Z</time>
      </trkpt>
      <trkpt lat="43.72568" lon="5.68898">
        <ele>427.408</ele>
        <time>2020-09-02T18:34:48Z</time>
      </trkpt>
      <trkpt lat="43.72573" lon="5.68905">
        <ele>428.694</ele>
        <time>2020-09-02T18:34:49Z</time>
      </trkpt>
      <trkpt lat="43.7258" lon="5.68911">
        <ele>429.113</ele>
        <time>2020-09-02T18:34:50Z</time>
      </trkpt>
      <trkpt lat="43.72585" lon="5.68918">
        <ele>430.283</ele>
        <time>2020-09-02T18:34:51Z</time>
      </trkpt>
      <trkpt lat="43.72592" lon="5.68925">
        <ele>430.43</ele>
        <time>2020-09-02T18:34:52Z</time>
      </trkpt>
      <trkpt lat="43.72598" lon="5.68932">
        <ele>430.961</ele>
        <time>2020-09-02T18:34:53Z</time>
      </trkpt>
      <trkpt lat="43.72602" lon="5.68939">
        <ele>430.979</ele>
        <time>2020-09-02T18:34:54Z</time>
      </trkpt>
      <trkpt lat="43.72607" lon="5.68945">
        <ele>430.455</ele>
        <time>2020-09-02T18:34:55Z</time>
      </trkpt>
      <trkpt lat="43.72611" lon="5.6895">
        <ele>429.568</ele>
        <time>2020-09-02T18:34:56Z</time>
      </trkpt>
      <trkpt lat="43.72616" lon="5.68953">
        <ele>428.539</ele>
        <time>2020-09-02T18:34:57Z</time>
      </trkpt>
      <trkpt lat="43.72623" lon="5.68955">
        <ele>428.101</ele>
        <time>2020-09-02T18:34:58Z</time>
      </trkpt>
      <trkpt lat="43.7263" lon="5.68955">
        <ele>427.221</ele>
        <time>2020-09-02T18:34:59Z</time>
      </trkpt>
      <trkpt lat="43.72638" lon="5.68955">
        <ele>426.508</ele>
        <time>2020-09-02T18:35:00Z</time>
      </trkpt>
      <trkpt lat="43.72646" lon="5.68953">
        <ele>425.911</ele>
        <time>2020-09-02T18:35:01Z</time>
      </trkpt>
      <trkpt lat="43.72653" lon="5.6895">
        <ele>425.49</ele>
        <time>2020-09-02T18:35:02Z</time>
      </trkpt>
      <trkpt lat="43.7266" lon="5.6895">
        <ele>425.15</ele>
        <time>2020-09-02T18:35:03Z</time>
      </trkpt>
      <trkpt lat="43.72667" lon="5.68947">
        <ele>424.597</ele>
        <time>2020-09-02T18:35:04Z</time>
      </trkpt>
      <trkpt lat="43.72674" lon="5.68944">
        <ele>423.488</ele>
        <time>2020-09-02T18:35:05Z</time>
      </trkpt>
      <trkpt lat="43.72681" lon="5.68944">
        <ele>423.166</ele>
        <time>2020-09-02T18:35:06Z</time>
      </trkpt>
      <trkpt lat="43.7269" lon="5.68944">
        <ele>422.992</ele>
        <time>2020-09-02T18:35:07Z</time>
      </trkpt>
      <trkpt lat="43.72699" lon="5.6894">
        <ele>420.975</ele>
        <time>2020-09-02T18:35:08Z</time>
      </trkpt>
      <trkpt lat="43.72709" lon="5.68938">
        <ele>420.976</ele>
        <time>2020-09-02T18:35:09Z</time>
      </trkpt>
      <trkpt lat="43.72719" lon="5.68935">
        <ele>420.39</ele>
        <time>2020-09-02T18:35:10Z</time>
      </trkpt>
      <trkpt lat="43.72728" lon="5.68931">
        <ele>419.919</ele>
        <time>2020-09-02T18:35:11Z</time>
      </trkpt>
      <trkpt lat="43.72737" lon="5.68927">
        <ele>420.308</ele>
        <time>2020-09-02T18:35:12Z</time>
      </trkpt>
      <trkpt lat="43.72745" lon="5.68923">
        <ele>419.935</ele>
        <time>2020-09-02T18:35:13Z</time>
      </trkpt>
      <trkpt lat="43.72752" lon="5.68918">
        <ele>419.544</ele>
        <time>2020-09-02T18:35:14Z</time>
      </trkpt>
      <trkpt lat="43.72758" lon="5.68912">
        <ele>419.484</ele>
        <time>2020-09-02T18:35:15Z</time>
      </trkpt>
      <trkpt lat="43.72764" lon="5.68903">
        <ele>419.341</ele>
        <time>2020-09-02T18:35:16Z</time>
      </trkpt>
      <trkpt lat="43.72771" lon="5.68898">
        <ele>418.132</ele>
        <time>2020-09-02T18:35:17Z</time>
      </trkpt>
      <trkpt lat="43.72779" lon="5.68892">
        <ele>417.84</ele>
        <time>2020-09-02T18:35:18Z</time>
      </trkpt>
      <trkpt lat="43.72788" lon="5.68886">
        <ele>417.356</ele>
        <time>2020-09-02T18:35:19Z</time>
      </trkpt>
      <trkpt lat="43.72795" lon="5.68883">
        <ele>416.679</ele>
        <time>2020-09-02T18:35:20Z</time>
      </trkpt>
      <trkpt lat="43.72803" lon="5.68883">
        <ele>416.122</ele>
        <time>2020-09-02T18:35:21Z</time>
      </trkpt>
      <trkpt lat="43.72811" lon="5.68884">
        <ele>415.062</ele>
        <time>2020-09-02T18:35:22Z</time>
      </trkpt>
      <trkpt lat="43.7282" lon="5.68888">
        <ele>415.308</ele>
        <time>2020-09-02T18:35:23Z</time>
      </trkpt>
      <trkpt lat="43.72829" lon="5.68893">
        <ele>415.108</ele>
        <time>2020-09-02T18:35:24Z</time>
      </trkpt>
      <trkpt lat="43.72839" lon="5.68901">
        <ele>415.05</ele>
        <time>2020-09-02T18:35:25Z</time>
      </trkpt>
      <trkpt lat="43.72848" lon="5.68908">
        <ele>414.789</ele>
        <time>2020-09-02T18:35:26Z</time>
      </trkpt>
      <trkpt lat="43.72858" lon="5.68915">
        <ele>414.589</ele>
        <time>2020-09-02T18:35:27Z</time>
      </trkpt>
      <trkpt lat="43.72868" lon="5.68922">
        <ele>414.836</ele>
        <time>2020-09-02T18:35:28Z</time>
      </trkpt>
      <trkpt lat="43.72877" lon="5.68929">
        <ele>415.357</ele>
        <time>2020-09-02T18:35:29Z</time>
      </trkpt>
      <trkpt lat="43.72885" lon="5.68936">
        <ele>415.635</ele>
        <time>2020-09-02T18:35:30Z</time>
      </trkpt>
      <trkpt lat="43.72893" lon="5.68942">
        <ele>415.831</ele>
        <time>2020-09-02T18:35:31Z</time>
      </trkpt>
      <trkpt lat="43.72901" lon="5.68947">
        <ele>416.894</ele>
        <time>2020-09-02T18:35:32Z</time>
      </trkpt>
      <trkpt lat="43.7291" lon="5.68952">
        <ele>417.277</ele>
        <time>2020-09-02T18:35:33Z</time>
      </trkpt>
      <trkpt lat="43.72919" lon="5.68956">
        <ele>417.861</ele>
        <time>2020-09-02T18:35:34Z</time>
      </trkpt>
      <trkpt lat="43.72928" lon="5.68961">
        <ele>418.827</ele>
        <time>2020-09-02T18:35:35Z</time>
      </trkpt>
      <trkpt lat="43.72937" lon="5.68966">
        <ele>419.308</ele>
        <time>2020-09-02T18:35:36Z</time>
      </trkpt>
      <trkpt lat="43.72944" lon="5.68971">
        <ele>419.535</ele>
        <time>2020-09-02T18:35:37Z</time>
      </trkpt>
      <trkpt lat="43.7295" lon="5.68975">
        <ele>420.094</ele>
        <time>2020-09-02T18:35:38Z</time>
      </trkpt>
      <trkpt lat="43.72954" lon="5.68978">
        <ele>419.914</ele>
        <time>2020-09-02T18:35:39Z</time>
      </trkpt>
      <trkpt lat="43.72958" lon="5.68982">
        <ele>419.811</ele>
        <time>2020-09-02T18:35:40Z</time>
      </trkpt>
      <trkpt lat="43.72962" lon="5.68985">
        <ele>419.882</ele>
        <time>2020-09-02T18:35:41Z</time>
      </trkpt>
      <trkpt lat="43.72966" lon="5.68988">
        <ele>419.18</ele>
        <time>2020-09-02T18:35:42Z</time>
      </trkpt>
      <trkpt lat="43.7297" lon="5.68992">
        <ele>418.746</ele>
        <time>2020-09-02T18:35:43Z</time>
      </trkpt>
      <trkpt lat="43.72976" lon="5.68996">
        <ele>418.519</ele>
        <time>2020-09-02T18:35:44Z</time>
      </trkpt>
      <trkpt lat="43.72982" lon="5.69002">
        <ele>418.894</ele>
        <time>2020-09-02T18:35:45Z</time>
      </trkpt>
      <trkpt lat="43.72991" lon="5.69008">
        <ele>417.957</ele>
        <time>2020-09-02T18:35:46Z</time>
      </trkpt>
      <trkpt lat="43.73" lon="5.69016">
        <ele>417.722</ele>
        <time>2020-09-02T18:35:47Z</time>
      </trkpt>
      <trkpt lat="43.73011" lon="5.69023">
        <ele>417.308</ele>
        <time>2020-09-02T18:35:48Z</time>
      </trkpt>
      <trkpt lat="43.73023" lon="5.6903">
        <ele>416.897</ele>
        <time>2020-09-02T18:35:49Z</time>
      </trkpt>
      <trkpt lat="43.73035" lon="5.69034">
        <ele>416.146</ele>
        <time>2020-09-02T18:35:50Z</time>
      </trkpt>
      <trkpt lat="43.73047" lon="5.69035">
        <ele>415.646</ele>
        <time>2020-09-02T18:35:51Z</time>
      </trkpt>
      <trkpt lat="43.73061" lon="5.69034">
        <ele>415.433</ele>
        <time>2020-09-02T18:35:52Z</time>
      </trkpt>
      <trkpt lat="43.73074" lon="5.69034">
        <ele>415.374</ele>
        <time>2020-09-02T18:35:53Z</time>
      </trkpt>
      <trkpt lat="43.73087" lon="5.69036">
        <ele>415.642</ele>
        <time>2020-09-02T18:35:54Z</time>
      </trkpt>
      <trkpt lat="43.73099" lon="5.69041">
        <ele>415.458</ele>
        <time>2020-09-02T18:35:55Z</time>
      </trkpt>
      <trkpt lat="43.73109" lon="5.69049">
        <ele>415.421</ele>
        <time>2020-09-02T18:35:56Z</time>
      </trkpt>
      <trkpt lat="43.73119" lon="5.69054">
        <ele>415.338</ele>
        <time>2020-09-02T18:35:57Z</time>
      </trkpt>
      <trkpt lat="43.73129" lon="5.69057">
        <ele>415.37</ele>
        <time>2020-09-02T18:35:58Z</time>
      </trkpt>
      <trkpt lat="43.73138" lon="5.69055">
        <ele>414.117</ele>
        <time>2020-09-02T18:35:59Z</time>
      </trkpt>
      <trkpt lat="43.73147" lon="5.69048">
        <ele>413.408</ele>
        <time>2020-09-02T18:36:00Z</time>
      </trkpt>
      <trkpt lat="43.73154" lon="5.69038">
        <ele>412.721</ele>
        <time>2020-09-02T18:36:01Z</time>
      </trkpt>
      <trkpt lat="43.73162" lon="5.69027">
        <ele>412.25</ele>
        <time>2020-09-02T18:36:02Z</time>
      </trkpt>
      <trkpt lat="43.73171" lon="5.69018">
        <ele>411.29</ele>
        <time>2020-09-02T18:36:03Z</time>
      </trkpt>
      <trkpt lat="43.73183" lon="5.69013">
        <ele>410.477</ele>
        <time>2020-09-02T18:36:04Z</time>
      </trkpt>
      <trkpt lat="43.73195" lon="5.69011">
        <ele>409.658</ele>
        <time>2020-09-02T18:36:05Z</time>
      </trkpt>
      <trkpt lat="43.73208" lon="5.69013">
        <ele>409.066</ele>
        <time>2020-09-02T18:36:06Z</time>
      </trkpt>
      <trkpt lat="43.73222" lon="5.69016">
        <ele>407.862</ele>
        <time>2020-09-02T18:36:07Z</time>
      </trkpt>
      <trkpt lat="43.73235" lon="5.69022">
        <ele>407.185</ele>
        <time>2020-09-02T18:36:08Z</time>
      </trkpt>
      <trkpt lat="43.73249" lon="5.69029">
        <ele>406.429</ele>
        <time>2020-09-02T18:36:09Z</time>
      </trkpt>
      <trkpt lat="43.73263" lon="5.69035">
        <ele>406.1</ele>
        <time>2020-09-02T18:36:10Z</time>
      </trkpt>
      <trkpt lat="43.73275" lon="5.6904">
        <ele>404.72</ele>
        <time>2020-09-02T18:36:11Z</time>
      </trkpt>
      <trkpt lat="43.73288" lon="5.69045">
        <ele>404.308</ele>
        <time>2020-09-02T18:36:12Z</time>
      </trkpt>
      <trkpt lat="43.73301" lon="5.69049">
        <ele>403.65</ele>
        <time>2020-09-02T18:36:13Z</time>
      </trkpt>
      <trkpt lat="43.73313" lon="5.69054">
        <ele>403.049</ele>
        <time>2020-09-02T18:36:14Z</time>
      </trkpt>
      <trkpt lat="43.73325" lon="5.69058">
        <ele>402.649</ele>
        <time>2020-09-02T18:36:15Z</time>
      </trkpt>
      <trkpt lat="43.73336" lon="5.69064">
        <ele>402.586</ele>
        <time>2020-09-02T18:36:16Z</time>
      </trkpt>
      <trkpt lat="43.73346" lon="5.69071">
        <ele>402.447</ele>
        <time>2020-09-02T18:36:17Z</time>
      </trkpt>
      <trkpt lat="43.73355" lon="5.69081">
        <ele>402.525</ele>
        <time>2020-09-02T18:36:18Z</time>
      </trkpt>
      <trkpt lat="43.73362" lon="5.69092">
        <ele>402.361</ele>
        <time>2020-09-02T18:36:19Z</time>
      </trkpt>
      <trkpt lat="43.73368" lon="5.69103">
        <ele>402.184</ele>
        <time>2020-09-02T18:36:20Z</time>
      </trkpt>
      <trkpt lat="43.73372" lon="5.69115">
        <ele>401.647</ele>
        <time>2020-09-02T18:36:21Z</time>
      </trkpt>
      <trkpt lat="43.73376" lon="5.69128">
        <ele>401.229</ele>
        <time>2020-09-02T18:36:22Z</time>
      </trkpt>
      <trkpt lat="43.73381" lon="5.6914">
        <ele>400.721</ele>
        <time>2020-09-02T18:36:23Z</time>
      </trkpt>
      <trkpt lat="43.73386" lon="5.69154">
        <ele>400.408</ele>
        <time>2020-09-02T18:36:24Z</time>
      </trkpt>
      <trkpt lat="43.73393" lon="5.69168">
        <ele>400.442</ele>
        <time>2020-09-02T18:36:25Z</time>
      </trkpt>
      <trkpt lat="43.734" lon="5.69181">
        <ele>399.031</ele>
        <time>2020-09-02T18:36:26Z</time>
      </trkpt>
      <trkpt lat="43.73408" lon="5.69192">
        <ele>398.291</ele>
        <time>2020-09-02T18:36:27Z</time>
      </trkpt>
      <trkpt lat="43.73417" lon="5.69202">
        <ele>397.698</ele>
        <time>2020-09-02T18:36:28Z</time>
      </trkpt>
      <trkpt lat="43.73427" lon="5.69212">
        <ele>397.199</ele>
        <time>2020-09-02T18:36:29Z</time>
      </trkpt>
      <trkpt lat="43.73438" lon="5.6922">
        <ele>396.657</ele>
        <time>2020-09-02T18:36:30Z</time>
      </trkpt>
      <trkpt lat="43.73449" lon="5.69228">
        <ele>396.073</ele>
        <time>2020-09-02T18:36:31Z</time>
      </trkpt>
      <trkpt lat="43.73462" lon="5.69233">
        <ele>395.546</ele>
        <time>2020-09-02T18:36:32Z</time>
      </trkpt>
      <trkpt lat="43.73474" lon="5.69233">
        <ele>394.239</ele>
        <time>2020-09-02T18:36:33Z</time>
      </trkpt>
      <trkpt lat="43.73487" lon="5.69231">
        <ele>393.301</ele>
        <time>2020-09-02T18:36:34Z</time>
      </trkpt>
      <trkpt lat="43.73501" lon="5.69228">
        <ele>392.121</ele>
        <time>2020-09-02T18:36:35Z</time>
      </trkpt>
      <trkpt lat="43.73515" lon="5.69226">
        <ele>390.808</ele>
        <time>2020-09-02T18:36:36Z</time>
      </trkpt>
      <trkpt lat="43.73528" lon="5.69225">
        <ele>390.161</ele>
        <time>2020-09-02T18:36:37Z</time>
      </trkpt>
      <trkpt lat="43.7354" lon="5.69222">
        <ele>388.36</ele>
        <time>2020-09-02T18:36:38Z</time>
      </trkpt>
      <trkpt lat="43.7355" lon="5.69218">
        <ele>387.89</ele>
        <time>2020-09-02T18:36:39Z</time>
      </trkpt>
      <trkpt lat="43.73558" lon="5.69211">
        <ele>386.717</ele>
        <time>2020-09-02T18:36:40Z</time>
      </trkpt>
      <trkpt lat="43.73564" lon="5.69199">
        <ele>386.178</ele>
        <time>2020-09-02T18:36:41Z</time>
      </trkpt>
      <trkpt lat="43.73568" lon="5.69185">
        <ele>385.616</ele>
        <time>2020-09-02T18:36:42Z</time>
      </trkpt>
      <trkpt lat="43.7357" lon="5.69169">
        <ele>385.892</ele>
        <time>2020-09-02T18:36:43Z</time>
      </trkpt>
      <trkpt lat="43.73572" lon="5.69152">
        <ele>385.975</ele>
        <time>2020-09-02T18:36:44Z</time>
      </trkpt>
      <trkpt lat="43.73572" lon="5.69134">
        <ele>385.811</ele>
        <time>2020-09-02T18:36:45Z</time>
      </trkpt>
      <trkpt lat="43.73571" lon="5.69115">
        <ele>385.321</ele>
        <time>2020-09-02T18:36:46Z</time>
      </trkpt>
      <trkpt lat="43.73571" lon="5.69095">
        <ele>384.503</ele>
        <time>2020-09-02T18:36:47Z</time>
      </trkpt>
      <trkpt lat="43.73571" lon="5.69077">
        <ele>383.408</ele>
        <time>2020-09-02T18:36:48Z</time>
      </trkpt>
      <trkpt lat="43.73571" lon="5.69059">
        <ele>382.449</ele>
        <time>2020-09-02T18:36:49Z</time>
      </trkpt>
      <trkpt lat="43.73571" lon="5.69042">
        <ele>381.178</ele>
        <time>2020-09-02T18:36:50Z</time>
      </trkpt>
      <trkpt lat="43.73573" lon="5.69027">
        <ele>380.128</ele>
        <time>2020-09-02T18:36:51Z</time>
      </trkpt>
      <trkpt lat="43.73577" lon="5.69014">
        <ele>378.825</ele>
        <time>2020-09-02T18:36:52Z</time>
      </trkpt>
      <trkpt lat="43.73583" lon="5.69005">
        <ele>378.016</ele>
        <time>2020-09-02T18:36:53Z</time>
      </trkpt>
      <trkpt lat="43.73592" lon="5.69002">
        <ele>376.634</ele>
        <time>2020-09-02T18:36:54Z</time>
      </trkpt>
      <trkpt lat="43.73601" lon="5.69003">
        <ele>376.21</ele>
        <time>2020-09-02T18:36:55Z</time>
      </trkpt>
      <trkpt lat="43.73612" lon="5.69004">
        <ele>375.323</ele>
        <time>2020-09-02T18:36:56Z</time>
      </trkpt>
      <trkpt lat="43.73624" lon="5.69008">
        <ele>375.433</ele>
        <time>2020-09-02T18:36:57Z</time>
      </trkpt>
      <trkpt lat="43.73635" lon="5.6901">
        <ele>374.923</ele>
        <time>2020-09-02T18:36:58Z</time>
      </trkpt>
      <trkpt lat="43.73645" lon="5.69013">
        <ele>374.515</ele>
        <time>2020-09-02T18:36:59Z</time>
      </trkpt>
      <trkpt lat="43.73655" lon="5.69017">
        <ele>374.008</ele>
        <time>2020-09-02T18:37:00Z</time>
      </trkpt>
      <trkpt lat="43.73666" lon="5.6902">
        <ele>373.741</ele>
        <time>2020-09-02T18:37:01Z</time>
      </trkpt>
      <trkpt lat="43.73675" lon="5.69021">
        <ele>373.48</ele>
        <time>2020-09-02T18:37:02Z</time>
      </trkpt>
      <trkpt lat="43.73685" lon="5.69024">
        <ele>373.08</ele>
        <time>2020-09-02T18:37:03Z</time>
      </trkpt>
      <trkpt lat="43.73693" lon="5.69026">
        <ele>372.487</ele>
        <time>2020-09-02T18:37:04Z</time>
      </trkpt>
      <trkpt lat="43.737" lon="5.69027">
        <ele>371.788</ele>
        <time>2020-09-02T18:37:05Z</time>
      </trkpt>
      <trkpt lat="43.73706" lon="5.69028">
        <ele>371.526</ele>
        <time>2020-09-02T18:37:07Z</time>
      </trkpt>
      <trkpt lat="43.73708" lon="5.69022">
        <ele>371.072</ele>
        <time>2020-09-02T18:37:09Z</time>
      </trkpt>
      <trkpt lat="43.7371" lon="5.69009">
        <ele>371.585</ele>
        <time>2020-09-02T18:37:11Z</time>
      </trkpt>
      <trkpt lat="43.7371" lon="5.69002">
        <ele>371.573</ele>
        <time>2020-09-02T18:37:12Z</time>
      </trkpt>
      <trkpt lat="43.7371" lon="5.68995">
        <ele>371.685</ele>
        <time>2020-09-02T18:37:13Z</time>
      </trkpt>
      <trkpt lat="43.7371" lon="5.68986">
        <ele>371.713</ele>
        <time>2020-09-02T18:37:14Z</time>
      </trkpt>
      <trkpt lat="43.73712" lon="5.6898">
        <ele>371.608</ele>
        <time>2020-09-02T18:37:15Z</time>
      </trkpt>
      <trkpt lat="43.73712" lon="5.68971">
        <ele>371.565</ele>
        <time>2020-09-02T18:37:16Z</time>
      </trkpt>
      <trkpt lat="43.73713" lon="5.6896">
        <ele>371.714</ele>
        <time>2020-09-02T18:37:17Z</time>
      </trkpt>
      <trkpt lat="43.73714" lon="5.68946">
        <ele>371.594</ele>
        <time>2020-09-02T18:37:18Z</time>
      </trkpt>
      <trkpt lat="43.73715" lon="5.68936">
        <ele>371.221</ele>
        <time>2020-09-02T18:37:19Z</time>
      </trkpt>
      <trkpt lat="43.73716" lon="5.68923">
        <ele>371.392</ele>
        <time>2020-09-02T18:37:20Z</time>
      </trkpt>
      <trkpt lat="43.73717" lon="5.6891">
        <ele>371.19</ele>
        <time>2020-09-02T18:37:21Z</time>
      </trkpt>
      <trkpt lat="43.73718" lon="5.68899">
        <ele>370.556</ele>
        <time>2020-09-02T18:37:22Z</time>
      </trkpt>
      <trkpt lat="43.7372" lon="5.68887">
        <ele>370.359</ele>
        <time>2020-09-02T18:37:23Z</time>
      </trkpt>
      <trkpt lat="43.73721" lon="5.68873">
        <ele>369.268</ele>
        <time>2020-09-02T18:37:24Z</time>
      </trkpt>
      <trkpt lat="43.73722" lon="5.68861">
        <ele>368.242</ele>
        <time>2020-09-02T18:37:25Z</time>
      </trkpt>
      <trkpt lat="43.73724" lon="5.68848">
        <ele>367.626</ele>
        <time>2020-09-02T18:37:26Z</time>
      </trkpt>
      <trkpt lat="43.73726" lon="5.68834">
        <ele>367.008</ele>
        <time>2020-09-02T18:37:27Z</time>
      </trkpt>
      <trkpt lat="43.73729" lon="5.68819">
        <ele>365.834</ele>
        <time>2020-09-02T18:37:28Z</time>
      </trkpt>
      <trkpt lat="43.7373" lon="5.68805">
        <ele>365.513</ele>
        <time>2020-09-02T18:37:29Z</time>
      </trkpt>
      <trkpt lat="43.73733" lon="5.68793">
        <ele>364.263</ele>
        <time>2020-09-02T18:37:30Z</time>
      </trkpt>
      <trkpt lat="43.73739" lon="5.68782">
        <ele>363.79</ele>
        <time>2020-09-02T18:37:31Z</time>
      </trkpt>
      <trkpt lat="43.73745" lon="5.68774">
        <ele>363.041</ele>
        <time>2020-09-02T18:37:32Z</time>
      </trkpt>
      <trkpt lat="43.73752" lon="5.68765">
        <ele>362.389</ele>
        <time>2020-09-02T18:37:33Z</time>
      </trkpt>
      <trkpt lat="43.73759" lon="5.68757">
        <ele>361.965</ele>
        <time>2020-09-02T18:37:34Z</time>
      </trkpt>
      <trkpt lat="43.73771" lon="5.68752">
        <ele>360.728</ele>
        <time>2020-09-02T18:37:35Z</time>
      </trkpt>
      <trkpt lat="43.73779" lon="5.68748">
        <ele>360.552</ele>
        <time>2020-09-02T18:37:36Z</time>
      </trkpt>
      <trkpt lat="43.73789" lon="5.68746">
        <ele>359.853</ele>
        <time>2020-09-02T18:37:37Z</time>
      </trkpt>
      <trkpt lat="43.73796" lon="5.68746">
        <ele>359.608</ele>
        <time>2020-09-02T18:37:38Z</time>
      </trkpt>
      <trkpt lat="43.73805" lon="5.68748">
        <ele>359.308</ele>
        <time>2020-09-02T18:37:39Z</time>
      </trkpt>
      <trkpt lat="43.73814" lon="5.68747">
        <ele>359.293</ele>
        <time>2020-09-02T18:37:40Z</time>
      </trkpt>
      <trkpt lat="43.73826" lon="5.68746">
        <ele>358.252</ele>
        <time>2020-09-02T18:37:41Z</time>
      </trkpt>
      <trkpt lat="43.73838" lon="5.68749">
        <ele>357.042</ele>
        <time>2020-09-02T18:37:42Z</time>
      </trkpt>
      <trkpt lat="43.73847" lon="5.68753">
        <ele>356.959</ele>
        <time>2020-09-02T18:37:43Z</time>
      </trkpt>
      <trkpt lat="43.7386" lon="5.68754">
        <ele>356.89</ele>
        <time>2020-09-02T18:37:44Z</time>
      </trkpt>
      <trkpt lat="43.73872" lon="5.68756">
        <ele>356.768</ele>
        <time>2020-09-02T18:37:45Z</time>
      </trkpt>
      <trkpt lat="43.73885" lon="5.68759">
        <ele>356.774</ele>
        <time>2020-09-02T18:37:46Z</time>
      </trkpt>
      <trkpt lat="43.73896" lon="5.6876">
        <ele>356.747</ele>
        <time>2020-09-02T18:37:47Z</time>
      </trkpt>
      <trkpt lat="43.73908" lon="5.68763">
        <ele>356.443</ele>
        <time>2020-09-02T18:37:48Z</time>
      </trkpt>
      <trkpt lat="43.73919" lon="5.68768">
        <ele>356.864</ele>
        <time>2020-09-02T18:37:49Z</time>
      </trkpt>
      <trkpt lat="43.73928" lon="5.68768">
        <ele>356.61</ele>
        <time>2020-09-02T18:37:50Z</time>
      </trkpt>
      <trkpt lat="43.73938" lon="5.68768">
        <ele>356.208</ele>
        <time>2020-09-02T18:37:51Z</time>
      </trkpt>
      <trkpt lat="43.73946" lon="5.68766">
        <ele>355.972</ele>
        <time>2020-09-02T18:37:52Z</time>
      </trkpt>
      <trkpt lat="43.73955" lon="5.68764">
        <ele>356.051</ele>
        <time>2020-09-02T18:37:53Z</time>
      </trkpt>
      <trkpt lat="43.73961" lon="5.68763">
        <ele>355.981</ele>
        <time>2020-09-02T18:37:54Z</time>
      </trkpt>
      <trkpt lat="43.73966" lon="5.68763">
        <ele>355.738</ele>
        <time>2020-09-02T18:37:55Z</time>
      </trkpt>
      <trkpt lat="43.73971" lon="5.68762">
        <ele>356.129</ele>
        <time>2020-09-02T18:37:56Z</time>
      </trkpt>
      <trkpt lat="43.73975" lon="5.68759">
        <ele>356.447</ele>
        <time>2020-09-02T18:37:57Z</time>
      </trkpt>
      <trkpt lat="43.73979" lon="5.68752">
        <ele>355.573</ele>
        <time>2020-09-02T18:37:59Z</time>
      </trkpt>
      <trkpt lat="43.7398" lon="5.68746">
        <ele>356.236</ele>
        <time>2020-09-02T18:38:00Z</time>
      </trkpt>
      <trkpt lat="43.73982" lon="5.68738">
        <ele>356.798</ele>
        <time>2020-09-02T18:38:01Z</time>
      </trkpt>
      <trkpt lat="43.73983" lon="5.68728">
        <ele>357.315</ele>
        <time>2020-09-02T18:38:02Z</time>
      </trkpt>
      <trkpt lat="43.73986" lon="5.68716">
        <ele>357.826</ele>
        <time>2020-09-02T18:38:03Z</time>
      </trkpt>
      <trkpt lat="43.73988" lon="5.68705">
        <ele>358.308</ele>
        <time>2020-09-02T18:38:04Z</time>
      </trkpt>
      <trkpt lat="43.73991" lon="5.68692">
        <ele>358.387</ele>
        <time>2020-09-02T18:38:05Z</time>
      </trkpt>
      <trkpt lat="43.73992" lon="5.6868">
        <ele>358.756</ele>
        <time>2020-09-02T18:38:06Z</time>
      </trkpt>
      <trkpt lat="43.73993" lon="5.68668">
        <ele>359.196</ele>
        <time>2020-09-02T18:38:07Z</time>
      </trkpt>
      <trkpt lat="43.73992" lon="5.68655">
        <ele>359.683</ele>
        <time>2020-09-02T18:38:08Z</time>
      </trkpt>
      <trkpt lat="43.7399" lon="5.68642">
        <ele>360.024</ele>
        <time>2020-09-02T18:38:09Z</time>
      </trkpt>
      <trkpt lat="43.73988" lon="5.68628">
        <ele>360.962</ele>
        <time>2020-09-02T18:38:10Z</time>
      </trkpt>
      <trkpt lat="43.73985" lon="5.68611">
        <ele>361.678</ele>
        <time>2020-09-02T18:38:11Z</time>
      </trkpt>
      <trkpt lat="43.73982" lon="5.68595">
        <ele>362.851</ele>
        <time>2020-09-02T18:38:12Z</time>
      </trkpt>
      <trkpt lat="43.73979" lon="5.68579">
        <ele>364.374</ele>
        <time>2020-09-02T18:38:13Z</time>
      </trkpt>
      <trkpt lat="43.73976" lon="5.68565">
        <ele>365.156</ele>
        <time>2020-09-02T18:38:14Z</time>
      </trkpt>
      <trkpt lat="43.73972" lon="5.6855">
        <ele>366.021</ele>
        <time>2020-09-02T18:38:15Z</time>
      </trkpt>
      <trkpt lat="43.73968" lon="5.6853">
        <ele>367.008</ele>
        <time>2020-09-02T18:38:16Z</time>
      </trkpt>
      <trkpt lat="43.73965" lon="5.68514">
        <ele>367.995</ele>
        <time>2020-09-02T18:38:17Z</time>
      </trkpt>
      <trkpt lat="43.73962" lon="5.68502">
        <ele>368.444</ele>
        <time>2020-09-02T18:38:18Z</time>
      </trkpt>
      <trkpt lat="43.73964" lon="5.68491">
        <ele>369.514</ele>
        <time>2020-09-02T18:38:19Z</time>
      </trkpt>
      <trkpt lat="43.73966" lon="5.68479">
        <ele>369.371</ele>
        <time>2020-09-02T18:38:20Z</time>
      </trkpt>
      <trkpt lat="43.7397" lon="5.68468">
        <ele>369.712</ele>
        <time>2020-09-02T18:38:21Z</time>
      </trkpt>
      <trkpt lat="43.73975" lon="5.68454">
        <ele>370.62</ele>
        <time>2020-09-02T18:38:22Z</time>
      </trkpt>
      <trkpt lat="43.7398" lon="5.68441">
        <ele>371.156</ele>
        <time>2020-09-02T18:38:23Z</time>
      </trkpt>
      <trkpt lat="43.73986" lon="5.68427">
        <ele>372.129</ele>
        <time>2020-09-02T18:38:24Z</time>
      </trkpt>
      <trkpt lat="43.73992" lon="5.68412">
        <ele>373.143</ele>
        <time>2020-09-02T18:38:25Z</time>
      </trkpt>
      <trkpt lat="43.73997" lon="5.68398">
        <ele>374.664</ele>
        <time>2020-09-02T18:38:26Z</time>
      </trkpt>
      <trkpt lat="43.74003" lon="5.68382">
        <ele>375.51</ele>
        <time>2020-09-02T18:38:27Z</time>
      </trkpt>
      <trkpt lat="43.74004" lon="5.68367">
        <ele>376.308</ele>
        <time>2020-09-02T18:38:28Z</time>
      </trkpt>
      <trkpt lat="43.74006" lon="5.68349">
        <ele>379.182</ele>
        <time>2020-09-02T18:38:29Z</time>
      </trkpt>
      <trkpt lat="43.74008" lon="5.68332">
        <ele>380.251</ele>
        <time>2020-09-02T18:38:30Z</time>
      </trkpt>
      <trkpt lat="43.74011" lon="5.68314">
        <ele>380.811</ele>
        <time>2020-09-02T18:38:31Z</time>
      </trkpt>
      <trkpt lat="43.74014" lon="5.68296">
        <ele>381.398</ele>
        <time>2020-09-02T18:38:32Z</time>
      </trkpt>
      <trkpt lat="43.74018" lon="5.6828">
        <ele>382.199</ele>
        <time>2020-09-02T18:38:33Z</time>
      </trkpt>
      <trkpt lat="43.74023" lon="5.68263">
        <ele>383.257</ele>
        <time>2020-09-02T18:38:34Z</time>
      </trkpt>
      <trkpt lat="43.74029" lon="5.68246">
        <ele>383.843</ele>
        <time>2020-09-02T18:38:35Z</time>
      </trkpt>
      <trkpt lat="43.74035" lon="5.68229">
        <ele>384.436</ele>
        <time>2020-09-02T18:38:36Z</time>
      </trkpt>
      <trkpt lat="43.74042" lon="5.68214">
        <ele>385.077</ele>
        <time>2020-09-02T18:38:37Z</time>
      </trkpt>
      <trkpt lat="43.7405" lon="5.682">
        <ele>385.461</ele>
        <time>2020-09-02T18:38:38Z</time>
      </trkpt>
      <trkpt lat="43.74059" lon="5.68188">
        <ele>385.827</ele>
        <time>2020-09-02T18:38:39Z</time>
      </trkpt>
      <trkpt lat="43.74068" lon="5.68177">
        <ele>386.408</ele>
        <time>2020-09-02T18:38:40Z</time>
      </trkpt>
      <trkpt lat="43.74077" lon="5.68168">
        <ele>387.595</ele>
        <time>2020-09-02T18:38:41Z</time>
      </trkpt>
      <trkpt lat="43.74085" lon="5.68157">
        <ele>388.594</ele>
        <time>2020-09-02T18:38:42Z</time>
      </trkpt>
      <trkpt lat="43.7409" lon="5.68145">
        <ele>388.924</ele>
        <time>2020-09-02T18:38:43Z</time>
      </trkpt>
      <trkpt lat="43.74092" lon="5.68132">
        <ele>388.531</ele>
        <time>2020-09-02T18:38:44Z</time>
      </trkpt>
      <trkpt lat="43.74091" lon="5.68118">
        <ele>388.372</ele>
        <time>2020-09-02T18:38:45Z</time>
      </trkpt>
      <trkpt lat="43.74088" lon="5.68102">
        <ele>388.09</ele>
        <time>2020-09-02T18:38:46Z</time>
      </trkpt>
      <trkpt lat="43.74084" lon="5.68086">
        <ele>387.886</ele>
        <time>2020-09-02T18:38:47Z</time>
      </trkpt>
      <trkpt lat="43.74083" lon="5.68066">
        <ele>387.739</ele>
        <time>2020-09-02T18:38:48Z</time>
      </trkpt>
      <trkpt lat="43.74085" lon="5.68046">
        <ele>387.726</ele>
        <time>2020-09-02T18:38:49Z</time>
      </trkpt>
      <trkpt lat="43.74089" lon="5.68028">
        <ele>388.047</ele>
        <time>2020-09-02T18:38:50Z</time>
      </trkpt>
      <trkpt lat="43.74092" lon="5.68008">
        <ele>387.811</ele>
        <time>2020-09-02T18:38:51Z</time>
      </trkpt>
      <trkpt lat="43.74096" lon="5.67987">
        <ele>388.508</ele>
        <time>2020-09-02T18:38:52Z</time>
      </trkpt>
      <trkpt lat="43.74099" lon="5.67967">
        <ele>389.05</ele>
        <time>2020-09-02T18:38:53Z</time>
      </trkpt>
      <trkpt lat="43.74104" lon="5.67949">
        <ele>390.119</ele>
        <time>2020-09-02T18:38:54Z</time>
      </trkpt>
      <trkpt lat="43.74108" lon="5.67929">
        <ele>391.739</ele>
        <time>2020-09-02T18:38:55Z</time>
      </trkpt>
      <trkpt lat="43.74115" lon="5.6791">
        <ele>393.916</ele>
        <time>2020-09-02T18:38:56Z</time>
      </trkpt>
      <trkpt lat="43.74122" lon="5.67892">
        <ele>395.687</ele>
        <time>2020-09-02T18:38:57Z</time>
      </trkpt>
      <trkpt lat="43.74128" lon="5.67874">
        <ele>397.415</ele>
        <time>2020-09-02T18:38:58Z</time>
      </trkpt>
      <trkpt lat="43.74132" lon="5.67857">
        <ele>398.621</ele>
        <time>2020-09-02T18:38:59Z</time>
      </trkpt>
      <trkpt lat="43.74136" lon="5.67838">
        <ele>400.174</ele>
        <time>2020-09-02T18:39:00Z</time>
      </trkpt>
      <trkpt lat="43.7414" lon="5.6782">
        <ele>401.565</ele>
        <time>2020-09-02T18:39:01Z</time>
      </trkpt>
      <trkpt lat="43.74146" lon="5.67802">
        <ele>402.468</ele>
        <time>2020-09-02T18:39:02Z</time>
      </trkpt>
      <trkpt lat="43.74155" lon="5.67787">
        <ele>404.114</ele>
        <time>2020-09-02T18:39:03Z</time>
      </trkpt>
      <trkpt lat="43.7416" lon="5.6777">
        <ele>404.408</ele>
        <time>2020-09-02T18:39:04Z</time>
      </trkpt>
      <trkpt lat="43.74167" lon="5.67754">
        <ele>403.914</ele>
        <time>2020-09-02T18:39:05Z</time>
      </trkpt>
      <trkpt lat="43.74175" lon="5.67738">
        <ele>403.413</ele>
        <time>2020-09-02T18:39:06Z</time>
      </trkpt>
      <trkpt lat="43.74186" lon="5.67724">
        <ele>402.453</ele>
        <time>2020-09-02T18:39:07Z</time>
      </trkpt>
      <trkpt lat="43.74196" lon="5.67708">
        <ele>401.93</ele>
        <time>2020-09-02T18:39:08Z</time>
      </trkpt>
      <trkpt lat="43.74207" lon="5.67693">
        <ele>401.031</ele>
        <time>2020-09-02T18:39:09Z</time>
      </trkpt>
      <trkpt lat="43.7422" lon="5.67678">
        <ele>399.889</ele>
        <time>2020-09-02T18:39:10Z</time>
      </trkpt>
      <trkpt lat="43.74232" lon="5.67661">
        <ele>399.415</ele>
        <time>2020-09-02T18:39:11Z</time>
      </trkpt>
      <trkpt lat="43.74245" lon="5.67644">
        <ele>399.028</ele>
        <time>2020-09-02T18:39:12Z</time>
      </trkpt>
      <trkpt lat="43.74256" lon="5.67626">
        <ele>398.939</ele>
        <time>2020-09-02T18:39:13Z</time>
      </trkpt>
      <trkpt lat="43.74266" lon="5.67608">
        <ele>399.101</ele>
        <time>2020-09-02T18:39:14Z</time>
      </trkpt>
      <trkpt lat="43.74276" lon="5.67589">
        <ele>399.421</ele>
        <time>2020-09-02T18:39:15Z</time>
      </trkpt>
      <trkpt lat="43.74286" lon="5.67573">
        <ele>401.208</ele>
        <time>2020-09-02T18:39:16Z</time>
      </trkpt>
      <trkpt lat="43.74295" lon="5.6756">
        <ele>402.511</ele>
        <time>2020-09-02T18:39:17Z</time>
      </trkpt>
      <trkpt lat="43.74302" lon="5.67547">
        <ele>403.63</ele>
        <time>2020-09-02T18:39:18Z</time>
      </trkpt>
      <trkpt lat="43.74304" lon="5.67535">
        <ele>404.61</ele>
        <time>2020-09-02T18:39:19Z</time>
      </trkpt>
      <trkpt lat="43.74302" lon="5.67524">
        <ele>405.217</ele>
        <time>2020-09-02T18:39:20Z</time>
      </trkpt>
      <trkpt lat="43.743" lon="5.67512">
        <ele>406.228</ele>
        <time>2020-09-02T18:39:21Z</time>
      </trkpt>
      <trkpt lat="43.74299" lon="5.675">
        <ele>407.126</ele>
        <time>2020-09-02T18:39:22Z</time>
      </trkpt>
      <trkpt lat="43.743" lon="5.67486">
        <ele>407.152</ele>
        <time>2020-09-02T18:39:23Z</time>
      </trkpt>
      <trkpt lat="43.74301" lon="5.67472">
        <ele>408.135</ele>
        <time>2020-09-02T18:39:24Z</time>
      </trkpt>
      <trkpt lat="43.74304" lon="5.67457">
        <ele>409.519</ele>
        <time>2020-09-02T18:39:25Z</time>
      </trkpt>
      <trkpt lat="43.74311" lon="5.67448">
        <ele>409.809</ele>
        <time>2020-09-02T18:39:26Z</time>
      </trkpt>
      <trkpt lat="43.74312" lon="5.67435">
        <ele>413.519</ele>
        <time>2020-09-02T18:39:27Z</time>
      </trkpt>
      <trkpt lat="43.74312" lon="5.67421">
        <ele>415.508</ele>
        <time>2020-09-02T18:39:28Z</time>
      </trkpt>
      <trkpt lat="43.7431" lon="5.67406">
        <ele>416.559</ele>
        <time>2020-09-02T18:39:29Z</time>
      </trkpt>
      <trkpt lat="43.74309" lon="5.67392">
        <ele>418.528</ele>
        <time>2020-09-02T18:39:30Z</time>
      </trkpt>
      <trkpt lat="43.74308" lon="5.67377">
        <ele>419.988</ele>
        <time>2020-09-02T18:39:31Z</time>
      </trkpt>
      <trkpt lat="43.74307" lon="5.67362">
        <ele>421.815</ele>
        <time>2020-09-02T18:39:32Z</time>
      </trkpt>
      <trkpt lat="43.74307" lon="5.67346">
        <ele>423.416</ele>
        <time>2020-09-02T18:39:33Z</time>
      </trkpt>
      <trkpt lat="43.74308" lon="5.67331">
        <ele>424.724</ele>
        <time>2020-09-02T18:39:34Z</time>
      </trkpt>
      <trkpt lat="43.74311" lon="5.67316">
        <ele>426.04</ele>
        <time>2020-09-02T18:39:35Z</time>
      </trkpt>
      <trkpt lat="43.74313" lon="5.673">
        <ele>428.183</ele>
        <time>2020-09-02T18:39:36Z</time>
      </trkpt>
      <trkpt lat="43.74314" lon="5.67285">
        <ele>430.062</ele>
        <time>2020-09-02T18:39:37Z</time>
      </trkpt>
      <trkpt lat="43.74314" lon="5.67269">
        <ele>430.983</ele>
        <time>2020-09-02T18:39:38Z</time>
      </trkpt>
      <trkpt lat="43.74314" lon="5.67256">
        <ele>432.311</ele>
        <time>2020-09-02T18:39:39Z</time>
      </trkpt>
      <trkpt lat="43.74316" lon="5.67242">
        <ele>433.808</ele>
        <time>2020-09-02T18:39:40Z</time>
      </trkpt>
      <trkpt lat="43.74319" lon="5.67229">
        <ele>434.734</ele>
        <time>2020-09-02T18:39:41Z</time>
      </trkpt>
      <trkpt lat="43.74321" lon="5.67217">
        <ele>436.343</ele>
        <time>2020-09-02T18:39:42Z</time>
      </trkpt>
      <trkpt lat="43.74323" lon="5.67203">
        <ele>437.433</ele>
        <time>2020-09-02T18:39:43Z</time>
      </trkpt>
      <trkpt lat="43.74326" lon="5.6719">
        <ele>438.38</ele>
        <time>2020-09-02T18:39:44Z</time>
      </trkpt>
      <trkpt lat="43.74329" lon="5.67176">
        <ele>439.171</ele>
        <time>2020-09-02T18:39:45Z</time>
      </trkpt>
      <trkpt lat="43.74335" lon="5.67167">
        <ele>440.179</ele>
        <time>2020-09-02T18:39:46Z</time>
      </trkpt>
      <trkpt lat="43.74345" lon="5.67169">
        <ele>441.195</ele>
        <time>2020-09-02T18:39:47Z</time>
      </trkpt>
      <trkpt lat="43.74354" lon="5.67167">
        <ele>441.768</ele>
        <time>2020-09-02T18:39:48Z</time>
      </trkpt>
      <trkpt lat="43.74362" lon="5.6717">
        <ele>442.413</ele>
        <time>2020-09-02T18:39:49Z</time>
      </trkpt>
      <trkpt lat="43.74373" lon="5.67173">
        <ele>443.043</ele>
        <time>2020-09-02T18:39:50Z</time>
      </trkpt>
      <trkpt lat="43.74383" lon="5.67172">
        <ele>443.307</ele>
        <time>2020-09-02T18:39:51Z</time>
      </trkpt>
      <trkpt lat="43.7439" lon="5.67166">
        <ele>444.408</ele>
        <time>2020-09-02T18:39:52Z</time>
      </trkpt>
      <trkpt lat="43.74395" lon="5.67158">
        <ele>445.279</ele>
        <time>2020-09-02T18:39:53Z</time>
      </trkpt>
      <trkpt lat="43.74398" lon="5.67146">
        <ele>446.738</ele>
        <time>2020-09-02T18:39:54Z</time>
      </trkpt>
      <trkpt lat="43.74399" lon="5.67134">
        <ele>447.938</ele>
        <time>2020-09-02T18:39:55Z</time>
      </trkpt>
      <trkpt lat="43.74398" lon="5.67122">
        <ele>449.195</ele>
        <time>2020-09-02T18:39:56Z</time>
      </trkpt>
      <trkpt lat="43.74397" lon="5.67109">
        <ele>450.296</ele>
        <time>2020-09-02T18:39:57Z</time>
      </trkpt>
      <trkpt lat="43.74396" lon="5.67094">
        <ele>452.024</ele>
        <time>2020-09-02T18:39:58Z</time>
      </trkpt>
      <trkpt lat="43.74393" lon="5.67079">
        <ele>453.75</ele>
        <time>2020-09-02T18:39:59Z</time>
      </trkpt>
      <trkpt lat="43.74389" lon="5.67065">
        <ele>455.263</ele>
        <time>2020-09-02T18:40:00Z</time>
      </trkpt>
      <trkpt lat="43.74385" lon="5.67051">
        <ele>456.565</ele>
        <time>2020-09-02T18:40:01Z</time>
      </trkpt>
      <trkpt lat="43.74381" lon="5.67038">
        <ele>458.468</ele>
        <time>2020-09-02T18:40:02Z</time>
      </trkpt>
      <trkpt lat="43.7438" lon="5.67025">
        <ele>459.414</ele>
        <time>2020-09-02T18:40:03Z</time>
      </trkpt>
      <trkpt lat="43.74379" lon="5.67012">
        <ele>460.808</ele>
        <time>2020-09-02T18:40:04Z</time>
      </trkpt>
      <trkpt lat="43.74379" lon="5.66997">
        <ele>461.694</ele>
        <time>2020-09-02T18:40:05Z</time>
      </trkpt>
      <trkpt lat="43.74379" lon="5.66982">
        <ele>463.343</ele>
        <time>2020-09-02T18:40:06Z</time>
      </trkpt>
      <trkpt lat="43.74379" lon="5.66967">
        <ele>464.933</ele>
        <time>2020-09-02T18:40:07Z</time>
      </trkpt>
      <trkpt lat="43.74379" lon="5.6695">
        <ele>466.19</ele>
        <time>2020-09-02T18:40:08Z</time>
      </trkpt>
      <trkpt lat="43.74377" lon="5.66933">
        <ele>467.541</ele>
        <time>2020-09-02T18:40:09Z</time>
      </trkpt>
      <trkpt lat="43.74374" lon="5.66917">
        <ele>468.699</ele>
        <time>2020-09-02T18:40:10Z</time>
      </trkpt>
      <trkpt lat="43.74371" lon="5.669">
        <ele>469.835</ele>
        <time>2020-09-02T18:40:11Z</time>
      </trkpt>
      <trkpt lat="43.74366" lon="5.66884">
        <ele>471.388</ele>
        <time>2020-09-02T18:40:12Z</time>
      </trkpt>
      <trkpt lat="43.74362" lon="5.66868">
        <ele>472.732</ele>
        <time>2020-09-02T18:40:13Z</time>
      </trkpt>
      <trkpt lat="43.74359" lon="5.6685">
        <ele>474.092</ele>
        <time>2020-09-02T18:40:14Z</time>
      </trkpt>
      <trkpt lat="43.74356" lon="5.66833">
        <ele>475.111</ele>
        <time>2020-09-02T18:40:15Z</time>
      </trkpt>
      <trkpt lat="43.74354" lon="5.66817">
        <ele>476.908</ele>
        <time>2020-09-02T18:40:16Z</time>
      </trkpt>
      <trkpt lat="43.7435" lon="5.66802">
        <ele>478.491</ele>
        <time>2020-09-02T18:40:17Z</time>
      </trkpt>
      <trkpt lat="43.74344" lon="5.66787">
        <ele>479.26</ele>
        <time>2020-09-02T18:40:18Z</time>
      </trkpt>
      <trkpt lat="43.74337" lon="5.66773">
        <ele>479.67</ele>
        <time>2020-09-02T18:40:19Z</time>
      </trkpt>
      <trkpt lat="43.74329" lon="5.6676">
        <ele>480.237</ele>
        <time>2020-09-02T18:40:20Z</time>
      </trkpt>
      <trkpt lat="43.7432" lon="5.66748">
        <ele>480.448</ele>
        <time>2020-09-02T18:40:21Z</time>
      </trkpt>
      <trkpt lat="43.74312" lon="5.66735">
        <ele>479.936</ele>
        <time>2020-09-02T18:40:22Z</time>
      </trkpt>
      <trkpt lat="43.74305" lon="5.66721">
        <ele>480.272</ele>
        <time>2020-09-02T18:40:23Z</time>
      </trkpt>
      <trkpt lat="43.74297" lon="5.66708">
        <ele>480.435</ele>
        <time>2020-09-02T18:40:24Z</time>
      </trkpt>
      <trkpt lat="43.74292" lon="5.66692">
        <ele>479.795</ele>
        <time>2020-09-02T18:40:25Z</time>
      </trkpt>
      <trkpt lat="43.74285" lon="5.66678">
        <ele>478.849</ele>
        <time>2020-09-02T18:40:26Z</time>
      </trkpt>
      <trkpt lat="43.7428" lon="5.66664">
        <ele>478.223</ele>
        <time>2020-09-02T18:40:27Z</time>
      </trkpt>
      <trkpt lat="43.74277" lon="5.6665">
        <ele>478.008</ele>
        <time>2020-09-02T18:40:28Z</time>
      </trkpt>
      <trkpt lat="43.74276" lon="5.66636">
        <ele>478.297</ele>
        <time>2020-09-02T18:40:29Z</time>
      </trkpt>
      <trkpt lat="43.74276" lon="5.66621">
        <ele>477.786</ele>
        <time>2020-09-02T18:40:30Z</time>
      </trkpt>
      <trkpt lat="43.74277" lon="5.66605">
        <ele>478.566</ele>
        <time>2020-09-02T18:40:31Z</time>
      </trkpt>
      <trkpt lat="43.74278" lon="5.66588">
        <ele>478.433</ele>
        <time>2020-09-02T18:40:32Z</time>
      </trkpt>
      <trkpt lat="43.7428" lon="5.66572">
        <ele>478.634</ele>
        <time>2020-09-02T18:40:33Z</time>
      </trkpt>
      <trkpt lat="43.74282" lon="5.66555">
        <ele>479.172</ele>
        <time>2020-09-02T18:40:34Z</time>
      </trkpt>
      <trkpt lat="43.74286" lon="5.66539">
        <ele>479.578</ele>
        <time>2020-09-02T18:40:35Z</time>
      </trkpt>
      <trkpt lat="43.74292" lon="5.66523">
        <ele>480.361</ele>
        <time>2020-09-02T18:40:36Z</time>
      </trkpt>
      <trkpt lat="43.74297" lon="5.66506">
        <ele>480.836</ele>
        <time>2020-09-02T18:40:37Z</time>
      </trkpt>
      <trkpt lat="43.743" lon="5.66489">
        <ele>482.917</ele>
        <time>2020-09-02T18:40:38Z</time>
      </trkpt>
      <trkpt lat="43.74303" lon="5.66472">
        <ele>483.918</ele>
        <time>2020-09-02T18:40:39Z</time>
      </trkpt>
      <trkpt lat="43.74306" lon="5.66455">
        <ele>484.908</ele>
        <time>2020-09-02T18:40:40Z</time>
      </trkpt>
      <trkpt lat="43.7431" lon="5.66437">
        <ele>485.511</ele>
        <time>2020-09-02T18:40:41Z</time>
      </trkpt>
      <trkpt lat="43.74313" lon="5.66418">
        <ele>484.99</ele>
        <time>2020-09-02T18:40:42Z</time>
      </trkpt>
      <trkpt lat="43.74316" lon="5.66395">
        <ele>484.33</ele>
        <time>2020-09-02T18:40:43Z</time>
      </trkpt>
      <trkpt lat="43.74319" lon="5.66371">
        <ele>484.727</ele>
        <time>2020-09-02T18:40:44Z</time>
      </trkpt>
      <trkpt lat="43.74323" lon="5.66348">
        <ele>485.528</ele>
        <time>2020-09-02T18:40:45Z</time>
      </trkpt>
      <trkpt lat="43.74324" lon="5.66324">
        <ele>486.476</ele>
        <time>2020-09-02T18:40:46Z</time>
      </trkpt>
      <trkpt lat="43.74326" lon="5.66301">
        <ele>488.252</ele>
        <time>2020-09-02T18:40:47Z</time>
      </trkpt>
      <trkpt lat="43.74327" lon="5.66279">
        <ele>490.185</ele>
        <time>2020-09-02T18:40:48Z</time>
      </trkpt>
      <trkpt lat="43.74328" lon="5.66258">
        <ele>491.172</ele>
        <time>2020-09-02T18:40:49Z</time>
      </trkpt>
      <trkpt lat="43.74327" lon="5.66237">
        <ele>492.813</ele>
        <time>2020-09-02T18:40:50Z</time>
      </trkpt>
      <trkpt lat="43.74325" lon="5.66217">
        <ele>494.614</ele>
        <time>2020-09-02T18:40:51Z</time>
      </trkpt>
      <trkpt lat="43.74324" lon="5.66196">
        <ele>495.608</ele>
        <time>2020-09-02T18:40:52Z</time>
      </trkpt>
      <trkpt lat="43.74323" lon="5.66178">
        <ele>497.125</ele>
        <time>2020-09-02T18:40:53Z</time>
      </trkpt>
      <trkpt lat="43.74324" lon="5.6616">
        <ele>498.334</ele>
        <time>2020-09-02T18:40:54Z</time>
      </trkpt>
      <trkpt lat="43.74328" lon="5.66144">
        <ele>499.514</ele>
        <time>2020-09-02T18:40:55Z</time>
      </trkpt>
      <trkpt lat="43.74334" lon="5.66129">
        <ele>500.541</ele>
        <time>2020-09-02T18:40:56Z</time>
      </trkpt>
      <trkpt lat="43.7434" lon="5.66112">
        <ele>501.632</ele>
        <time>2020-09-02T18:40:57Z</time>
      </trkpt>
      <trkpt lat="43.74345" lon="5.66095">
        <ele>502.18</ele>
        <time>2020-09-02T18:40:58Z</time>
      </trkpt>
      <trkpt lat="43.74349" lon="5.66077">
        <ele>502.956</ele>
        <time>2020-09-02T18:40:59Z</time>
      </trkpt>
      <trkpt lat="43.74352" lon="5.66057">
        <ele>504.179</ele>
        <time>2020-09-02T18:41:00Z</time>
      </trkpt>
      <trkpt lat="43.74357" lon="5.66039">
        <ele>505.243</ele>
        <time>2020-09-02T18:41:01Z</time>
      </trkpt>
      <trkpt lat="43.74362" lon="5.66021">
        <ele>505.864</ele>
        <time>2020-09-02T18:41:02Z</time>
      </trkpt>
      <trkpt lat="43.74369" lon="5.66004">
        <ele>506.51</ele>
        <time>2020-09-02T18:41:03Z</time>
      </trkpt>
      <trkpt lat="43.74377" lon="5.65988">
        <ele>506.308</ele>
        <time>2020-09-02T18:41:04Z</time>
      </trkpt>
      <trkpt lat="43.74387" lon="5.65973">
        <ele>506.772</ele>
        <time>2020-09-02T18:41:05Z</time>
      </trkpt>
      <trkpt lat="43.74396" lon="5.65958">
        <ele>506.441</ele>
        <time>2020-09-02T18:41:06Z</time>
      </trkpt>
      <trkpt lat="43.74404" lon="5.65943">
        <ele>506.291</ele>
        <time>2020-09-02T18:41:07Z</time>
      </trkpt>
      <trkpt lat="43.74412" lon="5.65929">
        <ele>506.158</ele>
        <time>2020-09-02T18:41:08Z</time>
      </trkpt>
      <trkpt lat="43.74418" lon="5.65917">
        <ele>506.059</ele>
        <time>2020-09-02T18:41:09Z</time>
      </trkpt>
      <trkpt lat="43.74423" lon="5.65904">
        <ele>506.347</ele>
        <time>2020-09-02T18:41:10Z</time>
      </trkpt>
      <trkpt lat="43.74426" lon="5.6589">
        <ele>506.853</ele>
        <time>2020-09-02T18:41:11Z</time>
      </trkpt>
      <trkpt lat="43.74427" lon="5.65877">
        <ele>507.016</ele>
        <time>2020-09-02T18:41:12Z</time>
      </trkpt>
      <trkpt lat="43.74426" lon="5.65864">
        <ele>507.177</ele>
        <time>2020-09-02T18:41:13Z</time>
      </trkpt>
      <trkpt lat="43.74425" lon="5.65851">
        <ele>507.161</ele>
        <time>2020-09-02T18:41:14Z</time>
      </trkpt>
      <trkpt lat="43.74425" lon="5.65838">
        <ele>506.727</ele>
        <time>2020-09-02T18:41:15Z</time>
      </trkpt>
      <trkpt lat="43.74425" lon="5.65825">
        <ele>505.708</ele>
        <time>2020-09-02T18:41:16Z</time>
      </trkpt>
      <trkpt lat="43.74427" lon="5.65812">
        <ele>505.275</ele>
        <time>2020-09-02T18:41:17Z</time>
      </trkpt>
      <trkpt lat="43.7443" lon="5.65798">
        <ele>504.554</ele>
        <time>2020-09-02T18:41:18Z</time>
      </trkpt>
      <trkpt lat="43.74433" lon="5.65784">
        <ele>503.834</ele>
        <time>2020-09-02T18:41:19Z</time>
      </trkpt>
      <trkpt lat="43.74439" lon="5.6577">
        <ele>503.361</ele>
        <time>2020-09-02T18:41:20Z</time>
      </trkpt>
      <trkpt lat="43.74445" lon="5.65755">
        <ele>503.262</ele>
        <time>2020-09-02T18:41:21Z</time>
      </trkpt>
      <trkpt lat="43.74452" lon="5.65741">
        <ele>502.91</ele>
        <time>2020-09-02T18:41:22Z</time>
      </trkpt>
      <trkpt lat="43.74458" lon="5.65728">
        <ele>502.486</ele>
        <time>2020-09-02T18:41:23Z</time>
      </trkpt>
      <trkpt lat="43.74463" lon="5.65714">
        <ele>501.799</ele>
        <time>2020-09-02T18:41:24Z</time>
      </trkpt>
      <trkpt lat="43.74465" lon="5.65697">
        <ele>501.496</ele>
        <time>2020-09-02T18:41:25Z</time>
      </trkpt>
      <trkpt lat="43.74465" lon="5.6568">
        <ele>500.931</ele>
        <time>2020-09-02T18:41:26Z</time>
      </trkpt>
      <trkpt lat="43.74466" lon="5.65662">
        <ele>500.824</ele>
        <time>2020-09-02T18:41:27Z</time>
      </trkpt>
      <trkpt lat="43.74468" lon="5.65645">
        <ele>500.608</ele>
        <time>2020-09-02T18:41:28Z</time>
      </trkpt>
      <trkpt lat="43.74473" lon="5.65629">
        <ele>501.267</ele>
        <time>2020-09-02T18:41:29Z</time>
      </trkpt>
      <trkpt lat="43.74476" lon="5.65614">
        <ele>501.276</ele>
        <time>2020-09-02T18:41:30Z</time>
      </trkpt>
      <trkpt lat="43.7448" lon="5.65598">
        <ele>502.246</ele>
        <time>2020-09-02T18:41:31Z</time>
      </trkpt>
      <trkpt lat="43.74484" lon="5.65582">
        <ele>502.653</ele>
        <time>2020-09-02T18:41:32Z</time>
      </trkpt>
      <trkpt lat="43.74488" lon="5.65566">
        <ele>503.484</ele>
        <time>2020-09-02T18:41:33Z</time>
      </trkpt>
      <trkpt lat="43.74492" lon="5.65551">
        <ele>503.922</ele>
        <time>2020-09-02T18:41:34Z</time>
      </trkpt>
      <trkpt lat="43.74495" lon="5.65533">
        <ele>504.668</ele>
        <time>2020-09-02T18:41:35Z</time>
      </trkpt>
      <trkpt lat="43.74498" lon="5.65515">
        <ele>505.261</ele>
        <time>2020-09-02T18:41:36Z</time>
      </trkpt>
      <trkpt lat="43.745" lon="5.65496">
        <ele>505.678</ele>
        <time>2020-09-02T18:41:37Z</time>
      </trkpt>
      <trkpt lat="43.74503" lon="5.65476">
        <ele>504.233</ele>
        <time>2020-09-02T18:41:38Z</time>
      </trkpt>
      <trkpt lat="43.74507" lon="5.65457">
        <ele>504.026</ele>
        <time>2020-09-02T18:41:39Z</time>
      </trkpt>
      <trkpt lat="43.74511" lon="5.65439">
        <ele>503.708</ele>
        <time>2020-09-02T18:41:40Z</time>
      </trkpt>
      <trkpt lat="43.74514" lon="5.65422">
        <ele>503.955</ele>
        <time>2020-09-02T18:41:41Z</time>
      </trkpt>
      <trkpt lat="43.74515" lon="5.65403">
        <ele>504.074</ele>
        <time>2020-09-02T18:41:42Z</time>
      </trkpt>
      <trkpt lat="43.74515" lon="5.65385">
        <ele>503.484</ele>
        <time>2020-09-02T18:41:43Z</time>
      </trkpt>
      <trkpt lat="43.74516" lon="5.65367">
        <ele>503.361</ele>
        <time>2020-09-02T18:41:44Z</time>
      </trkpt>
      <trkpt lat="43.74517" lon="5.6535">
        <ele>503.092</ele>
        <time>2020-09-02T18:41:45Z</time>
      </trkpt>
      <trkpt lat="43.74517" lon="5.65333">
        <ele>502.51</ele>
        <time>2020-09-02T18:41:46Z</time>
      </trkpt>
      <trkpt lat="43.74515" lon="5.65315">
        <ele>502.566</ele>
        <time>2020-09-02T18:41:47Z</time>
      </trkpt>
      <trkpt lat="43.74511" lon="5.65298">
        <ele>502.349</ele>
        <time>2020-09-02T18:41:48Z</time>
      </trkpt>
      <trkpt lat="43.74507" lon="5.65282">
        <ele>502.041</ele>
        <time>2020-09-02T18:41:49Z</time>
      </trkpt>
      <trkpt lat="43.74502" lon="5.65266">
        <ele>502.081</ele>
        <time>2020-09-02T18:41:50Z</time>
      </trkpt>
      <trkpt lat="43.74495" lon="5.65252">
        <ele>502.409</ele>
        <time>2020-09-02T18:41:51Z</time>
      </trkpt>
      <trkpt lat="43.74485" lon="5.65247">
        <ele>502.008</ele>
        <time>2020-09-02T18:41:52Z</time>
      </trkpt>
      <trkpt lat="43.74474" lon="5.65241">
        <ele>502.892</ele>
        <time>2020-09-02T18:41:53Z</time>
      </trkpt>
      <trkpt lat="43.74464" lon="5.65234">
        <ele>503.481</ele>
        <time>2020-09-02T18:41:54Z</time>
      </trkpt>
      <trkpt lat="43.74454" lon="5.65226">
        <ele>503.331</ele>
        <time>2020-09-02T18:41:55Z</time>
      </trkpt>
      <trkpt lat="43.74444" lon="5.65218">
        <ele>502.898</ele>
        <time>2020-09-02T18:41:56Z</time>
      </trkpt>
      <trkpt lat="43.74435" lon="5.65209">
        <ele>502.679</ele>
        <time>2020-09-02T18:41:57Z</time>
      </trkpt>
      <trkpt lat="43.74426" lon="5.652">
        <ele>502.737</ele>
        <time>2020-09-02T18:41:58Z</time>
      </trkpt>
      <trkpt lat="43.7442" lon="5.65192">
        <ele>502.733</ele>
        <time>2020-09-02T18:41:59Z</time>
      </trkpt>
      <trkpt lat="43.74415" lon="5.65182">
        <ele>502.826</ele>
        <time>2020-09-02T18:42:00Z</time>
      </trkpt>
      <trkpt lat="43.74413" lon="5.65171">
        <ele>503.214</ele>
        <time>2020-09-02T18:42:01Z</time>
      </trkpt>
      <trkpt lat="43.74412" lon="5.6516">
        <ele>503.554</ele>
        <time>2020-09-02T18:42:02Z</time>
      </trkpt>
      <trkpt lat="43.74412" lon="5.65148">
        <ele>504.609</ele>
        <time>2020-09-02T18:42:03Z</time>
      </trkpt>
      <trkpt lat="43.74413" lon="5.65135">
        <ele>504.908</ele>
        <time>2020-09-02T18:42:04Z</time>
      </trkpt>
      <trkpt lat="43.74415" lon="5.6512">
        <ele>505.379</ele>
        <time>2020-09-02T18:42:05Z</time>
      </trkpt>
      <trkpt lat="43.74416" lon="5.65104">
        <ele>505.918</ele>
        <time>2020-09-02T18:42:06Z</time>
      </trkpt>
      <trkpt lat="43.74415" lon="5.65088">
        <ele>506.498</ele>
        <time>2020-09-02T18:42:07Z</time>
      </trkpt>
      <trkpt lat="43.74414" lon="5.65071">
        <ele>507.585</ele>
        <time>2020-09-02T18:42:08Z</time>
      </trkpt>
      <trkpt lat="43.74412" lon="5.65054">
        <ele>508.496</ele>
        <time>2020-09-02T18:42:09Z</time>
      </trkpt>
      <trkpt lat="43.7441" lon="5.65038">
        <ele>509.244</ele>
        <time>2020-09-02T18:42:10Z</time>
      </trkpt>
      <trkpt lat="43.74409" lon="5.65023">
        <ele>510.75</ele>
        <time>2020-09-02T18:42:11Z</time>
      </trkpt>
      <trkpt lat="43.74409" lon="5.65008">
        <ele>512.083</ele>
        <time>2020-09-02T18:42:12Z</time>
      </trkpt>
      <trkpt lat="43.74409" lon="5.64994">
        <ele>512.938</ele>
        <time>2020-09-02T18:42:13Z</time>
      </trkpt>
      <trkpt lat="43.74411" lon="5.64981">
        <ele>513.77</ele>
        <time>2020-09-02T18:42:14Z</time>
      </trkpt>
      <trkpt lat="43.7441" lon="5.64968">
        <ele>514.517</ele>
        <time>2020-09-02T18:42:15Z</time>
      </trkpt>
      <trkpt lat="43.74408" lon="5.64955">
        <ele>515.108</ele>
        <time>2020-09-02T18:42:16Z</time>
      </trkpt>
      <trkpt lat="43.74405" lon="5.64943">
        <ele>515.321</ele>
        <time>2020-09-02T18:42:17Z</time>
      </trkpt>
      <trkpt lat="43.744" lon="5.64927">
        <ele>516.45</ele>
        <time>2020-09-02T18:42:18Z</time>
      </trkpt>
      <trkpt lat="43.74396" lon="5.64912">
        <ele>517.44</ele>
        <time>2020-09-02T18:42:19Z</time>
      </trkpt>
      <trkpt lat="43.74393" lon="5.64895">
        <ele>518.377</ele>
        <time>2020-09-02T18:42:20Z</time>
      </trkpt>
      <trkpt lat="43.74392" lon="5.6488">
        <ele>520.238</ele>
        <time>2020-09-02T18:42:21Z</time>
      </trkpt>
      <trkpt lat="43.74387" lon="5.64864">
        <ele>521.826</ele>
        <time>2020-09-02T18:42:22Z</time>
      </trkpt>
      <trkpt lat="43.74381" lon="5.64851">
        <ele>523.012</ele>
        <time>2020-09-02T18:42:23Z</time>
      </trkpt>
      <trkpt lat="43.74375" lon="5.64837">
        <ele>524.385</ele>
        <time>2020-09-02T18:42:24Z</time>
      </trkpt>
      <trkpt lat="43.74371" lon="5.64824">
        <ele>524.649</ele>
        <time>2020-09-02T18:42:25Z</time>
      </trkpt>
      <trkpt lat="43.74367" lon="5.64812">
        <ele>524.702</ele>
        <time>2020-09-02T18:42:26Z</time>
      </trkpt>
      <trkpt lat="43.74363" lon="5.64798">
        <ele>524.522</ele>
        <time>2020-09-02T18:42:27Z</time>
      </trkpt>
      <trkpt lat="43.7436" lon="5.64785">
        <ele>524.008</ele>
        <time>2020-09-02T18:42:28Z</time>
      </trkpt>
      <trkpt lat="43.7436" lon="5.64772">
        <ele>523.452</ele>
        <time>2020-09-02T18:42:29Z</time>
      </trkpt>
      <trkpt lat="43.7436" lon="5.6476">
        <ele>522.871</ele>
        <time>2020-09-02T18:42:30Z</time>
      </trkpt>
      <trkpt lat="43.74361" lon="5.64746">
        <ele>522.491</ele>
        <time>2020-09-02T18:42:31Z</time>
      </trkpt>
      <trkpt lat="43.74361" lon="5.64729">
        <ele>521.548</ele>
        <time>2020-09-02T18:42:32Z</time>
      </trkpt>
      <trkpt lat="43.7436" lon="5.64711">
        <ele>521.329</ele>
        <time>2020-09-02T18:42:33Z</time>
      </trkpt>
      <trkpt lat="43.74358" lon="5.64691">
        <ele>520.587</ele>
        <time>2020-09-02T18:42:34Z</time>
      </trkpt>
      <trkpt lat="43.74356" lon="5.64672">
        <ele>519.983</ele>
        <time>2020-09-02T18:42:35Z</time>
      </trkpt>
      <trkpt lat="43.74355" lon="5.64654">
        <ele>519.776</ele>
        <time>2020-09-02T18:42:36Z</time>
      </trkpt>
      <trkpt lat="43.74353" lon="5.64636">
        <ele>518.928</ele>
        <time>2020-09-02T18:42:37Z</time>
      </trkpt>
      <trkpt lat="43.74352" lon="5.64618">
        <ele>518.989</ele>
        <time>2020-09-02T18:42:38Z</time>
      </trkpt>
      <trkpt lat="43.74349" lon="5.64601">
        <ele>518.817</ele>
        <time>2020-09-02T18:42:39Z</time>
      </trkpt>
      <trkpt lat="43.74347" lon="5.64585">
        <ele>518.408</ele>
        <time>2020-09-02T18:42:40Z</time>
      </trkpt>
      <trkpt lat="43.74344" lon="5.64569">
        <ele>518.03</ele>
        <time>2020-09-02T18:42:41Z</time>
      </trkpt>
      <trkpt lat="43.74342" lon="5.64556">
        <ele>517.429</ele>
        <time>2020-09-02T18:42:42Z</time>
      </trkpt>
      <trkpt lat="43.7434" lon="5.64543">
        <ele>517.049</ele>
        <time>2020-09-02T18:42:43Z</time>
      </trkpt>
      <trkpt lat="43.74338" lon="5.64531">
        <ele>517.126</ele>
        <time>2020-09-02T18:42:44Z</time>
      </trkpt>
      <trkpt lat="43.74336" lon="5.6452">
        <ele>516.797</ele>
        <time>2020-09-02T18:42:45Z</time>
      </trkpt>
      <trkpt lat="43.74334" lon="5.64511">
        <ele>516.435</ele>
        <time>2020-09-02T18:42:46Z</time>
      </trkpt>
      <trkpt lat="43.74332" lon="5.64502">
        <ele>515.941</ele>
        <time>2020-09-02T18:42:47Z</time>
      </trkpt>
      <trkpt lat="43.74331" lon="5.64493">
        <ele>515.664</ele>
        <time>2020-09-02T18:42:48Z</time>
      </trkpt>
      <trkpt lat="43.74331" lon="5.64485">
        <ele>515.523</ele>
        <time>2020-09-02T18:42:49Z</time>
      </trkpt>
      <trkpt lat="43.74332" lon="5.64476">
        <ele>515.183</ele>
        <time>2020-09-02T18:42:50Z</time>
      </trkpt>
      <trkpt lat="43.74333" lon="5.64467">
        <ele>514.811</ele>
        <time>2020-09-02T18:42:51Z</time>
      </trkpt>
      <trkpt lat="43.74335" lon="5.64458">
        <ele>514.708</ele>
        <time>2020-09-02T18:42:52Z</time>
      </trkpt>
      <trkpt lat="43.74338" lon="5.64449">
        <ele>514.81</ele>
        <time>2020-09-02T18:42:53Z</time>
      </trkpt>
      <trkpt lat="43.74341" lon="5.64442">
        <ele>515.069</ele>
        <time>2020-09-02T18:42:54Z</time>
      </trkpt>
      <trkpt lat="43.74339" lon="5.64436">
        <ele>514.329</ele>
        <time>2020-09-02T18:42:58Z</time>
      </trkpt>
      <trkpt lat="43.74333" lon="5.64428">
        <ele>513.086</ele>
        <time>2020-09-02T18:43:00Z</time>
      </trkpt>
      <trkpt lat="43.7433" lon="5.64422">
        <ele>512.767</ele>
        <time>2020-09-02T18:43:01Z</time>
      </trkpt>
      <trkpt lat="43.74327" lon="5.64414">
        <ele>512.715</ele>
        <time>2020-09-02T18:43:02Z</time>
      </trkpt>
      <trkpt lat="43.74325" lon="5.64405">
        <ele>513.171</ele>
        <time>2020-09-02T18:43:03Z</time>
      </trkpt>
      <trkpt lat="43.74322" lon="5.64397">
        <ele>514.344</ele>
        <time>2020-09-02T18:43:04Z</time>
      </trkpt>
      <trkpt lat="43.7432" lon="5.64391">
        <ele>515.269</ele>
        <time>2020-09-02T18:43:05Z</time>
      </trkpt>
      <trkpt lat="43.74317" lon="5.64385">
        <ele>515.704</ele>
        <time>2020-09-02T18:43:06Z</time>
      </trkpt>
      <trkpt lat="43.74313" lon="5.64378">
        <ele>516.424</ele>
        <time>2020-09-02T18:43:07Z</time>
      </trkpt>
      <trkpt lat="43.7431" lon="5.64371">
        <ele>517.008</ele>
        <time>2020-09-02T18:43:08Z</time>
      </trkpt>
      <trkpt lat="43.74308" lon="5.64361">
        <ele>517.814</ele>
        <time>2020-09-02T18:43:09Z</time>
      </trkpt>
      <trkpt lat="43.74304" lon="5.64352">
        <ele>518.463</ele>
        <time>2020-09-02T18:43:10Z</time>
      </trkpt>
      <trkpt lat="43.743" lon="5.64341">
        <ele>518.843</ele>
        <time>2020-09-02T18:43:11Z</time>
      </trkpt>
      <trkpt lat="43.74295" lon="5.64329">
        <ele>518.62</ele>
        <time>2020-09-02T18:43:12Z</time>
      </trkpt>
      <trkpt lat="43.74291" lon="5.64313">
        <ele>518.331</ele>
        <time>2020-09-02T18:43:13Z</time>
      </trkpt>
      <trkpt lat="43.74287" lon="5.64299">
        <ele>518.629</ele>
        <time>2020-09-02T18:43:14Z</time>
      </trkpt>
      <trkpt lat="43.74285" lon="5.64281">
        <ele>520.375</ele>
        <time>2020-09-02T18:43:15Z</time>
      </trkpt>
      <trkpt lat="43.74281" lon="5.64264">
        <ele>521.278</ele>
        <time>2020-09-02T18:43:16Z</time>
      </trkpt>
      <trkpt lat="43.74278" lon="5.64248">
        <ele>523.332</ele>
        <time>2020-09-02T18:43:17Z</time>
      </trkpt>
      <trkpt lat="43.74275" lon="5.64234">
        <ele>525.392</ele>
        <time>2020-09-02T18:43:18Z</time>
      </trkpt>
      <trkpt lat="43.74271" lon="5.64218">
        <ele>527.411</ele>
        <time>2020-09-02T18:43:19Z</time>
      </trkpt>
      <trkpt lat="43.74268" lon="5.64204">
        <ele>529.908</ele>
        <time>2020-09-02T18:43:20Z</time>
      </trkpt>
      <trkpt lat="43.74263" lon="5.6419">
        <ele>531.391</ele>
        <time>2020-09-02T18:43:21Z</time>
      </trkpt>
      <trkpt lat="43.74257" lon="5.64177">
        <ele>532.76</ele>
        <time>2020-09-02T18:43:22Z</time>
      </trkpt>
      <trkpt lat="43.74252" lon="5.64164">
        <ele>534.16</ele>
        <time>2020-09-02T18:43:23Z</time>
      </trkpt>
      <trkpt lat="43.74247" lon="5.64151">
        <ele>535.467</ele>
        <time>2020-09-02T18:43:24Z</time>
      </trkpt>
      <trkpt lat="43.74243" lon="5.6414">
        <ele>536.728</ele>
        <time>2020-09-02T18:43:25Z</time>
      </trkpt>
      <trkpt lat="43.74241" lon="5.64127">
        <ele>536.696</ele>
        <time>2020-09-02T18:43:26Z</time>
      </trkpt>
      <trkpt lat="43.7424" lon="5.64115">
        <ele>536.672</ele>
        <time>2020-09-02T18:43:27Z</time>
      </trkpt>
      <trkpt lat="43.74239" lon="5.64103">
        <ele>536.535</ele>
        <time>2020-09-02T18:43:28Z</time>
      </trkpt>
      <trkpt lat="43.74243" lon="5.64092">
        <ele>536.073</ele>
        <time>2020-09-02T18:43:29Z</time>
      </trkpt>
      <trkpt lat="43.74247" lon="5.64078">
        <ele>534.085</ele>
        <time>2020-09-02T18:43:30Z</time>
      </trkpt>
      <trkpt lat="43.7425" lon="5.64064">
        <ele>533.213</ele>
        <time>2020-09-02T18:43:31Z</time>
      </trkpt>
      <trkpt lat="43.7425" lon="5.64047">
        <ele>531.008</ele>
        <time>2020-09-02T18:43:32Z</time>
      </trkpt>
      <trkpt lat="43.7425" lon="5.64031">
        <ele>528.625</ele>
        <time>2020-09-02T18:43:33Z</time>
      </trkpt>
      <trkpt lat="43.74251" lon="5.64016">
        <ele>526.964</ele>
        <time>2020-09-02T18:43:34Z</time>
      </trkpt>
      <trkpt lat="43.74251" lon="5.64">
        <ele>525.064</ele>
        <time>2020-09-02T18:43:35Z</time>
      </trkpt>
      <trkpt lat="43.7425" lon="5.63985">
        <ele>524.051</ele>
        <time>2020-09-02T18:43:36Z</time>
      </trkpt>
      <trkpt lat="43.74248" lon="5.63971">
        <ele>522.372</ele>
        <time>2020-09-02T18:43:37Z</time>
      </trkpt>
      <trkpt lat="43.74246" lon="5.63957">
        <ele>520.91</ele>
        <time>2020-09-02T18:43:38Z</time>
      </trkpt>
      <trkpt lat="43.74242" lon="5.63945">
        <ele>519.796</ele>
        <time>2020-09-02T18:43:39Z</time>
      </trkpt>
      <trkpt lat="43.74237" lon="5.63933">
        <ele>518.679</ele>
        <time>2020-09-02T18:43:40Z</time>
      </trkpt>
      <trkpt lat="43.74232" lon="5.63922">
        <ele>517.374</ele>
        <time>2020-09-02T18:43:41Z</time>
      </trkpt>
      <trkpt lat="43.74228" lon="5.6391">
        <ele>515.956</ele>
        <time>2020-09-02T18:43:42Z</time>
      </trkpt>
      <trkpt lat="43.74223" lon="5.63897">
        <ele>515.321</ele>
        <time>2020-09-02T18:43:43Z</time>
      </trkpt>
      <trkpt lat="43.74219" lon="5.63884">
        <ele>514.808</ele>
        <time>2020-09-02T18:43:44Z</time>
      </trkpt>
      <trkpt lat="43.74214" lon="5.6387">
        <ele>513.625</ele>
        <time>2020-09-02T18:43:45Z</time>
      </trkpt>
      <trkpt lat="43.7421" lon="5.63856">
        <ele>512.784</ele>
        <time>2020-09-02T18:43:46Z</time>
      </trkpt>
      <trkpt lat="43.74206" lon="5.63843">
        <ele>512.064</ele>
        <time>2020-09-02T18:43:47Z</time>
      </trkpt>
      <trkpt lat="43.74202" lon="5.6383">
        <ele>511.231</ele>
        <time>2020-09-02T18:43:48Z</time>
      </trkpt>
      <trkpt lat="43.74198" lon="5.63817">
        <ele>510.642</ele>
        <time>2020-09-02T18:43:49Z</time>
      </trkpt>
      <trkpt lat="43.74194" lon="5.63806">
        <ele>509.95</ele>
        <time>2020-09-02T18:43:50Z</time>
      </trkpt>
      <trkpt lat="43.74189" lon="5.63796">
        <ele>509.416</ele>
        <time>2020-09-02T18:43:51Z</time>
      </trkpt>
      <trkpt lat="43.74183" lon="5.63787">
        <ele>509.179</ele>
        <time>2020-09-02T18:43:52Z</time>
      </trkpt>
      <trkpt lat="43.74178" lon="5.6378">
        <ele>508.357</ele>
        <time>2020-09-02T18:43:53Z</time>
      </trkpt>
      <trkpt lat="43.74172" lon="5.63772">
        <ele>507.7</ele>
        <time>2020-09-02T18:43:54Z</time>
      </trkpt>
      <trkpt lat="43.74168" lon="5.63765">
        <ele>507.42</ele>
        <time>2020-09-02T18:43:55Z</time>
      </trkpt>
      <trkpt lat="43.74165" lon="5.63758">
        <ele>507.308</ele>
        <time>2020-09-02T18:43:56Z</time>
      </trkpt>
      <trkpt lat="43.74163" lon="5.63752">
        <ele>507.273</ele>
        <time>2020-09-02T18:43:57Z</time>
      </trkpt>
      <trkpt lat="43.74157" lon="5.63743">
        <ele>506.332</ele>
        <time>2020-09-02T18:43:59Z</time>
      </trkpt>
      <trkpt lat="43.74154" lon="5.63739">
        <ele>505.522</ele>
        <time>2020-09-02T18:44:00Z</time>
      </trkpt>
      <trkpt lat="43.7415" lon="5.63736">
        <ele>504.939</ele>
        <time>2020-09-02T18:44:01Z</time>
      </trkpt>
      <trkpt lat="43.74145" lon="5.63734">
        <ele>504.74</ele>
        <time>2020-09-02T18:44:02Z</time>
      </trkpt>
      <trkpt lat="43.74141" lon="5.63731">
        <ele>504.558</ele>
        <time>2020-09-02T18:44:03Z</time>
      </trkpt>
      <trkpt lat="43.74137" lon="5.63728">
        <ele>503.554</ele>
        <time>2020-09-02T18:44:04Z</time>
      </trkpt>
      <trkpt lat="43.74132" lon="5.63726">
        <ele>503.257</ele>
        <time>2020-09-02T18:44:05Z</time>
      </trkpt>
      <trkpt lat="43.74127" lon="5.63723">
        <ele>503.219</ele>
        <time>2020-09-02T18:44:06Z</time>
      </trkpt>
      <trkpt lat="43.74123" lon="5.63719">
        <ele>503.309</ele>
        <time>2020-09-02T18:44:07Z</time>
      </trkpt>
      <trkpt lat="43.74118" lon="5.63716">
        <ele>503.519</ele>
        <time>2020-09-02T18:44:08Z</time>
      </trkpt>
      <trkpt lat="43.74113" lon="5.63712">
        <ele>503.308</ele>
        <time>2020-09-02T18:44:09Z</time>
      </trkpt>
      <trkpt lat="43.74107" lon="5.63711">
        <ele>503.529</ele>
        <time>2020-09-02T18:44:10Z</time>
      </trkpt>
      <trkpt lat="43.741" lon="5.63712">
        <ele>503.438</ele>
        <time>2020-09-02T18:44:11Z</time>
      </trkpt>
      <trkpt lat="43.74092" lon="5.63715">
        <ele>503.128</ele>
        <time>2020-09-02T18:44:12Z</time>
      </trkpt>
      <trkpt lat="43.74083" lon="5.6372">
        <ele>503.635</ele>
        <time>2020-09-02T18:44:13Z</time>
      </trkpt>
      <trkpt lat="43.74075" lon="5.63724">
        <ele>503.446</ele>
        <time>2020-09-02T18:44:14Z</time>
      </trkpt>
      <trkpt lat="43.74065" lon="5.63728">
        <ele>503.524</ele>
        <time>2020-09-02T18:44:15Z</time>
      </trkpt>
      <trkpt lat="43.74055" lon="5.63733">
        <ele>503.96</ele>
        <time>2020-09-02T18:44:16Z</time>
      </trkpt>
      <trkpt lat="43.74044" lon="5.63738">
        <ele>504.633</ele>
        <time>2020-09-02T18:44:17Z</time>
      </trkpt>
      <trkpt lat="43.74033" lon="5.63743">
        <ele>505.611</ele>
        <time>2020-09-02T18:44:18Z</time>
      </trkpt>
      <trkpt lat="43.74021" lon="5.63749">
        <ele>506.221</ele>
        <time>2020-09-02T18:44:19Z</time>
      </trkpt>
      <trkpt lat="43.74009" lon="5.63756">
        <ele>507.003</ele>
        <time>2020-09-02T18:44:20Z</time>
      </trkpt>
      <trkpt lat="43.73997" lon="5.63764">
        <ele>507.408</ele>
        <time>2020-09-02T18:44:21Z</time>
      </trkpt>
      <trkpt lat="43.73984" lon="5.63771">
        <ele>507.979</ele>
        <time>2020-09-02T18:44:22Z</time>
      </trkpt>
      <trkpt lat="43.7397" lon="5.63781">
        <ele>508.468</ele>
        <time>2020-09-02T18:44:23Z</time>
      </trkpt>
      <trkpt lat="43.73957" lon="5.63789">
        <ele>509.258</ele>
        <time>2020-09-02T18:44:24Z</time>
      </trkpt>
      <trkpt lat="43.73945" lon="5.63797">
        <ele>509.335</ele>
        <time>2020-09-02T18:44:25Z</time>
      </trkpt>
      <trkpt lat="43.73934" lon="5.63804">
        <ele>510.126</ele>
        <time>2020-09-02T18:44:26Z</time>
      </trkpt>
      <trkpt lat="43.73923" lon="5.63811">
        <ele>510.714</ele>
        <time>2020-09-02T18:44:27Z</time>
      </trkpt>
      <trkpt lat="43.73912" lon="5.63818">
        <ele>510.94</ele>
        <time>2020-09-02T18:44:28Z</time>
      </trkpt>
      <trkpt lat="43.739" lon="5.63825">
        <ele>511.493</ele>
        <time>2020-09-02T18:44:29Z</time>
      </trkpt>
      <trkpt lat="43.73888" lon="5.63832">
        <ele>511.825</ele>
        <time>2020-09-02T18:44:30Z</time>
      </trkpt>
      <trkpt lat="43.73876" lon="5.6384">
        <ele>511.526</ele>
        <time>2020-09-02T18:44:31Z</time>
      </trkpt>
      <trkpt lat="43.73865" lon="5.63849">
        <ele>511.508</ele>
        <time>2020-09-02T18:44:32Z</time>
      </trkpt>
      <trkpt lat="43.73855" lon="5.63858">
        <ele>511.108</ele>
        <time>2020-09-02T18:44:33Z</time>
      </trkpt>
      <trkpt lat="43.73845" lon="5.63866">
        <ele>510.99</ele>
        <time>2020-09-02T18:44:34Z</time>
      </trkpt>
      <trkpt lat="43.73836" lon="5.63874">
        <ele>510.949</ele>
        <time>2020-09-02T18:44:35Z</time>
      </trkpt>
      <trkpt lat="43.73826" lon="5.63881">
        <ele>511.189</ele>
        <time>2020-09-02T18:44:36Z</time>
      </trkpt>
      <trkpt lat="43.73818" lon="5.63889">
        <ele>511.176</ele>
        <time>2020-09-02T18:44:37Z</time>
      </trkpt>
      <trkpt lat="43.7381" lon="5.63897">
        <ele>510.857</ele>
        <time>2020-09-02T18:44:38Z</time>
      </trkpt>
      <trkpt lat="43.73804" lon="5.63901">
        <ele>510.795</ele>
        <time>2020-09-02T18:44:39Z</time>
      </trkpt>
      <trkpt lat="43.73799" lon="5.63901">
        <ele>510.571</ele>
        <time>2020-09-02T18:44:40Z</time>
      </trkpt>
      <trkpt lat="43.73793" lon="5.63898">
        <ele>510.844</ele>
        <time>2020-09-02T18:44:41Z</time>
      </trkpt>
      <trkpt lat="43.73785" lon="5.63893">
        <ele>510.731</ele>
        <time>2020-09-02T18:44:42Z</time>
      </trkpt>
      <trkpt lat="43.73777" lon="5.63885">
        <ele>511.361</ele>
        <time>2020-09-02T18:44:43Z</time>
      </trkpt>
      <trkpt lat="43.73768" lon="5.63877">
        <ele>512.007</ele>
        <time>2020-09-02T18:44:44Z</time>
      </trkpt>
      <trkpt lat="43.73759" lon="5.6387">
        <ele>512.208</ele>
        <time>2020-09-02T18:44:45Z</time>
      </trkpt>
      <trkpt lat="43.73749" lon="5.63863">
        <ele>511.781</ele>
        <time>2020-09-02T18:44:46Z</time>
      </trkpt>
      <trkpt lat="43.7374" lon="5.63856">
        <ele>511.16</ele>
        <time>2020-09-02T18:44:47Z</time>
      </trkpt>
      <trkpt lat="43.73731" lon="5.63849">
        <ele>510.38</ele>
        <time>2020-09-02T18:44:48Z</time>
      </trkpt>
      <trkpt lat="43.73723" lon="5.63842">
        <ele>509.837</ele>
        <time>2020-09-02T18:44:49Z</time>
      </trkpt>
      <trkpt lat="43.73714" lon="5.63832">
        <ele>509.388</ele>
        <time>2020-09-02T18:44:50Z</time>
      </trkpt>
      <trkpt lat="43.73705" lon="5.6382">
        <ele>508.996</ele>
        <time>2020-09-02T18:44:51Z</time>
      </trkpt>
      <trkpt lat="43.73697" lon="5.63808">
        <ele>509.092</ele>
        <time>2020-09-02T18:44:52Z</time>
      </trkpt>
      <trkpt lat="43.73689" lon="5.63796">
        <ele>509.485</ele>
        <time>2020-09-02T18:44:53Z</time>
      </trkpt>
      <trkpt lat="43.73683" lon="5.63784">
        <ele>509.633</ele>
        <time>2020-09-02T18:44:54Z</time>
      </trkpt>
      <trkpt lat="43.73678" lon="5.63771">
        <ele>510.023</ele>
        <time>2020-09-02T18:44:55Z</time>
      </trkpt>
      <trkpt lat="43.73674" lon="5.63757">
        <ele>510.115</ele>
        <time>2020-09-02T18:44:56Z</time>
      </trkpt>
      <trkpt lat="43.7367" lon="5.63742">
        <ele>510.408</ele>
        <time>2020-09-02T18:44:57Z</time>
      </trkpt>
      <trkpt lat="43.73665" lon="5.63726">
        <ele>510.731</ele>
        <time>2020-09-02T18:44:58Z</time>
      </trkpt>
      <trkpt lat="43.7366" lon="5.63709">
        <ele>511.13</ele>
        <time>2020-09-02T18:44:59Z</time>
      </trkpt>
      <trkpt lat="43.73654" lon="5.63693">
        <ele>511.42</ele>
        <time>2020-09-02T18:45:00Z</time>
      </trkpt>
      <trkpt lat="43.73646" lon="5.63677">
        <ele>511.897</ele>
        <time>2020-09-02T18:45:01Z</time>
      </trkpt>
      <trkpt lat="43.73639" lon="5.63662">
        <ele>511.928</ele>
        <time>2020-09-02T18:45:02Z</time>
      </trkpt>
      <trkpt lat="43.73632" lon="5.63646">
        <ele>512.286</ele>
        <time>2020-09-02T18:45:03Z</time>
      </trkpt>
      <trkpt lat="43.73625" lon="5.6363">
        <ele>512.692</ele>
        <time>2020-09-02T18:45:04Z</time>
      </trkpt>
      <trkpt lat="43.73618" lon="5.63616">
        <ele>513.035</ele>
        <time>2020-09-02T18:45:05Z</time>
      </trkpt>
      <trkpt lat="43.73611" lon="5.63602">
        <ele>514.722</ele>
        <time>2020-09-02T18:45:06Z</time>
      </trkpt>
      <trkpt lat="43.73604" lon="5.6359">
        <ele>514.962</ele>
        <time>2020-09-02T18:45:07Z</time>
      </trkpt>
      <trkpt lat="43.73599" lon="5.63574">
        <ele>515.608</ele>
        <time>2020-09-02T18:45:08Z</time>
      </trkpt>
      <trkpt lat="43.73595" lon="5.63557">
        <ele>516.308</ele>
        <time>2020-09-02T18:45:09Z</time>
      </trkpt>
      <trkpt lat="43.73592" lon="5.6354">
        <ele>517.63</ele>
        <time>2020-09-02T18:45:10Z</time>
      </trkpt>
      <trkpt lat="43.73587" lon="5.63521">
        <ele>517.879</ele>
        <time>2020-09-02T18:45:11Z</time>
      </trkpt>
      <trkpt lat="43.73582" lon="5.63503">
        <ele>517.969</ele>
        <time>2020-09-02T18:45:12Z</time>
      </trkpt>
      <trkpt lat="43.73576" lon="5.63486">
        <ele>518.116</ele>
        <time>2020-09-02T18:45:13Z</time>
      </trkpt>
      <trkpt lat="43.7357" lon="5.63468">
        <ele>518.237</ele>
        <time>2020-09-02T18:45:14Z</time>
      </trkpt>
      <trkpt lat="43.73563" lon="5.63451">
        <ele>518.185</ele>
        <time>2020-09-02T18:45:15Z</time>
      </trkpt>
      <trkpt lat="43.73556" lon="5.63439">
        <ele>518.711</ele>
        <time>2020-09-02T18:45:16Z</time>
      </trkpt>
      <trkpt lat="43.73547" lon="5.63427">
        <ele>517.844</ele>
        <time>2020-09-02T18:45:17Z</time>
      </trkpt>
      <trkpt lat="43.73537" lon="5.63414">
        <ele>516.273</ele>
        <time>2020-09-02T18:45:18Z</time>
      </trkpt>
      <trkpt lat="43.73526" lon="5.63402">
        <ele>515.285</ele>
        <time>2020-09-02T18:45:19Z</time>
      </trkpt>
      <trkpt lat="43.73515" lon="5.63391">
        <ele>515.113</ele>
        <time>2020-09-02T18:45:20Z</time>
      </trkpt>
      <trkpt lat="43.73505" lon="5.6338">
        <ele>514.508</ele>
        <time>2020-09-02T18:45:21Z</time>
      </trkpt>
      <trkpt lat="43.73497" lon="5.63368">
        <ele>513.895</ele>
        <time>2020-09-02T18:45:22Z</time>
      </trkpt>
      <trkpt lat="43.73489" lon="5.63356">
        <ele>513.324</ele>
        <time>2020-09-02T18:45:23Z</time>
      </trkpt>
      <trkpt lat="43.73482" lon="5.63344">
        <ele>513.054</ele>
        <time>2020-09-02T18:45:24Z</time>
      </trkpt>
      <trkpt lat="43.73476" lon="5.6333">
        <ele>512.251</ele>
        <time>2020-09-02T18:45:25Z</time>
      </trkpt>
      <trkpt lat="43.7347" lon="5.63315">
        <ele>511.342</ele>
        <time>2020-09-02T18:45:26Z</time>
      </trkpt>
      <trkpt lat="43.73465" lon="5.63296">
        <ele>510.01</ele>
        <time>2020-09-02T18:45:27Z</time>
      </trkpt>
      <trkpt lat="43.73459" lon="5.63278">
        <ele>509.466</ele>
        <time>2020-09-02T18:45:28Z</time>
      </trkpt>
      <trkpt lat="43.73453" lon="5.63258">
        <ele>509.639</ele>
        <time>2020-09-02T18:45:29Z</time>
      </trkpt>
      <trkpt lat="43.73446" lon="5.63239">
        <ele>509.834</ele>
        <time>2020-09-02T18:45:30Z</time>
      </trkpt>
      <trkpt lat="43.7344" lon="5.63221">
        <ele>510.155</ele>
        <time>2020-09-02T18:45:31Z</time>
      </trkpt>
      <trkpt lat="43.73434" lon="5.63202">
        <ele>510.81</ele>
        <time>2020-09-02T18:45:32Z</time>
      </trkpt>
      <trkpt lat="43.73429" lon="5.63181">
        <ele>511.008</ele>
        <time>2020-09-02T18:45:33Z</time>
      </trkpt>
      <trkpt lat="43.73424" lon="5.63161">
        <ele>510.011</ele>
        <time>2020-09-02T18:45:34Z</time>
      </trkpt>
      <trkpt lat="43.7342" lon="5.63139">
        <ele>509.45</ele>
        <time>2020-09-02T18:45:35Z</time>
      </trkpt>
      <trkpt lat="43.73413" lon="5.63117">
        <ele>509.44</ele>
        <time>2020-09-02T18:45:36Z</time>
      </trkpt>
      <trkpt lat="43.73406" lon="5.63097">
        <ele>509.567</ele>
        <time>2020-09-02T18:45:37Z</time>
      </trkpt>
      <trkpt lat="43.73399" lon="5.63078">
        <ele>510.388</ele>
        <time>2020-09-02T18:45:38Z</time>
      </trkpt>
      <trkpt lat="43.73393" lon="5.6306">
        <ele>510.296</ele>
        <time>2020-09-02T18:45:39Z</time>
      </trkpt>
      <trkpt lat="43.73388" lon="5.63042">
        <ele>510.222</ele>
        <time>2020-09-02T18:45:40Z</time>
      </trkpt>
      <trkpt lat="43.73384" lon="5.63024">
        <ele>510.315</ele>
        <time>2020-09-02T18:45:41Z</time>
      </trkpt>
      <trkpt lat="43.7338" lon="5.63006">
        <ele>510.138</ele>
        <time>2020-09-02T18:45:42Z</time>
      </trkpt>
      <trkpt lat="43.73375" lon="5.62986">
        <ele>510.97</ele>
        <time>2020-09-02T18:45:43Z</time>
      </trkpt>
      <trkpt lat="43.73369" lon="5.62966">
        <ele>509.817</ele>
        <time>2020-09-02T18:45:44Z</time>
      </trkpt>
      <trkpt lat="43.73364" lon="5.62945">
        <ele>508.908</ele>
        <time>2020-09-02T18:45:45Z</time>
      </trkpt>
      <trkpt lat="43.73359" lon="5.62927">
        <ele>507.531</ele>
        <time>2020-09-02T18:45:46Z</time>
      </trkpt>
      <trkpt lat="43.73353" lon="5.62909">
        <ele>507.24</ele>
        <time>2020-09-02T18:45:47Z</time>
      </trkpt>
      <trkpt lat="43.73347" lon="5.62892">
        <ele>507.03</ele>
        <time>2020-09-02T18:45:48Z</time>
      </trkpt>
      <trkpt lat="43.73344" lon="5.62875">
        <ele>507.147</ele>
        <time>2020-09-02T18:45:49Z</time>
      </trkpt>
      <trkpt lat="43.73342" lon="5.62858">
        <ele>507.998</ele>
        <time>2020-09-02T18:45:50Z</time>
      </trkpt>
      <trkpt lat="43.73341" lon="5.62841">
        <ele>508.276</ele>
        <time>2020-09-02T18:45:51Z</time>
      </trkpt>
      <trkpt lat="43.73341" lon="5.62826">
        <ele>508.592</ele>
        <time>2020-09-02T18:45:52Z</time>
      </trkpt>
      <trkpt lat="43.73341" lon="5.6281">
        <ele>507.975</ele>
        <time>2020-09-02T18:45:53Z</time>
      </trkpt>
      <trkpt lat="43.73341" lon="5.62797">
        <ele>507.489</ele>
        <time>2020-09-02T18:45:54Z</time>
      </trkpt>
      <trkpt lat="43.73341" lon="5.62782">
        <ele>507.406</ele>
        <time>2020-09-02T18:45:55Z</time>
      </trkpt>
      <trkpt lat="43.7334" lon="5.62767">
        <ele>506.626</ele>
        <time>2020-09-02T18:45:56Z</time>
      </trkpt>
      <trkpt lat="43.73338" lon="5.62751">
        <ele>506.208</ele>
        <time>2020-09-02T18:45:57Z</time>
      </trkpt>
      <trkpt lat="43.73335" lon="5.62735">
        <ele>505.566</ele>
        <time>2020-09-02T18:45:58Z</time>
      </trkpt>
      <trkpt lat="43.73332" lon="5.62718">
        <ele>504.445</ele>
        <time>2020-09-02T18:45:59Z</time>
      </trkpt>
      <trkpt lat="43.73329" lon="5.627">
        <ele>504.265</ele>
        <time>2020-09-02T18:46:00Z</time>
      </trkpt>
      <trkpt lat="43.73326" lon="5.62681">
        <ele>504.062</ele>
        <time>2020-09-02T18:46:01Z</time>
      </trkpt>
      <trkpt lat="43.73323" lon="5.6266">
        <ele>503.273</ele>
        <time>2020-09-02T18:46:02Z</time>
      </trkpt>
      <trkpt lat="43.73319" lon="5.62639">
        <ele>503.081</ele>
        <time>2020-09-02T18:46:03Z</time>
      </trkpt>
      <trkpt lat="43.73315" lon="5.62617">
        <ele>502.717</ele>
        <time>2020-09-02T18:46:04Z</time>
      </trkpt>
      <trkpt lat="43.73312" lon="5.62596">
        <ele>502.78</ele>
        <time>2020-09-02T18:46:05Z</time>
      </trkpt>
      <trkpt lat="43.73311" lon="5.62578">
        <ele>503.451</ele>
        <time>2020-09-02T18:46:06Z</time>
      </trkpt>
      <trkpt lat="43.73307" lon="5.6256">
        <ele>503.201</ele>
        <time>2020-09-02T18:46:07Z</time>
      </trkpt>
      <trkpt lat="43.73304" lon="5.62545">
        <ele>503.511</ele>
        <time>2020-09-02T18:46:08Z</time>
      </trkpt>
      <trkpt lat="43.73301" lon="5.62534">
        <ele>504.608</ele>
        <time>2020-09-02T18:46:09Z</time>
      </trkpt>
      <trkpt lat="43.73295" lon="5.62528">
        <ele>505.193</ele>
        <time>2020-09-02T18:46:10Z</time>
      </trkpt>
      <trkpt lat="43.7329" lon="5.62524">
        <ele>504.752</ele>
        <time>2020-09-02T18:46:11Z</time>
      </trkpt>
      <trkpt lat="43.73283" lon="5.62521">
        <ele>504.472</ele>
        <time>2020-09-02T18:46:12Z</time>
      </trkpt>
      <trkpt lat="43.73276" lon="5.62517">
        <ele>504.159</ele>
        <time>2020-09-02T18:46:13Z</time>
      </trkpt>
      <trkpt lat="43.73269" lon="5.62513">
        <ele>503.77</ele>
        <time>2020-09-02T18:46:14Z</time>
      </trkpt>
      <trkpt lat="43.73262" lon="5.62508">
        <ele>503.188</ele>
        <time>2020-09-02T18:46:15Z</time>
      </trkpt>
      <trkpt lat="43.73256" lon="5.62503">
        <ele>503.184</ele>
        <time>2020-09-02T18:46:16Z</time>
      </trkpt>
      <trkpt lat="43.73252" lon="5.62498">
        <ele>503.437</ele>
        <time>2020-09-02T18:46:17Z</time>
      </trkpt>
      <trkpt lat="43.73248" lon="5.62493">
        <ele>503.877</ele>
        <time>2020-09-02T18:46:18Z</time>
      </trkpt>
      <trkpt lat="43.73243" lon="5.62489">
        <ele>504.461</ele>
        <time>2020-09-02T18:46:19Z</time>
      </trkpt>
      <trkpt lat="43.7324" lon="5.62482">
        <ele>504.127</ele>
        <time>2020-09-02T18:46:20Z</time>
      </trkpt>
      <trkpt lat="43.73238" lon="5.62474">
        <ele>503.308</ele>
        <time>2020-09-02T18:46:21Z</time>
      </trkpt>
      <trkpt lat="43.73237" lon="5.62465">
        <ele>503.525</ele>
        <time>2020-09-02T18:46:22Z</time>
      </trkpt>
      <trkpt lat="43.73236" lon="5.62455">
        <ele>503.484</ele>
        <time>2020-09-02T18:46:23Z</time>
      </trkpt>
      <trkpt lat="43.73236" lon="5.62445">
        <ele>503.574</ele>
        <time>2020-09-02T18:46:24Z</time>
      </trkpt>
      <trkpt lat="43.73237" lon="5.62436">
        <ele>503.461</ele>
        <time>2020-09-02T18:46:25Z</time>
      </trkpt>
      <trkpt lat="43.73237" lon="5.62425">
        <ele>503.262</ele>
        <time>2020-09-02T18:46:26Z</time>
      </trkpt>
      <trkpt lat="43.73238" lon="5.62414">
        <ele>503.11</ele>
        <time>2020-09-02T18:46:27Z</time>
      </trkpt>
      <trkpt lat="43.73239" lon="5.62403">
        <ele>503.676</ele>
        <time>2020-09-02T18:46:28Z</time>
      </trkpt>
      <trkpt lat="43.73239" lon="5.62392">
        <ele>503.329</ele>
        <time>2020-09-02T18:46:29Z</time>
      </trkpt>
      <trkpt lat="43.73239" lon="5.62381">
        <ele>503.452</ele>
        <time>2020-09-02T18:46:30Z</time>
      </trkpt>
      <trkpt lat="43.73239" lon="5.62372">
        <ele>503.453</ele>
        <time>2020-09-02T18:46:31Z</time>
      </trkpt>
      <trkpt lat="43.7324" lon="5.62363">
        <ele>503.208</ele>
        <time>2020-09-02T18:46:32Z</time>
      </trkpt>
      <trkpt lat="43.7324" lon="5.62356">
        <ele>502.408</ele>
        <time>2020-09-02T18:46:33Z</time>
      </trkpt>
      <trkpt lat="43.7324" lon="5.62345">
        <ele>501.973</ele>
        <time>2020-09-02T18:46:35Z</time>
      </trkpt>
      <trkpt lat="43.7324" lon="5.62333">
        <ele>501.252</ele>
        <time>2020-09-02T18:46:37Z</time>
      </trkpt>
      <trkpt lat="43.7324" lon="5.62323">
        <ele>501.082</ele>
        <time>2020-09-02T18:46:39Z</time>
      </trkpt>
      <trkpt lat="43.73243" lon="5.62317">
        <ele>503.179</ele>
        <time>2020-09-02T18:47:00Z</time>
      </trkpt>
      <trkpt lat="43.73242" lon="5.62326">
        <ele>503.62</ele>
        <time>2020-09-02T18:47:10Z</time>
      </trkpt>
      <trkpt lat="43.7324" lon="5.62336">
        <ele>502.888</ele>
        <time>2020-09-02T18:47:12Z</time>
      </trkpt>
      <trkpt lat="43.73238" lon="5.62349">
        <ele>502.134</ele>
        <time>2020-09-02T18:47:14Z</time>
      </trkpt>
      <trkpt lat="43.73238" lon="5.62355">
        <ele>501.557</ele>
        <time>2020-09-02T18:47:15Z</time>
      </trkpt>
      <trkpt lat="43.73237" lon="5.62362">
        <ele>501.283</ele>
        <time>2020-09-02T18:47:16Z</time>
      </trkpt>
      <trkpt lat="43.73238" lon="5.62368">
        <ele>500.825</ele>
        <time>2020-09-02T18:47:17Z</time>
      </trkpt>
      <trkpt lat="43.73237" lon="5.62377">
        <ele>501.117</ele>
        <time>2020-09-02T18:47:19Z</time>
      </trkpt>
      <trkpt lat="43.73237" lon="5.62384">
        <ele>501.208</ele>
        <time>2020-09-02T18:47:21Z</time>
      </trkpt>
      <trkpt lat="43.73237" lon="5.62393">
        <ele>501.626</ele>
        <time>2020-09-02T18:47:24Z</time>
      </trkpt>
      <trkpt lat="43.73237" lon="5.624">
        <ele>501.895</ele>
        <time>2020-09-02T18:47:27Z</time>
      </trkpt>
      <trkpt lat="43.73238" lon="5.62409">
        <ele>501.715</ele>
        <time>2020-09-02T18:47:30Z</time>
      </trkpt>
      <trkpt lat="43.73237" lon="5.62416">
        <ele>501.772</ele>
        <time>2020-09-02T18:47:32Z</time>
      </trkpt>
      <trkpt lat="43.73233" lon="5.6242">
        <ele>501.853</ele>
        <time>2020-09-02T18:48:01Z</time>
      </trkpt>
      <trkpt lat="43.73229" lon="5.62422">
        <ele>501.191</ele>
        <time>2020-09-02T18:48:03Z</time>
      </trkpt>
      <trkpt lat="43.73223" lon="5.62423">
        <ele>498.757</ele>
        <time>2020-09-02T18:48:05Z</time>
      </trkpt>
      <trkpt lat="43.73217" lon="5.62419">
        <ele>496.59</ele>
        <time>2020-09-02T18:48:07Z</time>
      </trkpt>
      <trkpt lat="43.73213" lon="5.62413">
        <ele>495.282</ele>
        <time>2020-09-02T18:48:09Z</time>
      </trkpt>
      <trkpt lat="43.73211" lon="5.62406">
        <ele>494.243</ele>
        <time>2020-09-02T18:48:11Z</time>
      </trkpt>
      <trkpt lat="43.7321" lon="5.62397">
        <ele>493.217</ele>
        <time>2020-09-02T18:48:13Z</time>
      </trkpt>
      <trkpt lat="43.73209" lon="5.62387">
        <ele>492.808</ele>
        <time>2020-09-02T18:48:15Z</time>
      </trkpt>
      <trkpt lat="43.73209" lon="5.62377">
        <ele>492.916</ele>
        <time>2020-09-02T18:48:17Z</time>
      </trkpt>
      <trkpt lat="43.73209" lon="5.62368">
        <ele>492.915</ele>
        <time>2020-09-02T18:48:19Z</time>
      </trkpt>
      <trkpt lat="43.73209" lon="5.62359">
        <ele>492.075</ele>
        <time>2020-09-02T18:48:21Z</time>
      </trkpt>
      <trkpt lat="43.73205" lon="5.62353">
        <ele>490.192</ele>
        <time>2020-09-02T18:48:24Z</time>
      </trkpt>
      <trkpt lat="43.73199" lon="5.62353">
        <ele>488.213</ele>
        <time>2020-09-02T18:48:26Z</time>
      </trkpt>
      <trkpt lat="43.73193" lon="5.62352">
        <ele>486.351</ele>
        <time>2020-09-02T18:48:28Z</time>
      </trkpt>
      <trkpt lat="43.73186" lon="5.6235">
        <ele>485.087</ele>
        <time>2020-09-02T18:48:30Z</time>
      </trkpt>
      <trkpt lat="43.7318" lon="5.62349">
        <ele>482.96</ele>
        <time>2020-09-02T18:48:32Z</time>
      </trkpt>
      <trkpt lat="43.73176" lon="5.62354">
        <ele>480.831</ele>
        <time>2020-09-02T18:48:35Z</time>
      </trkpt>
      <trkpt lat="43.73172" lon="5.62363">
        <ele>480.161</ele>
        <time>2020-09-02T18:48:37Z</time>
      </trkpt>
      <trkpt lat="43.73167" lon="5.62371">
        <ele>479.307</ele>
        <time>2020-09-02T18:48:39Z</time>
      </trkpt>
      <trkpt lat="43.73158" lon="5.62373">
        <ele>477.508</ele>
        <time>2020-09-02T18:48:41Z</time>
      </trkpt>
      <trkpt lat="43.73153" lon="5.62372">
        <ele>477.291</ele>
        <time>2020-09-02T18:48:42Z</time>
      </trkpt>
      <trkpt lat="43.73148" lon="5.62371">
        <ele>476.21</ele>
        <time>2020-09-02T18:48:43Z</time>
      </trkpt>
      <trkpt lat="43.73144" lon="5.6237">
        <ele>475.22</ele>
        <time>2020-09-02T18:48:44Z</time>
      </trkpt>
      <trkpt lat="43.73136" lon="5.62366">
        <ele>473.727</ele>
        <time>2020-09-02T18:48:46Z</time>
      </trkpt>
      <trkpt lat="43.73132" lon="5.62363">
        <ele>472.728</ele>
        <time>2020-09-02T18:48:47Z</time>
      </trkpt>
      <trkpt lat="43.73128" lon="5.62361">
        <ele>472.286</ele>
        <time>2020-09-02T18:48:48Z</time>
      </trkpt>
      <trkpt lat="43.73124" lon="5.62363">
        <ele>470.482</ele>
        <time>2020-09-02T18:48:49Z</time>
      </trkpt>
      <trkpt lat="43.73118" lon="5.62362">
        <ele>469.435</ele>
        <time>2020-09-02T18:48:50Z</time>
      </trkpt>
      <trkpt lat="43.73112" lon="5.62359">
        <ele>468.313</ele>
        <time>2020-09-02T18:48:51Z</time>
      </trkpt>
      <trkpt lat="43.73107" lon="5.62359">
        <ele>466.843</ele>
        <time>2020-09-02T18:48:52Z</time>
      </trkpt>
      <trkpt lat="43.73101" lon="5.62358">
        <ele>465.407</ele>
        <time>2020-09-02T18:48:53Z</time>
      </trkpt>
      <trkpt lat="43.73093" lon="5.62355">
        <ele>462.508</ele>
        <time>2020-09-02T18:48:55Z</time>
      </trkpt>
      <trkpt lat="43.73086" lon="5.62359">
        <ele>459.989</ele>
        <time>2020-09-02T18:48:57Z</time>
      </trkpt>
      <trkpt lat="43.73081" lon="5.62365">
        <ele>457.638</ele>
        <time>2020-09-02T18:48:59Z</time>
      </trkpt>
      <trkpt lat="43.73075" lon="5.62364">
        <ele>457.048</ele>
        <time>2020-09-02T18:49:01Z</time>
      </trkpt>
      <trkpt lat="43.7307" lon="5.62362">
        <ele>456.435</ele>
        <time>2020-09-02T18:49:02Z</time>
      </trkpt>
      <trkpt lat="43.73065" lon="5.62357">
        <ele>455.586</ele>
        <time>2020-09-02T18:49:03Z</time>
      </trkpt>
      <trkpt lat="43.7306" lon="5.62355">
        <ele>455.174</ele>
        <time>2020-09-02T18:49:04Z</time>
      </trkpt>
      <trkpt lat="43.73056" lon="5.62352">
        <ele>454.85</ele>
        <time>2020-09-02T18:49:05Z</time>
      </trkpt>
      <trkpt lat="43.73052" lon="5.62349">
        <ele>454.253</ele>
        <time>2020-09-02T18:49:06Z</time>
      </trkpt>
      <trkpt lat="43.73046" lon="5.62342">
        <ele>454.026</ele>
        <time>2020-09-02T18:49:08Z</time>
      </trkpt>
      <trkpt lat="43.73046" lon="5.62335">
        <ele>454.147</ele>
        <time>2020-09-02T18:49:09Z</time>
      </trkpt>
      <trkpt lat="43.73045" lon="5.62328">
        <ele>454.511</ele>
        <time>2020-09-02T18:49:10Z</time>
      </trkpt>
      <trkpt lat="43.73041" lon="5.62317">
        <ele>455.208</ele>
        <time>2020-09-02T18:49:12Z</time>
      </trkpt>
      <trkpt lat="43.7303" lon="5.62316">
        <ele>454.37</ele>
        <time>2020-09-02T18:49:14Z</time>
      </trkpt>
      <trkpt lat="43.73024" lon="5.62314">
        <ele>453.119</ele>
        <time>2020-09-02T18:49:15Z</time>
      </trkpt>
      <trkpt lat="43.73017" lon="5.62312">
        <ele>451.789</ele>
        <time>2020-09-02T18:49:16Z</time>
      </trkpt>
      <trkpt lat="43.73011" lon="5.6231">
        <ele>451.616</ele>
        <time>2020-09-02T18:49:17Z</time>
      </trkpt>
      <trkpt lat="43.73007" lon="5.62303">
        <ele>450.987</ele>
        <time>2020-09-02T18:49:18Z</time>
      </trkpt>
      <trkpt lat="43.73003" lon="5.62297">
        <ele>450.375</ele>
        <time>2020-09-02T18:49:19Z</time>
      </trkpt>
      <trkpt lat="43.73" lon="5.62289">
        <ele>449.841</ele>
        <time>2020-09-02T18:49:20Z</time>
      </trkpt>
      <trkpt lat="43.72998" lon="5.62281">
        <ele>449.354</ele>
        <time>2020-09-02T18:49:21Z</time>
      </trkpt>
      <trkpt lat="43.72994" lon="5.62273">
        <ele>448.113</ele>
        <time>2020-09-02T18:49:22Z</time>
      </trkpt>
      <trkpt lat="43.72992" lon="5.62264">
        <ele>447.743</ele>
        <time>2020-09-02T18:49:23Z</time>
      </trkpt>
      <trkpt lat="43.7299" lon="5.62257">
        <ele>447.007</ele>
        <time>2020-09-02T18:49:24Z</time>
      </trkpt>
      <trkpt lat="43.72989" lon="5.6225">
        <ele>446.808</ele>
        <time>2020-09-02T18:49:25Z</time>
      </trkpt>
      <trkpt lat="43.72987" lon="5.62242">
        <ele>447.159</ele>
        <time>2020-09-02T18:49:26Z</time>
      </trkpt>
      <trkpt lat="43.72984" lon="5.62236">
        <ele>446.518</ele>
        <time>2020-09-02T18:49:27Z</time>
      </trkpt>
      <trkpt lat="43.72978" lon="5.62232">
        <ele>445.068</ele>
        <time>2020-09-02T18:49:28Z</time>
      </trkpt>
      <trkpt lat="43.72973" lon="5.62227">
        <ele>444.775</ele>
        <time>2020-09-02T18:49:29Z</time>
      </trkpt>
      <trkpt lat="43.72967" lon="5.62224">
        <ele>444.776</ele>
        <time>2020-09-02T18:49:30Z</time>
      </trkpt>
      <trkpt lat="43.72959" lon="5.6222">
        <ele>444.644</ele>
        <time>2020-09-02T18:49:31Z</time>
      </trkpt>
      <trkpt lat="43.72953" lon="5.62215">
        <ele>444.42</ele>
        <time>2020-09-02T18:49:32Z</time>
      </trkpt>
      <trkpt lat="43.72948" lon="5.62208">
        <ele>444.313</ele>
        <time>2020-09-02T18:49:33Z</time>
      </trkpt>
      <trkpt lat="43.72944" lon="5.622">
        <ele>444.976</ele>
        <time>2020-09-02T18:49:34Z</time>
      </trkpt>
      <trkpt lat="43.7294" lon="5.62192">
        <ele>445.69</ele>
        <time>2020-09-02T18:49:35Z</time>
      </trkpt>
      <trkpt lat="43.72936" lon="5.62183">
        <ele>445.819</ele>
        <time>2020-09-02T18:49:36Z</time>
      </trkpt>
      <trkpt lat="43.72932" lon="5.62174">
        <ele>445.408</ele>
        <time>2020-09-02T18:49:37Z</time>
      </trkpt>
      <trkpt lat="43.72928" lon="5.62166">
        <ele>444.845</ele>
        <time>2020-09-02T18:49:38Z</time>
      </trkpt>
      <trkpt lat="43.72925" lon="5.62158">
        <ele>444.824</ele>
        <time>2020-09-02T18:49:39Z</time>
      </trkpt>
      <trkpt lat="43.72923" lon="5.62146">
        <ele>443.954</ele>
        <time>2020-09-02T18:49:40Z</time>
      </trkpt>
      <trkpt lat="43.72921" lon="5.62136">
        <ele>443.361</ele>
        <time>2020-09-02T18:49:41Z</time>
      </trkpt>
      <trkpt lat="43.7292" lon="5.62125">
        <ele>443.542</ele>
        <time>2020-09-02T18:49:42Z</time>
      </trkpt>
      <trkpt lat="43.72921" lon="5.62114">
        <ele>443.96</ele>
        <time>2020-09-02T18:49:43Z</time>
      </trkpt>
      <trkpt lat="43.72921" lon="5.62105">
        <ele>444.186</ele>
        <time>2020-09-02T18:49:44Z</time>
      </trkpt>
      <trkpt lat="43.72915" lon="5.62098">
        <ele>443.739</ele>
        <time>2020-09-02T18:49:46Z</time>
      </trkpt>
      <trkpt lat="43.7291" lon="5.62095">
        <ele>443.841</ele>
        <time>2020-09-02T18:49:47Z</time>
      </trkpt>
      <trkpt lat="43.72905" lon="5.62088">
        <ele>442.681</ele>
        <time>2020-09-02T18:49:48Z</time>
      </trkpt>
      <trkpt lat="43.729" lon="5.62083">
        <ele>442.209</ele>
        <time>2020-09-02T18:49:49Z</time>
      </trkpt>
      <trkpt lat="43.72894" lon="5.62077">
        <ele>442.108</ele>
        <time>2020-09-02T18:49:50Z</time>
      </trkpt>
      <trkpt lat="43.72886" lon="5.6207">
        <ele>441.892</ele>
        <time>2020-09-02T18:49:51Z</time>
      </trkpt>
      <trkpt lat="43.72879" lon="5.62062">
        <ele>442.051</ele>
        <time>2020-09-02T18:49:52Z</time>
      </trkpt>
      <trkpt lat="43.7287" lon="5.62053">
        <ele>441.631</ele>
        <time>2020-09-02T18:49:53Z</time>
      </trkpt>
      <trkpt lat="43.72862" lon="5.62045">
        <ele>442.058</ele>
        <time>2020-09-02T18:49:54Z</time>
      </trkpt>
      <trkpt lat="43.72854" lon="5.62037">
        <ele>442.519</ele>
        <time>2020-09-02T18:49:55Z</time>
      </trkpt>
      <trkpt lat="43.72846" lon="5.62029">
        <ele>442.627</ele>
        <time>2020-09-02T18:49:56Z</time>
      </trkpt>
      <trkpt lat="43.72838" lon="5.62022">
        <ele>441.943</ele>
        <time>2020-09-02T18:49:57Z</time>
      </trkpt>
      <trkpt lat="43.72831" lon="5.62012">
        <ele>441.156</ele>
        <time>2020-09-02T18:49:58Z</time>
      </trkpt>
      <trkpt lat="43.72824" lon="5.62004">
        <ele>441.259</ele>
        <time>2020-09-02T18:49:59Z</time>
      </trkpt>
      <trkpt lat="43.72817" lon="5.61996">
        <ele>440.303</ele>
        <time>2020-09-02T18:50:00Z</time>
      </trkpt>
      <trkpt lat="43.72809" lon="5.61988">
        <ele>439.523</ele>
        <time>2020-09-02T18:50:01Z</time>
      </trkpt>
      <trkpt lat="43.72801" lon="5.61981">
        <ele>438.408</ele>
        <time>2020-09-02T18:50:02Z</time>
      </trkpt>
      <trkpt lat="43.72794" lon="5.61973">
        <ele>437.763</ele>
        <time>2020-09-02T18:50:03Z</time>
      </trkpt>
      <trkpt lat="43.72786" lon="5.61964">
        <ele>437.162</ele>
        <time>2020-09-02T18:50:04Z</time>
      </trkpt>
      <trkpt lat="43.72777" lon="5.61954">
        <ele>436.052</ele>
        <time>2020-09-02T18:50:05Z</time>
      </trkpt>
      <trkpt lat="43.72769" lon="5.61945">
        <ele>435.599</ele>
        <time>2020-09-02T18:50:06Z</time>
      </trkpt>
      <trkpt lat="43.7276" lon="5.61935">
        <ele>434.88</ele>
        <time>2020-09-02T18:50:07Z</time>
      </trkpt>
      <trkpt lat="43.72751" lon="5.61926">
        <ele>434.748</ele>
        <time>2020-09-02T18:50:08Z</time>
      </trkpt>
      <trkpt lat="43.72743" lon="5.61919">
        <ele>434.364</ele>
        <time>2020-09-02T18:50:09Z</time>
      </trkpt>
      <trkpt lat="43.72735" lon="5.61912">
        <ele>433.997</ele>
        <time>2020-09-02T18:50:10Z</time>
      </trkpt>
      <trkpt lat="43.72728" lon="5.61904">
        <ele>432.876</ele>
        <time>2020-09-02T18:50:11Z</time>
      </trkpt>
      <trkpt lat="43.72721" lon="5.61896">
        <ele>432.59</ele>
        <time>2020-09-02T18:50:12Z</time>
      </trkpt>
      <trkpt lat="43.72713" lon="5.61887">
        <ele>432.319</ele>
        <time>2020-09-02T18:50:13Z</time>
      </trkpt>
      <trkpt lat="43.72706" lon="5.61879">
        <ele>432.008</ele>
        <time>2020-09-02T18:50:14Z</time>
      </trkpt>
      <trkpt lat="43.72698" lon="5.61871">
        <ele>431.985</ele>
        <time>2020-09-02T18:50:15Z</time>
      </trkpt>
      <trkpt lat="43.72692" lon="5.61864">
        <ele>431.854</ele>
        <time>2020-09-02T18:50:16Z</time>
      </trkpt>
      <trkpt lat="43.72685" lon="5.61857">
        <ele>432.154</ele>
        <time>2020-09-02T18:50:17Z</time>
      </trkpt>
      <trkpt lat="43.72679" lon="5.61851">
        <ele>432.361</ele>
        <time>2020-09-02T18:50:18Z</time>
      </trkpt>
      <trkpt lat="43.72672" lon="5.61843">
        <ele>432.882</ele>
        <time>2020-09-02T18:50:19Z</time>
      </trkpt>
      <trkpt lat="43.72665" lon="5.61836">
        <ele>432.53</ele>
        <time>2020-09-02T18:50:20Z</time>
      </trkpt>
      <trkpt lat="43.72658" lon="5.6183">
        <ele>432.756</ele>
        <time>2020-09-02T18:50:21Z</time>
      </trkpt>
      <trkpt lat="43.72652" lon="5.61824">
        <ele>433.049</ele>
        <time>2020-09-02T18:50:22Z</time>
      </trkpt>
      <trkpt lat="43.72647" lon="5.61819">
        <ele>433.432</ele>
        <time>2020-09-02T18:50:23Z</time>
      </trkpt>
      <trkpt lat="43.72643" lon="5.61814">
        <ele>433.492</ele>
        <time>2020-09-02T18:50:24Z</time>
      </trkpt>
      <trkpt lat="43.72638" lon="5.61812">
        <ele>433.411</ele>
        <time>2020-09-02T18:50:25Z</time>
      </trkpt>
      <trkpt lat="43.72634" lon="5.61808">
        <ele>432.908</ele>
        <time>2020-09-02T18:50:26Z</time>
      </trkpt>
      <trkpt lat="43.72626" lon="5.61804">
        <ele>432.371</ele>
        <time>2020-09-02T18:50:28Z</time>
      </trkpt>
      <trkpt lat="43.72618" lon="5.61804">
        <ele>430.69</ele>
        <time>2020-09-02T18:50:30Z</time>
      </trkpt>
      <trkpt lat="43.72613" lon="5.61805">
        <ele>430.67</ele>
        <time>2020-09-02T18:50:31Z</time>
      </trkpt>
      <trkpt lat="43.72608" lon="5.61804">
        <ele>430.337</ele>
        <time>2020-09-02T18:50:32Z</time>
      </trkpt>
      <trkpt lat="43.72604" lon="5.61803">
        <ele>430.128</ele>
        <time>2020-09-02T18:50:33Z</time>
      </trkpt>
      <trkpt lat="43.72598" lon="5.61803">
        <ele>430.046</ele>
        <time>2020-09-02T18:50:35Z</time>
      </trkpt>
      <trkpt lat="43.72602" lon="5.61799">
        <ele>429.712</ele>
        <time>2020-09-02T18:50:40Z</time>
      </trkpt>
      <trkpt lat="43.7261" lon="5.61801">
        <ele>429.955</ele>
        <time>2020-09-02T18:50:42Z</time>
      </trkpt>
      <trkpt lat="43.72616" lon="5.61801">
        <ele>429.951</ele>
        <time>2020-09-02T18:50:43Z</time>
      </trkpt>
      <trkpt lat="43.72623" lon="5.61796">
        <ele>430.701</ele>
        <time>2020-09-02T18:50:45Z</time>
      </trkpt>
      <trkpt lat="43.72627" lon="5.61783">
        <ele>431.411</ele>
        <time>2020-09-02T18:50:47Z</time>
      </trkpt>
      <trkpt lat="43.72628" lon="5.61775">
        <ele>431.308</ele>
        <time>2020-09-02T18:50:48Z</time>
      </trkpt>
      <trkpt lat="43.72629" lon="5.61766">
        <ele>431.633</ele>
        <time>2020-09-02T18:50:49Z</time>
      </trkpt>
      <trkpt lat="43.72628" lon="5.61757">
        <ele>431.872</ele>
        <time>2020-09-02T18:50:50Z</time>
      </trkpt>
      <trkpt lat="43.72627" lon="5.6175">
        <ele>431.082</ele>
        <time>2020-09-02T18:50:51Z</time>
      </trkpt>
      <trkpt lat="43.72625" lon="5.61743">
        <ele>431.079</ele>
        <time>2020-09-02T18:50:52Z</time>
      </trkpt>
      <trkpt lat="43.72624" lon="5.61735">
        <ele>431.35</ele>
        <time>2020-09-02T18:50:53Z</time>
      </trkpt>
      <trkpt lat="43.72624" lon="5.61726">
        <ele>431.048</ele>
        <time>2020-09-02T18:50:54Z</time>
      </trkpt>
      <trkpt lat="43.72623" lon="5.61719">
        <ele>430.274</ele>
        <time>2020-09-02T18:50:55Z</time>
      </trkpt>
      <trkpt lat="43.72622" lon="5.61713">
        <ele>430.047</ele>
        <time>2020-09-02T18:50:56Z</time>
      </trkpt>
      <trkpt lat="43.72617" lon="5.61703">
        <ele>429.964</ele>
        <time>2020-09-02T18:50:58Z</time>
      </trkpt>
      <trkpt lat="43.72614" lon="5.61695">
        <ele>430.106</ele>
        <time>2020-09-02T18:51:00Z</time>
      </trkpt>
      <trkpt lat="43.72618" lon="5.61686">
        <ele>429.616</ele>
        <time>2020-09-02T18:51:03Z</time>
      </trkpt>
      <trkpt lat="43.72624" lon="5.61684">
        <ele>429.108</ele>
        <time>2020-09-02T18:51:04Z</time>
      </trkpt>
      <trkpt lat="43.72631" lon="5.61682">
        <ele>429.324</ele>
        <time>2020-09-02T18:51:05Z</time>
      </trkpt>
      <trkpt lat="43.72638" lon="5.61678">
        <ele>429.543</ele>
        <time>2020-09-02T18:51:06Z</time>
      </trkpt>
      <trkpt lat="43.72646" lon="5.61675">
        <ele>429.883</ele>
        <time>2020-09-02T18:51:07Z</time>
      </trkpt>
      <trkpt lat="43.72654" lon="5.6167">
        <ele>430.44</ele>
        <time>2020-09-02T18:51:08Z</time>
      </trkpt>
      <trkpt lat="43.72662" lon="5.61665">
        <ele>430.731</ele>
        <time>2020-09-02T18:51:09Z</time>
      </trkpt>
      <trkpt lat="43.72672" lon="5.61659">
        <ele>431.129</ele>
        <time>2020-09-02T18:51:10Z</time>
      </trkpt>
      <trkpt lat="43.72683" lon="5.61654">
        <ele>431.985</ele>
        <time>2020-09-02T18:51:11Z</time>
      </trkpt>
      <trkpt lat="43.72693" lon="5.6165">
        <ele>433.068</ele>
        <time>2020-09-02T18:51:12Z</time>
      </trkpt>
      <trkpt lat="43.72705" lon="5.61647">
        <ele>433.526</ele>
        <time>2020-09-02T18:51:13Z</time>
      </trkpt>
      <trkpt lat="43.72717" lon="5.6164">
        <ele>433.247</ele>
        <time>2020-09-02T18:51:14Z</time>
      </trkpt>
      <trkpt lat="43.72729" lon="5.61634">
        <ele>433.511</ele>
        <time>2020-09-02T18:51:15Z</time>
      </trkpt>
      <trkpt lat="43.7274" lon="5.61625">
        <ele>434.108</ele>
        <time>2020-09-02T18:51:16Z</time>
      </trkpt>
      <trkpt lat="43.72751" lon="5.61616">
        <ele>434.91</ele>
        <time>2020-09-02T18:51:17Z</time>
      </trkpt>
      <trkpt lat="43.72761" lon="5.61605">
        <ele>435.739</ele>
        <time>2020-09-02T18:51:18Z</time>
      </trkpt>
      <trkpt lat="43.72772" lon="5.61594">
        <ele>435.779</ele>
        <time>2020-09-02T18:51:19Z</time>
      </trkpt>
      <trkpt lat="43.72782" lon="5.61581">
        <ele>436.326</ele>
        <time>2020-09-02T18:51:20Z</time>
      </trkpt>
      <trkpt lat="43.72793" lon="5.61568">
        <ele>436.817</ele>
        <time>2020-09-02T18:51:21Z</time>
      </trkpt>
      <trkpt lat="43.72804" lon="5.61555">
        <ele>437.145</ele>
        <time>2020-09-02T18:51:22Z</time>
      </trkpt>
      <trkpt lat="43.72816" lon="5.61541">
        <ele>437.071</ele>
        <time>2020-09-02T18:51:23Z</time>
      </trkpt>
      <trkpt lat="43.72828" lon="5.61528">
        <ele>437.664</ele>
        <time>2020-09-02T18:51:24Z</time>
      </trkpt>
      <trkpt lat="43.7284" lon="5.61514">
        <ele>438.379</ele>
        <time>2020-09-02T18:51:25Z</time>
      </trkpt>
      <trkpt lat="43.72852" lon="5.61499">
        <ele>439.105</ele>
        <time>2020-09-02T18:51:26Z</time>
      </trkpt>
      <trkpt lat="43.72865" lon="5.61484">
        <ele>439.825</ele>
        <time>2020-09-02T18:51:27Z</time>
      </trkpt>
      <trkpt lat="43.72878" lon="5.6147">
        <ele>439.808</ele>
        <time>2020-09-02T18:51:28Z</time>
      </trkpt>
      <trkpt lat="43.72891" lon="5.61455">
        <ele>440.385</ele>
        <time>2020-09-02T18:51:29Z</time>
      </trkpt>
      <trkpt lat="43.72903" lon="5.61441">
        <ele>440.554</ele>
        <time>2020-09-02T18:51:30Z</time>
      </trkpt>
      <trkpt lat="43.72915" lon="5.61428">
        <ele>441.294</ele>
        <time>2020-09-02T18:51:31Z</time>
      </trkpt>
      <trkpt lat="43.72927" lon="5.61413">
        <ele>441.241</ele>
        <time>2020-09-02T18:51:32Z</time>
      </trkpt>
      <trkpt lat="43.72939" lon="5.614">
        <ele>441.322</ele>
        <time>2020-09-02T18:51:33Z</time>
      </trkpt>
      <trkpt lat="43.72951" lon="5.61388">
        <ele>441.85</ele>
        <time>2020-09-02T18:51:34Z</time>
      </trkpt>
      <trkpt lat="43.72963" lon="5.61379">
        <ele>442.796</ele>
        <time>2020-09-02T18:51:35Z</time>
      </trkpt>
      <trkpt lat="43.72977" lon="5.6137">
        <ele>443.589</ele>
        <time>2020-09-02T18:51:36Z</time>
      </trkpt>
      <trkpt lat="43.7299" lon="5.61363">
        <ele>444.827</ele>
        <time>2020-09-02T18:51:37Z</time>
      </trkpt>
      <trkpt lat="43.73002" lon="5.61357">
        <ele>445.568</ele>
        <time>2020-09-02T18:51:38Z</time>
      </trkpt>
      <trkpt lat="43.73014" lon="5.61354">
        <ele>446.214</ele>
        <time>2020-09-02T18:51:39Z</time>
      </trkpt>
      <trkpt lat="43.73025" lon="5.61352">
        <ele>446.708</ele>
        <time>2020-09-02T18:51:40Z</time>
      </trkpt>
      <trkpt lat="43.73036" lon="5.6135">
        <ele>447.37</ele>
        <time>2020-09-02T18:51:41Z</time>
      </trkpt>
      <trkpt lat="43.73046" lon="5.6135">
        <ele>448.059</ele>
        <time>2020-09-02T18:51:42Z</time>
      </trkpt>
      <trkpt lat="43.73053" lon="5.6135">
        <ele>448.869</ele>
        <time>2020-09-02T18:51:43Z</time>
      </trkpt>
      <trkpt lat="43.7306" lon="5.6135">
        <ele>449.186</ele>
        <time>2020-09-02T18:51:45Z</time>
      </trkpt>
      <trkpt lat="43.73061" lon="5.61342">
        <ele>450.147</ele>
        <time>2020-09-02T18:51:48Z</time>
      </trkpt>
      <trkpt lat="43.73056" lon="5.6134">
        <ele>451.725</ele>
        <time>2020-09-02T18:52:01Z</time>
      </trkpt>
      <trkpt lat="43.73052" lon="5.61339">
        <ele>450.811</ele>
        <time>2020-09-02T18:52:07Z</time>
      </trkpt>
      <trkpt lat="43.73046" lon="5.61336">
        <ele>451.594</ele>
        <time>2020-09-02T18:52:09Z</time>
      </trkpt>
      <trkpt lat="43.73044" lon="5.61328">
        <ele>453.249</ele>
        <time>2020-09-02T18:52:12Z</time>
      </trkpt>
      <trkpt lat="43.7306" lon="5.61322">
        <ele>453.602</ele>
        <time>2020-09-02T18:52:14Z</time>
      </trkpt>
      <trkpt lat="43.73068" lon="5.61326">
        <ele>454.722</ele>
        <time>2020-09-02T18:52:16Z</time>
      </trkpt>
      <trkpt lat="43.73075" lon="5.6133">
        <ele>455.908</ele>
        <time>2020-09-02T18:52:18Z</time>
      </trkpt>
      <trkpt lat="43.7308" lon="5.61332">
        <ele>456.612</ele>
        <time>2020-09-02T18:52:19Z</time>
      </trkpt>
      <trkpt lat="43.73085" lon="5.61331">
        <ele>456.521</ele>
        <time>2020-09-02T18:52:20Z</time>
      </trkpt>
      <trkpt lat="43.7309" lon="5.61332">
        <ele>457.071</ele>
        <time>2020-09-02T18:52:21Z</time>
      </trkpt>
      <trkpt lat="43.73095" lon="5.61332">
        <ele>457.688</ele>
        <time>2020-09-02T18:52:22Z</time>
      </trkpt>
      <trkpt lat="43.731" lon="5.61333">
        <ele>458.059</ele>
        <time>2020-09-02T18:52:23Z</time>
      </trkpt>
      <trkpt lat="43.73106" lon="5.61334">
        <ele>458.577</ele>
        <time>2020-09-02T18:52:24Z</time>
      </trkpt>
      <trkpt lat="43.73111" lon="5.61334">
        <ele>460.163</ele>
        <time>2020-09-02T18:52:25Z</time>
      </trkpt>
      <trkpt lat="43.73116" lon="5.61334">
        <ele>460.086</ele>
        <time>2020-09-02T18:52:26Z</time>
      </trkpt>
      <trkpt lat="43.73123" lon="5.61329">
        <ele>461.764</ele>
        <time>2020-09-02T18:52:28Z</time>
      </trkpt>
      <trkpt lat="43.7312" lon="5.61317">
        <ele>464.006</ele>
        <time>2020-09-02T18:52:30Z</time>
      </trkpt>
      <trkpt lat="43.73116" lon="5.61311">
        <ele>465.316</ele>
        <time>2020-09-02T18:52:31Z</time>
      </trkpt>
      <trkpt lat="43.73112" lon="5.61306">
        <ele>466.008</ele>
        <time>2020-09-02T18:52:32Z</time>
      </trkpt>
      <trkpt lat="43.73109" lon="5.61298">
        <ele>466.324</ele>
        <time>2020-09-02T18:52:33Z</time>
      </trkpt>
      <trkpt lat="43.73106" lon="5.61292">
        <ele>466.863</ele>
        <time>2020-09-02T18:52:34Z</time>
      </trkpt>
      <trkpt lat="43.73101" lon="5.61289">
        <ele>467.263</ele>
        <time>2020-09-02T18:52:35Z</time>
      </trkpt>
      <trkpt lat="43.73097" lon="5.61283">
        <ele>467.29</ele>
        <time>2020-09-02T18:52:36Z</time>
      </trkpt>
      <trkpt lat="43.73094" lon="5.61276">
        <ele>467.421</ele>
        <time>2020-09-02T18:52:37Z</time>
      </trkpt>
      <trkpt lat="43.7309" lon="5.61269">
        <ele>467.319</ele>
        <time>2020-09-02T18:52:38Z</time>
      </trkpt>
      <trkpt lat="43.73088" lon="5.61263">
        <ele>467.915</ele>
        <time>2020-09-02T18:52:39Z</time>
      </trkpt>
      <trkpt lat="43.73087" lon="5.61256">
        <ele>467.678</ele>
        <time>2020-09-02T18:52:40Z</time>
      </trkpt>
      <trkpt lat="43.73089" lon="5.61249">
        <ele>467.453</ele>
        <time>2020-09-02T18:52:42Z</time>
      </trkpt>
      <trkpt lat="43.73096" lon="5.61246">
        <ele>468.904</ele>
        <time>2020-09-02T18:52:44Z</time>
      </trkpt>
      <trkpt lat="43.73105" lon="5.61244">
        <ele>470.814</ele>
        <time>2020-09-02T18:52:46Z</time>
      </trkpt>
      <trkpt lat="43.73113" lon="5.61246">
        <ele>472.608</ele>
        <time>2020-09-02T18:52:48Z</time>
      </trkpt>
      <trkpt lat="43.73119" lon="5.61245">
        <ele>473.123</ele>
        <time>2020-09-02T18:52:50Z</time>
      </trkpt>
      <trkpt lat="43.73124" lon="5.61245">
        <ele>473.582</ele>
        <time>2020-09-02T18:53:26Z</time>
      </trkpt>
      <trkpt lat="43.73131" lon="5.61242">
        <ele>474.022</ele>
        <time>2020-09-02T18:53:28Z</time>
      </trkpt>
      <trkpt lat="43.73136" lon="5.61237">
        <ele>475.099</ele>
        <time>2020-09-02T18:53:29Z</time>
      </trkpt>
      <trkpt lat="43.73139" lon="5.61232">
        <ele>475.09</ele>
        <time>2020-09-02T18:53:30Z</time>
      </trkpt>
      <trkpt lat="43.73143" lon="5.61227">
        <ele>475.858</ele>
        <time>2020-09-02T18:53:31Z</time>
      </trkpt>
      <trkpt lat="43.73146" lon="5.61222">
        <ele>476.174</ele>
        <time>2020-09-02T18:53:32Z</time>
      </trkpt>
      <trkpt lat="43.7315" lon="5.61218">
        <ele>476.627</ele>
        <time>2020-09-02T18:53:33Z</time>
      </trkpt>
      <trkpt lat="43.73154" lon="5.61214">
        <ele>477.173</ele>
        <time>2020-09-02T18:53:34Z</time>
      </trkpt>
      <trkpt lat="43.73158" lon="5.61209">
        <ele>478.085</ele>
        <time>2020-09-02T18:53:35Z</time>
      </trkpt>
      <trkpt lat="43.73161" lon="5.61204">
        <ele>478.513</ele>
        <time>2020-09-02T18:53:36Z</time>
      </trkpt>
      <trkpt lat="43.73164" lon="5.61199">
        <ele>479.508</ele>
        <time>2020-09-02T18:53:37Z</time>
      </trkpt>
      <trkpt lat="43.7317" lon="5.61191">
        <ele>480.355</ele>
        <time>2020-09-02T18:53:39Z</time>
      </trkpt>
      <trkpt lat="43.73174" lon="5.61183">
        <ele>481.364</ele>
        <time>2020-09-02T18:53:41Z</time>
      </trkpt>
      <trkpt lat="43.73177" lon="5.61178">
        <ele>482.464</ele>
        <time>2020-09-02T18:53:43Z</time>
      </trkpt>
      <trkpt lat="43.73182" lon="5.61172">
        <ele>482.941</ele>
        <time>2020-09-02T18:53:46Z</time>
      </trkpt>
      <trkpt lat="43.73187" lon="5.61167">
        <ele>483.432</ele>
        <time>2020-09-02T18:53:48Z</time>
      </trkpt>
      <trkpt lat="43.73193" lon="5.61162">
        <ele>485.69</ele>
        <time>2020-09-02T18:54:11Z</time>
      </trkpt>
      <trkpt lat="43.732" lon="5.61158">
        <ele>485.916</ele>
        <time>2020-09-02T18:54:12Z</time>
      </trkpt>
      <trkpt lat="43.73204" lon="5.61155">
        <ele>486.769</ele>
        <time>2020-09-02T18:54:13Z</time>
      </trkpt>
      <trkpt lat="43.73209" lon="5.61151">
        <ele>487.266</ele>
        <time>2020-09-02T18:54:14Z</time>
      </trkpt>
      <trkpt lat="43.73213" lon="5.61147">
        <ele>487.529</ele>
        <time>2020-09-02T18:54:15Z</time>
      </trkpt>
      <trkpt lat="43.73221" lon="5.61144">
        <ele>488.221</ele>
        <time>2020-09-02T18:54:16Z</time>
      </trkpt>
      <trkpt lat="43.73228" lon="5.61139">
        <ele>489.108</ele>
        <time>2020-09-02T18:54:17Z</time>
      </trkpt>
      <trkpt lat="43.73235" lon="5.61135">
        <ele>489.594</ele>
        <time>2020-09-02T18:54:18Z</time>
      </trkpt>
      <trkpt lat="43.73241" lon="5.61131">
        <ele>490.493</ele>
        <time>2020-09-02T18:54:19Z</time>
      </trkpt>
      <trkpt lat="43.73249" lon="5.61129">
        <ele>492.113</ele>
        <time>2020-09-02T18:54:20Z</time>
      </trkpt>
      <trkpt lat="43.73256" lon="5.61126">
        <ele>492.69</ele>
        <time>2020-09-02T18:54:21Z</time>
      </trkpt>
      <trkpt lat="43.73263" lon="5.61123">
        <ele>493.041</ele>
        <time>2020-09-02T18:54:22Z</time>
      </trkpt>
      <trkpt lat="43.73271" lon="5.61117">
        <ele>493.369</ele>
        <time>2020-09-02T18:54:23Z</time>
      </trkpt>
      <trkpt lat="43.73279" lon="5.61112">
        <ele>493.945</ele>
        <time>2020-09-02T18:54:24Z</time>
      </trkpt>
      <trkpt lat="43.73285" lon="5.61103">
        <ele>493.688</ele>
        <time>2020-09-02T18:54:25Z</time>
      </trkpt>
      <trkpt lat="43.73292" lon="5.61096">
        <ele>493.127</ele>
        <time>2020-09-02T18:54:26Z</time>
      </trkpt>
      <trkpt lat="43.73298" lon="5.61087">
        <ele>493.368</ele>
        <time>2020-09-02T18:54:27Z</time>
      </trkpt>
      <trkpt lat="43.73305" lon="5.61078">
        <ele>493.414</ele>
        <time>2020-09-02T18:54:28Z</time>
      </trkpt>
      <trkpt lat="43.73312" lon="5.61069">
        <ele>493.708</ele>
        <time>2020-09-02T18:54:29Z</time>
      </trkpt>
      <trkpt lat="43.73319" lon="5.61061">
        <ele>492.95</ele>
        <time>2020-09-02T18:54:30Z</time>
      </trkpt>
      <trkpt lat="43.73325" lon="5.61052">
        <ele>493.249</ele>
        <time>2020-09-02T18:54:31Z</time>
      </trkpt>
      <trkpt lat="43.73332" lon="5.61047">
        <ele>492.889</ele>
        <time>2020-09-02T18:54:32Z</time>
      </trkpt>
      <trkpt lat="43.73338" lon="5.61042">
        <ele>493.436</ele>
        <time>2020-09-02T18:54:33Z</time>
      </trkpt>
      <trkpt lat="43.73345" lon="5.61039">
        <ele>494.157</ele>
        <time>2020-09-02T18:54:34Z</time>
      </trkpt>
      <trkpt lat="43.73352" lon="5.61032">
        <ele>494.115</ele>
        <time>2020-09-02T18:54:35Z</time>
      </trkpt>
      <trkpt lat="43.73358" lon="5.61026">
        <ele>494.681</ele>
        <time>2020-09-02T18:54:36Z</time>
      </trkpt>
      <trkpt lat="43.73364" lon="5.61019">
        <ele>495.334</ele>
        <time>2020-09-02T18:54:37Z</time>
      </trkpt>
      <trkpt lat="43.7337" lon="5.61013">
        <ele>495.567</ele>
        <time>2020-09-02T18:54:38Z</time>
      </trkpt>
      <trkpt lat="43.73375" lon="5.61012">
        <ele>496.481</ele>
        <time>2020-09-02T18:54:39Z</time>
      </trkpt>
      <trkpt lat="43.73384" lon="5.61008">
        <ele>498.019</ele>
        <time>2020-09-02T18:54:41Z</time>
      </trkpt>
      <trkpt lat="43.73389" lon="5.61006">
        <ele>498.808</ele>
        <time>2020-09-02T18:54:42Z</time>
      </trkpt>
      <trkpt lat="43.73393" lon="5.61005">
        <ele>498.614</ele>
        <time>2020-09-02T18:54:44Z</time>
      </trkpt>
      <trkpt lat="43.73397" lon="5.61002">
        <ele>499.493</ele>
        <time>2020-09-02T18:54:46Z</time>
      </trkpt>
      <trkpt lat="43.73406" lon="5.61">
        <ele>499.953</ele>
        <time>2020-09-02T18:54:48Z</time>
      </trkpt>
      <trkpt lat="43.7341" lon="5.60997">
        <ele>499.96</ele>
        <time>2020-09-02T18:54:49Z</time>
      </trkpt>
      <trkpt lat="43.73415" lon="5.60993">
        <ele>500.051</ele>
        <time>2020-09-02T18:54:51Z</time>
      </trkpt>
      <trkpt lat="43.73416" lon="5.61002">
        <ele>503.219</ele>
        <time>2020-09-02T18:55:01Z</time>
      </trkpt>
      <trkpt lat="43.73418" lon="5.61011">
        <ele>503.085</ele>
        <time>2020-09-02T18:55:03Z</time>
      </trkpt>
      <trkpt lat="43.73421" lon="5.61019">
        <ele>503.198</ele>
        <time>2020-09-02T18:55:05Z</time>
      </trkpt>
      <trkpt lat="43.73426" lon="5.61026">
        <ele>503.921</ele>
        <time>2020-09-02T18:55:07Z</time>
      </trkpt>
      <trkpt lat="43.7343" lon="5.61036">
        <ele>505.041</ele>
        <time>2020-09-02T18:55:09Z</time>
      </trkpt>
      <trkpt lat="43.73432" lon="5.61046">
        <ele>506.105</ele>
        <time>2020-09-02T18:55:11Z</time>
      </trkpt>
      <trkpt lat="43.73435" lon="5.61054">
        <ele>507.408</ele>
        <time>2020-09-02T18:55:13Z</time>
      </trkpt>
      <trkpt lat="43.73439" lon="5.61062">
        <ele>508.28</ele>
        <time>2020-09-02T18:55:15Z</time>
      </trkpt>
      <trkpt lat="43.73444" lon="5.61071">
        <ele>509.299</ele>
        <time>2020-09-02T18:55:17Z</time>
      </trkpt>
      <trkpt lat="43.73449" lon="5.6108">
        <ele>510.659</ele>
        <time>2020-09-02T18:55:19Z</time>
      </trkpt>
      <trkpt lat="43.73455" lon="5.61087">
        <ele>512.576</ele>
        <time>2020-09-02T18:55:21Z</time>
      </trkpt>
      <trkpt lat="43.73461" lon="5.61093">
        <ele>513.157</ele>
        <time>2020-09-02T18:55:23Z</time>
      </trkpt>
      <trkpt lat="43.73468" lon="5.611">
        <ele>513.535</ele>
        <time>2020-09-02T18:55:25Z</time>
      </trkpt>
      <trkpt lat="43.73474" lon="5.61105">
        <ele>514.861</ele>
        <time>2020-09-02T18:55:27Z</time>
      </trkpt>
      <trkpt lat="43.73479" lon="5.61113">
        <ele>515.114</ele>
        <time>2020-09-02T18:55:29Z</time>
      </trkpt>
      <trkpt lat="43.73485" lon="5.61123">
        <ele>513.694</ele>
        <time>2020-09-02T18:55:31Z</time>
      </trkpt>
      <trkpt lat="43.73489" lon="5.61128">
        <ele>515.157</ele>
        <time>2020-09-02T18:55:32Z</time>
      </trkpt>
      <trkpt lat="43.73493" lon="5.61134">
        <ele>515.422</ele>
        <time>2020-09-02T18:55:33Z</time>
      </trkpt>
      <trkpt lat="43.73497" lon="5.61146">
        <ele>516.308</ele>
        <time>2020-09-02T18:55:35Z</time>
      </trkpt>
      <trkpt lat="43.735" lon="5.61152">
        <ele>516.697</ele>
        <time>2020-09-02T18:55:36Z</time>
      </trkpt>
      <trkpt lat="43.73506" lon="5.61161">
        <ele>517.136</ele>
        <time>2020-09-02T18:55:38Z</time>
      </trkpt>
      <trkpt lat="43.73513" lon="5.61169">
        <ele>518.996</ele>
        <time>2020-09-02T18:55:40Z</time>
      </trkpt>
      <trkpt lat="43.73521" lon="5.61175">
        <ele>519.343</ele>
        <time>2020-09-02T18:55:42Z</time>
      </trkpt>
      <trkpt lat="43.73526" lon="5.61179">
        <ele>519.354</ele>
        <time>2020-09-02T18:55:43Z</time>
      </trkpt>
      <trkpt lat="43.73531" lon="5.61183">
        <ele>520.332</ele>
        <time>2020-09-02T18:55:44Z</time>
      </trkpt>
      <trkpt lat="43.73535" lon="5.61186">
        <ele>520.888</ele>
        <time>2020-09-02T18:55:45Z</time>
      </trkpt>
      <trkpt lat="43.7354" lon="5.61189">
        <ele>521.551</ele>
        <time>2020-09-02T18:55:46Z</time>
      </trkpt>
      <trkpt lat="43.73548" lon="5.61193">
        <ele>523.279</ele>
        <time>2020-09-02T18:55:48Z</time>
      </trkpt>
      <trkpt lat="43.73553" lon="5.61196">
        <ele>523.305</ele>
        <time>2020-09-02T18:55:49Z</time>
      </trkpt>
      <trkpt lat="43.73557" lon="5.61199">
        <ele>523.925</ele>
        <time>2020-09-02T18:55:50Z</time>
      </trkpt>
      <trkpt lat="43.73561" lon="5.61203">
        <ele>523.808</ele>
        <time>2020-09-02T18:55:51Z</time>
      </trkpt>
      <trkpt lat="43.73566" lon="5.61205">
        <ele>524.475</ele>
        <time>2020-09-02T18:55:52Z</time>
      </trkpt>
      <trkpt lat="43.7357" lon="5.61209">
        <ele>524.574</ele>
        <time>2020-09-02T18:55:53Z</time>
      </trkpt>
      <trkpt lat="43.73574" lon="5.61212">
        <ele>524.474</ele>
        <time>2020-09-02T18:55:54Z</time>
      </trkpt>
      <trkpt lat="43.73581" lon="5.61219">
        <ele>524.541</ele>
        <time>2020-09-02T18:55:56Z</time>
      </trkpt>
      <trkpt lat="43.73586" lon="5.61226">
        <ele>526.792</ele>
        <time>2020-09-02T18:55:58Z</time>
      </trkpt>
      <trkpt lat="43.73591" lon="5.61231">
        <ele>526.98</ele>
        <time>2020-09-02T18:55:59Z</time>
      </trkpt>
      <trkpt lat="43.73595" lon="5.61234">
        <ele>528.016</ele>
        <time>2020-09-02T18:56:00Z</time>
      </trkpt>
      <trkpt lat="43.73603" lon="5.61238">
        <ele>528.599</ele>
        <time>2020-09-02T18:56:02Z</time>
      </trkpt>
      <trkpt lat="43.73613" lon="5.61236">
        <ele>529.066</ele>
        <time>2020-09-02T18:56:04Z</time>
      </trkpt>
      <trkpt lat="43.73618" lon="5.61235">
        <ele>529.229</ele>
        <time>2020-09-02T18:56:05Z</time>
      </trkpt>
      <trkpt lat="43.73623" lon="5.61232">
        <ele>530.121</ele>
        <time>2020-09-02T18:56:06Z</time>
      </trkpt>
      <trkpt lat="43.73629" lon="5.6123">
        <ele>530.308</ele>
        <time>2020-09-02T18:56:07Z</time>
      </trkpt>
      <trkpt lat="43.73634" lon="5.61228">
        <ele>530.824</ele>
        <time>2020-09-02T18:56:08Z</time>
      </trkpt>
      <trkpt lat="43.73643" lon="5.6123">
        <ele>531.343</ele>
        <time>2020-09-02T18:56:10Z</time>
      </trkpt>
      <trkpt lat="43.73648" lon="5.61229">
        <ele>531.283</ele>
        <time>2020-09-02T18:56:11Z</time>
      </trkpt>
      <trkpt lat="43.73653" lon="5.61227">
        <ele>531.44</ele>
        <time>2020-09-02T18:56:12Z</time>
      </trkpt>
      <trkpt lat="43.73659" lon="5.61227">
        <ele>531.471</ele>
        <time>2020-09-02T18:56:13Z</time>
      </trkpt>
      <trkpt lat="43.73665" lon="5.61227">
        <ele>531.779</ele>
        <time>2020-09-02T18:56:14Z</time>
      </trkpt>
      <trkpt lat="43.73671" lon="5.61228">
        <ele>531.665</ele>
        <time>2020-09-02T18:56:15Z</time>
      </trkpt>
      <trkpt lat="43.73677" lon="5.61232">
        <ele>532.328</ele>
        <time>2020-09-02T18:56:16Z</time>
      </trkpt>
      <trkpt lat="43.73682" lon="5.61233">
        <ele>533.196</ele>
        <time>2020-09-02T18:56:17Z</time>
      </trkpt>
      <trkpt lat="43.73688" lon="5.61233">
        <ele>533.431</ele>
        <time>2020-09-02T18:56:18Z</time>
      </trkpt>
      <trkpt lat="43.73694" lon="5.61232">
        <ele>533.724</ele>
        <time>2020-09-02T18:56:19Z</time>
      </trkpt>
      <trkpt lat="43.73699" lon="5.6123">
        <ele>534.008</ele>
        <time>2020-09-02T18:56:20Z</time>
      </trkpt>
      <trkpt lat="43.73704" lon="5.61228">
        <ele>534.477</ele>
        <time>2020-09-02T18:56:21Z</time>
      </trkpt>
      <trkpt lat="43.73709" lon="5.61227">
        <ele>535.966</ele>
        <time>2020-09-02T18:56:22Z</time>
      </trkpt>
      <trkpt lat="43.73714" lon="5.61226">
        <ele>536.326</ele>
        <time>2020-09-02T18:56:23Z</time>
      </trkpt>
      <trkpt lat="43.7372" lon="5.61225">
        <ele>536.823</ele>
        <time>2020-09-02T18:56:24Z</time>
      </trkpt>
      <trkpt lat="43.73729" lon="5.61227">
        <ele>537.364</ele>
        <time>2020-09-02T18:56:25Z</time>
      </trkpt>
      <trkpt lat="43.73737" lon="5.61224">
        <ele>538.192</ele>
        <time>2020-09-02T18:56:26Z</time>
      </trkpt>
      <trkpt lat="43.73745" lon="5.61223">
        <ele>538.678</ele>
        <time>2020-09-02T18:56:27Z</time>
      </trkpt>
      <trkpt lat="43.7375" lon="5.61221">
        <ele>539.211</ele>
        <time>2020-09-02T18:56:28Z</time>
      </trkpt>
      <trkpt lat="43.73757" lon="5.61217">
        <ele>539.465</ele>
        <time>2020-09-02T18:56:29Z</time>
      </trkpt>
      <trkpt lat="43.73763" lon="5.61214">
        <ele>539.568</ele>
        <time>2020-09-02T18:56:30Z</time>
      </trkpt>
      <trkpt lat="43.7377" lon="5.61209">
        <ele>539.114</ele>
        <time>2020-09-02T18:56:31Z</time>
      </trkpt>
      <trkpt lat="43.73777" lon="5.61206">
        <ele>539.408</ele>
        <time>2020-09-02T18:56:32Z</time>
      </trkpt>
      <trkpt lat="43.73784" lon="5.61204">
        <ele>539.684</ele>
        <time>2020-09-02T18:56:33Z</time>
      </trkpt>
      <trkpt lat="43.7379" lon="5.61202">
        <ele>539.943</ele>
        <time>2020-09-02T18:56:34Z</time>
      </trkpt>
      <trkpt lat="43.73798" lon="5.61202">
        <ele>538.483</ele>
        <time>2020-09-02T18:56:35Z</time>
      </trkpt>
      <trkpt lat="43.73805" lon="5.612">
        <ele>538.59</ele>
        <time>2020-09-02T18:56:36Z</time>
      </trkpt>
      <trkpt lat="43.73811" lon="5.61199">
        <ele>538.771</ele>
        <time>2020-09-02T18:56:37Z</time>
      </trkpt>
      <trkpt lat="43.73819" lon="5.61198">
        <ele>538.739</ele>
        <time>2020-09-02T18:56:38Z</time>
      </trkpt>
      <trkpt lat="43.73825" lon="5.61197">
        <ele>538.955</ele>
        <time>2020-09-02T18:56:39Z</time>
      </trkpt>
      <trkpt lat="43.73832" lon="5.61197">
        <ele>539.258</ele>
        <time>2020-09-02T18:56:40Z</time>
      </trkpt>
      <trkpt lat="43.73839" lon="5.61197">
        <ele>539.687</ele>
        <time>2020-09-02T18:56:41Z</time>
      </trkpt>
      <trkpt lat="43.73846" lon="5.61198">
        <ele>539.842</ele>
        <time>2020-09-02T18:56:42Z</time>
      </trkpt>
      <trkpt lat="43.73853" lon="5.612">
        <ele>540.126</ele>
        <time>2020-09-02T18:56:43Z</time>
      </trkpt>
      <trkpt lat="43.73858" lon="5.61202">
        <ele>540.208</ele>
        <time>2020-09-02T18:56:44Z</time>
      </trkpt>
      <trkpt lat="43.73864" lon="5.61203">
        <ele>540.746</ele>
        <time>2020-09-02T18:56:45Z</time>
      </trkpt>
      <trkpt lat="43.73871" lon="5.61204">
        <ele>540.955</ele>
        <time>2020-09-02T18:56:46Z</time>
      </trkpt>
      <trkpt lat="43.73878" lon="5.61205">
        <ele>541.185</ele>
        <time>2020-09-02T18:56:47Z</time>
      </trkpt>
      <trkpt lat="43.73883" lon="5.61206">
        <ele>540.862</ele>
        <time>2020-09-02T18:56:48Z</time>
      </trkpt>
      <trkpt lat="43.73889" lon="5.61209">
        <ele>541.183</ele>
        <time>2020-09-02T18:56:49Z</time>
      </trkpt>
      <trkpt lat="43.73893" lon="5.61213">
        <ele>541.761</ele>
        <time>2020-09-02T18:56:50Z</time>
      </trkpt>
      <trkpt lat="43.739" lon="5.61214">
        <ele>541.627</ele>
        <time>2020-09-02T18:56:51Z</time>
      </trkpt>
      <trkpt lat="43.73907" lon="5.61215">
        <ele>542.72</ele>
        <time>2020-09-02T18:56:52Z</time>
      </trkpt>
      <trkpt lat="43.73917" lon="5.61214">
        <ele>542.711</ele>
        <time>2020-09-02T18:56:54Z</time>
      </trkpt>
      <trkpt lat="43.73922" lon="5.61211">
        <ele>542.621</ele>
        <time>2020-09-02T18:56:55Z</time>
      </trkpt>
      <trkpt lat="43.73928" lon="5.61208">
        <ele>543.103</ele>
        <time>2020-09-02T18:56:56Z</time>
      </trkpt>
      <trkpt lat="43.73933" lon="5.61204">
        <ele>542.608</ele>
        <time>2020-09-02T18:56:57Z</time>
      </trkpt>
      <trkpt lat="43.73938" lon="5.61199">
        <ele>543.129</ele>
        <time>2020-09-02T18:56:58Z</time>
      </trkpt>
      <trkpt lat="43.73943" lon="5.61194">
        <ele>543.728</ele>
        <time>2020-09-02T18:56:59Z</time>
      </trkpt>
      <trkpt lat="43.73949" lon="5.61189">
        <ele>544.558</ele>
        <time>2020-09-02T18:57:00Z</time>
      </trkpt>
      <trkpt lat="43.73954" lon="5.61184">
        <ele>544.325</ele>
        <time>2020-09-02T18:57:01Z</time>
      </trkpt>
      <trkpt lat="43.73958" lon="5.6118">
        <ele>544.296</ele>
        <time>2020-09-02T18:57:02Z</time>
      </trkpt>
      <trkpt lat="43.73963" lon="5.61176">
        <ele>544.514</ele>
        <time>2020-09-02T18:57:03Z</time>
      </trkpt>
      <trkpt lat="43.73966" lon="5.61171">
        <ele>544.92</ele>
        <time>2020-09-02T18:57:04Z</time>
      </trkpt>
      <trkpt lat="43.73966" lon="5.61164">
        <ele>545.673</ele>
        <time>2020-09-02T18:57:06Z</time>
      </trkpt>
      <trkpt lat="43.73962" lon="5.61159">
        <ele>546.811</ele>
        <time>2020-09-02T18:57:08Z</time>
      </trkpt>
      <trkpt lat="43.73958" lon="5.61154">
        <ele>546.421</ele>
        <time>2020-09-02T18:57:09Z</time>
      </trkpt>
      <trkpt lat="43.73955" lon="5.61148">
        <ele>546.003</ele>
        <time>2020-09-02T18:57:10Z</time>
      </trkpt>
      <trkpt lat="43.73952" lon="5.61141">
        <ele>545.908</ele>
        <time>2020-09-02T18:57:11Z</time>
      </trkpt>
      <trkpt lat="43.73949" lon="5.61131">
        <ele>545.689</ele>
        <time>2020-09-02T18:57:12Z</time>
      </trkpt>
      <trkpt lat="43.73947" lon="5.61122">
        <ele>544.978</ele>
        <time>2020-09-02T18:57:13Z</time>
      </trkpt>
      <trkpt lat="43.73946" lon="5.61112">
        <ele>544.448</ele>
        <time>2020-09-02T18:57:14Z</time>
      </trkpt>
      <trkpt lat="43.73945" lon="5.611">
        <ele>544.355</ele>
        <time>2020-09-02T18:57:15Z</time>
      </trkpt>
      <trkpt lat="43.73946" lon="5.61087">
        <ele>544.426</ele>
        <time>2020-09-02T18:57:16Z</time>
      </trkpt>
      <trkpt lat="43.73947" lon="5.61073">
        <ele>544.454</ele>
        <time>2020-09-02T18:57:17Z</time>
      </trkpt>
      <trkpt lat="43.73948" lon="5.61059">
        <ele>543.63</ele>
        <time>2020-09-02T18:57:18Z</time>
      </trkpt>
      <trkpt lat="43.73951" lon="5.61043">
        <ele>543.523</ele>
        <time>2020-09-02T18:57:19Z</time>
      </trkpt>
      <trkpt lat="43.73954" lon="5.61028">
        <ele>542.754</ele>
        <time>2020-09-02T18:57:20Z</time>
      </trkpt>
      <trkpt lat="43.73957" lon="5.61012">
        <ele>542.056</ele>
        <time>2020-09-02T18:57:21Z</time>
      </trkpt>
      <trkpt lat="43.73962" lon="5.60996">
        <ele>541.811</ele>
        <time>2020-09-02T18:57:22Z</time>
      </trkpt>
      <trkpt lat="43.73968" lon="5.6098">
        <ele>541.508</ele>
        <time>2020-09-02T18:57:23Z</time>
      </trkpt>
      <trkpt lat="43.73974" lon="5.60965">
        <ele>541.023</ele>
        <time>2020-09-02T18:57:24Z</time>
      </trkpt>
      <trkpt lat="43.73981" lon="5.6095">
        <ele>541.322</ele>
        <time>2020-09-02T18:57:25Z</time>
      </trkpt>
      <trkpt lat="43.73988" lon="5.60937">
        <ele>540.712</ele>
        <time>2020-09-02T18:57:26Z</time>
      </trkpt>
      <trkpt lat="43.73995" lon="5.60924">
        <ele>540.069</ele>
        <time>2020-09-02T18:57:27Z</time>
      </trkpt>
      <trkpt lat="43.74003" lon="5.60911">
        <ele>539.84</ele>
        <time>2020-09-02T18:57:28Z</time>
      </trkpt>
      <trkpt lat="43.74013" lon="5.60899">
        <ele>539.848</ele>
        <time>2020-09-02T18:57:29Z</time>
      </trkpt>
      <trkpt lat="43.74023" lon="5.60886">
        <ele>540.034</ele>
        <time>2020-09-02T18:57:30Z</time>
      </trkpt>
      <trkpt lat="43.74034" lon="5.60872">
        <ele>539.957</ele>
        <time>2020-09-02T18:57:31Z</time>
      </trkpt>
      <trkpt lat="43.74045" lon="5.60858">
        <ele>539.198</ele>
        <time>2020-09-02T18:57:32Z</time>
      </trkpt>
      <trkpt lat="43.74055" lon="5.60846">
        <ele>538.815</ele>
        <time>2020-09-02T18:57:33Z</time>
      </trkpt>
      <trkpt lat="43.74063" lon="5.60832">
        <ele>538.926</ele>
        <time>2020-09-02T18:57:34Z</time>
      </trkpt>
      <trkpt lat="43.7407" lon="5.60817">
        <ele>538.508</ele>
        <time>2020-09-02T18:57:35Z</time>
      </trkpt>
      <trkpt lat="43.74076" lon="5.608">
        <ele>538.557</ele>
        <time>2020-09-02T18:57:36Z</time>
      </trkpt>
      <trkpt lat="43.74082" lon="5.60783">
        <ele>537.766</ele>
        <time>2020-09-02T18:57:37Z</time>
      </trkpt>
      <trkpt lat="43.74088" lon="5.60766">
        <ele>537.346</ele>
        <time>2020-09-02T18:57:38Z</time>
      </trkpt>
      <trkpt lat="43.74094" lon="5.6075">
        <ele>537.263</ele>
        <time>2020-09-02T18:57:39Z</time>
      </trkpt>
      <trkpt lat="43.74101" lon="5.60737">
        <ele>536.444</ele>
        <time>2020-09-02T18:57:40Z</time>
      </trkpt>
      <trkpt lat="43.7411" lon="5.60724">
        <ele>536.312</ele>
        <time>2020-09-02T18:57:41Z</time>
      </trkpt>
      <trkpt lat="43.74119" lon="5.60713">
        <ele>536.118</ele>
        <time>2020-09-02T18:57:42Z</time>
      </trkpt>
      <trkpt lat="43.7413" lon="5.60703">
        <ele>535.721</ele>
        <time>2020-09-02T18:57:43Z</time>
      </trkpt>
      <trkpt lat="43.74142" lon="5.60694">
        <ele>535.443</ele>
        <time>2020-09-02T18:57:44Z</time>
      </trkpt>
      <trkpt lat="43.74155" lon="5.60686">
        <ele>535.164</ele>
        <time>2020-09-02T18:57:45Z</time>
      </trkpt>
      <trkpt lat="43.74167" lon="5.60681">
        <ele>535.21</ele>
        <time>2020-09-02T18:57:46Z</time>
      </trkpt>
      <trkpt lat="43.7418" lon="5.60677">
        <ele>535.208</ele>
        <time>2020-09-02T18:57:47Z</time>
      </trkpt>
      <trkpt lat="43.74191" lon="5.60676">
        <ele>535.162</ele>
        <time>2020-09-02T18:57:48Z</time>
      </trkpt>
      <trkpt lat="43.74203" lon="5.60677">
        <ele>535.051</ele>
        <time>2020-09-02T18:57:49Z</time>
      </trkpt>
      <trkpt lat="43.74214" lon="5.60681">
        <ele>534.761</ele>
        <time>2020-09-02T18:57:50Z</time>
      </trkpt>
      <trkpt lat="43.74225" lon="5.60687">
        <ele>535.198</ele>
        <time>2020-09-02T18:57:51Z</time>
      </trkpt>
      <trkpt lat="43.74236" lon="5.60695">
        <ele>535.139</ele>
        <time>2020-09-02T18:57:52Z</time>
      </trkpt>
      <trkpt lat="43.74246" lon="5.60704">
        <ele>534.577</ele>
        <time>2020-09-02T18:57:53Z</time>
      </trkpt>
      <trkpt lat="43.74256" lon="5.60713">
        <ele>534.933</ele>
        <time>2020-09-02T18:57:54Z</time>
      </trkpt>
      <trkpt lat="43.74265" lon="5.60721">
        <ele>535.316</ele>
        <time>2020-09-02T18:57:55Z</time>
      </trkpt>
      <trkpt lat="43.74274" lon="5.60728">
        <ele>535.749</ele>
        <time>2020-09-02T18:57:56Z</time>
      </trkpt>
      <trkpt lat="43.74283" lon="5.60732">
        <ele>535.602</ele>
        <time>2020-09-02T18:57:57Z</time>
      </trkpt>
      <trkpt lat="43.74292" lon="5.60732">
        <ele>535.022</ele>
        <time>2020-09-02T18:57:58Z</time>
      </trkpt>
      <trkpt lat="43.74301" lon="5.60729">
        <ele>535.208</ele>
        <time>2020-09-02T18:57:59Z</time>
      </trkpt>
      <trkpt lat="43.74308" lon="5.60721">
        <ele>535.472</ele>
        <time>2020-09-02T18:58:00Z</time>
      </trkpt>
      <trkpt lat="43.74315" lon="5.60713">
        <ele>535.271</ele>
        <time>2020-09-02T18:58:01Z</time>
      </trkpt>
      <trkpt lat="43.74323" lon="5.60709">
        <ele>535.131</ele>
        <time>2020-09-02T18:58:02Z</time>
      </trkpt>
      <trkpt lat="43.74331" lon="5.60705">
        <ele>535.188</ele>
        <time>2020-09-02T18:58:03Z</time>
      </trkpt>
      <trkpt lat="43.74341" lon="5.60707">
        <ele>535.089</ele>
        <time>2020-09-02T18:58:04Z</time>
      </trkpt>
      <trkpt lat="43.7435" lon="5.60707">
        <ele>535.367</ele>
        <time>2020-09-02T18:58:05Z</time>
      </trkpt>
      <trkpt lat="43.74358" lon="5.60703">
        <ele>535.643</ele>
        <time>2020-09-02T18:58:06Z</time>
      </trkpt>
      <trkpt lat="43.74363" lon="5.60696">
        <ele>535.976</ele>
        <time>2020-09-02T18:58:07Z</time>
      </trkpt>
      <trkpt lat="43.74366" lon="5.60687">
        <ele>535.793</ele>
        <time>2020-09-02T18:58:08Z</time>
      </trkpt>
      <trkpt lat="43.74364" lon="5.60677">
        <ele>535.265</ele>
        <time>2020-09-02T18:58:09Z</time>
      </trkpt>
      <trkpt lat="43.7436" lon="5.60667">
        <ele>534.621</ele>
        <time>2020-09-02T18:58:10Z</time>
      </trkpt>
      <trkpt lat="43.74355" lon="5.60657">
        <ele>534.608</ele>
        <time>2020-09-02T18:58:11Z</time>
      </trkpt>
      <trkpt lat="43.74346" lon="5.60647">
        <ele>534.877</ele>
        <time>2020-09-02T18:58:12Z</time>
      </trkpt>
      <trkpt lat="43.74336" lon="5.60636">
        <ele>534.276</ele>
        <time>2020-09-02T18:58:13Z</time>
      </trkpt>
      <trkpt lat="43.74328" lon="5.60625">
        <ele>533.516</ele>
        <time>2020-09-02T18:58:14Z</time>
      </trkpt>
      <trkpt lat="43.7432" lon="5.60614">
        <ele>532.463</ele>
        <time>2020-09-02T18:58:15Z</time>
      </trkpt>
      <trkpt lat="43.74311" lon="5.60601">
        <ele>531.694</ele>
        <time>2020-09-02T18:58:16Z</time>
      </trkpt>
      <trkpt lat="43.74303" lon="5.60588">
        <ele>531.042</ele>
        <time>2020-09-02T18:58:17Z</time>
      </trkpt>
      <trkpt lat="43.74295" lon="5.60572">
        <ele>530.178</ele>
        <time>2020-09-02T18:58:18Z</time>
      </trkpt>
      <trkpt lat="43.74288" lon="5.60557">
        <ele>529.731</ele>
        <time>2020-09-02T18:58:19Z</time>
      </trkpt>
      <trkpt lat="43.74281" lon="5.60542">
        <ele>529.535</ele>
        <time>2020-09-02T18:58:20Z</time>
      </trkpt>
      <trkpt lat="43.74274" lon="5.6053">
        <ele>528.986</ele>
        <time>2020-09-02T18:58:21Z</time>
      </trkpt>
      <trkpt lat="43.74266" lon="5.60518">
        <ele>528.614</ele>
        <time>2020-09-02T18:58:22Z</time>
      </trkpt>
      <trkpt lat="43.7426" lon="5.60507">
        <ele>527.508</ele>
        <time>2020-09-02T18:58:23Z</time>
      </trkpt>
      <trkpt lat="43.74252" lon="5.60497">
        <ele>527.251</ele>
        <time>2020-09-02T18:58:24Z</time>
      </trkpt>
      <trkpt lat="43.74244" lon="5.60487">
        <ele>527.03</ele>
        <time>2020-09-02T18:58:25Z</time>
      </trkpt>
      <trkpt lat="43.74235" lon="5.60475">
        <ele>526.66</ele>
        <time>2020-09-02T18:58:26Z</time>
      </trkpt>
      <trkpt lat="43.74224" lon="5.60464">
        <ele>525.417</ele>
        <time>2020-09-02T18:58:27Z</time>
      </trkpt>
      <trkpt lat="43.74214" lon="5.60452">
        <ele>524.948</ele>
        <time>2020-09-02T18:58:28Z</time>
      </trkpt>
      <trkpt lat="43.74204" lon="5.6044">
        <ele>523.856</ele>
        <time>2020-09-02T18:58:29Z</time>
      </trkpt>
      <trkpt lat="43.74195" lon="5.6043">
        <ele>523.342</ele>
        <time>2020-09-02T18:58:30Z</time>
      </trkpt>
      <trkpt lat="43.74187" lon="5.6042">
        <ele>522.985</ele>
        <time>2020-09-02T18:58:31Z</time>
      </trkpt>
      <trkpt lat="43.74178" lon="5.60412">
        <ele>523.094</ele>
        <time>2020-09-02T18:58:32Z</time>
      </trkpt>
      <trkpt lat="43.74169" lon="5.60403">
        <ele>522.357</ele>
        <time>2020-09-02T18:58:33Z</time>
      </trkpt>
      <trkpt lat="43.74162" lon="5.60395">
        <ele>521.622</ele>
        <time>2020-09-02T18:58:34Z</time>
      </trkpt>
      <trkpt lat="43.7416" lon="5.60386">
        <ele>521.108</ele>
        <time>2020-09-02T18:58:35Z</time>
      </trkpt>
      <trkpt lat="43.74157" lon="5.60377">
        <ele>521.177</ele>
        <time>2020-09-02T18:58:36Z</time>
      </trkpt>
      <trkpt lat="43.74158" lon="5.60369">
        <ele>520.386</ele>
        <time>2020-09-02T18:58:37Z</time>
      </trkpt>
      <trkpt lat="43.74163" lon="5.60358">
        <ele>520.166</ele>
        <time>2020-09-02T18:58:38Z</time>
      </trkpt>
      <trkpt lat="43.7417" lon="5.60348">
        <ele>519.263</ele>
        <time>2020-09-02T18:58:39Z</time>
      </trkpt>
      <trkpt lat="43.74179" lon="5.60338">
        <ele>518.744</ele>
        <time>2020-09-02T18:58:40Z</time>
      </trkpt>
      <trkpt lat="43.74189" lon="5.60327">
        <ele>517.952</ele>
        <time>2020-09-02T18:58:41Z</time>
      </trkpt>
      <trkpt lat="43.74198" lon="5.60316">
        <ele>517.218</ele>
        <time>2020-09-02T18:58:42Z</time>
      </trkpt>
      <trkpt lat="43.74205" lon="5.60303">
        <ele>516.131</ele>
        <time>2020-09-02T18:58:43Z</time>
      </trkpt>
      <trkpt lat="43.74212" lon="5.60291">
        <ele>515.487</ele>
        <time>2020-09-02T18:58:44Z</time>
      </trkpt>
      <trkpt lat="43.74217" lon="5.60277">
        <ele>514.742</ele>
        <time>2020-09-02T18:58:45Z</time>
      </trkpt>
      <trkpt lat="43.74221" lon="5.60263">
        <ele>513.726</ele>
        <time>2020-09-02T18:58:46Z</time>
      </trkpt>
      <trkpt lat="43.74226" lon="5.60247">
        <ele>512.508</ele>
        <time>2020-09-02T18:58:47Z</time>
      </trkpt>
      <trkpt lat="43.7423" lon="5.60231">
        <ele>511.556</ele>
        <time>2020-09-02T18:58:48Z</time>
      </trkpt>
      <trkpt lat="43.74233" lon="5.60214">
        <ele>510.365</ele>
        <time>2020-09-02T18:58:49Z</time>
      </trkpt>
      <trkpt lat="43.74236" lon="5.60199">
        <ele>509.045</ele>
        <time>2020-09-02T18:58:50Z</time>
      </trkpt>
      <trkpt lat="43.7424" lon="5.60185">
        <ele>507.742</ele>
        <time>2020-09-02T18:58:51Z</time>
      </trkpt>
      <trkpt lat="43.74243" lon="5.60171">
        <ele>506.883</ele>
        <time>2020-09-02T18:58:52Z</time>
      </trkpt>
      <trkpt lat="43.74248" lon="5.60156">
        <ele>505.961</ele>
        <time>2020-09-02T18:58:53Z</time>
      </trkpt>
      <trkpt lat="43.74252" lon="5.60141">
        <ele>505.087</ele>
        <time>2020-09-02T18:58:54Z</time>
      </trkpt>
      <trkpt lat="43.74258" lon="5.60127">
        <ele>504.55</ele>
        <time>2020-09-02T18:58:55Z</time>
      </trkpt>
      <trkpt lat="43.74264" lon="5.60114">
        <ele>503.471</ele>
        <time>2020-09-02T18:58:56Z</time>
      </trkpt>
      <trkpt lat="43.74272" lon="5.60101">
        <ele>502.841</ele>
        <time>2020-09-02T18:58:57Z</time>
      </trkpt>
      <trkpt lat="43.74281" lon="5.60089">
        <ele>501.915</ele>
        <time>2020-09-02T18:58:58Z</time>
      </trkpt>
      <trkpt lat="43.74291" lon="5.60079">
        <ele>501.308</ele>
        <time>2020-09-02T18:58:59Z</time>
      </trkpt>
      <trkpt lat="43.74301" lon="5.60071">
        <ele>500.545</ele>
        <time>2020-09-02T18:59:00Z</time>
      </trkpt>
      <trkpt lat="43.74311" lon="5.60063">
        <ele>499.884</ele>
        <time>2020-09-02T18:59:01Z</time>
      </trkpt>
      <trkpt lat="43.74321" lon="5.60059">
        <ele>498.884</ele>
        <time>2020-09-02T18:59:02Z</time>
      </trkpt>
      <trkpt lat="43.74331" lon="5.60056">
        <ele>498.091</ele>
        <time>2020-09-02T18:59:03Z</time>
      </trkpt>
      <trkpt lat="43.74342" lon="5.60053">
        <ele>497.542</ele>
        <time>2020-09-02T18:59:04Z</time>
      </trkpt>
      <trkpt lat="43.74353" lon="5.60049">
        <ele>497.05</ele>
        <time>2020-09-02T18:59:05Z</time>
      </trkpt>
      <trkpt lat="43.74364" lon="5.60046">
        <ele>496.386</ele>
        <time>2020-09-02T18:59:06Z</time>
      </trkpt>
      <trkpt lat="43.74375" lon="5.60043">
        <ele>495.819</ele>
        <time>2020-09-02T18:59:07Z</time>
      </trkpt>
      <trkpt lat="43.74387" lon="5.60041">
        <ele>494.986</ele>
        <time>2020-09-02T18:59:08Z</time>
      </trkpt>
      <trkpt lat="43.74399" lon="5.60041">
        <ele>494.86</ele>
        <time>2020-09-02T18:59:09Z</time>
      </trkpt>
      <trkpt lat="43.74408" lon="5.60042">
        <ele>494.426</ele>
        <time>2020-09-02T18:59:10Z</time>
      </trkpt>
      <trkpt lat="43.74418" lon="5.60043">
        <ele>493.808</ele>
        <time>2020-09-02T18:59:11Z</time>
      </trkpt>
      <trkpt lat="43.74426" lon="5.60043">
        <ele>493.246</ele>
        <time>2020-09-02T18:59:12Z</time>
      </trkpt>
      <trkpt lat="43.74433" lon="5.60042">
        <ele>492.715</ele>
        <time>2020-09-02T18:59:13Z</time>
      </trkpt>
      <trkpt lat="43.74438" lon="5.60039">
        <ele>492.755</ele>
        <time>2020-09-02T18:59:14Z</time>
      </trkpt>
      <trkpt lat="43.74443" lon="5.60026">
        <ele>491.942</ele>
        <time>2020-09-02T18:59:16Z</time>
      </trkpt>
      <trkpt lat="43.74445" lon="5.60017">
        <ele>491.073</ele>
        <time>2020-09-02T18:59:17Z</time>
      </trkpt>
      <trkpt lat="43.74445" lon="5.60006">
        <ele>490.851</ele>
        <time>2020-09-02T18:59:18Z</time>
      </trkpt>
      <trkpt lat="43.74446" lon="5.59994">
        <ele>490.837</ele>
        <time>2020-09-02T18:59:19Z</time>
      </trkpt>
      <trkpt lat="43.74447" lon="5.59985">
        <ele>490.75</ele>
        <time>2020-09-02T18:59:20Z</time>
      </trkpt>
      <trkpt lat="43.74449" lon="5.59976">
        <ele>490.594</ele>
        <time>2020-09-02T18:59:21Z</time>
      </trkpt>
      <trkpt lat="43.74452" lon="5.59967">
        <ele>490.657</ele>
        <time>2020-09-02T18:59:22Z</time>
      </trkpt>
      <trkpt lat="43.74456" lon="5.59962">
        <ele>491.422</ele>
        <time>2020-09-02T18:59:23Z</time>
      </trkpt>
      <trkpt lat="43.74462" lon="5.59959">
        <ele>491.508</ele>
        <time>2020-09-02T18:59:24Z</time>
      </trkpt>
      <trkpt lat="43.7447" lon="5.59957">
        <ele>491.687</ele>
        <time>2020-09-02T18:59:25Z</time>
      </trkpt>
      <trkpt lat="43.74479" lon="5.59958">
        <ele>491.876</ele>
        <time>2020-09-02T18:59:26Z</time>
      </trkpt>
      <trkpt lat="43.74489" lon="5.5996">
        <ele>492.186</ele>
        <time>2020-09-02T18:59:27Z</time>
      </trkpt>
      <trkpt lat="43.745" lon="5.59959">
        <ele>493.023</ele>
        <time>2020-09-02T18:59:28Z</time>
      </trkpt>
      <trkpt lat="43.74511" lon="5.59958">
        <ele>493.324</ele>
        <time>2020-09-02T18:59:29Z</time>
      </trkpt>
      <trkpt lat="43.74523" lon="5.59956">
        <ele>493.262</ele>
        <time>2020-09-02T18:59:30Z</time>
      </trkpt>
      <trkpt lat="43.74534" lon="5.59954">
        <ele>492.838</ele>
        <time>2020-09-02T18:59:31Z</time>
      </trkpt>
      <trkpt lat="43.74546" lon="5.59953">
        <ele>492.051</ele>
        <time>2020-09-02T18:59:32Z</time>
      </trkpt>
      <trkpt lat="43.74557" lon="5.59953">
        <ele>491.587</ele>
        <time>2020-09-02T18:59:33Z</time>
      </trkpt>
      <trkpt lat="43.74569" lon="5.59951">
        <ele>490.642</ele>
        <time>2020-09-02T18:59:34Z</time>
      </trkpt>
      <trkpt lat="43.74582" lon="5.59948">
        <ele>490.326</ele>
        <time>2020-09-02T18:59:35Z</time>
      </trkpt>
      <trkpt lat="43.74594" lon="5.59944">
        <ele>490.508</ele>
        <time>2020-09-02T18:59:36Z</time>
      </trkpt>
      <trkpt lat="43.74605" lon="5.5994">
        <ele>490.496</ele>
        <time>2020-09-02T18:59:37Z</time>
      </trkpt>
      <trkpt lat="43.74615" lon="5.59938">
        <ele>489.785</ele>
        <time>2020-09-02T18:59:38Z</time>
      </trkpt>
      <trkpt lat="43.74624" lon="5.59939">
        <ele>488.825</ele>
        <time>2020-09-02T18:59:39Z</time>
      </trkpt>
      <trkpt lat="43.74632" lon="5.59942">
        <ele>488.332</ele>
        <time>2020-09-02T18:59:40Z</time>
      </trkpt>
      <trkpt lat="43.74638" lon="5.59945">
        <ele>486.993</ele>
        <time>2020-09-02T18:59:41Z</time>
      </trkpt>
      <trkpt lat="43.74645" lon="5.59951">
        <ele>486.571</ele>
        <time>2020-09-02T18:59:42Z</time>
      </trkpt>
      <trkpt lat="43.7465" lon="5.59959">
        <ele>485.627</ele>
        <time>2020-09-02T18:59:43Z</time>
      </trkpt>
      <trkpt lat="43.74657" lon="5.59966">
        <ele>485.06</ele>
        <time>2020-09-02T18:59:44Z</time>
      </trkpt>
      <trkpt lat="43.74664" lon="5.59971">
        <ele>484.878</ele>
        <time>2020-09-02T18:59:45Z</time>
      </trkpt>
      <trkpt lat="43.74671" lon="5.59971">
        <ele>484.333</ele>
        <time>2020-09-02T18:59:46Z</time>
      </trkpt>
      <trkpt lat="43.74675" lon="5.59965">
        <ele>483.926</ele>
        <time>2020-09-02T18:59:47Z</time>
      </trkpt>
      <trkpt lat="43.74678" lon="5.59956">
        <ele>483.708</ele>
        <time>2020-09-02T18:59:48Z</time>
      </trkpt>
      <trkpt lat="43.7468" lon="5.59946">
        <ele>482.815</ele>
        <time>2020-09-02T18:59:49Z</time>
      </trkpt>
      <trkpt lat="43.74683" lon="5.59933">
        <ele>482.374</ele>
        <time>2020-09-02T18:59:50Z</time>
      </trkpt>
      <trkpt lat="43.74685" lon="5.59921">
        <ele>481.094</ele>
        <time>2020-09-02T18:59:51Z</time>
      </trkpt>
      <trkpt lat="43.74688" lon="5.59909">
        <ele>479.511</ele>
        <time>2020-09-02T18:59:52Z</time>
      </trkpt>
      <trkpt lat="43.74692" lon="5.599">
        <ele>478.432</ele>
        <time>2020-09-02T18:59:53Z</time>
      </trkpt>
      <trkpt lat="43.74696" lon="5.59889">
        <ele>477.57</ele>
        <time>2020-09-02T18:59:54Z</time>
      </trkpt>
      <trkpt lat="43.747" lon="5.59879">
        <ele>476.836</ele>
        <time>2020-09-02T18:59:55Z</time>
      </trkpt>
      <trkpt lat="43.74702" lon="5.59868">
        <ele>476.589</ele>
        <time>2020-09-02T18:59:56Z</time>
      </trkpt>
      <trkpt lat="43.74704" lon="5.59858">
        <ele>476.295</ele>
        <time>2020-09-02T18:59:57Z</time>
      </trkpt>
      <trkpt lat="43.74705" lon="5.59847">
        <ele>476.149</ele>
        <time>2020-09-02T18:59:58Z</time>
      </trkpt>
      <trkpt lat="43.74709" lon="5.59837">
        <ele>476.523</ele>
        <time>2020-09-02T18:59:59Z</time>
      </trkpt>
      <trkpt lat="43.74713" lon="5.59829">
        <ele>477.308</ele>
        <time>2020-09-02T19:00:00Z</time>
      </trkpt>
      <trkpt lat="43.74718" lon="5.59822">
        <ele>477.787</ele>
        <time>2020-09-02T19:00:01Z</time>
      </trkpt>
      <trkpt lat="43.74723" lon="5.59811">
        <ele>479.036</ele>
        <time>2020-09-02T19:00:02Z</time>
      </trkpt>
      <trkpt lat="43.74727" lon="5.59801">
        <ele>479.616</ele>
        <time>2020-09-02T19:00:03Z</time>
      </trkpt>
      <trkpt lat="43.7473" lon="5.59788">
        <ele>480.343</ele>
        <time>2020-09-02T19:00:04Z</time>
      </trkpt>
      <trkpt lat="43.74733" lon="5.59775">
        <ele>481.794</ele>
        <time>2020-09-02T19:00:05Z</time>
      </trkpt>
      <trkpt lat="43.74735" lon="5.59763">
        <ele>482.642</ele>
        <time>2020-09-02T19:00:06Z</time>
      </trkpt>
      <trkpt lat="43.74738" lon="5.59752">
        <ele>483.688</ele>
        <time>2020-09-02T19:00:07Z</time>
      </trkpt>
      <trkpt lat="43.74739" lon="5.59746">
        <ele>484.361</ele>
        <time>2020-09-02T19:00:08Z</time>
      </trkpt>
      <trkpt lat="43.74738" lon="5.59752">
        <ele>485.266</ele>
        <time>2020-09-02T19:00:20Z</time>
      </trkpt>
      <trkpt lat="43.74737" lon="5.59759">
        <ele>484.829</ele>
        <time>2020-09-02T19:00:22Z</time>
      </trkpt>
      <trkpt lat="43.74734" lon="5.59764">
        <ele>484.121</ele>
        <time>2020-09-02T19:00:25Z</time>
      </trkpt>
      <trkpt lat="43.7473" lon="5.59756">
        <ele>483.008</ele>
        <time>2020-09-02T19:00:28Z</time>
      </trkpt>
      <trkpt lat="43.7473" lon="5.59743">
        <ele>482.824</ele>
        <time>2020-09-02T19:00:29Z</time>
      </trkpt>
      <trkpt lat="43.7473" lon="5.59737">
        <ele>482.783</ele>
        <time>2020-09-02T19:00:30Z</time>
      </trkpt>
      <trkpt lat="43.7473" lon="5.59727">
        <ele>482.663</ele>
        <time>2020-09-02T19:00:31Z</time>
      </trkpt>
      <trkpt lat="43.74728" lon="5.5972">
        <ele>482.73</ele>
        <time>2020-09-02T19:00:32Z</time>
      </trkpt>
      <trkpt lat="43.74726" lon="5.59711">
        <ele>481.891</ele>
        <time>2020-09-02T19:00:33Z</time>
      </trkpt>
      <trkpt lat="43.74725" lon="5.59702">
        <ele>481.879</ele>
        <time>2020-09-02T19:00:34Z</time>
      </trkpt>
      <trkpt lat="43.74724" lon="5.59695">
        <ele>481.635</ele>
        <time>2020-09-02T19:00:35Z</time>
      </trkpt>
      <trkpt lat="43.74723" lon="5.59686">
        <ele>481.368</ele>
        <time>2020-09-02T19:00:36Z</time>
      </trkpt>
      <trkpt lat="43.74721" lon="5.59676">
        <ele>481.788</ele>
        <time>2020-09-02T19:00:37Z</time>
      </trkpt>
      <trkpt lat="43.74721" lon="5.59667">
        <ele>481.424</ele>
        <time>2020-09-02T19:00:38Z</time>
      </trkpt>
      <trkpt lat="43.7472" lon="5.59659">
        <ele>481.826</ele>
        <time>2020-09-02T19:00:39Z</time>
      </trkpt>
      <trkpt lat="43.7472" lon="5.59651">
        <ele>481.708</ele>
        <time>2020-09-02T19:00:40Z</time>
      </trkpt>
      <trkpt lat="43.74718" lon="5.59642">
        <ele>481.676</ele>
        <time>2020-09-02T19:00:41Z</time>
      </trkpt>
      <trkpt lat="43.74717" lon="5.59634">
        <ele>481.655</ele>
        <time>2020-09-02T19:00:42Z</time>
      </trkpt>
      <trkpt lat="43.74718" lon="5.59625">
        <ele>482.345</ele>
        <time>2020-09-02T19:00:43Z</time>
      </trkpt>
      <trkpt lat="43.74719" lon="5.59616">
        <ele>482.382</ele>
        <time>2020-09-02T19:00:44Z</time>
      </trkpt>
      <trkpt lat="43.7472" lon="5.59608">
        <ele>482.813</ele>
        <time>2020-09-02T19:00:45Z</time>
      </trkpt>
      <trkpt lat="43.74721" lon="5.59598">
        <ele>483.241</ele>
        <time>2020-09-02T19:00:46Z</time>
      </trkpt>
      <trkpt lat="43.74722" lon="5.59588">
        <ele>483.577</ele>
        <time>2020-09-02T19:00:47Z</time>
      </trkpt>
      <trkpt lat="43.74722" lon="5.59577">
        <ele>483.79</ele>
        <time>2020-09-02T19:00:48Z</time>
      </trkpt>
      <trkpt lat="43.74722" lon="5.59568">
        <ele>484.081</ele>
        <time>2020-09-02T19:00:49Z</time>
      </trkpt>
      <trkpt lat="43.74721" lon="5.5956">
        <ele>484.161</ele>
        <time>2020-09-02T19:00:50Z</time>
      </trkpt>
      <trkpt lat="43.74719" lon="5.59553">
        <ele>483.917</ele>
        <time>2020-09-02T19:00:51Z</time>
      </trkpt>
      <trkpt lat="43.74716" lon="5.59546">
        <ele>483.208</ele>
        <time>2020-09-02T19:00:52Z</time>
      </trkpt>
      <trkpt lat="43.74713" lon="5.5954">
        <ele>482.956</ele>
        <time>2020-09-02T19:00:53Z</time>
      </trkpt>
      <trkpt lat="43.7471" lon="5.59535">
        <ele>482.165</ele>
        <time>2020-09-02T19:00:54Z</time>
      </trkpt>
      <trkpt lat="43.74709" lon="5.59528">
        <ele>482.165</ele>
        <time>2020-09-02T19:00:55Z</time>
      </trkpt>
      <trkpt lat="43.74709" lon="5.59522">
        <ele>481.262</ele>
        <time>2020-09-02T19:00:56Z</time>
      </trkpt>
      <trkpt lat="43.74707" lon="5.59515">
        <ele>480.613</ele>
        <time>2020-09-02T19:00:57Z</time>
      </trkpt>
      <trkpt lat="43.74704" lon="5.5951">
        <ele>481.051</ele>
        <time>2020-09-02T19:00:58Z</time>
      </trkpt>
      <trkpt lat="43.74695" lon="5.59505">
        <ele>480.947</ele>
        <time>2020-09-02T19:01:00Z</time>
      </trkpt>
      <trkpt lat="43.7469" lon="5.59503">
        <ele>480.55</ele>
        <time>2020-09-02T19:01:01Z</time>
      </trkpt>
      <trkpt lat="43.74685" lon="5.59502">
        <ele>479.976</ele>
        <time>2020-09-02T19:01:02Z</time>
      </trkpt>
      <trkpt lat="43.74681" lon="5.59501">
        <ele>479.69</ele>
        <time>2020-09-02T19:01:03Z</time>
      </trkpt>
      <trkpt lat="43.74676" lon="5.59499">
        <ele>479.519</ele>
        <time>2020-09-02T19:01:04Z</time>
      </trkpt>
      <trkpt lat="43.74671" lon="5.59498">
        <ele>479.308</ele>
        <time>2020-09-02T19:01:05Z</time>
      </trkpt>
      <trkpt lat="43.74667" lon="5.59494">
        <ele>478.925</ele>
        <time>2020-09-02T19:01:06Z</time>
      </trkpt>
      <trkpt lat="43.74663" lon="5.59492">
        <ele>479.164</ele>
        <time>2020-09-02T19:01:07Z</time>
      </trkpt>
      <trkpt lat="43.74659" lon="5.59489">
        <ele>479.034</ele>
        <time>2020-09-02T19:01:08Z</time>
      </trkpt>
      <trkpt lat="43.74654" lon="5.59487">
        <ele>479.011</ele>
        <time>2020-09-02T19:01:09Z</time>
      </trkpt>
      <trkpt lat="43.74649" lon="5.59481">
        <ele>478.362</ele>
        <time>2020-09-02T19:01:10Z</time>
      </trkpt>
      <trkpt lat="43.74646" lon="5.59474">
        <ele>477.82</ele>
        <time>2020-09-02T19:01:11Z</time>
      </trkpt>
      <trkpt lat="43.74645" lon="5.59467">
        <ele>477.776</ele>
        <time>2020-09-02T19:01:12Z</time>
      </trkpt>
      <trkpt lat="43.74644" lon="5.59459">
        <ele>477.849</ele>
        <time>2020-09-02T19:01:13Z</time>
      </trkpt>
      <trkpt lat="43.74643" lon="5.59451">
        <ele>477.753</ele>
        <time>2020-09-02T19:01:14Z</time>
      </trkpt>
      <trkpt lat="43.74643" lon="5.59442">
        <ele>477.304</ele>
        <time>2020-09-02T19:01:15Z</time>
      </trkpt>
      <trkpt lat="43.74643" lon="5.59431">
        <ele>476.614</ele>
        <time>2020-09-02T19:01:16Z</time>
      </trkpt>
      <trkpt lat="43.74644" lon="5.59421">
        <ele>475.708</ele>
        <time>2020-09-02T19:01:17Z</time>
      </trkpt>
      <trkpt lat="43.74645" lon="5.59412">
        <ele>475.553</ele>
        <time>2020-09-02T19:01:18Z</time>
      </trkpt>
      <trkpt lat="43.74645" lon="5.59401">
        <ele>475.212</ele>
        <time>2020-09-02T19:01:19Z</time>
      </trkpt>
      <trkpt lat="43.74646" lon="5.5939">
        <ele>474.862</ele>
        <time>2020-09-02T19:01:20Z</time>
      </trkpt>
      <trkpt lat="43.74647" lon="5.5938">
        <ele>474.029</ele>
        <time>2020-09-02T19:01:21Z</time>
      </trkpt>
      <trkpt lat="43.74647" lon="5.59372">
        <ele>473.62</ele>
        <time>2020-09-02T19:01:22Z</time>
      </trkpt>
      <trkpt lat="43.74647" lon="5.59363">
        <ele>473.518</ele>
        <time>2020-09-02T19:01:23Z</time>
      </trkpt>
      <trkpt lat="43.74649" lon="5.59355">
        <ele>473.184</ele>
        <time>2020-09-02T19:01:24Z</time>
      </trkpt>
      <trkpt lat="43.74655" lon="5.59347">
        <ele>472.297</ele>
        <time>2020-09-02T19:01:26Z</time>
      </trkpt>
      <trkpt lat="43.74659" lon="5.59343">
        <ele>472.217</ele>
        <time>2020-09-02T19:01:27Z</time>
      </trkpt>
      <trkpt lat="43.74663" lon="5.59335">
        <ele>472.287</ele>
        <time>2020-09-02T19:01:28Z</time>
      </trkpt>
      <trkpt lat="43.74668" lon="5.59328">
        <ele>471.915</ele>
        <time>2020-09-02T19:01:29Z</time>
      </trkpt>
      <trkpt lat="43.74671" lon="5.5932">
        <ele>471.508</ele>
        <time>2020-09-02T19:01:30Z</time>
      </trkpt>
      <trkpt lat="43.74675" lon="5.59314">
        <ele>470.419</ele>
        <time>2020-09-02T19:01:31Z</time>
      </trkpt>
      <trkpt lat="43.74678" lon="5.59308">
        <ele>469.148</ele>
        <time>2020-09-02T19:01:32Z</time>
      </trkpt>
      <trkpt lat="43.7468" lon="5.593">
        <ele>468.098</ele>
        <time>2020-09-02T19:01:33Z</time>
      </trkpt>
      <trkpt lat="43.74682" lon="5.59292">
        <ele>467.225</ele>
        <time>2020-09-02T19:01:34Z</time>
      </trkpt>
      <trkpt lat="43.74683" lon="5.59284">
        <ele>466.226</ele>
        <time>2020-09-02T19:01:35Z</time>
      </trkpt>
      <trkpt lat="43.74685" lon="5.59275">
        <ele>465.874</ele>
        <time>2020-09-02T19:01:36Z</time>
      </trkpt>
      <trkpt lat="43.74688" lon="5.59266">
        <ele>464.91</ele>
        <time>2020-09-02T19:01:37Z</time>
      </trkpt>
      <trkpt lat="43.7469" lon="5.59257">
        <ele>464.083</ele>
        <time>2020-09-02T19:01:38Z</time>
      </trkpt>
      <trkpt lat="43.74692" lon="5.59249">
        <ele>463.475</ele>
        <time>2020-09-02T19:01:39Z</time>
      </trkpt>
      <trkpt lat="43.74693" lon="5.5924">
        <ele>462.628</ele>
        <time>2020-09-02T19:01:40Z</time>
      </trkpt>
      <trkpt lat="43.74694" lon="5.59232">
        <ele>461.32</ele>
        <time>2020-09-02T19:01:41Z</time>
      </trkpt>
      <trkpt lat="43.74695" lon="5.59224">
        <ele>461.008</ele>
        <time>2020-09-02T19:01:42Z</time>
      </trkpt>
      <trkpt lat="43.74696" lon="5.59213">
        <ele>460.335</ele>
        <time>2020-09-02T19:01:43Z</time>
      </trkpt>
      <trkpt lat="43.74697" lon="5.59204">
        <ele>459.854</ele>
        <time>2020-09-02T19:01:44Z</time>
      </trkpt>
      <trkpt lat="43.74698" lon="5.59196">
        <ele>458.744</ele>
        <time>2020-09-02T19:01:45Z</time>
      </trkpt>
      <trkpt lat="43.74698" lon="5.5919">
        <ele>458.281</ele>
        <time>2020-09-02T19:01:46Z</time>
      </trkpt>
      <trkpt lat="43.74694" lon="5.59179">
        <ele>457.832</ele>
        <time>2020-09-02T19:01:48Z</time>
      </trkpt>
      <trkpt lat="43.74692" lon="5.59172">
        <ele>457.34</ele>
        <time>2020-09-02T19:01:49Z</time>
      </trkpt>
      <trkpt lat="43.74692" lon="5.59166">
        <ele>456.246</ele>
        <time>2020-09-02T19:01:50Z</time>
      </trkpt>
      <trkpt lat="43.74691" lon="5.59158">
        <ele>455.349</ele>
        <time>2020-09-02T19:01:51Z</time>
      </trkpt>
      <trkpt lat="43.74689" lon="5.59151">
        <ele>454.414</ele>
        <time>2020-09-02T19:01:52Z</time>
      </trkpt>
      <trkpt lat="43.74683" lon="5.59143">
        <ele>454.254</ele>
        <time>2020-09-02T19:01:54Z</time>
      </trkpt>
      <trkpt lat="43.74676" lon="5.59143">
        <ele>453.909</ele>
        <time>2020-09-02T19:01:55Z</time>
      </trkpt>
      <trkpt lat="43.74671" lon="5.59141">
        <ele>453.508</ele>
        <time>2020-09-02T19:01:56Z</time>
      </trkpt>
      <trkpt lat="43.74668" lon="5.59136">
        <ele>453.169</ele>
        <time>2020-09-02T19:01:59Z</time>
      </trkpt>
      <trkpt lat="43.74667" lon="5.59129">
        <ele>452.468</ele>
        <time>2020-09-02T19:02:02Z</time>
      </trkpt>
      <trkpt lat="43.74666" lon="5.59122">
        <ele>451.948</ele>
        <time>2020-09-02T19:02:07Z</time>
      </trkpt>
      <trkpt lat="43.74668" lon="5.59114">
        <ele>451.625</ele>
        <time>2020-09-02T19:02:08Z</time>
      </trkpt>
      <trkpt lat="43.74669" lon="5.59105">
        <ele>450.826</ele>
        <time>2020-09-02T19:02:09Z</time>
      </trkpt>
      <trkpt lat="43.74669" lon="5.59096">
        <ele>450.654</ele>
        <time>2020-09-02T19:02:10Z</time>
      </trkpt>
      <trkpt lat="43.74667" lon="5.59087">
        <ele>449.88</ele>
        <time>2020-09-02T19:02:11Z</time>
      </trkpt>
      <trkpt lat="43.74665" lon="5.59076">
        <ele>449.783</ele>
        <time>2020-09-02T19:02:12Z</time>
      </trkpt>
      <trkpt lat="43.74664" lon="5.59066">
        <ele>449.495</ele>
        <time>2020-09-02T19:02:13Z</time>
      </trkpt>
      <trkpt lat="43.74665" lon="5.59055">
        <ele>449.149</ele>
        <time>2020-09-02T19:02:14Z</time>
      </trkpt>
      <trkpt lat="43.74667" lon="5.59046">
        <ele>448.823</ele>
        <time>2020-09-02T19:02:15Z</time>
      </trkpt>
      <trkpt lat="43.74668" lon="5.59038">
        <ele>448.108</ele>
        <time>2020-09-02T19:02:16Z</time>
      </trkpt>
      <trkpt lat="43.74668" lon="5.5903">
        <ele>447.957</ele>
        <time>2020-09-02T19:02:17Z</time>
      </trkpt>
      <trkpt lat="43.74667" lon="5.59021">
        <ele>447.356</ele>
        <time>2020-09-02T19:02:18Z</time>
      </trkpt>
      <trkpt lat="43.74667" lon="5.59011">
        <ele>447.486</ele>
        <time>2020-09-02T19:02:19Z</time>
      </trkpt>
      <trkpt lat="43.74666" lon="5.59">
        <ele>446.683</ele>
        <time>2020-09-02T19:02:20Z</time>
      </trkpt>
      <trkpt lat="43.74666" lon="5.58989">
        <ele>446.234</ele>
        <time>2020-09-02T19:02:21Z</time>
      </trkpt>
      <trkpt lat="43.74669" lon="5.5898">
        <ele>446.042</ele>
        <time>2020-09-02T19:02:22Z</time>
      </trkpt>
      <trkpt lat="43.74671" lon="5.58971">
        <ele>445.538</ele>
        <time>2020-09-02T19:02:23Z</time>
      </trkpt>
      <trkpt lat="43.74671" lon="5.58962">
        <ele>445.731</ele>
        <time>2020-09-02T19:02:24Z</time>
      </trkpt>
      <trkpt lat="43.74669" lon="5.58956">
        <ele>445.751</ele>
        <time>2020-09-02T19:02:25Z</time>
      </trkpt>
      <trkpt lat="43.74667" lon="5.58947">
        <ele>445.801</ele>
        <time>2020-09-02T19:02:26Z</time>
      </trkpt>
      <trkpt lat="43.74666" lon="5.58938">
        <ele>445.711</ele>
        <time>2020-09-02T19:02:27Z</time>
      </trkpt>
      <trkpt lat="43.74665" lon="5.58928">
        <ele>445.908</ele>
        <time>2020-09-02T19:02:28Z</time>
      </trkpt>
      <trkpt lat="43.74665" lon="5.58919">
        <ele>445.833</ele>
        <time>2020-09-02T19:02:29Z</time>
      </trkpt>
      <trkpt lat="43.74664" lon="5.5891">
        <ele>445.642</ele>
        <time>2020-09-02T19:02:30Z</time>
      </trkpt>
      <trkpt lat="43.74662" lon="5.58901">
        <ele>445.672</ele>
        <time>2020-09-02T19:02:31Z</time>
      </trkpt>
      <trkpt lat="43.74659" lon="5.58892">
        <ele>445.479</ele>
        <time>2020-09-02T19:02:32Z</time>
      </trkpt>
      <trkpt lat="43.74657" lon="5.58884">
        <ele>445.05</ele>
        <time>2020-09-02T19:02:33Z</time>
      </trkpt>
      <trkpt lat="43.74656" lon="5.58875">
        <ele>444.898</ele>
        <time>2020-09-02T19:02:34Z</time>
      </trkpt>
      <trkpt lat="43.74657" lon="5.58865">
        <ele>444.044</ele>
        <time>2020-09-02T19:02:35Z</time>
      </trkpt>
      <trkpt lat="43.74658" lon="5.58855">
        <ele>443.547</ele>
        <time>2020-09-02T19:02:36Z</time>
      </trkpt>
      <trkpt lat="43.74661" lon="5.58844">
        <ele>443.591</ele>
        <time>2020-09-02T19:02:37Z</time>
      </trkpt>
      <trkpt lat="43.74663" lon="5.58834">
        <ele>442.981</ele>
        <time>2020-09-02T19:02:38Z</time>
      </trkpt>
      <trkpt lat="43.74665" lon="5.58825">
        <ele>442.419</ele>
        <time>2020-09-02T19:02:39Z</time>
      </trkpt>
      <trkpt lat="43.74668" lon="5.58819">
        <ele>441.908</ele>
        <time>2020-09-02T19:02:40Z</time>
      </trkpt>
      <trkpt lat="43.74671" lon="5.58813">
        <ele>441.357</ele>
        <time>2020-09-02T19:02:41Z</time>
      </trkpt>
      <trkpt lat="43.74674" lon="5.58806">
        <ele>440.946</ele>
        <time>2020-09-02T19:02:42Z</time>
      </trkpt>
      <trkpt lat="43.74678" lon="5.58795">
        <ele>439.256</ele>
        <time>2020-09-02T19:02:44Z</time>
      </trkpt>
      <trkpt lat="43.7468" lon="5.58789">
        <ele>438.463</ele>
        <time>2020-09-02T19:02:45Z</time>
      </trkpt>
      <trkpt lat="43.74682" lon="5.58781">
        <ele>437.344</ele>
        <time>2020-09-02T19:02:46Z</time>
      </trkpt>
      <trkpt lat="43.74685" lon="5.58775">
        <ele>436.432</ele>
        <time>2020-09-02T19:02:47Z</time>
      </trkpt>
      <trkpt lat="43.74687" lon="5.58769">
        <ele>435.298</ele>
        <time>2020-09-02T19:02:48Z</time>
      </trkpt>
      <trkpt lat="43.74689" lon="5.58762">
        <ele>434.581</ele>
        <time>2020-09-02T19:02:49Z</time>
      </trkpt>
      <trkpt lat="43.7469" lon="5.58755">
        <ele>433.614</ele>
        <time>2020-09-02T19:02:50Z</time>
      </trkpt>
      <trkpt lat="43.74692" lon="5.58748">
        <ele>432.054</ele>
        <time>2020-09-02T19:02:51Z</time>
      </trkpt>
      <trkpt lat="43.74694" lon="5.58742">
        <ele>430.209</ele>
        <time>2020-09-02T19:02:52Z</time>
      </trkpt>
      <trkpt lat="43.74696" lon="5.58734">
        <ele>428.808</ele>
        <time>2020-09-02T19:02:53Z</time>
      </trkpt>
      <trkpt lat="43.74699" lon="5.58727">
        <ele>427.789</ele>
        <time>2020-09-02T19:02:54Z</time>
      </trkpt>
      <trkpt lat="43.74701" lon="5.58719">
        <ele>425.718</ele>
        <time>2020-09-02T19:02:55Z</time>
      </trkpt>
      <trkpt lat="43.74703" lon="5.5871">
        <ele>424.138</ele>
        <time>2020-09-02T19:02:56Z</time>
      </trkpt>
      <trkpt lat="43.74705" lon="5.58702">
        <ele>422.555</ele>
        <time>2020-09-02T19:02:57Z</time>
      </trkpt>
      <trkpt lat="43.74707" lon="5.58694">
        <ele>421.036</ele>
        <time>2020-09-02T19:02:58Z</time>
      </trkpt>
      <trkpt lat="43.7471" lon="5.58685">
        <ele>420.054</ele>
        <time>2020-09-02T19:02:59Z</time>
      </trkpt>
      <trkpt lat="43.74711" lon="5.58676">
        <ele>418.96</ele>
        <time>2020-09-02T19:03:00Z</time>
      </trkpt>
      <trkpt lat="43.74713" lon="5.58668">
        <ele>418.083</ele>
        <time>2020-09-02T19:03:01Z</time>
      </trkpt>
      <trkpt lat="43.74715" lon="5.5866">
        <ele>417.096</ele>
        <time>2020-09-02T19:03:02Z</time>
      </trkpt>
      <trkpt lat="43.74718" lon="5.58654">
        <ele>416.131</ele>
        <time>2020-09-02T19:03:03Z</time>
      </trkpt>
      <trkpt lat="43.74721" lon="5.58647">
        <ele>414.524</ele>
        <time>2020-09-02T19:03:04Z</time>
      </trkpt>
      <trkpt lat="43.74724" lon="5.58641">
        <ele>413.408</ele>
        <time>2020-09-02T19:03:05Z</time>
      </trkpt>
      <trkpt lat="43.74726" lon="5.58633">
        <ele>412.177</ele>
        <time>2020-09-02T19:03:06Z</time>
      </trkpt>
      <trkpt lat="43.74727" lon="5.58624">
        <ele>410.966</ele>
        <time>2020-09-02T19:03:07Z</time>
      </trkpt>
      <trkpt lat="43.74728" lon="5.58616">
        <ele>410.196</ele>
        <time>2020-09-02T19:03:08Z</time>
      </trkpt>
      <trkpt lat="43.7473" lon="5.58608">
        <ele>409.033</ele>
        <time>2020-09-02T19:03:09Z</time>
      </trkpt>
      <trkpt lat="43.74732" lon="5.586">
        <ele>408.344</ele>
        <time>2020-09-02T19:03:10Z</time>
      </trkpt>
      <trkpt lat="43.74735" lon="5.58592">
        <ele>408.062</ele>
        <time>2020-09-02T19:03:11Z</time>
      </trkpt>
      <trkpt lat="43.74738" lon="5.58582">
        <ele>407.058</ele>
        <time>2020-09-02T19:03:12Z</time>
      </trkpt>
      <trkpt lat="43.7474" lon="5.58573">
        <ele>406.111</ele>
        <time>2020-09-02T19:03:13Z</time>
      </trkpt>
      <trkpt lat="43.74741" lon="5.58563">
        <ele>404.939</ele>
        <time>2020-09-02T19:03:14Z</time>
      </trkpt>
      <trkpt lat="43.74742" lon="5.58552">
        <ele>404.001</ele>
        <time>2020-09-02T19:03:15Z</time>
      </trkpt>
      <trkpt lat="43.74743" lon="5.58542">
        <ele>402.921</ele>
        <time>2020-09-02T19:03:16Z</time>
      </trkpt>
      <trkpt lat="43.74744" lon="5.58533">
        <ele>402.008</ele>
        <time>2020-09-02T19:03:17Z</time>
      </trkpt>
      <trkpt lat="43.74746" lon="5.58524">
        <ele>401.311</ele>
        <time>2020-09-02T19:03:18Z</time>
      </trkpt>
      <trkpt lat="43.74747" lon="5.58515">
        <ele>400.61</ele>
        <time>2020-09-02T19:03:19Z</time>
      </trkpt>
      <trkpt lat="43.74749" lon="5.58506">
        <ele>399.63</ele>
        <time>2020-09-02T19:03:20Z</time>
      </trkpt>
      <trkpt lat="43.74751" lon="5.58497">
        <ele>398.487</ele>
        <time>2020-09-02T19:03:21Z</time>
      </trkpt>
      <trkpt lat="43.74753" lon="5.58488">
        <ele>396.628</ele>
        <time>2020-09-02T19:03:22Z</time>
      </trkpt>
      <trkpt lat="43.74756" lon="5.58479">
        <ele>395.376</ele>
        <time>2020-09-02T19:03:23Z</time>
      </trkpt>
      <trkpt lat="43.7476" lon="5.58471">
        <ele>394.282</ele>
        <time>2020-09-02T19:03:24Z</time>
      </trkpt>
      <trkpt lat="43.74762" lon="5.58463">
        <ele>393.455</ele>
        <time>2020-09-02T19:03:25Z</time>
      </trkpt>
      <trkpt lat="43.74763" lon="5.58455">
        <ele>392.723</ele>
        <time>2020-09-02T19:03:26Z</time>
      </trkpt>
      <trkpt lat="43.74764" lon="5.58448">
        <ele>392.283</ele>
        <time>2020-09-02T19:03:27Z</time>
      </trkpt>
      <trkpt lat="43.74767" lon="5.58442">
        <ele>391.811</ele>
        <time>2020-09-02T19:03:28Z</time>
      </trkpt>
      <trkpt lat="43.7477" lon="5.58437">
        <ele>391.408</ele>
        <time>2020-09-02T19:03:29Z</time>
      </trkpt>
      <trkpt lat="43.74774" lon="5.58431">
        <ele>391.26</ele>
        <time>2020-09-02T19:03:30Z</time>
      </trkpt>
      <trkpt lat="43.74777" lon="5.58426">
        <ele>390.879</ele>
        <time>2020-09-02T19:03:31Z</time>
      </trkpt>
      <trkpt lat="43.74779" lon="5.5842">
        <ele>390.339</ele>
        <time>2020-09-02T19:03:32Z</time>
      </trkpt>
      <trkpt lat="43.7478" lon="5.58413">
        <ele>390.296</ele>
        <time>2020-09-02T19:03:33Z</time>
      </trkpt>
      <trkpt lat="43.74779" lon="5.58405">
        <ele>390.067</ele>
        <time>2020-09-02T19:03:34Z</time>
      </trkpt>
      <trkpt lat="43.74778" lon="5.58398">
        <ele>389.695</ele>
        <time>2020-09-02T19:03:35Z</time>
      </trkpt>
      <trkpt lat="43.74776" lon="5.58389">
        <ele>389.221</ele>
        <time>2020-09-02T19:03:36Z</time>
      </trkpt>
      <trkpt lat="43.74774" lon="5.5838">
        <ele>388.474</ele>
        <time>2020-09-02T19:03:37Z</time>
      </trkpt>
      <trkpt lat="43.74772" lon="5.58372">
        <ele>387.548</ele>
        <time>2020-09-02T19:03:38Z</time>
      </trkpt>
      <trkpt lat="43.74772" lon="5.58363">
        <ele>386.761</ele>
        <time>2020-09-02T19:03:39Z</time>
      </trkpt>
      <trkpt lat="43.74773" lon="5.58354">
        <ele>386.517</ele>
        <time>2020-09-02T19:03:40Z</time>
      </trkpt>
      <trkpt lat="43.74773" lon="5.58346">
        <ele>386.208</ele>
        <time>2020-09-02T19:03:41Z</time>
      </trkpt>
      <trkpt lat="43.74772" lon="5.58337">
        <ele>386.052</ele>
        <time>2020-09-02T19:03:42Z</time>
      </trkpt>
      <trkpt lat="43.74771" lon="5.5833">
        <ele>385.141</ele>
        <time>2020-09-02T19:03:43Z</time>
      </trkpt>
      <trkpt lat="43.7477" lon="5.58322">
        <ele>384.661</ele>
        <time>2020-09-02T19:03:44Z</time>
      </trkpt>
      <trkpt lat="43.74771" lon="5.58314">
        <ele>384.128</ele>
        <time>2020-09-02T19:03:45Z</time>
      </trkpt>
      <trkpt lat="43.74772" lon="5.58305">
        <ele>383.769</ele>
        <time>2020-09-02T19:03:46Z</time>
      </trkpt>
      <trkpt lat="43.74773" lon="5.58296">
        <ele>383.597</ele>
        <time>2020-09-02T19:03:47Z</time>
      </trkpt>
      <trkpt lat="43.74775" lon="5.58287">
        <ele>383.423</ele>
        <time>2020-09-02T19:03:48Z</time>
      </trkpt>
      <trkpt lat="43.74775" lon="5.58279">
        <ele>382.966</ele>
        <time>2020-09-02T19:03:49Z</time>
      </trkpt>
      <trkpt lat="43.74775" lon="5.58272">
        <ele>382.246</ele>
        <time>2020-09-02T19:03:50Z</time>
      </trkpt>
      <trkpt lat="43.74775" lon="5.58263">
        <ele>381.588</ele>
        <time>2020-09-02T19:03:51Z</time>
      </trkpt>
      <trkpt lat="43.74774" lon="5.58256">
        <ele>381.216</ele>
        <time>2020-09-02T19:03:52Z</time>
      </trkpt>
      <trkpt lat="43.74773" lon="5.58248">
        <ele>381.108</ele>
        <time>2020-09-02T19:03:53Z</time>
      </trkpt>
      <trkpt lat="43.74772" lon="5.58241">
        <ele>380.482</ele>
        <time>2020-09-02T19:03:54Z</time>
      </trkpt>
      <trkpt lat="43.74771" lon="5.58234">
        <ele>379.681</ele>
        <time>2020-09-02T19:03:55Z</time>
      </trkpt>
      <trkpt lat="43.7477" lon="5.58227">
        <ele>378.961</ele>
        <time>2020-09-02T19:03:56Z</time>
      </trkpt>
      <trkpt lat="43.7477" lon="5.5822">
        <ele>377.968</ele>
        <time>2020-09-02T19:03:57Z</time>
      </trkpt>
      <trkpt lat="43.74769" lon="5.58211">
        <ele>377.079</ele>
        <time>2020-09-02T19:03:58Z</time>
      </trkpt>
      <trkpt lat="43.74771" lon="5.58203">
        <ele>376.017</ele>
        <time>2020-09-02T19:03:59Z</time>
      </trkpt>
      <trkpt lat="43.74772" lon="5.58196">
        <ele>375.223</ele>
        <time>2020-09-02T19:04:00Z</time>
      </trkpt>
      <trkpt lat="43.74773" lon="5.58188">
        <ele>374.956</ele>
        <time>2020-09-02T19:04:01Z</time>
      </trkpt>
      <trkpt lat="43.74775" lon="5.58182">
        <ele>374.032</ele>
        <time>2020-09-02T19:04:02Z</time>
      </trkpt>
      <trkpt lat="43.74777" lon="5.58175">
        <ele>373.292</ele>
        <time>2020-09-02T19:04:03Z</time>
      </trkpt>
      <trkpt lat="43.74777" lon="5.58169">
        <ele>372.511</ele>
        <time>2020-09-02T19:04:04Z</time>
      </trkpt>
      <trkpt lat="43.7478" lon="5.58158">
        <ele>371.008</ele>
        <time>2020-09-02T19:04:06Z</time>
      </trkpt>
      <trkpt lat="43.74782" lon="5.58152">
        <ele>370.521</ele>
        <time>2020-09-02T19:04:07Z</time>
      </trkpt>
      <trkpt lat="43.74786" lon="5.5814">
        <ele>368.42</ele>
        <time>2020-09-02T19:04:09Z</time>
      </trkpt>
      <trkpt lat="43.74788" lon="5.58133">
        <ele>367.28</ele>
        <time>2020-09-02T19:04:10Z</time>
      </trkpt>
      <trkpt lat="43.74791" lon="5.58126">
        <ele>366.147</ele>
        <time>2020-09-02T19:04:11Z</time>
      </trkpt>
      <trkpt lat="43.74793" lon="5.5812">
        <ele>365.368</ele>
        <time>2020-09-02T19:04:12Z</time>
      </trkpt>
      <trkpt lat="43.74795" lon="5.58114">
        <ele>364.966</ele>
        <time>2020-09-02T19:04:13Z</time>
      </trkpt>
      <trkpt lat="43.74797" lon="5.58108">
        <ele>364.372</ele>
        <time>2020-09-02T19:04:14Z</time>
      </trkpt>
      <trkpt lat="43.74802" lon="5.581">
        <ele>361.625</ele>
        <time>2020-09-02T19:04:16Z</time>
      </trkpt>
      <trkpt lat="43.74806" lon="5.5809">
        <ele>360.835</ele>
        <time>2020-09-02T19:04:18Z</time>
      </trkpt>
      <trkpt lat="43.74807" lon="5.58084">
        <ele>360.586</ele>
        <time>2020-09-02T19:04:19Z</time>
      </trkpt>
      <trkpt lat="43.74808" lon="5.58077">
        <ele>360.314</ele>
        <time>2020-09-02T19:04:20Z</time>
      </trkpt>
      <trkpt lat="43.74809" lon="5.5807">
        <ele>359.608</ele>
        <time>2020-09-02T19:04:21Z</time>
      </trkpt>
      <trkpt lat="43.74812" lon="5.58065">
        <ele>358.891</ele>
        <time>2020-09-02T19:04:22Z</time>
      </trkpt>
      <trkpt lat="43.74814" lon="5.58057">
        <ele>357.83</ele>
        <time>2020-09-02T19:04:23Z</time>
      </trkpt>
      <trkpt lat="43.74817" lon="5.58052">
        <ele>356.56</ele>
        <time>2020-09-02T19:04:24Z</time>
      </trkpt>
      <trkpt lat="43.74821" lon="5.58048">
        <ele>354.727</ele>
        <time>2020-09-02T19:04:25Z</time>
      </trkpt>
      <trkpt lat="43.74825" lon="5.58043">
        <ele>353.738</ele>
        <time>2020-09-02T19:04:26Z</time>
      </trkpt>
      <trkpt lat="43.74829" lon="5.58038">
        <ele>352.936</ele>
        <time>2020-09-02T19:04:27Z</time>
      </trkpt>
      <trkpt lat="43.74831" lon="5.58033">
        <ele>351.952</ele>
        <time>2020-09-02T19:04:28Z</time>
      </trkpt>
      <trkpt lat="43.74833" lon="5.58026">
        <ele>350.865</ele>
        <time>2020-09-02T19:04:29Z</time>
      </trkpt>
      <trkpt lat="43.74834" lon="5.58013">
        <ele>349.544</ele>
        <time>2020-09-02T19:04:31Z</time>
      </trkpt>
      <trkpt lat="43.74835" lon="5.58005">
        <ele>348.405</ele>
        <time>2020-09-02T19:04:32Z</time>
      </trkpt>
      <trkpt lat="43.74836" lon="5.57997">
        <ele>347.815</ele>
        <time>2020-09-02T19:04:33Z</time>
      </trkpt>
      <trkpt lat="43.74837" lon="5.57989">
        <ele>346.308</ele>
        <time>2020-09-02T19:04:34Z</time>
      </trkpt>
      <trkpt lat="43.74838" lon="5.57981">
        <ele>346.272</ele>
        <time>2020-09-02T19:04:35Z</time>
      </trkpt>
      <trkpt lat="43.74839" lon="5.57974">
        <ele>345.811</ele>
        <time>2020-09-02T19:04:36Z</time>
      </trkpt>
      <trkpt lat="43.7484" lon="5.57967">
        <ele>345.011</ele>
        <time>2020-09-02T19:04:37Z</time>
      </trkpt>
      <trkpt lat="43.74842" lon="5.57962">
        <ele>344.488</ele>
        <time>2020-09-02T19:04:38Z</time>
      </trkpt>
      <trkpt lat="43.74844" lon="5.57956">
        <ele>343.529</ele>
        <time>2020-09-02T19:04:39Z</time>
      </trkpt>
      <trkpt lat="43.74847" lon="5.57949">
        <ele>342.827</ele>
        <time>2020-09-02T19:04:40Z</time>
      </trkpt>
      <trkpt lat="43.7485" lon="5.57942">
        <ele>342.143</ele>
        <time>2020-09-02T19:04:41Z</time>
      </trkpt>
      <trkpt lat="43.74853" lon="5.57935">
        <ele>341.346</ele>
        <time>2020-09-02T19:04:42Z</time>
      </trkpt>
      <trkpt lat="43.74855" lon="5.57926">
        <ele>340.851</ele>
        <time>2020-09-02T19:04:43Z</time>
      </trkpt>
      <trkpt lat="43.74857" lon="5.57918">
        <ele>339.601</ele>
        <time>2020-09-02T19:04:44Z</time>
      </trkpt>
      <trkpt lat="43.74857" lon="5.57908">
        <ele>339.311</ele>
        <time>2020-09-02T19:04:45Z</time>
      </trkpt>
      <trkpt lat="43.74857" lon="5.579">
        <ele>338.308</ele>
        <time>2020-09-02T19:04:46Z</time>
      </trkpt>
      <trkpt lat="43.74857" lon="5.57892">
        <ele>337.993</ele>
        <time>2020-09-02T19:04:47Z</time>
      </trkpt>
      <trkpt lat="43.74856" lon="5.57883">
        <ele>337.682</ele>
        <time>2020-09-02T19:04:48Z</time>
      </trkpt>
      <trkpt lat="43.74856" lon="5.57874">
        <ele>336.842</ele>
        <time>2020-09-02T19:04:49Z</time>
      </trkpt>
      <trkpt lat="43.74854" lon="5.57866">
        <ele>336.789</ele>
        <time>2020-09-02T19:04:50Z</time>
      </trkpt>
      <trkpt lat="43.74851" lon="5.57859">
        <ele>335.14</ele>
        <time>2020-09-02T19:04:51Z</time>
      </trkpt>
      <trkpt lat="43.74849" lon="5.57852">
        <ele>334.588</ele>
        <time>2020-09-02T19:04:52Z</time>
      </trkpt>
      <trkpt lat="43.74848" lon="5.57846">
        <ele>333.064</ele>
        <time>2020-09-02T19:04:53Z</time>
      </trkpt>
      <trkpt lat="43.74847" lon="5.57838">
        <ele>332.117</ele>
        <time>2020-09-02T19:04:54Z</time>
      </trkpt>
      <trkpt lat="43.74846" lon="5.57831">
        <ele>331.395</ele>
        <time>2020-09-02T19:04:55Z</time>
      </trkpt>
      <trkpt lat="43.74846" lon="5.57824">
        <ele>330.449</ele>
        <time>2020-09-02T19:04:56Z</time>
      </trkpt>
      <trkpt lat="43.74846" lon="5.57815">
        <ele>330.223</ele>
        <time>2020-09-02T19:04:57Z</time>
      </trkpt>
      <trkpt lat="43.74846" lon="5.57808">
        <ele>329.508</ele>
        <time>2020-09-02T19:04:58Z</time>
      </trkpt>
      <trkpt lat="43.74847" lon="5.57801">
        <ele>328.757</ele>
        <time>2020-09-02T19:04:59Z</time>
      </trkpt>
      <trkpt lat="43.74849" lon="5.57794">
        <ele>327.996</ele>
        <time>2020-09-02T19:05:00Z</time>
      </trkpt>
      <trkpt lat="43.74849" lon="5.57787">
        <ele>327.386</ele>
        <time>2020-09-02T19:05:01Z</time>
      </trkpt>
      <trkpt lat="43.74851" lon="5.5778">
        <ele>326.843</ele>
        <time>2020-09-02T19:05:02Z</time>
      </trkpt>
      <trkpt lat="43.74853" lon="5.57773">
        <ele>325.784</ele>
        <time>2020-09-02T19:05:03Z</time>
      </trkpt>
      <trkpt lat="43.74856" lon="5.57767">
        <ele>324.322</ele>
        <time>2020-09-02T19:05:04Z</time>
      </trkpt>
      <trkpt lat="43.7486" lon="5.57761">
        <ele>323.888</ele>
        <time>2020-09-02T19:05:05Z</time>
      </trkpt>
      <trkpt lat="43.74862" lon="5.57754">
        <ele>323.061</ele>
        <time>2020-09-02T19:05:06Z</time>
      </trkpt>
      <trkpt lat="43.74861" lon="5.57742">
        <ele>320.738</ele>
        <time>2020-09-02T19:05:08Z</time>
      </trkpt>
      <trkpt lat="43.74857" lon="5.57732">
        <ele>318.47</ele>
        <time>2020-09-02T19:05:10Z</time>
      </trkpt>
      <trkpt lat="43.74857" lon="5.57725">
        <ele>317.317</ele>
        <time>2020-09-02T19:05:11Z</time>
      </trkpt>
      <trkpt lat="43.74856" lon="5.57717">
        <ele>315.708</ele>
        <time>2020-09-02T19:05:12Z</time>
      </trkpt>
      <trkpt lat="43.74856" lon="5.57709">
        <ele>314.561</ele>
        <time>2020-09-02T19:05:13Z</time>
      </trkpt>
      <trkpt lat="43.74857" lon="5.57702">
        <ele>313.48</ele>
        <time>2020-09-02T19:05:14Z</time>
      </trkpt>
      <trkpt lat="43.74858" lon="5.57693">
        <ele>312.93</ele>
        <time>2020-09-02T19:05:15Z</time>
      </trkpt>
      <trkpt lat="43.74858" lon="5.57686">
        <ele>311.757</ele>
        <time>2020-09-02T19:05:16Z</time>
      </trkpt>
      <trkpt lat="43.74859" lon="5.57678">
        <ele>311.318</ele>
        <time>2020-09-02T19:05:17Z</time>
      </trkpt>
      <trkpt lat="43.7486" lon="5.57669">
        <ele>311.036</ele>
        <time>2020-09-02T19:05:18Z</time>
      </trkpt>
      <trkpt lat="43.7486" lon="5.57661">
        <ele>310.282</ele>
        <time>2020-09-02T19:05:19Z</time>
      </trkpt>
      <trkpt lat="43.74859" lon="5.57653">
        <ele>310.035</ele>
        <time>2020-09-02T19:05:20Z</time>
      </trkpt>
      <trkpt lat="43.74858" lon="5.57645">
        <ele>309.448</ele>
        <time>2020-09-02T19:05:21Z</time>
      </trkpt>
      <trkpt lat="43.74857" lon="5.57638">
        <ele>308.961</ele>
        <time>2020-09-02T19:05:22Z</time>
      </trkpt>
      <trkpt lat="43.74855" lon="5.57627">
        <ele>307.717</ele>
        <time>2020-09-02T19:05:24Z</time>
      </trkpt>
      <trkpt lat="43.74854" lon="5.57619">
        <ele>307.108</ele>
        <time>2020-09-02T19:05:26Z</time>
      </trkpt>
      <trkpt lat="43.74858" lon="5.57616">
        <ele>306.382</ele>
        <time>2020-09-02T19:05:30Z</time>
      </trkpt>
      <trkpt lat="43.74862" lon="5.57611">
        <ele>305.791</ele>
        <time>2020-09-02T19:05:33Z</time>
      </trkpt>
      <trkpt lat="43.74863" lon="5.57603">
        <ele>304.451</ele>
        <time>2020-09-02T19:05:36Z</time>
      </trkpt>
      <trkpt lat="43.74864" lon="5.57596">
        <ele>304.188</ele>
        <time>2020-09-02T19:05:38Z</time>
      </trkpt>
      <trkpt lat="43.74865" lon="5.57589">
        <ele>303.859</ele>
        <time>2020-09-02T19:05:40Z</time>
      </trkpt>
      <trkpt lat="43.74865" lon="5.57583">
        <ele>303.087</ele>
        <time>2020-09-02T19:05:42Z</time>
      </trkpt>
      <trkpt lat="43.74864" lon="5.57574">
        <ele>302.973</ele>
        <time>2020-09-02T19:05:44Z</time>
      </trkpt>
      <trkpt lat="43.74858" lon="5.57562">
        <ele>303.646</ele>
        <time>2020-09-02T19:05:46Z</time>
      </trkpt>
      <trkpt lat="43.74855" lon="5.57557">
        <ele>304.019</ele>
        <time>2020-09-02T19:05:47Z</time>
      </trkpt>
      <trkpt lat="43.7485" lon="5.57547">
        <ele>304.309</ele>
        <time>2020-09-02T19:05:49Z</time>
      </trkpt>
      <trkpt lat="43.74846" lon="5.57542">
        <ele>304.519</ele>
        <time>2020-09-02T19:05:50Z</time>
      </trkpt>
      <trkpt lat="43.74842" lon="5.57537">
        <ele>304.408</ele>
        <time>2020-09-02T19:05:51Z</time>
      </trkpt>
      <trkpt lat="43.74838" lon="5.57531">
        <ele>304.749</ele>
        <time>2020-09-02T19:05:52Z</time>
      </trkpt>
      <trkpt lat="43.74833" lon="5.57525">
        <ele>304.958</ele>
        <time>2020-09-02T19:05:53Z</time>
      </trkpt>
      <trkpt lat="43.74829" lon="5.5752">
        <ele>304.618</ele>
        <time>2020-09-02T19:05:54Z</time>
      </trkpt>
      <trkpt lat="43.74824" lon="5.57513">
        <ele>304.395</ele>
        <time>2020-09-02T19:05:55Z</time>
      </trkpt>
      <trkpt lat="43.74819" lon="5.57507">
        <ele>303.826</ele>
        <time>2020-09-02T19:05:56Z</time>
      </trkpt>
      <trkpt lat="43.74815" lon="5.575">
        <ele>303.444</ele>
        <time>2020-09-02T19:05:57Z</time>
      </trkpt>
      <trkpt lat="43.74811" lon="5.57493">
        <ele>302.93</ele>
        <time>2020-09-02T19:05:58Z</time>
      </trkpt>
      <trkpt lat="43.74808" lon="5.57485">
        <ele>302.493</ele>
        <time>2020-09-02T19:05:59Z</time>
      </trkpt>
      <trkpt lat="43.74806" lon="5.57478">
        <ele>302.154</ele>
        <time>2020-09-02T19:06:00Z</time>
      </trkpt>
      <trkpt lat="43.74805" lon="5.57471">
        <ele>302.256</ele>
        <time>2020-09-02T19:06:01Z</time>
      </trkpt>
      <trkpt lat="43.74807" lon="5.57461">
        <ele>302.411</ele>
        <time>2020-09-02T19:06:02Z</time>
      </trkpt>
      <trkpt lat="43.74808" lon="5.57452">
        <ele>302.308</ele>
        <time>2020-09-02T19:06:03Z</time>
      </trkpt>
      <trkpt lat="43.74808" lon="5.5744">
        <ele>302.163</ele>
        <time>2020-09-02T19:06:04Z</time>
      </trkpt>
      <trkpt lat="43.74808" lon="5.57429">
        <ele>301.342</ele>
        <time>2020-09-02T19:06:05Z</time>
      </trkpt>
      <trkpt lat="43.74808" lon="5.57417">
        <ele>300.892</ele>
        <time>2020-09-02T19:06:06Z</time>
      </trkpt>
      <trkpt lat="43.74807" lon="5.57406">
        <ele>300.879</ele>
        <time>2020-09-02T19:06:07Z</time>
      </trkpt>
      <trkpt lat="43.74806" lon="5.57397">
        <ele>300.28</ele>
        <time>2020-09-02T19:06:08Z</time>
      </trkpt>
      <trkpt lat="43.74807" lon="5.57388">
        <ele>299.618</ele>
        <time>2020-09-02T19:06:09Z</time>
      </trkpt>
      <trkpt lat="43.74808" lon="5.57377">
        <ele>299.014</ele>
        <time>2020-09-02T19:06:10Z</time>
      </trkpt>
      <trkpt lat="43.74809" lon="5.57365">
        <ele>298.147</ele>
        <time>2020-09-02T19:06:11Z</time>
      </trkpt>
      <trkpt lat="43.74812" lon="5.57355">
        <ele>297.188</ele>
        <time>2020-09-02T19:06:12Z</time>
      </trkpt>
      <trkpt lat="43.74815" lon="5.57347">
        <ele>296.324</ele>
        <time>2020-09-02T19:06:13Z</time>
      </trkpt>
      <trkpt lat="43.7482" lon="5.57341">
        <ele>295.726</ele>
        <time>2020-09-02T19:06:14Z</time>
      </trkpt>
      <trkpt lat="43.74825" lon="5.57339">
        <ele>295.408</ele>
        <time>2020-09-02T19:06:15Z</time>
      </trkpt>
      <trkpt lat="43.7483" lon="5.57338">
        <ele>295.426</ele>
        <time>2020-09-02T19:06:16Z</time>
      </trkpt>
      <trkpt lat="43.74835" lon="5.57337">
        <ele>295.215</ele>
        <time>2020-09-02T19:06:17Z</time>
      </trkpt>
      <trkpt lat="43.74844" lon="5.57332">
        <ele>294.555</ele>
        <time>2020-09-02T19:06:19Z</time>
      </trkpt>
      <trkpt lat="43.74846" lon="5.57327">
        <ele>293.372</ele>
        <time>2020-09-02T19:06:20Z</time>
      </trkpt>
      <trkpt lat="43.74849" lon="5.57321">
        <ele>292.523</ele>
        <time>2020-09-02T19:06:21Z</time>
      </trkpt>
      <trkpt lat="43.74852" lon="5.57313">
        <ele>292.161</ele>
        <time>2020-09-02T19:06:22Z</time>
      </trkpt>
      <trkpt lat="43.74855" lon="5.57306">
        <ele>291.297</ele>
        <time>2020-09-02T19:06:23Z</time>
      </trkpt>
      <trkpt lat="43.74859" lon="5.57299">
        <ele>290.95</ele>
        <time>2020-09-02T19:06:24Z</time>
      </trkpt>
      <trkpt lat="43.74863" lon="5.57291">
        <ele>290.523</ele>
        <time>2020-09-02T19:06:25Z</time>
      </trkpt>
      <trkpt lat="43.74868" lon="5.57283">
        <ele>290.183</ele>
        <time>2020-09-02T19:06:26Z</time>
      </trkpt>
      <trkpt lat="43.74873" lon="5.57273">
        <ele>290.011</ele>
        <time>2020-09-02T19:06:27Z</time>
      </trkpt>
      <trkpt lat="43.74877" lon="5.57265">
        <ele>289.308</ele>
        <time>2020-09-02T19:06:28Z</time>
      </trkpt>
      <trkpt lat="43.74882" lon="5.57256">
        <ele>289.34</ele>
        <time>2020-09-02T19:06:29Z</time>
      </trkpt>
      <trkpt lat="43.74886" lon="5.57246">
        <ele>288.299</ele>
        <time>2020-09-02T19:06:30Z</time>
      </trkpt>
      <trkpt lat="43.74889" lon="5.57236">
        <ele>287.839</ele>
        <time>2020-09-02T19:06:31Z</time>
      </trkpt>
      <trkpt lat="43.74893" lon="5.57226">
        <ele>287.536</ele>
        <time>2020-09-02T19:06:32Z</time>
      </trkpt>
      <trkpt lat="43.74897" lon="5.57216">
        <ele>287.167</ele>
        <time>2020-09-02T19:06:33Z</time>
      </trkpt>
      <trkpt lat="43.74901" lon="5.57206">
        <ele>288.165</ele>
        <time>2020-09-02T19:06:34Z</time>
      </trkpt>
      <trkpt lat="43.74903" lon="5.57198">
        <ele>287.811</ele>
        <time>2020-09-02T19:06:35Z</time>
      </trkpt>
      <trkpt lat="43.74904" lon="5.57189">
        <ele>288.034</ele>
        <time>2020-09-02T19:06:36Z</time>
      </trkpt>
      <trkpt lat="43.74901" lon="5.57182">
        <ele>288.038</ele>
        <time>2020-09-02T19:06:37Z</time>
      </trkpt>
      <trkpt lat="43.74899" lon="5.57175">
        <ele>286.77</ele>
        <time>2020-09-02T19:06:38Z</time>
      </trkpt>
      <trkpt lat="43.74895" lon="5.57166">
        <ele>285.617</ele>
        <time>2020-09-02T19:06:40Z</time>
      </trkpt>
      <trkpt lat="43.74899" lon="5.57158">
        <ele>285.008</ele>
        <time>2020-09-02T19:06:41Z</time>
      </trkpt>
      <trkpt lat="43.74902" lon="5.57153">
        <ele>284.671</ele>
        <time>2020-09-02T19:06:42Z</time>
      </trkpt>
      <trkpt lat="43.74907" lon="5.57148">
        <ele>284.41</ele>
        <time>2020-09-02T19:06:43Z</time>
      </trkpt>
      <trkpt lat="43.74911" lon="5.57141">
        <ele>284.36</ele>
        <time>2020-09-02T19:06:44Z</time>
      </trkpt>
      <trkpt lat="43.74917" lon="5.57136">
        <ele>283.937</ele>
        <time>2020-09-02T19:06:45Z</time>
      </trkpt>
      <trkpt lat="43.74922" lon="5.57131">
        <ele>283.948</ele>
        <time>2020-09-02T19:06:46Z</time>
      </trkpt>
      <trkpt lat="43.74928" lon="5.57125">
        <ele>283.596</ele>
        <time>2020-09-02T19:06:47Z</time>
      </trkpt>
      <trkpt lat="43.74934" lon="5.5712">
        <ele>283.212</ele>
        <time>2020-09-02T19:06:48Z</time>
      </trkpt>
      <trkpt lat="43.7494" lon="5.57114">
        <ele>284.325</ele>
        <time>2020-09-02T19:06:49Z</time>
      </trkpt>
      <trkpt lat="43.74946" lon="5.57109">
        <ele>283.846</ele>
        <time>2020-09-02T19:06:50Z</time>
      </trkpt>
      <trkpt lat="43.74951" lon="5.57104">
        <ele>283.988</ele>
        <time>2020-09-02T19:06:51Z</time>
      </trkpt>
      <trkpt lat="43.74957" lon="5.57097">
        <ele>283.716</ele>
        <time>2020-09-02T19:06:53Z</time>
      </trkpt>
      <trkpt lat="43.74961" lon="5.57092">
        <ele>283.508</ele>
        <time>2020-09-02T19:06:54Z</time>
      </trkpt>
      <trkpt lat="43.74966" lon="5.57082">
        <ele>283.382</ele>
        <time>2020-09-02T19:06:56Z</time>
      </trkpt>
      <trkpt lat="43.74966" lon="5.57075">
        <ele>283.031</ele>
        <time>2020-09-02T19:06:57Z</time>
      </trkpt>
      <trkpt lat="43.74965" lon="5.57069">
        <ele>282.841</ele>
        <time>2020-09-02T19:06:58Z</time>
      </trkpt>
      <trkpt lat="43.74962" lon="5.57065">
        <ele>282.898</ele>
        <time>2020-09-02T19:06:59Z</time>
      </trkpt>
      <trkpt lat="43.74957" lon="5.57061">
        <ele>282.849</ele>
        <time>2020-09-02T19:07:00Z</time>
      </trkpt>
      <trkpt lat="43.74952" lon="5.5706">
        <ele>282.427</ele>
        <time>2020-09-02T19:07:01Z</time>
      </trkpt>
      <trkpt lat="43.74947" lon="5.57061">
        <ele>282.623</ele>
        <time>2020-09-02T19:07:02Z</time>
      </trkpt>
      <trkpt lat="43.74942" lon="5.57063">
        <ele>282.516</ele>
        <time>2020-09-02T19:07:03Z</time>
      </trkpt>
      <trkpt lat="43.74937" lon="5.57065">
        <ele>282.578</ele>
        <time>2020-09-02T19:07:04Z</time>
      </trkpt>
      <trkpt lat="43.74932" lon="5.57069">
        <ele>282.533</ele>
        <time>2020-09-02T19:07:05Z</time>
      </trkpt>
      <trkpt lat="43.74927" lon="5.57071">
        <ele>282.526</ele>
        <time>2020-09-02T19:07:06Z</time>
      </trkpt>
      <trkpt lat="43.7492" lon="5.57075">
        <ele>282.808</ele>
        <time>2020-09-02T19:07:07Z</time>
      </trkpt>
      <trkpt lat="43.74911" lon="5.57077">
        <ele>282.985</ele>
        <time>2020-09-02T19:07:08Z</time>
      </trkpt>
      <trkpt lat="43.74904" lon="5.57076">
        <ele>283.014</ele>
        <time>2020-09-02T19:07:09Z</time>
      </trkpt>
      <trkpt lat="43.74897" lon="5.57077">
        <ele>283.224</ele>
        <time>2020-09-02T19:07:10Z</time>
      </trkpt>
      <trkpt lat="43.74892" lon="5.57076">
        <ele>283.021</ele>
        <time>2020-09-02T19:07:11Z</time>
      </trkpt>
      <trkpt lat="43.74886" lon="5.57073">
        <ele>282.512</ele>
        <time>2020-09-02T19:07:12Z</time>
      </trkpt>
      <trkpt lat="43.74879" lon="5.57068">
        <ele>282.26</ele>
        <time>2020-09-02T19:07:13Z</time>
      </trkpt>
      <trkpt lat="43.74873" lon="5.57064">
        <ele>282.496</ele>
        <time>2020-09-02T19:07:14Z</time>
      </trkpt>
      <trkpt lat="43.74868" lon="5.57059">
        <ele>282.329</ele>
        <time>2020-09-02T19:07:15Z</time>
      </trkpt>
      <trkpt lat="43.74861" lon="5.57055">
        <ele>282.144</ele>
        <time>2020-09-02T19:07:16Z</time>
      </trkpt>
      <trkpt lat="43.74856" lon="5.57051">
        <ele>281.905</ele>
        <time>2020-09-02T19:07:17Z</time>
      </trkpt>
      <trkpt lat="43.74852" lon="5.57044">
        <ele>281.815</ele>
        <time>2020-09-02T19:07:18Z</time>
      </trkpt>
      <trkpt lat="43.74849" lon="5.57034">
        <ele>280.508</ele>
        <time>2020-09-02T19:07:19Z</time>
      </trkpt>
      <trkpt lat="43.74846" lon="5.57024">
        <ele>280.422</ele>
        <time>2020-09-02T19:07:20Z</time>
      </trkpt>
      <trkpt lat="43.74844" lon="5.57013">
        <ele>279.981</ele>
        <time>2020-09-02T19:07:21Z</time>
      </trkpt>
      <trkpt lat="43.74844" lon="5.57002">
        <ele>280.391</ele>
        <time>2020-09-02T19:07:22Z</time>
      </trkpt>
      <trkpt lat="43.74843" lon="5.56991">
        <ele>280.768</ele>
        <time>2020-09-02T19:07:23Z</time>
      </trkpt>
      <trkpt lat="43.7484" lon="5.56983">
        <ele>280.799</ele>
        <time>2020-09-02T19:07:24Z</time>
      </trkpt>
      <trkpt lat="43.74838" lon="5.56975">
        <ele>280.987</ele>
        <time>2020-09-02T19:07:25Z</time>
      </trkpt>
      <trkpt lat="43.74834" lon="5.56969">
        <ele>281.043</ele>
        <time>2020-09-02T19:07:26Z</time>
      </trkpt>
      <trkpt lat="43.74828" lon="5.56966">
        <ele>281.216</ele>
        <time>2020-09-02T19:07:27Z</time>
      </trkpt>
      <trkpt lat="43.74822" lon="5.56962">
        <ele>281.398</ele>
        <time>2020-09-02T19:07:28Z</time>
      </trkpt>
      <trkpt lat="43.74819" lon="5.56956">
        <ele>281.215</ele>
        <time>2020-09-02T19:07:29Z</time>
      </trkpt>
      <trkpt lat="43.74816" lon="5.56951">
        <ele>282.026</ele>
        <time>2020-09-02T19:07:30Z</time>
      </trkpt>
      <trkpt lat="43.74815" lon="5.56944">
        <ele>282.208</ele>
        <time>2020-09-02T19:07:31Z</time>
      </trkpt>
      <trkpt lat="43.74815" lon="5.56936">
        <ele>282.557</ele>
        <time>2020-09-02T19:07:32Z</time>
      </trkpt>
      <trkpt lat="43.74817" lon="5.56928">
        <ele>282.886</ele>
        <time>2020-09-02T19:07:33Z</time>
      </trkpt>
      <trkpt lat="43.74823" lon="5.56921">
        <ele>284.366</ele>
        <time>2020-09-02T19:07:34Z</time>
      </trkpt>
      <trkpt lat="43.74828" lon="5.56915">
        <ele>285.053</ele>
        <time>2020-09-02T19:07:35Z</time>
      </trkpt>
      <trkpt lat="43.74832" lon="5.5691">
        <ele>285.424</ele>
        <time>2020-09-02T19:07:36Z</time>
      </trkpt>
      <trkpt lat="43.74838" lon="5.56904">
        <ele>285.722</ele>
        <time>2020-09-02T19:07:38Z</time>
      </trkpt>
      <trkpt lat="43.74842" lon="5.56899">
        <ele>286.268</ele>
        <time>2020-09-02T19:07:40Z</time>
      </trkpt>
      <trkpt lat="43.74849" lon="5.56899">
        <ele>287.611</ele>
        <time>2020-09-02T19:07:44Z</time>
      </trkpt>
      <trkpt lat="43.74853" lon="5.56901">
        <ele>288.011</ele>
        <time>2020-09-02T19:07:45Z</time>
      </trkpt>
      <trkpt lat="43.74858" lon="5.56906">
        <ele>288.121</ele>
        <time>2020-09-02T19:07:46Z</time>
      </trkpt>
      <trkpt lat="43.74863" lon="5.5691">
        <ele>288.503</ele>
        <time>2020-09-02T19:07:47Z</time>
      </trkpt>
      <trkpt lat="43.7487" lon="5.56915">
        <ele>288.808</ele>
        <time>2020-09-02T19:07:48Z</time>
      </trkpt>
      <trkpt lat="43.74878" lon="5.5692">
        <ele>289.649</ele>
        <time>2020-09-02T19:07:49Z</time>
      </trkpt>
      <trkpt lat="43.74886" lon="5.56925">
        <ele>289.198</ele>
        <time>2020-09-02T19:07:50Z</time>
      </trkpt>
      <trkpt lat="43.74895" lon="5.5693">
        <ele>289.478</ele>
        <time>2020-09-02T19:07:51Z</time>
      </trkpt>
      <trkpt lat="43.74904" lon="5.56934">
        <ele>290.485</ele>
        <time>2020-09-02T19:07:52Z</time>
      </trkpt>
      <trkpt lat="43.74914" lon="5.56938">
        <ele>290.226</ele>
        <time>2020-09-02T19:07:53Z</time>
      </trkpt>
      <trkpt lat="43.74925" lon="5.56942">
        <ele>291.194</ele>
        <time>2020-09-02T19:07:54Z</time>
      </trkpt>
      <trkpt lat="43.74936" lon="5.56945">
        <ele>291.67</ele>
        <time>2020-09-02T19:07:55Z</time>
      </trkpt>
      <trkpt lat="43.74946" lon="5.5695">
        <ele>291.943</ele>
        <time>2020-09-02T19:07:56Z</time>
      </trkpt>
      <trkpt lat="43.74958" lon="5.56954">
        <ele>292.385</ele>
        <time>2020-09-02T19:07:57Z</time>
      </trkpt>
      <trkpt lat="43.74969" lon="5.56958">
        <ele>292.589</ele>
        <time>2020-09-02T19:07:58Z</time>
      </trkpt>
      <trkpt lat="43.74979" lon="5.56963">
        <ele>292.517</ele>
        <time>2020-09-02T19:07:59Z</time>
      </trkpt>
      <trkpt lat="43.7499" lon="5.56966">
        <ele>292.608</ele>
        <time>2020-09-02T19:08:00Z</time>
      </trkpt>
      <trkpt lat="43.75002" lon="5.5697">
        <ele>293.456</ele>
        <time>2020-09-02T19:08:01Z</time>
      </trkpt>
      <trkpt lat="43.75012" lon="5.56974">
        <ele>293.675</ele>
        <time>2020-09-02T19:08:02Z</time>
      </trkpt>
      <trkpt lat="43.75022" lon="5.56978">
        <ele>294.285</ele>
        <time>2020-09-02T19:08:03Z</time>
      </trkpt>
      <trkpt lat="43.75032" lon="5.56982">
        <ele>294.012</ele>
        <time>2020-09-02T19:08:04Z</time>
      </trkpt>
      <trkpt lat="43.75042" lon="5.56985">
        <ele>294.233</ele>
        <time>2020-09-02T19:08:05Z</time>
      </trkpt>
      <trkpt lat="43.75051" lon="5.56988">
        <ele>294.761</ele>
        <time>2020-09-02T19:08:06Z</time>
      </trkpt>
      <trkpt lat="43.75058" lon="5.56991">
        <ele>295.557</ele>
        <time>2020-09-02T19:08:07Z</time>
      </trkpt>
      <trkpt lat="43.75066" lon="5.56995">
        <ele>296.45</ele>
        <time>2020-09-02T19:08:08Z</time>
      </trkpt>
      <trkpt lat="43.75073" lon="5.56998">
        <ele>297.143</ele>
        <time>2020-09-02T19:08:09Z</time>
      </trkpt>
      <trkpt lat="43.75079" lon="5.57002">
        <ele>297.964</ele>
        <time>2020-09-02T19:08:10Z</time>
      </trkpt>
      <trkpt lat="43.75085" lon="5.57005">
        <ele>297.91</ele>
        <time>2020-09-02T19:08:11Z</time>
      </trkpt>
      <trkpt lat="43.75089" lon="5.57003">
        <ele>298.608</ele>
        <time>2020-09-02T19:08:12Z</time>
      </trkpt>
      <trkpt lat="43.75092" lon="5.56998">
        <ele>298.622</ele>
        <time>2020-09-02T19:08:13Z</time>
      </trkpt>
      <trkpt lat="43.75091" lon="5.56991">
        <ele>298.991</ele>
        <time>2020-09-02T19:08:14Z</time>
      </trkpt>
      <trkpt lat="43.75088" lon="5.56982">
        <ele>299.071</ele>
        <time>2020-09-02T19:08:15Z</time>
      </trkpt>
      <trkpt lat="43.75083" lon="5.56975">
        <ele>299.818</ele>
        <time>2020-09-02T19:08:16Z</time>
      </trkpt>
      <trkpt lat="43.75077" lon="5.56969">
        <ele>300.259</ele>
        <time>2020-09-02T19:08:17Z</time>
      </trkpt>
      <trkpt lat="43.75071" lon="5.56962">
        <ele>300.677</ele>
        <time>2020-09-02T19:08:18Z</time>
      </trkpt>
      <trkpt lat="43.75066" lon="5.56953">
        <ele>301.143</ele>
        <time>2020-09-02T19:08:19Z</time>
      </trkpt>
      <trkpt lat="43.75061" lon="5.56943">
        <ele>301.676</ele>
        <time>2020-09-02T19:08:20Z</time>
      </trkpt>
      <trkpt lat="43.75058" lon="5.56931">
        <ele>302.383</ele>
        <time>2020-09-02T19:08:21Z</time>
      </trkpt>
      <trkpt lat="43.75055" lon="5.5692">
        <ele>302.725</ele>
        <time>2020-09-02T19:08:22Z</time>
      </trkpt>
      <trkpt lat="43.75053" lon="5.56908">
        <ele>303.417</ele>
        <time>2020-09-02T19:08:23Z</time>
      </trkpt>
      <trkpt lat="43.75052" lon="5.56896">
        <ele>303.208</ele>
        <time>2020-09-02T19:08:24Z</time>
      </trkpt>
      <trkpt lat="43.75053" lon="5.56885">
        <ele>305.056</ele>
        <time>2020-09-02T19:08:25Z</time>
      </trkpt>
      <trkpt lat="43.75056" lon="5.56876">
        <ele>305.825</ele>
        <time>2020-09-02T19:08:26Z</time>
      </trkpt>
      <trkpt lat="43.75061" lon="5.56868">
        <ele>306.245</ele>
        <time>2020-09-02T19:08:27Z</time>
      </trkpt>
      <trkpt lat="43.75068" lon="5.56863">
        <ele>306.212</ele>
        <time>2020-09-02T19:08:28Z</time>
      </trkpt>
      <trkpt lat="43.75075" lon="5.5686">
        <ele>306.473</ele>
        <time>2020-09-02T19:08:29Z</time>
      </trkpt>
      <trkpt lat="43.75084" lon="5.56855">
        <ele>306.771</ele>
        <time>2020-09-02T19:08:30Z</time>
      </trkpt>
      <trkpt lat="43.75093" lon="5.5685">
        <ele>307.147</ele>
        <time>2020-09-02T19:08:31Z</time>
      </trkpt>
      <trkpt lat="43.75102" lon="5.56845">
        <ele>307.84</ele>
        <time>2020-09-02T19:08:32Z</time>
      </trkpt>
      <trkpt lat="43.75111" lon="5.5684">
        <ele>308.683</ele>
        <time>2020-09-02T19:08:33Z</time>
      </trkpt>
      <trkpt lat="43.7512" lon="5.56835">
        <ele>309.325</ele>
        <time>2020-09-02T19:08:34Z</time>
      </trkpt>
      <trkpt lat="43.75129" lon="5.5683">
        <ele>309.817</ele>
        <time>2020-09-02T19:08:35Z</time>
      </trkpt>
      <trkpt lat="43.75139" lon="5.56824">
        <ele>310.108</ele>
        <time>2020-09-02T19:08:36Z</time>
      </trkpt>
      <trkpt lat="43.75149" lon="5.5682">
        <ele>310.376</ele>
        <time>2020-09-02T19:08:37Z</time>
      </trkpt>
      <trkpt lat="43.75159" lon="5.56815">
        <ele>310.825</ele>
        <time>2020-09-02T19:08:38Z</time>
      </trkpt>
      <trkpt lat="43.75169" lon="5.56812">
        <ele>311.245</ele>
        <time>2020-09-02T19:08:39Z</time>
      </trkpt>
      <trkpt lat="43.7518" lon="5.5681">
        <ele>310.832</ele>
        <time>2020-09-02T19:08:40Z</time>
      </trkpt>
      <trkpt lat="43.7519" lon="5.56807">
        <ele>311.543</ele>
        <time>2020-09-02T19:08:41Z</time>
      </trkpt>
      <trkpt lat="43.75201" lon="5.56805">
        <ele>311.981</ele>
        <time>2020-09-02T19:08:42Z</time>
      </trkpt>
      <trkpt lat="43.75212" lon="5.56803">
        <ele>312.567</ele>
        <time>2020-09-02T19:08:43Z</time>
      </trkpt>
      <trkpt lat="43.75224" lon="5.56801">
        <ele>313.45</ele>
        <time>2020-09-02T19:08:44Z</time>
      </trkpt>
      <trkpt lat="43.75236" lon="5.56799">
        <ele>314.329</ele>
        <time>2020-09-02T19:08:45Z</time>
      </trkpt>
      <trkpt lat="43.75247" lon="5.56796">
        <ele>315.2</ele>
        <time>2020-09-02T19:08:46Z</time>
      </trkpt>
      <trkpt lat="43.75258" lon="5.56793">
        <ele>315.82</ele>
        <time>2020-09-02T19:08:47Z</time>
      </trkpt>
      <trkpt lat="43.7527" lon="5.56789">
        <ele>316.708</ele>
        <time>2020-09-02T19:08:48Z</time>
      </trkpt>
      <trkpt lat="43.75282" lon="5.56785">
        <ele>317.24</ele>
        <time>2020-09-02T19:08:49Z</time>
      </trkpt>
      <trkpt lat="43.75293" lon="5.56783">
        <ele>317.479</ele>
        <time>2020-09-02T19:08:50Z</time>
      </trkpt>
      <trkpt lat="43.75306" lon="5.5678">
        <ele>317.829</ele>
        <time>2020-09-02T19:08:51Z</time>
      </trkpt>
      <trkpt lat="43.75319" lon="5.56774">
        <ele>317.856</ele>
        <time>2020-09-02T19:08:52Z</time>
      </trkpt>
      <trkpt lat="43.75332" lon="5.5677">
        <ele>318.867</ele>
        <time>2020-09-02T19:08:53Z</time>
      </trkpt>
      <trkpt lat="43.75345" lon="5.56768">
        <ele>319.765</ele>
        <time>2020-09-02T19:08:54Z</time>
      </trkpt>
      <trkpt lat="43.75357" lon="5.56764">
        <ele>320.331</ele>
        <time>2020-09-02T19:08:55Z</time>
      </trkpt>
      <trkpt lat="43.75369" lon="5.5676">
        <ele>320.364</ele>
        <time>2020-09-02T19:08:56Z</time>
      </trkpt>
      <trkpt lat="43.75383" lon="5.56755">
        <ele>321.016</ele>
        <time>2020-09-02T19:08:57Z</time>
      </trkpt>
      <trkpt lat="43.75395" lon="5.56751">
        <ele>321.876</ele>
        <time>2020-09-02T19:08:58Z</time>
      </trkpt>
      <trkpt lat="43.75407" lon="5.56744">
        <ele>322.113</ele>
        <time>2020-09-02T19:08:59Z</time>
      </trkpt>
      <trkpt lat="43.75419" lon="5.56739">
        <ele>322.408</ele>
        <time>2020-09-02T19:09:00Z</time>
      </trkpt>
      <trkpt lat="43.75431" lon="5.56735">
        <ele>323.219</ele>
        <time>2020-09-02T19:09:01Z</time>
      </trkpt>
      <trkpt lat="43.75442" lon="5.56726">
        <ele>323.428</ele>
        <time>2020-09-02T19:09:02Z</time>
      </trkpt>
      <trkpt lat="43.75453" lon="5.56718">
        <ele>323.438</ele>
        <time>2020-09-02T19:09:03Z</time>
      </trkpt>
      <trkpt lat="43.75465" lon="5.5671">
        <ele>324.045</ele>
        <time>2020-09-02T19:09:04Z</time>
      </trkpt>
      <trkpt lat="43.75476" lon="5.56701">
        <ele>324.376</ele>
        <time>2020-09-02T19:09:05Z</time>
      </trkpt>
      <trkpt lat="43.75487" lon="5.56693">
        <ele>324.724</ele>
        <time>2020-09-02T19:09:06Z</time>
      </trkpt>
      <trkpt lat="43.75498" lon="5.56685">
        <ele>325.56</ele>
        <time>2020-09-02T19:09:07Z</time>
      </trkpt>
      <trkpt lat="43.75509" lon="5.56677">
        <ele>326.193</ele>
        <time>2020-09-02T19:09:08Z</time>
      </trkpt>
      <trkpt lat="43.7552" lon="5.56672">
        <ele>326.988</ele>
        <time>2020-09-02T19:09:09Z</time>
      </trkpt>
      <trkpt lat="43.7553" lon="5.56663">
        <ele>327.224</ele>
        <time>2020-09-02T19:09:10Z</time>
      </trkpt>
      <trkpt lat="43.75541" lon="5.56654">
        <ele>327.926</ele>
        <time>2020-09-02T19:09:11Z</time>
      </trkpt>
      <trkpt lat="43.75552" lon="5.56646">
        <ele>328.808</ele>
        <time>2020-09-02T19:09:12Z</time>
      </trkpt>
      <trkpt lat="43.75562" lon="5.56637">
        <ele>328.866</ele>
        <time>2020-09-02T19:09:13Z</time>
      </trkpt>
      <trkpt lat="43.75574" lon="5.56629">
        <ele>329.845</ele>
        <time>2020-09-02T19:09:14Z</time>
      </trkpt>
      <trkpt lat="43.75585" lon="5.56619">
        <ele>330.375</ele>
        <time>2020-09-02T19:09:15Z</time>
      </trkpt>
      <trkpt lat="43.75596" lon="5.56608">
        <ele>330.672</ele>
        <time>2020-09-02T19:09:16Z</time>
      </trkpt>
      <trkpt lat="43.75607" lon="5.56597">
        <ele>330.643</ele>
        <time>2020-09-02T19:09:17Z</time>
      </trkpt>
      <trkpt lat="43.75617" lon="5.56586">
        <ele>331.011</ele>
        <time>2020-09-02T19:09:18Z</time>
      </trkpt>
      <trkpt lat="43.75627" lon="5.56575">
        <ele>331.697</ele>
        <time>2020-09-02T19:09:19Z</time>
      </trkpt>
      <trkpt lat="43.75637" lon="5.56565">
        <ele>331.93</ele>
        <time>2020-09-02T19:09:20Z</time>
      </trkpt>
      <trkpt lat="43.75648" lon="5.56557">
        <ele>332.985</ele>
        <time>2020-09-02T19:09:21Z</time>
      </trkpt>
      <trkpt lat="43.75659" lon="5.56549">
        <ele>333.589</ele>
        <time>2020-09-02T19:09:22Z</time>
      </trkpt>
      <trkpt lat="43.7567" lon="5.56541">
        <ele>333.917</ele>
        <time>2020-09-02T19:09:23Z</time>
      </trkpt>
      <trkpt lat="43.7568" lon="5.56533">
        <ele>334.408</ele>
        <time>2020-09-02T19:09:24Z</time>
      </trkpt>
      <trkpt lat="43.7569" lon="5.56526">
        <ele>334.796</ele>
        <time>2020-09-02T19:09:25Z</time>
      </trkpt>
      <trkpt lat="43.757" lon="5.56519">
        <ele>336.295</ele>
        <time>2020-09-02T19:09:26Z</time>
      </trkpt>
      <trkpt lat="43.75711" lon="5.56515">
        <ele>336.895</ele>
        <time>2020-09-02T19:09:27Z</time>
      </trkpt>
      <trkpt lat="43.75723" lon="5.56513">
        <ele>337.642</ele>
        <time>2020-09-02T19:09:28Z</time>
      </trkpt>
      <trkpt lat="43.75733" lon="5.56511">
        <ele>338.713</ele>
        <time>2020-09-02T19:09:29Z</time>
      </trkpt>
      <trkpt lat="43.75744" lon="5.56512">
        <ele>339.621</ele>
        <time>2020-09-02T19:09:30Z</time>
      </trkpt>
      <trkpt lat="43.75755" lon="5.56512">
        <ele>340.017</ele>
        <time>2020-09-02T19:09:31Z</time>
      </trkpt>
      <trkpt lat="43.75765" lon="5.56512">
        <ele>340.79</ele>
        <time>2020-09-02T19:09:32Z</time>
      </trkpt>
      <trkpt lat="43.75775" lon="5.56509">
        <ele>341.696</ele>
        <time>2020-09-02T19:09:33Z</time>
      </trkpt>
      <trkpt lat="43.75785" lon="5.56504">
        <ele>341.731</ele>
        <time>2020-09-02T19:09:34Z</time>
      </trkpt>
      <trkpt lat="43.75795" lon="5.56497">
        <ele>342.124</ele>
        <time>2020-09-02T19:09:35Z</time>
      </trkpt>
      <trkpt lat="43.75805" lon="5.5649">
        <ele>343.008</ele>
        <time>2020-09-02T19:09:36Z</time>
      </trkpt>
      <trkpt lat="43.75815" lon="5.56485">
        <ele>343.577</ele>
        <time>2020-09-02T19:09:37Z</time>
      </trkpt>
      <trkpt lat="43.75826" lon="5.56479">
        <ele>344.016</ele>
        <time>2020-09-02T19:09:38Z</time>
      </trkpt>
      <trkpt lat="43.75837" lon="5.56473">
        <ele>344.536</ele>
        <time>2020-09-02T19:09:39Z</time>
      </trkpt>
      <trkpt lat="43.75848" lon="5.56466">
        <ele>344.933</ele>
        <time>2020-09-02T19:09:40Z</time>
      </trkpt>
      <trkpt lat="43.75859" lon="5.5646">
        <ele>345.264</ele>
        <time>2020-09-02T19:09:41Z</time>
      </trkpt>
      <trkpt lat="43.75868" lon="5.5645">
        <ele>345.112</ele>
        <time>2020-09-02T19:09:42Z</time>
      </trkpt>
      <trkpt lat="43.75876" lon="5.56441">
        <ele>345.778</ele>
        <time>2020-09-02T19:09:43Z</time>
      </trkpt>
      <trkpt lat="43.75885" lon="5.56432">
        <ele>345.871</ele>
        <time>2020-09-02T19:09:44Z</time>
      </trkpt>
      <trkpt lat="43.75897" lon="5.56423">
        <ele>345.668</ele>
        <time>2020-09-02T19:09:45Z</time>
      </trkpt>
      <trkpt lat="43.75907" lon="5.56417">
        <ele>345.642</ele>
        <time>2020-09-02T19:09:46Z</time>
      </trkpt>
      <trkpt lat="43.75916" lon="5.56412">
        <ele>346.026</ele>
        <time>2020-09-02T19:09:47Z</time>
      </trkpt>
      <trkpt lat="43.75924" lon="5.56408">
        <ele>346.808</ele>
        <time>2020-09-02T19:09:48Z</time>
      </trkpt>
      <trkpt lat="43.75934" lon="5.56407">
        <ele>347.434</ele>
        <time>2020-09-02T19:09:49Z</time>
      </trkpt>
      <trkpt lat="43.75943" lon="5.56409">
        <ele>347.243</ele>
        <time>2020-09-02T19:09:50Z</time>
      </trkpt>
      <trkpt lat="43.75953" lon="5.56413">
        <ele>348.123</ele>
        <time>2020-09-02T19:09:51Z</time>
      </trkpt>
      <trkpt lat="43.75961" lon="5.56418">
        <ele>348.25</ele>
        <time>2020-09-02T19:09:52Z</time>
      </trkpt>
      <trkpt lat="43.75968" lon="5.56426">
        <ele>348.281</ele>
        <time>2020-09-02T19:09:53Z</time>
      </trkpt>
      <trkpt lat="43.75975" lon="5.56435">
        <ele>348.469</ele>
        <time>2020-09-02T19:09:54Z</time>
      </trkpt>
      <trkpt lat="43.7598" lon="5.56443">
        <ele>349.435</ele>
        <time>2020-09-02T19:09:55Z</time>
      </trkpt>
      <trkpt lat="43.75987" lon="5.56452">
        <ele>350.548</ele>
        <time>2020-09-02T19:09:56Z</time>
      </trkpt>
      <trkpt lat="43.75994" lon="5.56461">
        <ele>351.784</ele>
        <time>2020-09-02T19:09:57Z</time>
      </trkpt>
      <trkpt lat="43.75999" lon="5.56469">
        <ele>352.407</ele>
        <time>2020-09-02T19:09:58Z</time>
      </trkpt>
      <trkpt lat="43.76005" lon="5.56476">
        <ele>352.117</ele>
        <time>2020-09-02T19:09:59Z</time>
      </trkpt>
      <trkpt lat="43.76011" lon="5.56482">
        <ele>352.808</ele>
        <time>2020-09-02T19:10:00Z</time>
      </trkpt>
      <trkpt lat="43.76019" lon="5.56485">
        <ele>353.686</ele>
        <time>2020-09-02T19:10:01Z</time>
      </trkpt>
      <trkpt lat="43.76027" lon="5.56486">
        <ele>354.655</ele>
        <time>2020-09-02T19:10:02Z</time>
      </trkpt>
      <trkpt lat="43.76036" lon="5.56485">
        <ele>354.045</ele>
        <time>2020-09-02T19:10:03Z</time>
      </trkpt>
      <trkpt lat="43.76046" lon="5.56484">
        <ele>354.062</ele>
        <time>2020-09-02T19:10:04Z</time>
      </trkpt>
      <trkpt lat="43.76058" lon="5.56481">
        <ele>354.713</ele>
        <time>2020-09-02T19:10:05Z</time>
      </trkpt>
      <trkpt lat="43.76069" lon="5.5648">
        <ele>354.281</ele>
        <time>2020-09-02T19:10:06Z</time>
      </trkpt>
      <trkpt lat="43.7608" lon="5.56477">
        <ele>353.427</ele>
        <time>2020-09-02T19:10:07Z</time>
      </trkpt>
      <trkpt lat="43.7609" lon="5.56473">
        <ele>353.58</ele>
        <time>2020-09-02T19:10:08Z</time>
      </trkpt>
      <trkpt lat="43.76099" lon="5.56468">
        <ele>353.423</ele>
        <time>2020-09-02T19:10:09Z</time>
      </trkpt>
      <trkpt lat="43.76108" lon="5.56461">
        <ele>353.883</ele>
        <time>2020-09-02T19:10:10Z</time>
      </trkpt>
      <trkpt lat="43.76117" lon="5.56453">
        <ele>353.511</ele>
        <time>2020-09-02T19:10:11Z</time>
      </trkpt>
      <trkpt lat="43.76126" lon="5.56444">
        <ele>354.108</ele>
        <time>2020-09-02T19:10:12Z</time>
      </trkpt>
      <trkpt lat="43.76134" lon="5.56435">
        <ele>354.44</ele>
        <time>2020-09-02T19:10:13Z</time>
      </trkpt>
      <trkpt lat="43.76142" lon="5.56425">
        <ele>354.619</ele>
        <time>2020-09-02T19:10:14Z</time>
      </trkpt>
      <trkpt lat="43.76149" lon="5.56413">
        <ele>354.979</ele>
        <time>2020-09-02T19:10:15Z</time>
      </trkpt>
      <trkpt lat="43.76155" lon="5.56401">
        <ele>355.856</ele>
        <time>2020-09-02T19:10:16Z</time>
      </trkpt>
      <trkpt lat="43.7616" lon="5.56388">
        <ele>355.757</ele>
        <time>2020-09-02T19:10:17Z</time>
      </trkpt>
      <trkpt lat="43.76163" lon="5.56373">
        <ele>355.535</ele>
        <time>2020-09-02T19:10:18Z</time>
      </trkpt>
      <trkpt lat="43.76167" lon="5.56358">
        <ele>356.611</ele>
        <time>2020-09-02T19:10:19Z</time>
      </trkpt>
      <trkpt lat="43.76172" lon="5.56343">
        <ele>357.314</ele>
        <time>2020-09-02T19:10:20Z</time>
      </trkpt>
      <trkpt lat="43.76179" lon="5.5633">
        <ele>357.846</ele>
        <time>2020-09-02T19:10:21Z</time>
      </trkpt>
      <trkpt lat="43.76189" lon="5.5632">
        <ele>357.888</ele>
        <time>2020-09-02T19:10:22Z</time>
      </trkpt>
      <trkpt lat="43.76198" lon="5.56311">
        <ele>357.616</ele>
        <time>2020-09-02T19:10:23Z</time>
      </trkpt>
      <trkpt lat="43.7621" lon="5.56304">
        <ele>358.008</ele>
        <time>2020-09-02T19:10:24Z</time>
      </trkpt>
      <trkpt lat="43.76221" lon="5.56298">
        <ele>358.992</ele>
        <time>2020-09-02T19:10:25Z</time>
      </trkpt>
      <trkpt lat="43.76232" lon="5.5629">
        <ele>359.091</ele>
        <time>2020-09-02T19:10:26Z</time>
      </trkpt>
      <trkpt lat="43.76244" lon="5.56283">
        <ele>358.911</ele>
        <time>2020-09-02T19:10:27Z</time>
      </trkpt>
      <trkpt lat="43.76256" lon="5.56276">
        <ele>359.678</ele>
        <time>2020-09-02T19:10:28Z</time>
      </trkpt>
      <trkpt lat="43.76269" lon="5.56269">
        <ele>359.669</ele>
        <time>2020-09-02T19:10:29Z</time>
      </trkpt>
      <trkpt lat="43.76281" lon="5.56262">
        <ele>359.397</ele>
        <time>2020-09-02T19:10:30Z</time>
      </trkpt>
      <trkpt lat="43.76294" lon="5.56255">
        <ele>359.623</ele>
        <time>2020-09-02T19:10:31Z</time>
      </trkpt>
      <trkpt lat="43.76306" lon="5.56249">
        <ele>360.256</ele>
        <time>2020-09-02T19:10:32Z</time>
      </trkpt>
      <trkpt lat="43.76318" lon="5.56243">
        <ele>360.845</ele>
        <time>2020-09-02T19:10:33Z</time>
      </trkpt>
      <trkpt lat="43.7633" lon="5.56236">
        <ele>361.147</ele>
        <time>2020-09-02T19:10:34Z</time>
      </trkpt>
      <trkpt lat="43.76342" lon="5.56229">
        <ele>361.411</ele>
        <time>2020-09-02T19:10:35Z</time>
      </trkpt>
      <trkpt lat="43.76354" lon="5.56222">
        <ele>361.408</ele>
        <time>2020-09-02T19:10:36Z</time>
      </trkpt>
      <trkpt lat="43.76366" lon="5.56215">
        <ele>361.652</ele>
        <time>2020-09-02T19:10:37Z</time>
      </trkpt>
      <trkpt lat="43.76378" lon="5.56207">
        <ele>361.871</ele>
        <time>2020-09-02T19:10:38Z</time>
      </trkpt>
      <trkpt lat="43.76389" lon="5.562">
        <ele>361.711</ele>
        <time>2020-09-02T19:10:39Z</time>
      </trkpt>
      <trkpt lat="43.764" lon="5.56192">
        <ele>360.938</ele>
        <time>2020-09-02T19:10:40Z</time>
      </trkpt>
      <trkpt lat="43.76411" lon="5.56186">
        <ele>360.559</ele>
        <time>2020-09-02T19:10:41Z</time>
      </trkpt>
      <trkpt lat="43.76423" lon="5.56181">
        <ele>360.597</ele>
        <time>2020-09-02T19:10:42Z</time>
      </trkpt>
      <trkpt lat="43.76435" lon="5.56178">
        <ele>360.393</ele>
        <time>2020-09-02T19:10:43Z</time>
      </trkpt>
      <trkpt lat="43.76448" lon="5.56176">
        <ele>359.576</ele>
        <time>2020-09-02T19:10:44Z</time>
      </trkpt>
      <trkpt lat="43.76461" lon="5.56173">
        <ele>359.641</ele>
        <time>2020-09-02T19:10:45Z</time>
      </trkpt>
      <trkpt lat="43.76475" lon="5.56171">
        <ele>359.581</ele>
        <time>2020-09-02T19:10:46Z</time>
      </trkpt>
      <trkpt lat="43.76487" lon="5.56169">
        <ele>359.809</ele>
        <time>2020-09-02T19:10:47Z</time>
      </trkpt>
      <trkpt lat="43.76499" lon="5.56166">
        <ele>359.708</ele>
        <time>2020-09-02T19:10:48Z</time>
      </trkpt>
      <trkpt lat="43.76511" lon="5.56163">
        <ele>359.612</ele>
        <time>2020-09-02T19:10:49Z</time>
      </trkpt>
      <trkpt lat="43.76522" lon="5.5616">
        <ele>359.671</ele>
        <time>2020-09-02T19:10:50Z</time>
      </trkpt>
      <trkpt lat="43.76535" lon="5.56158">
        <ele>359.741</ele>
        <time>2020-09-02T19:10:51Z</time>
      </trkpt>
      <trkpt lat="43.76547" lon="5.56153">
        <ele>359.518</ele>
        <time>2020-09-02T19:10:52Z</time>
      </trkpt>
      <trkpt lat="43.76559" lon="5.56146">
        <ele>359.719</ele>
        <time>2020-09-02T19:10:53Z</time>
      </trkpt>
      <trkpt lat="43.76569" lon="5.56137">
        <ele>359.927</ele>
        <time>2020-09-02T19:10:54Z</time>
      </trkpt>
      <trkpt lat="43.7658" lon="5.56128">
        <ele>360.353</ele>
        <time>2020-09-02T19:10:55Z</time>
      </trkpt>
      <trkpt lat="43.76591" lon="5.56118">
        <ele>360.726</ele>
        <time>2020-09-02T19:10:56Z</time>
      </trkpt>
      <trkpt lat="43.76601" lon="5.56107">
        <ele>360.881</ele>
        <time>2020-09-02T19:10:57Z</time>
      </trkpt>
      <trkpt lat="43.76611" lon="5.56095">
        <ele>360.661</ele>
        <time>2020-09-02T19:10:58Z</time>
      </trkpt>
      <trkpt lat="43.76622" lon="5.56086">
        <ele>360.317</ele>
        <time>2020-09-02T19:10:59Z</time>
      </trkpt>
      <trkpt lat="43.76635" lon="5.5608">
        <ele>359.508</ele>
        <time>2020-09-02T19:11:00Z</time>
      </trkpt>
      <trkpt lat="43.76648" lon="5.56074">
        <ele>359.876</ele>
        <time>2020-09-02T19:11:01Z</time>
      </trkpt>
      <trkpt lat="43.7666" lon="5.56068">
        <ele>360.195</ele>
        <time>2020-09-02T19:11:02Z</time>
      </trkpt>
      <trkpt lat="43.76671" lon="5.56062">
        <ele>360.035</ele>
        <time>2020-09-02T19:11:03Z</time>
      </trkpt>
      <trkpt lat="43.76683" lon="5.56056">
        <ele>360.352</ele>
        <time>2020-09-02T19:11:04Z</time>
      </trkpt>
      <trkpt lat="43.76695" lon="5.56051">
        <ele>360.833</ele>
        <time>2020-09-02T19:11:05Z</time>
      </trkpt>
      <trkpt lat="43.76708" lon="5.56044">
        <ele>361.391</ele>
        <time>2020-09-02T19:11:06Z</time>
      </trkpt>
      <trkpt lat="43.7672" lon="5.56039">
        <ele>361.447</ele>
        <time>2020-09-02T19:11:07Z</time>
      </trkpt>
      <trkpt lat="43.76732" lon="5.56033">
        <ele>362.11</ele>
        <time>2020-09-02T19:11:08Z</time>
      </trkpt>
      <trkpt lat="43.76745" lon="5.56028">
        <ele>362.851</ele>
        <time>2020-09-02T19:11:09Z</time>
      </trkpt>
      <trkpt lat="43.76757" lon="5.56022">
        <ele>363.901</ele>
        <time>2020-09-02T19:11:10Z</time>
      </trkpt>
      <trkpt lat="43.7677" lon="5.56017">
        <ele>365.011</ele>
        <time>2020-09-02T19:11:11Z</time>
      </trkpt>
      <trkpt lat="43.76782" lon="5.56012">
        <ele>366.508</ele>
        <time>2020-09-02T19:11:12Z</time>
      </trkpt>
      <trkpt lat="43.76794" lon="5.56006">
        <ele>367.483</ele>
        <time>2020-09-02T19:11:13Z</time>
      </trkpt>
      <trkpt lat="43.76806" lon="5.56">
        <ele>368.122</ele>
        <time>2020-09-02T19:11:14Z</time>
      </trkpt>
      <trkpt lat="43.76819" lon="5.55994">
        <ele>368.472</ele>
        <time>2020-09-02T19:11:15Z</time>
      </trkpt>
      <trkpt lat="43.76832" lon="5.55988">
        <ele>368.349</ele>
        <time>2020-09-02T19:11:16Z</time>
      </trkpt>
      <trkpt lat="43.76844" lon="5.55981">
        <ele>368.41</ele>
        <time>2020-09-02T19:11:17Z</time>
      </trkpt>
      <trkpt lat="43.76857" lon="5.55976">
        <ele>368.698</ele>
        <time>2020-09-02T19:11:18Z</time>
      </trkpt>
      <trkpt lat="43.76869" lon="5.55974">
        <ele>368.754</ele>
        <time>2020-09-02T19:11:19Z</time>
      </trkpt>
      <trkpt lat="43.7688" lon="5.55972">
        <ele>368.637</ele>
        <time>2020-09-02T19:11:20Z</time>
      </trkpt>
      <trkpt lat="43.76891" lon="5.55973">
        <ele>368.858</ele>
        <time>2020-09-02T19:11:21Z</time>
      </trkpt>
      <trkpt lat="43.76901" lon="5.55972">
        <ele>368.852</ele>
        <time>2020-09-02T19:11:22Z</time>
      </trkpt>
      <trkpt lat="43.76909" lon="5.55966">
        <ele>368.417</ele>
        <time>2020-09-02T19:11:23Z</time>
      </trkpt>
      <trkpt lat="43.76916" lon="5.55957">
        <ele>368.708</ele>
        <time>2020-09-02T19:11:24Z</time>
      </trkpt>
      <trkpt lat="43.76921" lon="5.55946">
        <ele>368.813</ele>
        <time>2020-09-02T19:11:25Z</time>
      </trkpt>
      <trkpt lat="43.76924" lon="5.55934">
        <ele>369.522</ele>
        <time>2020-09-02T19:11:26Z</time>
      </trkpt>
      <trkpt lat="43.76928" lon="5.55923">
        <ele>370.032</ele>
        <time>2020-09-02T19:11:27Z</time>
      </trkpt>
      <trkpt lat="43.76933" lon="5.55914">
        <ele>370.469</ele>
        <time>2020-09-02T19:11:28Z</time>
      </trkpt>
      <trkpt lat="43.76941" lon="5.55906">
        <ele>370.69</ele>
        <time>2020-09-02T19:11:29Z</time>
      </trkpt>
      <trkpt lat="43.76949" lon="5.559">
        <ele>370.448</ele>
        <time>2020-09-02T19:11:30Z</time>
      </trkpt>
      <trkpt lat="43.76957" lon="5.55895">
        <ele>370.764</ele>
        <time>2020-09-02T19:11:31Z</time>
      </trkpt>
      <trkpt lat="43.76965" lon="5.55887">
        <ele>371.187</ele>
        <time>2020-09-02T19:11:32Z</time>
      </trkpt>
      <trkpt lat="43.76973" lon="5.5588">
        <ele>371.665</ele>
        <time>2020-09-02T19:11:33Z</time>
      </trkpt>
      <trkpt lat="43.7698" lon="5.55872">
        <ele>373.668</ele>
        <time>2020-09-02T19:11:34Z</time>
      </trkpt>
      <trkpt lat="43.76987" lon="5.55865">
        <ele>374.714</ele>
        <time>2020-09-02T19:11:35Z</time>
      </trkpt>
      <trkpt lat="43.76993" lon="5.55857">
        <ele>375.308</ele>
        <time>2020-09-02T19:11:36Z</time>
      </trkpt>
      <trkpt lat="43.76999" lon="5.55849">
        <ele>375.524</ele>
        <time>2020-09-02T19:11:37Z</time>
      </trkpt>
      <trkpt lat="43.77004" lon="5.55842">
        <ele>376.033</ele>
        <time>2020-09-02T19:11:38Z</time>
      </trkpt>
      <trkpt lat="43.77007" lon="5.55837">
        <ele>376.423</ele>
        <time>2020-09-02T19:11:39Z</time>
      </trkpt>
      <trkpt lat="43.77011" lon="5.5583">
        <ele>377.69</ele>
        <time>2020-09-02T19:11:41Z</time>
      </trkpt>
      <trkpt lat="43.77013" lon="5.55823">
        <ele>378.441</ele>
        <time>2020-09-02T19:11:43Z</time>
      </trkpt>
      <trkpt lat="43.77014" lon="5.5581">
        <ele>378.899</ele>
        <time>2020-09-02T19:11:45Z</time>
      </trkpt>
      <trkpt lat="43.77014" lon="5.55801">
        <ele>379.475</ele>
        <time>2020-09-02T19:11:46Z</time>
      </trkpt>
      <trkpt lat="43.77016" lon="5.5579">
        <ele>381.048</ele>
        <time>2020-09-02T19:11:47Z</time>
      </trkpt>
      <trkpt lat="43.77019" lon="5.5578">
        <ele>382.081</ele>
        <time>2020-09-02T19:11:48Z</time>
      </trkpt>
      <trkpt lat="43.77022" lon="5.55769">
        <ele>382.161</ele>
        <time>2020-09-02T19:11:49Z</time>
      </trkpt>
      <trkpt lat="43.77026" lon="5.55757">
        <ele>382.217</ele>
        <time>2020-09-02T19:11:50Z</time>
      </trkpt>
      <trkpt lat="43.7703" lon="5.55745">
        <ele>382.608</ele>
        <time>2020-09-02T19:11:51Z</time>
      </trkpt>
      <trkpt lat="43.77034" lon="5.55732">
        <ele>382.946</ele>
        <time>2020-09-02T19:11:52Z</time>
      </trkpt>
      <trkpt lat="43.77039" lon="5.55718">
        <ele>383.425</ele>
        <time>2020-09-02T19:11:53Z</time>
      </trkpt>
      <trkpt lat="43.77044" lon="5.55704">
        <ele>384.075</ele>
        <time>2020-09-02T19:11:54Z</time>
      </trkpt>
      <trkpt lat="43.77049" lon="5.55689">
        <ele>384.382</ele>
        <time>2020-09-02T19:11:55Z</time>
      </trkpt>
      <trkpt lat="43.77054" lon="5.55674">
        <ele>384.593</ele>
        <time>2020-09-02T19:11:56Z</time>
      </trkpt>
      <trkpt lat="43.77059" lon="5.5566">
        <ele>384.481</ele>
        <time>2020-09-02T19:11:57Z</time>
      </trkpt>
      <trkpt lat="43.77064" lon="5.55645">
        <ele>384.337</ele>
        <time>2020-09-02T19:11:58Z</time>
      </trkpt>
      <trkpt lat="43.7707" lon="5.55628">
        <ele>384.95</ele>
        <time>2020-09-02T19:11:59Z</time>
      </trkpt>
      <trkpt lat="43.77076" lon="5.55612">
        <ele>385.365</ele>
        <time>2020-09-02T19:12:00Z</time>
      </trkpt>
      <trkpt lat="43.77082" lon="5.55596">
        <ele>385.568</ele>
        <time>2020-09-02T19:12:01Z</time>
      </trkpt>
      <trkpt lat="43.77088" lon="5.5558">
        <ele>385.914</ele>
        <time>2020-09-02T19:12:02Z</time>
      </trkpt>
      <trkpt lat="43.77095" lon="5.55565">
        <ele>386.408</ele>
        <time>2020-09-02T19:12:03Z</time>
      </trkpt>
      <trkpt lat="43.77103" lon="5.55548">
        <ele>387.024</ele>
        <time>2020-09-02T19:12:04Z</time>
      </trkpt>
      <trkpt lat="43.7711" lon="5.55535">
        <ele>386.983</ele>
        <time>2020-09-02T19:12:05Z</time>
      </trkpt>
      <trkpt lat="43.77119" lon="5.55523">
        <ele>387.243</ele>
        <time>2020-09-02T19:12:06Z</time>
      </trkpt>
      <trkpt lat="43.77127" lon="5.55511">
        <ele>386.75</ele>
        <time>2020-09-02T19:12:07Z</time>
      </trkpt>
      <trkpt lat="43.77135" lon="5.55499">
        <ele>386.551</ele>
        <time>2020-09-02T19:12:08Z</time>
      </trkpt>
      <trkpt lat="43.77143" lon="5.55488">
        <ele>386.169</ele>
        <time>2020-09-02T19:12:09Z</time>
      </trkpt>
      <trkpt lat="43.77149" lon="5.55479">
        <ele>386.115</ele>
        <time>2020-09-02T19:12:10Z</time>
      </trkpt>
      <trkpt lat="43.77156" lon="5.55471">
        <ele>386.498</ele>
        <time>2020-09-02T19:12:11Z</time>
      </trkpt>
      <trkpt lat="43.7716" lon="5.55465">
        <ele>386.489</ele>
        <time>2020-09-02T19:12:12Z</time>
      </trkpt>
      <trkpt lat="43.77164" lon="5.55459">
        <ele>386.506</ele>
        <time>2020-09-02T19:12:13Z</time>
      </trkpt>
      <trkpt lat="43.77167" lon="5.55454">
        <ele>386.526</ele>
        <time>2020-09-02T19:12:14Z</time>
      </trkpt>
      <trkpt lat="43.77174" lon="5.5545">
        <ele>386.608</ele>
        <time>2020-09-02T19:12:16Z</time>
      </trkpt>
      <trkpt lat="43.77183" lon="5.55452">
        <ele>387.446</ele>
        <time>2020-09-02T19:12:18Z</time>
      </trkpt>
      <trkpt lat="43.77189" lon="5.55453">
        <ele>387.625</ele>
        <time>2020-09-02T19:12:19Z</time>
      </trkpt>
      <trkpt lat="43.77195" lon="5.55454">
        <ele>388.185</ele>
        <time>2020-09-02T19:12:20Z</time>
      </trkpt>
      <trkpt lat="43.77202" lon="5.55455">
        <ele>388.442</ele>
        <time>2020-09-02T19:12:21Z</time>
      </trkpt>
      <trkpt lat="43.77208" lon="5.55456">
        <ele>387.593</ele>
        <time>2020-09-02T19:12:22Z</time>
      </trkpt>
      <trkpt lat="43.77215" lon="5.55457">
        <ele>388.211</ele>
        <time>2020-09-02T19:12:23Z</time>
      </trkpt>
      <trkpt lat="43.77221" lon="5.55457">
        <ele>388.887</ele>
        <time>2020-09-02T19:12:24Z</time>
      </trkpt>
      <trkpt lat="43.77227" lon="5.55458">
        <ele>388.84</ele>
        <time>2020-09-02T19:12:25Z</time>
      </trkpt>
      <trkpt lat="43.77233" lon="5.55459">
        <ele>388.812</ele>
        <time>2020-09-02T19:12:26Z</time>
      </trkpt>
      <trkpt lat="43.77239" lon="5.5546">
        <ele>389.332</ele>
        <time>2020-09-02T19:12:27Z</time>
      </trkpt>
      <trkpt lat="43.77246" lon="5.55461">
        <ele>388.705</ele>
        <time>2020-09-02T19:12:28Z</time>
      </trkpt>
      <trkpt lat="43.77252" lon="5.55462">
        <ele>388.808</ele>
        <time>2020-09-02T19:12:29Z</time>
      </trkpt>
      <trkpt lat="43.77258" lon="5.55462">
        <ele>389.169</ele>
        <time>2020-09-02T19:12:30Z</time>
      </trkpt>
      <trkpt lat="43.77264" lon="5.55463">
        <ele>390.058</ele>
        <time>2020-09-02T19:12:31Z</time>
      </trkpt>
      <trkpt lat="43.7727" lon="5.55463">
        <ele>390.088</ele>
        <time>2020-09-02T19:12:32Z</time>
      </trkpt>
      <trkpt lat="43.77276" lon="5.55464">
        <ele>390.875</ele>
        <time>2020-09-02T19:12:33Z</time>
      </trkpt>
      <trkpt lat="43.77281" lon="5.55464">
        <ele>390.816</ele>
        <time>2020-09-02T19:12:34Z</time>
      </trkpt>
      <trkpt lat="43.77286" lon="5.55466">
        <ele>391.314</ele>
        <time>2020-09-02T19:12:35Z</time>
      </trkpt>
      <trkpt lat="43.77291" lon="5.55466">
        <ele>391.54</ele>
        <time>2020-09-02T19:12:36Z</time>
      </trkpt>
      <trkpt lat="43.77296" lon="5.55467">
        <ele>393.543</ele>
        <time>2020-09-02T19:12:37Z</time>
      </trkpt>
      <trkpt lat="43.77303" lon="5.55465">
        <ele>393.441</ele>
        <time>2020-09-02T19:12:39Z</time>
      </trkpt>
      <trkpt lat="43.77307" lon="5.55455">
        <ele>392.881</ele>
        <time>2020-09-02T19:12:41Z</time>
      </trkpt>
      <trkpt lat="43.77313" lon="5.55449">
        <ele>392.209</ele>
        <time>2020-09-02T19:12:43Z</time>
      </trkpt>
      <trkpt lat="43.77317" lon="5.55451">
        <ele>394.808</ele>
        <time>2020-09-02T19:12:45Z</time>
      </trkpt>
    </trkseg>
  </trk>
</gpx>